{
  "fields": [{"id":"_id","type":"int"},{"id":"Time (EPOCH)","type":"numeric"},{"id":"Latitude","type":"numeric"},{"id":"Longitude","type":"numeric"},{"id":"AMSL (m)","type":"numeric"},{"id":"AGL (m)","type":"numeric"},{"id":"Heading (deg)","type":"numeric"},{"id":"WindU (m/s)","type":"numeric"},{"id":"WindV (m/s)","type":"numeric"},{"id":"Temperature (C)","type":"numeric"},{"id":"RH (%)","type":"numeric"},{"id":"CH4 (ppm)","type":"numeric"},{"id":"CO2 (ppm)","type":"numeric"}],
  "records": [
    [1,1532793829,56.6532,-111.2068,369.2,3.2,271.1,0.3,-0.3,24.42,54.55,2.0149,397.5668],
    [2,1532793830,56.6532,-111.2072,369.2,3.3,271.3,-0.2,-0.4,23.76,55.66,2.015,398.5473],
    [3,1532793831,56.6532,-111.2075,369.2,2.5,271.5,-0.6,-0.4,23.72,55.41,2.0158,399.4301],
    [4,1532793832,56.6532,-111.208,369.3,2.6,271.5,-0.2,-0.3,23.34,55.85,2.0148,399.1584],
    [5,1532793833,56.6532,-111.2084,369.3,2.2,270.9,-0.4,-0.3,24.45,54.92,2.0124,397.8305],
    [6,1532793834,56.6532,-111.2089,369.3,2.3,270.2,-1.0,-0.4,23.6,55.67,2.0125,396.2385],
    [7,1532793835,56.6532,-111.2094,369.4,2.3,270.2,-1.3,-0.4,23.39,55.11,2.0112,396.6396],
    [8,1532793836,56.6532,-111.2099,369.4,2.4,270.3,-1.2,-0.5,23.95,55.2,2.0138,395.8149],
    [9,1532793837,56.6532,-111.2104,369.5,2.6,270.4,-1.1,-0.3,23.12,55.13,2.013,394.9199],
    [10,1532793838,56.6532,-111.211,369.5,2.6,270.2,-1.7,-0.4,23.55,55.23,2.0102,395.5519],
    [11,1532793839,56.6532,-111.2116,369.5,2.6,270.6,-1.6,-0.4,23.24,55.35,2.0097,395.4302],
    [12,1532793840,56.6532,-111.2122,369.6,2.7,270.7,-1.2,-0.5,23.23,56.05,2.009,394.8843],
    [13,1532793841,56.6532,-111.2129,369.6,2.7,270.6,-1.4,-0.5,23.2,55.77,2.0083,395.9948],
    [14,1532793842,56.6532,-111.2136,369.7,2.8,270.4,-1.6,-0.5,23.58,56.47,2.0067,395.132],
    [15,1532793843,56.6532,-111.2143,370.0,3.1,270.0,-1.2,-0.3,23.82,55.63,2.005,393.8652],
    [16,1532793844,56.6532,-111.215,370.6,2.9,269.7,-1.4,-0.1,23.25,56.29,2.0062,394.5074],
    [17,1532793845,56.6532,-111.2157,370.8,3.1,270.8,-1.4,-0.6,22.62,56.06,2.0071,394.6667],
    [18,1532793846,56.6532,-111.2164,371.3,3.5,271.1,-0.9,-0.6,23.17,56.3,2.0071,394.7234],
    [19,1532793847,56.6532,-111.2172,371.8,3.8,271.3,-1.2,-0.7,23.24,56.07,2.009,395.4861],
    [20,1532793848,56.6532,-111.218,372.4,4.5,271.7,-1.4,-1.0,23.15,55.58,2.0101,395.4861],
    [21,1532793849,56.6532,-111.2188,373.1,5.2,272.2,-1.6,-1.4,23.81,55.37,2.0081,395.041],
    [22,1532793850,56.6532,-111.2196,373.8,5.1,272.1,-1.0,-1.2,23.76,55.38,2.0069,394.8834],
    [23,1532793851,56.6532,-111.2204,374.9,6.2,272.2,-0.7,-1.2,22.79,56.12,2.007,394.7283],
    [24,1532793852,56.6532,-111.2213,376.1,7.1,272.8,-1.3,-1.4,22.65,56.01,2.0056,394.7283],
    [25,1532793853,56.6532,-111.2221,377.6,8.6,273.1,-1.2,-1.4,22.8,56.07,2.006,395.6585],
    [26,1532793854,56.6532,-111.2229,379.0,10.0,272.7,-1.0,-1.3,22.96,55.94,2.006,393.8556],
    [27,1532793855,56.6533,-111.2238,380.6,11.6,272.2,-0.7,-1.3,22.83,56.16,2.0059,395.3602],
    [28,1532793856,56.6533,-111.2247,382.7,13.7,271.7,-0.4,-1.0,23.06,56.7,2.0062,395.6961],
    [29,1532793857,56.6533,-111.2256,384.9,15.9,272.4,-1.0,-1.7,23.19,56.0,2.007,394.8672],
    [30,1532793858,56.6533,-111.2265,387.1,18.4,272.4,-1.0,-1.8,23.44,55.55,2.0029,394.2063],
    [31,1532793859,56.6533,-111.2274,389.5,20.8,271.4,-1.3,-1.1,23.39,56.15,2.0017,393.9878],
    [32,1532793860,56.6533,-111.2283,392.7,24.0,271.0,-1.9,-1.1,23.46,55.83,2.0025,391.4851],
    [33,1532793861,56.6533,-111.2292,396.6,27.9,271.0,-1.7,-1.2,22.35,55.99,2.0061,394.0094],
    [34,1532793862,56.6533,-111.2301,401.9,33.2,270.9,-1.2,-1.3,22.54,56.61,2.0022,394.0094],
    [35,1532793863,56.6533,-111.231,408.4,39.7,270.1,-0.6,-0.6,22.94,56.37,1.9989,392.6482],
    [36,1532793864,56.6533,-111.232,414.9,46.2,270.3,-0.3,-0.7,22.86,56.33,2.0,393.1547],
    [37,1532793865,56.6533,-111.2329,421.4,52.7,271.4,-0.6,-1.3,22.7,56.58,1.9889,386.3797],
    [38,1532793866,56.6533,-111.2338,427.1,59.1,270.0,-0.7,0.0,22.62,56.28,1.9868,387.5631],
    [39,1532793867,56.6533,-111.2347,433.0,65.0,269.8,-0.2,0.1,22.73,55.23,1.9872,387.5548],
    [40,1532793868,56.6533,-111.2356,438.8,70.8,271.3,-0.5,-0.9,22.82,55.47,1.9904,389.3252],
    [41,1532793869,56.6533,-111.2365,445.1,77.1,270.6,-0.5,-0.2,22.82,55.5,1.9951,395.6328],
    [42,1532793870,56.6533,-111.2374,451.3,83.2,270.6,-0.1,-0.3,22.69,55.04,1.9986,393.7858],
    [43,1532793871,56.6533,-111.2383,457.5,89.8,269.8,-0.5,0.7,22.61,55.02,1.9954,394.4463],
    [44,1532793872,56.6533,-111.2392,463.3,96.3,267.4,0.0,2.6,22.48,55.67,1.9925,394.4463],
    [45,1532793873,56.6533,-111.2401,468.9,102.1,267.4,0.3,2.3,22.35,55.22,1.9897,389.0334],
    [46,1532793874,56.6533,-111.241,474.4,108.3,267.1,0.8,2.7,23.3,54.54,1.9854,389.0603],
    [47,1532793875,56.6533,-111.242,480.8,114.8,266.8,0.3,3.1,22.73,55.12,1.974,383.393],
    [48,1532793876,56.6533,-111.2429,487.0,122.1,267.0,-0.4,3.3,22.88,54.66,1.9684,380.1696],
    [49,1532793877,56.6533,-111.2438,493.9,129.2,266.2,-0.2,4.4,22.49,54.41,1.9699,382.0295],
    [50,1532793878,56.6533,-111.2447,501.4,136.7,265.5,-0.7,5.0,22.43,54.54,1.9742,382.044],
    [51,1532793879,56.6533,-111.2456,508.7,144.7,266.2,-0.5,4.5,22.47,54.32,1.972,382.4028],
    [52,1532793880,56.6533,-111.2464,514.8,151.2,265.6,-0.4,5.4,23.31,53.25,1.9738,382.8042],
    [53,1532793881,56.6533,-111.2473,520.8,157.1,265.8,-1.2,5.0,21.9,53.78,1.9743,382.8042],
    [54,1532793882,56.6533,-111.2482,525.9,163.0,268.1,-0.7,3.3,22.42,54.06,1.9705,382.0729],
    [55,1532793883,56.6533,-111.2491,531.5,168.6,268.0,0.1,4.1,21.87,53.69,1.9696,379.1303],
    [56,1532793884,56.6534,-111.25,537.4,175.1,267.0,1.1,6.2,22.49,54.09,1.9672,381.0947],
    [57,1532793885,56.6534,-111.2509,542.5,181.2,269.9,0.7,4.7,22.73,53.57,1.9697,379.1056],
    [58,1532793886,56.6534,-111.2518,546.9,185.7,275.1,-0.1,2.4,22.28,54.31,1.9675,377.9877],
    [59,1532793887,56.6535,-111.2527,551.4,190.0,276.7,0.9,3.7,21.97,54.01,1.966,377.7771],
    [60,1532793888,56.6536,-111.2536,555.6,195.7,278.4,1.5,4.2,22.3,53.82,1.9636,376.2437],
    [61,1532793889,56.6538,-111.2545,559.1,200.1,282.4,0.9,3.3,22.04,53.66,1.9648,377.042],
    [62,1532793890,56.6539,-111.2554,562.8,205.9,285.1,1.9,3.7,22.32,53.51,1.9616,377.2387],
    [63,1532793891,56.6541,-111.2562,566.5,209.5,287.8,2.2,3.6,22.46,52.97,1.9569,374.3495],
    [64,1532793892,56.6543,-111.2571,570.0,213.7,290.8,2.2,3.7,22.41,53.59,1.9562,374.8937],
    [65,1532793893,56.6545,-111.258,573.7,217.7,293.5,2.3,3.8,22.67,52.2,1.9567,374.3014],
    [66,1532793894,56.6548,-111.2588,577.4,222.5,296.4,2.3,3.6,22.13,52.54,1.9588,374.2701],
    [67,1532793895,56.6551,-111.2596,581.8,227.4,299.1,2.7,3.7,22.06,52.22,1.9589,375.914],
    [68,1532793896,56.6554,-111.2604,586.0,232.0,301.6,2.4,3.9,21.71,52.23,1.9575,375.5432],
    [69,1532793897,56.6557,-111.2611,589.8,234.8,303.5,2.6,4.1,22.6,52.07,1.9569,375.8688],
    [70,1532793898,56.656,-111.2619,593.6,237.9,306.4,2.0,4.1,22.13,52.48,1.9552,375.3232],
    [71,1532793899,56.6564,-111.2626,597.2,241.2,308.4,2.2,4.3,22.19,52.53,1.9526,375.3054],
    [72,1532793900,56.6567,-111.2633,600.4,243.5,310.6,2.5,4.2,22.26,52.76,1.953,375.3054],
    [73,1532793901,56.6571,-111.2639,604.0,246.0,313.4,2.3,3.9,21.83,51.99,1.9523,375.3204],
    [74,1532793902,56.6575,-111.2646,607.8,248.8,315.5,2.9,3.7,22.2,52.36,1.9535,375.3836],
    [75,1532793903,56.658,-111.2652,612.0,252.0,317.9,2.7,3.3,21.82,52.01,1.958,376.5365],
    [76,1532793904,56.6584,-111.2659,616.2,255.3,320.6,2.7,2.7,22.14,52.17,1.9658,379.6629],
    [77,1532793905,56.6589,-111.2664,620.8,258.8,322.5,2.7,2.7,22.64,51.97,1.9684,380.3937],
    [78,1532793906,56.6594,-111.267,625.1,262.1,324.2,2.8,2.5,22.22,53.15,1.9709,381.7321],
    [79,1532793907,56.6599,-111.2676,628.8,264.8,326.2,2.4,2.5,21.91,53.73,1.967,379.4322],
    [80,1532793908,56.6603,-111.2681,632.2,267.2,327.4,2.6,2.7,22.09,53.82,1.9654,379.8338],
    [81,1532793909,56.6608,-111.2686,635.8,270.8,328.8,2.0,2.9,22.01,54.3,1.9615,377.1459],
    [82,1532793910,56.6613,-111.269,639.6,274.6,328.8,1.8,3.3,21.69,54.04,1.9565,375.0878],
    [83,1532793911,56.6618,-111.2695,643.6,278.6,326.9,2.9,4.1,21.64,53.85,1.9581,374.5964],
    [84,1532793912,56.6624,-111.2701,647.6,282.6,326.6,2.7,4.1,21.94,53.74,1.9585,375.1333],
    [85,1532793913,56.6629,-111.2706,652.1,287.2,325.8,3.1,4.0,21.94,54.17,1.9596,377.6268],
    [86,1532793914,56.6634,-111.2711,658.4,292.7,324.5,3.8,4.1,21.82,53.38,1.9568,375.7464],
    [87,1532793915,56.6639,-111.2717,664.8,298.8,323.9,4.3,3.8,21.89,53.54,1.9563,375.6927],
    [88,1532793916,56.6643,-111.2721,670.8,304.2,324.5,3.6,3.5,22.01,53.3,1.9573,377.1914],
    [89,1532793917,56.6648,-111.2727,677.4,309.9,324.7,3.1,3.7,21.61,53.53,1.9569,376.3842],
    [90,1532793918,56.6653,-111.2732,683.5,314.5,324.4,3.1,3.8,21.76,53.37,1.9539,375.9141],
    [91,1532793919,56.6658,-111.2738,689.1,319.7,323.5,3.9,4.2,21.61,54.05,1.9511,375.8677],
    [92,1532793920,56.6663,-111.2743,694.7,323.6,323.0,4.1,4.7,21.85,53.06,1.9473,374.8214],
    [93,1532793921,56.6667,-111.2748,700.1,328.3,323.4,3.8,4.5,22.17,52.82,1.9431,374.9998],
    [94,1532793922,56.6672,-111.2754,705.6,332.3,323.2,4.2,4.3,21.59,53.52,1.941,375.3993],
    [95,1532793923,56.6677,-111.2759,710.9,337.2,323.4,4.1,4.1,21.54,52.63,1.9349,374.3691],
    [96,1532793924,56.6682,-111.2764,716.0,340.9,323.0,4.7,4.2,22.34,51.89,1.9255,375.3008],
    [97,1532793925,56.6687,-111.277,721.2,348.2,322.2,5.3,4.4,21.61,51.91,1.9224,374.4918],
    [98,1532793926,56.6692,-111.2775,726.0,356.7,322.6,5.1,4.0,22.27,51.0,1.9181,373.532],
    [99,1532793927,56.6697,-111.2781,730.7,363.4,322.8,5.2,3.9,21.24,51.74,1.9144,373.5993],
    [100,1532793928,56.6701,-111.2786,735.4,377.6,322.5,5.7,4.0,21.46,50.66,1.9123,373.5993],
    [101,1532793929,56.6706,-111.2791,740.1,394.5,322.7,5.8,3.9,21.78,49.42,1.9097,373.7432],
    [102,1532793930,56.6711,-111.2796,744.7,403.9,323.1,5.6,3.8,21.12,48.83,1.9094,374.1902],
    [103,1532793931,56.6716,-111.2802,749.3,419.0,323.3,5.6,3.8,21.39,48.24,1.9098,374.6128],
    [104,1532793932,56.6721,-111.2807,753.8,431.7,323.3,5.6,4.0,21.49,48.47,1.9112,374.9914],
    [105,1532793933,56.6725,-111.2812,758.1,443.1,323.3,5.4,4.2,21.67,47.53,1.9131,374.961],
    [106,1532793934,56.673,-111.2817,762.4,448.7,323.6,5.0,4.2,21.83,47.44,1.9128,373.1468],
    [107,1532793935,56.6735,-111.2822,766.6,460.2,323.4,5.1,4.5,21.46,48.44,1.9152,373.631],
    [108,1532793936,56.674,-111.2827,770.4,471.9,323.5,4.8,4.6,22.09,48.11,1.9165,374.4511],
    [109,1532793937,56.6745,-111.2832,773.7,483.4,323.7,4.6,4.7,21.59,48.62,1.9169,374.3539],
    [110,1532793938,56.675,-111.2837,776.9,488.2,323.4,4.8,4.6,21.27,49.45,1.9176,375.0815],
    [111,1532793939,56.6754,-111.2843,780.0,499.2,323.4,4.9,4.2,21.71,50.2,1.9084,373.8139],
    [112,1532793940,56.6759,-111.2848,783.0,511.6,323.1,5.2,4.4,21.11,49.53,1.9073,373.8523],
    [113,1532793941,56.6764,-111.2853,786.3,524.7,322.6,5.5,4.5,21.18,49.1,1.9062,374.4112],
    [114,1532793942,56.6769,-111.2858,789.7,531.6,322.7,5.3,4.6,21.38,48.25,1.9061,373.7945],
    [115,1532793943,56.6774,-111.2864,793.3,542.0,322.4,5.7,4.8,21.22,47.7,1.9073,374.2472],
    [116,1532793944,56.6779,-111.2869,796.8,550.9,322.8,5.8,4.8,21.27,47.26,1.9068,374.2472],
    [117,1532793945,56.6784,-111.2874,799.9,556.7,323.9,5.3,4.3,21.02,47.01,1.9081,375.111],
    [118,1532793946,56.6789,-111.2879,803.0,560.0,324.6,5.3,4.3,21.12,47.4,1.9087,375.7255],
    [119,1532793947,56.6793,-111.2884,806.1,563.7,325.0,5.5,4.4,21.33,47.44,1.9099,375.7255],
    [120,1532793948,56.6798,-111.2889,809.1,567.4,325.7,5.3,4.3,21.41,46.88,1.9094,373.7764],
    [121,1532793949,56.6803,-111.2894,812.5,570.5,326.0,5.3,4.4,21.86,46.69,1.9111,374.9019],
    [122,1532793950,56.6808,-111.2899,816.0,574.3,326.2,5.2,4.4,21.36,47.53,1.9131,373.6243],
    [123,1532793951,56.6814,-111.2904,819.6,577.6,326.5,5.0,4.3,21.46,47.39,1.9158,374.1522],
    [124,1532793952,56.6819,-111.2908,823.3,581.4,326.2,5.1,4.5,21.11,48.26,1.9154,375.1157],
    [125,1532793953,56.6824,-111.2913,827.2,584.1,325.8,5.2,4.7,21.52,48.89,1.9151,376.116],
    [126,1532793954,56.6829,-111.2918,831.2,588.2,325.3,5.3,4.8,21.41,49.21,1.9138,375.9989],
    [127,1532793955,56.6834,-111.2923,835.2,592.2,324.7,5.5,5.0,21.34,49.48,1.9112,375.4406],
    [128,1532793956,56.6839,-111.2928,839.2,596.2,324.2,5.7,5.1,20.91,48.68,1.9099,375.4406],
    [129,1532793957,56.6844,-111.2933,843.1,600.8,323.8,5.8,5.1,21.33,48.86,1.9096,375.6236],
    [130,1532793958,56.6849,-111.2938,846.4,603.4,323.7,5.7,5.0,21.4,48.91,1.9112,374.9506],
    [131,1532793959,56.6854,-111.2943,849.1,605.1,323.6,5.7,5.0,21.82,48.03,1.911,376.6633],
    [132,1532793960,56.6859,-111.2948,851.4,606.6,323.3,5.7,5.0,22.05,47.2,1.911,375.5157],
    [133,1532793961,56.6864,-111.2954,853.5,608.5,323.0,5.8,5.0,21.13,47.64,1.9097,375.9903],
    [134,1532793962,56.6869,-111.2959,855.7,610.7,322.8,5.9,5.0,21.14,47.28,1.9099,375.5105],
    [135,1532793963,56.6874,-111.2964,858.0,613.0,322.6,6.1,4.9,21.24,47.28,1.909,374.9525],
    [136,1532793964,56.6879,-111.2969,860.6,615.6,322.4,6.1,4.9,21.74,47.03,1.9093,374.629],
    [137,1532793965,56.6884,-111.2975,863.4,618.4,322.2,6.1,5.0,21.12,47.35,1.9094,376.9224],
    [138,1532793966,56.6889,-111.298,866.2,622.2,322.1,6.4,5.0,21.44,46.76,1.9106,375.489],
    [139,1532793967,56.6894,-111.2986,868.9,624.9,322.5,6.3,4.8,20.75,47.15,1.9121,376.1054],
    [140,1532793968,56.6898,-111.2991,871.4,627.4,323.2,6.1,4.7,21.74,46.83,1.9114,376.4473],
    [141,1532793969,56.6903,-111.2996,874.0,630.0,323.7,6.2,4.7,21.57,47.02,1.9122,375.9232],
    [142,1532793970,56.6908,-111.3001,876.6,632.6,324.4,6.1,4.7,21.38,47.65,1.9107,376.1174],
    [143,1532793971,56.6914,-111.3006,879.4,635.4,325.2,6.0,4.6,20.65,47.63,1.911,376.5458],
    [144,1532793972,56.6919,-111.3011,882.1,638.1,325.8,6.1,4.7,21.37,47.34,1.9108,376.5458],
    [145,1532793973,56.6924,-111.3016,884.9,639.9,326.3,6.1,4.7,21.78,47.17,1.9096,376.4701],
    [146,1532793974,56.6929,-111.3021,887.8,642.8,326.7,6.3,4.6,21.15,47.99,1.909,376.6543],
    [147,1532793975,56.6935,-111.3026,890.8,647.7,327.0,6.6,4.5,21.2,47.41,1.907,376.6993],
    [148,1532793976,56.694,-111.3031,894.0,650.7,326.9,6.8,4.6,21.47,46.72,1.9036,376.9785],
    [149,1532793977,56.6945,-111.3035,897.4,651.7,326.4,7.2,4.7,20.94,46.27,1.9033,375.6992],
    [150,1532793978,56.6951,-111.304,901.0,654.1,326.2,7.3,4.6,21.15,45.53,1.903,375.9524],
    [151,1532793979,56.6956,-111.3045,904.5,656.5,326.2,7.2,4.6,21.19,44.75,1.9024,377.9581],
    [152,1532793980,56.6962,-111.305,908.0,658.3,326.0,7.2,4.6,21.19,44.25,1.9027,377.2991],
    [153,1532793981,56.6967,-111.3055,911.3,661.7,325.9,7.3,4.6,21.19,43.91,1.9021,377.539],
    [154,1532793982,56.6972,-111.3059,914.5,664.0,325.8,7.3,4.6,21.62,43.47,1.9036,377.0189],
    [155,1532793983,56.6978,-111.3064,917.4,666.8,325.7,7.3,4.5,21.84,43.1,1.9047,377.4034],
    [156,1532793984,56.6983,-111.3069,920.3,667.6,325.6,7.3,4.5,21.29,43.18,1.9046,376.5965],
    [157,1532793985,56.6988,-111.3074,923.1,669.4,325.5,7.3,4.6,20.86,43.63,1.9052,378.5212],
    [158,1532793986,56.6993,-111.3079,925.8,671.5,325.5,7.3,4.7,21.46,42.9,1.9061,375.6729],
    [159,1532793987,56.6998,-111.3083,928.1,669.7,325.5,7.3,4.7,21.82,42.97,1.9061,376.9298],
    [160,1532793988,56.7003,-111.3088,930.8,670.8,325.5,7.2,4.7,20.55,43.75,1.9059,377.6179],
    [161,1532793989,56.7009,-111.3093,933.4,670.1,325.6,7.2,4.7,21.81,43.03,1.9052,376.8103],
    [162,1532793990,56.7014,-111.3098,936.1,668.7,325.7,7.2,4.7,21.27,44.46,1.9052,376.6581],
    [163,1532793991,56.702,-111.3103,938.8,670.8,325.8,7.3,4.5,21.46,44.1,1.906,376.6096],
    [164,1532793992,56.7025,-111.3108,941.5,673.5,325.8,7.3,4.5,21.05,43.99,1.9055,377.4527],
    [165,1532793993,56.703,-111.3113,944.5,675.5,325.8,7.3,4.5,21.71,43.33,1.9058,377.9568],
    [166,1532793994,56.7036,-111.3118,947.5,670.5,325.7,7.3,4.5,21.95,43.59,1.9052,377.7848],
    [167,1532793995,56.7041,-111.3123,950.5,659.7,325.6,7.3,4.5,21.07,44.24,1.9052,377.5398],
    [168,1532793996,56.7046,-111.3128,953.3,654.3,325.6,7.3,4.4,20.71,43.82,1.905,377.0889],
    [169,1532793997,56.7052,-111.3133,956.0,649.5,325.6,7.3,4.4,20.83,43.87,1.9048,378.0442],
    [170,1532793998,56.7057,-111.3138,958.6,645.1,325.7,7.3,4.4,21.25,44.07,1.9055,377.1004],
    [171,1532793999,56.7062,-111.3143,961.3,641.9,325.8,7.2,4.4,21.41,43.71,1.9047,377.4004],
    [172,1532794000,56.7068,-111.3148,963.9,641.1,325.9,7.2,4.5,21.3,44.08,1.9056,377.5143],
    [173,1532794001,56.7073,-111.3153,966.5,638.8,325.9,7.2,4.6,20.69,43.95,1.9057,376.4033],
    [174,1532794002,56.7079,-111.3158,969.2,639.5,325.8,7.3,4.6,21.18,43.71,1.9054,376.4531],
    [175,1532794003,56.7084,-111.3163,972.0,640.7,325.7,7.3,4.7,21.23,44.33,1.909,377.3558],
    [176,1532794004,56.7089,-111.3167,974.7,640.6,325.7,7.3,4.6,21.12,43.78,1.9059,376.5262],
    [177,1532794005,56.7095,-111.3173,977.6,642.3,325.6,7.4,4.6,21.35,44.06,1.9077,376.1334],
    [178,1532794006,56.71,-111.3178,980.5,643.3,325.6,7.3,4.6,21.17,44.11,1.9064,376.1334],
    [179,1532794007,56.7105,-111.3182,983.1,647.5,325.6,7.4,4.6,21.48,43.94,1.9047,376.9561],
    [180,1532794008,56.7111,-111.3187,985.9,648.6,325.7,7.3,4.5,21.63,43.48,1.9053,376.3885],
    [181,1532794009,56.7116,-111.3192,988.5,649.4,325.8,7.4,4.6,21.22,43.91,1.9059,376.0905],
    [182,1532794010,56.7122,-111.3197,991.1,650.5,325.8,7.4,4.6,20.87,43.94,1.9065,376.0905],
    [183,1532794011,56.7127,-111.3202,993.8,650.7,325.9,7.4,4.6,21.58,44.1,1.9049,377.6983],
    [184,1532794012,56.7132,-111.3207,996.5,653.2,325.9,7.4,4.6,21.38,43.49,1.9049,376.6705],
    [185,1532794013,56.7138,-111.3212,999.2,655.2,325.9,7.4,4.5,21.02,43.75,1.9054,377.3448],
    [186,1532794014,56.7143,-111.3217,1002.0,656.9,325.9,7.4,4.5,20.98,43.73,1.9046,377.8321],
    [187,1532794015,56.7149,-111.3222,1004.9,658.8,325.9,7.4,4.5,20.96,43.46,1.9047,377.7394],
    [188,1532794016,56.7154,-111.3227,1007.6,661.6,325.9,7.4,4.5,21.38,43.1,1.9053,376.1937],
    [189,1532794017,56.716,-111.3232,1010.4,664.0,325.8,7.4,4.6,21.21,43.62,1.905,376.2952],
    [190,1532794018,56.7165,-111.3237,1013.1,666.8,325.8,7.4,4.5,20.95,43.5,1.9051,376.2484],
    [191,1532794019,56.717,-111.3242,1015.7,668.4,325.8,7.5,4.5,20.63,44.06,1.9049,376.5936],
    [192,1532794020,56.7176,-111.3247,1018.4,670.4,325.9,7.4,4.4,21.09,43.82,1.9056,377.1201],
    [193,1532794021,56.7181,-111.3252,1021.1,673.5,325.9,7.4,4.4,21.08,43.62,1.9058,376.6976],
    [194,1532794022,56.7187,-111.3257,1023.9,676.0,326.0,7.4,4.4,21.01,44.56,1.905,375.944],
    [195,1532794023,56.7192,-111.3262,1026.8,677.2,326.1,7.4,4.3,20.87,43.73,1.9056,375.7429],
    [196,1532794024,56.7198,-111.3267,1029.6,679.0,326.2,7.4,4.3,20.59,44.04,1.907,376.326],
    [197,1532794025,56.7203,-111.3272,1032.3,681.3,326.2,7.3,4.3,21.55,43.96,1.9049,376.433],
    [198,1532794026,56.7209,-111.3277,1034.9,685.0,326.3,7.3,4.2,20.9,43.92,1.9057,377.1548],
    [199,1532794027,56.7214,-111.3282,1037.6,688.6,326.3,7.3,4.2,20.94,44.39,1.9045,377.1832],
    [200,1532794028,56.7219,-111.3287,1040.3,692.3,326.3,7.3,4.2,20.93,44.34,1.9047,377.4047],
    [201,1532794029,56.7225,-111.3292,1043.1,695.5,326.2,7.3,4.2,21.04,43.57,1.9048,377.392],
    [202,1532794030,56.723,-111.3297,1045.8,697.8,326.2,7.3,4.2,21.22,43.61,1.9042,377.7932],
    [203,1532794031,56.7236,-111.3302,1048.5,699.7,326.1,7.4,4.2,20.34,43.99,1.9033,377.0984],
    [204,1532794032,56.7241,-111.3307,1051.3,702.1,326.0,7.5,4.1,21.18,43.65,1.9035,377.7758],
    [205,1532794033,56.7247,-111.3312,1054.0,704.0,326.0,7.5,4.1,20.77,43.94,1.9043,378.2006],
    [206,1532794034,56.7252,-111.3317,1056.7,706.7,325.9,7.6,4.1,20.79,43.76,1.9038,376.6748],
    [207,1532794035,56.7258,-111.3322,1059.2,709.3,326.1,7.5,4.1,20.79,43.7,1.9053,377.4218],
    [208,1532794036,56.7263,-111.3327,1061.7,711.4,326.1,7.5,4.1,21.45,43.46,1.9043,376.3551],
    [209,1532794037,56.7269,-111.3332,1064.2,713.3,326.2,7.5,4.1,20.67,44.32,1.9035,376.3551],
    [210,1532794038,56.7274,-111.3337,1066.9,715.9,326.3,7.6,3.8,20.38,43.4,1.9042,377.0664],
    [211,1532794039,56.7279,-111.3342,1069.9,718.9,326.4,7.7,3.6,20.64,43.64,1.9056,377.6027],
    [212,1532794040,56.7285,-111.3347,1073.2,721.2,326.4,7.7,3.5,21.5,43.01,1.9053,378.1018],
    [213,1532794041,56.7291,-111.3352,1076.2,723.1,326.4,7.7,3.5,20.68,43.71,1.9064,378.1018],
    [214,1532794042,56.7296,-111.3357,1079.0,725.3,326.3,7.8,3.6,21.2,43.33,1.9047,377.5823],
    [215,1532794043,56.7301,-111.3362,1081.7,727.6,326.3,7.7,3.6,20.94,43.32,1.9044,377.7868],
    [216,1532794044,56.7307,-111.3367,1084.3,730.4,326.2,7.8,3.6,21.1,44.03,1.9028,377.5764],
    [217,1532794045,56.7312,-111.3372,1086.9,731.9,326.1,7.8,3.7,20.72,44.34,1.9023,376.2005],
    [218,1532794046,56.7318,-111.3377,1089.6,734.7,326.1,7.8,3.8,20.57,43.5,1.9046,376.6678],
    [219,1532794047,56.7323,-111.3382,1092.4,736.4,326.2,7.6,3.8,20.32,43.5,1.9049,376.849],
    [220,1532794048,56.7329,-111.3387,1095.1,739.1,326.3,7.6,3.9,20.66,43.63,1.9054,378.0538],
    [221,1532794049,56.7335,-111.3392,1097.7,742.6,326.3,7.5,4.0,20.73,43.37,1.9039,378.0538],
    [222,1532794050,56.734,-111.3397,1100.3,746.3,326.5,7.4,3.9,20.38,43.5,1.9042,377.1451],
    [223,1532794051,56.7346,-111.3402,1102.9,748.8,326.6,7.3,3.9,20.89,43.38,1.9035,377.1451],
    [224,1532794052,56.7351,-111.3407,1105.5,751.5,326.6,7.3,3.9,20.54,44.2,1.903,378.3159],
    [225,1532794053,56.7357,-111.3413,1108.1,753.8,326.6,7.3,4.0,20.88,43.18,1.9037,378.3159],
    [226,1532794054,56.7362,-111.3418,1110.8,755.8,326.5,7.3,4.0,20.32,43.52,1.9032,376.5459],
    [227,1532794055,56.7368,-111.3423,1113.4,757.7,326.4,7.2,4.0,20.65,43.63,1.9032,377.3574],
    [228,1532794056,56.7374,-111.3428,1116.1,760.1,326.3,7.2,4.0,20.46,43.63,1.9024,378.2553],
    [229,1532794057,56.7379,-111.3433,1118.7,762.8,326.3,7.2,4.0,20.67,43.41,1.9029,378.5014],
    [230,1532794058,56.7385,-111.3438,1121.3,764.7,326.3,7.1,3.9,21.21,43.05,1.9034,378.174],
    [231,1532794059,56.739,-111.3443,1123.9,767.4,326.3,7.1,3.9,20.3,43.69,1.9034,376.4282],
    [232,1532794060,56.7396,-111.3448,1126.5,769.5,326.3,7.1,3.9,20.52,43.87,1.9028,377.844],
    [233,1532794061,56.7402,-111.3454,1129.2,772.2,326.4,7.1,3.8,20.58,44.04,1.9028,377.9026],
    [234,1532794062,56.7407,-111.3459,1131.9,774.8,326.5,7.1,3.8,20.23,44.08,1.9027,377.5709],
    [235,1532794063,56.7413,-111.3464,1134.6,778.6,326.5,7.1,3.8,20.82,43.86,1.9023,377.7754],
    [236,1532794064,56.7418,-111.3469,1137.4,781.2,326.4,7.2,3.8,20.31,44.23,1.9039,377.9488],
    [237,1532794065,56.7424,-111.3474,1140.1,786.7,326.3,7.2,3.8,20.31,44.11,1.9028,377.9488],
    [238,1532794066,56.7429,-111.3479,1142.8,795.8,326.3,7.1,3.8,20.57,44.91,1.9041,377.748],
    [239,1532794067,56.7435,-111.3485,1145.4,807.3,326.2,7.2,3.8,20.38,44.8,1.9044,377.9851],
    [240,1532794068,56.744,-111.349,1148.1,818.1,326.1,7.2,3.8,20.67,43.67,1.9062,377.1754],
    [241,1532794069,56.7446,-111.3495,1150.7,823.1,326.2,7.0,3.7,20.35,44.7,1.9085,377.2975],
    [242,1532794070,56.7451,-111.35,1153.3,821.5,326.3,6.9,3.7,20.44,44.55,1.9098,377.8966],
    [243,1532794071,56.7457,-111.3505,1156.0,819.2,326.3,6.9,3.7,20.33,45.13,1.9096,376.3498],
    [244,1532794072,56.7462,-111.351,1158.8,816.5,326.4,6.9,3.7,20.28,45.54,1.9099,377.1914],
    [245,1532794073,56.7468,-111.3516,1161.5,814.3,326.5,6.8,3.6,20.24,45.87,1.9097,375.8759],
    [246,1532794074,56.7474,-111.3521,1164.3,813.8,326.4,6.9,3.7,20.61,45.45,1.9095,376.3253],
    [247,1532794075,56.7479,-111.3526,1166.9,814.6,326.4,6.8,3.6,20.26,46.97,1.9096,375.9748],
    [248,1532794076,56.7485,-111.3531,1169.7,817.7,326.3,6.9,3.6,19.97,46.17,1.9108,376.5851],
    [249,1532794077,56.749,-111.3537,1172.4,820.9,326.2,6.9,3.6,20.02,46.16,1.9096,376.3752],
    [250,1532794078,56.7496,-111.3542,1175.0,823.2,326.1,7.0,3.7,20.5,45.79,1.9082,376.8162],
    [251,1532794079,56.7501,-111.3547,1177.8,825.7,326.0,7.0,3.7,20.1,46.05,1.908,376.7752],
    [252,1532794080,56.7507,-111.3552,1180.5,828.6,326.0,7.0,3.8,19.91,45.94,1.9067,377.0958],
    [253,1532794081,56.7513,-111.3558,1183.2,830.6,326.0,7.0,3.8,20.07,45.56,1.9063,378.8405],
    [254,1532794082,56.7518,-111.3563,1185.9,832.9,326.1,6.9,3.8,19.62,45.15,1.9065,377.3212],
    [255,1532794083,56.7524,-111.3568,1188.6,835.4,326.2,6.9,3.7,20.09,44.99,1.9062,378.3932],
    [256,1532794084,56.7529,-111.3573,1191.3,837.4,326.4,6.9,3.7,19.9,44.29,1.9085,377.4159],
    [257,1532794085,56.7534,-111.3578,1193.8,839.9,326.4,6.8,3.7,19.49,44.36,1.9088,377.1696],
    [258,1532794086,56.754,-111.3583,1196.5,842.4,326.4,6.8,3.7,20.35,43.96,1.9074,376.6415],
    [259,1532794087,56.7545,-111.3588,1199.2,845.2,326.3,6.8,3.8,20.29,44.52,1.9067,377.0152],
    [260,1532794088,56.7551,-111.3594,1202.0,848.0,326.3,6.8,3.9,19.59,44.3,1.9063,377.0152],
    [261,1532794089,56.7557,-111.3599,1204.6,850.6,326.3,6.7,3.8,20.1,44.63,1.9048,378.3386],
    [262,1532794090,56.7562,-111.3604,1207.2,853.2,326.3,6.6,3.7,20.62,43.9,1.9049,378.0787],
    [263,1532794091,56.7568,-111.3609,1209.7,855.7,326.3,6.5,3.8,19.84,43.89,1.9045,377.9667],
    [264,1532794092,56.7573,-111.3615,1212.3,858.3,326.4,6.4,3.7,20.33,43.54,1.9045,378.7979],
    [265,1532794093,56.7579,-111.362,1214.9,860.9,326.4,6.4,3.7,19.71,43.48,1.905,377.7675],
    [266,1532794094,56.7584,-111.3625,1217.4,863.4,326.5,6.3,3.7,19.96,43.5,1.9054,376.4388],
    [267,1532794095,56.759,-111.363,1219.9,865.9,326.5,6.2,3.7,20.01,43.21,1.9088,377.3537],
    [268,1532794096,56.7595,-111.3636,1222.5,868.5,326.6,6.1,3.7,20.36,43.31,1.9063,377.6732],
    [269,1532794097,56.7601,-111.3641,1225.1,872.1,326.5,6.1,3.7,19.51,44.18,1.9071,377.9281],
    [270,1532794098,56.7607,-111.3646,1227.7,874.7,326.4,6.1,3.7,20.47,43.33,1.9072,378.2401],
    [271,1532794099,56.7612,-111.3652,1230.4,878.4,326.3,6.1,3.7,20.18,43.81,1.9062,377.2396],
    [272,1532794100,56.7618,-111.3657,1233.1,881.1,326.1,6.2,3.8,20.07,44.07,1.9075,376.6571],
    [273,1532794101,56.7623,-111.3662,1235.7,884.7,326.1,6.1,3.7,19.93,44.33,1.9077,375.7573],
    [274,1532794102,56.7629,-111.3668,1238.2,887.2,326.1,6.1,3.8,19.8,44.75,1.9084,376.1875],
    [275,1532794103,56.7634,-111.3673,1240.9,889.9,326.1,6.0,3.8,19.86,45.12,1.9099,375.5245],
    [276,1532794104,56.764,-111.3678,1243.3,892.3,326.2,5.9,3.7,20.09,44.9,1.9107,374.7232],
    [277,1532794105,56.7645,-111.3684,1246.0,896.0,326.2,6.0,3.7,19.65,45.82,1.9114,375.2112],
    [278,1532794106,56.7651,-111.3689,1248.5,898.5,326.3,6.0,3.7,19.89,45.96,1.9108,376.303],
    [279,1532794107,56.7656,-111.3694,1251.2,901.2,326.3,6.0,3.7,20.4,46.71,1.912,375.4443],
    [280,1532794108,56.7662,-111.37,1253.8,903.8,326.2,6.0,3.8,19.39,47.8,1.9099,375.1402],
    [281,1532794109,56.7667,-111.3705,1256.5,906.5,326.2,6.0,3.8,19.77,48.38,1.9099,374.7528],
    [282,1532794110,56.7673,-111.3711,1259.3,909.3,326.2,6.0,3.7,20.21,48.26,1.9099,374.4915],
    [283,1532794111,56.7678,-111.3716,1261.9,911.9,326.1,6.0,3.8,19.7,48.61,1.9106,374.3238],
    [284,1532794112,56.7684,-111.3721,1264.5,914.5,326.1,5.9,3.8,19.95,48.64,1.9105,374.1705],
    [285,1532794113,56.7689,-111.3726,1267.1,916.1,326.0,5.9,3.9,18.93,48.65,1.9091,374.1705],
    [286,1532794114,56.7695,-111.3732,1269.7,918.7,326.0,6.0,3.9,19.47,48.8,1.9097,373.7782],
    [287,1532794115,56.77,-111.3737,1272.3,922.3,326.0,5.9,3.9,19.66,48.78,1.9097,373.5397],
    [288,1532794116,56.7706,-111.3743,1274.9,924.9,326.0,5.9,3.9,20.11,48.36,1.9101,373.4646],
    [289,1532794117,56.7711,-111.3748,1277.4,927.4,326.0,5.9,4.0,19.35,48.67,1.9087,372.8083],
    [290,1532794118,56.7717,-111.3753,1279.8,929.8,326.0,5.9,4.0,19.69,49.05,1.9089,372.852],
    [291,1532794119,56.7722,-111.3759,1282.4,932.4,326.1,5.9,4.0,19.23,49.03,1.9097,374.4834],
    [292,1532794120,56.7728,-111.3764,1285.0,936.0,326.1,5.9,4.0,19.37,49.06,1.91,374.093],
    [293,1532794121,56.7733,-111.3769,1287.6,939.9,326.1,5.9,4.0,19.63,49.05,1.9086,374.1554],
    [294,1532794122,56.7739,-111.3775,1290.4,946.7,326.1,5.9,4.1,19.7,48.99,1.9084,373.427],
    [295,1532794123,56.7744,-111.378,1293.2,956.0,326.1,5.9,4.1,19.7,48.93,1.9095,373.9116],
    [296,1532794124,56.775,-111.3785,1296.0,965.3,326.0,5.8,4.1,19.78,49.43,1.909,374.3775],
    [297,1532794125,56.7755,-111.3791,1298.8,972.4,325.9,5.9,4.1,19.33,49.23,1.9083,374.3775],
    [298,1532794126,56.7761,-111.3796,1301.5,979.5,325.8,5.9,4.1,19.96,48.7,1.9086,373.1992],
    [299,1532794127,56.7766,-111.3801,1304.2,987.8,325.8,5.9,4.2,19.38,49.15,1.9085,373.0627],
    [300,1532794128,56.7772,-111.3807,1306.9,996.5,325.8,5.9,4.2,19.37,49.07,1.9099,373.8134],
    [301,1532794129,56.7778,-111.3812,1309.5,1005.4,325.7,6.0,4.2,19.34,49.7,1.9109,373.8134],
    [302,1532794130,56.7783,-111.3818,1312.0,1014.2,325.7,6.0,4.2,19.16,49.86,1.9085,374.3514],
    [303,1532794131,56.7788,-111.3823,1314.5,1022.2,325.8,6.0,4.2,19.35,49.74,1.9094,373.7893],
    [304,1532794132,56.7794,-111.3829,1317.1,1027.7,325.8,6.0,4.2,19.28,49.71,1.9086,373.7893],
    [305,1532794133,56.78,-111.3834,1319.6,1035.5,326.0,6.0,4.1,18.96,49.38,1.9083,373.2069],
    [306,1532794134,56.7805,-111.3839,1322.3,1036.4,326.1,6.0,4.1,19.22,49.92,1.9091,373.9189],
    [307,1532794135,56.7811,-111.3845,1325.0,1031.4,326.1,6.0,4.1,19.97,49.38,1.9099,373.2466],
    [308,1532794136,56.7816,-111.385,1327.7,1026.6,326.1,5.9,4.1,19.52,49.72,1.9092,373.8308],
    [309,1532794137,56.7822,-111.3855,1330.5,1018.5,326.1,5.9,4.0,18.87,49.65,1.9087,373.5653],
    [310,1532794138,56.7827,-111.3861,1333.2,1012.4,325.9,6.0,4.0,19.04,50.57,1.9084,374.35],
    [311,1532794139,56.7832,-111.3866,1336.0,1007.1,325.8,6.1,4.0,19.13,50.07,1.9104,373.1497],
    [312,1532794140,56.7838,-111.3871,1338.6,1006.6,325.8,6.0,4.0,19.52,49.87,1.9103,373.1093],
    [313,1532794141,56.7843,-111.3877,1341.2,1013.3,325.9,5.9,3.9,19.17,50.39,1.9099,373.6021],
    [314,1532794142,56.7849,-111.3882,1343.8,1025.4,326.0,5.9,3.9,18.75,50.73,1.909,374.0901],
    [315,1532794143,56.7854,-111.3887,1346.4,1037.4,326.0,5.9,3.9,18.74,50.21,1.9084,373.2641],
    [316,1532794144,56.786,-111.3893,1349.0,1045.6,326.2,5.8,3.9,18.99,50.57,1.9079,373.2641],
    [317,1532794145,56.7865,-111.3898,1351.5,1049.5,326.2,5.8,3.9,19.37,49.57,1.9101,374.3633],
    [318,1532794146,56.7871,-111.3903,1354.1,1049.1,326.2,5.8,3.9,19.2,50.0,1.9105,374.2561],
    [319,1532794147,56.7876,-111.3909,1356.6,1044.3,326.2,5.7,3.9,19.22,50.02,1.909,373.6028],
    [320,1532794148,56.7882,-111.3914,1359.2,1036.8,326.1,5.7,3.9,18.91,49.81,1.9083,374.0235],
    [321,1532794149,56.7887,-111.392,1361.7,1031.7,326.1,5.6,3.9,18.78,50.1,1.9082,374.3534],
    [322,1532794150,56.7893,-111.3925,1364.4,1029.5,326.0,5.7,3.9,18.73,49.93,1.9109,373.8024],
    [323,1532794151,56.7899,-111.3931,1367.3,1031.5,326.0,5.7,3.8,19.71,49.77,1.9109,374.9391],
    [324,1532794152,56.7904,-111.3936,1370.1,1035.8,326.2,5.6,3.8,19.33,49.9,1.909,374.2193],
    [325,1532794153,56.791,-111.3941,1373.0,1040.2,326.1,5.6,3.8,19.4,49.24,1.9093,373.7868],
    [326,1532794154,56.7915,-111.3947,1375.7,1045.7,326.2,5.5,3.7,18.84,50.32,1.9102,374.9461],
    [327,1532794155,56.7921,-111.3952,1378.4,1050.0,326.2,5.4,3.7,18.78,50.87,1.9106,374.0169],
    [328,1532794156,56.7926,-111.3958,1381.0,1053.5,326.2,5.4,3.7,19.11,50.05,1.9103,374.1494],
    [329,1532794157,56.7932,-111.3963,1383.6,1057.6,326.2,5.3,3.6,18.6,50.67,1.9104,374.5666],
    [330,1532794158,56.7937,-111.3969,1386.2,1062.9,326.1,5.4,3.6,18.79,50.43,1.912,373.7235],
    [331,1532794159,56.7943,-111.3974,1388.8,1068.2,326.1,5.3,3.5,19.44,49.8,1.9092,373.79],
    [332,1532794160,56.7948,-111.398,1391.4,1074.4,326.2,5.1,3.5,19.29,49.62,1.9092,373.8468],
    [333,1532794161,56.7954,-111.3985,1394.0,1082.9,326.2,5.2,3.4,18.9,49.79,1.9093,374.0751],
    [334,1532794162,56.7959,-111.3991,1396.6,1097.0,326.2,5.2,3.4,18.27,50.01,1.9088,373.9623],
    [335,1532794163,56.7965,-111.3996,1399.3,1114.4,326.4,4.9,3.4,18.42,50.01,1.9084,373.9623],
    [336,1532794164,56.7971,-111.4002,1402.0,1129.3,326.4,4.9,3.4,18.49,49.99,1.9096,374.5507],
    [337,1532794165,56.7976,-111.4007,1404.8,1136.2,326.2,5.0,3.5,18.64,50.25,1.9092,374.3093],
    [338,1532794166,56.7982,-111.4013,1407.5,1140.4,326.2,4.8,3.6,18.76,49.47,1.9091,374.8718],
    [339,1532794167,56.7987,-111.4018,1410.1,1147.7,326.0,4.8,3.7,18.77,49.98,1.9086,374.5857],
    [340,1532794168,56.7993,-111.4024,1412.6,1154.0,326.0,4.7,3.6,18.48,50.37,1.9088,374.7122],
    [341,1532794169,56.7998,-111.403,1415.1,1159.1,326.0,4.7,3.6,18.42,49.73,1.9091,374.0056],
    [342,1532794170,56.8004,-111.4035,1417.5,1163.9,325.9,4.7,3.6,18.51,49.38,1.9094,374.0267],
    [343,1532794171,56.8009,-111.4041,1420.0,1168.4,326.0,4.7,3.5,18.63,49.35,1.9087,374.0273],
    [344,1532794172,56.8015,-111.4046,1422.7,1172.4,326.1,4.6,3.5,18.43,49.48,1.9092,375.1967],
    [345,1532794173,56.802,-111.4052,1425.3,1175.9,326.1,4.5,3.6,18.65,49.23,1.9089,375.4873],
    [346,1532794174,56.8026,-111.4057,1428.0,1180.3,326.1,4.5,3.4,18.67,48.92,1.909,373.9078],
    [347,1532794175,56.8031,-111.4063,1430.8,1185.8,326.0,4.6,3.4,18.03,49.2,1.9095,374.1515],
    [348,1532794176,56.8036,-111.4069,1433.7,1190.3,325.9,4.6,3.6,17.67,49.26,1.9086,374.8035],
    [349,1532794177,56.8042,-111.4074,1436.3,1194.6,326.1,4.4,3.2,18.37,48.91,1.9075,374.6846],
    [350,1532794178,56.8047,-111.408,1438.9,1198.9,325.9,4.5,3.2,18.43,48.67,1.9085,376.6601],
    [351,1532794179,56.8053,-111.4085,1441.6,1203.3,325.9,4.5,3.3,18.33,48.54,1.9093,375.1957],
    [352,1532794180,56.8058,-111.4091,1444.2,1206.2,325.9,4.5,3.2,18.59,47.85,1.9083,375.3895],
    [353,1532794181,56.8063,-111.4096,1446.7,1208.7,325.8,4.4,3.2,18.36,48.44,1.9077,374.6672],
    [354,1532794182,56.8069,-111.4102,1449.3,1211.3,325.8,4.4,3.2,18.32,48.49,1.9082,374.7943],
    [355,1532794183,56.8074,-111.4108,1451.8,1213.8,325.8,4.4,3.1,18.71,47.92,1.9084,375.7145],
    [356,1532794184,56.808,-111.4113,1454.5,1216.5,325.7,4.5,3.1,18.3,48.16,1.9073,375.7326],
    [357,1532794185,56.8085,-111.4119,1457.1,1219.1,325.7,4.4,3.1,17.93,47.9,1.9091,376.0126],
    [358,1532794186,56.8091,-111.4125,1459.9,1221.9,325.7,4.4,3.1,17.93,48.09,1.9078,375.9977],
    [359,1532794187,56.8096,-111.413,1462.6,1224.6,325.7,4.4,3.1,18.6,47.74,1.9094,375.9098],
    [360,1532794188,56.8101,-111.4136,1465.3,1225.6,325.8,4.4,3.1,17.94,47.97,1.9101,376.1447],
    [361,1532794189,56.8107,-111.4142,1468.0,1227.8,325.8,4.4,3.1,18.4,47.77,1.9093,375.015],
    [362,1532794190,56.8112,-111.4147,1470.8,1229.8,325.8,4.4,3.1,18.58,47.43,1.9097,375.015],
    [363,1532794191,56.8118,-111.4153,1473.5,1233.2,325.8,4.4,3.1,18.6,47.61,1.9093,376.0697],
    [364,1532794192,56.8123,-111.4159,1476.2,1237.3,325.8,4.4,3.2,17.51,48.13,1.9084,375.5917],
    [365,1532794193,56.8129,-111.4164,1478.8,1240.8,325.8,4.4,3.1,18.3,47.86,1.9087,376.2036],
    [366,1532794194,56.8134,-111.417,1481.4,1243.4,325.8,4.4,3.1,17.85,48.29,1.9084,375.7627],
    [367,1532794195,56.8139,-111.4176,1484.0,1245.0,325.8,4.4,3.1,18.01,48.51,1.9087,375.127],
    [368,1532794196,56.8145,-111.4181,1486.6,1248.6,325.7,4.4,3.1,18.1,48.31,1.908,376.8418],
    [369,1532794197,56.815,-111.4187,1489.1,1250.4,325.6,4.4,3.1,17.44,48.64,1.9091,375.3895],
    [370,1532794198,56.8156,-111.4193,1491.7,1251.6,325.6,4.4,3.1,17.83,48.61,1.9091,375.2276],
    [371,1532794199,56.8161,-111.4199,1494.2,1253.2,325.6,4.4,3.0,17.92,48.25,1.9084,375.4057],
    [372,1532794200,56.8166,-111.4204,1496.7,1254.7,325.7,4.3,3.0,17.99,48.44,1.908,376.0468],
    [373,1532794201,56.8172,-111.421,1499.3,1257.3,325.7,4.3,3.0,17.78,48.34,1.9078,375.0492],
    [374,1532794202,56.8177,-111.4216,1502.0,1260.0,325.8,4.3,2.9,17.7,48.5,1.9079,374.9378],
    [375,1532794203,56.8183,-111.4221,1504.7,1262.7,325.9,4.2,2.8,17.37,48.36,1.907,376.5705],
    [376,1532794204,56.8188,-111.4227,1507.4,1265.3,326.0,4.2,2.8,17.97,48.15,1.907,376.5705],
    [377,1532794205,56.8194,-111.4233,1510.2,1268.8,325.9,4.3,2.7,18.62,47.68,1.9076,376.9409],
    [378,1532794206,56.8199,-111.4239,1513.0,1271.0,325.9,4.2,2.7,17.56,47.92,1.9078,375.4695],
    [379,1532794207,56.8205,-111.4245,1515.9,1274.9,325.8,4.2,2.7,17.78,47.65,1.9091,377.0031],
    [380,1532794208,56.821,-111.425,1518.7,1277.0,325.6,4.3,2.8,17.62,47.75,1.9079,376.2705],
    [381,1532794209,56.8216,-111.4256,1521.3,1279.0,325.5,4.3,2.7,17.68,47.8,1.9088,376.5648],
    [382,1532794210,56.8221,-111.4262,1523.9,1280.9,325.5,4.3,2.7,17.77,47.74,1.9075,376.6996],
    [383,1532794211,56.8227,-111.4268,1526.5,1283.6,325.5,4.3,2.7,17.45,47.8,1.9099,375.8706],
    [384,1532794212,56.8232,-111.4273,1529.0,1286.0,325.6,4.3,2.7,17.37,47.79,1.9082,377.4287],
    [385,1532794213,56.8238,-111.4279,1531.5,1288.5,325.6,4.3,2.6,17.92,47.54,1.9067,376.5768],
    [386,1532794214,56.8243,-111.4285,1534.1,1291.1,325.7,4.3,2.6,17.32,47.67,1.9086,375.3419],
    [387,1532794215,56.8249,-111.4291,1536.7,1293.7,325.8,4.3,2.6,17.32,47.68,1.9085,376.6835],
    [388,1532794216,56.8254,-111.4297,1539.4,1296.4,325.8,4.3,2.6,17.29,47.93,1.9077,376.8433],
    [389,1532794217,56.8259,-111.4302,1542.0,1298.0,325.7,4.3,2.7,18.03,47.39,1.9073,377.0387],
    [390,1532794218,56.8265,-111.4308,1544.7,1299.5,325.6,4.3,2.7,18.03,47.57,1.9079,377.0387],
    [391,1532794219,56.827,-111.4314,1547.4,1302.4,325.5,4.3,2.6,18.16,47.56,1.9079,375.7198],
    [392,1532794220,56.8275,-111.4319,1550.2,1304.2,325.5,4.4,2.7,17.67,47.29,1.9081,375.5751],
    [393,1532794221,56.8281,-111.4325,1552.8,1305.8,325.5,4.3,2.7,17.44,48.09,1.9069,376.5263],
    [394,1532794222,56.8286,-111.4331,1555.3,1307.3,325.6,4.3,2.6,17.23,47.94,1.907,376.4692],
    [395,1532794223,56.8291,-111.4336,1557.9,1308.8,325.7,4.3,2.5,17.41,47.75,1.9081,376.9791],
    [396,1532794224,56.8297,-111.4342,1560.4,1311.7,325.9,4.1,2.5,17.75,47.29,1.9079,375.0551],
    [397,1532794225,56.8302,-111.4348,1562.9,1314.3,325.9,4.2,2.5,17.4,47.64,1.9084,375.9189],
    [398,1532794226,56.8307,-111.4353,1565.5,1316.5,325.8,4.2,2.5,17.27,48.6,1.9085,377.3608],
    [399,1532794227,56.8313,-111.4359,1568.2,1318.2,325.9,4.1,2.5,17.3,48.13,1.9098,377.2151],
    [400,1532794228,56.8318,-111.4365,1570.8,1319.6,325.7,4.2,2.5,17.49,47.53,1.9089,376.8363],
    [401,1532794229,56.8324,-111.437,1573.5,1320.8,325.6,4.1,2.5,16.81,47.88,1.908,376.1108],
    [402,1532794230,56.8329,-111.4376,1576.1,1322.5,325.7,4.1,2.4,17.69,47.2,1.9082,373.971],
    [403,1532794231,56.8334,-111.4382,1578.7,1323.4,325.7,4.1,2.3,17.79,47.51,1.9089,376.787],
    [404,1532794232,56.834,-111.4388,1581.4,1323.5,325.9,4.0,2.2,17.14,47.99,1.9091,377.3017],
    [405,1532794233,56.8345,-111.4393,1584.0,1320.7,326.0,4.0,2.1,17.31,47.89,1.909,377.3017],
    [406,1532794234,56.835,-111.4399,1586.7,1318.9,326.1,3.9,2.1,17.02,48.07,1.9086,376.9226],
    [407,1532794235,56.8356,-111.4405,1589.4,1316.8,326.1,3.9,2.1,17.27,48.51,1.9088,377.2822],
    [408,1532794236,56.8361,-111.4411,1592.1,1313.9,326.0,3.9,2.1,17.88,47.36,1.9098,376.4665],
    [409,1532794237,56.8366,-111.4416,1594.9,1308.8,326.0,3.8,2.1,17.9,47.58,1.9099,376.0565],
    [410,1532794238,56.8372,-111.4422,1597.6,1303.6,325.9,3.8,2.1,17.6,47.47,1.9091,376.0565],
    [411,1532794239,56.8377,-111.4428,1600.3,1297.6,325.8,3.9,2.0,16.82,48.36,1.91,376.5592],
    [412,1532794240,56.8383,-111.4434,1602.9,1298.1,325.9,3.8,2.0,16.55,48.42,1.9086,376.7991],
    [413,1532794241,56.8388,-111.444,1605.4,1298.7,326.0,3.6,2.0,16.57,48.45,1.9092,376.5977],
    [414,1532794242,56.8394,-111.4445,1608.0,1299.7,326.0,3.7,2.0,17.36,47.9,1.9089,376.2502],
    [415,1532794243,56.8399,-111.4451,1610.4,1299.5,326.0,3.6,1.9,17.54,48.11,1.9084,376.8467],
    [416,1532794244,56.8404,-111.4457,1612.9,1298.5,326.0,3.6,1.9,17.0,49.36,1.9082,376.9],
    [417,1532794245,56.8409,-111.4463,1615.6,1296.6,325.9,3.6,1.9,16.69,48.85,1.9098,376.773],
    [418,1532794246,56.8415,-111.4468,1618.3,1294.8,325.9,3.6,2.0,16.93,48.65,1.9092,377.3636],
    [419,1532794247,56.842,-111.4474,1620.9,1293.5,325.9,3.5,2.0,16.92,48.94,1.9089,376.6504],
    [420,1532794248,56.8425,-111.448,1623.5,1294.5,325.9,3.4,2.0,17.22,48.14,1.9084,376.4774],
    [421,1532794249,56.8431,-111.4486,1625.9,1296.0,326.0,3.3,2.0,16.82,48.54,1.907,376.8296],
    [422,1532794250,56.8436,-111.4491,1628.5,1297.5,326.0,3.3,2.0,16.57,48.52,1.9083,376.8296],
    [423,1532794251,56.8441,-111.4497,1631.1,1298.8,326.1,3.3,1.9,16.81,48.27,1.9063,378.0507],
    [424,1532794252,56.8447,-111.4503,1633.7,1300.7,326.1,3.3,1.9,16.45,47.98,1.9055,376.992],
    [425,1532794253,56.8452,-111.4509,1636.3,1301.8,326.0,3.4,1.9,16.74,47.77,1.9049,377.4386],
    [426,1532794254,56.8457,-111.4515,1638.9,1302.9,325.9,3.4,1.9,17.12,47.29,1.9034,378.4357],
    [427,1532794255,56.8463,-111.452,1641.6,1304.6,325.8,3.5,1.9,16.05,46.16,1.9023,376.8168],
    [428,1532794256,56.8468,-111.4526,1644.4,1306.7,325.6,3.7,1.9,16.61,45.34,1.9025,376.8168],
    [429,1532794257,56.8473,-111.4532,1647.1,1309.1,325.5,3.8,1.8,16.08,44.66,1.9036,378.0697],
    [430,1532794258,56.8478,-111.4537,1649.7,1311.7,325.5,3.8,1.8,16.26,43.87,1.9053,378.1305],
    [431,1532794259,56.8484,-111.4543,1652.5,1313.5,325.6,3.9,1.7,16.75,43.41,1.9061,379.2308],
    [432,1532794260,56.8489,-111.4549,1655.2,1316.2,325.7,3.9,1.7,16.71,43.07,1.9055,378.2324],
    [433,1532794261,56.8494,-111.4555,1658.1,1319.1,325.8,3.9,1.6,16.76,42.88,1.9054,379.05],
    [434,1532794262,56.85,-111.4561,1660.9,1321.9,326.0,3.9,1.6,16.8,42.64,1.9061,379.4525],
    [435,1532794263,56.8505,-111.4566,1663.6,1323.6,326.0,3.9,1.6,16.49,43.15,1.9053,379.3165],
    [436,1532794264,56.851,-111.4572,1666.3,1326.3,326.1,3.9,1.5,16.89,42.39,1.9037,379.5215],
    [437,1532794265,56.8516,-111.4578,1669.0,1329.0,326.1,4.0,1.5,17.02,41.99,1.904,379.7211],
    [438,1532794266,56.8521,-111.4583,1671.5,1331.5,326.0,4.0,1.5,16.78,42.08,1.9044,380.1646],
    [439,1532794267,56.8526,-111.4589,1674.2,1334.2,326.0,4.0,1.5,16.7,42.31,1.9057,379.3507],
    [440,1532794268,56.8531,-111.4595,1676.8,1336.8,325.9,4.1,1.4,15.94,42.27,1.9039,379.004],
    [441,1532794269,56.8537,-111.4601,1679.4,1338.4,325.9,4.2,1.4,16.32,42.16,1.9049,378.0524],
    [442,1532794270,56.8542,-111.4606,1682.0,1341.0,325.9,4.2,1.4,16.59,42.11,1.9037,378.8263],
    [443,1532794271,56.8547,-111.4612,1684.6,1343.6,325.9,4.1,1.3,16.7,42.47,1.9052,378.8011],
    [444,1532794272,56.8553,-111.4618,1687.2,1346.2,326.1,4.2,1.3,16.67,42.87,1.9051,380.1583],
    [445,1532794273,56.8558,-111.4623,1689.8,1348.8,326.2,4.2,1.3,16.53,42.45,1.9053,378.3247],
    [446,1532794274,56.8563,-111.4629,1692.5,1351.5,326.2,4.2,1.2,16.95,42.23,1.9055,378.3125],
    [447,1532794275,56.8568,-111.4635,1695.0,1353.4,326.2,4.3,1.2,17.03,42.33,1.9053,379.133],
    [448,1532794276,56.8574,-111.464,1697.7,1355.7,326.1,4.3,1.2,16.68,42.45,1.9044,378.8066],
    [449,1532794277,56.8579,-111.4646,1700.3,1358.3,326.0,4.4,1.3,16.81,42.49,1.9054,378.5345],
    [450,1532794278,56.8584,-111.4652,1703.0,1361.0,325.9,4.4,1.2,16.53,43.41,1.9065,378.7098],
    [451,1532794279,56.859,-111.4657,1705.7,1363.7,325.9,4.4,1.3,16.19,42.97,1.9032,380.6084],
    [452,1532794280,56.8595,-111.4663,1708.4,1366.4,325.8,4.5,1.3,16.71,42.72,1.905,378.7544],
    [453,1532794281,56.86,-111.4669,1711.0,1369.0,325.8,4.5,1.3,16.17,43.48,1.9054,379.1929],
    [454,1532794282,56.8606,-111.4674,1713.6,1371.3,325.9,4.5,1.3,16.22,43.86,1.9044,378.9592],
    [455,1532794283,56.8611,-111.468,1716.1,1373.1,325.9,4.5,1.3,16.88,43.7,1.904,378.7607],
    [456,1532794284,56.8616,-111.4686,1718.5,1375.5,326.0,4.5,1.3,16.54,43.65,1.906,379.1934],
    [457,1532794285,56.8621,-111.4691,1721.0,1378.0,326.1,4.5,1.3,16.72,43.52,1.9044,378.8085],
    [458,1532794286,56.8627,-111.4697,1723.5,1380.5,326.2,4.5,1.3,16.43,44.8,1.9037,378.178],
    [459,1532794287,56.8632,-111.4702,1726.0,1383.0,326.2,4.5,1.4,16.23,44.79,1.9055,377.3811],
    [460,1532794288,56.8637,-111.4708,1728.6,1385.6,326.2,4.5,1.4,16.55,44.05,1.9042,377.5026],
    [461,1532794289,56.8643,-111.4714,1731.2,1387.1,326.1,4.5,1.3,15.78,44.74,1.9047,378.1875],
    [462,1532794290,56.8648,-111.4719,1733.8,1389.8,326.0,4.6,1.4,16.89,44.88,1.9045,378.2992],
    [463,1532794291,56.8653,-111.4725,1736.3,1392.3,325.9,4.6,1.4,16.22,45.43,1.9042,377.1805],
    [464,1532794292,56.8658,-111.473,1738.9,1394.9,325.8,4.7,1.4,16.13,45.75,1.9042,378.0177],
    [465,1532794293,56.8663,-111.4736,1741.4,1397.4,325.8,4.7,1.4,15.98,45.94,1.9049,378.0126],
    [466,1532794294,56.8669,-111.4742,1744.0,1400.0,325.8,4.7,1.4,16.48,45.99,1.9054,378.1109],
    [467,1532794295,56.8674,-111.4747,1746.5,1402.5,325.9,4.7,1.4,15.8,46.14,1.9054,377.9398],
    [468,1532794296,56.8679,-111.4753,1749.2,1405.2,325.9,4.7,1.4,15.79,46.15,1.9036,378.1178],
    [469,1532794297,56.8685,-111.4758,1751.7,1407.7,326.0,4.7,1.3,16.34,46.09,1.9066,376.5516],
    [470,1532794298,56.869,-111.4764,1754.3,1410.6,326.1,4.7,1.3,16.06,46.62,1.9049,377.0091],
    [471,1532794299,56.8695,-111.4769,1756.9,1413.9,326.1,4.8,1.3,15.84,47.13,1.9071,377.3051],
    [472,1532794300,56.87,-111.4775,1759.5,1416.5,326.1,4.7,1.2,15.9,47.56,1.9074,377.7642],
    [473,1532794301,56.8706,-111.478,1762.1,1419.1,325.9,4.8,1.3,16.03,48.05,1.9055,378.0785],
    [474,1532794302,56.8711,-111.4786,1764.7,1422.7,325.9,4.8,1.3,15.92,48.75,1.9072,376.7291],
    [475,1532794303,56.8716,-111.4792,1767.3,1425.3,325.8,4.8,1.4,15.88,49.13,1.907,377.2133],
    [476,1532794304,56.8721,-111.4797,1769.8,1427.8,325.7,4.9,1.4,15.61,49.13,1.9067,376.951],
    [477,1532794305,56.8726,-111.4802,1772.2,1431.2,325.7,4.9,1.4,15.95,49.77,1.9062,376.5322],
    [478,1532794306,56.8731,-111.4808,1774.7,1433.7,325.7,4.9,1.5,15.91,49.99,1.9066,377.2145],
    [479,1532794307,56.8736,-111.4813,1777.3,1436.3,325.7,4.9,1.4,16.42,49.08,1.9047,377.0289],
    [480,1532794308,56.8742,-111.4819,1779.9,1439.9,325.8,4.9,1.4,16.01,49.57,1.9051,377.0313],
    [481,1532794309,56.8747,-111.4824,1782.5,1442.5,325.9,5.0,1.4,15.8,49.6,1.9063,377.6429],
    [482,1532794310,56.8752,-111.483,1785.1,1445.1,326.0,5.0,1.4,15.44,49.68,1.904,375.9993],
    [483,1532794311,56.8757,-111.4835,1787.7,1447.8,326.0,5.0,1.3,15.33,49.78,1.9066,376.0392],
    [484,1532794312,56.8763,-111.4841,1790.2,1451.2,326.0,5.0,1.4,15.66,49.97,1.906,375.8726],
    [485,1532794313,56.8768,-111.4846,1792.9,1453.9,326.1,5.0,1.3,15.63,49.91,1.9059,375.8824],
    [486,1532794314,56.8773,-111.4852,1795.5,1456.5,326.1,5.0,1.3,15.8,50.45,1.9052,377.8297],
    [487,1532794315,56.8779,-111.4857,1798.1,1459.1,326.0,5.0,1.3,15.98,49.51,1.9055,377.5427],
    [488,1532794316,56.8784,-111.4863,1800.8,1462.5,326.0,4.9,1.3,15.63,49.91,1.9044,375.6987],
    [489,1532794317,56.8789,-111.4869,1803.4,1465.4,326.0,4.9,1.2,15.86,49.88,1.9031,377.4635],
    [490,1532794318,56.8794,-111.4874,1806.0,1468.0,326.0,4.9,1.2,16.1,49.44,1.9038,377.0498],
    [491,1532794319,56.88,-111.4879,1808.6,1470.6,326.0,4.8,1.2,15.59,49.16,1.9033,378.1817],
    [492,1532794320,56.8805,-111.4885,1811.2,1473.2,326.0,4.8,1.2,15.67,48.61,1.9038,376.997],
    [493,1532794321,56.881,-111.489,1813.7,1475.9,326.1,4.8,1.1,15.27,48.6,1.9033,376.997],
    [494,1532794322,56.8815,-111.4896,1816.3,1479.3,326.1,4.7,1.1,15.54,48.16,1.904,378.5221],
    [495,1532794323,56.882,-111.4901,1818.9,1481.9,326.1,4.7,1.2,15.2,48.37,1.9047,376.9889],
    [496,1532794324,56.8826,-111.4907,1821.5,1484.5,326.2,4.6,1.2,15.45,47.27,1.9005,377.9337],
    [497,1532794325,56.8831,-111.4913,1824.1,1487.1,326.3,4.6,1.1,15.79,46.65,1.9017,377.8572],
    [498,1532794326,56.8836,-111.4918,1826.6,1489.6,326.3,4.5,1.0,15.48,46.38,1.9024,377.8095],
    [499,1532794327,56.8841,-111.4923,1829.1,1493.1,326.3,4.5,1.0,15.3,46.15,1.9052,377.8095],
    [500,1532794328,56.8846,-111.4929,1831.7,1495.7,326.2,4.6,1.1,15.23,45.53,1.9031,377.8285],
    [501,1532794329,56.8852,-111.4934,1834.3,1498.3,326.3,4.5,1.1,14.91,45.11,1.9048,378.8735],
    [502,1532794330,56.8857,-111.494,1836.8,1500.8,326.1,4.6,1.1,15.03,44.87,1.9039,378.8735],
    [503,1532794331,56.8862,-111.4945,1839.3,1504.3,326.0,4.6,1.1,15.08,44.9,1.9053,379.0032],
    [504,1532794332,56.8867,-111.4951,1841.8,1507.5,326.0,4.5,1.1,15.39,44.66,1.9049,378.9613],
    [505,1532794333,56.8872,-111.4956,1844.3,1510.7,326.0,4.5,1.1,15.89,43.94,1.9041,379.3087],
    [506,1532794334,56.8877,-111.4962,1846.9,1513.9,326.0,4.5,1.1,15.13,44.77,1.9046,379.0934],
    [507,1532794335,56.8883,-111.4967,1849.5,1517.4,326.0,4.5,1.1,15.36,44.53,1.9049,378.7851],
    [508,1532794336,56.8888,-111.4973,1852.0,1520.0,326.1,4.5,1.0,15.12,43.91,1.9056,378.6813],
    [509,1532794337,56.8893,-111.4979,1854.7,1522.6,326.1,4.5,1.1,14.96,44.23,1.9053,378.709],
    [510,1532794338,56.8898,-111.4984,1857.3,1524.3,326.2,4.4,1.1,15.0,43.9,1.9048,379.0488],
    [511,1532794339,56.8904,-111.499,1859.9,1526.9,326.3,4.4,1.0,15.28,44.11,1.9049,380.4789],
    [512,1532794340,56.8909,-111.4995,1862.5,1529.5,326.3,4.3,1.0,15.27,43.49,1.9061,379.2886],
    [513,1532794341,56.8914,-111.5001,1865.1,1532.6,326.2,4.4,1.1,15.85,43.05,1.9049,377.6029],
    [514,1532794342,56.8919,-111.5006,1867.7,1535.6,326.2,4.3,1.1,15.44,42.53,1.9047,377.6029],
    [515,1532794343,56.8924,-111.5012,1870.3,1538.2,326.2,4.3,1.0,15.14,42.65,1.9048,378.1137],
    [516,1532794344,56.893,-111.5017,1872.8,1540.8,326.1,4.3,1.0,15.35,43.21,1.9053,378.5813],
    [517,1532794345,56.8935,-111.5023,1875.4,1543.4,326.2,4.2,0.9,15.98,42.38,1.9062,379.6444],
    [518,1532794346,56.894,-111.5028,1878.0,1545.1,326.2,4.2,0.9,15.13,42.62,1.9077,379.575],
    [519,1532794347,56.8945,-111.5034,1880.6,1547.7,326.4,4.2,0.8,15.83,42.05,1.9075,379.2868],
    [520,1532794348,56.895,-111.5039,1883.2,1551.1,326.4,4.2,0.7,15.07,42.94,1.9054,378.3735],
    [521,1532794349,56.8955,-111.5045,1885.8,1553.7,326.4,4.3,0.7,15.11,43.81,1.9055,379.4627],
    [522,1532794350,56.8961,-111.505,1888.5,1556.5,326.6,4.0,0.5,15.26,43.24,1.9057,379.2455],
    [523,1532794351,56.8966,-111.5056,1891.2,1559.2,326.6,3.9,0.5,15.09,44.06,1.9072,379.2003],
    [524,1532794352,56.8971,-111.5061,1893.9,1561.9,326.5,4.0,0.5,15.21,44.84,1.9056,378.6273],
    [525,1532794353,56.8976,-111.5067,1896.5,1564.5,326.5,3.9,0.5,15.18,45.43,1.9066,378.4086],
    [526,1532794354,56.8981,-111.5072,1899.1,1567.1,326.3,4.0,0.5,14.64,46.29,1.9056,379.0128],
    [527,1532794355,56.8986,-111.5078,1901.7,1570.7,326.2,4.1,0.4,14.62,47.09,1.9059,378.604],
    [528,1532794356,56.8991,-111.5084,1904.3,1573.3,326.2,4.0,0.4,15.41,46.95,1.9063,377.9179],
    [529,1532794357,56.8997,-111.5089,1906.8,1575.8,326.2,4.0,0.4,15.75,46.81,1.9076,377.8378],
    [530,1532794358,56.9002,-111.5095,1909.5,1578.5,326.3,3.9,0.3,15.42,47.15,1.9063,379.2823],
    [531,1532794359,56.9007,-111.51,1912.1,1582.1,326.4,4.0,0.3,14.53,47.62,1.9063,378.6475],
    [532,1532794360,56.9012,-111.5106,1914.7,1584.7,326.5,4.0,0.2,14.85,47.85,1.9059,378.6475],
    [533,1532794361,56.9017,-111.5111,1917.3,1587.3,326.5,3.9,0.2,14.75,47.66,1.9049,377.9778],
    [534,1532794362,56.9022,-111.5117,1920.0,1590.0,326.6,3.9,0.1,15.58,47.67,1.9041,377.6153],
    [535,1532794363,56.9028,-111.5123,1922.6,1592.6,326.5,4.0,0.0,14.6,48.42,1.9055,377.503],
    [536,1532794364,56.9033,-111.5128,1925.3,1595.3,326.5,4.0,0.0,14.73,48.36,1.906,377.7574],
    [537,1532794365,56.9038,-111.5134,1928.1,1598.1,326.5,4.0,-0.1,15.36,48.22,1.9055,377.3208],
    [538,1532794366,56.9043,-111.514,1930.7,1600.7,326.3,4.1,-0.1,14.74,49.13,1.9029,376.5813],
    [539,1532794367,56.9048,-111.5145,1933.4,1603.4,326.1,4.2,0.0,14.33,48.56,1.902,378.2342],
    [540,1532794368,56.9053,-111.5151,1936.2,1606.2,326.0,4.2,0.1,14.49,48.35,1.9014,378.4806],
    [541,1532794369,56.9059,-111.5156,1938.8,1608.8,326.2,4.1,0.0,14.71,47.91,1.902,379.0835],
    [542,1532794370,56.9064,-111.5162,1941.4,1611.4,326.2,4.0,0.1,14.73,47.71,1.9025,378.954],
    [543,1532794371,56.9069,-111.5168,1943.9,1613.9,326.2,4.1,0.1,14.52,47.65,1.903,378.5044],
    [544,1532794372,56.9074,-111.5173,1946.4,1616.4,326.4,4.0,0.1,14.68,47.61,1.9026,377.7478],
    [545,1532794373,56.9079,-111.5179,1949.0,1619.0,326.4,4.0,0.1,14.1,46.95,1.9027,378.7753],
    [546,1532794374,56.9084,-111.5185,1951.6,1622.6,326.5,4.0,0.0,14.54,46.77,1.903,378.9736],
    [547,1532794375,56.9089,-111.519,1954.2,1625.6,326.5,4.0,0.0,14.38,46.87,1.9026,379.2226],
    [548,1532794376,56.9095,-111.5196,1956.9,1628.9,326.5,4.0,-0.2,15.26,46.02,1.9032,379.3386],
    [549,1532794377,56.91,-111.5201,1959.5,1631.5,326.3,4.2,-0.2,14.7,46.23,1.9039,377.5955],
    [550,1532794378,56.9105,-111.5206,1962.1,1635.1,326.2,4.2,-0.2,14.53,46.44,1.9042,379.3034],
    [551,1532794379,56.911,-111.5212,1964.8,1638.4,326.1,4.3,-0.2,14.57,45.85,1.9042,379.3034],
    [552,1532794380,56.9115,-111.5218,1967.3,1642.6,326.1,4.3,-0.1,13.76,45.73,1.9015,379.6198],
    [553,1532794381,56.912,-111.5223,1969.7,1648.8,326.0,4.4,-0.1,14.36,45.68,1.9011,379.672],
    [554,1532794382,56.9125,-111.5229,1972.2,1652.9,326.1,4.4,-0.1,14.46,46.1,1.8997,380.3863],
    [555,1532794383,56.913,-111.5234,1974.8,1660.2,326.1,4.5,-0.2,14.1,45.26,1.9012,379.3062],
    [556,1532794384,56.9135,-111.524,1977.4,1666.8,326.3,4.5,-0.3,13.87,44.96,1.9017,380.007],
    [557,1532794385,56.914,-111.5245,1980.1,1671.8,326.5,4.4,-0.5,14.29,44.74,1.9006,380.3758],
    [558,1532794386,56.9145,-111.5251,1982.8,1676.9,326.7,4.4,-0.6,14.67,44.03,1.9033,381.6818],
    [559,1532794387,56.915,-111.5256,1985.7,1682.9,326.7,4.4,-0.6,14.41,44.48,1.9027,379.9833],
    [560,1532794388,56.9156,-111.5262,1988.5,1686.5,326.6,4.4,-0.6,14.25,44.19,1.9012,379.9762],
    [561,1532794389,56.9161,-111.5267,1991.3,1692.0,326.5,4.5,-0.6,14.44,43.96,1.9013,379.2637],
    [562,1532794390,56.9166,-111.5273,1994.0,1696.1,326.4,4.5,-0.7,15.15,43.58,1.9016,379.2637],
    [563,1532794391,56.9171,-111.5278,1996.5,1700.5,326.4,4.5,-0.7,14.66,43.68,1.9022,380.1872],
    [564,1532794392,56.9176,-111.5284,1998.8,1702.2,326.4,4.6,-0.7,14.13,43.96,1.9042,379.2522],
    [565,1532794393,56.9181,-111.5289,2001.3,1701.9,326.4,4.5,-0.8,14.28,44.07,1.903,380.8662],
    [566,1532794394,56.9186,-111.5295,2003.8,1698.8,326.5,4.6,-0.8,14.11,43.96,1.9015,380.2342],
    [567,1532794395,56.9191,-111.53,2006.4,1699.5,326.5,4.6,-0.9,13.97,43.92,1.9025,379.778],
    [568,1532794396,56.9196,-111.5306,2009.1,1696.1,326.6,4.6,-1.0,14.27,44.02,1.9023,380.477],
    [569,1532794397,56.9201,-111.5311,2011.7,1693.4,326.7,4.6,-1.0,14.17,44.23,1.902,379.2423],
    [570,1532794398,56.9207,-111.5317,2014.4,1694.1,326.7,4.6,-1.1,13.96,43.86,1.904,380.0615],
    [571,1532794399,56.9212,-111.5322,2017.0,1696.0,326.7,4.6,-1.0,14.36,43.71,1.9022,380.2306],
    [572,1532794400,56.9217,-111.5328,2019.7,1697.7,326.6,4.5,-1.0,14.62,42.95,1.9022,381.2208],
    [573,1532794401,56.9222,-111.5334,2022.3,1700.3,326.5,4.6,-1.0,14.24,44.01,1.9016,380.9614],
    [574,1532794402,56.9227,-111.5339,2024.8,1702.8,326.4,4.6,-1.0,13.65,43.64,1.9024,380.9614],
    [575,1532794403,56.9232,-111.5344,2027.4,1705.4,326.5,4.5,-1.1,13.87,44.06,1.902,380.0519],
    [576,1532794404,56.9237,-111.535,2029.9,1707.9,326.6,4.4,-1.2,14.35,43.39,1.9027,379.5766],
    [577,1532794405,56.9242,-111.5355,2032.4,1710.4,326.5,4.6,-1.1,13.88,43.55,1.9033,380.6339],
    [578,1532794406,56.9247,-111.5361,2035.0,1713.0,326.5,4.6,-1.1,14.91,43.17,1.904,381.405],
    [579,1532794407,56.9252,-111.5366,2037.6,1715.6,326.5,4.5,-1.1,14.36,43.56,1.9046,381.405],
    [580,1532794408,56.9257,-111.5372,2040.2,1718.2,326.4,4.6,-1.0,14.96,42.98,1.9012,379.5487],
    [581,1532794409,56.9262,-111.5377,2042.8,1719.8,326.3,4.6,-1.0,14.2,43.99,1.9023,380.2295],
    [582,1532794410,56.9267,-111.5383,2045.4,1722.4,326.4,4.5,-1.0,13.92,43.8,1.9022,380.0464],
    [583,1532794411,56.9272,-111.5388,2048.0,1725.0,326.4,4.6,-1.0,13.83,44.51,1.9029,380.4415],
    [584,1532794412,56.9277,-111.5394,2050.5,1727.5,326.5,4.5,-1.1,14.65,43.59,1.902,380.3742],
    [585,1532794413,56.9282,-111.5399,2053.1,1730.3,326.6,4.4,-1.1,14.37,43.5,1.9022,380.3006],
    [586,1532794414,56.9287,-111.5405,2055.8,1733.8,326.5,4.4,-1.0,13.72,43.91,1.9039,380.037],
    [587,1532794415,56.9293,-111.541,2058.5,1736.3,326.5,4.5,-1.0,14.02,43.81,1.9026,380.037],
    [588,1532794416,56.9298,-111.5416,2061.1,1740.1,326.4,4.5,-1.1,14.06,43.81,1.9007,381.5274],
    [589,1532794417,56.9303,-111.5421,2063.7,1742.7,326.3,4.5,-1.1,14.09,44.17,1.9014,381.5274],
    [590,1532794418,56.9308,-111.5427,2066.2,1745.2,326.3,4.6,-1.1,13.83,43.74,1.9013,380.1334],
    [591,1532794419,56.9313,-111.5433,2068.8,1748.8,326.4,4.4,-1.1,14.34,43.08,1.9023,381.4298],
    [592,1532794420,56.9318,-111.5438,2071.5,1751.5,326.5,4.3,-1.3,14.01,43.85,1.9023,380.3536],
    [593,1532794421,56.9323,-111.5444,2074.1,1754.1,326.5,4.4,-1.3,14.75,43.45,1.9024,380.0303],
    [594,1532794422,56.9328,-111.5449,2076.9,1756.9,326.6,4.3,-1.3,14.14,43.7,1.9018,379.3731],
    [595,1532794423,56.9333,-111.5455,2079.5,1759.5,326.6,4.3,-1.2,14.35,43.52,1.9031,380.1457],
    [596,1532794424,56.9338,-111.546,2082.2,1762.2,326.7,4.2,-1.4,14.03,43.7,1.9019,380.0683],
    [597,1532794425,56.9343,-111.5466,2084.8,1764.8,326.7,4.3,-1.5,13.85,44.06,1.9018,381.5501],
    [598,1532794426,56.9348,-111.5471,2087.5,1767.5,326.4,4.4,-1.3,13.62,44.26,1.9017,381.1203],
    [599,1532794427,56.9353,-111.5477,2090.3,1770.3,326.7,4.1,-1.4,13.85,44.05,1.9025,382.4039],
    [600,1532794428,56.9358,-111.5482,2092.9,1772.9,326.7,4.0,-1.5,13.67,44.0,1.9025,381.8039],
    [601,1532794429,56.9363,-111.5488,2095.5,1775.5,326.7,3.9,-1.5,14.41,43.04,1.9029,381.8039],
    [602,1532794430,56.9368,-111.5493,2097.7,1777.7,326.5,4.1,-1.6,13.61,43.77,1.9028,381.2307],
    [603,1532794431,56.9373,-111.5499,2099.6,1779.6,326.3,4.3,-1.5,13.88,43.51,1.9017,381.2331],
    [604,1532794432,56.9378,-111.5504,2101.7,1782.7,326.5,4.1,-1.6,13.6,43.67,1.9025,381.2331],
    [605,1532794433,56.9383,-111.551,2104.3,1785.3,326.5,4.1,-1.5,13.65,44.08,1.9017,381.5538],
    [606,1532794434,56.9388,-111.5516,2107.1,1789.1,326.5,4.2,-1.5,13.69,44.63,1.9026,381.7988],
    [607,1532794435,56.9393,-111.5521,2109.9,1791.9,326.6,4.1,-1.6,13.97,43.83,1.9027,380.5611],
    [608,1532794436,56.9398,-111.5527,2112.6,1794.6,326.7,4.0,-1.6,13.59,44.06,1.9021,381.1997],
    [609,1532794437,56.9403,-111.5532,2115.1,1798.1,326.7,4.0,-1.5,13.65,44.45,1.9019,380.1796],
    [610,1532794438,56.9408,-111.5537,2117.6,1800.6,326.6,4.1,-1.5,13.7,44.45,1.903,381.453],
    [611,1532794439,56.9413,-111.5543,2119.8,1802.8,326.6,4.0,-1.5,13.85,43.98,1.9027,381.3894],
    [612,1532794440,56.9418,-111.5548,2122.0,1806.0,326.6,3.9,-1.5,13.44,44.19,1.9027,381.1183],
    [613,1532794441,56.9423,-111.5554,2124.3,1808.3,326.5,3.9,-1.5,13.4,44.21,1.9022,380.7322],
    [614,1532794442,56.9428,-111.5559,2126.7,1810.7,326.5,4.0,-1.5,14.18,43.69,1.9018,380.518],
    [615,1532794443,56.9432,-111.5565,2128.7,1813.6,326.5,3.9,-1.7,13.5,44.35,1.9012,381.7684],
    [616,1532794444,56.9437,-111.557,2129.9,1813.9,326.6,4.0,-1.8,13.43,44.4,1.9019,381.1013],
    [617,1532794445,56.9442,-111.5576,2130.1,1814.1,326.7,4.0,-1.9,13.24,44.24,1.9012,382.6179],
    [618,1532794446,56.9447,-111.5581,2129.4,1813.4,326.8,3.9,-1.9,13.86,44.09,1.901,381.3292],
    [619,1532794447,56.9452,-111.5587,2128.2,1812.2,326.8,4.0,-2.0,13.46,44.4,1.9027,381.3292],
    [620,1532794448,56.9458,-111.5593,2126.9,1810.9,326.7,4.0,-1.9,13.39,44.32,1.9014,381.8594],
    [621,1532794449,56.9463,-111.5598,2125.7,1809.7,326.7,4.0,-1.9,13.29,44.32,1.9024,380.7384],
    [622,1532794450,56.9468,-111.5604,2124.5,1808.5,326.7,4.0,-1.9,13.1,44.39,1.9022,381.3011],
    [623,1532794451,56.9473,-111.561,2123.4,1808.1,326.7,4.0,-1.8,13.4,44.44,1.9019,381.3011],
    [624,1532794452,56.9479,-111.5616,2122.7,1807.8,326.7,3.9,-1.8,13.46,44.55,1.9047,380.9315],
    [625,1532794453,56.9484,-111.5622,2122.3,1807.3,326.7,4.0,-1.7,13.31,44.71,1.9035,380.487],
    [626,1532794454,56.9489,-111.5628,2122.1,1807.1,326.6,4.0,-1.7,13.09,44.95,1.9029,381.8445],
    [627,1532794455,56.9494,-111.5634,2122.1,1807.1,326.6,4.0,-1.7,13.85,44.51,1.9023,381.7695],
    [628,1532794456,56.95,-111.564,2122.0,1807.0,326.7,3.9,-1.8,12.8,45.05,1.9035,381.2337],
    [629,1532794457,56.9505,-111.5646,2122.1,1807.1,326.6,3.9,-1.8,13.31,45.56,1.9038,381.3803],
    [630,1532794458,56.951,-111.5652,2122.2,1807.2,326.5,4.0,-1.7,12.91,45.51,1.9056,380.6326],
    [631,1532794459,56.9516,-111.5658,2122.3,1807.3,326.5,4.0,-1.7,13.54,45.31,1.9043,382.3211],
    [632,1532794460,56.9521,-111.5664,2122.2,1807.2,326.6,4.0,-1.7,13.29,45.99,1.904,380.9584],
    [633,1532794461,56.9526,-111.567,2122.0,1807.0,326.6,4.1,-1.7,13.37,46.12,1.9034,379.8517],
    [634,1532794462,56.9532,-111.5676,2121.7,1807.2,326.6,4.0,-1.7,13.08,45.82,1.9046,381.0201],
    [635,1532794463,56.9537,-111.5682,2121.4,1807.4,326.6,4.0,-1.8,13.76,45.6,1.9039,380.2789],
    [636,1532794464,56.9543,-111.5688,2120.9,1806.9,326.8,3.9,-1.8,12.91,45.77,1.9032,382.2357],
    [637,1532794465,56.9548,-111.5694,2120.4,1806.9,326.8,3.9,-1.8,13.32,46.29,1.9028,380.7108],
    [638,1532794466,56.9554,-111.57,2120.1,1807.1,326.7,4.0,-1.8,13.31,46.1,1.9021,381.3166],
    [639,1532794467,56.9559,-111.5706,2119.9,1806.9,326.7,4.0,-1.9,13.32,45.67,1.8997,381.6478],
    [640,1532794468,56.9565,-111.5712,2119.8,1806.8,326.7,3.9,-1.9,13.13,45.05,1.9,381.7959],
    [641,1532794469,56.957,-111.5718,2119.9,1807.9,326.7,3.8,-1.9,13.07,44.6,1.9011,381.6643],
    [642,1532794470,56.9576,-111.5725,2120.2,1808.2,326.7,3.8,-1.9,13.54,43.72,1.9023,380.9127],
    [643,1532794471,56.9581,-111.5731,2120.6,1808.7,326.7,3.9,-2.0,13.29,43.98,1.9022,381.3884],
    [644,1532794472,56.9587,-111.5737,2121.1,1809.1,326.8,3.9,-2.0,13.44,43.17,1.9012,381.8147],
    [645,1532794473,56.9592,-111.5743,2121.6,1809.7,326.9,3.9,-2.0,13.15,43.12,1.902,382.9798],
    [646,1532794474,56.9598,-111.575,2121.9,1809.8,326.9,3.8,-2.0,12.83,42.9,1.9015,381.9596],
    [647,1532794475,56.9604,-111.5756,2122.1,1810.1,327.0,3.8,-2.0,13.3,43.57,1.9021,382.0528],
    [648,1532794476,56.9609,-111.5762,2122.3,1810.2,327.0,3.7,-2.0,13.01,42.9,1.9006,382.2093],
    [649,1532794477,56.9615,-111.5768,2122.4,1810.2,327.0,3.8,-1.9,13.28,42.63,1.9015,383.2444],
    [650,1532794478,56.962,-111.5775,2122.3,1811.4,327.0,3.7,-2.0,13.67,41.93,1.9026,382.0731],
    [651,1532794479,56.9626,-111.5781,2122.2,1811.8,327.0,3.7,-2.0,13.28,42.89,1.9019,382.0712],
    [652,1532794480,56.9632,-111.5787,2122.1,1812.1,327.0,3.7,-2.0,13.29,42.36,1.9019,379.744],
    [653,1532794481,56.9637,-111.5794,2121.9,1811.8,327.1,3.6,-2.1,13.09,42.58,1.9021,382.158],
    [654,1532794482,56.9643,-111.58,2121.8,1813.1,327.1,3.6,-2.1,13.13,42.55,1.9035,382.4788],
    [655,1532794483,56.9649,-111.5806,2121.7,1813.1,327.1,3.4,-2.3,13.18,42.86,1.9022,381.0358],
    [656,1532794484,56.9654,-111.5813,2121.6,1813.6,326.7,3.3,-2.4,13.64,42.07,1.9022,381.9135],
    [657,1532794485,56.966,-111.5819,2121.5,1812.7,325.7,3.2,-2.5,13.19,43.33,1.9041,380.8624],
    [658,1532794486,56.9665,-111.5826,2121.3,1813.2,324.1,3.2,-2.5,13.34,42.85,1.9042,381.7359],
    [659,1532794487,56.9671,-111.5833,2120.7,1812.8,321.9,3.3,-2.4,13.29,42.93,1.9018,381.5872],
    [660,1532794488,56.9676,-111.5841,2119.9,1812.9,319.1,3.4,-2.3,13.4,42.67,1.9026,381.8956],
    [661,1532794489,56.9681,-111.5849,2119.1,1812.1,316.1,3.6,-2.2,13.23,42.97,1.9015,381.8956],
    [662,1532794490,56.9685,-111.5857,2118.5,1811.5,312.7,3.7,-2.0,13.0,43.91,1.901,382.6593],
    [663,1532794491,56.969,-111.5866,2118.4,1811.4,309.3,3.7,-1.9,13.01,43.31,1.9008,382.6593],
    [664,1532794492,56.9694,-111.5876,2118.6,1811.6,306.1,3.7,-1.8,13.44,42.73,1.9009,381.7388],
    [665,1532794493,56.9698,-111.5886,2119.1,1812.1,303.0,3.6,-1.9,12.84,43.03,1.9013,382.8323],
    [666,1532794494,56.9701,-111.5896,2119.8,1812.8,300.0,3.6,-1.9,13.17,43.02,1.9014,381.2215],
    [667,1532794495,56.9704,-111.5907,2120.4,1813.4,297.0,3.6,-1.9,13.13,43.93,1.9015,379.4849],
    [668,1532794496,56.9707,-111.5918,2120.8,1813.8,294.0,3.7,-1.9,13.12,43.28,1.9018,379.2728],
    [669,1532794497,56.971,-111.5929,2121.0,1814.0,291.0,3.6,-1.8,13.16,43.66,1.9026,379.8282],
    [670,1532794498,56.9712,-111.594,2121.0,1814.0,288.1,3.5,-1.8,13.88,42.61,1.9024,381.1827],
    [671,1532794499,56.9714,-111.5952,2121.1,1814.1,284.9,3.2,-1.8,13.14,42.86,1.9013,381.3792],
    [672,1532794500,56.9715,-111.5963,2122.3,1814.6,281.5,3.1,-2.1,13.1,42.59,1.9017,379.4317],
    [673,1532794501,56.9716,-111.5975,2123.9,1815.1,278.1,3.2,-1.8,13.06,42.92,1.9005,380.9252],
    [674,1532794502,56.9717,-111.5987,2125.0,1814.3,274.9,3.4,-1.6,12.96,42.73,1.9014,380.9252],
    [675,1532794503,56.9717,-111.5999,2125.2,1814.1,271.7,3.5,-1.6,13.44,42.66,1.9033,381.8414],
    [676,1532794504,56.9717,-111.601,2124.5,1812.5,268.4,3.4,-1.4,13.36,42.34,1.9037,382.2829],
    [677,1532794505,56.9716,-111.6022,2123.4,1811.4,265.0,3.3,-1.2,12.56,42.65,1.9008,382.2829],
    [678,1532794506,56.9715,-111.6033,2122.6,1810.6,261.6,3.3,-1.3,12.89,42.64,1.9022,380.8642],
    [679,1532794507,56.9714,-111.6045,2121.7,1810.7,258.2,3.3,-1.3,12.68,43.05,1.902,382.1287],
    [680,1532794508,56.9712,-111.6056,2120.5,1809.5,255.1,3.3,-1.4,13.73,42.17,1.9017,381.0686],
    [681,1532794509,56.971,-111.6067,2118.6,1807.6,252.1,3.4,-1.4,12.44,42.94,1.9017,381.3905],
    [682,1532794510,56.9708,-111.6077,2116.3,1805.3,249.0,3.5,-1.5,13.89,42.38,1.9029,380.526],
    [683,1532794511,56.9705,-111.6088,2113.4,1801.4,245.4,3.3,-1.2,13.86,42.5,1.9025,381.7615],
    [684,1532794512,56.9702,-111.6099,2110.4,1796.3,241.8,3.3,-1.2,12.49,42.77,1.9009,381.7615],
    [685,1532794513,56.9699,-111.6109,2107.6,1792.7,238.2,3.2,-1.1,13.17,43.19,1.9013,381.6087],
    [686,1532794514,56.9695,-111.6118,2104.9,1788.2,234.8,3.1,-1.0,12.96,42.8,1.9006,381.1547],
    [687,1532794515,56.9691,-111.6127,2102.2,1784.3,231.7,3.1,-1.1,12.8,42.87,1.9023,381.0076],
    [688,1532794516,56.9687,-111.6136,2099.6,1780.6,228.4,3.0,-1.1,13.58,42.57,1.9015,381.6392],
    [689,1532794517,56.9682,-111.6144,2097.0,1777.1,225.2,3.1,-1.1,13.13,43.0,1.9022,381.6411],
    [690,1532794518,56.9677,-111.6152,2094.4,1773.4,222.0,3.1,-1.2,13.19,42.73,1.9026,381.6411],
    [691,1532794519,56.9672,-111.6159,2091.7,1769.7,218.8,3.2,-1.3,13.12,43.39,1.9018,380.4789],
    [692,1532794520,56.9667,-111.6166,2088.9,1765.9,215.5,3.2,-1.2,13.07,42.84,1.9017,381.4206],
    [693,1532794521,56.9661,-111.6172,2086.1,1763.1,212.3,3.2,-1.1,13.45,42.42,1.9018,382.5839],
    [694,1532794522,56.9656,-111.6178,2083.3,1759.6,209.0,3.2,-1.1,13.4,42.51,1.902,382.4649],
    [695,1532794523,56.965,-111.6182,2080.5,1756.4,205.9,3.3,-1.2,13.56,42.18,1.9013,381.7774],
    [696,1532794524,56.9644,-111.6187,2077.8,1752.8,202.8,3.4,-1.1,13.22,42.57,1.9027,381.5514],
    [697,1532794525,56.9638,-111.6191,2075.1,1749.1,199.7,3.5,-1.1,12.93,43.34,1.9023,381.3737],
    [698,1532794526,56.9631,-111.6194,2072.4,1745.9,196.6,3.6,-1.1,12.75,42.83,1.9014,381.5108],
    [699,1532794527,56.9625,-111.6196,2069.6,1742.6,193.3,3.7,-1.1,12.74,42.91,1.9022,380.4033],
    [700,1532794528,56.9618,-111.6198,2066.8,1738.8,189.9,3.6,-1.0,13.11,43.22,1.9045,380.3678],
    [701,1532794529,56.9612,-111.6199,2064.0,1736.0,186.4,3.5,-1.0,13.51,42.81,1.9039,380.0946],
    [702,1532794530,56.9605,-111.6199,2061.4,1732.3,183.2,3.4,-0.9,13.02,43.59,1.9055,380.3873],
    [703,1532794531,56.9599,-111.6199,2058.7,1729.7,179.8,3.4,-0.9,13.32,44.32,1.9047,379.8933],
    [704,1532794532,56.9592,-111.6198,2056.1,1726.5,176.7,3.5,-0.9,13.28,44.38,1.9054,379.9094],
    [705,1532794533,56.9586,-111.6197,2053.5,1723.5,173.4,3.5,-0.8,13.15,45.49,1.9057,379.9267],
    [706,1532794534,56.9579,-111.6194,2051.0,1721.0,170.3,3.5,-0.8,13.26,45.59,1.907,380.7009],
    [707,1532794535,56.9573,-111.6191,2048.3,1718.3,167.1,3.5,-0.8,13.82,45.25,1.9067,380.3038],
    [708,1532794536,56.9566,-111.6188,2045.5,1715.5,163.8,3.6,-0.7,13.68,45.69,1.9052,380.1341],
    [709,1532794537,56.956,-111.6183,2042.7,1712.7,160.3,3.5,-0.7,13.0,46.51,1.9049,380.1341],
    [710,1532794538,56.9554,-111.6179,2039.9,1710.9,157.0,3.5,-0.8,13.63,46.68,1.9054,379.8623],
    [711,1532794539,56.9548,-111.6173,2037.0,1708.0,153.7,3.5,-0.9,13.05,48.17,1.9052,380.0376],
    [712,1532794540,56.9542,-111.6167,2034.1,1705.1,150.4,3.5,-0.9,13.04,47.66,1.9056,380.0376],
    [713,1532794541,56.9537,-111.6161,2031.3,1702.2,147.2,3.5,-0.9,13.67,47.45,1.904,380.308],
    [714,1532794542,56.9531,-111.6153,2028.5,1700.4,143.7,3.6,-1.0,13.63,47.33,1.9053,380.6331],
    [715,1532794543,56.9526,-111.6146,2026.0,1700.3,140.4,3.6,-1.1,13.13,48.17,1.9042,379.9784],
    [716,1532794544,56.9522,-111.6137,2023.8,1698.8,137.1,3.6,-1.0,13.12,47.98,1.9058,379.0099],
    [717,1532794545,56.9517,-111.6129,2021.4,1694.3,134.0,3.7,-1.0,12.98,47.81,1.9057,379.0099],
    [718,1532794546,56.9513,-111.612,2018.8,1690.8,130.9,3.7,-1.0,13.48,47.73,1.9048,379.771],
    [719,1532794547,56.9509,-111.611,2016.0,1687.1,127.7,3.6,-0.9,14.04,47.51,1.9045,379.4139],
    [720,1532794548,56.9505,-111.61,2013.1,1685.2,124.6,3.6,-0.9,12.88,48.39,1.9049,379.5509],
    [721,1532794549,56.9501,-111.609,2010.0,1682.0,121.3,3.6,-1.0,13.03,48.52,1.9044,380.6473],
    [722,1532794550,56.9498,-111.6079,2006.9,1679.9,118.0,3.6,-1.0,13.31,48.51,1.9057,378.9793],
    [723,1532794551,56.9495,-111.6069,2003.9,1677.2,114.6,3.6,-1.1,12.99,48.7,1.905,380.2665],
    [724,1532794552,56.9493,-111.6058,2000.9,1675.0,111.3,3.6,-1.1,13.13,49.17,1.9049,378.7438],
    [725,1532794553,56.9491,-111.6046,1998.1,1673.1,108.0,3.6,-1.2,13.18,48.84,1.9053,380.3097],
    [726,1532794554,56.9489,-111.6035,1995.2,1670.5,104.7,3.6,-1.1,13.13,49.41,1.9055,380.128],
    [727,1532794555,56.9487,-111.6023,1992.4,1668.4,101.4,3.6,-1.2,12.66,48.88,1.9053,380.128],
    [728,1532794556,56.9486,-111.6011,1989.6,1666.6,98.2,3.6,-1.1,13.37,48.77,1.9049,379.7227],
    [729,1532794557,56.9485,-111.5999,1986.9,1664.8,95.0,3.6,-1.0,14.14,48.38,1.9063,379.2869],
    [730,1532794558,56.9485,-111.5988,1984.4,1662.4,91.7,3.7,-1.1,13.31,49.32,1.9053,377.0394],
    [731,1532794559,56.9485,-111.5976,1982.1,1660.8,88.4,3.7,-1.1,12.82,49.22,1.9049,377.0394],
    [732,1532794560,56.9485,-111.5964,1979.7,1658.7,85.2,3.7,-1.1,13.03,48.88,1.9066,379.9767],
    [733,1532794561,56.9486,-111.5952,1977.2,1656.2,82.0,3.7,-1.1,13.22,49.03,1.9064,379.3452],
    [734,1532794562,56.9487,-111.594,1974.4,1653.4,78.7,3.7,-1.1,13.74,48.33,1.9068,379.7073],
    [735,1532794563,56.9488,-111.5929,1971.6,1650.6,75.5,3.7,-1.1,13.44,48.89,1.9049,379.7073],
    [736,1532794564,56.9489,-111.5918,1968.7,1647.7,72.1,3.7,-1.2,13.56,48.64,1.9053,380.4641],
    [737,1532794565,56.9491,-111.5906,1965.8,1644.8,68.7,3.8,-1.2,13.37,48.93,1.9061,379.1235],
    [738,1532794566,56.9494,-111.5895,1963.0,1642.7,65.2,3.8,-1.3,13.13,49.28,1.9053,379.4388],
    [739,1532794567,56.9496,-111.5885,1960.3,1640.3,61.9,3.9,-1.3,13.36,49.0,1.9055,379.897],
    [740,1532794568,56.9499,-111.5874,1957.7,1637.7,58.7,3.9,-1.2,13.32,49.59,1.9057,378.2293],
    [741,1532794569,56.9502,-111.5865,1955.1,1636.0,55.4,4.0,-1.3,13.76,48.92,1.9055,379.6688],
    [742,1532794570,56.9506,-111.5855,1952.5,1633.5,52.1,4.1,-1.2,13.1,49.52,1.908,378.949],
    [743,1532794571,56.951,-111.5846,1949.8,1630.8,48.8,4.1,-1.2,13.51,49.6,1.9079,379.3434],
    [744,1532794572,56.9514,-111.5837,1947.2,1628.2,45.6,4.1,-1.2,13.31,49.71,1.9074,378.5117],
    [745,1532794573,56.9518,-111.5829,1944.4,1626.1,42.5,4.0,-1.2,13.45,50.49,1.907,378.7164],
    [746,1532794574,56.9522,-111.5821,1941.6,1624.7,39.2,4.0,-1.1,13.58,50.47,1.9072,379.3951],
    [747,1532794575,56.9527,-111.5813,1938.9,1622.9,36.0,4.0,-1.1,13.21,50.88,1.9084,379.3951],
    [748,1532794576,56.9532,-111.5806,1936.1,1621.1,32.8,4.0,-1.1,13.78,51.61,1.9073,378.6527],
    [749,1532794577,56.9537,-111.58,1933.4,1619.4,29.6,4.0,-1.0,14.09,51.96,1.9068,379.5299],
    [750,1532794578,56.9542,-111.5794,1930.7,1617.7,26.4,4.0,-1.0,13.45,52.46,1.9056,379.5299],
    [751,1532794579,56.9548,-111.5789,1927.8,1615.8,22.9,4.0,-1.0,13.35,52.71,1.9068,377.5827],
    [752,1532794580,56.9553,-111.5784,1925.3,1613.2,19.7,3.9,-0.9,13.46,52.86,1.9061,378.3723],
    [753,1532794581,56.9559,-111.578,1922.9,1611.9,16.4,3.9,-0.9,13.41,52.79,1.9058,377.5538],
    [754,1532794582,56.9565,-111.5777,1920.6,1609.6,13.1,3.9,-0.9,13.63,52.69,1.9051,378.308],
    [755,1532794583,56.957,-111.5774,1918.2,1607.2,9.9,3.9,-0.9,14.4,52.44,1.906,378.7358],
    [756,1532794584,56.9576,-111.5772,1915.6,1605.3,6.7,3.9,-0.9,13.82,52.81,1.9064,378.8965],
    [757,1532794585,56.9582,-111.577,1912.8,1602.8,3.4,3.9,-0.9,13.6,53.47,1.9056,378.2103],
    [758,1532794586,56.9588,-111.5769,1910.0,1600.0,360.0,4.1,-0.8,13.59,53.49,1.9045,378.0741],
    [759,1532794587,56.9594,-111.5769,1907.1,1597.1,356.9,4.2,-0.8,13.82,53.31,1.9057,378.1567],
    [760,1532794588,56.96,-111.5769,1904.3,1594.2,354.3,3.9,-0.8,13.37,53.19,1.9051,378.1567],
    [761,1532794589,56.9605,-111.577,1901.5,1590.5,351.5,3.7,-0.7,13.47,53.32,1.9046,378.4745],
    [762,1532794590,56.9611,-111.5771,1898.7,1587.7,348.3,4.0,-0.7,13.71,53.43,1.9064,377.9183],
    [763,1532794591,56.9617,-111.5773,1895.9,1585.0,345.3,4.1,-0.6,13.71,53.68,1.9069,378.6601],
    [764,1532794592,56.9623,-111.5775,1893.2,1582.2,342.9,4.0,-0.5,13.79,54.12,1.9076,378.3031],
    [765,1532794593,56.9628,-111.5778,1890.5,1579.5,340.6,4.1,-0.4,13.33,53.22,1.9064,375.9407],
    [766,1532794594,56.9634,-111.5781,1888.0,1576.3,338.8,4.1,-0.4,13.78,53.25,1.9067,377.3059],
    [767,1532794595,56.9639,-111.5784,1885.6,1573.5,337.4,4.0,-0.3,13.82,53.84,1.9063,377.9029],
    [768,1532794596,56.9644,-111.5788,1883.2,1571.5,336.2,4.1,-0.3,14.11,52.66,1.906,378.202],
    [769,1532794597,56.965,-111.5792,1880.8,1568.8,335.6,4.0,-0.3,14.04,52.99,1.906,378.4607],
    [770,1532794598,56.9655,-111.5795,1878.3,1566.3,335.2,3.9,-0.4,14.05,53.26,1.9044,377.7436],
    [771,1532794599,56.966,-111.5799,1875.7,1564.0,335.1,3.8,-0.4,14.03,53.14,1.9047,378.023],
    [772,1532794600,56.9665,-111.5803,1872.9,1561.9,335.3,3.8,-0.5,13.55,53.08,1.9066,378.4324],
    [773,1532794601,56.9671,-111.5807,1870.2,1559.2,335.4,3.7,-0.5,13.79,53.61,1.9058,377.3137],
    [774,1532794602,56.9676,-111.5811,1867.3,1556.3,335.6,3.7,-0.5,13.59,53.37,1.9047,378.2429],
    [775,1532794603,56.9681,-111.5815,1864.5,1553.8,335.6,3.7,-0.5,14.07,53.12,1.9055,377.7887],
    [776,1532794604,56.9687,-111.5818,1861.9,1551.6,335.7,3.8,-0.4,14.02,53.22,1.9057,377.6073],
    [777,1532794605,56.9692,-111.5822,1859.3,1548.2,335.8,4.1,-0.3,14.26,52.54,1.9053,377.4799],
    [778,1532794606,56.9697,-111.5826,1856.7,1545.7,336.4,4.3,-0.3,13.84,53.03,1.9056,377.2514],
    [779,1532794607,56.9702,-111.5829,1853.8,1542.9,337.9,4.2,-0.2,13.92,52.87,1.9061,378.1537],
    [780,1532794608,56.9708,-111.5832,1850.9,1538.8,340.2,4.0,-0.4,14.05,52.84,1.9052,377.3486],
    [781,1532794609,56.9713,-111.5835,1848.0,1536.0,343.0,3.7,-0.5,13.71,53.02,1.9055,377.726],
    [782,1532794610,56.9719,-111.5838,1845.3,1532.2,345.8,3.4,-0.6,13.71,53.46,1.907,378.0019],
    [783,1532794611,56.9725,-111.5839,1842.8,1529.8,348.2,3.3,-0.5,13.67,52.92,1.906,377.8234],
    [784,1532794612,56.973,-111.5841,1840.7,1527.7,350.2,3.4,-0.5,13.89,52.86,1.9058,378.2409],
    [785,1532794613,56.9736,-111.5842,1838.5,1525.5,351.8,3.4,-0.6,14.09,52.42,1.9054,376.8609],
    [786,1532794614,56.9741,-111.5843,1836.2,1523.2,353.0,3.4,-0.6,14.44,52.53,1.9053,377.5839],
    [787,1532794615,56.9747,-111.5843,1833.6,1521.6,353.9,3.6,-0.6,14.12,52.78,1.9057,378.1641],
    [788,1532794616,56.9753,-111.5844,1831.0,1519.0,354.6,3.6,-0.6,13.94,52.64,1.9071,378.1641],
    [789,1532794617,56.9759,-111.5844,1828.5,1516.5,355.1,3.6,-0.5,13.9,52.44,1.9063,378.019],
    [790,1532794618,56.9765,-111.5845,1825.9,1513.9,355.2,3.8,-0.5,14.29,52.1,1.9059,378.1761],
    [791,1532794619,56.977,-111.5845,1823.3,1511.3,355.2,3.9,-0.5,13.96,52.7,1.9064,376.8646],
    [792,1532794620,56.9776,-111.5845,1820.7,1508.7,355.2,4.0,-0.5,14.13,52.64,1.9062,378.2979],
    [793,1532794621,56.9782,-111.5845,1817.9,1505.6,355.3,4.0,-0.4,14.17,52.03,1.9047,377.8547],
    [794,1532794622,56.9787,-111.5845,1815.3,1502.3,355.3,4.0,-0.4,14.39,51.8,1.9041,377.3223],
    [795,1532794623,56.9793,-111.5846,1812.6,1499.6,355.5,4.0,-0.4,14.81,51.74,1.906,378.1218],
    [796,1532794624,56.9799,-111.5846,1810.0,1497.0,355.6,4.0,-0.4,14.05,51.89,1.9055,378.5602],
    [797,1532794625,56.9805,-111.5846,1807.4,1494.4,355.7,4.0,-0.4,14.28,51.48,1.9047,378.2755],
    [798,1532794626,56.9811,-111.5846,1804.7,1491.7,355.9,3.9,-0.3,14.22,51.47,1.9048,377.5724],
    [799,1532794627,56.9816,-111.5846,1802.1,1489.1,356.0,3.9,-0.3,14.25,51.51,1.9056,377.4135],
    [800,1532794628,56.9822,-111.5846,1799.6,1486.6,356.1,3.9,-0.3,13.63,51.51,1.9067,377.4656],
    [801,1532794629,56.9828,-111.5846,1797.1,1484.1,356.1,4.0,-0.3,14.24,51.58,1.9048,377.7782],
    [802,1532794630,56.9833,-111.5846,1794.6,1481.6,356.1,4.0,-0.2,14.38,51.42,1.906,377.6419],
    [803,1532794631,56.9839,-111.5846,1792.0,1479.0,356.1,4.0,-0.2,14.52,50.69,1.9043,377.6419],
    [804,1532794632,56.9845,-111.5847,1789.5,1476.5,356.0,4.0,-0.2,15.09,50.13,1.9066,377.5376],
    [805,1532794633,56.985,-111.5847,1787.0,1474.0,355.9,4.1,-0.1,13.94,50.75,1.905,377.505],
    [806,1532794634,56.9856,-111.5847,1784.3,1472.3,355.9,4.1,-0.1,15.0,50.08,1.9054,378.7844],
    [807,1532794635,56.9862,-111.5847,1781.6,1470.6,356.0,4.0,-0.1,14.05,51.12,1.9052,378.4665],
    [808,1532794636,56.9868,-111.5847,1778.7,1468.7,356.2,3.9,-0.1,15.26,50.05,1.9047,378.4665],
    [809,1532794637,56.9874,-111.5847,1775.9,1466.9,356.4,3.8,-0.2,14.71,50.48,1.906,377.8444],
    [810,1532794638,56.9879,-111.5847,1773.2,1464.2,356.5,3.8,-0.1,14.89,50.41,1.9053,377.9994],
    [811,1532794639,56.9885,-111.5847,1770.5,1462.5,356.6,3.9,0.0,14.26,50.66,1.9044,378.0713],
    [812,1532794640,56.9891,-111.5847,1767.9,1459.9,356.6,3.8,0.0,14.8,50.06,1.9049,378.2133],
    [813,1532794641,56.9897,-111.5847,1765.3,1458.3,356.5,3.9,0.0,14.59,50.37,1.9055,377.6973],
    [814,1532794642,56.9902,-111.5847,1762.8,1455.8,356.4,3.9,0.0,14.65,50.1,1.9065,377.93],
    [815,1532794643,56.9908,-111.5847,1760.3,1453.3,356.3,4.0,0.0,14.64,50.78,1.9051,378.482],
    [816,1532794644,56.9914,-111.5847,1757.8,1450.8,356.2,4.0,0.0,14.77,50.58,1.9061,378.3374],
    [817,1532794645,56.9919,-111.5847,1755.3,1448.3,356.2,3.9,-0.1,14.72,50.52,1.9065,378.3374],
    [818,1532794646,56.9925,-111.5847,1752.8,1444.8,356.2,3.6,-0.1,14.68,50.62,1.9057,377.4282],
    [819,1532794647,56.9931,-111.5847,1750.3,1442.3,356.0,3.4,0.0,14.26,49.86,1.9046,377.8193],
    [820,1532794648,56.9937,-111.5848,1747.9,1439.9,354.8,3.4,0.0,15.48,49.47,1.9051,378.0055],
    [821,1532794649,56.9942,-111.5848,1745.4,1436.3,353.0,3.4,0.0,14.62,50.28,1.9053,377.2561],
    [822,1532794650,56.9948,-111.5849,1742.5,1432.3,350.5,3.5,0.1,14.56,49.61,1.9049,377.2522],
    [823,1532794651,56.9954,-111.585,1739.5,1428.1,347.4,3.9,0.2,15.27,49.18,1.9034,377.1029],
    [824,1532794652,56.996,-111.5852,1736.3,1422.5,344.0,4.0,0.3,14.69,49.11,1.9064,378.3266],
    [825,1532794653,56.9965,-111.5855,1733.3,1417.9,340.7,4.1,0.4,14.71,48.77,1.9051,378.3033],
    [826,1532794654,56.997,-111.5858,1730.4,1414.4,337.2,4.1,0.5,14.84,49.48,1.9044,378.8972],
    [827,1532794655,56.9976,-111.5862,1727.6,1412.6,334.0,4.1,0.5,14.87,49.04,1.9056,378.3655],
    [828,1532794656,56.9981,-111.5866,1725.0,1410.4,330.8,4.2,0.6,15.24,47.91,1.9038,378.2912],
    [829,1532794657,56.9986,-111.5871,1722.3,1408.8,327.6,4.1,0.7,14.77,48.45,1.9039,377.8666],
    [830,1532794658,56.9991,-111.5876,1719.7,1408.7,324.4,4.2,0.7,14.83,48.95,1.905,378.5516],
    [831,1532794659,56.9995,-111.5882,1717.1,1408.8,321.3,4.2,0.8,15.13,47.92,1.9036,378.5608],
    [832,1532794660,57.0,-111.5888,1714.5,1407.5,318.2,4.2,0.8,15.2,48.06,1.9063,377.7908],
    [833,1532794661,57.0004,-111.5894,1711.8,1406.3,315.0,4.2,0.8,14.73,48.13,1.9051,378.7961],
    [834,1532794662,57.0008,-111.5901,1709.2,1405.6,311.8,4.3,1.0,14.29,48.04,1.9052,378.6564],
    [835,1532794663,57.0012,-111.5909,1706.4,1404.3,308.6,4.2,0.9,15.06,48.3,1.9046,378.5223],
    [836,1532794664,57.0015,-111.5917,1703.6,1402.3,305.3,4.2,1.0,15.06,48.4,1.9054,378.163],
    [837,1532794665,57.0019,-111.5925,1700.7,1399.9,302.0,4.2,1.1,14.71,48.41,1.905,378.163],
    [838,1532794666,57.0022,-111.5933,1698.0,1397.0,298.7,4.2,1.2,15.06,47.91,1.9045,378.1475],
    [839,1532794667,57.0024,-111.5942,1695.3,1394.4,295.4,4.2,1.2,15.48,48.35,1.9038,378.2131],
    [840,1532794668,57.0027,-111.5951,1692.7,1391.8,292.1,4.2,1.3,14.64,48.07,1.9046,378.3131],
    [841,1532794669,57.0029,-111.596,1690.2,1389.2,289.1,4.1,1.2,15.6,47.94,1.9043,377.5669],
    [842,1532794670,57.0031,-111.597,1687.6,1385.6,285.9,4.1,1.2,14.61,48.25,1.9046,378.2671],
    [843,1532794671,57.0032,-111.5979,1685.0,1383.1,282.8,4.1,1.2,15.72,47.89,1.9041,377.2268],
    [844,1532794672,57.0034,-111.5989,1682.5,1380.9,279.6,4.0,1.3,15.18,48.28,1.9037,377.8243],
    [845,1532794673,57.0035,-111.5998,1679.9,1380.0,276.4,4.0,1.3,16.06,47.58,1.905,378.7694],
    [846,1532794674,57.0035,-111.6008,1677.2,1379.3,273.1,4.0,1.5,15.32,48.55,1.9058,377.9109],
    [847,1532794675,57.0035,-111.6018,1674.5,1377.3,269.9,4.0,1.5,15.13,47.8,1.906,377.7752],
    [848,1532794676,57.0035,-111.6028,1671.7,1377.8,266.7,4.0,1.5,15.33,48.02,1.9059,377.3912],
    [849,1532794677,57.0035,-111.6038,1668.9,1379.8,263.4,3.9,1.6,15.39,47.83,1.9058,378.2961],
    [850,1532794678,57.0034,-111.6048,1665.9,1385.5,260.2,3.9,1.6,14.59,48.43,1.9058,377.8062],
    [851,1532794679,57.0033,-111.6057,1663.0,1390.7,256.9,3.8,1.7,15.49,49.08,1.9062,377.6931],
    [852,1532794680,57.0032,-111.6067,1660.1,1390.7,253.6,3.7,1.7,15.41,49.19,1.9064,376.4181],
    [853,1532794681,57.003,-111.6076,1657.2,1386.4,250.2,3.7,1.7,14.95,49.86,1.9065,376.2],
    [854,1532794682,57.0028,-111.6085,1654.5,1379.7,246.9,3.6,1.8,15.39,50.79,1.9064,373.7814],
    [855,1532794683,57.0026,-111.6094,1651.9,1369.9,243.6,3.6,1.8,15.83,50.18,1.907,373.7814],
    [856,1532794684,57.0024,-111.6103,1649.4,1356.2,240.4,3.6,1.8,16.16,50.55,1.909,377.0736],
    [857,1532794685,57.0021,-111.6111,1646.9,1349.4,237.3,3.6,1.8,15.47,51.37,1.9084,376.8766],
    [858,1532794686,57.0018,-111.612,1644.4,1346.1,234.1,3.5,1.8,15.46,51.19,1.9092,376.5875],
    [859,1532794687,57.0014,-111.6127,1641.9,1342.1,231.0,3.5,1.8,15.55,51.82,1.9081,376.5553],
    [860,1532794688,57.0011,-111.6135,1639.5,1337.9,227.9,3.5,1.7,16.15,51.77,1.9082,376.4993],
    [861,1532794689,57.0007,-111.6142,1637.0,1334.1,224.8,3.5,1.8,15.42,52.43,1.9076,376.9869],
    [862,1532794690,57.0003,-111.6148,1634.4,1330.3,221.7,3.6,1.7,14.92,52.3,1.9073,376.8995],
    [863,1532794691,56.9999,-111.6154,1631.8,1326.9,218.6,3.6,1.7,15.59,52.21,1.9073,377.0473],
    [864,1532794692,56.9994,-111.616,1629.0,1323.0,215.4,3.6,1.7,16.26,52.0,1.9077,377.8062],
    [865,1532794693,56.999,-111.6165,1626.2,1320.2,212.1,3.5,1.7,15.72,52.21,1.908,376.0409],
    [866,1532794694,56.9985,-111.617,1623.4,1317.1,208.9,3.5,1.7,14.97,52.29,1.9083,377.045],
    [867,1532794695,56.998,-111.6174,1620.5,1313.7,205.6,3.4,1.7,15.33,52.36,1.9083,375.4789],
    [868,1532794696,56.9975,-111.6178,1617.8,1311.1,202.4,3.3,1.7,15.4,52.34,1.9082,376.7663],
    [869,1532794697,56.997,-111.6181,1615.2,1308.4,199.3,3.3,1.6,15.64,52.35,1.9063,376.1644],
    [870,1532794698,56.9964,-111.6184,1612.6,1305.8,196.1,3.3,1.6,16.25,51.55,1.9069,376.4589],
    [871,1532794699,56.9959,-111.6186,1610.2,1303.2,193.0,3.1,1.6,15.68,52.32,1.9066,376.0514],
    [872,1532794700,56.9953,-111.6188,1607.8,1300.6,190.4,3.0,1.5,15.72,52.08,1.9071,376.3475],
    [873,1532794701,56.9948,-111.6189,1605.6,1298.2,188.2,3.1,1.5,16.09,51.89,1.9076,376.5761],
    [874,1532794702,56.9942,-111.619,1603.4,1294.9,186.5,3.1,1.5,16.1,51.49,1.9078,375.4572],
    [875,1532794703,56.9937,-111.619,1601.1,1288.9,185.0,3.2,1.5,15.6,51.75,1.9079,376.4531],
    [876,1532794704,56.9931,-111.619,1598.6,1282.4,183.8,3.2,1.5,15.86,52.24,1.9071,375.8293],
    [877,1532794705,56.9926,-111.6191,1596.0,1274.3,182.9,3.1,1.5,16.33,51.23,1.9073,376.3131],
    [878,1532794706,56.992,-111.6191,1593.5,1268.5,182.4,3.2,1.5,16.29,51.01,1.9066,375.5763],
    [879,1532794707,56.9914,-111.619,1590.9,1266.4,182.0,3.3,1.5,15.98,51.51,1.9068,376.6082],
    [880,1532794708,56.9909,-111.619,1588.4,1269.1,181.9,3.4,1.5,15.26,51.38,1.9074,375.6114],
    [881,1532794709,56.9903,-111.619,1586.0,1271.9,181.7,3.4,1.5,16.05,51.09,1.9077,376.6388],
    [882,1532794710,56.9898,-111.619,1583.5,1274.2,181.7,3.5,1.4,15.43,51.33,1.9073,373.2838],
    [883,1532794711,56.9892,-111.6189,1581.0,1274.0,181.7,3.5,1.4,16.31,51.03,1.9062,373.2838],
    [884,1532794712,56.9886,-111.6189,1578.5,1271.5,181.7,3.5,1.4,15.84,51.07,1.9067,376.6889],
    [885,1532794713,56.9881,-111.6189,1576.1,1269.1,181.6,3.5,1.4,16.22,50.92,1.9058,376.1972],
    [886,1532794714,56.9875,-111.6189,1573.5,1266.5,181.6,3.5,1.4,16.17,50.58,1.9073,374.5742],
    [887,1532794715,56.987,-111.6188,1571.0,1264.0,181.5,3.5,1.4,15.56,51.04,1.9058,374.8489],
    [888,1532794716,56.9864,-111.6188,1568.3,1261.3,181.4,3.5,1.4,15.81,51.09,1.9067,376.2554],
    [889,1532794717,56.9858,-111.6188,1565.7,1258.7,181.4,3.5,1.4,15.76,51.11,1.9076,375.8538],
    [890,1532794718,56.9853,-111.6187,1563.1,1256.1,181.4,3.5,1.4,16.07,51.51,1.9072,375.977],
    [891,1532794719,56.9847,-111.6187,1560.5,1253.5,181.4,3.5,1.4,15.91,50.7,1.9068,375.4173],
    [892,1532794720,56.9841,-111.6187,1557.8,1250.8,181.4,3.5,1.4,15.44,50.47,1.907,375.4902],
    [893,1532794721,56.9836,-111.6186,1555.2,1248.2,181.5,3.6,1.4,16.29,50.51,1.9071,375.452],
    [894,1532794722,56.983,-111.6186,1552.7,1245.7,181.6,3.6,1.4,16.22,50.95,1.9055,375.6089],
    [895,1532794723,56.9825,-111.6186,1550.2,1243.2,181.7,3.6,1.4,16.4,49.84,1.9062,376.5315],
    [896,1532794724,56.9819,-111.6186,1547.8,1239.7,181.8,3.7,1.3,16.16,49.98,1.9058,375.6596],
    [897,1532794725,56.9813,-111.6185,1545.4,1235.5,181.9,3.7,1.3,16.39,49.48,1.9083,376.1962],
    [898,1532794726,56.9808,-111.6185,1542.9,1231.5,181.8,3.6,1.3,16.42,49.39,1.9049,375.4664],
    [899,1532794727,56.9802,-111.6185,1540.4,1228.3,181.8,3.7,1.4,16.32,49.74,1.9059,376.1681],
    [900,1532794728,56.9797,-111.6184,1537.9,1224.9,181.8,3.6,1.4,16.54,49.07,1.906,376.1877],
    [901,1532794729,56.9791,-111.6184,1535.4,1222.4,181.7,3.7,1.4,16.26,49.48,1.9073,377.0914],
    [902,1532794730,56.9785,-111.6184,1532.8,1219.8,181.7,3.7,1.4,16.38,49.51,1.9051,377.1301],
    [903,1532794731,56.978,-111.6184,1530.2,1217.1,181.6,3.6,1.4,16.22,48.48,1.9047,376.6436],
    [904,1532794732,56.9774,-111.6183,1527.5,1215.6,181.6,3.7,1.4,16.46,48.09,1.9055,376.5145],
    [905,1532794733,56.9768,-111.6183,1524.9,1212.3,181.6,3.6,1.4,16.43,47.85,1.9061,376.6769],
    [906,1532794734,56.9763,-111.6183,1522.3,1209.0,181.6,3.6,1.5,16.33,47.84,1.9066,376.0982],
    [907,1532794735,56.9757,-111.6182,1519.7,1204.9,181.7,3.6,1.4,16.35,47.8,1.906,375.7703],
    [908,1532794736,56.9751,-111.6182,1517.0,1200.9,181.8,3.7,1.4,15.89,47.68,1.9057,376.3745],
    [909,1532794737,56.9746,-111.6182,1514.5,1197.5,181.8,3.7,1.4,16.92,47.08,1.9054,376.8202],
    [910,1532794738,56.974,-111.6182,1512.0,1195.0,181.8,3.6,1.5,17.4,46.95,1.9059,376.2862],
    [911,1532794739,56.9735,-111.6181,1509.5,1192.6,181.8,3.6,1.5,16.95,46.89,1.9067,375.4344],
    [912,1532794740,56.9729,-111.6181,1507.0,1190.0,181.8,3.7,1.5,16.8,47.03,1.9052,375.3502],
    [913,1532794741,56.9723,-111.6181,1504.6,1187.7,181.8,3.6,1.5,16.64,47.15,1.9057,376.1881],
    [914,1532794742,56.9718,-111.6181,1502.1,1184.8,181.7,3.8,1.5,16.63,47.27,1.9052,376.3905],
    [915,1532794743,56.9712,-111.618,1499.6,1181.6,181.6,4.1,1.5,16.84,47.25,1.9058,375.0994],
    [916,1532794744,56.9706,-111.618,1497.1,1178.2,180.8,4.2,1.5,16.76,47.11,1.9057,376.1601],
    [917,1532794745,56.9701,-111.6179,1494.4,1174.5,179.1,4.1,1.5,16.91,46.73,1.9053,378.2264],
    [918,1532794746,56.9695,-111.6178,1491.5,1170.5,176.8,4.0,1.6,16.89,46.52,1.9053,376.9932],
    [919,1532794747,56.9689,-111.6176,1488.3,1166.3,173.5,3.7,1.6,16.48,46.42,1.9049,377.2619],
    [920,1532794748,56.9683,-111.6174,1485.0,1162.9,170.1,3.5,1.5,16.79,46.24,1.9048,377.7152],
    [921,1532794749,56.9678,-111.6172,1482.0,1160.0,166.8,3.4,1.5,16.38,46.18,1.9042,376.6993],
    [922,1532794750,56.9672,-111.6168,1479.2,1156.2,163.5,3.4,1.5,16.68,46.94,1.9056,377.3826],
    [923,1532794751,56.9667,-111.6164,1476.5,1153.5,160.2,3.3,1.5,16.76,46.84,1.9063,377.1668],
    [924,1532794752,56.9662,-111.616,1473.9,1150.9,157.0,3.3,1.4,16.64,46.42,1.906,376.8288],
    [925,1532794753,56.9657,-111.6155,1471.4,1149.4,153.8,3.2,1.4,17.13,45.23,1.9068,377.5051],
    [926,1532794754,56.9652,-111.615,1468.9,1146.9,150.6,3.1,1.4,17.18,45.5,1.9055,377.4967],
    [927,1532794755,56.9647,-111.6144,1466.4,1144.4,147.6,3.1,1.4,17.17,45.26,1.9059,377.7453],
    [928,1532794756,56.9642,-111.6137,1463.8,1142.8,144.6,3.2,1.4,16.9,45.43,1.9061,375.5587],
    [929,1532794757,56.9638,-111.613,1461.2,1140.2,141.5,3.2,1.4,16.52,45.13,1.9057,377.1158],
    [930,1532794758,56.9633,-111.6123,1458.5,1137.4,138.3,3.2,1.4,16.96,44.98,1.9057,377.3439],
    [931,1532794759,56.9629,-111.6115,1455.7,1134.6,135.0,3.2,1.4,17.16,44.91,1.9054,376.9119],
    [932,1532794760,56.9625,-111.6106,1452.9,1131.7,131.7,3.1,1.4,16.69,44.97,1.9051,377.7181],
    [933,1532794761,56.9622,-111.6098,1450.2,1129.2,128.4,3.1,1.3,17.04,44.78,1.9053,377.9273],
    [934,1532794762,56.9618,-111.6089,1447.6,1126.6,125.2,3.0,1.3,17.12,45.34,1.9072,377.7987],
    [935,1532794763,56.9615,-111.6079,1445.0,1124.0,122.0,3.0,1.3,17.68,44.12,1.9054,378.6675],
    [936,1532794764,56.9612,-111.607,1442.4,1121.4,118.7,2.9,1.4,17.12,44.97,1.904,377.5561],
    [937,1532794765,56.961,-111.606,1439.9,1120.1,115.6,2.8,1.4,17.19,44.76,1.9043,376.7094],
    [938,1532794766,56.9608,-111.605,1437.3,1120.0,112.3,2.8,1.3,17.19,43.92,1.9051,377.6212],
    [939,1532794767,56.9606,-111.6039,1434.8,1119.2,109.2,2.8,1.3,16.74,43.92,1.9058,377.7095],
    [940,1532794768,56.9604,-111.6029,1432.3,1118.3,106.0,2.8,1.3,17.33,43.72,1.9061,377.7136],
    [941,1532794769,56.9603,-111.6018,1429.7,1114.5,102.8,2.7,1.3,17.76,43.12,1.9042,377.802],
    [942,1532794770,56.9602,-111.6008,1427.1,1111.1,99.8,2.8,1.2,17.15,43.09,1.9038,377.3252],
    [943,1532794771,56.9601,-111.5996,1424.4,1107.3,96.6,2.7,1.3,17.1,42.85,1.9044,377.3252],
    [944,1532794772,56.9601,-111.5985,1421.6,1104.6,93.5,2.7,1.2,17.55,42.67,1.904,377.9952],
    [945,1532794773,56.9601,-111.5975,1418.8,1101.8,90.3,2.7,1.2,17.47,43.2,1.905,378.6557],
    [946,1532794774,56.9601,-111.5963,1416.0,1099.0,87.0,2.7,1.1,17.73,42.19,1.9058,377.2582],
    [947,1532794775,56.9601,-111.5952,1413.2,1096.2,83.9,2.7,1.1,17.48,42.04,1.9048,378.5156],
    [948,1532794776,56.9602,-111.5942,1410.3,1093.3,80.7,2.7,1.1,17.46,42.73,1.9072,377.7108],
    [949,1532794777,56.9603,-111.5931,1407.5,1090.5,77.4,2.8,1.0,16.85,42.39,1.9062,377.4308],
    [950,1532794778,56.9605,-111.592,1404.7,1088.7,74.2,2.7,1.0,17.58,41.8,1.9051,377.4308],
    [951,1532794779,56.9607,-111.5909,1402.0,1087.5,71.1,2.7,1.0,17.4,42.28,1.9052,377.9817],
    [952,1532794780,56.9609,-111.5899,1399.2,1087.2,67.8,2.8,1.0,18.1,41.73,1.905,378.1352],
    [953,1532794781,56.9611,-111.5889,1396.6,1086.6,64.5,2.7,0.9,17.71,42.53,1.9051,377.9075],
    [954,1532794782,56.9614,-111.5879,1394.0,1083.9,61.3,2.7,1.0,17.39,42.15,1.9053,379.7314],
    [955,1532794783,56.9617,-111.5869,1391.4,1082.5,58.2,2.7,0.9,17.4,41.96,1.9046,376.9033],
    [956,1532794784,56.962,-111.586,1388.9,1079.9,55.0,2.7,0.8,17.97,41.85,1.9046,376.6364],
    [957,1532794785,56.9624,-111.5851,1386.4,1078.2,51.8,2.7,0.8,17.97,41.61,1.9066,377.2084],
    [958,1532794786,56.9628,-111.5842,1383.8,1075.8,48.6,2.7,0.9,17.74,41.92,1.9069,378.592],
    [959,1532794787,56.9632,-111.5834,1381.1,1073.1,45.6,2.6,0.9,17.57,41.55,1.9103,377.5726],
    [960,1532794788,56.9636,-111.5827,1378.4,1070.4,42.5,2.6,1.0,18.07,41.3,1.9108,377.7733],
    [961,1532794789,56.964,-111.5819,1375.6,1067.6,39.3,2.5,1.1,17.82,42.06,1.9091,379.0708],
    [962,1532794790,56.9645,-111.5812,1372.9,1065.9,36.2,2.6,1.1,17.28,41.9,1.9093,379.0708],
    [963,1532794791,56.965,-111.5806,1370.0,1061.4,33.0,2.5,1.1,17.65,42.27,1.9083,378.7769],
    [964,1532794792,56.9655,-111.58,1367.2,1056.9,29.9,2.5,1.2,18.24,41.94,1.9093,378.4108],
    [965,1532794793,56.966,-111.5795,1364.3,1052.3,26.7,2.6,1.2,17.79,42.54,1.91,377.555],
    [966,1532794794,56.9666,-111.579,1361.4,1048.8,23.5,2.6,1.2,17.84,43.15,1.9103,377.4215],
    [967,1532794795,56.9671,-111.5785,1358.6,1045.6,20.3,2.6,1.3,17.95,43.77,1.9107,377.1119],
    [968,1532794796,56.9677,-111.5781,1355.8,1042.8,17.1,2.6,1.4,18.23,42.85,1.9119,376.6369],
    [969,1532794797,56.9682,-111.5778,1353.0,1040.0,14.0,2.5,1.4,17.75,43.72,1.9117,376.4549],
    [970,1532794798,56.9688,-111.5776,1350.3,1036.3,10.7,2.6,1.5,18.09,43.91,1.9114,377.5585],
    [971,1532794799,56.9694,-111.5773,1347.6,1033.6,7.6,2.7,1.5,17.75,45.09,1.9125,378.0064],
    [972,1532794800,56.97,-111.5772,1344.9,1030.6,4.7,2.9,1.6,18.06,45.23,1.9111,376.4024],
    [973,1532794801,56.9706,-111.5771,1342.4,1027.4,362.1,2.9,1.7,17.51,44.95,1.9109,376.6042],
    [974,1532794802,56.9712,-111.577,1340.2,1025.2,360.1,2.9,1.8,17.49,45.19,1.9121,376.4146],
    [975,1532794803,56.9718,-111.577,1337.9,1022.9,358.4,2.9,1.8,17.94,45.44,1.9099,376.2439],
    [976,1532794804,56.9724,-111.577,1335.5,1021.6,357.1,2.9,1.8,18.59,45.15,1.9093,376.2439],
    [977,1532794805,56.9729,-111.577,1333.2,1019.2,356.2,2.9,1.8,17.48,45.53,1.9103,376.0341],
    [978,1532794806,56.9735,-111.577,1330.7,1017.7,355.6,2.8,1.8,18.48,45.64,1.9102,377.7541],
    [979,1532794807,56.9741,-111.5771,1328.3,1015.6,355.4,2.7,1.9,18.96,45.35,1.9105,376.3806],
    [980,1532794808,56.9747,-111.5771,1325.8,1013.8,355.3,2.6,1.8,17.76,45.46,1.9102,375.8025],
    [981,1532794809,56.9753,-111.5772,1323.3,1011.3,355.3,2.6,1.8,17.7,45.63,1.9101,375.3032],
    [982,1532794810,56.9759,-111.5772,1320.8,1008.8,355.4,2.6,1.8,18.2,46.35,1.9104,376.1383],
    [983,1532794811,56.9765,-111.5772,1318.2,1006.2,355.4,2.6,1.8,18.22,46.39,1.9101,376.3644],
    [984,1532794812,56.9771,-111.5773,1315.7,1003.7,355.5,2.6,1.8,18.06,45.67,1.9119,376.752],
    [985,1532794813,56.9777,-111.5773,1313.1,1000.1,355.7,2.6,1.9,18.3,46.03,1.9095,376.752],
    [986,1532794814,56.9782,-111.5774,1310.4,997.4,355.7,2.6,1.9,18.21,45.54,1.9117,377.1424],
    [987,1532794815,56.9788,-111.5774,1307.8,993.8,355.9,2.6,1.9,18.35,45.44,1.9108,374.7685],
    [988,1532794816,56.9794,-111.5774,1305.1,991.1,356.0,2.6,1.9,17.98,45.19,1.909,376.0385],
    [989,1532794817,56.98,-111.5775,1302.4,987.4,356.2,2.5,1.9,18.15,44.93,1.907,375.9203],
    [990,1532794818,56.9806,-111.5775,1299.8,984.7,356.3,2.5,2.0,17.87,45.24,1.9104,376.2797],
    [991,1532794819,56.9812,-111.5775,1297.2,981.2,356.5,2.4,2.0,18.22,44.87,1.9091,376.7268],
    [992,1532794820,56.9818,-111.5775,1294.6,978.6,356.5,2.1,2.0,18.34,44.63,1.9097,375.8222],
    [993,1532794821,56.9824,-111.5776,1292.1,975.7,355.9,2.1,2.0,18.79,44.43,1.9084,376.0311],
    [994,1532794822,56.983,-111.5776,1289.5,973.5,354.4,2.1,2.0,17.88,44.48,1.9078,377.4072],
    [995,1532794823,56.9836,-111.5777,1286.9,971.3,352.4,2.1,2.0,18.06,44.27,1.9078,376.9327],
    [996,1532794824,56.9842,-111.5778,1284.0,969.0,349.7,2.2,2.1,18.41,44.05,1.9088,377.2464],
    [997,1532794825,56.9847,-111.578,1281.0,967.3,346.4,2.5,2.2,18.94,43.34,1.9098,377.2819],
    [998,1532794826,56.9853,-111.5782,1278.0,966.0,343.1,2.6,2.2,18.28,43.88,1.9116,377.061],
    [999,1532794827,56.9859,-111.5785,1275.1,964.9,339.6,2.7,2.3,18.49,43.82,1.9112,377.061],
    [1000,1532794828,56.9864,-111.5789,1272.5,962.5,336.2,2.8,2.4,18.48,44.33,1.9126,376.8776],
    [1001,1532794829,56.987,-111.5793,1269.9,959.9,332.9,2.8,2.4,18.49,44.69,1.9109,376.6003],
    [1002,1532794830,56.9875,-111.5798,1267.5,958.5,329.7,2.8,2.5,18.17,44.71,1.9111,376.852],
    [1003,1532794831,56.988,-111.5803,1265.1,956.1,326.4,2.9,2.5,18.43,45.65,1.9103,376.3846],
    [1004,1532794832,56.9885,-111.5808,1262.7,953.7,323.3,3.0,2.5,18.42,45.14,1.9103,376.5706],
    [1005,1532794833,56.989,-111.5814,1260.3,951.3,320.1,3.1,2.6,19.06,44.86,1.9119,375.7149],
    [1006,1532794834,56.9894,-111.5821,1257.7,948.7,317.0,3.1,2.6,18.23,45.91,1.9123,376.2077],
    [1007,1532794835,56.9899,-111.5828,1255.0,947.0,313.9,3.3,2.5,18.45,46.14,1.9121,376.2634],
    [1008,1532794836,56.9903,-111.5835,1252.3,944.3,310.7,3.3,2.5,19.5,45.86,1.9131,375.8447],
    [1009,1532794837,56.9906,-111.5843,1249.6,942.6,307.5,3.4,2.5,19.24,46.0,1.913,376.313],
    [1010,1532794838,56.991,-111.5851,1246.8,939.8,304.1,3.5,2.7,19.03,46.19,1.9124,376.5072],
    [1011,1532794839,56.9913,-111.5859,1244.1,937.1,301.0,3.3,2.5,18.72,46.58,1.9108,375.5694],
    [1012,1532794840,56.9916,-111.5868,1241.5,933.6,297.9,3.4,2.5,18.75,46.99,1.9114,375.7883],
    [1013,1532794841,56.9919,-111.5876,1238.8,930.3,294.6,3.4,2.7,18.27,46.8,1.9105,375.5158],
    [1014,1532794842,56.9922,-111.5886,1236.0,927.0,291.5,3.3,2.7,18.85,47.55,1.9107,376.3024],
    [1015,1532794843,56.9924,-111.5895,1233.3,924.3,288.4,3.3,2.6,19.02,46.62,1.912,376.0728],
    [1016,1532794844,56.9926,-111.5905,1230.5,921.5,285.1,3.4,2.8,18.36,47.17,1.9125,376.3815],
    [1017,1532794845,56.9927,-111.5914,1227.7,919.0,281.9,3.4,2.7,18.92,46.94,1.9107,376.3815],
    [1018,1532794846,56.9929,-111.5924,1224.9,915.9,278.6,3.5,2.9,18.93,47.4,1.9115,375.4249],
    [1019,1532794847,56.993,-111.5934,1222.0,913.0,275.4,3.6,2.8,19.58,46.3,1.9103,376.5018],
    [1020,1532794848,56.993,-111.5944,1219.3,910.3,272.3,3.7,2.9,19.05,46.52,1.9102,375.4913],
    [1021,1532794849,56.9931,-111.5954,1216.7,907.3,269.1,3.7,2.9,18.75,46.62,1.9112,375.3365],
    [1022,1532794850,56.9931,-111.5964,1214.0,905.7,265.9,3.6,2.9,18.65,46.73,1.9119,375.3746],
    [1023,1532794851,56.993,-111.5974,1211.5,903.5,262.5,3.6,3.1,19.15,46.62,1.9123,375.8301],
    [1024,1532794852,56.993,-111.5984,1209.0,901.0,259.4,3.6,2.9,18.92,46.94,1.9104,375.1671],
    [1025,1532794853,56.9929,-111.5994,1206.4,898.4,256.2,3.6,3.0,19.36,46.71,1.9134,375.61],
    [1026,1532794854,56.9927,-111.6003,1203.8,896.1,253.1,3.7,2.9,19.56,46.37,1.9126,374.987],
    [1027,1532794855,56.9926,-111.6013,1201.0,893.0,249.7,3.7,3.1,19.31,47.15,1.912,374.9672],
    [1028,1532794856,56.9924,-111.6022,1198.4,890.3,246.5,3.6,3.0,18.37,46.91,1.9104,375.8005],
    [1029,1532794857,56.9922,-111.6031,1195.7,888.7,243.6,3.6,2.8,19.27,46.61,1.9112,376.445],
    [1030,1532794858,56.9919,-111.604,1193.1,886.1,240.3,3.5,2.9,18.43,46.69,1.9134,374.5174],
    [1031,1532794859,56.9917,-111.6048,1190.5,883.5,237.1,3.6,2.8,19.37,46.8,1.9136,376.4192],
    [1032,1532794860,56.9914,-111.6056,1187.9,880.9,233.9,3.7,3.0,19.03,46.81,1.9121,376.468],
    [1033,1532794861,56.991,-111.6064,1185.2,878.4,230.6,3.6,3.1,19.21,46.68,1.9121,374.5203],
    [1034,1532794862,56.9907,-111.6072,1182.6,875.6,227.4,3.6,3.0,18.61,46.91,1.9121,375.7775],
    [1035,1532794863,56.9903,-111.6079,1180.0,873.0,224.4,3.8,2.8,19.43,46.57,1.9119,376.2035],
    [1036,1532794864,56.9899,-111.6085,1177.5,870.5,221.2,3.8,2.9,19.28,47.65,1.9141,375.8622],
    [1037,1532794865,56.9895,-111.6091,1175.1,868.1,218.0,3.7,2.9,19.23,47.2,1.9136,375.0779],
    [1038,1532794866,56.989,-111.6097,1172.6,865.6,215.0,3.8,2.8,19.78,46.27,1.9135,376.5171],
    [1039,1532794867,56.9886,-111.6102,1170.2,863.2,211.8,3.8,2.8,18.96,46.82,1.9123,376.0425],
    [1040,1532794868,56.9881,-111.6107,1167.6,860.6,208.7,3.7,2.8,19.19,46.88,1.9134,374.8538],
    [1041,1532794869,56.9876,-111.6111,1165.0,858.0,205.5,3.7,2.8,18.7,46.81,1.9122,376.1364],
    [1042,1532794870,56.9871,-111.6115,1162.4,855.4,202.2,3.6,2.9,19.37,47.13,1.9128,374.7982],
    [1043,1532794871,56.9866,-111.6118,1159.7,852.7,199.2,3.7,2.8,19.37,47.17,1.9132,375.7441],
    [1044,1532794872,56.9861,-111.612,1157.1,849.8,196.1,3.7,2.7,19.47,46.58,1.9128,375.502],
    [1045,1532794873,56.9855,-111.6123,1154.4,847.4,192.8,3.5,2.7,19.21,46.78,1.9126,374.8274],
    [1046,1532794874,56.985,-111.6124,1151.8,845.6,189.5,3.2,2.6,19.38,46.44,1.9107,374.824],
    [1047,1532794875,56.9844,-111.6125,1149.3,843.3,186.8,3.2,2.6,19.37,46.56,1.9119,374.8549],
    [1048,1532794876,56.9839,-111.6125,1146.9,840.9,184.6,3.3,2.5,19.45,46.48,1.9137,376.2793],
    [1049,1532794877,56.9833,-111.6126,1144.6,838.4,182.9,3.4,2.5,19.3,46.88,1.9113,376.5476],
    [1050,1532794878,56.9828,-111.6125,1142.3,835.3,181.4,3.4,2.6,19.52,46.63,1.9116,375.9759],
    [1051,1532794879,56.9822,-111.6125,1139.8,831.8,180.2,3.4,2.6,19.82,46.27,1.9122,375.502],
    [1052,1532794880,56.9817,-111.6124,1137.3,829.3,179.3,3.5,2.7,19.47,46.37,1.912,376.8004],
    [1053,1532794881,56.9811,-111.6124,1134.7,826.8,178.7,3.6,2.7,19.22,46.41,1.9118,376.6452],
    [1054,1532794882,56.9806,-111.6123,1132.0,823.3,178.3,3.8,2.7,20.21,45.83,1.9125,376.2137],
    [1055,1532794883,56.98,-111.6122,1129.2,820.2,178.1,3.7,2.8,19.36,46.68,1.9133,376.6321],
    [1056,1532794884,56.9795,-111.6121,1126.2,817.2,177.9,3.8,2.7,20.0,46.12,1.9135,377.0802],
    [1057,1532794885,56.979,-111.612,1123.4,813.7,177.9,3.9,2.7,19.66,46.31,1.9132,376.3085],
    [1058,1532794886,56.9784,-111.6119,1120.7,810.7,177.9,3.9,2.7,19.56,46.14,1.9116,376.9181],
    [1059,1532794887,56.9779,-111.6118,1118.1,808.1,177.7,3.9,2.6,19.68,45.59,1.9115,376.7147],
    [1060,1532794888,56.9773,-111.6117,1115.6,805.6,177.6,3.8,2.6,19.18,45.94,1.9114,376.7021],
    [1061,1532794889,56.9768,-111.6115,1113.0,803.0,177.5,3.8,2.6,19.76,46.22,1.9117,376.4657],
    [1062,1532794890,56.9762,-111.6114,1110.5,800.2,177.5,3.9,2.6,19.58,45.95,1.913,375.7907],
    [1063,1532794891,56.9757,-111.6113,1108.0,798.0,177.5,3.9,2.6,19.48,45.75,1.9132,376.6911],
    [1064,1532794892,56.9751,-111.6112,1105.3,795.3,177.4,3.9,2.6,19.79,45.73,1.9127,375.3312],
    [1065,1532794893,56.9746,-111.6111,1102.7,793.8,177.5,4.0,2.6,20.23,45.55,1.9125,376.2069],
    [1066,1532794894,56.974,-111.611,1100.0,791.0,177.6,4.1,2.7,19.98,45.82,1.9143,376.0959],
    [1067,1532794895,56.9735,-111.6109,1097.3,787.4,177.7,4.1,2.8,19.93,46.5,1.9145,375.8626],
    [1068,1532794896,56.9729,-111.6108,1094.5,784.5,177.8,4.2,2.8,19.37,46.36,1.9151,376.2834],
    [1069,1532794897,56.9724,-111.6107,1091.8,780.9,177.9,4.3,2.8,19.98,46.3,1.9141,376.2834],
    [1070,1532794898,56.9719,-111.6106,1089.0,776.7,178.0,4.5,2.8,19.78,46.32,1.9142,375.5086],
    [1071,1532794899,56.9713,-111.6105,1086.4,773.4,178.0,4.7,2.8,20.07,46.08,1.9141,375.9828],
    [1072,1532794900,56.9708,-111.6103,1083.8,769.7,177.7,4.9,2.8,20.05,47.0,1.9139,376.0958],
    [1073,1532794901,56.9702,-111.6102,1081.2,767.2,176.6,5.1,2.8,19.98,46.73,1.9138,376.2561],
    [1074,1532794902,56.9697,-111.61,1078.6,763.9,174.7,4.9,2.8,20.03,46.51,1.915,376.1655],
    [1075,1532794903,56.9692,-111.6098,1075.8,760.8,172.1,4.7,2.8,19.92,46.52,1.9146,375.4454],
    [1076,1532794904,56.9686,-111.6096,1072.8,757.8,169.0,4.4,2.8,20.17,46.18,1.9146,376.3708],
    [1077,1532794905,56.9681,-111.6093,1069.7,754.3,165.8,4.3,2.7,20.8,45.37,1.9134,375.2309],
    [1078,1532794906,56.9676,-111.6089,1066.7,750.6,162.3,4.2,2.6,20.34,45.83,1.9135,375.1201],
    [1079,1532794907,56.9671,-111.6085,1064.0,748.3,159.0,4.2,2.6,20.25,45.74,1.9138,375.9278],
    [1080,1532794908,56.9666,-111.6081,1061.4,746.1,155.7,4.3,2.5,20.41,45.8,1.9136,374.9895],
    [1081,1532794909,56.9661,-111.6075,1059.1,744.0,152.6,4.2,2.5,20.44,45.44,1.9137,375.7899],
    [1082,1532794910,56.9656,-111.607,1056.9,741.8,149.3,4.1,2.6,20.22,45.76,1.9131,376.6439],
    [1083,1532794911,56.9652,-111.6064,1054.7,739.4,146.3,4.1,2.7,20.3,45.73,1.9137,375.0617],
    [1084,1532794912,56.9647,-111.6057,1052.3,736.3,143.4,4.2,2.8,20.28,45.6,1.9138,374.619],
    [1085,1532794913,56.9643,-111.605,1049.8,732.7,140.3,4.1,2.8,20.32,45.65,1.9128,374.5726],
    [1086,1532794914,56.9639,-111.6043,1047.1,730.4,137.2,4.1,2.9,20.33,45.63,1.9123,374.5718],
    [1087,1532794915,56.9636,-111.6035,1044.3,728.3,134.0,4.2,2.8,20.36,46.01,1.9127,375.4635],
    [1088,1532794916,56.9632,-111.6026,1041.7,726.6,130.8,4.1,2.7,20.39,45.42,1.914,375.0743],
    [1089,1532794917,56.9629,-111.6018,1039.0,725.0,127.5,4.1,2.6,20.42,45.61,1.9136,375.359],
    [1090,1532794918,56.9626,-111.6009,1036.5,723.5,124.4,4.2,2.7,20.02,45.15,1.9127,375.7379],
    [1091,1532794919,56.9623,-111.6,1034.0,720.5,121.3,4.2,2.7,20.44,45.29,1.913,376.0236],
    [1092,1532794920,56.962,-111.599,1031.3,716.6,118.3,4.3,2.8,20.51,45.54,1.9133,376.0236],
    [1093,1532794921,56.9618,-111.598,1028.6,712.6,115.2,4.5,2.8,20.51,45.05,1.9149,375.8908],
    [1094,1532794922,56.9616,-111.597,1025.8,709.8,112.0,4.5,2.7,20.52,44.88,1.9154,374.8505],
    [1095,1532794923,56.9614,-111.596,1023.0,707.0,109.1,4.8,2.8,20.42,44.91,1.9147,375.3957],
    [1096,1532794924,56.9613,-111.5949,1020.1,703.8,105.9,5.0,2.8,20.56,45.15,1.9144,376.204],
    [1097,1532794925,56.9612,-111.5939,1017.2,701.2,102.7,5.1,2.8,21.08,45.07,1.9143,375.7718],
    [1098,1532794926,56.9611,-111.5928,1014.4,698.4,99.7,5.2,2.9,20.13,45.55,1.914,375.8262],
    [1099,1532794927,56.9611,-111.5917,1011.5,696.6,96.5,5.3,3.0,20.14,45.4,1.914,374.8963],
    [1100,1532794928,56.961,-111.5906,1008.7,695.6,93.0,5.3,2.8,20.54,45.98,1.9137,374.8963],
    [1101,1532794929,56.9611,-111.5895,1006.3,695.0,89.7,5.3,2.8,20.38,45.33,1.9142,375.2458],
    [1102,1532794930,56.9611,-111.5884,1003.9,693.1,86.5,5.1,2.8,21.35,44.65,1.9145,375.8472],
    [1103,1532794931,56.9612,-111.5873,1001.5,691.5,83.4,4.9,2.8,20.77,45.08,1.9136,373.7539],
    [1104,1532794932,56.9613,-111.5862,998.9,688.9,80.3,4.7,2.8,20.69,45.45,1.9146,374.9504],
    [1105,1532794933,56.9614,-111.5852,996.2,686.2,77.2,4.7,2.8,20.58,45.47,1.9142,376.2322],
    [1106,1532794934,56.9616,-111.5841,993.5,683.5,74.1,4.6,2.8,20.6,45.61,1.9135,375.7872],
    [1107,1532794935,56.9618,-111.5831,990.9,682.0,70.9,4.5,2.8,21.11,45.09,1.9141,375.6087],
    [1108,1532794936,56.962,-111.582,988.4,679.4,67.8,4.5,2.8,20.57,45.1,1.9139,375.3721],
    [1109,1532794937,56.9622,-111.581,985.9,676.9,64.6,4.5,2.8,21.26,44.66,1.9134,374.4998],
    [1110,1532794938,56.9625,-111.5801,983.4,674.4,61.5,4.4,2.8,20.87,45.73,1.9131,374.9653],
    [1111,1532794939,56.9628,-111.5791,980.8,670.7,58.4,4.4,2.8,20.87,45.22,1.9128,375.2338],
    [1112,1532794940,56.9631,-111.5782,978.3,667.1,55.2,4.4,2.7,21.49,44.44,1.9145,376.348],
    [1113,1532794941,56.9635,-111.5773,975.8,662.9,52.1,4.4,2.7,20.82,44.71,1.9148,375.7316],
    [1114,1532794942,56.9639,-111.5764,973.3,658.6,48.9,4.4,2.6,20.76,45.42,1.9144,375.0548],
    [1115,1532794943,56.9643,-111.5756,970.9,654.9,45.6,4.6,2.5,20.62,44.62,1.915,374.4428],
    [1116,1532794944,56.9647,-111.5748,968.4,652.4,42.3,4.7,2.6,20.98,45.23,1.9149,374.4428],
    [1117,1532794945,56.9651,-111.5741,966.0,650.1,39.1,4.9,2.5,20.91,45.03,1.9136,374.8189],
    [1118,1532794946,56.9656,-111.5734,963.6,647.6,35.7,5.1,2.6,21.22,44.5,1.9123,375.1244],
    [1119,1532794947,56.9661,-111.5727,961.2,645.2,32.5,5.2,2.6,21.11,44.49,1.9123,375.7923],
    [1120,1532794948,56.9666,-111.5721,958.7,643.0,29.3,5.4,2.5,21.11,45.03,1.913,374.7876],
    [1121,1532794949,56.9671,-111.5716,956.1,641.1,26.1,5.5,2.5,21.23,44.06,1.9112,374.3147],
    [1122,1532794950,56.9676,-111.5711,953.4,639.4,22.9,5.6,2.6,20.56,43.88,1.9115,376.8655],
    [1123,1532794951,56.9682,-111.5706,950.7,636.7,19.6,5.7,2.6,20.94,44.05,1.9124,376.8655],
    [1124,1532794952,56.9687,-111.5702,948.0,634.0,16.4,5.8,2.6,21.07,43.39,1.9127,376.221],
    [1125,1532794953,56.9693,-111.5698,945.4,631.4,13.2,5.9,2.6,21.55,43.13,1.9116,376.0957],
    [1126,1532794954,56.9699,-111.5695,942.7,629.0,10.0,6.2,2.6,21.12,43.3,1.9118,376.092],
    [1127,1532794955,56.9705,-111.5693,940.1,627.1,7.0,6.5,2.5,21.39,42.89,1.9121,376.7971],
    [1128,1532794956,56.971,-111.5691,937.7,624.7,4.8,6.3,2.5,21.21,43.0,1.9112,376.5725],
    [1129,1532794957,56.9716,-111.5689,935.4,622.4,2.9,6.4,2.6,21.07,43.9,1.9122,376.8529],
    [1130,1532794958,56.9722,-111.5688,933.2,620.2,361.5,6.3,2.6,22.09,42.5,1.9128,376.0476],
    [1131,1532794959,56.9728,-111.5686,930.9,617.9,360.3,6.3,2.5,21.5,43.34,1.9114,376.8269],
    [1132,1532794960,56.9734,-111.5685,928.3,614.5,359.5,6.2,2.3,21.95,42.65,1.9105,377.1634],
    [1133,1532794961,56.974,-111.5685,925.2,611.2,359.0,6.2,2.2,21.56,42.83,1.9109,377.2761],
    [1134,1532794962,56.9745,-111.5684,922.1,607.1,358.7,6.2,2.3,21.5,43.21,1.91,377.3968],
    [1135,1532794963,56.9751,-111.5683,919.3,602.6,358.6,6.2,2.4,21.96,43.18,1.9094,375.4819],
    [1136,1532794964,56.9757,-111.5682,916.8,598.9,358.6,6.2,2.5,21.65,43.44,1.9095,377.5752],
    [1137,1532794965,56.9763,-111.5681,914.4,595.7,358.7,6.2,2.5,21.27,44.15,1.9108,377.7423],
    [1138,1532794966,56.9769,-111.5681,911.9,592.5,358.7,6.2,2.5,21.44,43.9,1.909,377.9093],
    [1139,1532794967,56.9775,-111.568,909.2,589.2,358.8,6.3,2.5,21.37,44.38,1.9089,377.8299],
    [1140,1532794968,56.9781,-111.5679,906.5,586.5,358.9,6.1,2.6,21.54,43.64,1.9081,378.8752],
    [1141,1532794969,56.9787,-111.5678,903.7,583.7,359.0,6.2,2.6,21.02,43.88,1.9088,376.6772],
    [1142,1532794970,56.9792,-111.5677,901.0,580.7,358.9,6.4,2.7,21.58,43.93,1.9092,376.6742],
    [1143,1532794971,56.9798,-111.5677,898.3,577.9,359.0,6.6,2.7,21.5,44.7,1.9075,377.6776],
    [1144,1532794972,56.9805,-111.5676,895.4,575.4,358.9,6.8,2.8,21.29,44.02,1.9087,378.5164],
    [1145,1532794973,56.981,-111.5675,892.7,573.4,359.0,6.9,2.8,21.51,44.17,1.9084,377.343],
    [1146,1532794974,56.9816,-111.5674,890.0,572.4,359.1,7.1,2.9,21.41,43.57,1.9072,377.6745],
    [1147,1532794975,56.9822,-111.5673,887.3,573.7,359.1,7.0,2.9,20.95,43.58,1.9082,377.7394],
    [1148,1532794976,56.9828,-111.5672,884.6,573.6,358.8,6.8,2.9,21.58,43.38,1.9083,377.394],
    [1149,1532794977,56.9834,-111.5671,881.9,572.9,357.7,6.8,2.8,21.35,44.14,1.9088,377.6161],
    [1150,1532794978,56.984,-111.567,879.2,570.2,355.8,6.9,2.7,21.05,43.64,1.9076,377.9082],
    [1151,1532794979,56.9846,-111.567,876.2,567.2,353.2,7.2,2.8,21.25,44.13,1.9065,378.0781],
    [1152,1532794980,56.9852,-111.567,873.2,564.2,350.1,7.5,2.9,21.63,44.38,1.9063,378.5464],
    [1153,1532794981,56.9857,-111.5671,870.1,561.1,346.7,7.6,2.9,21.48,44.06,1.9065,377.0665],
    [1154,1532794982,56.9863,-111.5673,867.2,558.2,343.3,7.7,3.0,21.75,44.17,1.9094,376.8335],
    [1155,1532794983,56.9869,-111.5675,864.5,555.5,340.0,7.8,3.0,21.63,43.91,1.9068,377.865],
    [1156,1532794984,56.9874,-111.5677,861.9,552.9,336.8,7.7,3.1,21.93,43.31,1.9079,378.5853],
    [1157,1532794985,56.988,-111.568,859.2,550.2,333.7,7.5,3.2,22.47,43.09,1.9093,377.1556],
    [1158,1532794986,56.9885,-111.5684,856.8,547.8,330.7,7.5,3.1,21.99,43.51,1.9092,378.204],
    [1159,1532794987,56.989,-111.5688,854.3,544.2,327.7,7.5,2.9,21.64,43.62,1.9068,377.6274],
    [1160,1532794988,56.9895,-111.5692,851.9,541.9,324.8,7.4,2.9,21.83,43.9,1.9061,377.4335],
    [1161,1532794989,56.99,-111.5697,849.2,539.0,321.3,7.7,3.0,22.22,43.14,1.9057,378.1946],
    [1162,1532794990,56.9904,-111.5703,846.5,535.5,318.2,7.6,3.1,21.76,43.97,1.9068,378.4563],
    [1163,1532794991,56.9908,-111.5709,843.6,531.9,315.2,7.6,3.0,21.75,44.26,1.905,379.0924],
    [1164,1532794992,56.9913,-111.5715,840.6,528.6,311.9,7.7,3.2,21.94,44.67,1.9052,378.1122],
    [1165,1532794993,56.9917,-111.5721,837.7,525.4,308.8,7.6,3.2,21.88,44.75,1.9064,378.1829],
    [1166,1532794994,56.992,-111.5728,834.7,521.7,305.7,7.5,3.2,21.37,44.58,1.9061,378.5615],
    [1167,1532794995,56.9924,-111.5736,831.8,518.6,302.4,7.6,3.2,21.12,45.0,1.9055,379.8774],
    [1168,1532794996,56.9927,-111.5743,829.0,515.8,299.3,7.5,3.2,22.21,45.31,1.9068,378.7989],
    [1169,1532794997,56.993,-111.5751,826.1,513.1,296.3,7.4,3.1,21.97,45.67,1.9059,378.1696],
    [1170,1532794998,56.9932,-111.5759,823.3,509.9,293.1,7.3,3.1,21.85,47.35,1.9049,378.7459],
    [1171,1532794999,56.9935,-111.5767,820.4,507.2,290.0,7.3,3.0,21.51,47.11,1.9056,378.8856],
    [1172,1532795000,56.9937,-111.5776,817.4,505.1,286.8,7.3,3.1,21.88,47.13,1.9065,378.6437],
    [1173,1532795001,56.9938,-111.5784,814.6,504.6,283.5,7.2,3.3,21.81,47.45,1.9067,377.4852],
    [1174,1532795002,56.994,-111.5794,811.6,502.0,280.1,7.1,3.3,21.89,47.72,1.907,377.2149],
    [1175,1532795003,56.9941,-111.5802,808.8,499.8,276.9,7.1,3.3,22.42,47.1,1.9071,377.0173],
    [1176,1532795004,56.9942,-111.5811,805.9,497.0,273.6,6.9,3.2,22.2,47.35,1.9067,377.6486],
    [1177,1532795005,56.9942,-111.582,803.0,494.0,270.1,6.8,3.4,22.03,47.67,1.907,377.3429],
    [1178,1532795006,56.9942,-111.5829,800.1,491.1,266.6,6.7,3.6,21.49,47.06,1.9068,377.5361],
    [1179,1532795007,56.9942,-111.5838,797.4,488.3,263.3,6.6,3.7,21.52,47.09,1.9095,377.4715],
    [1180,1532795008,56.9942,-111.5847,794.5,486.2,259.9,6.4,3.8,22.28,47.21,1.9101,375.9481],
    [1181,1532795009,56.9941,-111.5856,791.8,483.5,256.5,6.2,3.7,21.89,47.92,1.913,377.8288],
    [1182,1532795010,56.994,-111.5864,789.5,481.4,253.3,6.1,3.7,21.86,47.06,1.9149,377.7306],
    [1183,1532795011,56.9938,-111.5873,787.2,478.2,250.1,5.9,3.7,21.92,48.08,1.9163,377.7306],
    [1184,1532795012,56.9937,-111.5881,784.6,475.6,246.8,5.7,3.9,21.88,47.49,1.9218,377.6701],
    [1185,1532795013,56.9935,-111.5889,781.7,472.7,243.1,5.4,4.3,21.9,47.94,1.9298,378.0112],
    [1186,1532795014,56.9933,-111.5897,778.6,469.6,239.3,5.0,4.5,21.65,48.89,1.9314,378.8228],
    [1187,1532795015,56.993,-111.5904,775.5,466.5,235.7,4.7,4.7,21.65,48.95,1.9338,378.8514],
    [1188,1532795016,56.9927,-111.5912,772.7,464.0,232.1,4.5,4.9,21.84,50.33,1.9396,379.4006],
    [1189,1532795017,56.9924,-111.5919,770.1,462.0,228.7,4.4,4.9,22.0,50.38,1.941,379.001],
    [1190,1532795018,56.9921,-111.5925,767.6,458.6,225.6,4.3,5.0,21.7,51.65,1.9397,379.6824],
    [1191,1532795019,56.9918,-111.5931,765.1,457.1,222.2,4.2,5.1,22.2,51.43,1.9386,379.046],
    [1192,1532795020,56.9914,-111.5937,762.6,454.5,218.9,4.2,5.2,21.56,52.35,1.9376,379.8867],
    [1193,1532795021,56.991,-111.5942,760.1,453.1,215.6,4.0,5.1,21.29,52.6,1.9386,380.408],
    [1194,1532795022,56.9906,-111.5947,757.6,450.6,212.2,3.7,4.9,21.34,52.82,1.9442,379.4404],
    [1195,1532795023,56.9902,-111.5951,755.1,448.1,209.0,3.6,4.7,21.34,53.19,1.9496,381.2852],
    [1196,1532795024,56.9898,-111.5955,752.7,445.7,205.4,3.2,5.0,21.04,53.3,1.9501,381.1511],
    [1197,1532795025,56.9893,-111.5959,750.4,443.4,201.6,2.8,5.0,21.16,53.98,1.9493,379.9486],
    [1198,1532795026,56.9889,-111.5962,748.3,441.3,198.2,2.7,4.8,21.64,54.91,1.9496,380.0222],
    [1199,1532795027,56.9884,-111.5964,746.8,439.8,195.0,2.7,4.8,20.92,55.02,1.9436,380.2857],
    [1200,1532795028,56.9879,-111.5966,745.8,437.8,192.0,2.5,4.6,21.23,55.05,1.9413,378.6418],
    [1201,1532795029,56.9874,-111.5967,745.2,437.2,189.5,2.7,4.7,21.2,55.21,1.9376,378.7712],
    [1202,1532795030,56.987,-111.5968,744.7,436.7,188.1,3.3,4.9,21.25,55.37,1.9366,378.8335],
    [1203,1532795031,56.9865,-111.5969,744.1,436.2,186.2,3.0,4.8,21.18,54.68,1.9413,380.0131],
    [1204,1532795032,56.986,-111.5969,743.2,435.2,184.8,3.1,4.7,21.25,54.06,1.9415,378.362],
    [1205,1532795033,56.9855,-111.5969,742.3,434.3,183.9,3.1,4.7,21.64,54.16,1.9338,378.4347],
    [1206,1532795034,56.985,-111.5969,741.9,433.9,182.5,2.7,4.8,21.71,54.32,1.9339,378.5972],
    [1207,1532795035,56.9846,-111.5969,741.1,433.1,182.3,3.0,4.9,21.05,54.41,1.9457,379.4716],
    [1208,1532795036,56.9841,-111.5969,739.7,431.6,182.6,3.6,5.0,20.77,54.59,1.9448,380.775],
    [1209,1532795037,56.9836,-111.5969,737.8,430.6,182.2,3.3,5.2,20.7,54.9,1.9444,380.0789],
    [1210,1532795038,56.9831,-111.5969,735.4,428.4,181.4,2.8,5.1,21.36,55.29,1.9478,379.5414],
    [1211,1532795039,56.9826,-111.5969,732.7,425.7,181.4,2.8,5.0,21.68,54.65,1.9467,379.3856],
    [1212,1532795040,56.9821,-111.5968,730.1,423.1,181.1,2.4,4.9,21.08,56.02,1.9492,379.3856],
    [1213,1532795041,56.9817,-111.5968,727.7,420.7,180.9,2.4,4.9,21.07,56.39,1.9486,379.1911],
    [1214,1532795042,56.9812,-111.5968,725.3,418.3,181.7,2.9,4.6,20.95,56.53,1.9544,380.0372],
    [1215,1532795043,56.9807,-111.5968,723.0,416.0,181.6,2.7,4.9,20.46,56.46,1.9578,380.9764],
    [1216,1532795044,56.9802,-111.5968,720.8,413.8,181.2,2.3,5.4,20.63,56.6,1.957,380.9764],
    [1217,1532795045,56.9797,-111.5967,718.3,411.3,181.3,2.4,5.2,21.35,56.59,1.9638,380.3023],
    [1218,1532795046,56.9792,-111.5967,715.8,408.8,181.0,2.0,4.8,21.33,57.19,1.9651,382.8212],
    [1219,1532795047,56.9787,-111.5967,713.3,406.3,181.2,2.0,4.9,20.93,58.01,1.9583,381.2284],
    [1220,1532795048,56.9782,-111.5967,710.8,403.8,180.9,1.5,5.0,21.2,58.65,1.9621,382.9152],
    [1221,1532795049,56.9777,-111.5967,708.2,401.2,180.9,1.5,5.3,21.29,58.01,1.9632,382.5392],
    [1222,1532795050,56.9772,-111.5967,705.4,398.4,182.5,2.9,5.0,20.97,58.73,1.9578,381.3527],
    [1223,1532795051,56.9768,-111.5967,702.9,395.9,182.2,2.1,5.0,20.98,58.6,1.9545,380.9735],
    [1224,1532795052,56.9763,-111.5967,700.8,393.8,181.7,1.6,5.2,20.86,58.51,1.9591,380.8786],
    [1225,1532795053,56.9758,-111.5967,698.3,391.3,182.8,2.6,4.7,21.38,58.28,1.9539,380.752],
    [1226,1532795054,56.9753,-111.5967,695.7,388.7,183.3,2.6,4.3,20.72,58.39,1.9538,381.1575],
    [1227,1532795055,56.9748,-111.5967,693.7,386.7,182.6,2.0,4.4,20.57,58.6,1.9533,381.2424],
    [1228,1532795056,56.9743,-111.5967,691.3,384.3,182.9,2.3,4.6,20.75,58.27,1.9506,379.0033],
    [1229,1532795057,56.9738,-111.5967,688.8,381.8,182.5,2.0,4.4,20.95,57.99,1.9526,379.0033],
    [1230,1532795058,56.9733,-111.5967,686.3,379.3,182.1,2.0,4.4,21.39,57.39,1.954,380.4775],
    [1231,1532795059,56.9728,-111.5967,683.8,376.8,182.6,2.5,4.4,20.78,58.02,1.9554,380.271],
    [1232,1532795060,56.9723,-111.5967,681.4,374.4,182.3,2.3,4.5,20.41,57.93,1.9581,381.3231],
    [1233,1532795061,56.9718,-111.5967,679.1,371.4,181.7,1.8,4.8,20.34,57.89,1.9578,381.7839],
    [1234,1532795062,56.9713,-111.5967,676.6,367.6,181.9,2.3,5.0,20.43,57.9,1.9573,381.8029],
    [1235,1532795063,56.9708,-111.5967,674.2,364.7,181.8,3.0,5.2,20.8,58.16,1.9578,381.3715],
    [1236,1532795064,56.9702,-111.5967,671.7,361.7,180.4,2.9,5.1,20.68,58.16,1.9571,380.8445],
    [1237,1532795065,56.9698,-111.5967,669.3,359.3,178.2,2.6,5.1,20.68,58.43,1.9579,381.2267],
    [1238,1532795066,56.9692,-111.5966,666.7,356.4,175.6,2.4,5.1,20.6,58.04,1.9581,380.3042],
    [1239,1532795067,56.9687,-111.5964,663.9,353.5,172.6,2.3,4.9,20.5,58.18,1.9567,379.6448],
    [1240,1532795068,56.9682,-111.5962,660.7,350.7,169.4,2.1,4.8,20.54,58.21,1.9549,379.8568],
    [1241,1532795069,56.9677,-111.596,657.8,348.1,166.3,2.2,4.7,20.88,58.31,1.9545,380.8398],
    [1242,1532795070,56.9673,-111.5957,654.9,345.9,163.4,2.5,4.9,20.88,58.04,1.9557,381.159],
    [1243,1532795071,56.9668,-111.5953,652.1,343.1,160.1,2.3,4.5,20.26,57.93,1.9572,380.8443],
    [1244,1532795072,56.9663,-111.5949,649.6,340.6,156.9,2.3,4.2,20.65,58.38,1.962,381.3137],
    [1245,1532795073,56.9658,-111.5945,647.4,338.4,153.8,2.3,4.4,20.81,57.67,1.9715,384.6119],
    [1246,1532795074,56.9654,-111.5939,645.1,336.1,150.4,1.7,4.6,20.74,57.98,1.9792,384.8011],
    [1247,1532795075,56.965,-111.5934,642.7,333.0,146.5,0.6,4.3,20.91,58.49,1.9768,383.2669],
    [1248,1532795076,56.9645,-111.5928,639.7,329.7,143.1,0.3,3.9,20.76,59.23,1.9744,382.7733],
    [1249,1532795077,56.9642,-111.5922,637.3,327.3,139.3,-0.1,3.4,20.92,59.73,1.9707,383.352],
    [1250,1532795078,56.9638,-111.5915,634.9,325.9,136.6,0.8,3.6,20.98,60.19,1.9692,382.5145],
    [1251,1532795079,56.9634,-111.5907,632.1,323.1,134.8,1.5,4.4,21.18,59.86,1.9671,382.3266],
    [1252,1532795080,56.9631,-111.59,629.3,320.3,130.9,0.7,3.9,21.35,59.46,1.9652,382.6268],
    [1253,1532795081,56.9628,-111.5892,626.5,317.5,127.9,1.0,3.9,21.2,59.41,1.9635,381.0496],
    [1254,1532795082,56.9625,-111.5884,623.4,314.4,125.5,1.5,4.5,21.09,59.07,1.9596,381.1132],
    [1255,1532795083,56.9622,-111.5875,620.4,311.4,122.4,1.0,4.8,21.16,58.79,1.9602,381.7164],
    [1256,1532795084,56.962,-111.5866,617.7,308.7,118.4,0.6,4.0,20.82,59.41,1.9602,381.7265],
    [1257,1532795085,56.9617,-111.5857,615.2,306.2,115.2,1.2,3.8,20.85,58.53,1.9628,382.3761],
    [1258,1532795086,56.9616,-111.5847,612.7,302.7,112.3,1.1,4.0,20.9,58.26,1.9628,382.8838],
    [1259,1532795087,56.9614,-111.5838,610.1,300.1,109.0,0.7,3.6,20.77,58.25,1.9613,382.1108],
    [1260,1532795088,56.9613,-111.5828,607.2,297.2,106.2,0.8,3.7,21.02,57.85,1.9619,382.3419],
    [1261,1532795089,56.9611,-111.5818,604.4,295.4,103.4,0.8,4.0,20.81,57.95,1.9652,382.2524],
    [1262,1532795090,56.9611,-111.5808,601.8,292.8,100.0,0.7,3.7,20.79,58.16,1.9615,381.7158],
    [1263,1532795091,56.961,-111.5798,598.9,289.9,97.1,0.9,3.9,20.72,58.22,1.9666,382.446],
    [1264,1532795092,56.961,-111.5787,596.2,286.2,93.7,0.7,3.7,21.0,58.87,1.9731,383.4687],
    [1265,1532795093,56.961,-111.5777,593.4,282.4,90.1,0.6,3.5,21.09,58.12,1.9756,383.4066],
    [1266,1532795094,56.9611,-111.5767,590.6,279.6,87.5,0.5,4.1,20.85,59.28,1.9743,384.8199],
    [1267,1532795095,56.9611,-111.5757,587.8,275.1,83.9,0.3,3.7,20.89,59.27,1.9738,382.9675],
    [1268,1532795096,56.9613,-111.5747,585.5,271.5,79.8,0.4,3.1,21.03,59.29,1.9733,383.314],
    [1269,1532795097,56.9614,-111.5737,582.9,266.8,77.1,0.9,3.5,21.36,58.65,1.9708,383.2398],
    [1270,1532795098,56.9616,-111.5727,580.2,263.2,73.7,1.0,3.6,21.55,58.97,1.9711,383.1093],
    [1271,1532795099,56.9618,-111.5717,577.6,259.6,70.1,1.0,3.4,20.93,59.26,1.9716,383.1545],
    [1272,1532795100,56.962,-111.5707,575.1,257.1,67.2,0.5,3.8,20.93,58.88,1.9725,383.7652],
    [1273,1532795101,56.9623,-111.5698,572.7,254.7,64.3,0.2,4.6,21.47,58.1,1.9768,385.2791],
    [1274,1532795102,56.9626,-111.5689,570.1,252.1,59.4,0.9,4.1,21.35,58.59,1.9783,384.938],
    [1275,1532795103,56.9629,-111.568,568.4,250.4,53.3,1.2,3.5,21.28,58.74,1.9766,384.6953],
    [1276,1532795104,56.9633,-111.5672,566.9,248.9,49.7,0.6,4.3,20.87,59.02,1.9781,384.8506],
    [1277,1532795105,56.9637,-111.5665,565.1,247.1,45.1,0.5,4.2,20.76,59.45,1.9754,384.264],
    [1278,1532795106,56.9641,-111.5658,563.4,245.4,40.7,0.0,3.8,20.82,59.15,1.9775,385.6651],
    [1279,1532795107,56.9646,-111.5652,561.4,243.4,36.5,-0.1,3.5,20.82,59.06,1.9774,386.6705],
    [1280,1532795108,56.9651,-111.5646,558.8,241.8,31.4,0.0,3.2,20.83,58.91,1.9768,385.4383],
    [1281,1532795109,56.9656,-111.5641,556.1,240.2,25.8,-0.1,3.2,21.56,58.54,1.9798,385.4383],
    [1282,1532795110,56.9662,-111.5637,553.8,237.8,20.3,-0.1,3.3,21.15,59.14,1.9758,384.4445],
    [1283,1532795111,56.9667,-111.5634,551.9,236.9,15.6,-0.9,3.6,21.22,58.52,1.9744,383.5475],
    [1284,1532795112,56.9673,-111.5632,549.5,235.5,10.3,-0.5,3.3,20.38,58.47,1.9771,385.7605],
    [1285,1532795113,56.9679,-111.5631,546.0,233.0,4.2,0.5,2.9,20.87,58.22,1.9835,386.0775],
    [1286,1532795114,56.9685,-111.563,541.4,228.4,358.7,0.6,3.2,21.09,58.46,1.9798,385.8063],
    [1287,1532795115,56.969,-111.5631,536.4,223.4,353.1,0.5,3.0,21.15,58.35,1.9815,384.426],
    [1288,1532795116,56.9696,-111.5633,531.2,218.2,348.4,0.2,2.3,21.57,57.75,1.9866,387.8306],
    [1289,1532795117,56.9702,-111.5635,525.6,212.6,343.3,1.2,2.3,21.2,58.57,1.9951,389.5361],
    [1290,1532795118,56.9708,-111.5639,519.8,205.8,338.8,1.6,2.7,21.86,58.55,1.9942,389.6837],
    [1291,1532795119,56.9713,-111.5642,515.0,201.0,336.7,0.3,3.1,21.16,59.22,1.9972,388.5597],
    [1292,1532795120,56.9719,-111.5647,510.3,195.3,335.3,-0.4,3.1,21.22,59.24,1.998,389.4498],
    [1293,1532795121,56.9725,-111.5651,506.5,191.5,334.7,-1.0,2.5,21.5,58.85,1.9976,389.2303],
    [1294,1532795122,56.973,-111.5656,503.5,187.8,333.8,-1.0,2.3,20.53,59.49,1.9972,388.1142],
    [1295,1532795123,56.9735,-111.5661,500.7,185.0,333.1,-1.1,3.0,21.46,59.06,1.998,388.1142],
    [1296,1532795124,56.9741,-111.5666,498.3,181.4,332.3,-1.1,3.5,21.08,59.68,1.9921,387.3219],
    [1297,1532795125,56.9746,-111.5671,495.9,178.9,333.0,-1.7,3.2,21.21,60.1,1.9921,388.1522],
    [1298,1532795126,56.9752,-111.5676,494.1,177.0,332.2,-1.0,3.4,21.27,59.47,1.9922,388.3234],
    [1299,1532795127,56.9757,-111.5681,492.9,175.0,332.4,-1.3,3.1,20.89,59.48,1.9928,388.1809],
    [1300,1532795128,56.9762,-111.5686,491.6,173.6,332.3,-1.2,2.9,21.24,59.52,1.9933,389.0959],
    [1301,1532795129,56.9767,-111.5691,490.8,172.4,332.0,-1.1,2.8,20.86,59.91,1.9949,389.0333],
    [1302,1532795130,56.9773,-111.5696,489.8,170.7,332.7,-1.5,2.6,21.18,59.62,1.9915,387.8329],
    [1303,1532795131,56.9778,-111.5701,489.0,169.9,332.6,-1.2,2.9,21.24,59.3,1.9961,387.7014],
    [1304,1532795132,56.9783,-111.5706,488.4,170.4,332.8,-1.3,3.2,21.94,59.14,1.9887,386.978],
    [1305,1532795133,56.9788,-111.5711,487.4,168.4,333.3,-1.3,2.9,21.29,59.36,1.9924,388.0808],
    [1306,1532795134,56.9793,-111.5716,486.6,167.6,333.7,-1.3,2.5,21.05,60.14,1.9937,388.7803],
    [1307,1532795135,56.9799,-111.572,485.2,166.2,333.9,-0.8,2.7,20.91,59.39,1.9958,389.6075],
    [1308,1532795136,56.9804,-111.5725,484.3,165.3,333.3,0.4,2.6,21.48,59.27,2.0006,389.6075],
    [1309,1532795137,56.9809,-111.5729,483.2,164.2,335.0,-0.3,1.9,21.11,60.24,2.0016,389.4995],
    [1310,1532795138,56.9814,-111.5733,482.4,163.4,335.4,0.0,2.0,20.77,60.27,2.0011,390.8578],
    [1311,1532795139,56.9819,-111.5738,482.1,163.8,336.1,-0.6,2.6,21.3,60.83,1.9995,389.2418],
    [1312,1532795140,56.9825,-111.5742,482.0,164.0,336.7,-1.5,3.7,21.2,61.24,2.0003,389.4128],
    [1313,1532795141,56.983,-111.5746,481.8,164.8,337.3,-1.9,3.5,21.6,60.59,1.9947,387.9885],
    [1314,1532795142,56.9835,-111.5749,481.1,165.7,337.0,-1.5,3.9,21.33,60.84,1.9922,387.9937],
    [1315,1532795143,56.984,-111.5753,480.0,166.4,336.2,-0.6,4.1,21.09,60.47,2.0004,388.6304],
    [1316,1532795144,56.9845,-111.5757,479.8,167.8,336.3,-0.5,3.6,21.3,60.35,1.9994,388.914],
    [1317,1532795145,56.985,-111.5761,480.8,169.3,336.9,-0.9,3.6,21.38,60.33,1.9992,387.9802],
    [1318,1532795146,56.9855,-111.5765,482.6,172.3,336.9,-1.0,3.9,21.26,60.86,1.9992,389.7568],
    [1319,1532795147,56.9859,-111.5768,484.6,175.4,337.1,-1.3,3.9,21.31,61.3,1.9934,388.5116],
    [1320,1532795148,56.9864,-111.5772,486.7,177.7,337.6,-1.6,3.6,21.28,61.31,1.9997,389.2273],
    [1321,1532795149,56.9869,-111.5776,488.8,178.8,336.5,-0.6,3.7,21.31,61.57,1.9988,388.4595],
    [1322,1532795150,56.9874,-111.5779,490.6,180.6,335.2,0.1,3.5,21.03,61.19,2.0021,388.542],
    [1323,1532795151,56.9878,-111.5783,492.2,182.5,336.3,-0.4,2.0,21.19,61.53,2.0013,388.7693],
    [1324,1532795152,56.9883,-111.5787,493.6,184.6,335.0,0.8,1.7,21.3,62.26,2.0013,388.7324],
    [1325,1532795153,56.9887,-111.579,494.4,185.4,333.9,1.5,2.2,21.16,62.05,2.0029,388.5821],
    [1326,1532795154,56.9892,-111.5794,494.8,185.8,333.9,1.3,2.0,22.03,61.55,2.0035,388.4001],
    [1327,1532795155,56.9896,-111.5798,495.3,186.3,334.8,0.8,1.2,21.19,62.18,2.0036,389.4035],
    [1328,1532795156,56.9901,-111.5801,496.1,187.1,333.9,1.6,2.0,21.37,62.4,2.0035,389.8767],
    [1329,1532795157,56.9906,-111.5805,496.6,187.6,333.3,2.0,2.2,21.26,62.6,1.9994,387.2058],
    [1330,1532795158,56.991,-111.5809,496.5,188.5,335.4,0.4,1.5,21.26,62.4,1.9944,388.1489],
    [1331,1532795159,56.9915,-111.5812,496.6,188.6,335.9,0.4,1.9,20.94,62.12,1.9941,388.0141],
    [1332,1532795160,56.992,-111.5816,497.5,189.5,335.0,1.7,2.9,21.24,61.77,1.9941,387.0977],
    [1333,1532795161,56.9924,-111.5819,498.4,190.4,335.8,1.7,2.8,21.02,61.36,1.9933,387.2933],
    [1334,1532795162,56.9929,-111.5823,499.5,191.5,337.2,1.9,2.7,21.49,61.22,1.9949,387.4484],
    [1335,1532795163,56.9934,-111.5826,500.7,191.9,339.2,2.3,2.9,21.68,60.96,1.9983,389.4669],
    [1336,1532795164,56.9939,-111.5829,501.6,192.7,343.7,1.3,2.6,20.92,61.42,1.9981,387.2765],
    [1337,1532795165,56.9944,-111.5831,502.8,193.8,349.1,0.5,2.4,21.6,61.02,1.996,387.2765],
    [1338,1532795166,56.995,-111.5832,504.4,194.7,354.0,0.3,2.3,21.11,62.04,1.997,388.6979],
    [1339,1532795167,56.9955,-111.5832,506.1,195.6,358.5,0.4,2.4,21.13,61.92,1.9969,386.7304],
    [1340,1532795168,56.996,-111.5832,507.5,194.6,2.7,0.6,2.2,21.2,61.5,1.9918,386.7378],
    [1341,1532795169,56.9966,-111.5831,508.8,193.0,7.0,0.6,2.2,21.15,61.84,1.9897,386.399],
    [1342,1532795170,56.9971,-111.583,509.9,191.6,12.3,-0.1,1.9,20.65,61.55,1.9928,388.2796],
    [1343,1532795171,56.9976,-111.5827,510.8,190.3,17.3,-0.1,1.8,20.9,61.72,1.9938,386.9973],
    [1344,1532795172,56.9981,-111.5824,511.7,190.8,21.8,0.4,2.2,21.14,61.66,1.9933,387.8398],
    [1345,1532795173,56.9986,-111.582,512.6,192.2,27.6,0.3,2.6,21.35,60.75,1.9915,388.1261],
    [1346,1532795174,56.9991,-111.5815,514.0,193.6,34.6,0.0,3.0,21.13,61.68,1.9914,388.0645],
    [1347,1532795175,56.9995,-111.5809,516.3,196.2,41.8,-0.2,3.3,21.33,60.49,1.9882,387.2636],
    [1348,1532795176,56.9999,-111.5803,518.8,198.7,48.6,-0.4,3.1,21.19,61.44,1.9868,387.1896],
    [1349,1532795177,57.0002,-111.5795,521.6,201.5,54.9,-0.3,2.9,21.6,60.45,1.9885,387.4713],
    [1350,1532795178,57.0005,-111.5787,523.9,204.0,61.8,-0.5,3.5,20.98,60.67,1.9863,387.7357],
    [1351,1532795179,57.0008,-111.5779,525.8,205.2,68.3,-0.4,3.4,21.15,60.56,1.9857,386.6951],
    [1352,1532795180,57.001,-111.577,527.6,206.7,73.6,-0.7,2.6,20.65,60.54,1.9879,387.2484],
    [1353,1532795181,57.0011,-111.5761,529.0,208.4,79.3,-1.4,2.8,21.32,60.94,2.0001,389.1555],
    [1354,1532795182,57.0012,-111.5752,530.0,209.6,85.8,-1.9,3.8,21.02,60.62,2.0055,389.3954],
    [1355,1532795183,57.0013,-111.5742,531.2,210.9,91.4,-1.5,3.7,21.86,60.88,2.0049,388.5332],
    [1356,1532795184,57.0013,-111.5733,532.9,213.8,95.1,-1.5,2.8,20.99,61.64,1.9994,388.9072],
    [1357,1532795185,57.0012,-111.5724,534.5,214.5,99.3,-1.5,3.0,21.09,61.72,1.9945,388.2554],
    [1358,1532795186,57.0011,-111.5715,536.0,214.6,102.7,-1.7,2.6,21.51,61.8,1.9915,388.2554],
    [1359,1532795187,57.001,-111.5706,536.8,213.4,105.6,-2.3,2.5,20.48,61.54,2.0007,390.3279],
    [1360,1532795188,57.0009,-111.5697,536.1,210.8,110.3,-2.3,4.2,20.43,61.47,2.0024,389.6729],
    [1361,1532795189,57.0007,-111.5688,534.8,208.0,114.8,-1.7,4.8,21.46,61.0,2.0021,389.8336],
    [1362,1532795190,57.0005,-111.5679,533.7,206.2,117.7,-2.1,4.1,21.77,61.02,1.9978,389.0657],
    [1363,1532795191,57.0003,-111.567,532.8,204.2,119.7,-2.4,3.2,21.07,61.18,1.9994,390.221],
    [1364,1532795192,57.0,-111.5661,531.1,203.4,123.2,-1.6,3.9,20.88,62.12,2.0009,390.0502],
    [1365,1532795193,56.9997,-111.5653,529.5,202.9,125.9,-1.6,4.3,21.13,61.73,1.9996,390.0502],
    [1366,1532795194,56.9994,-111.5645,528.5,204.6,127.5,-1.8,3.7,20.87,61.42,1.9962,390.5875],
    [1367,1532795195,56.9991,-111.5638,528.0,205.1,129.5,-1.9,3.4,20.81,61.28,2.0024,391.5242],
    [1368,1532795196,56.9988,-111.563,527.6,204.9,132.5,-2.2,3.1,20.94,61.96,2.0032,390.9357],
    [1369,1532795197,56.9984,-111.5623,527.5,205.0,138.1,-1.3,4.0,21.19,61.01,2.0031,390.9357],
    [1370,1532795198,56.998,-111.5617,527.4,205.2,143.1,-1.4,4.6,20.83,61.7,2.0062,391.8969],
    [1371,1532795199,56.9976,-111.5611,526.8,203.7,147.5,-1.8,4.7,20.56,62.34,2.0071,391.1474],
    [1372,1532795200,56.9971,-111.5606,525.5,202.6,153.7,-0.8,4.5,20.72,62.73,2.0047,392.7289],
    [1373,1532795201,56.9966,-111.5602,524.5,201.6,158.3,-1.8,3.4,21.17,61.58,2.004,390.8911],
    [1374,1532795202,56.9961,-111.5599,524.1,201.1,163.4,-1.6,3.5,20.58,61.92,1.9996,390.4821],
    [1375,1532795203,56.9955,-111.5596,523.5,201.5,169.8,-0.5,4.0,20.56,62.02,1.9969,389.9417],
    [1376,1532795204,56.995,-111.5595,523.4,202.1,174.7,-0.6,3.8,20.64,62.04,1.9929,389.2195],
    [1377,1532795205,56.9944,-111.5594,523.4,202.4,179.8,1.3,3.9,21.34,61.09,1.9936,388.3362],
    [1378,1532795206,56.9938,-111.5594,523.5,202.5,182.3,1.3,4.0,20.55,61.27,1.9912,388.5881],
    [1379,1532795207,56.9933,-111.5595,524.3,204.3,181.8,-0.1,4.7,21.11,60.42,1.9872,387.6308],
    [1380,1532795208,56.9927,-111.5595,524.5,204.5,182.4,0.4,4.7,21.06,60.26,1.9851,386.5134],
    [1381,1532795209,56.9921,-111.5596,524.0,204.0,181.8,-0.1,4.7,21.32,60.28,1.9829,385.5036],
    [1382,1532795210,56.9915,-111.5596,523.1,204.1,181.3,0.0,4.9,20.6,59.96,1.9867,386.2758],
    [1383,1532795211,56.9909,-111.5596,522.4,203.4,181.0,0.5,4.5,20.47,60.27,1.9835,386.2758],
    [1384,1532795212,56.9903,-111.5596,522.1,203.1,180.4,0.5,3.9,20.65,59.55,1.9805,386.734],
    [1385,1532795213,56.9897,-111.5596,522.2,203.2,179.5,0.4,3.8,21.25,59.06,1.9854,386.3466],
    [1386,1532795214,56.9892,-111.5596,522.0,203.0,179.8,1.6,3.6,20.72,59.92,1.9874,387.4979],
    [1387,1532795215,56.9886,-111.5595,521.2,203.2,178.5,0.9,3.7,20.93,59.65,1.9872,387.7931],
    [1388,1532795216,56.988,-111.5595,520.2,203.2,177.1,0.5,3.7,20.51,59.11,1.9876,387.6608],
    [1389,1532795217,56.9874,-111.5594,519.0,203.6,175.9,-0.1,3.7,20.77,59.49,1.9894,387.6608],
    [1390,1532795218,56.9868,-111.5593,518.3,205.1,174.9,-0.6,3.8,20.72,59.19,1.9897,388.0656],
    [1391,1532795219,56.9862,-111.5592,517.4,206.4,175.8,0.4,3.8,20.96,59.36,1.9884,386.664],
    [1392,1532795220,56.9857,-111.5592,516.7,207.4,175.4,-0.3,3.7,21.04,59.05,1.9868,386.4767],
    [1393,1532795221,56.9851,-111.5591,516.4,207.4,175.4,-0.5,3.6,20.52,59.05,1.9869,387.6496],
    [1394,1532795222,56.9845,-111.559,516.1,207.1,176.8,-0.3,4.0,21.24,59.05,1.9927,388.7176],
    [1395,1532795223,56.9839,-111.559,515.7,206.7,178.6,0.0,4.2,20.39,59.18,1.9977,389.1986],
    [1396,1532795224,56.9833,-111.5589,514.9,205.9,180.9,0.9,4.3,21.33,59.22,1.9958,388.3096],
    [1397,1532795225,56.9827,-111.559,513.4,204.4,181.8,0.6,4.5,21.35,59.24,1.9958,388.0437],
    [1398,1532795226,56.9821,-111.559,512.2,203.2,182.1,-0.2,4.0,21.0,59.54,1.9994,390.0729],
    [1399,1532795227,56.9815,-111.559,510.3,201.3,182.5,-0.5,4.0,21.06,60.59,1.9991,388.3965],
    [1400,1532795228,56.9809,-111.5591,507.2,195.6,182.9,-0.4,4.4,20.85,59.98,1.9959,388.1078],
    [1401,1532795229,56.9804,-111.5592,504.8,190.8,183.8,0.3,3.8,21.1,60.1,1.9974,388.4813],
    [1402,1532795230,56.9798,-111.5592,502.9,185.6,183.6,0.4,3.5,20.87,60.36,1.9986,389.2991],
    [1403,1532795231,56.9791,-111.5593,500.6,180.0,183.1,0.5,3.1,21.07,60.12,1.9955,387.8336],
    [1404,1532795232,56.9785,-111.5594,498.4,176.1,181.9,-0.4,3.1,20.56,59.96,1.9853,386.0623],
    [1405,1532795233,56.9779,-111.5594,497.6,174.6,180.8,-0.8,3.3,20.92,59.58,1.9848,386.5752],
    [1406,1532795234,56.9773,-111.5594,497.5,173.5,180.5,-0.5,3.2,20.74,59.31,1.9788,386.3745],
    [1407,1532795235,56.9767,-111.5594,497.9,173.9,180.2,0.0,3.1,21.08,58.57,1.9785,385.4382],
    [1408,1532795236,56.9761,-111.5594,498.8,174.7,179.7,0.2,3.1,21.11,58.36,1.9786,385.4146],
    [1409,1532795237,56.9755,-111.5594,499.7,175.8,179.5,0.4,3.7,21.69,57.45,1.9795,386.0705],
    [1410,1532795238,56.9749,-111.5594,500.5,176.5,179.0,0.1,3.5,21.15,57.44,1.9811,385.7303],
    [1411,1532795239,56.9742,-111.5594,501.3,177.3,178.9,-0.1,3.4,20.77,57.64,1.9783,385.4899],
    [1412,1532795240,56.9736,-111.5594,501.8,177.8,179.9,0.6,3.5,20.67,57.27,1.9804,385.5355],
    [1413,1532795241,56.973,-111.5594,502.3,178.3,180.6,0.7,3.5,21.14,57.76,1.9878,386.6078],
    [1414,1532795242,56.9724,-111.5594,503.0,179.0,180.5,0.0,3.1,20.84,57.34,1.9939,388.1443],
    [1415,1532795243,56.9718,-111.5594,503.5,180.5,181.4,0.5,2.5,21.23,57.65,1.9985,389.5293],
    [1416,1532795244,56.9712,-111.5594,504.2,182.2,181.1,-0.3,2.4,21.43,57.68,2.0002,388.3269],
    [1417,1532795245,56.9706,-111.5594,505.1,184.6,181.1,-0.4,3.6,20.9,58.31,1.9992,388.3316],
    [1418,1532795246,56.97,-111.5595,505.9,188.2,180.9,-0.7,4.6,21.11,58.85,1.9926,388.2673],
    [1419,1532795247,56.9694,-111.5595,506.1,190.1,179.8,-1.8,5.3,21.34,59.05,1.9819,386.8785],
    [1420,1532795248,56.9688,-111.5595,505.2,191.2,179.9,-1.2,5.4,21.39,58.85,1.9723,384.4795],
    [1421,1532795249,56.9682,-111.5595,504.0,191.0,180.6,-0.4,5.2,20.9,58.55,1.9733,383.9926],
    [1422,1532795250,56.9676,-111.5595,502.3,189.3,180.0,-0.4,4.6,21.43,57.91,1.9793,384.8379],
    [1423,1532795251,56.967,-111.5595,499.6,186.6,181.0,1.0,4.2,21.24,57.34,1.9768,384.8379],
    [1424,1532795252,56.9664,-111.5595,497.4,183.5,180.2,0.0,4.6,21.49,56.64,1.972,384.0833],
    [1425,1532795253,56.9658,-111.5596,496.0,181.0,180.6,0.3,4.6,21.18,56.79,1.9724,383.9622],
    [1426,1532795254,56.9652,-111.5596,495.5,179.4,180.5,-0.3,4.4,21.89,56.23,1.9685,383.4793],
    [1427,1532795255,56.9646,-111.5596,495.0,179.0,180.8,0.3,4.1,21.36,56.63,1.9672,382.8562],
    [1428,1532795256,56.964,-111.5596,494.2,177.2,181.9,1.3,3.2,21.0,56.46,1.9733,384.2648],
    [1429,1532795257,56.9634,-111.5596,493.4,175.4,181.6,0.9,3.3,21.54,55.79,1.9781,384.2648],
    [1430,1532795258,56.9628,-111.5596,492.0,174.0,182.3,1.5,3.6,21.98,55.54,1.9841,387.5725],
    [1431,1532795259,56.9622,-111.5597,490.8,172.8,181.5,0.5,4.0,21.24,56.52,1.9878,388.227],
    [1432,1532795260,56.9616,-111.5597,489.5,171.5,181.3,0.0,3.8,21.47,56.33,1.9928,389.1316],
    [1433,1532795261,56.961,-111.5597,487.8,169.8,181.4,0.1,3.4,21.15,56.77,1.9934,388.4048],
    [1434,1532795262,56.9604,-111.5597,485.2,166.1,181.4,0.1,3.9,21.65,57.65,1.9956,388.7216],
    [1435,1532795263,56.9597,-111.5598,481.9,163.6,180.6,-0.5,4.2,21.32,57.52,1.9959,388.3797],
    [1436,1532795264,56.9591,-111.5598,479.2,162.2,180.5,-0.3,3.6,21.29,57.7,1.9948,388.3797],
    [1437,1532795265,56.9585,-111.5598,476.2,160.3,179.8,-1.0,3.3,22.22,57.3,1.997,389.0433],
    [1438,1532795266,56.9579,-111.5598,473.3,157.4,180.0,-0.6,4.2,22.12,57.76,1.9904,388.6488],
    [1439,1532795267,56.9572,-111.5598,471.5,153.8,180.0,-0.6,4.6,21.09,58.4,1.986,385.5583],
    [1440,1532795268,56.9566,-111.5598,470.0,150.5,180.4,0.0,3.8,21.55,58.41,1.9769,385.5583],
    [1441,1532795269,56.956,-111.5598,468.6,148.5,180.6,-0.2,3.2,22.37,57.23,1.9744,384.6896],
    [1442,1532795270,56.9553,-111.5598,467.5,147.4,180.5,0.2,3.5,21.65,56.63,1.971,384.5288],
    [1443,1532795271,56.9547,-111.5599,465.9,145.2,181.5,1.6,3.7,21.77,55.74,1.9688,383.6055],
    [1444,1532795272,56.9541,-111.5599,464.8,143.8,180.4,0.2,3.4,21.94,55.04,1.9684,384.1225],
    [1445,1532795273,56.9535,-111.5599,464.4,143.4,180.4,0.4,3.2,21.84,54.73,1.9692,383.2737],
    [1446,1532795274,56.9528,-111.5599,463.8,142.8,181.8,1.7,2.7,21.92,54.59,1.9698,384.1817],
    [1447,1532795275,56.9522,-111.5599,463.3,143.4,181.0,0.9,2.6,21.58,54.22,1.9695,383.2032],
    [1448,1532795276,56.9516,-111.5599,462.9,142.9,180.7,0.8,2.5,21.63,54.78,1.9704,383.6754],
    [1449,1532795277,56.9509,-111.5599,462.0,142.1,180.3,0.3,2.0,22.78,53.9,1.9718,383.6754],
    [1450,1532795278,56.9503,-111.5599,461.7,142.7,179.9,0.0,1.9,22.84,53.8,1.9718,383.7954],
    [1451,1532795279,56.9497,-111.5599,462.8,144.8,180.1,0.0,1.6,21.94,54.32,1.9723,383.8402],
    [1452,1532795280,56.9491,-111.5599,464.5,146.3,179.7,-0.7,2.1,22.43,54.05,1.9717,384.0729],
    [1453,1532795281,56.9485,-111.5599,465.6,148.6,179.9,-0.5,3.2,22.22,54.89,1.9736,383.7627],
    [1454,1532795282,56.9478,-111.5599,466.9,149.9,180.2,-0.3,3.3,22.39,53.9,1.97,382.9493],
    [1455,1532795283,56.9472,-111.5599,467.5,151.6,179.4,-1.0,2.8,21.77,53.97,1.9692,383.1274],
    [1456,1532795284,56.9466,-111.5599,467.9,151.9,180.0,-0.4,3.6,22.46,53.49,1.9687,382.5439],
    [1457,1532795285,56.946,-111.5599,468.4,152.4,180.7,0.5,4.3,22.97,53.01,1.9691,383.8358],
    [1458,1532795286,56.9454,-111.5599,468.6,152.9,180.1,-0.1,3.9,22.31,53.28,1.9682,383.6262],
    [1459,1532795287,56.9448,-111.5599,468.5,153.5,179.3,-0.3,3.7,22.29,53.81,1.9664,383.6328],
    [1460,1532795288,56.9442,-111.5599,468.7,153.7,180.0,0.5,4.2,22.18,53.39,1.9665,383.0989],
    [1461,1532795289,56.9436,-111.5599,469.4,154.4,179.6,0.0,3.8,23.13,53.05,1.9644,382.7825],
    [1462,1532795290,56.943,-111.5599,470.1,155.1,180.2,0.6,3.8,22.1,53.24,1.9648,382.2468],
    [1463,1532795291,56.9424,-111.5599,470.4,155.4,180.7,0.9,3.7,22.65,52.45,1.9674,383.6512],
    [1464,1532795292,56.9418,-111.5599,471.0,156.0,180.6,0.8,3.3,22.24,53.0,1.969,383.9183],
    [1465,1532795293,56.9412,-111.5599,471.5,156.5,180.7,1.0,3.0,22.52,53.2,1.9698,384.5453],
    [1466,1532795294,56.9406,-111.5599,472.3,157.3,180.5,0.8,3.0,22.75,52.8,1.9692,383.351],
    [1467,1532795295,56.94,-111.5599,473.4,158.4,180.9,1.3,3.0,22.33,53.95,1.9698,384.1727],
    [1468,1532795296,56.9394,-111.5599,473.9,158.9,180.1,0.3,2.9,22.58,53.16,1.9696,384.1932],
    [1469,1532795297,56.9389,-111.5599,473.5,158.5,179.2,-0.4,2.7,22.51,53.85,1.9685,383.9495],
    [1470,1532795298,56.9383,-111.5599,472.8,156.8,180.6,1.0,2.3,22.29,53.06,1.9697,384.0236],
    [1471,1532795299,56.9377,-111.5599,472.3,156.3,180.5,0.6,2.8,22.46,53.48,1.9689,383.9216],
    [1472,1532795300,56.9371,-111.5599,471.8,155.8,180.5,0.6,3.7,22.48,53.37,1.9679,383.9216],
    [1473,1532795301,56.9365,-111.5599,471.5,155.5,180.4,0.4,4.2,22.43,53.5,1.9699,384.4993],
    [1474,1532795302,56.936,-111.5599,471.7,155.7,179.5,-0.3,4.0,22.61,53.45,1.9694,384.1247],
    [1475,1532795303,56.9354,-111.5599,472.2,155.9,179.6,-0.2,3.3,22.52,53.68,1.9676,384.0294],
    [1476,1532795304,56.9348,-111.5599,472.8,155.6,178.5,-1.3,3.3,22.81,53.02,1.9661,384.6127],
    [1477,1532795305,56.9342,-111.5598,472.8,155.8,179.8,0.3,3.9,22.58,53.17,1.9655,384.3393],
    [1478,1532795306,56.9337,-111.5598,472.0,155.0,180.9,1.4,4.1,22.43,52.7,1.9677,383.4478],
    [1479,1532795307,56.9331,-111.5598,471.6,153.5,179.6,-0.1,3.5,23.07,52.45,1.9659,383.4478],
    [1480,1532795308,56.9325,-111.5598,471.4,152.3,179.8,0.2,3.4,22.55,53.09,1.9654,384.2474],
    [1481,1532795309,56.9319,-111.5598,471.7,152.7,180.0,0.4,3.7,22.65,52.56,1.9667,383.5567],
    [1482,1532795310,56.9313,-111.5598,471.3,151.2,181.4,2.0,3.7,22.84,52.76,1.9675,384.359],
    [1483,1532795311,56.9308,-111.5598,470.7,150.7,180.9,1.0,3.5,23.19,52.39,1.9675,384.359],
    [1484,1532795312,56.9302,-111.5598,470.9,150.9,179.2,-0.9,3.4,22.34,52.71,1.9672,384.2601],
    [1485,1532795313,56.9296,-111.5598,471.0,150.0,179.2,-0.8,3.5,22.08,53.03,1.9676,383.6456],
    [1486,1532795314,56.9291,-111.5598,470.8,149.8,180.1,0.2,3.3,22.41,53.18,1.9687,383.6968],
    [1487,1532795315,56.9285,-111.5598,470.5,149.5,180.3,0.1,2.7,22.8,52.39,1.9675,384.9311],
    [1488,1532795316,56.9279,-111.5598,470.5,149.2,178.9,-1.5,2.6,22.51,53.06,1.9673,383.2253],
    [1489,1532795317,56.9274,-111.5598,470.6,148.6,178.7,-1.2,2.9,22.39,53.57,1.9686,383.0198],
    [1490,1532795318,56.9268,-111.5598,470.0,148.0,180.2,0.5,3.0,22.21,52.86,1.9667,384.0136],
    [1491,1532795319,56.9262,-111.5598,469.0,146.9,179.2,-0.3,2.1,22.41,52.7,1.9672,383.5376],
    [1492,1532795320,56.9257,-111.5598,468.2,146.9,179.0,-0.1,1.9,22.44,52.94,1.9673,382.9231],
    [1493,1532795321,56.9251,-111.5598,467.8,146.9,179.1,-0.3,2.6,22.27,52.99,1.9674,383.2335],
    [1494,1532795322,56.9245,-111.5598,468.1,147.1,178.6,-0.7,3.2,22.92,52.64,1.9676,383.6878],
    [1495,1532795323,56.924,-111.5597,469.2,148.1,179.4,0.3,2.4,23.27,52.36,1.9665,383.325],
    [1496,1532795324,56.9234,-111.5597,471.0,149.1,179.0,-0.5,2.8,22.07,52.98,1.9657,383.8598],
    [1497,1532795325,56.9229,-111.5597,473.3,150.3,176.9,-2.4,3.7,22.42,52.97,1.9653,382.1432],
    [1498,1532795326,56.9223,-111.5597,474.8,150.8,177.7,-1.1,4.3,23.06,52.84,1.965,382.1432],
    [1499,1532795327,56.9218,-111.5597,476.1,151.1,178.6,-0.1,4.2,22.66,53.54,1.9654,382.9541],
    [1500,1532795328,56.9212,-111.5596,477.2,151.2,179.1,0.4,3.7,22.57,52.97,1.9668,382.9612],
    [1501,1532795329,56.9206,-111.5596,477.7,151.7,180.0,0.9,2.9,22.62,52.75,1.9656,383.0749],
    [1502,1532795330,56.9201,-111.5596,478.2,152.2,179.4,0.1,2.8,22.56,53.21,1.9651,382.4034],
    [1503,1532795331,56.9195,-111.5596,479.0,152.0,179.5,0.3,2.8,22.5,52.65,1.9629,382.7874],
    [1504,1532795332,56.919,-111.5596,479.4,151.7,180.3,1.0,2.9,22.64,52.5,1.9638,380.9929],
    [1505,1532795333,56.9184,-111.5596,480.0,152.0,179.9,0.5,3.0,23.19,52.2,1.9654,383.2026],
    [1506,1532795334,56.9179,-111.5596,480.3,152.3,179.6,0.4,3.2,22.46,53.24,1.9662,382.2644],
    [1507,1532795335,56.9173,-111.5596,480.3,152.3,180.0,1.0,3.6,22.54,52.62,1.9639,380.6223],
    [1508,1532795336,56.9168,-111.5595,480.1,151.1,179.3,0.4,3.9,23.08,52.26,1.9641,382.7355],
    [1509,1532795337,56.9162,-111.5595,480.3,151.3,178.5,-0.1,3.5,22.46,52.24,1.9645,381.6363],
    [1510,1532795338,56.9157,-111.5595,480.6,151.6,178.6,0.4,3.3,22.57,52.64,1.9642,383.8883],
    [1511,1532795339,56.9151,-111.5595,481.5,152.5,178.7,0.5,2.9,22.09,52.62,1.9634,381.3383],
    [1512,1532795340,56.9146,-111.5594,482.8,152.8,179.4,1.3,3.1,22.55,52.58,1.9636,383.0303],
    [1513,1532795341,56.914,-111.5594,484.0,154.0,179.6,1.4,3.6,22.59,52.64,1.9676,382.38],
    [1514,1532795342,56.9135,-111.5594,485.4,155.4,179.0,0.6,3.3,23.17,52.26,1.9644,381.7242],
    [1515,1532795343,56.913,-111.5593,486.8,156.8,179.5,0.5,3.2,22.5,52.75,1.9653,381.8315],
    [1516,1532795344,56.9124,-111.5593,487.5,157.5,180.8,1.0,3.2,22.24,52.88,1.9656,380.6174],
    [1517,1532795345,56.9119,-111.5593,488.1,158.1,181.8,1.2,3.1,22.24,53.0,1.9654,382.2727],
    [1518,1532795346,56.9114,-111.5593,489.0,159.0,182.5,1.4,3.4,23.07,52.84,1.9654,382.2611],
    [1519,1532795347,56.9108,-111.5594,490.5,160.5,182.6,0.8,3.2,22.44,53.09,1.9642,382.4929],
    [1520,1532795348,56.9103,-111.5594,491.1,161.1,180.7,-1.1,3.5,22.78,52.98,1.9656,380.5752],
    [1521,1532795349,56.9098,-111.5594,490.6,160.6,180.6,-0.7,4.0,22.93,52.5,1.9658,380.8487],
    [1522,1532795350,56.9092,-111.5595,489.8,159.8,181.3,0.4,3.9,22.97,52.75,1.966,382.9294],
    [1523,1532795351,56.9087,-111.5595,489.0,159.0,181.2,0.5,3.7,22.62,52.93,1.9664,381.3743],
    [1524,1532795352,56.9082,-111.5595,489.2,159.2,180.4,0.1,3.2,23.0,52.62,1.9646,380.5115],
    [1525,1532795353,56.9076,-111.5595,489.6,159.6,180.4,0.5,3.0,23.26,52.59,1.9645,380.8586],
    [1526,1532795354,56.9071,-111.5595,490.3,159.3,179.8,-0.2,3.2,23.0,52.62,1.9653,382.2029],
    [1527,1532795355,56.9065,-111.5595,491.5,160.5,180.0,0.3,3.7,22.79,53.49,1.9649,380.6557],
    [1528,1532795356,56.906,-111.5595,492.0,161.0,181.3,1.5,3.3,22.17,53.14,1.9647,378.9132],
    [1529,1532795357,56.9055,-111.5595,492.3,161.3,180.0,0.2,3.6,23.24,52.59,1.9644,380.8952],
    [1530,1532795358,56.9049,-111.5595,492.4,160.4,178.2,-1.2,4.4,22.67,53.3,1.9625,381.8943],
    [1531,1532795359,56.9044,-111.5594,493.0,161.0,177.9,-0.7,3.8,22.08,53.18,1.9624,381.0515],
    [1532,1532795360,56.9038,-111.5594,493.8,161.8,178.9,0.3,3.3,22.44,52.84,1.9638,381.0515],
    [1533,1532795361,56.9033,-111.5594,494.4,161.4,178.7,-0.2,2.9,22.71,53.48,1.9622,381.1415],
    [1534,1532795362,56.9028,-111.5594,494.1,161.1,179.3,0.7,2.8,22.62,52.57,1.963,381.0264],
    [1535,1532795363,56.9022,-111.5593,493.1,160.1,180.1,1.4,3.7,23.38,52.07,1.9637,382.0525],
    [1536,1532795364,56.9017,-111.5593,492.3,159.3,179.4,0.7,3.6,22.93,52.46,1.9629,381.3044],
    [1537,1532795365,56.9011,-111.5593,491.7,157.7,179.4,0.7,3.4,22.38,52.91,1.9616,381.1207],
    [1538,1532795366,56.9006,-111.5593,491.5,157.5,178.1,-0.5,2.9,22.99,52.83,1.9615,381.0688],
    [1539,1532795367,56.9,-111.5593,492.4,158.4,177.5,-0.9,3.0,23.24,51.92,1.9639,381.2277],
    [1540,1532795368,56.8995,-111.5592,493.2,159.2,179.6,0.8,3.7,22.9,52.46,1.9627,381.4091],
    [1541,1532795369,56.8989,-111.5592,493.0,159.0,180.1,0.9,4.2,23.32,52.17,1.9631,380.0761],
    [1542,1532795370,56.8984,-111.5592,492.6,157.6,180.3,0.8,3.1,22.59,52.9,1.9639,380.9761],
    [1543,1532795371,56.8979,-111.5592,492.5,157.5,180.3,0.6,2.5,22.41,52.86,1.9641,379.6976],
    [1544,1532795372,56.8973,-111.5592,492.4,157.4,180.5,0.5,2.6,22.57,53.16,1.9649,378.2224],
    [1545,1532795373,56.8968,-111.5592,492.7,157.7,180.8,0.4,3.5,22.65,53.44,1.9636,381.0713],
    [1546,1532795374,56.8962,-111.5592,492.7,157.7,181.0,0.2,4.3,22.1,53.27,1.963,380.969],
    [1547,1532795375,56.8957,-111.5592,493.1,158.1,180.5,-0.8,4.7,22.61,53.61,1.9616,380.1418],
    [1548,1532795376,56.8951,-111.5593,493.3,158.3,180.6,-1.0,4.4,22.43,53.05,1.9603,380.6406],
    [1549,1532795377,56.8946,-111.5593,493.5,158.5,181.2,-0.6,3.8,22.95,52.53,1.9588,381.4009],
    [1550,1532795378,56.894,-111.5593,493.7,158.7,181.2,-0.7,2.8,22.69,52.41,1.9604,380.2321],
    [1551,1532795379,56.8935,-111.5593,494.0,159.0,181.5,0.0,2.6,22.6,52.52,1.9622,380.7632],
    [1552,1532795380,56.893,-111.5594,494.1,159.1,182.5,1.4,3.0,22.02,52.52,1.9619,380.2457],
    [1553,1532795381,56.8924,-111.5594,493.8,158.8,182.3,1.3,3.9,22.84,52.7,1.9623,380.1882],
    [1554,1532795382,56.8919,-111.5594,493.4,158.4,181.2,0.1,5.2,22.94,52.3,1.9623,379.8061],
    [1555,1532795383,56.8913,-111.5594,492.9,156.9,180.8,0.0,5.0,22.76,52.6,1.9624,381.6417],
    [1556,1532795384,56.8908,-111.5594,492.1,155.4,181.2,0.4,3.8,22.73,53.02,1.9622,381.6417],
    [1557,1532795385,56.8902,-111.5595,491.2,154.2,180.6,-0.2,3.2,22.25,52.54,1.962,379.9553],
    [1558,1532795386,56.8896,-111.5595,490.7,152.7,180.2,-0.3,3.5,22.58,52.67,1.9618,379.7357],
    [1559,1532795387,56.8891,-111.5595,490.5,152.5,180.7,0.4,3.2,22.71,53.04,1.9636,379.1851],
    [1560,1532795388,56.8885,-111.5595,490.7,152.7,180.0,-0.4,3.4,23.36,52.14,1.9635,379.4769],
    [1561,1532795389,56.8879,-111.5595,491.8,152.8,178.9,-1.1,3.9,23.44,52.09,1.9633,380.4235],
    [1562,1532795390,56.8874,-111.5595,492.4,153.4,179.8,0.1,4.4,23.29,51.96,1.9648,379.4209],
    [1563,1532795391,56.8868,-111.5595,491.9,152.9,179.1,-0.4,4.6,22.32,52.76,1.9622,379.4209],
    [1564,1532795392,56.8863,-111.5595,490.5,151.5,178.2,-0.7,4.2,22.66,52.83,1.9607,380.5167],
    [1565,1532795393,56.8857,-111.5594,490.2,150.5,178.6,0.4,3.7,22.67,52.81,1.9626,380.0212],
    [1566,1532795394,56.8852,-111.5594,490.7,150.8,177.1,-0.9,3.7,22.92,52.61,1.9652,379.4865],
    [1567,1532795395,56.8846,-111.5594,490.7,149.7,177.7,0.1,3.5,22.92,53.13,1.9651,379.2533],
    [1568,1532795396,56.8841,-111.5593,490.6,148.9,179.3,1.7,3.7,23.33,52.77,1.9637,379.9107],
    [1569,1532795397,56.8835,-111.5593,491.1,149.2,179.3,1.4,3.1,22.83,52.96,1.9647,379.7023],
    [1570,1532795398,56.883,-111.5592,491.6,148.6,178.4,0.0,3.6,22.11,53.1,1.9648,379.8818],
    [1571,1532795399,56.8824,-111.5592,492.2,149.2,178.6,0.1,4.6,22.87,53.28,1.9634,379.0313],
    [1572,1532795400,56.8818,-111.5592,493.0,148.9,179.0,0.4,4.0,22.64,53.03,1.9638,379.3881],
    [1573,1532795401,56.8813,-111.5592,493.9,149.9,177.3,-1.0,2.3,22.89,52.72,1.9629,379.4129],
    [1574,1532795402,56.8807,-111.5591,494.5,150.4,177.2,-0.5,2.8,22.34,52.94,1.9628,379.0071],
    [1575,1532795403,56.8802,-111.5591,495.0,150.0,179.4,1.4,4.3,22.58,53.04,1.9615,379.3906],
    [1576,1532795404,56.8796,-111.5591,495.7,150.7,179.9,1.2,4.4,22.57,53.07,1.9617,379.3906],
    [1577,1532795405,56.8791,-111.559,497.5,152.5,180.2,1.0,3.9,23.01,53.01,1.9609,379.1842],
    [1578,1532795406,56.8785,-111.559,499.7,154.8,179.3,-0.4,4.2,22.81,52.89,1.963,380.1539],
    [1579,1532795407,56.878,-111.559,501.4,157.5,179.4,-0.2,4.0,23.04,52.28,1.9619,379.0596],
    [1580,1532795408,56.8774,-111.559,502.3,158.1,180.1,-0.1,3.5,22.69,53.49,1.9615,379.5815],
    [1581,1532795409,56.8769,-111.559,503.3,158.0,179.8,-0.4,3.6,22.33,52.86,1.9628,379.5672],
    [1582,1532795410,56.8763,-111.559,504.0,157.0,181.1,0.6,3.9,23.17,51.87,1.9636,380.2568],
    [1583,1532795411,56.8758,-111.559,505.2,157.4,180.4,-0.4,3.8,22.55,52.43,1.963,379.62],
    [1584,1532795412,56.8753,-111.5591,506.1,157.6,180.1,-0.6,4.4,23.22,52.11,1.9611,379.5177],
    [1585,1532795413,56.8747,-111.5591,506.5,157.6,180.8,0.1,4.3,22.67,52.96,1.962,379.014],
    [1586,1532795414,56.8742,-111.5591,506.6,156.5,180.6,-0.1,4.6,22.37,52.83,1.9631,378.4923],
    [1587,1532795415,56.8736,-111.5591,506.7,156.4,180.3,-0.4,5.1,22.59,52.78,1.9628,380.1012],
    [1588,1532795416,56.8731,-111.5591,506.7,155.7,180.5,0.0,4.9,23.28,52.51,1.9633,379.7562],
    [1589,1532795417,56.8726,-111.5591,506.3,154.8,180.6,0.2,4.7,22.95,53.14,1.9619,379.7562],
    [1590,1532795418,56.872,-111.5591,506.1,154.1,180.1,-0.2,5.0,22.99,52.6,1.9613,379.1761],
    [1591,1532795419,56.8715,-111.5591,505.9,152.9,180.6,0.2,4.9,23.07,52.47,1.9608,378.7626],
    [1592,1532795420,56.8709,-111.5591,505.7,151.6,182.1,1.3,3.9,23.27,52.5,1.9605,380.2701],
    [1593,1532795421,56.8703,-111.5592,505.6,151.3,182.1,1.0,3.8,22.42,52.82,1.9605,380.2701],
    [1594,1532795422,56.8698,-111.5592,505.8,151.0,181.9,0.8,3.9,22.06,52.92,1.9601,379.0628],
    [1595,1532795423,56.8693,-111.5592,506.5,150.5,181.8,1.0,3.9,22.43,52.72,1.9594,378.0332],
    [1596,1532795424,56.8687,-111.5592,507.7,151.7,181.2,0.8,3.8,22.76,52.69,1.9594,378.8178],
    [1597,1532795425,56.8682,-111.5592,509.0,152.1,180.6,0.4,3.2,22.77,53.04,1.9594,378.9069],
    [1598,1532795426,56.8677,-111.5592,510.4,153.4,180.1,0.0,3.4,22.66,52.66,1.9604,379.3675],
    [1599,1532795427,56.8671,-111.5592,512.1,155.1,179.3,-0.5,3.2,22.79,52.63,1.9602,379.3555],
    [1600,1532795428,56.8666,-111.5592,515.2,157.2,179.6,0.2,3.1,22.67,52.63,1.9597,379.1469],
    [1601,1532795429,56.8661,-111.5592,518.6,160.6,180.8,1.6,3.3,22.66,52.63,1.9597,379.6667],
    [1602,1532795430,56.8656,-111.5592,521.5,163.5,181.0,2.1,3.3,23.39,52.17,1.959,377.0395],
    [1603,1532795431,56.865,-111.5592,524.2,165.6,179.5,1.2,3.9,23.06,52.77,1.9588,378.433],
    [1604,1532795432,56.8645,-111.5591,526.2,167.2,178.6,0.9,3.7,22.62,53.18,1.9602,379.4277],
    [1605,1532795433,56.864,-111.5591,527.7,168.7,178.3,1.1,3.5,22.52,53.56,1.9594,378.1474],
    [1606,1532795434,56.8635,-111.559,528.8,168.8,177.7,0.8,3.7,23.39,52.86,1.9611,378.9153],
    [1607,1532795435,56.863,-111.559,530.8,170.8,177.2,0.5,3.8,22.74,53.29,1.9605,378.1481],
    [1608,1532795436,56.8625,-111.5589,533.1,173.1,176.2,-0.7,4.0,22.7,53.93,1.9586,378.6809],
    [1609,1532795437,56.862,-111.5589,535.7,175.7,176.4,-0.6,4.3,22.42,53.35,1.9592,378.7703],
    [1610,1532795438,56.8615,-111.5588,537.7,177.7,178.5,1.4,4.1,22.03,53.28,1.96,379.2291],
    [1611,1532795439,56.861,-111.5588,538.3,178.3,179.3,1.6,4.1,22.49,53.39,1.9586,379.1696],
    [1612,1532795440,56.8605,-111.5587,538.9,178.9,178.0,0.1,4.3,22.48,52.97,1.9577,379.1772],
    [1613,1532795441,56.86,-111.5587,539.5,179.5,178.4,0.5,4.5,22.64,53.54,1.9581,378.8643],
    [1614,1532795442,56.8595,-111.5587,540.0,180.0,178.5,0.3,4.4,23.28,52.88,1.9581,378.9361],
    [1615,1532795443,56.859,-111.5586,540.5,180.5,178.0,-0.4,4.3,22.65,53.89,1.9579,378.3033],
    [1616,1532795444,56.8585,-111.5586,540.3,179.3,178.2,-0.2,4.4,22.28,52.97,1.9595,378.6149],
    [1617,1532795445,56.8579,-111.5586,539.7,179.7,179.1,0.4,4.4,22.54,53.24,1.9578,378.8414],
    [1618,1532795446,56.8574,-111.5586,539.5,179.5,179.5,0.6,4.5,22.61,53.18,1.9576,378.6755],
    [1619,1532795447,56.8569,-111.5586,539.1,179.1,180.0,1.0,4.4,22.79,52.91,1.9592,378.3334],
    [1620,1532795448,56.8564,-111.5585,538.4,178.4,180.9,1.8,4.4,22.64,53.12,1.9587,378.5281],
    [1621,1532795449,56.8558,-111.5585,537.6,177.6,181.1,1.7,4.1,22.88,53.36,1.9587,378.5456],
    [1622,1532795450,56.8553,-111.5585,537.5,177.5,180.5,1.1,3.8,22.69,53.4,1.9603,378.2772],
    [1623,1532795451,56.8548,-111.5585,537.6,177.6,180.3,0.9,3.7,22.61,53.35,1.9608,378.1197],
    [1624,1532795452,56.8543,-111.5585,537.9,177.9,179.5,0.1,3.9,22.66,54.3,1.9616,379.6796],
    [1625,1532795453,56.8538,-111.5585,538.0,178.0,178.9,-0.4,4.4,22.51,53.87,1.9623,379.0726],
    [1626,1532795454,56.8532,-111.5585,537.8,177.8,179.4,0.4,4.6,23.02,53.2,1.9639,378.9221],
    [1627,1532795455,56.8527,-111.5585,537.5,177.5,179.4,0.5,3.9,22.43,53.97,1.964,378.606],
    [1628,1532795456,56.8522,-111.5584,537.7,177.7,178.6,-0.1,4.0,22.96,53.39,1.9637,379.4866],
    [1629,1532795457,56.8517,-111.5584,538.3,178.3,179.0,0.4,3.8,22.38,54.33,1.9628,378.3026],
    [1630,1532795458,56.8511,-111.5584,538.8,178.8,179.6,0.8,3.2,22.59,54.13,1.9628,377.8904],
    [1631,1532795459,56.8506,-111.5584,539.1,179.1,179.5,0.2,2.6,22.25,54.48,1.9616,377.977],
    [1632,1532795460,56.8501,-111.5584,539.7,178.6,180.5,0.7,2.9,22.52,54.23,1.9614,377.5101],
    [1633,1532795461,56.8495,-111.5584,540.2,179.3,181.2,0.6,3.9,22.57,54.55,1.9618,378.834],
    [1634,1532795462,56.849,-111.5584,541.2,179.2,180.0,-0.9,4.1,22.63,54.68,1.9617,379.3074],
    [1635,1532795463,56.8485,-111.5584,542.3,180.2,179.8,-1.1,4.7,22.03,54.05,1.9623,379.124],
    [1636,1532795464,56.848,-111.5584,542.6,179.9,180.3,-0.6,4.4,22.22,54.35,1.9644,379.7085],
    [1637,1532795465,56.8474,-111.5584,542.5,179.8,181.1,-0.1,3.9,22.32,54.3,1.9639,379.5957],
    [1638,1532795466,56.8469,-111.5584,542.7,179.9,181.6,0.2,2.5,23.29,53.21,1.9647,379.108],
    [1639,1532795467,56.8464,-111.5585,543.4,180.5,182.9,1.0,2.3,22.46,53.74,1.9643,378.8602],
    [1640,1532795468,56.8458,-111.5585,544.9,180.8,183.6,1.0,2.8,22.71,53.73,1.964,379.2515],
    [1641,1532795469,56.8453,-111.5586,546.4,180.7,183.1,0.0,3.4,22.27,54.17,1.964,378.2587],
    [1642,1532795470,56.8448,-111.5586,547.9,180.1,182.5,-0.5,4.0,22.54,53.95,1.9636,379.6213],
    [1643,1532795471,56.8443,-111.5587,549.0,180.0,183.3,0.6,4.3,22.79,53.71,1.9634,378.5218],
    [1644,1532795472,56.8437,-111.5587,549.4,179.4,183.3,0.8,4.6,22.75,53.69,1.9641,379.1606],
    [1645,1532795473,56.8432,-111.5588,549.8,179.9,182.6,0.3,4.1,22.88,53.65,1.9628,378.7056],
    [1646,1532795474,56.8427,-111.5588,550.5,179.5,181.3,-0.6,4.4,22.41,53.96,1.9631,378.8407],
    [1647,1532795475,56.8421,-111.5588,551.3,180.3,180.1,-1.1,4.8,22.67,54.05,1.9639,378.9958],
    [1648,1532795476,56.8416,-111.5589,551.5,179.5,181.1,0.3,4.2,22.75,54.53,1.9645,379.1928],
    [1649,1532795477,56.8411,-111.5589,551.8,178.7,181.6,1.1,3.6,23.16,54.03,1.9631,378.5552],
    [1650,1532795478,56.8406,-111.5589,552.8,179.8,181.3,1.0,3.8,22.46,54.3,1.9631,377.6376],
    [1651,1532795479,56.84,-111.5589,554.5,180.5,179.6,0.6,3.7,22.51,53.95,1.9646,378.2991],
    [1652,1532795480,56.8395,-111.5588,556.2,182.2,179.5,2.6,3.6,22.61,54.88,1.9642,378.608],
    [1653,1532795481,56.8389,-111.5588,557.6,182.6,176.2,1.7,4.6,22.62,54.08,1.9651,378.5345],
    [1654,1532795482,56.8384,-111.5586,558.9,182.8,170.6,-0.8,5.4,22.72,54.02,1.9599,378.4052],
    [1655,1532795483,56.8379,-111.5584,560.1,184.1,168.0,-0.4,5.6,22.39,54.04,1.9586,378.4277],
    [1656,1532795484,56.8373,-111.5582,560.4,183.3,166.1,0.9,5.3,22.57,54.26,1.9562,379.1902],
    [1657,1532795485,56.8368,-111.5579,559.8,182.8,161.5,-0.4,4.3,22.81,53.09,1.9569,376.7568],
    [1658,1532795486,56.8363,-111.5575,558.1,181.1,158.8,0.5,4.6,23.24,52.82,1.9585,377.9976],
    [1659,1532795487,56.8358,-111.5571,556.8,180.5,156.9,1.8,5.5,22.74,53.13,1.9602,376.5575],
    [1660,1532795488,56.8353,-111.5566,556.2,180.2,153.7,1.6,5.5,22.25,52.93,1.9596,378.4987],
    [1661,1532795489,56.8348,-111.5561,555.5,180.7,150.6,1.1,5.5,22.8,52.68,1.9599,377.6935],
    [1662,1532795490,56.8344,-111.5555,554.1,178.1,146.9,0.5,5.4,22.86,52.78,1.9586,378.0029],
    [1663,1532795491,56.8339,-111.5549,552.6,176.3,142.9,-0.1,5.3,22.28,53.6,1.9584,378.1255],
    [1664,1532795492,56.8335,-111.5542,551.1,173.9,139.2,-0.2,5.5,22.92,52.55,1.9593,378.012],
    [1665,1532795493,56.8331,-111.5534,550.0,173.1,135.2,-0.1,4.1,22.53,53.24,1.9578,376.9618],
    [1666,1532795494,56.8327,-111.5526,548.9,172.9,131.3,0.5,3.0,22.63,53.5,1.9568,378.4889],
    [1667,1532795495,56.8324,-111.5518,547.9,172.9,129.2,1.8,3.4,22.54,53.26,1.9579,378.3693],
    [1668,1532795496,56.832,-111.5509,548.7,174.7,126.5,1.5,4.2,22.54,53.41,1.9594,378.1824],
    [1669,1532795497,56.8317,-111.55,550.2,179.1,123.1,0.9,4.1,22.66,52.77,1.9583,378.0532],
    [1670,1532795498,56.8315,-111.5491,551.6,182.0,121.3,1.3,4.7,22.53,53.3,1.9578,379.2295],
    [1671,1532795499,56.8312,-111.5481,552.8,183.1,118.8,0.7,5.2,22.44,53.47,1.9589,378.0442],
    [1672,1532795500,56.831,-111.5471,552.7,183.7,116.8,0.9,5.7,22.35,53.11,1.9605,378.5626],
    [1673,1532795501,56.8308,-111.5461,552.3,184.3,112.7,1.0,4.7,22.79,52.94,1.9623,377.8319],
    [1674,1532795502,56.8306,-111.5451,552.1,185.1,109.1,0.1,4.7,22.74,53.25,1.9626,377.9295],
    [1675,1532795503,56.8305,-111.544,551.9,185.8,105.8,-1.0,4.9,22.68,53.82,1.9604,377.031],
    [1676,1532795504,56.8304,-111.543,551.9,187.9,101.8,-1.0,3.8,22.52,53.7,1.9594,378.0568],
    [1677,1532795505,56.8303,-111.5418,551.8,188.8,98.5,-0.9,3.0,22.54,54.15,1.9594,376.609],
    [1678,1532795506,56.8302,-111.5408,551.1,189.0,95.6,-1.0,2.0,22.61,53.68,1.9577,378.747],
    [1679,1532795507,56.8302,-111.5397,549.9,189.9,94.2,-0.3,2.3,22.4,53.28,1.9576,378.747],
    [1680,1532795508,56.8302,-111.5385,548.8,189.8,93.8,0.4,3.0,22.58,53.75,1.957,378.192],
    [1681,1532795509,56.8302,-111.5374,548.2,190.2,94.1,0.9,3.8,22.49,53.05,1.9572,376.816],
    [1682,1532795510,56.8302,-111.5362,547.6,190.6,93.9,0.8,3.8,22.58,53.29,1.9562,378.5948],
    [1683,1532795511,56.8302,-111.5351,547.4,190.4,92.8,0.7,3.0,22.36,52.76,1.9552,377.7583],
    [1684,1532795512,56.8301,-111.534,547.1,190.1,93.9,0.4,4.1,22.13,52.5,1.9513,376.901],
    [1685,1532795513,56.8301,-111.5329,545.9,188.9,93.9,-0.4,3.7,22.39,52.33,1.954,378.3312],
    [1686,1532795514,56.8301,-111.5317,543.8,186.8,94.4,0.2,4.1,23.19,51.57,1.9575,377.5391],
    [1687,1532795515,56.8301,-111.5306,541.5,184.5,95.2,0.7,4.6,23.44,51.76,1.9578,377.7897],
    [1688,1532795516,56.8301,-111.5294,539.7,182.7,94.2,0.5,4.0,22.04,52.32,1.9601,377.8079],
    [1689,1532795517,56.8301,-111.5283,537.9,181.9,94.7,0.0,4.6,22.86,52.46,1.9631,377.7483],
    [1690,1532795518,56.8301,-111.5272,536.1,181.1,94.1,-0.1,3.8,22.79,52.43,1.9674,379.0974],
    [1691,1532795519,56.8301,-111.526,534.1,180.0,93.3,-0.4,3.0,22.51,53.63,1.9683,379.6446],
    [1692,1532795520,56.8301,-111.5248,532.4,178.3,93.5,-0.4,3.5,22.89,53.28,1.9696,379.7271],
    [1693,1532795521,56.8301,-111.5237,531.4,178.4,93.2,0.3,3.9,22.55,53.46,1.9683,379.2145],
    [1694,1532795522,56.8301,-111.5225,530.3,177.3,92.3,0.5,3.4,22.34,53.95,1.9691,378.6084],
    [1695,1532795523,56.8301,-111.5214,528.6,176.3,92.1,0.5,3.5,22.75,53.52,1.9677,379.095],
    [1696,1532795524,56.8301,-111.5202,526.6,174.6,92.5,0.8,3.9,22.24,53.64,1.9684,380.4272],
    [1697,1532795525,56.8301,-111.519,525.5,173.5,91.8,0.1,3.1,22.65,54.37,1.9693,380.2497],
    [1698,1532795526,56.8301,-111.5179,525.3,174.0,90.8,-0.5,2.3,22.45,53.84,1.9699,379.089],
    [1699,1532795527,56.8301,-111.5167,524.6,173.7,90.4,0.1,2.5,22.37,53.77,1.9699,380.0168],
    [1700,1532795528,56.8301,-111.5156,523.0,172.7,91.8,0.7,3.9,21.96,53.89,1.9707,379.9231],
    [1701,1532795529,56.8301,-111.5144,521.8,171.8,91.2,1.2,3.1,22.2,53.72,1.9715,379.6217],
    [1702,1532795530,56.8302,-111.5133,521.1,171.1,91.4,0.9,3.5,22.6,53.94,1.9711,379.922],
    [1703,1532795531,56.8302,-111.5121,520.9,170.9,92.3,0.4,4.5,22.62,54.47,1.9699,379.8616],
    [1704,1532795532,56.8302,-111.5109,521.2,171.2,91.7,0.3,3.5,22.97,53.96,1.9705,380.9218],
    [1705,1532795533,56.8302,-111.5098,521.3,171.3,93.1,0.6,4.7,22.74,54.28,1.9712,380.9218],
    [1706,1532795534,56.8302,-111.5086,521.2,172.2,93.5,0.1,4.7,22.99,53.65,1.9693,379.3572],
    [1707,1532795535,56.8302,-111.5075,520.8,171.8,93.2,0.5,4.4,22.57,53.94,1.9691,379.9711],
    [1708,1532795536,56.8302,-111.5064,519.9,170.9,93.0,1.0,3.8,22.41,53.74,1.9688,378.6459],
    [1709,1532795537,56.8302,-111.5052,518.8,169.7,92.6,1.2,3.7,22.35,53.74,1.968,378.6459],
    [1710,1532795538,56.8302,-111.5041,517.8,168.8,93.0,0.8,4.3,22.41,53.91,1.9661,380.2081],
    [1711,1532795539,56.8302,-111.5029,517.1,168.1,92.6,0.6,4.2,23.45,53.67,1.9654,379.9179],
    [1712,1532795540,56.8302,-111.5018,516.8,168.8,93.1,0.7,4.8,22.53,54.02,1.9668,379.9179],
    [1713,1532795541,56.8303,-111.5006,516.4,168.4,92.2,0.8,4.0,22.43,53.84,1.9694,379.2101],
    [1714,1532795542,56.8303,-111.4995,515.6,167.6,93.0,0.8,4.9,22.89,53.57,1.9714,379.5241],
    [1715,1532795543,56.8303,-111.4983,514.6,166.7,93.5,1.2,5.0,22.57,53.99,1.9711,379.0717],
    [1716,1532795544,56.8303,-111.4972,513.5,165.5,93.5,1.8,4.8,22.53,54.37,1.9697,380.0937],
    [1717,1532795545,56.8303,-111.4961,512.7,164.7,93.4,1.8,4.7,22.11,54.15,1.97,380.3548],
    [1718,1532795546,56.8303,-111.4949,512.7,164.7,91.6,1.7,3.2,22.65,54.69,1.9695,378.6757],
    [1719,1532795547,56.8303,-111.4938,512.7,164.7,91.6,1.2,3.7,22.72,54.78,1.9689,378.7363],
    [1720,1532795548,56.8303,-111.4926,512.8,163.8,92.5,0.7,4.8,22.9,53.88,1.969,378.7623],
    [1721,1532795549,56.8303,-111.4915,512.9,164.5,92.6,1.0,4.8,22.39,54.51,1.9713,380.4321],
    [1722,1532795550,56.8304,-111.4904,512.6,164.6,92.4,1.3,4.6,23.07,54.32,1.9701,379.5025],
    [1723,1532795551,56.8304,-111.4892,512.0,164.0,92.5,1.0,4.3,22.54,54.13,1.9711,379.3301],
    [1724,1532795552,56.8304,-111.4881,512.1,164.1,92.3,1.2,3.8,22.61,54.31,1.9724,380.1485],
    [1725,1532795553,56.8304,-111.487,512.9,165.9,91.9,1.5,3.4,22.47,54.7,1.9757,379.2936],
    [1726,1532795554,56.8304,-111.4859,513.4,166.4,91.9,0.7,3.6,22.55,54.65,1.9756,380.3005],
    [1727,1532795555,56.8304,-111.4848,514.0,167.0,93.1,0.1,4.8,22.66,54.96,1.9763,380.3005],
    [1728,1532795556,56.8304,-111.4836,515.6,169.6,92.6,-0.1,4.1,22.53,54.7,1.984,381.9909],
    [1729,1532795557,56.8304,-111.4825,516.8,170.5,91.6,0.8,3.1,22.82,55.07,1.9829,382.1081],
    [1730,1532795558,56.8304,-111.4814,517.1,170.1,92.6,1.1,4.0,22.54,55.62,1.9806,381.0302],
    [1731,1532795559,56.8304,-111.4803,516.7,169.7,93.2,1.2,4.2,22.61,55.5,1.9794,380.5175],
    [1732,1532795560,56.8305,-111.4792,516.9,168.9,92.0,1.2,2.8,22.27,55.38,1.9788,381.3657],
    [1733,1532795561,56.8305,-111.4781,517.6,170.6,91.7,1.1,2.6,22.77,55.16,1.9767,380.0797],
    [1734,1532795562,56.8305,-111.477,517.4,170.4,92.7,1.1,3.8,22.4,55.29,1.976,381.5079],
    [1735,1532795563,56.8305,-111.4759,516.3,170.3,94.0,1.2,5.2,22.29,55.43,1.9862,383.1793],
    [1736,1532795564,56.8305,-111.4748,515.0,169.0,93.1,1.4,4.2,22.3,55.45,1.9848,383.1793],
    [1737,1532795565,56.8305,-111.4737,513.3,168.3,92.2,1.7,3.6,22.61,55.22,1.9866,382.9173],
    [1738,1532795566,56.8305,-111.4726,512.1,167.1,93.0,1.2,4.7,23.17,55.24,1.9872,382.9173],
    [1739,1532795567,56.8305,-111.4715,512.1,167.1,92.8,0.5,4.4,22.08,55.69,1.9924,382.7828],
    [1740,1532795568,56.8305,-111.4704,512.7,168.7,93.0,0.0,4.5,22.15,55.89,1.9978,385.1982],
    [1741,1532795569,56.8305,-111.4693,513.1,169.1,92.7,-0.2,4.1,22.43,56.43,1.9941,385.1982],
    [1742,1532795570,56.8305,-111.4682,512.7,168.7,93.1,-0.1,4.3,22.29,55.92,1.9875,381.8525],
    [1743,1532795571,56.8305,-111.4671,512.0,168.0,92.8,-0.1,3.6,22.52,55.73,1.9875,382.6681],
    [1744,1532795572,56.8305,-111.466,510.5,166.5,92.8,-0.1,3.7,22.82,55.77,1.9888,382.659],
    [1745,1532795573,56.8305,-111.4649,508.4,164.4,93.9,0.7,4.8,22.91,55.81,1.9865,382.0138],
    [1746,1532795574,56.8305,-111.4638,506.1,162.1,93.0,1.3,3.8,21.48,56.19,1.9857,383.2048],
    [1747,1532795575,56.8305,-111.4627,504.2,160.2,93.0,1.7,3.9,22.38,55.8,1.9837,382.4931],
    [1748,1532795576,56.8305,-111.4616,503.0,159.0,93.7,1.8,4.5,22.85,55.64,1.9801,381.6714],
    [1749,1532795577,56.8305,-111.4605,502.4,158.4,93.4,1.5,4.3,22.18,56.32,1.9816,381.6714],
    [1750,1532795578,56.8306,-111.4594,502.3,158.6,92.9,1.0,4.0,22.95,55.7,1.9794,381.5572],
    [1751,1532795579,56.8306,-111.4583,502.0,159.0,93.3,0.7,4.8,22.24,56.07,1.9843,381.8132],
    [1752,1532795580,56.8306,-111.4571,501.5,158.8,93.0,0.6,4.6,22.24,56.01,1.9849,380.5174],
    [1753,1532795581,56.8306,-111.456,501.0,159.0,92.4,1.0,4.3,22.12,55.49,1.9786,380.9676],
    [1754,1532795582,56.8306,-111.4549,500.2,159.2,92.5,1.1,4.7,21.49,55.78,1.9796,380.218],
    [1755,1532795583,56.8306,-111.4538,499.2,158.5,92.4,1.3,4.7,21.78,55.83,1.9798,380.218],
    [1756,1532795584,56.8306,-111.4527,498.2,158.3,92.4,1.4,4.6,22.15,55.59,1.9763,380.8351],
    [1757,1532795585,56.8306,-111.4516,497.5,158.5,92.3,1.0,4.5,22.47,55.22,1.9871,382.743],
    [1758,1532795586,56.8307,-111.4505,496.7,158.7,92.9,0.6,5.0,21.85,56.02,1.9917,382.9036],
    [1759,1532795587,56.8307,-111.4494,495.9,158.9,93.2,0.8,5.1,21.82,55.73,1.9944,383.2129],
    [1760,1532795588,56.8307,-111.4483,495.4,159.4,92.9,1.0,4.6,21.92,56.56,1.9861,382.3258],
    [1761,1532795589,56.8307,-111.4472,494.8,160.8,93.1,0.5,4.9,22.09,56.12,1.9937,383.7264],
    [1762,1532795590,56.8307,-111.4461,493.8,161.9,92.8,-0.5,4.6,21.59,56.2,2.0075,387.0425],
    [1763,1532795591,56.8307,-111.445,492.8,163.7,92.3,-1.2,4.4,22.1,56.54,2.0141,387.3813],
    [1764,1532795592,56.8307,-111.4439,491.5,169.5,92.0,-1.1,4.2,22.2,56.53,2.0134,388.6961],
    [1765,1532795593,56.8307,-111.4428,489.5,178.1,92.0,-1.2,4.5,22.08,57.55,2.0116,387.738],
    [1766,1532795594,56.8308,-111.4417,486.9,187.9,91.7,-1.7,4.5,21.97,57.31,2.0105,386.7785],
    [1767,1532795595,56.8308,-111.4405,483.5,197.8,90.4,-1.4,3.5,21.69,58.0,2.0108,387.2842],
    [1768,1532795596,56.8308,-111.4394,480.3,207.6,90.4,-1.6,4.2,21.76,57.66,2.0081,386.4809],
    [1769,1532795597,56.8309,-111.4383,477.1,215.4,90.6,-1.4,4.4,22.07,57.54,2.0099,386.8182],
    [1770,1532795598,56.8309,-111.4372,474.7,220.7,89.2,-1.1,2.8,21.3,57.75,2.0053,386.9038],
    [1771,1532795599,56.8309,-111.436,472.4,222.4,90.4,-1.1,3.9,21.51,57.77,2.0048,386.6413],
    [1772,1532795600,56.8309,-111.4349,470.3,222.3,92.2,-1.0,5.1,21.44,57.79,2.0017,387.5226],
    [1773,1532795601,56.831,-111.4337,468.5,221.2,92.7,0.3,4.9,21.52,57.68,1.9994,385.5168],
    [1774,1532795602,56.831,-111.4326,467.0,220.0,94.0,0.0,5.7,21.27,57.48,1.9978,385.9386],
    [1775,1532795603,56.831,-111.4314,464.8,218.7,93.4,-1.3,4.8,21.96,57.03,1.9961,386.1141],
    [1776,1532795604,56.831,-111.4303,462.2,216.6,93.3,-1.3,4.8,21.53,57.28,1.9902,384.5598],
    [1777,1532795605,56.831,-111.4292,459.5,215.4,94.1,-2.1,5.5,21.5,56.88,1.9886,384.1526],
    [1778,1532795606,56.831,-111.428,456.7,214.7,93.6,-2.3,4.8,22.44,56.11,1.989,384.3263],
    [1779,1532795607,56.831,-111.4268,453.5,212.5,92.5,-2.4,3.9,21.66,56.18,1.9899,385.6817],
    [1780,1532795608,56.831,-111.4257,449.6,209.3,92.4,-2.4,4.3,21.6,56.44,1.9843,384.054],
    [1781,1532795609,56.831,-111.4245,445.7,204.7,92.3,-1.8,4.8,21.27,55.93,1.9855,384.3938],
    [1782,1532795610,56.831,-111.4233,442.0,200.0,91.4,-1.2,4.2,21.33,55.89,1.9839,383.5309],
    [1783,1532795611,56.8311,-111.4221,438.9,195.9,91.2,-0.6,4.4,22.04,55.41,1.9831,382.6835],
    [1784,1532795612,56.8311,-111.421,436.7,192.7,91.7,-0.4,5.1,21.58,55.64,1.9809,383.3393],
    [1785,1532795613,56.8311,-111.4198,435.2,191.9,91.6,-0.6,5.2,22.0,55.37,1.9796,382.5584],
    [1786,1532795614,56.8311,-111.4186,433.8,192.8,91.5,0.0,5.3,21.41,55.41,1.98,382.9316],
    [1787,1532795615,56.8312,-111.4174,432.8,193.7,91.5,0.8,5.3,21.25,55.96,1.9812,382.233],
    [1788,1532795616,56.8312,-111.4162,432.3,194.3,91.0,1.8,4.8,21.5,56.26,1.9807,381.5492],
    [1789,1532795617,56.8312,-111.4151,432.3,194.3,90.8,2.7,4.8,21.8,55.38,1.9795,382.1664],
    [1790,1532795618,56.8313,-111.4139,432.9,194.9,90.5,4.0,4.6,21.73,56.11,1.9783,380.7682],
    [1791,1532795619,56.8313,-111.4127,436.3,197.3,89.7,4.3,4.2,21.66,56.11,1.9781,381.5902],
    [1792,1532795620,56.8314,-111.4116,442.3,203.3,89.8,3.7,4.1,21.67,55.93,1.9767,381.8931],
    [1793,1532795621,56.8314,-111.4105,449.9,209.9,90.3,3.5,3.9,21.64,56.02,1.9773,381.4196],
    [1794,1532795622,56.8314,-111.4094,457.6,207.3,91.2,3.6,4.1,21.84,55.49,1.978,381.3668],
    [1795,1532795623,56.8314,-111.4083,464.7,198.6,92.0,2.9,3.8,21.63,56.04,1.9747,380.1768],
    [1796,1532795624,56.8314,-111.4072,471.2,189.5,92.2,2.4,3.0,21.67,56.39,1.9732,379.769],
    [1797,1532795625,56.8314,-111.4061,477.4,181.4,94.3,2.4,4.1,21.48,56.18,1.9725,380.073],
    [1798,1532795626,56.8314,-111.4051,482.2,177.3,96.7,1.6,5.6,22.25,55.54,1.9724,380.167],
    [1799,1532795627,56.8314,-111.4041,486.7,174.2,97.0,1.8,4.6,21.0,55.89,1.9739,380.3295],
    [1800,1532795628,56.8314,-111.4031,490.7,172.9,97.3,1.7,4.3,21.09,55.92,1.9743,379.7502],
    [1801,1532795629,56.8314,-111.4021,494.7,169.7,97.7,1.2,4.3,21.67,56.36,1.9741,380.6769],
    [1802,1532795630,56.8313,-111.4011,498.8,167.4,97.8,1.1,4.0,20.94,56.8,1.9751,380.6547],
    [1803,1532795631,56.8313,-111.4001,502.9,168.5,98.1,1.3,4.3,21.86,56.64,1.9757,380.5494],
    [1804,1532795632,56.8313,-111.3991,506.6,167.9,98.6,1.5,4.8,21.65,57.81,1.9754,379.6423],
    [1805,1532795633,56.8312,-111.3982,510.0,169.4,98.4,0.3,4.7,21.47,57.75,1.9736,380.0323],
    [1806,1532795634,56.8312,-111.3972,513.2,170.3,96.9,-0.3,3.5,21.38,57.37,1.9699,379.7037],
    [1807,1532795635,56.8312,-111.3963,515.6,169.6,97.4,-0.3,4.3,21.85,57.15,1.9712,379.6762],
    [1808,1532795636,56.8311,-111.3953,516.8,168.8,95.7,-0.9,2.9,21.42,56.7,1.9701,380.6863],
    [1809,1532795637,56.8311,-111.3943,517.4,167.3,93.1,-0.7,1.2,21.42,57.19,1.9698,380.8634],
    [1810,1532795638,56.8311,-111.3934,517.6,166.6,93.9,-0.7,3.1,21.57,56.73,1.9672,378.7168],
    [1811,1532795639,56.8311,-111.3924,517.2,166.2,94.7,-0.5,4.3,21.24,56.42,1.9679,378.9343],
    [1812,1532795640,56.8311,-111.3914,517.2,166.1,92.2,-0.7,2.7,21.54,57.01,1.9708,378.9206],
    [1813,1532795641,56.8311,-111.3905,517.4,167.4,92.2,0.0,3.5,20.95,56.66,1.9719,379.1184],
    [1814,1532795642,56.8311,-111.3895,517.0,167.6,92.8,0.7,4.1,22.34,56.24,1.9716,378.6168],
    [1815,1532795643,56.8311,-111.3886,515.9,167.6,92.5,-0.2,3.9,22.0,56.57,1.9719,378.8775],
    [1816,1532795644,56.8311,-111.3876,514.9,166.9,92.4,0.1,3.5,21.45,56.77,1.9717,380.3011],
    [1817,1532795645,56.8311,-111.3867,514.7,165.6,93.3,0.3,4.2,21.55,56.96,1.9707,379.9908],
    [1818,1532795646,56.8311,-111.3857,515.6,165.6,94.4,0.5,4.6,21.5,57.45,1.9717,380.1165],
    [1819,1532795647,56.8311,-111.3848,516.4,166.5,93.8,0.8,3.5,21.81,56.74,1.9676,379.8264],
    [1820,1532795648,56.8311,-111.3838,517.0,166.0,94.9,0.6,4.1,21.32,56.69,1.9615,379.5966],
    [1821,1532795649,56.8311,-111.3828,517.6,165.6,95.8,0.6,4.5,21.47,56.49,1.9583,379.5787],
    [1822,1532795650,56.8311,-111.3819,518.4,166.2,96.4,0.7,4.6,22.23,55.48,1.9586,379.5787],
    [1823,1532795651,56.8311,-111.3809,519.2,166.3,96.2,0.4,4.2,21.41,55.8,1.9592,377.938],
    [1824,1532795652,56.8311,-111.38,520.1,166.1,95.8,0.0,4.1,21.92,55.01,1.9604,378.3102],
    [1825,1532795653,56.831,-111.379,521.0,166.9,96.8,-0.5,5.2,21.59,55.06,1.9638,378.6874],
    [1826,1532795654,56.831,-111.3781,521.7,168.6,97.0,-1.0,5.2,22.18,54.82,1.9656,379.5349],
    [1827,1532795655,56.831,-111.3771,522.1,170.1,96.3,-1.0,4.6,21.41,55.75,1.967,377.4843],
    [1828,1532795656,56.831,-111.3762,522.3,172.0,96.8,-1.0,5.1,21.45,55.85,1.9671,378.3345],
    [1829,1532795657,56.831,-111.3753,522.2,172.2,96.8,-0.7,5.2,21.47,56.03,1.9667,380.0687],
    [1830,1532795658,56.831,-111.3743,521.7,170.7,96.3,-0.9,4.5,22.04,55.32,1.9673,379.1634],
    [1831,1532795659,56.8309,-111.3734,521.6,169.9,95.6,-1.1,3.9,21.35,55.95,1.9692,380.7784],
    [1832,1532795660,56.8309,-111.3724,521.9,169.0,96.9,-1.0,5.2,22.01,55.17,1.9694,379.7511],
    [1833,1532795661,56.8309,-111.3715,522.2,168.3,97.4,-0.3,5.5,21.86,55.5,1.9695,379.3494],
    [1834,1532795662,56.8309,-111.3705,522.3,167.3,95.7,0.5,3.8,21.94,55.46,1.9692,379.1938],
    [1835,1532795663,56.8309,-111.3695,521.8,165.8,95.0,0.3,3.6,22.32,55.47,1.9699,378.964],
    [1836,1532795664,56.8309,-111.3686,520.9,163.9,95.4,-0.2,4.2,21.59,56.69,1.9706,378.4266],
    [1837,1532795665,56.8309,-111.3676,519.9,161.9,94.7,-0.2,3.8,21.54,56.35,1.9711,379.6361],
    [1838,1532795666,56.8308,-111.3666,519.1,161.1,93.9,0.0,3.3,21.96,56.36,1.9704,379.7353],
    [1839,1532795667,56.8308,-111.3656,519.1,160.1,93.7,-0.7,3.3,21.55,56.43,1.9689,379.5664],
    [1840,1532795668,56.8308,-111.3646,519.7,160.7,92.8,-1.5,2.8,21.98,56.44,1.9681,378.6962],
    [1841,1532795669,56.8308,-111.3636,519.4,160.4,94.0,-1.5,4.3,21.62,56.41,1.9675,379.0048],
    [1842,1532795670,56.8308,-111.3627,518.7,159.7,94.0,-1.4,4.0,21.53,55.59,1.9689,378.6781],
    [1843,1532795671,56.8308,-111.3616,518.2,158.2,93.2,-1.0,3.4,22.08,54.61,1.9679,378.9648],
    [1844,1532795672,56.8308,-111.3606,517.2,157.2,94.1,-0.6,4.3,21.12,55.07,1.9687,380.0139],
    [1845,1532795673,56.8308,-111.3596,516.7,156.7,93.3,-0.1,3.4,21.74,55.0,1.9686,378.4187],
    [1846,1532795674,56.8308,-111.3586,516.9,155.9,93.4,0.0,4.0,21.67,54.74,1.968,378.74],
    [1847,1532795675,56.8308,-111.3575,516.6,155.6,94.3,0.0,4.9,22.16,53.91,1.968,378.7871],
    [1848,1532795676,56.8308,-111.3565,515.0,154.0,93.7,-0.4,4.4,22.05,54.29,1.9688,379.8101],
    [1849,1532795677,56.8308,-111.3555,513.7,151.7,93.8,-0.4,4.3,22.33,54.15,1.967,378.6723],
    [1850,1532795678,56.8308,-111.3544,513.2,151.2,93.6,-0.2,4.0,21.69,54.52,1.9657,378.6723],
    [1851,1532795679,56.8308,-111.3534,513.5,151.5,93.7,-0.4,4.5,22.44,53.97,1.965,378.9659],
    [1852,1532795680,56.8308,-111.3524,513.5,151.5,92.7,-0.5,3.4,21.28,54.07,1.9642,379.7951],
    [1853,1532795681,56.8308,-111.3513,513.4,150.4,91.7,-0.2,3.1,22.21,53.14,1.9612,379.2001],
    [1854,1532795682,56.8309,-111.3502,513.0,150.0,93.6,0.1,4.8,21.78,53.53,1.9618,379.2001],
    [1855,1532795683,56.8309,-111.3492,512.1,149.1,92.4,0.0,3.2,21.67,53.9,1.9636,379.1295],
    [1856,1532795684,56.8309,-111.3482,511.1,148.1,93.4,-0.9,4.5,21.95,52.88,1.9685,379.156],
    [1857,1532795685,56.8309,-111.3471,509.2,146.2,95.0,-0.9,5.5,21.69,53.33,1.9793,378.942],
    [1858,1532795686,56.8309,-111.346,507.2,144.3,93.9,-0.2,4.1,21.45,53.46,1.9804,378.9889],
    [1859,1532795687,56.8309,-111.345,506.1,144.1,95.0,0.2,4.9,21.74,54.24,1.9817,379.3106],
    [1860,1532795688,56.8308,-111.3439,505.5,143.5,95.5,0.7,4.5,21.17,53.71,1.9818,379.4378],
    [1861,1532795689,56.8308,-111.3428,505.8,143.8,95.5,1.0,4.3,21.74,53.82,1.9808,379.6358],
    [1862,1532795690,56.8308,-111.3418,506.5,144.0,96.0,1.4,4.8,21.66,53.77,1.9814,378.5394],
    [1863,1532795691,56.8308,-111.3407,507.6,144.6,94.5,1.6,3.5,21.9,54.02,1.9772,379.4161],
    [1864,1532795692,56.8308,-111.3396,508.7,144.6,94.4,1.1,4.1,22.02,53.56,1.9774,379.2591],
    [1865,1532795693,56.8308,-111.3386,509.1,145.1,94.3,1.0,4.2,21.95,53.59,1.9753,379.2591],
    [1866,1532795694,56.8308,-111.3375,509.2,145.2,93.0,0.8,3.4,22.08,53.39,1.9657,378.26],
    [1867,1532795695,56.8308,-111.3365,509.5,145.2,92.6,0.7,3.3,22.6,52.57,1.9704,379.6578],
    [1868,1532795696,56.8308,-111.3354,509.1,144.1,92.1,0.3,3.3,22.21,52.69,1.979,379.368],
    [1869,1532795697,56.8308,-111.3343,509.1,144.1,92.9,0.4,4.0,22.04,53.48,1.9809,379.3257],
    [1870,1532795698,56.8308,-111.3333,509.7,144.5,92.7,1.0,3.8,21.93,52.76,1.9813,379.3554],
    [1871,1532795699,56.8308,-111.3322,509.5,143.5,94.0,1.3,5.1,21.97,52.9,1.9814,379.1614],
    [1872,1532795700,56.8308,-111.3312,509.0,143.0,94.3,1.2,4.9,22.28,52.48,1.9836,379.1849],
    [1873,1532795701,56.8308,-111.3301,509.0,142.0,92.1,1.1,2.6,21.83,53.09,1.9789,378.8479],
    [1874,1532795702,56.8308,-111.3291,510.4,143.4,91.5,1.0,2.4,21.59,52.96,1.9789,378.2038],
    [1875,1532795703,56.8308,-111.328,511.4,143.4,92.5,1.0,3.3,21.6,53.04,1.9787,377.5987],
    [1876,1532795704,56.8308,-111.327,512.5,144.5,91.7,1.6,2.6,21.86,52.92,1.9773,378.1644],
    [1877,1532795705,56.8308,-111.3259,513.3,144.4,92.8,1.8,3.7,21.94,53.15,1.9766,377.638],
    [1878,1532795706,56.8308,-111.3249,514.2,145.2,93.7,1.4,4.2,22.27,53.01,1.9758,378.233],
    [1879,1532795707,56.8308,-111.3239,516.1,146.1,93.2,1.5,3.8,22.3,52.89,1.9698,378.8498],
    [1880,1532795708,56.8308,-111.3228,518.5,148.5,94.8,1.8,5.6,22.16,52.66,1.97,378.8498],
    [1881,1532795709,56.8308,-111.3218,520.7,149.7,94.0,1.7,4.7,22.08,52.97,1.9651,378.0318],
    [1882,1532795710,56.8309,-111.3208,522.8,151.8,92.0,1.0,3.2,22.19,52.68,1.9658,377.3298],
    [1883,1532795711,56.8309,-111.3198,523.6,151.6,94.1,0.9,5.0,22.08,52.22,1.9745,378.7837],
    [1884,1532795712,56.8309,-111.3187,524.6,152.6,94.8,0.7,5.2,21.82,52.2,1.9814,378.7837],
    [1885,1532795713,56.8309,-111.3177,526.7,153.7,94.6,0.9,5.0,22.05,52.28,1.9851,377.8598],
    [1886,1532795714,56.8309,-111.3167,528.7,154.6,94.2,1.0,4.6,21.95,52.6,1.9857,379.6792],
    [1887,1532795715,56.8309,-111.3157,529.5,155.6,93.8,1.1,4.1,21.85,52.87,1.9836,379.3698],
    [1888,1532795716,56.8309,-111.3147,531.7,155.7,93.4,0.5,3.3,22.07,52.9,1.9836,379.5847],
    [1889,1532795717,56.8309,-111.3136,534.5,157.5,92.5,0.8,2.3,21.97,52.82,1.9828,378.8749],
    [1890,1532795718,56.8309,-111.3127,536.8,157.8,94.4,1.0,4.0,22.02,52.69,1.9796,378.3717],
    [1891,1532795719,56.8308,-111.3116,538.6,156.9,94.7,1.1,4.0,22.0,52.63,1.9786,378.8446],
    [1892,1532795720,56.8308,-111.3106,540.2,156.2,92.2,1.2,1.9,22.15,52.47,1.9793,380.6409],
    [1893,1532795721,56.8308,-111.3096,541.6,153.6,92.9,1.7,2.8,21.98,52.43,1.9759,378.6829],
    [1894,1532795722,56.8308,-111.3087,542.3,151.2,94.4,2.5,4.1,21.99,52.69,1.9771,378.4066],
    [1895,1532795723,56.8308,-111.3076,543.4,148.0,93.6,2.5,3.5,21.92,52.76,1.981,378.3441],
    [1896,1532795724,56.8308,-111.3066,545.8,146.9,93.1,2.1,3.5,22.29,52.65,1.9821,378.3099],
    [1897,1532795725,56.8308,-111.3056,548.5,146.9,93.9,1.6,4.5,22.1,53.23,1.9786,378.3031],
    [1898,1532795726,56.8308,-111.3046,551.2,146.1,93.0,1.7,3.6,21.92,53.32,1.9659,377.1886],
    [1899,1532795727,56.8309,-111.3036,553.9,147.9,92.8,1.8,3.7,21.9,52.97,1.9621,377.1886],
    [1900,1532795728,56.8309,-111.3027,557.2,148.9,91.8,1.5,2.7,22.19,52.91,1.9675,378.2754],
    [1901,1532795729,56.8309,-111.3017,560.1,150.0,90.4,1.5,1.9,21.92,52.76,1.9707,378.2754],
    [1902,1532795730,56.8309,-111.3008,561.3,149.3,92.0,1.6,3.5,22.3,52.35,1.9746,377.961],
    [1903,1532795731,56.8309,-111.2998,562.2,149.2,94.0,1.5,5.2,22.34,52.51,1.9741,378.6237],
    [1904,1532795732,56.8309,-111.2988,563.2,148.2,93.5,1.0,4.3,22.28,52.19,1.9725,378.5254],
    [1905,1532795733,56.8309,-111.2979,564.7,149.7,93.3,1.5,3.8,22.02,52.42,1.9709,378.2059],
    [1906,1532795734,56.8309,-111.297,566.1,151.1,94.5,1.8,4.5,21.91,52.7,1.98,378.108],
    [1907,1532795735,56.8309,-111.296,567.3,152.3,93.9,1.4,3.7,22.76,52.41,1.9801,378.1317],
    [1908,1532795736,56.8309,-111.2951,568.5,153.7,92.9,1.1,3.0,22.58,52.61,1.9807,378.7986],
    [1909,1532795737,56.8309,-111.2941,569.3,156.0,93.2,0.3,3.2,22.14,54.06,1.9777,378.6555],
    [1910,1532795738,56.8309,-111.2931,570.1,158.6,91.8,0.3,1.9,21.97,53.73,1.9773,378.6555],
    [1911,1532795739,56.8309,-111.2922,571.4,162.0,91.7,0.3,2.0,21.95,54.19,1.9792,378.9017],
    [1912,1532795740,56.8309,-111.2913,572.5,166.2,92.7,0.9,2.8,21.74,53.53,1.9772,378.2647],
    [1913,1532795741,56.8309,-111.2903,573.1,168.0,92.4,1.1,2.8,21.55,53.71,1.9699,377.3009],
    [1914,1532795742,56.8309,-111.2893,573.4,169.4,92.9,1.2,3.5,21.9,53.22,1.9659,377.3009],
    [1915,1532795743,56.8309,-111.2884,573.4,169.4,92.5,1.4,3.4,21.83,52.95,1.9639,378.5423],
    [1916,1532795744,56.8309,-111.2874,573.4,168.6,92.1,0.7,3.3,22.19,52.05,1.9673,378.3023],
    [1917,1532795745,56.8309,-111.2865,574.0,168.0,91.3,-0.1,3.1,21.89,52.8,1.9719,378.3039],
    [1918,1532795746,56.831,-111.2855,574.9,167.9,91.3,-0.4,3.4,21.68,52.25,1.9739,379.408],
    [1919,1532795747,56.831,-111.2845,576.2,169.9,91.4,-0.3,3.4,21.98,52.45,1.9741,379.0664],
    [1920,1532795748,56.831,-111.2836,577.8,171.4,90.7,0.2,2.8,21.84,52.65,1.9736,378.878],
    [1921,1532795749,56.831,-111.2826,579.4,173.4,90.7,0.0,2.7,21.77,52.78,1.9743,379.2324],
    [1922,1532795750,56.831,-111.2817,581.1,176.1,90.8,-0.4,2.4,22.11,53.19,1.9742,378.4862],
    [1923,1532795751,56.831,-111.2807,582.1,178.6,92.3,-0.4,3.3,21.56,52.91,1.9719,376.8922],
    [1924,1532795752,56.8311,-111.2798,582.7,180.1,93.5,-0.5,3.8,21.97,53.52,1.9679,376.8922],
    [1925,1532795753,56.8311,-111.2788,583.8,181.8,93.1,-0.9,3.0,22.26,52.45,1.97,378.298],
    [1926,1532795754,56.8311,-111.2779,584.7,182.7,92.3,-0.6,2.4,22.43,51.89,1.9709,378.298],
    [1927,1532795755,56.8311,-111.2769,584.9,181.9,93.0,0.0,3.1,22.18,51.85,1.9718,378.1225],
    [1928,1532795756,56.8311,-111.276,584.8,180.7,93.5,0.1,3.5,22.03,52.53,1.9735,378.8844],
    [1929,1532795757,56.8311,-111.275,584.6,179.8,93.9,-0.1,3.6,21.75,52.95,1.9735,378.8844],
    [1930,1532795758,56.831,-111.274,584.5,178.8,94.2,-0.8,3.7,21.97,53.18,1.9752,378.5052],
    [1931,1532795759,56.831,-111.2731,584.8,178.1,94.0,-0.6,3.2,21.93,52.43,1.9757,378.8003],
    [1932,1532795760,56.831,-111.2721,585.8,176.8,93.4,-1.0,2.3,21.6,52.56,1.9768,378.5957],
    [1933,1532795761,56.831,-111.2711,587.6,176.6,92.1,-0.3,1.0,21.48,52.49,1.9759,378.226],
    [1934,1532795762,56.831,-111.2702,588.2,174.3,92.9,0.0,2.2,21.75,52.52,1.9754,379.1443],
    [1935,1532795763,56.831,-111.2692,587.5,172.3,94.7,-0.5,3.8,21.65,52.24,1.9769,379.4579],
    [1936,1532795764,56.831,-111.2682,587.7,169.7,93.8,-0.1,2.8,21.76,52.33,1.977,379.6477],
    [1937,1532795765,56.831,-111.2673,588.6,168.9,94.0,0.1,3.1,21.86,52.99,1.9776,378.9757],
    [1938,1532795766,56.831,-111.2662,589.7,168.7,94.5,-0.1,3.6,22.24,52.55,1.978,379.1737],
    [1939,1532795767,56.831,-111.2653,591.1,170.1,93.8,-0.4,3.1,22.17,52.99,1.9748,379.181],
    [1940,1532795768,56.831,-111.2643,592.8,172.0,93.3,0.1,2.5,21.67,52.83,1.9736,378.3872],
    [1941,1532795769,56.8309,-111.2633,594.3,174.3,93.0,-0.3,1.8,21.85,52.7,1.9732,378.7143],
    [1942,1532795770,56.8309,-111.2623,595.7,175.7,93.3,-0.9,1.7,21.68,52.4,1.9724,379.1425],
    [1943,1532795771,56.8309,-111.2614,596.8,175.8,94.4,-1.2,2.6,21.71,52.3,1.97,378.0701],
    [1944,1532795772,56.8309,-111.2604,596.9,175.9,95.3,-0.6,3.7,21.94,52.27,1.9729,378.4308],
    [1945,1532795773,56.8309,-111.2594,595.7,173.7,95.9,-0.1,4.4,22.01,52.04,1.9686,379.3292],
    [1946,1532795774,56.8309,-111.2584,594.5,171.5,95.3,0.1,3.8,22.22,51.9,1.9691,378.1274],
    [1947,1532795775,56.8308,-111.2575,594.2,170.2,94.3,-0.4,3.2,21.78,52.13,1.9738,378.0175],
    [1948,1532795776,56.8308,-111.2565,594.6,170.4,94.4,-0.7,3.5,22.09,51.91,1.9766,378.4683],
    [1949,1532795777,56.8308,-111.2555,595.5,170.5,93.5,-0.1,2.8,21.86,52.08,1.9742,379.6236],
    [1950,1532795778,56.8308,-111.2545,596.1,170.1,94.1,0.6,3.9,21.93,52.24,1.9747,379.8861],
    [1951,1532795779,56.8308,-111.2535,595.9,168.8,95.5,-0.2,5.1,22.16,51.72,1.9681,378.4311],
    [1952,1532795780,56.8308,-111.2525,595.9,167.9,94.5,-1.1,3.8,22.03,51.77,1.9689,378.4311],
    [1953,1532795781,56.8308,-111.2515,596.6,167.9,93.8,-0.1,3.2,21.57,51.91,1.9643,378.3299],
    [1954,1532795782,56.8308,-111.2505,597.2,167.9,94.9,-0.1,4.3,22.58,51.25,1.964,379.3522],
    [1955,1532795783,56.8308,-111.2494,597.5,167.4,94.4,-0.2,3.1,22.4,51.23,1.9662,378.9935],
    [1956,1532795784,56.8308,-111.2484,597.9,166.9,93.6,0.0,2.6,22.31,51.16,1.9647,378.3948],
    [1957,1532795785,56.8307,-111.2474,598.0,166.0,95.5,0.8,4.4,22.32,50.94,1.9642,378.5626],
    [1958,1532795786,56.8307,-111.2464,598.1,165.1,94.9,0.7,3.7,22.22,50.77,1.9671,379.611],
    [1959,1532795787,56.8307,-111.2454,598.5,164.5,94.6,0.3,3.5,22.24,51.5,1.9687,378.4999],
    [1960,1532795788,56.8307,-111.2444,598.9,163.9,95.4,0.4,4.1,21.9,51.88,1.9658,379.3561],
    [1961,1532795789,56.8307,-111.2434,599.6,164.6,94.5,-0.1,3.2,21.59,51.27,1.9632,379.3561],
    [1962,1532795790,56.8307,-111.2424,600.5,164.5,94.5,-0.5,3.3,22.03,51.31,1.9653,378.4489],
    [1963,1532795791,56.8307,-111.2414,601.6,164.6,96.1,-1.0,4.7,21.97,51.5,1.9679,378.4489],
    [1964,1532795792,56.8306,-111.2404,601.4,163.4,96.9,-0.8,4.9,21.79,52.48,1.9714,378.9651],
    [1965,1532795793,56.8306,-111.2394,601.1,162.8,96.5,-0.7,4.1,22.18,51.8,1.9691,378.4825],
    [1966,1532795794,56.8306,-111.2384,601.1,162.1,96.0,-0.2,3.8,22.02,52.5,1.9694,380.6405],
    [1967,1532795795,56.8306,-111.2373,600.6,160.6,96.0,0.1,3.9,21.81,52.06,1.9682,378.859],
    [1968,1532795796,56.8305,-111.2363,600.9,159.9,94.9,-1.0,3.2,21.7,52.04,1.9668,378.859],
    [1969,1532795797,56.8305,-111.2353,601.7,160.7,94.1,-0.9,3.0,22.0,51.55,1.9678,378.6043],
    [1970,1532795798,56.8305,-111.2343,601.8,159.8,94.0,0.1,2.8,21.99,51.89,1.9682,379.1021],
    [1971,1532795799,56.8305,-111.2333,601.3,159.3,93.8,0.0,2.9,21.79,51.88,1.9673,377.9772],
    [1972,1532795800,56.8305,-111.2322,600.0,158.0,94.5,0.2,3.6,21.67,51.63,1.969,377.6438],
    [1973,1532795801,56.8305,-111.2312,598.2,156.2,93.9,0.4,3.1,21.51,51.97,1.9708,378.8513],
    [1974,1532795802,56.8305,-111.2301,597.1,154.1,93.7,1.1,2.9,21.92,51.94,1.9689,378.7225],
    [1975,1532795803,56.8305,-111.2291,597.0,154.0,93.5,1.0,2.9,21.95,51.94,1.9638,378.3337],
    [1976,1532795804,56.8304,-111.228,598.0,155.0,94.2,0.4,3.7,21.49,52.01,1.9641,379.3976],
    [1977,1532795805,56.8304,-111.2269,600.2,157.2,93.3,0.7,2.7,21.76,52.08,1.9636,377.7818],
    [1978,1532795806,56.8304,-111.2259,602.6,159.3,92.4,1.0,1.9,21.45,51.2,1.9628,378.3583],
    [1979,1532795807,56.8304,-111.2248,604.3,160.3,92.8,0.7,2.7,21.91,51.1,1.9637,378.5331],
    [1980,1532795808,56.8304,-111.2238,604.3,160.3,93.8,1.0,3.6,22.69,50.56,1.9633,378.3379],
    [1981,1532795809,56.8304,-111.2227,604.0,160.0,93.9,1.6,3.6,22.14,51.07,1.9614,376.6366],
    [1982,1532795810,56.8304,-111.2217,604.2,160.2,94.3,1.6,4.2,22.57,50.95,1.9613,376.6366],
    [1983,1532795811,56.8304,-111.2206,604.4,160.4,94.3,1.3,4.6,21.86,51.41,1.9594,377.3683],
    [1984,1532795812,56.8304,-111.2196,605.1,161.1,92.8,1.2,3.9,22.67,50.56,1.961,377.3082],
    [1985,1532795813,56.8304,-111.2185,606.6,162.6,90.3,1.3,2.6,21.75,51.29,1.9616,377.5756],
    [1986,1532795814,56.8304,-111.2175,607.5,163.5,89.6,1.5,2.8,21.76,50.91,1.9583,377.8217],
    [1987,1532795815,56.8305,-111.2164,607.9,163.2,89.7,1.7,3.5,22.36,50.96,1.9596,377.8302],
    [1988,1532795816,56.8305,-111.2154,608.4,163.4,89.8,1.4,4.0,21.59,50.97,1.9568,377.8302],
    [1989,1532795817,56.8306,-111.2143,609.8,164.8,89.7,0.4,4.0,22.62,50.4,1.9586,377.3618],
    [1990,1532795818,56.8306,-111.2133,611.4,166.4,89.1,0.1,3.2,21.91,50.81,1.961,378.6938],
    [1991,1532795819,56.8306,-111.2122,613.0,168.0,89.9,0.4,3.5,21.99,50.73,1.9638,379.083],
    [1992,1532795820,56.8307,-111.2112,614.4,169.4,90.4,0.1,3.5,21.5,51.25,1.9662,378.6072],
    [1993,1532795821,56.8307,-111.2102,615.3,169.6,90.1,0.1,3.0,22.13,51.84,1.9674,376.1564],
    [1994,1532795822,56.8307,-111.2091,615.6,169.6,91.1,0.1,4.9,21.89,52.45,1.9658,378.9769],
    [1995,1532795823,56.8308,-111.2081,615.9,169.9,90.4,-0.4,6.3,21.75,51.9,1.9621,379.0721],
    [1996,1532795824,56.8308,-111.207,616.3,170.3,84.4,-0.6,4.4,22.02,51.93,1.9677,379.0749],
    [1997,1532795825,56.8309,-111.206,616.7,170.7,78.0,-0.1,3.7,21.71,52.1,1.9688,379.1656],
    [1998,1532795826,56.8311,-111.205,616.9,171.6,72.3,0.6,4.4,21.99,52.9,1.9702,380.0583],
    [1999,1532795827,56.8314,-111.2041,617.4,171.4,65.0,0.5,4.1,21.82,52.47,1.9687,378.4949],
    [2000,1532795828,56.8317,-111.2032,618.1,172.1,57.6,0.2,2.9,21.6,52.59,1.9657,378.0331],
    [2001,1532795829,56.832,-111.2024,618.8,172.8,51.5,-0.5,2.9,21.77,52.56,1.9656,379.2219],
    [2002,1532795830,56.8324,-111.2016,619.9,173.9,45.9,-0.9,2.7,21.87,52.6,1.9653,377.7046],
    [2003,1532795831,56.8329,-111.2008,620.9,174.9,40.3,-0.2,3.2,22.35,52.45,1.9629,379.0527],
    [2004,1532795832,56.8334,-111.2002,621.8,175.8,36.0,-1.1,3.5,22.03,52.55,1.9557,377.877],
    [2005,1532795833,56.8339,-111.1997,622.0,176.0,30.1,0.1,3.4,22.27,51.53,1.9471,377.1477],
    [2006,1532795834,56.8344,-111.1992,622.0,175.9,22.3,1.5,3.3,22.15,51.2,1.9425,377.4501],
    [2007,1532795835,56.835,-111.1988,621.9,175.8,17.5,0.6,3.3,22.18,50.88,1.9391,375.2841],
    [2008,1532795836,56.8355,-111.1986,621.8,176.5,11.5,0.8,3.0,22.72,49.95,1.942,377.7438],
    [2009,1532795837,56.8361,-111.1984,621.7,176.7,5.9,1.1,2.5,21.97,49.55,1.9496,375.5834],
    [2010,1532795838,56.8367,-111.1983,620.9,175.0,361.2,2.3,2.8,22.02,49.69,1.9483,376.752],
    [2011,1532795839,56.8373,-111.1983,620.0,173.7,357.1,2.6,3.2,22.02,49.73,1.9416,376.752],
    [2012,1532795840,56.8379,-111.1983,619.3,172.3,354.8,2.1,2.9,22.67,49.19,1.9415,377.1362],
    [2013,1532795841,56.8385,-111.1984,618.6,170.6,351.5,3.1,3.0,22.21,49.91,1.9425,376.7417],
    [2014,1532795842,56.8391,-111.1985,618.0,169.0,350.3,2.3,3.2,22.2,49.22,1.9485,378.3435],
    [2015,1532795843,56.8396,-111.1987,617.3,168.3,351.0,0.8,2.9,21.98,49.42,1.9476,377.7836],
    [2016,1532795844,56.8402,-111.1988,616.1,167.1,349.2,2.1,2.5,21.99,49.64,1.9475,377.0113],
    [2017,1532795845,56.8408,-111.199,614.4,165.3,347.6,2.8,2.2,22.47,49.43,1.9503,376.969],
    [2018,1532795846,56.8414,-111.1992,612.2,162.2,347.6,2.1,2.1,22.05,49.88,1.9575,377.9073],
    [2019,1532795847,56.842,-111.1994,609.5,159.5,347.4,1.8,2.4,21.83,50.21,1.9587,377.9536],
    [2020,1532795848,56.8426,-111.1996,607.3,157.3,347.8,1.4,2.3,22.01,50.98,1.9618,378.2456],
    [2021,1532795849,56.8432,-111.1998,606.2,156.2,347.9,1.5,2.0,21.89,50.95,1.9653,378.4708],
    [2022,1532795850,56.8438,-111.2,605.7,155.7,347.7,2.1,1.9,21.8,51.06,1.9651,378.4291],
    [2023,1532795851,56.8444,-111.2002,605.3,155.3,347.8,2.3,2.3,21.83,51.07,1.9646,378.7029],
    [2024,1532795852,56.845,-111.2004,604.6,154.6,349.2,1.4,3.0,21.99,51.44,1.9638,379.2954],
    [2025,1532795853,56.8456,-111.2006,604.0,154.0,350.9,0.4,3.3,22.46,50.9,1.9665,379.1668],
    [2026,1532795854,56.8463,-111.2007,602.9,152.9,352.4,0.3,2.6,21.92,52.1,1.97,379.7459],
    [2027,1532795855,56.8469,-111.2009,602.6,153.5,353.4,0.2,2.4,22.49,51.06,1.9711,378.8222],
    [2028,1532795856,56.8475,-111.201,603.1,154.1,354.3,-0.1,2.7,22.03,51.86,1.9714,378.7715],
    [2029,1532795857,56.8481,-111.2011,603.0,154.0,355.3,-0.8,3.7,22.01,52.03,1.9712,379.9692],
    [2030,1532795858,56.8487,-111.2012,602.7,153.7,354.5,0.5,4.3,21.73,51.89,1.9697,379.3325],
    [2031,1532795859,56.8494,-111.2013,602.5,154.2,353.6,1.3,3.9,21.51,51.9,1.9693,378.4187],
    [2032,1532795860,56.85,-111.2014,602.4,154.4,354.3,0.2,4.2,22.05,52.53,1.9683,379.9532],
    [2033,1532795861,56.8506,-111.2015,604.0,156.0,354.4,0.2,3.9,21.92,52.41,1.9688,379.7909],
    [2034,1532795862,56.8512,-111.2016,605.9,157.9,354.0,1.0,4.3,21.98,52.05,1.9668,378.943],
    [2035,1532795863,56.8518,-111.2017,607.5,159.5,354.9,0.5,4.3,22.03,52.04,1.9629,378.1965],
    [2036,1532795864,56.8525,-111.2017,608.4,160.4,356.3,0.3,3.7,22.0,51.87,1.962,378.1965],
    [2037,1532795865,56.8531,-111.2018,608.7,160.7,357.4,1.0,3.9,22.0,51.74,1.9615,376.9059],
    [2038,1532795866,56.8538,-111.2018,609.7,161.7,360.4,0.0,3.4,22.04,51.9,1.9628,379.1578],
    [2039,1532795867,56.8544,-111.2018,611.3,163.3,362.3,-0.2,2.6,21.77,51.41,1.9599,378.8495],
    [2040,1532795868,56.855,-111.2017,612.2,164.2,362.4,0.8,2.6,21.7,51.44,1.9579,377.813],
    [2041,1532795869,56.8556,-111.2017,612.8,164.8,2.9,1.1,2.9,22.26,51.28,1.9694,379.029],
    [2042,1532795870,56.8562,-111.2016,613.7,166.7,362.4,2.1,2.9,22.87,50.95,1.9705,379.4435],
    [2043,1532795871,56.8568,-111.2015,614.3,167.3,362.4,2.1,2.3,21.92,51.4,1.9722,380.6558],
    [2044,1532795872,56.8574,-111.2014,614.0,167.0,4.9,-0.4,2.8,22.03,52.42,1.97,379.4162],
    [2045,1532795873,56.8581,-111.2013,612.8,165.8,4.7,0.2,3.1,22.1,51.87,1.9684,379.1115],
    [2046,1532795874,56.8587,-111.2012,611.9,164.9,3.7,0.7,3.7,21.76,52.04,1.9681,377.7954],
    [2047,1532795875,56.8593,-111.2012,612.3,166.3,4.0,0.0,4.3,21.8,51.92,1.9681,379.5465],
    [2048,1532795876,56.8599,-111.2011,613.1,167.1,3.6,-0.3,4.2,22.51,51.51,1.9654,378.6566],
    [2049,1532795877,56.8605,-111.201,613.3,167.3,3.2,-0.2,4.4,22.55,51.43,1.9666,378.6083],
    [2050,1532795878,56.8611,-111.201,612.9,166.9,361.2,1.3,4.0,22.04,52.58,1.967,379.5855],
    [2051,1532795879,56.8618,-111.201,612.7,166.7,360.4,1.5,3.6,21.84,51.85,1.9662,379.8607],
    [2052,1532795880,56.8624,-111.2009,612.4,166.4,360.7,1.1,3.2,22.73,51.26,1.9675,378.6386],
    [2053,1532795881,56.863,-111.2009,612.5,166.5,360.1,1.5,2.7,22.31,51.62,1.9663,378.9242],
    [2054,1532795882,56.8636,-111.2009,612.0,166.0,359.7,1.9,3.0,22.0,52.16,1.9652,378.6654],
    [2055,1532795883,56.8642,-111.2008,611.8,165.8,359.8,1.9,2.8,21.82,52.01,1.9642,379.1527],
    [2056,1532795884,56.8648,-111.2008,611.1,165.1,360.7,0.9,3.0,21.53,51.79,1.9623,379.1116],
    [2057,1532795885,56.8655,-111.2008,610.5,164.5,361.1,0.7,3.2,21.84,51.82,1.9637,378.5065],
    [2058,1532795886,56.8661,-111.2007,609.8,163.8,362.0,0.0,2.7,22.08,51.55,1.9637,378.6773],
    [2059,1532795887,56.8667,-111.2007,609.1,163.1,362.4,-0.1,2.4,21.98,51.71,1.962,379.2612],
    [2060,1532795888,56.8674,-111.2007,607.6,162.0,2.9,-0.7,2.2,21.99,51.87,1.9589,379.2068],
    [2061,1532795889,56.868,-111.2006,605.4,160.5,2.8,-0.7,2.6,22.09,51.22,1.958,378.484],
    [2062,1532795890,56.8686,-111.2006,603.2,158.2,362.4,-0.4,2.4,21.7,51.23,1.9623,378.484],
    [2063,1532795891,56.8693,-111.2005,601.7,156.7,361.5,0.4,2.7,21.97,51.48,1.9599,378.7219],
    [2064,1532795892,56.8699,-111.2005,600.9,155.9,361.5,0.4,3.5,21.95,51.06,1.9612,378.4034],
    [2065,1532795893,56.8705,-111.2005,599.9,154.9,361.1,0.8,4.0,21.82,51.03,1.963,377.4911],
    [2066,1532795894,56.8712,-111.2004,598.8,153.8,360.6,1.0,3.3,21.81,51.16,1.9653,377.6746],
    [2067,1532795895,56.8718,-111.2004,598.4,153.4,360.7,0.6,3.0,22.22,51.26,1.9702,379.2728],
    [2068,1532795896,56.8724,-111.2004,597.2,152.2,359.7,1.4,2.9,21.5,51.66,1.9705,378.4284],
    [2069,1532795897,56.8731,-111.2004,596.0,151.0,359.3,1.3,3.6,22.25,51.72,1.9714,379.0212],
    [2070,1532795898,56.8737,-111.2004,595.2,150.2,359.1,1.0,4.0,22.0,52.34,1.9698,378.3389],
    [2071,1532795899,56.8743,-111.2004,595.4,150.4,359.0,0.4,4.4,22.28,51.75,1.9667,377.7472],
    [2072,1532795900,56.875,-111.2004,595.5,150.5,359.4,-0.1,4.2,21.74,52.5,1.9582,379.1438],
    [2073,1532795901,56.8756,-111.2004,595.6,151.6,357.9,1.0,4.4,22.06,52.35,1.9649,379.4455],
    [2074,1532795902,56.8762,-111.2004,596.1,153.1,357.2,1.4,4.6,22.11,52.23,1.9651,379.4455],
    [2075,1532795903,56.8769,-111.2005,597.2,154.9,357.6,0.7,4.3,22.26,51.95,1.9652,378.2351],
    [2076,1532795904,56.8775,-111.2005,597.7,155.7,358.6,-0.3,4.4,22.0,51.85,1.9635,379.2717],
    [2077,1532795905,56.8781,-111.2005,597.6,156.7,358.8,-0.5,4.5,22.47,51.12,1.9598,379.2717],
    [2078,1532795906,56.8788,-111.2006,597.2,156.2,358.8,-0.5,4.3,21.42,51.29,1.9546,377.4502],
    [2079,1532795907,56.8794,-111.2006,597.5,157.4,358.8,-0.1,3.2,22.0,51.12,1.9534,377.4502],
    [2080,1532795908,56.88,-111.2006,597.7,159.1,359.5,-0.3,2.9,22.42,50.38,1.9574,378.8045],
    [2081,1532795909,56.8807,-111.2006,597.5,159.5,360.6,-0.4,2.8,22.1,50.81,1.961,378.6659],
    [2082,1532795910,56.8813,-111.2006,597.2,159.2,360.7,0.1,3.2,22.05,50.21,1.9665,378.6097],
    [2083,1532795911,56.8819,-111.2006,596.6,158.5,360.6,0.8,3.5,21.41,50.67,1.9685,379.4893],
    [2084,1532795912,56.8826,-111.2006,596.4,160.1,360.0,1.8,3.5,22.27,50.88,1.9663,379.8051],
    [2085,1532795913,56.8832,-111.2005,596.3,161.3,360.8,1.3,3.9,22.43,50.72,1.968,379.6171],
    [2086,1532795914,56.8838,-111.2005,596.8,163.8,362.3,0.0,3.6,22.42,51.53,1.9681,378.9998],
    [2087,1532795915,56.8845,-111.2004,597.5,170.5,362.4,0.3,3.1,22.03,51.21,1.966,378.9998],
    [2088,1532795916,56.8851,-111.2004,598.0,176.4,361.3,1.7,3.1,22.39,50.92,1.965,379.3342],
    [2089,1532795917,56.8857,-111.2003,597.9,179.2,361.2,1.3,2.5,22.39,51.12,1.9661,378.8696],
    [2090,1532795918,56.8863,-111.2003,597.1,181.1,362.2,0.2,3.0,22.37,51.2,1.968,379.5623],
    [2091,1532795919,56.887,-111.2002,596.7,182.7,361.7,0.7,2.7,22.55,50.71,1.9701,378.9947],
    [2092,1532795920,56.8876,-111.2002,595.8,183.8,361.9,0.3,2.6,22.43,51.15,1.9695,378.8654],
    [2093,1532795921,56.8883,-111.2002,594.6,185.4,361.8,0.2,3.2,22.27,51.87,1.9684,380.4801],
    [2094,1532795922,56.8889,-111.2001,593.0,187.4,361.5,0.1,3.2,22.18,51.19,1.9624,378.4276],
    [2095,1532795923,56.8895,-111.2001,591.4,193.1,361.0,-0.2,2.6,22.49,50.76,1.9526,377.9289],
    [2096,1532795924,56.8902,-111.2001,590.1,196.2,360.4,-0.3,3.1,22.1,50.93,1.9559,376.5282],
    [2097,1532795925,56.8908,-111.2001,589.4,199.6,359.7,-0.2,3.0,21.89,50.35,1.9665,379.2134],
    [2098,1532795926,56.8914,-111.2001,589.1,205.6,359.5,-0.4,3.4,21.89,50.28,1.9695,378.413],
    [2099,1532795927,56.8921,-111.2001,588.9,209.5,358.9,0.2,4.0,22.29,50.35,1.9662,379.6532],
    [2100,1532795928,56.8927,-111.2001,589.1,214.7,358.6,0.6,3.4,22.54,50.23,1.969,380.3574],
    [2101,1532795929,56.8933,-111.2002,589.1,222.1,357.8,1.5,3.5,22.5,50.68,1.9712,378.8564],
    [2102,1532795930,56.894,-111.2002,589.5,226.6,358.1,0.7,3.6,22.8,50.61,1.9517,378.357],
    [2103,1532795931,56.8946,-111.2002,590.2,229.0,358.7,0.0,3.9,21.8,51.07,1.9473,376.8716],
    [2104,1532795932,56.8952,-111.2002,590.9,230.1,358.2,0.6,4.0,21.92,50.84,1.9563,377.3606],
    [2105,1532795933,56.8959,-111.2003,591.6,233.1,357.9,1.1,4.6,22.27,50.44,1.9625,379.5591],
    [2106,1532795934,56.8965,-111.2003,593.0,235.0,358.0,0.9,5.3,22.22,50.67,1.9649,378.5202],
    [2107,1532795935,56.8971,-111.2003,594.6,235.6,358.4,0.6,5.3,22.04,50.91,1.9663,378.5202],
    [2108,1532795936,56.8978,-111.2003,595.6,231.4,358.6,0.6,5.2,22.19,50.64,1.9569,377.5418],
    [2109,1532795937,56.8984,-111.2003,596.9,219.3,358.6,0.7,5.3,22.23,50.57,1.9563,377.9431],
    [2110,1532795938,56.8991,-111.2004,598.5,211.3,360.2,-1.1,5.4,22.13,51.16,1.9655,378.6912],
    [2111,1532795939,56.8997,-111.2004,600.0,206.0,360.2,-0.7,5.1,22.17,50.3,1.9655,379.4545],
    [2112,1532795940,56.9003,-111.2004,602.0,201.0,359.5,0.1,5.0,22.29,51.35,1.9535,378.4638],
    [2113,1532795941,56.9009,-111.2004,604.4,198.1,359.7,0.0,5.3,22.27,50.65,1.9565,377.656],
    [2114,1532795942,56.9015,-111.2004,606.8,196.1,358.7,1.2,5.4,22.38,50.66,1.9639,379.2003],
    [2115,1532795943,56.9021,-111.2004,609.2,194.2,358.5,1.4,5.0,22.27,50.94,1.9706,379.6954],
    [2116,1532795944,56.9028,-111.2004,611.5,196.2,359.5,0.6,4.7,22.19,51.29,1.9703,380.3532],
    [2117,1532795945,56.9034,-111.2004,614.1,202.4,359.9,0.6,5.1,22.52,51.68,1.9718,381.162],
    [2118,1532795946,56.904,-111.2004,616.8,208.2,359.3,1.0,4.8,21.76,52.12,1.9696,379.2632],
    [2119,1532795947,56.9046,-111.2004,619.8,210.8,360.3,-0.3,4.5,22.21,51.95,1.9657,377.1027],
    [2120,1532795948,56.9052,-111.2004,622.6,208.6,360.1,0.0,3.8,21.68,52.18,1.9635,377.9884],
    [2121,1532795949,56.9057,-111.2004,624.8,203.7,359.6,0.5,3.6,22.25,52.17,1.9683,378.6755],
    [2122,1532795950,56.9063,-111.2004,625.8,197.8,360.3,-0.2,4.2,22.3,52.15,1.9655,379.7582],
    [2123,1532795951,56.9069,-111.2004,625.6,194.7,360.9,-0.6,4.2,22.36,52.07,1.9622,378.2706],
    [2124,1532795952,56.9075,-111.2004,625.9,192.2,360.6,-0.1,4.2,22.28,52.33,1.9602,379.2403],
    [2125,1532795953,56.9081,-111.2004,627.1,193.1,359.7,0.5,3.7,22.11,52.94,1.9583,378.4884],
    [2126,1532795954,56.9087,-111.2004,628.9,194.9,359.3,0.5,3.8,21.86,52.42,1.9627,378.4884],
    [2127,1532795955,56.9093,-111.2004,630.3,197.0,358.2,1.0,3.4,21.8,51.81,1.9623,378.807],
    [2128,1532795956,56.9099,-111.2004,630.3,197.2,357.9,0.9,3.4,22.92,51.43,1.9586,378.1063],
    [2129,1532795957,56.9105,-111.2004,629.2,197.2,357.8,1.1,2.9,22.54,51.42,1.9566,379.459],
    [2130,1532795958,56.911,-111.2004,627.9,195.9,358.0,1.1,2.4,22.42,51.32,1.9577,379.459],
    [2131,1532795959,56.9116,-111.2004,626.4,193.4,359.3,0.1,2.5,21.97,51.5,1.9607,378.9072],
    [2132,1532795960,56.9122,-111.2005,624.8,192.9,359.1,0.5,2.5,21.86,51.11,1.9536,377.4727],
    [2133,1532795961,56.9128,-111.2005,622.7,189.7,358.0,1.4,1.9,22.64,50.76,1.9508,378.7104],
    [2134,1532795962,56.9134,-111.2005,619.7,186.3,358.3,0.8,2.0,22.1,51.69,1.9451,378.036],
    [2135,1532795963,56.9141,-111.2005,616.5,187.6,357.7,1.2,2.6,22.47,50.54,1.946,379.3348],
    [2136,1532795964,56.9147,-111.2005,614.0,192.0,358.0,1.1,3.1,21.87,51.12,1.9471,378.4713],
    [2137,1532795965,56.9153,-111.2005,610.6,190.6,359.2,0.3,3.5,22.08,50.42,1.948,378.0827],
    [2138,1532795966,56.9159,-111.2005,607.9,179.3,360.0,0.3,4.0,22.2,50.57,1.9569,380.0635],
    [2139,1532795967,56.9165,-111.2005,606.6,169.8,360.2,0.7,3.9,21.78,50.16,1.9625,380.0673],
    [2140,1532795968,56.9172,-111.2005,605.8,164.8,360.7,0.6,3.6,22.07,50.91,1.9639,380.1713],
    [2141,1532795969,56.9178,-111.2005,605.5,162.5,361.4,0.1,4.2,21.89,51.19,1.9649,380.3369],
    [2142,1532795970,56.9184,-111.2005,605.3,161.3,360.5,1.5,4.7,22.04,51.52,1.9668,380.3686],
    [2143,1532795971,56.919,-111.2004,604.9,159.9,359.7,2.1,4.6,21.83,51.61,1.9659,379.8619],
    [2144,1532795972,56.9197,-111.2004,603.9,158.9,360.4,1.4,4.1,21.97,51.78,1.961,379.6135],
    [2145,1532795973,56.9203,-111.2004,603.2,158.2,360.3,1.1,4.5,21.57,52.36,1.9567,380.0501],
    [2146,1532795974,56.9209,-111.2003,603.2,157.5,360.6,0.3,4.8,21.38,52.01,1.9559,379.6897],
    [2147,1532795975,56.9216,-111.2003,603.2,157.2,360.6,-0.2,5.3,22.03,51.89,1.9522,379.0192],
    [2148,1532795976,56.9222,-111.2003,603.5,157.5,358.9,0.9,5.1,21.84,51.85,1.955,378.2264],
    [2149,1532795977,56.9228,-111.2003,604.4,158.4,358.2,1.0,5.2,22.09,51.83,1.9536,378.1734],
    [2150,1532795978,56.9234,-111.2004,605.6,160.6,358.2,0.7,4.6,22.0,51.56,1.9546,378.1916],
    [2151,1532795979,56.924,-111.2004,606.9,161.9,358.4,0.3,4.8,22.09,51.77,1.956,379.4675],
    [2152,1532795980,56.9247,-111.2004,608.1,164.1,358.5,0.4,5.0,21.44,51.43,1.9557,378.5584],
    [2153,1532795981,56.9253,-111.2004,609.5,165.5,357.5,1.2,4.6,21.92,51.57,1.9577,379.0243],
    [2154,1532795982,56.9259,-111.2005,610.6,166.6,358.3,0.4,3.3,22.0,51.77,1.9592,379.5141],
    [2155,1532795983,56.9265,-111.2005,611.7,167.7,357.7,1.1,4.1,21.97,52.01,1.9545,378.7516],
    [2156,1532795984,56.9271,-111.2005,613.1,169.1,357.7,0.7,5.0,21.72,52.02,1.9373,378.1249],
    [2157,1532795985,56.9277,-111.2005,613.8,169.8,358.3,0.4,4.6,22.47,50.96,1.9384,376.9764],
    [2158,1532795986,56.9283,-111.2006,614.9,170.9,357.7,1.4,4.5,22.03,51.08,1.9458,378.6533],
    [2159,1532795987,56.9289,-111.2006,616.0,172.0,359.5,0.3,4.5,22.68,50.12,1.9456,378.6418],
    [2160,1532795988,56.9295,-111.2006,616.8,171.8,361.6,-0.6,4.6,22.78,50.07,1.9409,378.2075],
    [2161,1532795989,56.9301,-111.2005,617.1,171.4,360.7,1.6,4.4,22.13,49.96,1.9421,379.149],
    [2162,1532795990,56.9307,-111.2005,617.6,171.6,360.0,2.7,4.2,21.87,50.45,1.9433,376.9821],
    [2163,1532795991,56.9313,-111.2004,617.9,170.9,361.9,1.0,4.7,21.95,50.49,1.9425,376.9821],
    [2164,1532795992,56.9319,-111.2004,618.1,171.1,2.6,0.7,4.8,21.52,50.34,1.9413,378.5551],
    [2165,1532795993,56.9325,-111.2003,618.0,171.0,2.5,1.0,4.5,22.12,50.38,1.9409,377.8775],
    [2166,1532795994,56.9331,-111.2003,617.9,170.9,3.0,0.6,3.8,21.94,50.75,1.9463,379.5501],
    [2167,1532795995,56.9337,-111.2002,617.7,170.7,3.5,0.0,3.2,22.07,50.41,1.954,378.9483],
    [2168,1532795996,56.9343,-111.2001,617.4,169.4,3.4,0.0,3.4,21.9,51.4,1.9524,379.127],
    [2169,1532795997,56.9349,-111.2001,617.1,169.1,362.3,1.0,3.6,22.17,50.51,1.9427,378.8443],
    [2170,1532795998,56.9355,-111.2,616.9,169.9,361.9,1.2,3.5,21.7,50.99,1.9426,378.3494],
    [2171,1532795999,56.9361,-111.2,616.5,169.5,361.8,1.3,3.6,22.3,50.31,1.9465,379.5561],
    [2172,1532796000,56.9367,-111.1999,615.8,167.9,361.3,1.7,3.7,22.08,50.45,1.9356,376.6599],
    [2173,1532796001,56.9373,-111.1999,614.7,166.4,362.1,0.6,3.2,21.93,50.51,1.9378,378.6219],
    [2174,1532796002,56.9379,-111.1998,613.5,164.5,2.5,0.1,3.1,22.4,49.43,1.9408,379.2066],
    [2175,1532796003,56.9386,-111.1998,612.3,163.3,361.5,0.9,2.6,21.88,49.82,1.9426,379.2066],
    [2176,1532796004,56.9392,-111.1997,611.1,161.1,360.8,1.1,1.9,21.36,49.67,1.9499,379.4912],
    [2177,1532796005,56.9398,-111.1997,609.7,159.7,362.1,-0.3,2.2,22.05,50.4,1.9497,380.5329],
    [2178,1532796006,56.9404,-111.1997,608.7,158.7,361.0,0.7,2.8,21.71,50.64,1.9485,379.9029],
    [2179,1532796007,56.941,-111.1996,608.0,158.0,359.9,1.0,3.5,22.69,49.97,1.9487,379.0671],
    [2180,1532796008,56.9416,-111.1996,607.1,157.1,359.4,0.8,4.1,22.67,49.73,1.9485,378.5202],
    [2181,1532796009,56.9423,-111.1996,606.0,155.0,358.8,0.6,3.1,21.97,51.05,1.9476,379.0983],
    [2182,1532796010,56.9429,-111.1997,605.1,154.1,357.6,1.1,2.4,22.08,50.29,1.9528,379.5999],
    [2183,1532796011,56.9435,-111.1997,604.4,153.4,356.8,1.1,3.0,22.14,50.72,1.9529,379.5003],
    [2184,1532796012,56.9441,-111.1997,603.8,153.3,357.3,0.1,1.7,22.04,50.66,1.9518,380.7819],
    [2185,1532796013,56.9448,-111.1998,602.9,152.9,357.3,0.5,2.1,22.15,50.77,1.9487,379.3703],
    [2186,1532796014,56.9454,-111.1998,601.2,151.2,357.9,0.6,3.2,21.95,50.75,1.9447,377.9105],
    [2187,1532796015,56.9461,-111.1999,600.4,150.4,358.7,0.2,3.6,21.75,50.41,1.9488,378.7135],
    [2188,1532796016,56.9467,-111.1999,600.3,150.3,361.3,-1.0,4.4,22.09,50.31,1.9486,380.1825],
    [2189,1532796017,56.9473,-111.1998,600.4,150.5,360.7,0.7,4.8,21.86,50.19,1.9469,379.9874],
    [2190,1532796018,56.9479,-111.1998,602.0,153.0,362.0,-0.3,4.4,22.17,50.2,1.9487,379.1308],
    [2191,1532796019,56.9486,-111.1998,603.1,154.1,362.0,-0.1,3.8,22.08,50.21,1.947,379.08],
    [2192,1532796020,56.9492,-111.1997,603.9,154.9,360.4,1.1,4.3,22.59,50.02,1.9421,378.7556],
    [2193,1532796021,56.9498,-111.1997,604.7,155.7,360.7,0.1,3.7,22.08,50.86,1.94,378.7211],
    [2194,1532796022,56.9505,-111.1997,604.6,155.6,360.0,0.3,3.1,22.07,50.1,1.9391,378.4317],
    [2195,1532796023,56.9511,-111.1997,604.9,156.6,358.3,1.3,3.6,22.42,49.56,1.9393,379.4077],
    [2196,1532796024,56.9517,-111.1997,605.1,157.1,358.7,0.1,3.7,21.96,49.86,1.9387,376.9953],
    [2197,1532796025,56.9523,-111.1998,604.2,156.2,357.6,1.3,3.2,22.6,49.5,1.9369,377.7135],
    [2198,1532796026,56.953,-111.1998,603.5,155.5,355.8,2.9,2.9,22.15,49.79,1.9441,377.7135],
    [2199,1532796027,56.9536,-111.1998,602.6,155.6,357.5,0.9,2.8,22.01,50.01,1.9474,379.1202],
    [2200,1532796028,56.9542,-111.1999,602.0,155.0,358.1,0.7,3.8,22.08,50.05,1.9452,378.8704],
    [2201,1532796029,56.9548,-111.1999,602.1,155.1,357.0,1.8,4.2,22.54,49.88,1.9482,377.8035],
    [2202,1532796030,56.9555,-111.1999,602.5,155.8,357.9,0.9,3.9,21.85,50.42,1.9474,379.5899],
    [2203,1532796031,56.9561,-111.1999,603.1,157.0,357.3,1.5,3.7,21.95,50.18,1.9494,379.5899],
    [2204,1532796032,56.9567,-111.2,605.0,159.0,357.1,1.4,3.4,21.78,50.46,1.9519,379.5083],
    [2205,1532796033,56.9573,-111.2,606.0,160.0,356.5,1.7,3.2,21.85,50.53,1.9503,379.7315],
    [2206,1532796034,56.958,-111.2,607.2,161.2,356.0,1.7,3.4,22.56,50.46,1.9492,379.3507],
    [2207,1532796035,56.9586,-111.2001,607.7,161.7,357.1,0.3,3.6,22.46,50.43,1.947,379.3367],
    [2208,1532796036,56.9592,-111.2001,607.8,161.8,358.6,-0.9,4.6,22.24,51.56,1.9427,379.4803],
    [2209,1532796037,56.9598,-111.2002,608.3,162.2,358.1,-0.2,3.9,22.21,50.93,1.9367,377.5483],
    [2210,1532796038,56.9604,-111.2002,609.6,163.3,358.0,0.1,4.5,22.1,50.42,1.9268,377.2087],
    [2211,1532796039,56.9611,-111.2002,611.1,164.1,357.7,0.5,4.3,22.87,49.12,1.9297,376.5109],
    [2212,1532796040,56.9617,-111.2003,612.5,165.5,358.0,0.3,2.9,22.29,49.1,1.9371,378.8757],
    [2213,1532796041,56.9623,-111.2003,613.6,166.6,357.3,1.4,3.0,22.23,49.68,1.9462,379.1406],
    [2214,1532796042,56.9629,-111.2003,613.7,166.7,357.1,1.8,3.2,22.01,49.3,1.9448,378.4642],
    [2215,1532796043,56.9635,-111.2003,612.5,165.5,359.9,-0.1,2.9,22.19,49.55,1.9413,379.0554],
    [2216,1532796044,56.9641,-111.2003,611.0,164.0,360.7,0.0,3.1,23.06,49.27,1.9416,379.0554],
    [2217,1532796045,56.9647,-111.2003,610.1,163.1,360.8,0.1,3.0,22.16,50.48,1.9378,378.8584],
    [2218,1532796046,56.9654,-111.2003,610.2,163.2,361.6,-0.2,2.8,22.78,48.96,1.9356,379.1263],
    [2219,1532796047,56.966,-111.2003,610.5,163.5,360.7,1.0,1.8,23.12,49.17,1.9421,378.1611],
    [2220,1532796048,56.9666,-111.2002,611.0,165.0,361.5,0.0,1.3,22.22,49.68,1.9417,378.2293],
    [2221,1532796049,56.9672,-111.2002,611.4,165.4,361.2,0.3,1.4,22.39,49.52,1.9408,378.8451],
    [2222,1532796050,56.9678,-111.2002,610.8,164.8,360.9,0.4,1.7,22.05,49.91,1.9398,378.4393],
    [2223,1532796051,56.9684,-111.2002,609.7,163.7,360.6,0.6,1.6,22.3,49.92,1.9404,379.0347],
    [2224,1532796052,56.9691,-111.2002,609.4,163.4,359.8,1.0,1.8,22.23,50.66,1.9414,379.0148],
    [2225,1532796053,56.9697,-111.2001,610.1,164.1,359.9,0.4,1.8,22.27,49.69,1.9426,379.7103],
    [2226,1532796054,56.9703,-111.2001,610.8,164.8,360.8,-0.8,1.5,22.42,49.62,1.9403,379.5106],
    [2227,1532796055,56.9709,-111.2001,611.0,165.0,359.9,0.2,1.5,22.5,49.35,1.9381,378.1453],
    [2228,1532796056,56.9715,-111.2001,610.8,164.8,359.1,0.7,1.7,22.42,50.04,1.9387,378.1453],
    [2229,1532796057,56.9722,-111.2002,610.0,164.0,359.3,0.2,2.2,22.1,49.92,1.9337,377.2512],
    [2230,1532796058,56.9728,-111.2002,608.7,162.7,358.6,0.7,2.2,22.62,48.86,1.9315,377.1082],
    [2231,1532796059,56.9734,-111.2002,607.0,161.0,358.6,0.4,2.9,22.57,48.77,1.9302,377.9656],
    [2232,1532796060,56.974,-111.2002,605.0,159.0,358.2,0.3,3.8,23.06,47.71,1.9309,378.7098],
    [2233,1532796061,56.9747,-111.2002,602.8,157.5,358.8,-0.6,4.1,22.79,47.89,1.9326,378.4224],
    [2234,1532796062,56.9753,-111.2003,601.1,156.1,358.5,0.0,4.5,22.1,48.18,1.929,377.1868],
    [2235,1532796063,56.9759,-111.2003,601.3,157.0,357.3,1.3,4.3,22.58,48.54,1.9279,377.6795],
    [2236,1532796064,56.9765,-111.2003,602.9,158.9,358.6,0.3,3.7,21.97,47.93,1.9316,377.592],
    [2237,1532796065,56.9772,-111.2003,603.8,160.8,359.3,0.4,2.5,21.97,47.96,1.9391,378.2605],
    [2238,1532796066,56.9778,-111.2003,603.9,161.9,360.3,0.1,1.9,22.29,48.3,1.9401,376.7348],
    [2239,1532796067,56.9784,-111.2003,603.3,162.4,361.9,-0.5,2.5,22.39,48.72,1.9402,378.5128],
    [2240,1532796068,56.9791,-111.2003,602.6,162.7,361.1,1.1,2.9,21.84,49.21,1.9387,378.064],
    [2241,1532796069,56.9797,-111.2002,602.1,163.1,361.6,0.7,3.3,22.1,49.43,1.9397,378.1833],
    [2242,1532796070,56.9803,-111.2002,601.7,163.7,362.2,0.4,3.4,22.1,49.43,1.9394,379.5892],
    [2243,1532796071,56.9809,-111.2002,601.8,163.8,2.8,-0.1,3.5,21.88,49.73,1.9372,378.3938],
    [2244,1532796072,56.9816,-111.2001,602.1,164.1,3.7,-0.5,3.2,22.4,49.7,1.9373,379.335],
    [2245,1532796073,56.9822,-111.2,602.5,164.5,4.0,-0.6,3.3,22.57,49.22,1.9351,379.335],
    [2246,1532796074,56.9828,-111.2,603.0,165.0,4.0,-0.3,4.0,23.23,48.56,1.9375,379.4558],
    [2247,1532796075,56.9835,-111.1999,603.3,165.3,3.5,0.0,4.1,22.42,49.45,1.9361,377.7368],
    [2248,1532796076,56.9841,-111.1998,603.7,164.9,3.1,0.4,3.8,22.25,49.03,1.9355,378.6603],
    [2249,1532796077,56.9848,-111.1997,604.4,165.7,2.7,0.7,4.4,22.43,48.71,1.9362,379.1935],
    [2250,1532796078,56.9854,-111.1997,606.0,167.0,3.3,0.0,4.8,23.08,48.32,1.9361,378.6215],
    [2251,1532796079,56.986,-111.1996,607.7,169.7,2.5,0.5,4.3,22.45,49.47,1.9357,378.3763],
    [2252,1532796080,56.9866,-111.1996,609.6,171.6,362.4,0.5,3.9,22.46,49.05,1.9334,378.9965],
    [2253,1532796081,56.9873,-111.1995,610.9,172.9,362.2,0.3,3.5,22.62,48.31,1.9322,377.8914],
    [2254,1532796082,56.9879,-111.1995,611.7,174.7,2.8,-0.8,3.7,22.67,48.17,1.9302,377.1858],
    [2255,1532796083,56.9885,-111.1994,612.0,175.0,361.1,0.2,3.6,22.37,48.72,1.9264,378.2572],
    [2256,1532796084,56.9891,-111.1994,611.6,174.6,358.8,1.1,3.3,22.03,48.29,1.9247,378.5191],
    [2257,1532796085,56.9897,-111.1995,610.4,173.4,358.7,0.1,3.3,22.06,47.9,1.9236,377.9539],
    [2258,1532796086,56.9903,-111.1995,609.0,172.0,358.2,-0.2,3.6,22.08,47.47,1.9225,377.9539],
    [2259,1532796087,56.991,-111.1995,607.5,170.5,357.6,-0.1,3.5,21.97,47.32,1.9252,378.1159],
    [2260,1532796088,56.9916,-111.1996,605.8,167.7,356.3,0.9,4.1,22.77,46.7,1.9275,378.32],
    [2261,1532796089,56.9922,-111.1996,604.2,166.2,356.1,0.6,4.2,22.87,46.45,1.931,378.6393],
    [2262,1532796090,56.9928,-111.1997,603.1,165.1,355.8,0.8,3.9,22.59,47.02,1.9272,377.9584],
    [2263,1532796091,56.9935,-111.1998,602.5,165.4,355.5,1.0,4.3,22.87,47.02,1.9238,377.4148],
    [2264,1532796092,56.9941,-111.1998,602.3,165.3,355.4,1.0,4.3,22.13,47.15,1.9255,377.4148],
    [2265,1532796093,56.9947,-111.1999,601.8,164.8,355.7,1.0,4.1,22.41,47.0,1.9302,378.9646],
    [2266,1532796094,56.9953,-111.2,600.6,163.0,356.8,0.4,4.4,22.57,47.33,1.9306,378.2871],
    [2267,1532796095,56.996,-111.2,599.1,162.2,357.6,0.3,4.8,22.69,47.37,1.9295,377.227],
    [2268,1532796096,56.9966,-111.2001,598.0,161.0,357.3,0.6,5.0,22.43,47.73,1.9332,378.9313],
    [2269,1532796097,56.9972,-111.2001,597.5,160.3,358.1,0.0,4.3,22.38,47.81,1.9298,379.1167],
    [2270,1532796098,56.9978,-111.2001,596.9,159.7,358.6,-0.2,4.0,22.77,47.25,1.9286,378.8255],
    [2271,1532796099,56.9985,-111.2002,596.5,159.3,358.8,0.0,4.3,22.67,47.63,1.9277,377.8997],
    [2272,1532796100,56.9991,-111.2002,596.0,158.2,359.8,-0.5,4.8,22.14,47.71,1.9271,378.0924],
    [2273,1532796101,56.9997,-111.2002,595.6,157.4,359.9,-0.4,4.8,22.34,47.27,1.9302,378.214],
    [2274,1532796102,57.0004,-111.2002,596.0,157.7,358.9,0.9,4.2,22.99,46.78,1.9354,379.2117],
    [2275,1532796103,57.001,-111.2002,597.0,159.0,358.1,1.6,4.3,22.31,48.36,1.9337,379.0808],
    [2276,1532796104,57.0017,-111.2002,597.4,159.3,359.3,0.4,4.5,23.21,47.75,1.9329,379.6555],
    [2277,1532796105,57.0023,-111.2002,597.3,159.2,359.6,0.6,4.6,22.37,48.19,1.9334,378.588],
    [2278,1532796106,57.0029,-111.2002,596.9,158.6,359.1,1.2,4.9,22.59,48.15,1.9332,378.588],
    [2279,1532796107,57.0036,-111.2002,596.5,158.3,360.7,-0.1,4.7,22.69,48.12,1.9368,378.9006],
    [2280,1532796108,57.0042,-111.2002,596.7,157.7,361.0,0.2,4.6,22.8,47.86,1.9369,378.2553],
    [2281,1532796109,57.0048,-111.2002,596.8,157.8,360.7,0.7,4.7,22.72,48.35,1.9358,378.9753],
    [2282,1532796110,57.0054,-111.2001,596.9,157.9,360.8,0.4,3.8,22.48,48.8,1.9374,380.0829],
    [2283,1532796111,57.0061,-111.2001,597.2,158.2,360.9,0.0,3.7,22.27,48.74,1.9378,378.2108],
    [2284,1532796112,57.0067,-111.2001,597.5,158.5,360.6,0.2,4.1,22.83,48.56,1.934,379.0634],
    [2285,1532796113,57.0073,-111.2001,597.9,158.9,360.1,0.5,3.9,22.44,48.49,1.9314,377.6061],
    [2286,1532796114,57.0079,-111.2001,598.2,159.2,359.2,1.3,3.1,22.34,48.91,1.9364,377.6061],
    [2287,1532796115,57.0085,-111.2001,597.8,158.8,358.7,1.8,2.3,22.44,49.28,1.938,377.4896],
    [2288,1532796116,57.0092,-111.2001,596.9,157.9,359.1,1.3,1.6,22.64,48.89,1.9387,378.0892],
    [2289,1532796117,57.0098,-111.2001,596.0,157.0,360.4,0.2,2.9,22.39,49.18,1.9374,378.0892],
    [2290,1532796118,57.0104,-111.2,595.5,157.2,360.2,0.4,2.8,22.65,49.04,1.9344,377.4375],
    [2291,1532796119,57.0111,-111.2,596.3,158.0,360.7,-0.3,3.3,22.15,49.17,1.9306,378.0577],
    [2292,1532796120,57.0117,-111.2,597.7,158.8,359.9,0.4,3.4,22.39,48.73,1.9285,378.4642],
    [2293,1532796121,57.0123,-111.2,598.4,159.4,359.9,0.2,4.0,22.53,48.62,1.9277,378.0378],
    [2294,1532796122,57.0129,-111.2,599.1,160.1,361.2,-1.2,3.7,22.02,48.45,1.9324,378.5039],
    [2295,1532796123,57.0136,-111.2,599.6,160.6,361.6,-1.3,4.2,22.47,47.49,1.9322,379.1303],
    [2296,1532796124,57.0142,-111.2,599.5,160.5,360.2,0.7,4.5,23.01,47.47,1.9315,379.367],
    [2297,1532796125,57.0148,-111.2,599.0,160.0,359.5,1.6,4.2,22.37,47.83,1.931,377.7043],
    [2298,1532796126,57.0155,-111.2,598.1,159.1,360.9,0.1,3.9,21.81,47.95,1.9272,379.2283],
    [2299,1532796127,57.0161,-111.1999,597.5,158.5,361.1,-0.3,3.7,22.82,47.54,1.9239,379.0045],
    [2300,1532796128,57.0168,-111.1999,596.6,157.6,360.6,0.1,3.8,22.31,48.31,1.9275,377.2328],
    [2301,1532796129,57.0174,-111.1999,595.7,156.7,360.4,0.4,4.1,22.41,47.06,1.9268,378.5173],
    [2302,1532796130,57.018,-111.1999,594.8,155.8,360.5,0.5,4.2,21.84,46.68,1.9225,378.5632],
    [2303,1532796131,57.0186,-111.1999,593.5,154.5,360.5,0.7,4.4,22.39,46.77,1.9231,378.8204],
    [2304,1532796132,57.0193,-111.1999,592.2,153.2,360.4,0.8,4.8,23.29,46.27,1.924,377.6847],
    [2305,1532796133,57.0199,-111.1998,591.0,152.0,360.2,1.1,5.0,22.87,46.42,1.9251,378.0342],
    [2306,1532796134,57.0205,-111.1998,590.3,151.3,359.7,1.5,5.2,22.44,46.7,1.9274,380.3256],
    [2307,1532796135,57.0212,-111.1998,590.5,151.5,360.4,0.6,5.3,22.28,47.05,1.9263,377.9662],
    [2308,1532796136,57.0218,-111.1998,591.3,152.3,360.8,0.1,5.8,22.5,46.96,1.9254,378.6388],
    [2309,1532796137,57.0224,-111.1998,592.0,152.2,359.6,1.1,5.4,22.5,46.58,1.9255,379.3231],
    [2310,1532796138,57.023,-111.1998,593.1,153.1,359.1,1.5,5.3,22.51,47.31,1.9265,379.1569],
    [2311,1532796139,57.0237,-111.1998,594.1,154.1,359.7,0.8,5.5,22.82,46.38,1.928,378.3397],
    [2312,1532796140,57.0243,-111.1997,595.2,155.2,360.3,0.2,5.4,22.22,46.81,1.9292,378.3806],
    [2313,1532796141,57.0249,-111.1997,596.4,156.4,360.4,0.0,4.4,22.88,46.86,1.9272,377.8024],
    [2314,1532796142,57.0255,-111.1997,597.6,157.6,360.1,0.2,4.1,22.25,47.69,1.9264,377.7327],
    [2315,1532796143,57.0261,-111.1997,598.7,158.0,359.3,0.6,4.8,22.58,46.65,1.9283,378.2938],
    [2316,1532796144,57.0267,-111.1997,599.7,158.7,358.6,0.6,5.2,22.51,47.22,1.9282,378.2938],
    [2317,1532796145,57.0274,-111.1998,600.8,159.8,357.8,0.9,5.4,22.88,47.26,1.9279,377.8276],
    [2318,1532796146,57.028,-111.1998,601.8,160.8,357.2,1.1,4.8,22.56,47.77,1.9273,377.7664],
    [2319,1532796147,57.0286,-111.1998,602.9,161.9,358.2,0.0,4.2,22.56,46.99,1.9282,378.1407],
    [2320,1532796148,57.0292,-111.1999,604.0,162.3,357.9,0.4,3.5,23.05,47.02,1.9329,378.6692],
    [2321,1532796149,57.0298,-111.1999,606.1,164.1,358.0,0.2,3.6,22.56,47.74,1.934,377.9689],
    [2322,1532796150,57.0304,-111.1999,607.6,165.6,357.7,0.4,3.8,22.35,47.68,1.9325,377.7966],
    [2323,1532796151,57.031,-111.2,608.2,166.2,356.6,1.0,4.3,22.35,47.93,1.9287,378.709],
    [2324,1532796152,57.0316,-111.2,606.9,164.9,357.2,0.6,4.2,22.51,48.26,1.928,378.4164],
    [2325,1532796153,57.0322,-111.2,605.7,163.7,357.8,0.5,3.8,22.89,47.76,1.9271,378.1082],
    [2326,1532796154,57.0328,-111.2001,605.6,162.6,358.7,-0.1,4.1,22.6,48.42,1.9279,378.3451],
    [2327,1532796155,57.0334,-111.2001,605.2,162.2,358.9,0.0,4.4,22.94,47.31,1.9267,378.3451],
    [2328,1532796156,57.034,-111.2001,604.2,161.2,358.4,0.8,4.4,22.64,47.54,1.9273,378.493],
    [2329,1532796157,57.0346,-111.2001,603.2,160.2,357.8,1.4,4.1,23.16,47.27,1.9288,378.1112],
    [2330,1532796158,57.0352,-111.2001,601.8,158.8,358.5,1.0,4.2,23.31,47.23,1.9324,377.3795],
    [2331,1532796159,57.0358,-111.2001,600.5,157.4,360.3,0.1,4.3,22.47,47.58,1.9311,377.8104],
    [2332,1532796160,57.0364,-111.2001,599.6,155.6,360.8,0.6,4.0,22.56,48.21,1.9294,378.6468],
    [2333,1532796161,57.0371,-111.2001,599.3,155.3,361.6,0.3,4.3,22.79,48.03,1.931,378.3261],
    [2334,1532796162,57.0377,-111.2001,598.9,154.9,362.2,0.0,4.8,23.33,47.51,1.9282,378.0031],
    [2335,1532796163,57.0383,-111.2,598.5,154.5,362.4,-0.1,4.6,21.9,48.23,1.9272,378.1578],
    [2336,1532796164,57.0389,-111.2,598.3,154.3,2.7,-0.3,4.5,21.85,48.14,1.9265,378.134],
    [2337,1532796165,57.0395,-111.1999,597.8,153.8,362.2,-0.1,3.7,22.23,48.12,1.9273,377.1543],
    [2338,1532796166,57.0401,-111.1999,597.4,153.4,362.5,-0.6,4.3,22.29,47.57,1.9294,377.9821],
    [2339,1532796167,57.0407,-111.1999,596.8,152.8,361.0,0.7,4.1,22.61,47.27,1.931,378.1821],
    [2340,1532796168,57.0413,-111.1998,595.5,151.5,360.0,1.4,4.4,22.94,46.85,1.9326,378.6034],
    [2341,1532796169,57.0419,-111.1998,594.1,150.1,360.2,0.9,5.2,22.48,47.88,1.9303,378.6034],
    [2342,1532796170,57.0425,-111.1998,593.4,149.4,360.5,0.5,6.0,21.87,48.0,1.9314,378.053],
    [2343,1532796171,57.0431,-111.1998,593.6,149.6,360.3,0.6,5.6,22.58,47.85,1.9298,378.3052],
    [2344,1532796172,57.0438,-111.1998,593.9,149.2,359.9,0.7,5.3,22.79,47.66,1.9275,378.3851],
    [2345,1532796173,57.0444,-111.1998,594.6,149.6,359.0,1.0,4.5,22.23,48.14,1.9289,378.3851],
    [2346,1532796174,57.045,-111.1998,596.2,151.2,359.3,0.1,4.8,22.59,48.59,1.929,378.3608],
    [2347,1532796175,57.0456,-111.1998,596.7,151.7,359.2,0.2,4.5,22.67,47.65,1.9311,377.5656],
    [2348,1532796176,57.0462,-111.1998,596.6,151.6,358.2,1.3,4.9,22.58,48.44,1.9317,378.2689],
    [2349,1532796177,57.0468,-111.1998,597.2,151.5,359.4,0.2,3.9,22.19,48.18,1.9316,378.2689],
    [2350,1532796178,57.0474,-111.1998,598.3,152.3,360.2,0.0,4.1,23.16,47.56,1.9304,378.3444],
    [2351,1532796179,57.048,-111.1998,598.9,152.9,359.7,0.5,4.6,22.49,48.48,1.9314,377.6663],
    [2352,1532796180,57.0486,-111.1998,599.1,152.4,361.0,-0.5,4.5,23.07,47.74,1.9308,377.5792],
    [2353,1532796181,57.0492,-111.1998,600.7,153.8,359.4,1.4,4.1,22.1,48.58,1.9308,378.4697],
    [2354,1532796182,57.0497,-111.1998,602.5,154.2,358.2,2.1,3.3,22.58,48.53,1.9318,377.9297],
    [2355,1532796183,57.0503,-111.1998,604.5,155.5,358.7,1.2,3.3,22.37,48.61,1.9317,378.9316],
    [2356,1532796184,57.0509,-111.1998,606.2,155.5,357.7,1.8,3.7,21.98,48.47,1.9311,378.3641],
    [2357,1532796185,57.0515,-111.1998,606.9,154.9,357.6,1.7,3.4,21.94,48.48,1.9323,378.3641],
    [2358,1532796186,57.0521,-111.1998,607.1,154.1,359.2,0.3,3.2,22.45,49.38,1.9299,378.3031],
    [2359,1532796187,57.0527,-111.1998,607.3,153.4,360.5,-0.4,3.4,22.66,48.15,1.9272,377.9759],
    [2360,1532796188,57.0533,-111.1998,607.9,152.9,360.3,0.5,3.7,22.92,47.88,1.9267,378.2861],
    [2361,1532796189,57.0539,-111.1998,608.6,152.6,360.6,0.5,3.6,23.09,48.01,1.9275,378.1694],
    [2362,1532796190,57.0545,-111.1998,608.9,151.9,361.1,0.1,3.2,22.7,48.23,1.9278,377.7956],
    [2363,1532796191,57.0551,-111.1997,608.7,151.7,360.9,-0.4,3.7,23.0,46.87,1.9262,378.9222],
    [2364,1532796192,57.0557,-111.1998,608.1,150.0,360.3,-1.7,4.5,21.92,47.78,1.9235,378.3197],
    [2365,1532796193,57.0563,-111.1998,607.4,149.4,355.8,-1.5,4.6,22.6,47.83,1.9243,377.6335],
    [2366,1532796194,57.0568,-111.2,607.7,149.8,348.4,-0.7,4.8,21.92,47.21,1.9233,377.1696],
    [2367,1532796195,57.0574,-111.2002,609.1,151.0,340.0,1.2,5.0,22.93,46.4,1.9189,378.1438],
    [2368,1532796196,57.058,-111.2006,611.3,155.3,331.5,2.5,4.6,22.4,46.87,1.9222,378.0519],
    [2369,1532796197,57.0585,-111.2011,613.7,159.4,325.3,2.0,4.5,22.6,46.93,1.9187,377.8955],
    [2370,1532796198,57.059,-111.2017,615.6,163.5,320.0,1.4,4.2,22.62,46.48,1.9238,378.1929],
    [2371,1532796199,57.0594,-111.2024,616.4,166.2,314.7,1.7,3.4,22.19,46.41,1.9185,377.8198],
    [2372,1532796200,57.0598,-111.2031,616.4,167.4,308.0,2.8,4.1,23.13,45.59,1.9236,379.5217],
    [2373,1532796201,57.0602,-111.2039,615.1,166.1,301.7,3.1,4.3,22.55,46.48,1.9257,378.2691],
    [2374,1532796202,57.0605,-111.2048,612.8,163.8,296.3,2.6,5.1,23.18,45.8,1.9266,378.4252],
    [2375,1532796203,57.0608,-111.2057,610.0,161.0,290.0,2.1,5.0,22.86,45.94,1.9287,377.8737],
    [2376,1532796204,57.061,-111.2066,607.1,158.1,283.6,2.2,5.6,22.59,47.29,1.9308,378.5025],
    [2377,1532796205,57.0611,-111.2076,604.0,156.0,277.5,2.1,5.5,22.39,47.34,1.9312,377.7974],
    [2378,1532796206,57.0612,-111.2086,601.8,154.8,271.4,1.5,5.6,22.5,47.63,1.9345,378.466],
    [2379,1532796207,57.0612,-111.2096,600.5,154.5,266.5,0.8,4.8,22.8,48.17,1.9353,378.9161],
    [2380,1532796208,57.0612,-111.2106,599.3,155.4,262.5,1.7,4.5,23.06,48.1,1.9359,379.0636],
    [2381,1532796209,57.0612,-111.2116,598.2,154.5,257.6,1.6,5.3,22.53,49.39,1.9348,377.0556],
    [2382,1532796210,57.0611,-111.2126,597.9,154.6,253.7,1.6,5.8,23.25,49.2,1.9314,377.8735],
    [2383,1532796211,57.061,-111.2136,596.9,154.0,252.4,1.8,5.1,23.03,49.12,1.9303,378.3596],
    [2384,1532796212,57.0608,-111.2146,595.6,152.7,251.2,1.5,5.4,22.17,49.08,1.9312,379.4679],
    [2385,1532796213,57.0607,-111.2156,593.0,150.0,252.3,1.5,4.4,22.33,48.81,1.9352,378.3333],
    [2386,1532796214,57.0606,-111.2166,592.1,149.1,254.7,1.7,3.3,22.74,48.54,1.9371,379.0695],
    [2387,1532796215,57.0604,-111.2176,591.5,148.5,255.0,1.1,4.2,22.34,49.03,1.9345,377.8808],
    [2388,1532796216,57.0603,-111.2185,590.1,147.1,255.5,0.8,4.1,22.58,49.32,1.9354,378.0025],
    [2389,1532796217,57.0602,-111.2196,588.1,144.8,257.8,0.7,2.7,22.59,49.87,1.9367,377.9359],
    [2390,1532796218,57.0601,-111.2206,587.4,145.2,257.6,0.4,4.5,22.58,49.95,1.936,378.4829],
    [2391,1532796219,57.0601,-111.2216,587.5,145.6,259.3,0.0,4.1,22.66,50.36,1.9354,378.1798],
    [2392,1532796220,57.06,-111.2226,587.2,146.7,262.9,-0.3,2.3,23.31,49.67,1.9339,378.5255],
    [2393,1532796221,57.06,-111.2237,586.9,147.2,264.2,-0.5,3.0,22.6,50.09,1.9327,377.4065],
    [2394,1532796222,57.0599,-111.2247,587.2,148.5,266.1,-0.9,2.4,22.56,50.19,1.9363,377.9553],
    [2395,1532796223,57.0599,-111.2258,588.7,151.8,268.5,-0.9,1.3,22.39,49.69,1.9385,378.8952],
    [2396,1532796224,57.0599,-111.2268,591.0,155.1,268.5,-0.2,2.2,23.15,48.99,1.9395,378.5586],
    [2397,1532796225,57.0599,-111.2278,593.3,160.4,266.9,-0.6,3.8,22.42,50.17,1.9424,377.8023],
    [2398,1532796226,57.0599,-111.2289,594.6,163.6,266.9,0.0,3.8,22.4,50.47,1.9424,379.1143],
    [2399,1532796227,57.0599,-111.2299,596.0,169.4,265.7,0.5,4.7,22.26,50.97,1.9399,378.4832],
    [2400,1532796228,57.0599,-111.2309,597.5,175.2,266.3,0.4,3.8,23.17,50.21,1.9367,378.3752],
    [2401,1532796229,57.0599,-111.2319,598.3,178.6,267.5,0.9,2.2,23.04,50.58,1.9319,378.1498],
    [2402,1532796230,57.0599,-111.2329,599.5,182.6,267.8,1.2,1.9,23.31,49.57,1.9313,378.4799],
    [2403,1532796231,57.0599,-111.234,600.6,184.6,267.0,1.5,2.8,22.65,50.05,1.9319,377.5953],
    [2404,1532796232,57.0599,-111.235,600.5,185.8,266.9,2.1,3.0,22.7,49.39,1.9302,377.6055],
    [2405,1532796233,57.0599,-111.236,599.9,186.9,265.9,2.6,3.9,22.21,48.98,1.9269,377.7358],
    [2406,1532796234,57.0599,-111.237,599.3,187.2,265.4,1.8,4.6,22.39,48.73,1.9253,378.055],
    [2407,1532796235,57.0599,-111.2381,598.9,187.9,264.8,1.4,5.2,22.68,48.18,1.9309,378.5745],
    [2408,1532796236,57.0599,-111.2391,598.8,188.9,265.7,0.5,4.4,22.14,48.22,1.9337,377.3563],
    [2409,1532796237,57.0599,-111.2401,599.0,189.9,266.2,-0.3,3.9,22.54,48.65,1.9348,378.1454],
    [2410,1532796238,57.0599,-111.2411,599.0,189.9,266.3,0.2,4.3,22.53,48.45,1.936,378.6122],
    [2411,1532796239,57.0599,-111.2422,599.1,191.1,266.0,0.4,4.7,22.56,49.33,1.9399,378.0154],
    [2412,1532796240,57.0599,-111.2432,599.8,192.8,266.6,1.1,4.3,22.57,50.22,1.9395,379.1675],
    [2413,1532796241,57.0599,-111.2442,600.3,194.2,266.5,1.6,4.6,22.58,50.51,1.9342,378.9306],
    [2414,1532796242,57.0599,-111.2452,600.6,195.5,266.2,2.1,4.6,22.24,50.25,1.934,378.5603],
    [2415,1532796243,57.0599,-111.2463,599.3,195.3,265.8,2.0,4.7,22.67,49.92,1.9335,377.657],
    [2416,1532796244,57.0599,-111.2473,596.7,193.7,264.7,2.1,5.4,21.87,49.51,1.9336,378.3923],
    [2417,1532796245,57.0599,-111.2483,594.1,192.1,265.0,2.2,4.7,22.49,49.21,1.9392,379.7398],
    [2418,1532796246,57.0599,-111.2494,591.6,189.5,265.2,2.0,4.7,22.89,48.63,1.9434,379.7477],
    [2419,1532796247,57.0599,-111.2504,589.3,188.4,265.1,1.4,4.9,22.51,49.87,1.9452,379.7477],
    [2420,1532796248,57.0599,-111.2515,587.6,186.7,266.6,1.5,3.9,22.84,49.49,1.9461,379.3845],
    [2421,1532796249,57.0599,-111.2526,586.1,185.9,266.9,1.5,4.1,22.33,50.37,1.9466,379.7081],
    [2422,1532796250,57.0599,-111.2536,584.3,184.3,267.2,1.2,4.0,22.17,50.95,1.9463,379.2544],
    [2423,1532796251,57.0599,-111.2547,581.4,181.4,267.8,0.9,3.5,22.72,51.14,1.9471,379.6404],
    [2424,1532796252,57.0599,-111.2558,578.5,179.5,267.6,1.7,3.9,22.44,52.34,1.9486,379.6593],
    [2425,1532796253,57.0599,-111.2568,576.6,177.6,267.5,1.6,4.2,22.6,52.0,1.947,379.6593],
    [2426,1532796254,57.0599,-111.2579,575.1,176.1,267.4,2.1,4.2,22.48,51.92,1.9434,377.9722],
    [2427,1532796255,57.0599,-111.259,573.8,175.8,267.9,2.0,3.4,22.36,52.18,1.938,378.8303],
    [2428,1532796256,57.06,-111.2601,572.7,174.7,268.7,1.8,2.0,23.06,50.8,1.9334,377.52],
    [2429,1532796257,57.06,-111.2612,571.2,174.2,267.7,1.0,2.7,22.77,50.37,1.9329,378.0695],
    [2430,1532796258,57.06,-111.2623,568.9,171.9,266.5,1.2,3.2,22.66,49.94,1.9381,376.8155],
    [2431,1532796259,57.0599,-111.2633,567.7,170.7,266.0,1.0,3.2,22.28,50.05,1.9396,378.2234],
    [2432,1532796260,57.0599,-111.2644,566.8,170.8,264.9,0.2,3.9,22.58,50.01,1.9399,378.3181],
    [2433,1532796261,57.0599,-111.2655,565.5,169.5,265.2,0.9,3.7,22.38,49.83,1.9454,378.8999],
    [2434,1532796262,57.0599,-111.2666,564.5,169.5,264.9,0.3,4.4,22.66,50.02,1.9472,379.8429],
    [2435,1532796263,57.0599,-111.2677,563.9,168.9,264.5,-0.3,5.2,22.25,50.65,1.9343,377.9354],
    [2436,1532796264,57.0599,-111.2688,563.4,169.5,266.8,1.0,3.5,23.28,50.46,1.9225,376.31],
    [2437,1532796265,57.0599,-111.2699,562.6,168.9,268.9,1.6,2.5,22.39,50.73,1.9298,376.31],
    [2438,1532796266,57.0599,-111.271,562.5,169.5,269.6,1.8,3.0,22.99,49.29,1.9386,378.8445],
    [2439,1532796267,57.0599,-111.272,562.3,170.3,269.9,1.4,3.0,22.43,49.85,1.9432,379.5256],
    [2440,1532796268,57.0599,-111.2731,561.7,170.7,271.0,0.5,2.3,22.44,49.64,1.9447,379.5256],
    [2441,1532796269,57.06,-111.2742,559.8,169.8,269.9,0.6,3.7,22.53,50.71,1.9445,379.6875],
    [2442,1532796270,57.06,-111.2753,557.3,168.3,269.7,0.7,4.0,22.97,50.08,1.959,380.5912],
    [2443,1532796271,57.06,-111.2764,555.1,167.1,269.8,0.6,4.2,22.12,50.86,1.959,380.7546],
    [2444,1532796272,57.0601,-111.2775,554.0,166.0,270.1,0.8,3.9,22.49,52.23,1.9636,380.7064],
    [2445,1532796273,57.0601,-111.2786,553.5,166.5,270.1,1.0,3.8,22.43,52.3,1.9709,381.6602],
    [2446,1532796274,57.0601,-111.2796,552.9,165.9,268.9,1.4,4.3,22.16,53.29,1.9785,382.163],
    [2447,1532796275,57.0602,-111.2807,552.1,165.8,268.6,1.2,3.8,22.62,53.35,1.98,381.2715],
    [2448,1532796276,57.0602,-111.2818,551.5,165.5,268.9,0.8,3.0,22.4,54.25,1.9777,380.2209],
    [2449,1532796277,57.0602,-111.283,551.5,165.5,268.7,0.6,2.7,22.65,54.46,1.9756,381.4398],
    [2450,1532796278,57.0602,-111.2841,551.5,166.5,268.3,0.2,2.7,22.46,54.73,1.9765,381.5053],
    [2451,1532796279,57.0602,-111.2852,550.3,165.3,267.2,-1.0,3.4,22.95,54.27,1.9773,380.6502],
    [2452,1532796280,57.0602,-111.2862,548.8,163.8,266.8,-0.5,3.0,22.13,54.25,1.9791,379.7844],
    [2453,1532796281,57.0602,-111.2873,547.6,163.6,267.3,0.1,1.7,22.42,54.0,1.9751,380.3458],
    [2454,1532796282,57.0602,-111.2884,546.4,163.3,267.4,0.1,1.5,22.79,53.44,1.9832,381.049],
    [2455,1532796283,57.0602,-111.2895,546.1,164.1,266.6,0.5,2.4,22.82,53.4,1.9827,381.3128],
    [2456,1532796284,57.0602,-111.2905,546.2,165.2,265.3,-0.6,3.9,23.22,52.69,1.9867,381.5184],
    [2457,1532796285,57.0602,-111.2916,545.8,165.8,264.6,-1.3,4.2,22.36,53.48,1.9987,381.3626],
    [2458,1532796286,57.0601,-111.2927,544.9,165.9,265.8,-0.7,3.0,22.83,52.91,1.9783,381.0443],
    [2459,1532796287,57.0601,-111.2937,543.9,165.9,265.2,-0.5,3.8,22.22,53.67,1.964,380.5963],
    [2460,1532796288,57.0601,-111.2948,543.0,166.0,264.6,0.2,4.3,22.13,53.13,1.9609,379.8121],
    [2461,1532796289,57.0601,-111.2958,542.2,166.2,266.1,1.0,3.2,22.77,52.19,1.9868,381.7924],
    [2462,1532796290,57.0601,-111.2969,541.3,166.2,265.3,0.5,4.2,21.91,51.83,2.0033,381.3134],
    [2463,1532796291,57.0601,-111.2979,540.4,166.7,266.0,0.6,3.1,22.71,51.49,2.0065,381.7884],
    [2464,1532796292,57.0601,-111.299,538.9,166.5,265.7,0.6,3.8,21.85,51.99,2.0341,383.7874],
    [2465,1532796293,57.0601,-111.3001,537.5,166.4,263.3,0.1,6.2,22.96,52.28,2.0508,383.7874],
    [2466,1532796294,57.06,-111.3011,536.5,165.6,264.5,-0.1,4.9,22.59,53.15,2.058,383.5914],
    [2467,1532796295,57.06,-111.3021,535.5,165.8,266.4,-0.2,3.5,22.44,53.51,2.0548,383.0003],
    [2468,1532796296,57.06,-111.3032,534.9,165.9,267.2,-0.4,3.2,22.16,54.43,2.0564,382.913],
    [2469,1532796297,57.06,-111.3042,534.7,165.7,269.1,-0.3,1.8,22.04,54.06,2.0453,382.892],
    [2470,1532796298,57.06,-111.3053,534.7,166.7,268.5,-0.2,3.0,21.77,53.81,2.0248,379.9064],
    [2471,1532796299,57.0601,-111.3063,535.2,168.2,267.4,0.3,4.1,22.21,53.12,2.0325,382.2778],
    [2472,1532796300,57.0601,-111.3074,535.6,169.6,267.8,0.6,3.7,22.04,52.7,2.0763,383.4062],
    [2473,1532796301,57.0601,-111.3084,535.8,170.8,267.5,1.0,4.0,22.81,51.96,2.0809,383.5477],
    [2474,1532796302,57.0601,-111.3094,535.7,171.7,267.3,1.0,4.0,22.4,51.91,2.1081,385.1777],
    [2475,1532796303,57.0601,-111.3105,535.3,172.3,266.3,0.3,4.7,21.81,52.76,2.1083,384.3225],
    [2476,1532796304,57.0601,-111.3115,535.1,172.1,265.6,0.1,4.9,22.01,53.35,2.1082,385.4808],
    [2477,1532796305,57.0601,-111.3125,535.0,172.4,266.2,0.7,4.3,22.19,53.68,2.1225,386.507],
    [2478,1532796306,57.0601,-111.3135,534.8,172.8,265.9,1.2,4.7,22.15,54.43,2.1319,384.0648],
    [2479,1532796307,57.0601,-111.3146,534.7,172.7,265.9,1.6,4.6,21.54,54.96,2.131,385.1579],
    [2480,1532796308,57.0601,-111.3156,534.7,172.7,266.0,1.2,4.4,22.58,54.75,2.1011,384.9068],
    [2481,1532796309,57.0601,-111.3166,535.1,173.1,265.3,1.0,4.7,21.93,55.2,2.1018,384.6255],
    [2482,1532796310,57.0601,-111.3176,534.6,172.6,265.7,1.4,4.1,21.55,54.87,2.1205,384.9001],
    [2483,1532796311,57.0601,-111.3187,534.0,172.0,265.3,1.7,4.1,22.01,54.69,2.1329,384.9001],
    [2484,1532796312,57.0601,-111.3197,533.6,171.6,265.0,1.8,4.0,22.1,54.22,2.1011,383.9587],
    [2485,1532796313,57.0601,-111.3207,532.6,170.6,265.1,1.9,3.9,21.48,54.25,2.1276,384.2718],
    [2486,1532796314,57.06,-111.3217,531.0,169.9,264.6,2.2,4.5,21.68,54.1,2.1322,383.7046],
    [2487,1532796315,57.06,-111.3228,528.9,167.9,264.7,2.0,4.5,21.17,54.14,2.1289,385.2247],
    [2488,1532796316,57.06,-111.3238,527.1,167.1,264.6,2.3,4.5,21.64,53.8,2.1136,383.3052],
    [2489,1532796317,57.06,-111.3248,524.9,164.9,264.9,2.7,4.4,21.44,53.68,2.1034,383.798],
    [2490,1532796318,57.06,-111.3259,522.1,163.1,264.2,2.5,5.3,22.43,53.01,2.1052,383.8634],
    [2491,1532796319,57.06,-111.3269,519.2,160.1,264.4,2.0,5.3,21.92,53.03,2.1102,383.5278],
    [2492,1532796320,57.06,-111.328,516.3,158.3,265.2,1.6,5.0,21.91,52.9,2.1384,384.4763],
    [2493,1532796321,57.06,-111.329,513.3,156.3,265.5,1.5,4.9,21.54,52.46,2.1707,384.2637],
    [2494,1532796322,57.06,-111.3301,510.9,154.9,265.8,1.2,4.9,21.9,53.32,2.1871,385.0346],
    [2495,1532796323,57.06,-111.3312,509.3,154.3,265.9,0.6,4.9,21.81,54.16,2.1872,385.8823],
    [2496,1532796324,57.06,-111.3322,507.4,152.4,266.2,0.2,4.5,21.85,54.0,2.1849,385.3997],
    [2497,1532796325,57.06,-111.3333,505.1,151.1,266.5,0.4,4.2,21.86,54.44,2.197,386.5057],
    [2498,1532796326,57.06,-111.3344,502.6,148.6,266.6,0.1,3.9,21.55,54.49,2.2077,386.6185],
    [2499,1532796327,57.06,-111.3355,501.3,147.3,267.4,-0.2,3.0,21.99,54.79,2.2057,386.1037],
    [2500,1532796328,57.06,-111.3365,501.7,147.7,267.5,-0.3,3.3,21.85,54.56,2.1988,385.1326],
    [2501,1532796329,57.06,-111.3376,503.0,149.0,266.8,-0.7,4.5,21.39,54.78,2.1929,385.1326],
    [2502,1532796330,57.06,-111.3387,504.7,150.7,267.4,0.3,3.9,22.2,54.47,2.1933,385.174],
    [2503,1532796331,57.06,-111.3397,505.8,151.8,269.1,0.6,2.5,21.65,54.53,2.1887,385.7382],
    [2504,1532796332,57.06,-111.3408,506.2,152.2,268.1,0.9,3.7,21.86,54.95,2.1606,386.6548],
    [2505,1532796333,57.06,-111.3419,506.4,152.4,267.4,1.2,4.2,21.61,54.38,2.1606,387.1434],
    [2506,1532796334,57.06,-111.3429,505.9,151.9,267.8,0.5,3.7,21.82,54.46,2.1677,387.0021],
    [2507,1532796335,57.06,-111.344,505.3,152.1,267.6,0.2,3.8,21.53,54.41,2.1733,386.8703],
    [2508,1532796336,57.0601,-111.345,504.1,151.1,268.3,-0.3,3.2,21.28,54.38,2.1801,386.0096],
    [2509,1532796337,57.0601,-111.3461,502.3,149.3,267.8,-0.5,3.9,21.94,55.19,2.1859,386.0096],
    [2510,1532796338,57.0601,-111.3472,500.8,148.8,267.2,-1.5,4.5,22.26,54.87,2.1982,386.6803],
    [2511,1532796339,57.0601,-111.3482,499.8,147.8,266.7,-2.1,4.4,21.17,55.26,2.1926,386.7949],
    [2512,1532796340,57.0601,-111.3493,499.1,147.1,266.7,-0.7,3.9,21.85,55.09,2.1905,386.7949],
    [2513,1532796341,57.0601,-111.3503,499.0,148.0,266.5,0.0,3.6,21.69,55.07,2.1622,385.7357],
    [2514,1532796342,57.0601,-111.3514,499.5,148.5,265.9,-0.4,3.7,21.82,55.15,2.1384,386.2148],
    [2515,1532796343,57.0601,-111.3524,501.1,150.9,265.2,-0.3,3.9,21.86,55.83,2.1287,385.628],
    [2516,1532796344,57.0601,-111.3535,502.3,152.3,266.4,0.0,2.9,22.07,55.09,2.0866,384.7963],
    [2517,1532796345,57.0601,-111.3545,502.5,152.5,266.1,0.3,3.4,21.3,54.72,2.0516,385.6791],
    [2518,1532796346,57.06,-111.3556,502.2,153.2,265.9,0.4,3.4,21.96,54.22,2.061,386.7038],
    [2519,1532796347,57.06,-111.3566,502.7,153.7,265.4,-0.1,3.3,21.35,55.1,2.0688,387.4235],
    [2520,1532796348,57.06,-111.3577,502.7,153.7,264.2,0.1,4.1,21.59,55.27,2.0777,386.5146],
    [2521,1532796349,57.06,-111.3587,502.5,154.5,263.4,0.7,5.0,22.2,54.87,2.0815,386.3931],
    [2522,1532796350,57.06,-111.3598,502.4,154.4,262.7,0.6,5.7,22.21,55.69,2.0848,387.4915],
    [2523,1532796351,57.0599,-111.3608,502.0,154.0,263.8,-0.1,4.6,21.59,56.65,2.084,386.9527],
    [2524,1532796352,57.0599,-111.3618,501.6,154.6,265.4,-0.3,3.7,21.93,55.75,2.074,387.7121],
    [2525,1532796353,57.0599,-111.3629,500.5,153.5,265.8,1.1,3.9,21.73,56.23,2.0619,387.6591],
    [2526,1532796354,57.0599,-111.3639,499.2,152.4,266.5,0.9,3.6,22.02,56.01,2.0574,387.0361],
    [2527,1532796355,57.0599,-111.365,498.5,152.5,266.5,1.0,3.9,21.32,56.2,2.0599,386.44],
    [2528,1532796356,57.0599,-111.366,498.9,152.9,266.3,0.2,3.9,22.15,56.11,2.0757,388.9802],
    [2529,1532796357,57.0599,-111.3671,499.4,153.4,266.9,-0.1,3.4,21.75,56.33,2.0885,387.5489],
    [2530,1532796358,57.0599,-111.3681,499.6,154.6,267.1,-1.0,3.8,21.81,57.04,2.0869,387.4973],
    [2531,1532796359,57.0599,-111.3692,499.7,154.7,266.3,-1.6,4.6,22.58,56.15,2.0786,386.6934],
    [2532,1532796360,57.0599,-111.3702,499.3,155.3,266.7,0.5,4.5,22.22,56.2,2.0552,386.4627],
    [2533,1532796361,57.0599,-111.3712,498.9,154.9,267.4,0.4,3.6,21.87,56.42,2.0431,388.2779],
    [2534,1532796362,57.0599,-111.3723,498.5,155.5,268.0,0.1,2.7,22.17,56.31,2.0335,387.1116],
    [2535,1532796363,57.0599,-111.3733,498.4,155.4,267.1,-0.1,3.4,21.78,56.36,2.0104,385.4693],
    [2536,1532796364,57.0599,-111.3744,499.0,155.3,266.1,0.5,4.3,21.44,56.11,1.9717,382.8603],
    [2537,1532796365,57.0599,-111.3754,499.7,155.7,265.8,0.8,4.5,22.07,54.65,1.9698,382.7733],
    [2538,1532796366,57.0599,-111.3764,499.8,155.8,266.3,0.6,3.9,21.88,54.2,1.97,382.6605],
    [2539,1532796367,57.0599,-111.3775,499.4,155.4,267.0,1.0,3.5,21.85,53.98,1.9973,384.5846],
    [2540,1532796368,57.0599,-111.3785,498.7,154.7,266.5,0.7,4.2,21.81,54.04,2.0062,385.7967],
    [2541,1532796369,57.0599,-111.3796,497.3,154.4,266.3,-0.4,4.6,22.4,53.92,2.0046,385.6356],
    [2542,1532796370,57.0599,-111.3806,495.4,152.4,265.5,-0.6,5.3,21.76,54.77,2.001,385.3729],
    [2543,1532796371,57.06,-111.3817,493.1,150.1,265.2,0.0,5.4,21.86,55.43,1.9937,384.6546],
    [2544,1532796372,57.0599,-111.3827,490.6,147.8,265.6,0.7,4.8,21.61,55.51,1.989,385.7192],
    [2545,1532796373,57.0599,-111.3838,489.0,147.0,265.5,1.0,4.6,22.17,54.78,1.9914,385.7468],
    [2546,1532796374,57.0599,-111.3848,489.6,147.6,266.0,0.1,3.7,21.61,54.96,1.9893,386.8581],
    [2547,1532796375,57.0599,-111.3859,490.2,148.4,266.1,0.0,3.2,21.78,55.03,1.9897,386.3233],
    [2548,1532796376,57.0599,-111.387,489.4,148.4,265.6,0.3,2.6,21.78,55.37,1.9891,386.4959],
    [2549,1532796377,57.0599,-111.388,487.8,146.8,262.4,0.2,4.3,21.73,55.37,1.9877,386.1123],
    [2550,1532796378,57.0598,-111.3891,487.1,146.1,258.4,0.0,5.5,21.3,55.61,1.9894,385.7902],
    [2551,1532796379,57.0598,-111.3901,487.4,146.4,257.5,-0.2,4.1,21.74,56.46,1.9872,386.4158],
    [2552,1532796380,57.0597,-111.3912,487.0,146.0,255.3,-0.7,4.6,22.44,55.17,1.9871,386.4158],
    [2553,1532796381,57.0595,-111.3922,486.3,145.3,253.1,-0.4,5.1,21.84,56.4,1.9845,385.249],
    [2554,1532796382,57.0594,-111.3932,486.3,145.3,253.4,0.5,3.0,21.69,56.17,1.9785,385.2463],
    [2555,1532796383,57.0593,-111.3942,487.9,146.9,251.4,0.5,3.2,21.17,55.35,1.9787,385.5484],
    [2556,1532796384,57.0591,-111.3952,488.6,147.6,248.1,0.4,4.7,21.77,55.68,1.9824,386.2818],
    [2557,1532796385,57.0589,-111.3962,487.5,146.5,246.5,0.3,4.0,22.51,54.59,1.987,385.3223],
    [2558,1532796386,57.0587,-111.3971,486.4,145.4,244.2,0.0,4.3,21.98,55.39,1.9867,385.1243],
    [2559,1532796387,57.0585,-111.3981,486.0,145.0,241.8,-0.7,4.5,21.73,55.41,1.9849,386.087],
    [2560,1532796388,57.0582,-111.399,486.3,145.3,240.1,-0.7,4.5,22.19,55.38,1.9865,387.0504],
    [2561,1532796389,57.058,-111.3999,486.1,145.1,238.1,-1.0,4.8,21.76,56.08,1.9893,386.0852],
    [2562,1532796390,57.0577,-111.4008,485.0,144.0,236.2,-0.9,4.9,21.62,56.21,1.9893,386.0656],
    [2563,1532796391,57.0575,-111.4017,483.7,142.7,234.6,0.0,5.1,21.98,56.16,1.9908,386.3059],
    [2564,1532796392,57.0572,-111.4025,481.8,140.8,233.5,-0.1,4.1,22.12,56.27,1.9895,386.3322],
    [2565,1532796393,57.0568,-111.4034,479.6,138.6,231.2,-0.7,4.1,21.7,56.55,1.9859,386.3488],
    [2566,1532796394,57.0565,-111.4042,477.9,136.9,229.0,-1.2,4.8,22.04,56.54,1.9903,386.5936],
    [2567,1532796395,57.0562,-111.405,477.0,136.0,228.6,-1.3,3.9,21.45,56.5,1.9909,386.0238],
    [2568,1532796396,57.0558,-111.4058,476.9,135.9,227.9,-1.3,4.1,21.56,56.63,1.9931,386.0238],
    [2569,1532796397,57.0555,-111.4066,476.9,135.9,228.7,0.1,4.4,22.18,56.35,1.9958,386.9024],
    [2570,1532796398,57.0551,-111.4074,476.8,135.8,228.7,0.3,5.1,22.27,56.16,1.9937,386.4183],
    [2571,1532796399,57.0548,-111.4082,476.9,135.9,229.3,0.0,4.4,21.63,56.78,1.995,386.5312],
    [2572,1532796400,57.0545,-111.409,476.8,136.1,230.1,-0.4,3.9,22.3,56.27,1.9983,385.1204],
    [2573,1532796401,57.0541,-111.4098,475.4,135.4,229.9,-1.0,4.5,22.3,56.07,2.0014,386.6962],
    [2574,1532796402,57.0538,-111.4107,473.9,133.9,230.9,-0.3,4.6,21.71,56.72,2.0032,386.0487],
    [2575,1532796403,57.0535,-111.4115,472.8,132.8,233.1,0.1,3.1,21.57,57.08,2.0054,386.4463],
    [2576,1532796404,57.0532,-111.4123,471.9,132.9,233.5,-0.2,3.4,21.61,57.09,2.0032,385.442],
    [2577,1532796405,57.0529,-111.4132,472.0,133.0,232.9,-0.4,3.6,22.33,56.77,2.0074,385.7837],
    [2578,1532796406,57.0525,-111.414,472.7,133.7,232.8,0.3,3.3,22.13,57.14,2.0163,385.7984],
    [2579,1532796407,57.0522,-111.4149,473.1,134.1,231.6,0.1,3.5,22.03,56.96,2.0087,386.7905],
    [2580,1532796408,57.0519,-111.4157,473.0,134.0,230.7,-0.3,3.6,21.53,56.74,1.9913,385.8828],
    [2581,1532796409,57.0516,-111.4165,473.1,134.3,229.3,-0.8,4.4,21.59,56.42,2.0181,385.9621],
    [2582,1532796410,57.0512,-111.4173,473.7,135.7,229.4,-0.6,3.9,21.73,57.02,2.038,385.5741],
    [2583,1532796411,57.0509,-111.4181,474.0,136.0,229.2,-0.5,4.3,21.19,56.74,2.037,386.5874],
    [2584,1532796412,57.0505,-111.4189,474.4,136.4,228.1,-1.0,4.9,21.93,56.67,2.0362,385.4052],
    [2585,1532796413,57.0502,-111.4197,474.6,136.9,228.6,-1.4,3.7,21.74,58.14,2.0331,386.114],
    [2586,1532796414,57.0499,-111.4205,474.5,137.5,228.7,-1.8,3.4,21.93,57.91,2.0295,385.7926],
    [2587,1532796415,57.0495,-111.4213,474.1,137.1,229.1,-1.6,3.2,21.73,59.0,2.0347,386.4923],
    [2588,1532796416,57.0492,-111.4221,473.5,136.5,230.1,-0.8,3.1,21.31,58.56,2.0388,385.7267],
    [2589,1532796417,57.0489,-111.4229,473.1,137.1,230.4,-0.5,3.6,21.49,58.55,2.0383,386.3512],
    [2590,1532796418,57.0486,-111.4237,473.0,137.0,230.9,-0.4,3.5,21.6,58.55,2.0422,386.1139],
    [2591,1532796419,57.0482,-111.4245,474.0,138.0,231.1,-0.4,3.5,21.38,57.58,2.055,385.1034],
    [2592,1532796420,57.0479,-111.4253,476.1,140.1,231.0,-0.8,3.4,21.81,57.61,2.0741,386.3833],
    [2593,1532796421,57.0476,-111.4261,478.1,143.1,230.5,-1.3,3.7,22.19,56.46,2.068,386.2946],
    [2594,1532796422,57.0473,-111.4269,479.1,144.1,231.0,-0.8,3.7,21.84,57.4,2.0664,386.3241],
    [2595,1532796423,57.047,-111.4278,479.3,145.3,231.5,-1.0,3.2,21.66,57.58,2.0417,386.2424],
    [2596,1532796424,57.0466,-111.4286,479.8,145.8,230.8,-1.5,3.7,21.54,57.6,1.9961,384.6096],
    [2597,1532796425,57.0463,-111.4294,480.4,147.4,231.3,-1.4,3.1,21.09,57.38,1.9992,384.6186],
    [2598,1532796426,57.046,-111.4302,481.3,148.6,231.3,-1.2,3.6,22.07,56.08,2.0323,384.63],
    [2599,1532796427,57.0457,-111.431,482.2,150.2,230.6,-1.3,4.2,21.55,56.49,2.075,386.5019],
    [2600,1532796428,57.0454,-111.4318,482.5,151.5,231.3,-1.2,3.4,21.5,57.03,2.0978,386.8008],
    [2601,1532796429,57.0451,-111.4326,482.6,151.6,230.9,-0.9,3.9,21.24,57.54,2.0793,386.5382],
    [2602,1532796430,57.0448,-111.4334,482.4,152.4,230.8,-1.2,3.4,21.97,57.58,2.0708,387.1259],
    [2603,1532796431,57.0444,-111.4342,482.0,153.0,230.8,0.0,4.0,21.62,58.37,2.0658,386.7815],
    [2604,1532796432,57.0441,-111.435,481.3,152.3,230.5,0.3,4.3,22.16,57.96,2.0512,386.4015],
    [2605,1532796433,57.0438,-111.4358,481.0,153.0,230.2,0.2,4.4,21.1,58.27,2.063,385.9302],
    [2606,1532796434,57.0435,-111.4366,481.4,153.4,230.2,0.4,4.3,21.93,58.07,2.0715,386.0034],
    [2607,1532796435,57.0432,-111.4373,480.9,152.9,230.2,0.1,4.1,21.58,58.89,2.0733,386.0539],
    [2608,1532796436,57.0428,-111.4381,480.5,152.5,229.6,-0.6,3.8,21.6,58.7,2.0674,386.3001],
    [2609,1532796437,57.0425,-111.4389,480.1,152.1,230.3,1.3,4.0,21.67,59.27,2.0392,386.5236],
    [2610,1532796438,57.0422,-111.4397,478.8,150.8,230.8,2.0,3.8,21.49,58.48,2.0439,387.3851],
    [2611,1532796439,57.0418,-111.4405,477.5,150.5,229.5,1.0,4.8,21.66,58.7,2.0394,387.8088],
    [2612,1532796440,57.0415,-111.4413,477.1,150.1,228.1,0.3,5.0,21.59,57.59,2.0519,385.7054],
    [2613,1532796441,57.0411,-111.4421,476.4,149.4,229.4,1.1,3.5,21.6,57.57,2.0598,386.2206],
    [2614,1532796442,57.0408,-111.4429,475.3,148.3,228.6,0.0,3.9,21.67,58.08,2.0616,386.9898],
    [2615,1532796443,57.0405,-111.4437,474.0,147.0,227.9,-0.5,4.3,21.71,58.15,2.0377,386.9898],
    [2616,1532796444,57.0401,-111.4445,472.8,146.1,228.4,0.3,4.4,21.4,57.82,2.0309,385.995],
    [2617,1532796445,57.0398,-111.4452,472.1,146.1,227.8,-0.1,5.0,21.7,57.78,2.0363,388.0704],
    [2618,1532796446,57.0394,-111.446,471.5,145.5,227.6,-0.6,5.0,21.18,57.59,2.0615,387.7989],
    [2619,1532796447,57.0391,-111.4468,470.3,145.3,229.0,0.0,4.2,21.74,57.48,2.0746,387.748],
    [2620,1532796448,57.0387,-111.4477,469.5,144.5,230.2,-0.5,3.9,21.89,57.27,2.0798,387.748],
    [2621,1532796449,57.0384,-111.4485,468.6,144.6,230.7,-0.9,4.2,21.71,57.58,2.0828,387.2786],
    [2622,1532796450,57.0381,-111.4493,467.7,144.7,232.3,0.0,3.8,21.47,57.86,2.0787,387.2786],
    [2623,1532796451,57.0378,-111.4502,466.5,143.5,232.0,-0.5,4.1,21.49,57.66,2.0328,388.0913],
    [2624,1532796452,57.0375,-111.451,466.2,144.2,231.8,-0.4,3.7,21.72,57.44,2.0434,388.9586],
    [2625,1532796453,57.0371,-111.4519,466.1,144.8,232.2,-0.9,2.6,21.57,57.05,2.0496,387.9981],
    [2626,1532796454,57.0368,-111.4527,466.7,145.7,231.3,-1.4,2.8,21.96,57.11,2.0845,387.5231],
    [2627,1532796455,57.0365,-111.4535,467.3,147.1,230.1,-2.3,3.1,22.02,56.78,2.0891,386.5602],
    [2628,1532796456,57.0361,-111.4543,467.2,147.2,229.8,-1.3,4.0,21.71,57.72,2.0907,386.5602],
    [2629,1532796457,57.0358,-111.4551,466.6,146.6,229.7,-1.9,3.4,20.93,57.94,2.0957,386.8612],
    [2630,1532796458,57.0355,-111.4559,465.9,145.8,230.2,-1.3,3.0,21.85,57.82,2.0889,387.2027],
    [2631,1532796459,57.0351,-111.4568,465.3,146.2,229.5,-1.5,3.2,21.64,58.31,2.077,385.7155],
    [2632,1532796460,57.0348,-111.4576,465.2,147.8,229.6,-1.3,3.2,21.4,58.33,2.068,387.7339],
    [2633,1532796461,57.0345,-111.4584,466.4,150.1,229.6,-1.5,3.1,21.47,58.92,2.0637,387.2801],
    [2634,1532796462,57.0341,-111.4592,468.2,152.2,229.9,-1.2,2.9,21.72,58.18,2.0674,388.7362],
    [2635,1532796463,57.0338,-111.46,469.5,153.5,229.8,-1.5,2.8,21.77,58.24,2.0952,387.4569],
    [2636,1532796464,57.0335,-111.4608,469.5,153.5,230.1,-1.6,3.1,21.89,57.35,2.0931,386.1005],
    [2637,1532796465,57.0332,-111.4616,469.5,154.3,230.0,-1.4,4.1,21.49,57.72,2.092,386.1005],
    [2638,1532796466,57.0328,-111.4624,469.2,154.2,230.6,-1.4,3.8,21.86,58.09,2.0889,385.7548],
    [2639,1532796467,57.0325,-111.4632,468.8,155.3,231.3,-1.1,3.7,22.08,57.32,2.0993,386.4288],
    [2640,1532796468,57.0322,-111.4641,467.7,157.0,232.2,-0.2,4.0,22.38,57.75,2.1065,386.4288],
    [2641,1532796469,57.0319,-111.4649,466.0,158.6,232.4,-0.1,4.5,21.14,58.15,2.0949,385.5923],
    [2642,1532796470,57.0316,-111.4657,464.2,162.1,231.5,0.2,6.0,21.87,58.08,2.0422,386.9662],
    [2643,1532796471,57.0312,-111.4666,462.2,168.6,231.3,0.1,5.9,21.4,58.45,2.0389,388.7319],
    [2644,1532796472,57.0309,-111.4674,459.5,176.2,231.5,0.4,5.3,21.49,58.45,2.1808,396.9786],
    [2645,1532796473,57.0306,-111.4683,455.9,182.8,231.2,0.7,5.4,21.88,57.64,2.1162,400.9535],
    [2646,1532796474,57.0303,-111.4691,451.8,186.1,229.2,-0.9,5.8,21.9,57.78,2.1073,397.6754],
    [2647,1532796475,57.03,-111.4699,448.0,186.2,228.5,-0.8,5.4,22.07,57.03,2.1363,405.8274],
    [2648,1532796476,57.0296,-111.4707,444.6,183.7,229.2,1.0,5.2,21.42,57.52,2.3851,432.9689],
    [2649,1532796477,57.0292,-111.4716,442.1,181.1,228.6,0.9,5.9,21.64,57.51,2.3933,450.1541],
    [2650,1532796478,57.0289,-111.4724,440.2,179.2,228.5,0.9,6.1,21.48,57.05,2.3334,442.7447],
    [2651,1532796479,57.0285,-111.4733,438.0,176.9,229.0,0.3,5.0,21.37,56.74,2.3762,445.5819],
    [2652,1532796480,57.0282,-111.4741,435.8,175.7,228.5,-0.6,5.0,21.56,56.32,2.4145,444.6441],
    [2653,1532796481,57.0278,-111.4749,433.3,174.6,228.9,-0.4,5.0,21.0,56.62,2.4707,440.8615],
    [2654,1532796482,57.0275,-111.4758,431.1,175.2,230.3,-0.1,4.2,21.73,56.22,2.33,425.8786],
    [2655,1532796483,57.0271,-111.4767,429.5,176.5,231.1,-0.2,3.5,21.76,56.2,2.1821,413.2274],
    [2656,1532796484,57.0268,-111.4776,428.0,178.3,231.9,0.2,3.2,21.94,56.54,2.1389,413.2274],
    [2657,1532796485,57.0264,-111.4784,426.5,179.9,232.1,0.1,3.5,21.74,56.31,2.1216,404.399],
    [2658,1532796486,57.0261,-111.4793,425.2,183.4,232.4,0.0,3.5,22.14,56.33,2.0909,397.9878],
    [2659,1532796487,57.0257,-111.4803,423.3,183.2,233.6,0.2,2.1,21.89,56.37,2.0688,394.8547],
    [2660,1532796488,57.0253,-111.4812,420.6,182.6,232.1,-1.2,2.8,21.74,56.21,2.0829,392.6951],
    [2661,1532796489,57.025,-111.4821,418.1,180.1,231.9,-1.6,1.9,22.32,55.51,2.0183,388.6398],
    [2662,1532796490,57.0246,-111.483,415.9,178.9,231.9,-1.8,1.6,22.47,55.8,2.0045,388.6672],
    [2663,1532796491,57.0243,-111.4839,414.3,176.3,230.1,-2.5,2.7,22.3,55.39,2.0703,391.2575],
    [2664,1532796492,57.0239,-111.4848,413.3,175.3,229.5,-2.8,2.7,21.81,55.97,2.0859,387.5319],
    [2665,1532796493,57.0236,-111.4856,412.9,173.9,228.8,-3.5,2.3,21.57,56.31,2.1259,387.5319],
    [2666,1532796494,57.0232,-111.4865,412.6,173.6,228.8,-3.8,1.8,21.98,56.62,2.0682,397.4735],
    [2667,1532796495,57.0228,-111.4874,413.1,175.2,228.2,-4.4,2.4,22.36,56.08,2.0334,400.5172],
    [2668,1532796496,57.0225,-111.4882,414.1,177.1,227.8,-4.7,2.9,21.91,57.35,2.0191,400.5172],
    [2669,1532796497,57.0221,-111.4891,415.6,179.9,228.3,-5.2,1.7,21.61,57.17,2.01,397.8256],
    [2670,1532796498,57.0217,-111.4899,419.0,184.0,228.6,-5.4,1.2,22.16,57.4,2.0283,427.4182],
    [2671,1532796499,57.0214,-111.4908,424.5,189.5,228.1,-5.3,1.6,22.49,56.96,2.06,462.4909],
    [2672,1532796500,57.021,-111.4916,430.4,195.3,228.2,-5.1,1.3,21.7,57.77,2.0591,471.6656],
    [2673,1532796501,57.0207,-111.4924,436.9,201.0,228.6,-5.1,0.6,21.57,57.34,2.0351,439.6665],
    [2674,1532796502,57.0204,-111.4932,443.5,205.5,228.9,-4.7,0.8,21.62,57.35,2.0208,427.1824],
    [2675,1532796503,57.02,-111.494,449.8,207.9,231.2,-4.3,-0.5,21.34,57.5,2.0159,417.5077],
    [2676,1532796504,57.0197,-111.4948,455.9,205.7,232.0,-4.2,-0.1,22.16,57.02,2.0116,392.4536],
    [2677,1532796505,57.0194,-111.4956,461.8,203.7,232.0,-4.5,0.6,22.57,56.75,2.0144,391.6474],
    [2678,1532796506,57.0191,-111.4964,467.4,203.2,232.0,-3.8,1.4,21.77,57.57,2.0174,391.7366],
    [2679,1532796507,57.0188,-111.4972,473.0,204.1,231.3,-3.3,2.2,21.77,57.58,2.0186,388.6207],
    [2680,1532796508,57.0185,-111.498,478.3,207.1,231.0,-2.7,2.9,22.12,57.54,2.0191,388.8462],
    [2681,1532796509,57.0182,-111.4987,483.3,210.7,229.8,-2.4,4.7,21.76,58.15,2.0224,388.8462],
    [2682,1532796510,57.0179,-111.4995,487.9,214.3,229.9,-1.6,4.7,21.52,58.21,2.0236,388.8608],
    [2683,1532796511,57.0176,-111.5002,491.5,215.0,230.8,-0.6,4.1,22.41,57.97,2.0214,387.2332],
    [2684,1532796512,57.0173,-111.501,493.9,212.8,230.0,-1.2,4.1,21.87,58.88,2.0226,387.2332],
    [2685,1532796513,57.0171,-111.5017,495.8,206.7,229.4,-1.6,3.9,21.86,58.74,2.0274,389.4051],
    [2686,1532796514,57.0168,-111.5024,498.2,203.7,229.1,-1.6,4.1,21.59,58.92,2.0298,388.1983],
    [2687,1532796515,57.0165,-111.5032,500.7,203.5,228.8,-1.7,4.2,21.73,59.03,2.0321,388.1994],
    [2688,1532796516,57.0161,-111.5039,502.7,205.7,229.3,-1.2,4.1,21.61,59.27,2.0434,388.0563],
    [2689,1532796517,57.0158,-111.5047,503.9,207.0,230.3,-0.1,4.1,21.11,59.4,2.0607,388.2421],
    [2690,1532796518,57.0156,-111.5054,505.3,208.3,231.3,0.5,4.2,21.68,59.9,2.0725,388.3208],
    [2691,1532796519,57.0153,-111.5061,506.5,209.4,230.7,-0.5,4.6,21.61,59.87,2.0748,388.103],
    [2692,1532796520,57.015,-111.5069,507.3,210.3,230.8,-0.3,4.7,21.55,59.59,2.0654,388.0153],
    [2693,1532796521,57.0147,-111.5076,508.0,211.0,231.2,-0.5,4.0,21.62,60.31,2.0908,387.5612],
    [2694,1532796522,57.0144,-111.5083,508.7,211.7,230.6,-0.9,4.4,21.64,59.34,2.0733,388.9232],
    [2695,1532796523,57.0141,-111.5091,509.8,212.8,230.1,-1.1,4.8,21.73,59.98,2.1103,387.7341],
    [2696,1532796524,57.0138,-111.5099,511.0,214.0,230.3,-1.1,4.9,22.11,59.34,2.126,388.2937],
    [2697,1532796525,57.0135,-111.5106,512.3,215.3,229.9,-1.7,4.8,22.22,59.69,2.1439,388.2937],
    [2698,1532796526,57.0133,-111.5114,512.8,215.8,230.4,-1.7,3.9,21.45,59.82,2.112,388.5142],
    [2699,1532796527,57.013,-111.5121,513.2,216.2,230.2,-1.5,4.2,21.92,59.5,2.1307,388.8204],
    [2700,1532796528,57.0127,-111.5128,513.3,216.3,230.1,-0.4,5.1,21.49,60.25,2.1616,387.6557],
    [2701,1532796529,57.0124,-111.5136,513.6,209.0,230.5,-0.2,4.7,21.14,59.97,2.183,387.755],
    [2702,1532796530,57.0121,-111.5143,514.0,199.6,231.4,0.8,4.7,21.66,59.48,2.1554,386.5034],
    [2703,1532796531,57.0118,-111.5151,514.0,197.0,232.1,0.9,4.5,21.09,59.2,2.1708,386.7679],
    [2704,1532796532,57.0115,-111.5158,514.3,196.3,231.3,0.0,4.8,21.56,58.76,2.1463,386.3223],
    [2705,1532796533,57.0112,-111.5166,514.5,196.2,231.2,-0.3,4.7,21.54,58.84,2.1283,385.9828],
    [2706,1532796534,57.0109,-111.5174,513.9,194.9,231.7,0.0,4.4,21.52,59.2,2.1592,387.2469],
    [2707,1532796535,57.0107,-111.5181,513.7,193.6,232.7,0.5,3.7,21.51,58.7,2.2282,387.6317],
    [2708,1532796536,57.0104,-111.5189,512.9,192.9,232.1,-0.6,3.6,21.4,58.65,2.2056,387.6317],
    [2709,1532796537,57.0101,-111.5197,511.8,191.8,231.3,-1.0,3.8,22.24,58.68,2.3219,389.4867],
    [2710,1532796538,57.0098,-111.5205,510.8,190.8,231.7,-0.4,3.8,22.3,58.72,2.3494,388.6851],
    [2711,1532796539,57.0095,-111.5212,510.2,190.2,231.3,-0.6,4.2,21.37,60.1,2.3093,387.9236],
    [2712,1532796540,57.0092,-111.522,510.2,190.2,230.8,0.8,5.9,21.34,60.02,2.474,388.2785],
    [2713,1532796541,57.0089,-111.5228,510.5,190.5,231.2,1.3,5.7,21.72,59.58,2.473,387.2968],
    [2714,1532796542,57.0086,-111.5236,510.9,191.5,231.0,0.4,5.9,21.52,59.87,2.4092,387.3407],
    [2715,1532796543,57.0083,-111.5244,510.6,191.3,231.2,0.1,5.5,21.58,59.67,2.504,387.6738],
    [2716,1532796544,57.008,-111.5252,509.4,190.4,232.7,0.7,5.0,21.9,59.06,2.5559,387.8028],
    [2717,1532796545,57.0077,-111.526,507.9,189.0,232.7,0.7,5.6,21.72,58.95,2.6893,387.2319],
    [2718,1532796546,57.0074,-111.5269,505.8,186.8,233.2,0.1,5.1,21.65,58.93,2.7825,386.9702],
    [2719,1532796547,57.0071,-111.5277,504.0,185.0,234.7,0.7,4.0,21.72,59.24,2.8978,387.5682],
    [2720,1532796548,57.0068,-111.5286,503.1,184.4,234.3,-0.3,4.2,21.83,59.21,2.8402,387.9386],
    [2721,1532796549,57.0065,-111.5294,503.1,184.0,233.9,-0.3,4.4,21.46,59.34,2.528,388.2436],
    [2722,1532796550,57.0062,-111.5303,502.5,183.4,234.8,0.0,3.6,21.53,59.73,2.5369,386.8496],
    [2723,1532796551,57.0059,-111.5312,502.2,183.1,234.1,-0.6,4.5,21.16,59.1,2.7138,388.1477],
    [2724,1532796552,57.0056,-111.532,501.5,182.4,233.7,-0.5,4.9,21.53,59.72,2.4233,388.1709],
    [2725,1532796553,57.0053,-111.5329,500.3,180.2,234.8,0.3,4.3,21.45,59.76,2.3933,388.2435],
    [2726,1532796554,57.005,-111.5338,499.3,179.3,235.3,0.6,4.2,21.45,59.46,2.6721,387.9054],
    [2727,1532796555,57.0047,-111.5346,499.2,179.2,235.0,0.9,4.8,21.56,59.28,2.3951,388.3757],
    [2728,1532796556,57.0044,-111.5355,498.8,179.9,235.0,0.9,4.6,21.97,58.49,2.4168,388.4641],
    [2729,1532796557,57.0041,-111.5364,497.8,179.7,236.0,0.9,3.2,21.52,59.16,2.5064,388.6733],
    [2730,1532796558,57.0038,-111.5373,496.1,178.8,235.5,0.5,3.7,22.03,58.91,2.178,389.0595],
    [2731,1532796559,57.0035,-111.5381,494.3,175.8,234.7,-0.1,4.0,21.51,59.79,2.1645,388.5292],
    [2732,1532796560,57.0032,-111.539,492.5,173.1,234.9,-0.2,3.6,21.6,59.56,2.1995,387.5012],
    [2733,1532796561,57.0029,-111.5399,490.8,170.2,234.3,-0.6,3.9,21.08,59.75,2.1899,388.0753],
    [2734,1532796562,57.0026,-111.5408,489.7,168.5,234.3,-0.8,3.5,21.84,59.61,2.1183,386.9403],
    [2735,1532796563,57.0023,-111.5417,488.9,166.8,234.6,-0.6,3.4,21.34,59.66,2.0055,386.2593],
    [2736,1532796564,57.002,-111.5426,488.7,166.0,235.4,-0.5,3.0,21.58,59.27,1.9974,386.6216],
    [2737,1532796565,57.0017,-111.5434,489.6,166.5,236.8,-0.3,2.2,21.37,59.19,1.9951,386.7801],
    [2738,1532796566,57.0014,-111.5444,491.2,167.9,237.3,-0.5,2.1,21.57,59.18,1.9959,387.0947],
    [2739,1532796567,57.0011,-111.5453,492.4,169.0,237.2,-0.8,2.2,21.36,58.64,1.9977,387.689],
    [2740,1532796568,57.0008,-111.5461,492.5,169.9,237.0,-0.7,2.3,21.23,58.99,1.9976,386.9414],
    [2741,1532796569,57.0005,-111.547,492.4,169.7,236.2,-0.7,2.6,21.21,58.82,1.9961,386.9551],
    [2742,1532796570,57.0002,-111.5479,492.6,169.0,235.6,-0.1,2.2,21.52,58.92,1.9888,386.8409],
    [2743,1532796571,56.9999,-111.5488,492.8,169.6,234.0,0.2,1.6,21.54,58.79,1.9913,387.0687],
    [2744,1532796572,56.9995,-111.5496,492.6,168.8,230.2,-0.3,1.5,21.18,59.06,1.9933,386.3707],
    [2745,1532796573,56.9992,-111.5504,491.8,167.2,225.1,-1.3,1.6,21.93,58.61,1.9966,387.5891],
    [2746,1532796574,56.9988,-111.5511,491.2,166.5,219.2,-1.7,2.6,21.84,59.09,1.9964,386.2759],
    [2747,1532796575,56.9983,-111.5518,492.2,166.4,214.4,-2.1,2.6,21.49,59.03,1.9925,386.2954],
    [2748,1532796576,56.9979,-111.5523,493.8,168.8,212.0,-1.1,2.8,20.98,59.14,1.9883,386.5778],
    [2749,1532796577,56.9974,-111.5529,495.1,170.0,209.8,-1.0,3.3,21.3,59.75,1.9887,386.3655],
    [2750,1532796578,56.9969,-111.5534,495.9,170.9,206.9,-2.2,3.7,21.68,58.73,1.9876,386.4697],
    [2751,1532796579,56.9965,-111.5539,496.9,171.5,205.8,-2.0,3.4,21.45,58.82,1.9891,386.5438],
    [2752,1532796580,56.996,-111.5544,497.6,171.9,206.3,-0.8,2.4,21.63,59.25,1.993,385.4135],
    [2753,1532796581,56.9955,-111.5548,498.3,172.3,205.4,-0.9,1.8,21.72,58.91,1.9898,385.6671],
    [2754,1532796582,56.995,-111.5553,499.2,173.5,203.1,-2.0,1.4,21.26,58.85,1.9906,386.6058],
    [2755,1532796583,56.9945,-111.5557,500.4,175.7,202.3,-1.5,0.8,21.33,59.23,1.9965,387.1388],
    [2756,1532796584,56.994,-111.5561,501.9,178.3,201.0,-1.1,1.8,21.48,59.35,1.9909,385.8469],
    [2757,1532796585,56.9935,-111.5564,503.8,181.9,199.6,-1.3,1.8,21.04,59.42,1.9848,386.2051],
    [2758,1532796586,56.993,-111.5568,506.2,185.2,198.1,-1.2,2.0,21.95,58.92,1.9833,384.2834],
    [2759,1532796587,56.9925,-111.5571,509.0,188.0,196.2,-1.3,2.2,21.34,59.09,1.9792,383.968],
    [2760,1532796588,56.9921,-111.5574,511.5,191.5,194.2,-1.2,2.5,22.01,58.47,1.9778,383.6047],
    [2761,1532796589,56.9915,-111.5576,514.0,194.0,191.4,-1.6,2.7,21.78,58.35,1.9804,383.5568],
    [2762,1532796590,56.991,-111.5578,515.9,195.9,190.0,-0.8,2.2,22.06,57.66,1.9799,384.031],
    [2763,1532796591,56.9905,-111.558,518.0,198.0,188.1,-0.2,3.1,21.76,58.63,1.9798,383.2955],
    [2764,1532796592,56.99,-111.5581,520.6,200.6,184.9,-0.7,3.3,21.7,58.73,1.983,385.3007],
    [2765,1532796593,56.9895,-111.5582,523.9,203.9,183.2,-0.1,4.1,21.7,58.07,1.9817,385.4213],
    [2766,1532796594,56.989,-111.5582,526.7,207.4,180.8,-0.3,4.9,21.71,58.59,1.9788,385.3877],
    [2767,1532796595,56.9885,-111.5582,528.5,209.5,178.5,-0.8,5.5,21.6,58.44,1.98,384.5685],
    [2768,1532796596,56.988,-111.5582,530.1,212.1,176.5,-1.5,5.8,21.63,58.6,1.9811,384.8559],
    [2769,1532796597,56.9875,-111.5581,530.6,213.7,177.2,-0.2,6.6,21.78,58.2,1.9805,385.6965],
    [2770,1532796598,56.987,-111.5581,530.3,214.6,177.9,0.3,6.8,22.13,57.9,1.9791,384.7336],
    [2771,1532796599,56.9865,-111.558,529.6,216.3,177.2,-1.2,7.7,21.84,57.2,1.9789,384.3895],
    [2772,1532796600,56.986,-111.558,528.2,216.5,178.9,-0.4,7.6,21.45,57.69,1.9788,384.5251],
    [2773,1532796601,56.9855,-111.558,525.7,215.7,182.0,1.7,8.1,22.26,57.28,1.9801,385.0153],
    [2774,1532796602,56.985,-111.558,522.5,213.5,182.9,1.3,8.0,21.73,57.57,1.9803,384.4587],
    [2775,1532796603,56.9844,-111.5581,519.5,210.5,181.8,-0.2,7.6,21.8,57.63,1.9833,386.0127],
    [2776,1532796604,56.9839,-111.5581,516.3,207.3,182.5,0.5,7.2,22.15,57.13,1.9843,386.1791],
    [2777,1532796605,56.9834,-111.5582,511.6,202.6,183.8,1.8,6.4,22.0,57.32,1.9844,385.8374],
    [2778,1532796606,56.9828,-111.5582,507.3,198.3,182.6,0.4,6.2,22.05,57.21,1.9892,386.5293],
    [2779,1532796607,56.9823,-111.5582,503.6,194.6,181.2,-0.6,4.8,22.46,57.09,1.9921,386.8263],
    [2780,1532796608,56.9817,-111.5583,500.2,191.2,181.4,-0.2,3.4,21.98,58.17,1.9976,386.2163],
    [2781,1532796609,56.9811,-111.5583,497.7,188.7,181.0,-0.4,2.9,22.04,58.06,1.9992,387.1421],
    [2782,1532796610,56.9806,-111.5583,494.9,183.6,180.9,-0.2,2.7,21.57,58.85,2.0006,386.5824],
    [2783,1532796611,56.98,-111.5583,493.1,178.8,180.7,-0.6,2.6,21.62,58.72,1.9945,386.2227],
    [2784,1532796612,56.9794,-111.5584,492.7,173.3,180.3,-0.9,2.8,22.08,58.96,1.9887,386.1871],
    [2785,1532796613,56.9789,-111.5584,492.9,171.2,181.6,0.0,2.3,22.12,59.22,1.9927,385.4983],
    [2786,1532796614,56.9783,-111.5584,494.5,171.5,181.0,-1.2,3.0,22.19,58.86,1.9913,386.3434],
    [2787,1532796615,56.9777,-111.5585,496.7,172.9,181.0,-1.2,2.7,22.54,58.14,1.9897,385.7231],
    [2788,1532796616,56.9771,-111.5585,498.7,174.7,181.2,-1.2,2.9,21.79,58.86,1.9898,385.4132],
    [2789,1532796617,56.9766,-111.5585,501.1,176.3,180.5,-1.8,4.6,22.53,57.67,1.9848,384.2543],
    [2790,1532796618,56.976,-111.5586,503.7,178.7,182.1,-0.2,4.5,22.27,57.87,1.9783,384.2543],
    [2791,1532796619,56.9754,-111.5586,506.8,181.8,181.8,-0.7,4.4,21.91,57.8,1.9761,384.2604],
    [2792,1532796620,56.9749,-111.5587,508.5,184.2,182.0,0.1,4.4,21.6,57.23,1.9758,384.5475],
    [2793,1532796621,56.9743,-111.5587,508.5,184.5,181.9,0.6,5.1,21.81,57.33,1.9739,384.6697],
    [2794,1532796622,56.9738,-111.5587,508.6,184.6,179.7,-0.9,5.8,21.68,56.68,1.9684,384.3516],
    [2795,1532796623,56.9732,-111.5587,507.9,183.9,178.9,-0.6,5.7,21.55,56.07,1.9691,382.9677],
    [2796,1532796624,56.9726,-111.5587,506.3,182.3,178.9,0.1,6.0,22.2,55.82,1.9661,382.5883],
    [2797,1532796625,56.972,-111.5587,504.8,180.8,177.8,-0.4,6.4,22.7,54.52,1.9662,383.0792],
    [2798,1532796626,56.9715,-111.5586,503.0,180.1,177.9,0.2,6.7,21.99,54.7,1.9658,382.6594],
    [2799,1532796627,56.9709,-111.5586,500.9,178.0,177.5,-0.3,6.3,22.2,54.5,1.9651,382.8083],
    [2800,1532796628,56.9703,-111.5585,498.5,177.2,177.2,-1.1,6.9,22.83,53.77,1.9655,383.5613],
    [2801,1532796629,56.9697,-111.5585,495.7,176.4,179.0,0.1,5.9,22.15,54.08,1.9637,382.9423],
    [2802,1532796630,56.9691,-111.5585,492.3,176.0,181.0,1.1,5.3,22.02,53.74,1.9623,382.4114],
    [2803,1532796631,56.9685,-111.5585,489.1,174.4,181.6,1.1,5.1,22.75,52.99,1.9652,383.0799],
    [2804,1532796632,56.968,-111.5585,486.4,172.4,181.7,0.7,4.5,21.68,53.32,1.966,382.9726],
    [2805,1532796633,56.9674,-111.5585,483.9,169.9,181.4,0.5,4.6,22.17,53.23,1.9681,383.0331],
    [2806,1532796634,56.9668,-111.5586,481.7,167.7,182.0,1.3,4.5,22.28,53.28,1.9703,384.5936],
    [2807,1532796635,56.9662,-111.5586,479.7,165.7,181.6,1.0,4.0,22.38,53.04,1.97,382.8968],
    [2808,1532796636,56.9656,-111.5586,478.3,164.4,180.7,0.2,3.9,22.43,53.38,1.9693,382.1607],
    [2809,1532796637,56.9649,-111.5586,476.9,162.0,180.9,0.7,4.1,23.03,52.66,1.9684,382.864],
    [2810,1532796638,56.9643,-111.5586,475.5,159.6,181.0,0.7,3.6,22.62,53.6,1.9669,382.864],
    [2811,1532796639,56.9637,-111.5586,474.0,157.0,180.6,0.2,3.1,22.53,53.67,1.9656,382.4608],
    [2812,1532796640,56.9631,-111.5586,473.0,155.0,180.3,-0.2,2.2,22.78,52.98,1.9702,382.8771],
    [2813,1532796641,56.9625,-111.5586,472.2,154.2,180.4,0.0,2.0,22.64,52.68,1.9668,383.1229],
    [2814,1532796642,56.9619,-111.5586,471.4,153.4,180.1,-0.1,3.1,22.66,53.32,1.964,382.4486],
    [2815,1532796643,56.9613,-111.5586,470.3,152.3,180.4,0.5,2.9,22.67,52.69,1.9632,381.7354],
    [2816,1532796644,56.9607,-111.5586,469.2,150.2,181.3,1.4,4.5,22.82,52.97,1.9653,381.5147],
    [2817,1532796645,56.9601,-111.5587,468.4,149.7,180.9,0.8,3.9,22.92,52.39,1.965,382.1734],
    [2818,1532796646,56.9595,-111.5587,468.1,150.1,180.6,0.2,3.1,22.73,52.53,1.9652,382.1734],
    [2819,1532796647,56.9588,-111.5587,468.0,152.0,180.3,-0.5,2.3,22.8,52.35,1.9713,382.3876],
    [2820,1532796648,56.9582,-111.5587,467.8,151.8,180.4,-0.3,1.3,22.72,52.9,1.9701,380.9296],
    [2821,1532796649,56.9576,-111.5587,467.1,150.1,181.6,0.7,-0.1,23.14,52.45,1.9633,381.1846],
    [2822,1532796650,56.957,-111.5587,466.0,147.0,181.7,0.4,-1.3,22.8,53.23,1.9627,381.2621],
    [2823,1532796651,56.9564,-111.5588,464.3,144.3,181.5,0.1,-3.5,22.77,53.55,1.9624,381.0315],
    [2824,1532796652,56.9558,-111.5588,463.7,142.7,180.6,-0.7,-6.0,22.9,52.7,1.9627,380.845],
    [2825,1532796653,56.9552,-111.5588,467.3,146.3,179.7,-1.0,-6.5,22.61,52.88,1.9605,380.8957],
    [2826,1532796654,56.9546,-111.5588,475.3,154.3,178.7,-1.4,-6.5,22.69,52.55,1.9621,380.3818],
    [2827,1532796655,56.954,-111.5588,486.9,165.9,179.1,-0.5,-6.0,22.25,52.58,1.9614,380.37],
    [2828,1532796656,56.9534,-111.5588,500.2,179.2,179.2,-0.3,-6.2,22.75,53.09,1.9618,380.8368],
    [2829,1532796657,56.9529,-111.5588,513.8,192.8,178.9,-0.2,-5.8,22.97,53.5,1.9623,381.1101],
    [2830,1532796658,56.9524,-111.5588,527.4,206.4,179.0,-0.2,-5.7,22.88,53.11,1.9597,381.3379],
    [2831,1532796659,56.9518,-111.5588,540.3,219.3,178.4,-0.9,-5.8,23.41,52.66,1.9601,381.4662],
    [2832,1532796660,56.9514,-111.5587,551.8,230.8,178.0,-0.9,-4.4,22.93,54.03,1.9544,379.1286],
    [2833,1532796661,56.9508,-111.5587,563.5,243.6,179.5,0.5,-2.8,23.46,52.88,1.9541,380.2933],
    [2834,1532796662,56.9504,-111.5587,575.1,255.1,177.7,-0.7,-2.0,22.92,53.6,1.9555,380.5653],
    [2835,1532796663,56.9499,-111.5587,585.0,265.7,177.6,-0.4,-1.2,22.13,53.69,1.9578,380.49],
    [2836,1532796664,56.9495,-111.5587,593.3,274.3,179.5,1.1,-1.0,22.21,53.63,1.9549,381.829],
    [2837,1532796665,56.949,-111.5586,601.4,282.3,178.7,0.6,-0.4,22.62,53.67,1.9551,381.6274],
    [2838,1532796666,56.9486,-111.5586,609.2,291.3,177.5,-0.1,0.7,22.59,53.5,1.9577,381.5226],
    [2839,1532796667,56.9482,-111.5586,616.2,298.2,177.1,-0.2,1.8,22.52,53.77,1.9566,381.0964],
    [2840,1532796668,56.9478,-111.5585,622.7,305.4,176.8,-0.3,2.5,22.57,53.79,1.9587,381.4176],
    [2841,1532796669,56.9474,-111.5585,628.5,311.4,176.6,-0.3,3.5,22.11,54.62,1.9596,381.4176],
    [2842,1532796670,56.947,-111.5584,633.0,316.0,177.9,0.9,4.0,22.14,54.33,1.9596,381.6644],
    [2843,1532796671,56.9466,-111.5584,637.0,320.0,177.7,0.7,4.7,22.63,54.41,1.959,380.5089],
    [2844,1532796672,56.9462,-111.5584,640.9,323.9,175.7,-0.6,4.9,22.13,55.07,1.9604,380.3992],
    [2845,1532796673,56.9458,-111.5583,643.8,326.8,175.4,-0.5,4.4,21.96,55.05,1.9605,381.8884],
    [2846,1532796674,56.9455,-111.5582,645.3,328.6,175.3,-0.3,4.6,22.56,55.12,1.9618,381.5958],
    [2847,1532796675,56.9451,-111.5582,646.4,330.4,174.7,-0.8,4.7,21.88,55.25,1.9585,381.1286],
    [2848,1532796676,56.9447,-111.5581,647.6,331.6,173.1,-2.0,4.4,22.56,55.16,1.959,380.8901],
    [2849,1532796677,56.9443,-111.5581,649.1,333.4,171.7,-2.8,4.8,22.33,56.1,1.9586,381.1496],
    [2850,1532796678,56.9439,-111.558,650.3,335.0,171.4,-3.1,5.2,21.92,55.87,1.9591,381.3593],
    [2851,1532796679,56.9435,-111.5579,651.1,336.1,172.6,-2.4,4.9,22.21,55.42,1.9598,381.1319],
    [2852,1532796680,56.9431,-111.5579,650.8,335.8,175.9,-0.8,5.7,22.67,55.07,1.9571,380.9758],
    [2853,1532796681,56.9428,-111.5578,650.6,335.6,177.6,-0.8,4.9,21.95,55.47,1.9556,381.4208],
    [2854,1532796682,56.9424,-111.5578,649.9,334.9,177.3,-1.8,4.8,22.67,55.31,1.9548,382.3494],
    [2855,1532796683,56.942,-111.5578,648.5,333.5,176.9,-2.3,5.5,22.12,55.26,1.9569,381.3344],
    [2856,1532796684,56.9416,-111.5578,647.6,332.6,177.4,-1.7,6.8,21.99,55.37,1.9573,382.6045],
    [2857,1532796685,56.9411,-111.5578,647.8,332.8,178.2,-0.9,7.8,22.18,56.11,1.9574,381.7055],
    [2858,1532796686,56.9407,-111.5578,647.8,332.8,179.2,0.3,8.5,21.87,55.34,1.957,380.2999],
    [2859,1532796687,56.9403,-111.5578,646.3,331.3,180.8,1.6,9.1,22.05,55.44,1.9566,381.2366],
    [2860,1532796688,56.9399,-111.5578,644.5,329.5,179.3,0.3,9.0,21.77,55.69,1.9572,379.5814],
    [2861,1532796689,56.9395,-111.5577,642.3,327.3,178.1,-0.7,7.8,21.95,55.43,1.9562,379.5814],
    [2862,1532796690,56.939,-111.5577,639.9,324.9,178.4,-0.9,7.9,21.92,55.7,1.955,380.7297],
    [2863,1532796691,56.9386,-111.5577,637.7,322.7,179.9,0.0,8.4,22.04,55.56,1.9556,380.7297],
    [2864,1532796692,56.9381,-111.5577,635.8,320.8,181.1,0.5,7.7,21.97,55.33,1.9538,381.8059],
    [2865,1532796693,56.9377,-111.5577,634.9,319.9,180.4,-0.5,7.2,22.05,55.46,1.9554,381.8811],
    [2866,1532796694,56.9372,-111.5577,634.3,319.3,180.8,-0.2,6.6,21.81,55.03,1.9572,381.2929],
    [2867,1532796695,56.9368,-111.5578,633.9,318.8,181.8,0.3,5.5,21.67,54.91,1.9582,381.0932],
    [2868,1532796696,56.9363,-111.5578,634.8,318.8,179.6,-1.6,4.7,21.84,54.76,1.9562,380.1471],
    [2869,1532796697,56.9358,-111.5578,635.1,319.1,181.1,0.1,4.4,21.7,54.88,1.9551,379.8212],
    [2870,1532796698,56.9353,-111.5578,635.6,319.6,182.9,1.2,4.2,21.73,54.93,1.9543,379.8865],
    [2871,1532796699,56.9348,-111.5579,637.5,321.5,180.4,-1.1,4.1,22.04,55.34,1.9551,380.3521],
    [2872,1532796700,56.9343,-111.5579,640.0,324.0,180.3,-0.8,4.1,21.9,54.96,1.9581,381.2936],
    [2873,1532796701,56.9338,-111.5579,642.1,326.1,181.4,0.3,3.7,22.01,55.4,1.9586,380.3583],
    [2874,1532796702,56.9333,-111.5579,644.4,327.4,181.3,0.1,4.2,21.82,55.49,1.957,379.3979],
    [2875,1532796703,56.9328,-111.5579,647.7,330.7,182.0,0.9,3.1,22.08,55.21,1.9577,379.8202],
    [2876,1532796704,56.9323,-111.558,651.6,334.6,182.6,1.1,3.1,21.55,55.51,1.9599,379.3065],
    [2877,1532796705,56.9318,-111.558,655.2,337.1,180.7,-0.6,4.1,22.02,55.57,1.9595,380.0495],
    [2878,1532796706,56.9313,-111.558,659.3,341.3,179.8,-1.3,5.0,22.55,55.5,1.9595,379.161],
    [2879,1532796707,56.9308,-111.558,664.0,345.3,179.4,-1.7,5.2,21.98,55.81,1.9578,378.7637],
    [2880,1532796708,56.9303,-111.558,668.3,349.3,179.7,-1.6,3.7,21.53,55.84,1.9585,378.9445],
    [2881,1532796709,56.9298,-111.5581,672.1,353.1,180.7,-1.1,3.2,21.99,56.18,1.9594,378.9694],
    [2882,1532796710,56.9293,-111.5581,675.9,356.6,181.0,-1.1,2.1,22.06,55.84,1.9562,379.3861],
    [2883,1532796711,56.9288,-111.5581,679.7,359.7,180.7,-1.3,1.3,22.16,55.71,1.9526,379.6131],
    [2884,1532796712,56.9283,-111.5582,683.8,363.8,181.2,-1.0,1.0,21.38,55.91,1.9525,380.3954],
    [2885,1532796713,56.9278,-111.5582,688.5,368.5,181.2,-1.0,0.7,21.94,55.57,1.9575,380.2257],
    [2886,1532796714,56.9273,-111.5582,694.3,374.3,181.4,-0.6,1.3,21.34,55.55,1.9579,379.6279],
    [2887,1532796715,56.9268,-111.5583,702.0,382.0,181.2,-0.7,1.7,21.85,56.23,1.9565,379.624],
    [2888,1532796716,56.9263,-111.5583,711.5,391.5,180.9,-0.5,3.3,22.46,55.36,1.958,378.9599],
    [2889,1532796717,56.9259,-111.5583,719.9,400.0,182.3,1.2,5.5,21.72,56.21,1.9573,378.9599],
    [2890,1532796718,56.9254,-111.5583,727.1,408.2,182.0,1.3,7.2,21.76,57.19,1.9551,379.4164],
    [2891,1532796719,56.9249,-111.5584,733.8,414.9,180.2,-0.5,7.6,22.07,56.16,1.9532,379.9335],
    [2892,1532796720,56.9244,-111.5584,739.7,419.7,178.7,-1.5,7.2,21.71,56.5,1.9502,379.7566],
    [2893,1532796721,56.924,-111.5584,742.7,422.0,179.6,-0.4,6.5,21.55,56.59,1.9484,379.0698],
    [2894,1532796722,56.9235,-111.5584,743.0,420.9,179.5,-0.4,7.1,22.34,55.72,1.9476,380.0673],
    [2895,1532796723,56.923,-111.5583,742.6,419.6,178.5,-0.8,7.1,21.61,56.06,1.9492,379.4078],
    [2896,1532796724,56.9225,-111.5583,742.8,418.8,178.2,-0.4,7.1,21.42,55.6,1.9555,379.0025],
    [2897,1532796725,56.922,-111.5583,742.6,418.6,179.0,0.5,7.2,21.08,55.44,1.9567,379.428],
    [2898,1532796726,56.9215,-111.5583,742.4,417.4,178.6,0.2,6.3,21.53,55.68,1.9575,379.3398],
    [2899,1532796727,56.921,-111.5583,741.6,415.6,180.0,0.8,5.3,21.42,56.55,1.9603,378.6392],
    [2900,1532796728,56.9204,-111.5583,739.6,413.6,183.4,2.9,5.3,22.09,56.19,1.9614,380.0468],
    [2901,1532796729,56.9199,-111.5583,738.4,411.4,184.9,2.7,4.2,21.29,57.3,1.9602,378.6933],
    [2902,1532796730,56.9194,-111.5583,738.0,410.0,184.3,1.5,4.4,21.91,56.83,1.9589,378.9417],
    [2903,1532796731,56.9188,-111.5584,737.8,409.8,185.3,1.8,4.1,21.57,57.42,1.9565,378.9417],
    [2904,1532796732,56.9183,-111.5585,738.6,410.6,184.8,0.5,3.0,21.79,56.66,1.9591,378.9802],
    [2905,1532796733,56.9178,-111.5585,739.6,411.6,184.4,-0.3,4.5,21.59,57.23,1.959,379.4745],
    [2906,1532796734,56.9173,-111.5586,739.7,410.6,186.3,1.5,4.6,22.07,56.79,1.9595,378.5685],
    [2907,1532796735,56.9167,-111.5587,740.2,411.2,186.6,1.5,4.0,21.16,57.08,1.9613,378.5685],
    [2908,1532796736,56.9162,-111.5588,740.7,411.7,186.1,1.5,4.1,21.74,56.87,1.951,379.2932],
    [2909,1532796737,56.9157,-111.5589,740.2,411.2,188.1,3.4,3.6,21.35,57.69,1.9529,379.84],
    [2910,1532796738,56.9151,-111.559,740.7,411.7,186.1,1.7,5.0,21.57,56.62,1.9487,379.0752],
    [2911,1532796739,56.9145,-111.5591,741.3,411.3,183.6,0.2,5.8,21.44,56.29,1.9493,378.9771],
    [2912,1532796740,56.914,-111.5591,741.5,411.5,184.3,1.5,5.1,21.55,55.81,1.9494,379.6675],
    [2913,1532796741,56.9134,-111.5592,742.7,412.7,183.1,1.0,5.3,21.01,55.8,1.9504,379.5424],
    [2914,1532796742,56.9129,-111.5592,743.0,413.0,184.9,3.5,5.7,21.16,55.63,1.9473,379.2456],
    [2915,1532796743,56.9123,-111.5593,742.2,412.2,184.2,2.8,5.7,21.42,55.37,1.9472,378.6711],
    [2916,1532796744,56.9118,-111.5593,741.9,411.9,181.4,0.5,5.9,21.35,55.31,1.95,378.8226],
    [2917,1532796745,56.9112,-111.5593,740.7,410.7,182.9,2.8,5.6,21.08,55.28,1.9527,379.021],
    [2918,1532796746,56.9106,-111.5593,739.3,409.3,182.1,2.0,5.7,21.31,55.69,1.9551,376.9983],
    [2919,1532796747,56.9101,-111.5593,737.7,407.7,180.7,1.0,6.0,21.29,55.45,1.9573,378.9039],
    [2920,1532796748,56.9095,-111.5593,735.3,405.3,181.6,2.2,5.0,20.82,55.85,1.9604,378.7347],
    [2921,1532796749,56.9089,-111.5593,733.6,403.6,182.1,2.4,3.7,21.73,56.09,1.9575,377.5293],
    [2922,1532796750,56.9083,-111.5593,733.1,403.1,181.9,2.0,3.2,21.32,56.89,1.9551,378.9268],
    [2923,1532796751,56.9077,-111.5593,732.1,402.1,182.6,2.4,3.9,21.52,56.56,1.953,379.0283],
    [2924,1532796752,56.9071,-111.5593,731.3,400.3,183.1,2.6,3.3,21.47,57.2,1.952,378.4002],
    [2925,1532796753,56.9065,-111.5594,730.6,399.6,182.2,0.9,3.9,20.81,56.45,1.9527,378.9877],
    [2926,1532796754,56.9059,-111.5594,731.8,400.8,181.0,-0.4,3.4,21.23,56.0,1.9424,377.5004],
    [2927,1532796755,56.9053,-111.5594,733.2,402.2,182.1,0.4,3.8,21.23,55.78,1.9352,378.3481],
    [2928,1532796756,56.9047,-111.5595,733.5,401.5,182.9,1.3,3.4,21.53,54.76,1.9354,378.338],
    [2929,1532796757,56.9041,-111.5595,733.6,401.6,184.6,2.8,2.8,20.78,54.21,1.9434,378.5938],
    [2930,1532796758,56.9035,-111.5595,734.0,401.7,183.5,1.5,3.1,21.45,54.15,1.9485,378.9886],
    [2931,1532796759,56.9029,-111.5596,734.3,401.3,185.1,3.6,3.4,22.11,52.89,1.9498,378.3547],
    [2932,1532796760,56.9023,-111.5596,734.3,401.3,186.0,4.2,3.1,21.75,53.11,1.9498,379.0937],
    [2933,1532796761,56.9017,-111.5597,734.4,401.4,185.6,4.0,3.2,21.24,54.61,1.9481,379.0937],
    [2934,1532796762,56.9011,-111.5597,734.4,400.4,186.5,4.9,3.3,21.47,54.56,1.9471,377.3222],
    [2935,1532796763,56.9005,-111.5598,734.4,400.4,186.1,4.5,3.9,21.76,53.89,1.9466,377.3816],
    [2936,1532796764,56.8999,-111.5598,734.4,400.4,185.6,4.2,3.4,21.55,54.59,1.9535,378.2872],
    [2937,1532796765,56.8994,-111.5599,734.0,400.0,184.7,3.4,4.0,21.64,54.11,1.9559,378.68],
    [2938,1532796766,56.8987,-111.5599,733.4,399.4,184.5,3.5,4.3,22.13,54.2,1.9555,378.5303],
    [2939,1532796767,56.8982,-111.5599,732.3,397.3,185.0,4.6,4.0,21.51,55.86,1.9509,378.7211],
    [2940,1532796768,56.8975,-111.56,731.3,396.3,183.9,3.6,3.9,21.84,54.97,1.95,378.5487],
    [2941,1532796769,56.8969,-111.56,730.5,395.5,182.9,3.3,3.5,21.03,55.02,1.9508,378.9295],
    [2942,1532796770,56.8963,-111.56,729.9,394.9,183.7,4.1,3.3,21.26,55.08,1.9532,378.5851],
    [2943,1532796771,56.8957,-111.56,730.1,394.6,181.6,1.5,2.9,21.31,54.74,1.9523,378.1504],
    [2944,1532796772,56.8951,-111.56,730.1,394.1,182.0,2.0,2.7,21.04,54.9,1.9534,379.8904],
    [2945,1532796773,56.8945,-111.56,729.6,393.6,183.2,3.4,3.0,21.62,54.81,1.9521,379.6754],
    [2946,1532796774,56.8939,-111.56,729.2,393.2,183.8,3.7,3.4,21.55,55.18,1.9569,379.079],
    [2947,1532796775,56.8933,-111.56,729.4,394.4,183.1,2.9,3.5,21.51,55.59,1.9577,379.079],
    [2948,1532796776,56.8927,-111.5601,729.8,394.8,183.6,3.4,3.3,21.43,55.75,1.9597,378.363],
    [2949,1532796777,56.8921,-111.5601,730.4,394.7,183.4,3.0,2.9,21.27,56.04,1.9613,378.0179],
    [2950,1532796778,56.8915,-111.5601,731.4,395.3,182.6,2.3,2.9,21.16,56.99,1.9617,377.3827],
    [2951,1532796779,56.8909,-111.5601,732.2,395.4,183.0,2.7,3.0,21.42,57.13,1.9598,377.3827],
    [2952,1532796780,56.8903,-111.5601,732.8,395.8,182.9,2.7,2.0,21.3,56.81,1.9572,378.764],
    [2953,1532796781,56.8897,-111.5601,734.2,396.2,182.1,1.8,2.7,21.34,56.89,1.9579,378.1],
    [2954,1532796782,56.8891,-111.5601,736.1,397.5,181.3,1.0,3.5,21.76,56.19,1.9581,377.4428],
    [2955,1532796783,56.8885,-111.5602,737.5,398.5,181.1,0.8,4.2,21.17,56.53,1.9562,378.8373],
    [2956,1532796784,56.888,-111.5602,739.1,400.1,181.7,1.7,4.5,21.61,56.25,1.9591,378.1696],
    [2957,1532796785,56.8874,-111.5602,740.5,401.5,182.1,2.2,3.9,20.99,56.6,1.9597,379.4872],
    [2958,1532796786,56.8868,-111.5602,741.4,402.4,181.7,2.0,4.0,21.42,56.53,1.9582,379.4872],
    [2959,1532796787,56.8862,-111.5602,741.8,402.9,181.9,2.2,4.2,21.46,56.1,1.9561,378.1366],
    [2960,1532796788,56.8856,-111.5602,741.7,401.7,181.8,2.0,3.8,21.49,56.22,1.9538,378.1749],
    [2961,1532796789,56.885,-111.5602,741.2,400.2,181.6,1.8,3.7,21.5,56.16,1.9575,378.1749],
    [2962,1532796790,56.8844,-111.5602,741.0,399.7,182.3,2.3,3.6,21.02,56.34,1.9516,377.2953],
    [2963,1532796791,56.8838,-111.5602,741.6,399.6,181.6,1.3,3.9,21.22,55.72,1.9507,378.2691],
    [2964,1532796792,56.8832,-111.5602,742.8,400.1,181.1,0.7,3.9,21.17,56.0,1.9476,378.7765],
    [2965,1532796793,56.8826,-111.5602,743.4,400.4,181.9,1.8,3.5,21.55,55.43,1.9431,377.9285],
    [2966,1532796794,56.882,-111.5602,743.3,399.3,182.9,2.7,3.9,20.71,55.07,1.9525,378.4739],
    [2967,1532796795,56.8814,-111.5602,742.8,398.9,182.6,2.1,4.0,21.44,54.62,1.9577,378.588],
    [2968,1532796796,56.8808,-111.5603,742.6,397.5,183.1,2.4,3.4,21.58,55.28,1.9578,376.9863],
    [2969,1532796797,56.8803,-111.5603,742.4,396.3,183.9,3.0,3.1,21.41,56.1,1.9509,378.0962],
    [2970,1532796798,56.8797,-111.5603,742.0,396.0,184.2,3.2,3.1,21.47,56.41,1.9516,377.7945],
    [2971,1532796799,56.8791,-111.5603,741.6,394.9,184.2,3.3,3.5,21.17,55.85,1.9542,377.6456],
    [2972,1532796800,56.8785,-111.5604,740.9,395.0,184.5,3.8,4.4,21.32,55.88,1.955,379.2978],
    [2973,1532796801,56.8779,-111.5604,740.8,394.8,183.5,2.6,3.9,21.57,55.77,1.9549,379.2752],
    [2974,1532796802,56.8773,-111.5604,740.8,394.8,183.3,2.5,3.5,21.53,55.33,1.9576,378.0798],
    [2975,1532796803,56.8767,-111.5605,740.1,393.8,184.5,3.9,3.6,21.59,55.58,1.9577,377.3163],
    [2976,1532796804,56.8761,-111.5605,739.1,391.1,184.9,4.2,3.2,21.28,55.8,1.9563,377.5813],
    [2977,1532796805,56.8755,-111.5605,738.0,389.0,184.2,3.5,3.6,21.42,55.91,1.9591,377.9918],
    [2978,1532796806,56.8749,-111.5605,737.4,387.4,183.2,2.8,4.1,21.18,56.11,1.9615,378.225],
    [2979,1532796807,56.8743,-111.5606,737.3,386.2,182.6,2.7,3.6,21.77,55.69,1.9583,378.8487],
    [2980,1532796808,56.8737,-111.5606,737.9,385.9,181.9,1.8,2.8,21.78,55.82,1.9582,377.9268],
    [2981,1532796809,56.8731,-111.5606,738.8,385.8,180.9,1.2,2.8,21.23,56.39,1.9573,377.6332],
    [2982,1532796810,56.8726,-111.5606,739.5,385.3,181.5,2.3,3.6,21.41,57.27,1.9569,376.8995],
    [2983,1532796811,56.8719,-111.5605,740.0,385.7,180.8,1.9,3.9,21.09,56.54,1.9558,377.9532],
    [2984,1532796812,56.8713,-111.5605,740.8,385.8,180.5,1.9,4.1,21.46,56.0,1.9554,377.9464],
    [2985,1532796813,56.8708,-111.5605,741.7,386.7,180.5,1.9,4.5,21.68,55.5,1.9551,377.8802],
    [2986,1532796814,56.8702,-111.5605,742.6,386.6,180.2,1.6,4.7,21.25,56.3,1.955,376.4164],
    [2987,1532796815,56.8696,-111.5605,743.4,387.4,180.9,2.0,5.1,21.36,56.38,1.9556,376.843],
    [2988,1532796816,56.869,-111.5605,743.8,387.1,181.1,1.8,4.9,21.39,55.76,1.9556,376.843],
    [2989,1532796817,56.8684,-111.5605,744.3,387.3,181.4,2.0,4.2,21.26,55.8,1.9583,377.9568],
    [2990,1532796818,56.8678,-111.5604,744.8,387.4,181.6,1.8,3.4,21.18,55.68,1.9584,377.6007],
    [2991,1532796819,56.8672,-111.5605,744.6,386.6,181.0,1.3,3.2,21.96,55.3,1.9587,377.3629],
    [2992,1532796820,56.8666,-111.5604,743.9,385.9,181.8,2.3,3.3,21.49,56.25,1.959,377.3629],
    [2993,1532796821,56.866,-111.5604,743.2,384.2,181.6,2.1,3.0,21.28,56.21,1.9594,377.2533],
    [2994,1532796822,56.8654,-111.5604,742.5,383.5,182.6,3.2,3.1,22.02,55.92,1.9576,378.4319],
    [2995,1532796823,56.8648,-111.5605,742.1,383.2,183.5,3.6,3.3,21.54,56.23,1.9548,377.5124],
    [2996,1532796824,56.8642,-111.5605,742.2,382.2,183.3,2.9,3.1,21.8,56.18,1.9531,376.5863],
    [2997,1532796825,56.8636,-111.5605,742.0,381.7,183.6,3.2,3.3,21.69,56.15,1.9545,376.5314],
    [2998,1532796826,56.863,-111.5605,741.9,380.9,182.6,2.1,2.7,21.62,55.84,1.9527,376.5305],
    [2999,1532796827,56.8624,-111.5605,742.7,381.7,181.2,1.2,2.8,21.48,55.86,1.9516,377.159],
    [3000,1532796828,56.8618,-111.5605,742.9,381.9,181.8,2.6,2.8,21.32,55.81,1.9498,377.1222],
    [3001,1532796829,56.8612,-111.5605,743.4,382.4,181.9,3.3,3.2,21.51,55.37,1.9524,376.9957],
    [3002,1532796830,56.8606,-111.5605,744.2,383.2,181.2,2.9,2.4,21.71,54.95,1.9505,377.6174],
    [3003,1532796831,56.86,-111.5605,744.9,383.9,181.0,3.1,2.4,21.46,55.23,1.9499,377.3702],
    [3004,1532796832,56.8594,-111.5604,745.7,384.7,180.7,3.0,2.8,21.84,54.9,1.9516,377.8823],
    [3005,1532796833,56.8588,-111.5604,746.5,385.5,180.6,3.1,2.1,21.49,55.84,1.9513,378.3305],
    [3006,1532796834,56.8582,-111.5604,747.1,385.4,181.2,3.5,1.6,20.99,54.98,1.9526,376.7891],
    [3007,1532796835,56.8576,-111.5603,747.9,385.9,181.1,3.0,1.2,21.48,55.31,1.9579,377.7693],
    [3008,1532796836,56.857,-111.5603,749.2,387.2,181.3,2.8,1.9,21.44,55.31,1.9536,377.0334],
    [3009,1532796837,56.8564,-111.5603,750.1,388.1,181.6,2.6,2.7,21.3,55.38,1.9497,377.1981],
    [3010,1532796838,56.8558,-111.5603,751.0,390.0,182.2,2.8,2.4,21.64,55.09,1.947,376.9563],
    [3011,1532796839,56.8553,-111.5603,752.7,391.7,183.1,3.1,2.0,21.33,55.25,1.9462,376.7036],
    [3012,1532796840,56.8547,-111.5603,755.3,393.3,183.1,2.9,2.3,21.05,55.05,1.9437,375.9153],
    [3013,1532796841,56.8541,-111.5603,757.1,395.1,184.8,4.6,2.1,21.4,55.14,1.9486,376.8628],
    [3014,1532796842,56.8535,-111.5603,758.0,396.0,184.0,3.2,2.6,21.33,54.55,1.9498,376.6401],
    [3015,1532796843,56.8529,-111.5603,758.2,396.2,182.9,2.6,3.4,21.65,54.57,1.9489,376.6401],
    [3016,1532796844,56.8523,-111.5604,758.4,396.4,184.3,5.1,3.6,21.43,54.91,1.9512,375.6557],
    [3017,1532796845,56.8517,-111.5603,759.3,397.3,183.2,4.3,2.8,21.49,54.75,1.949,376.342],
    [3018,1532796846,56.8512,-111.5603,760.6,398.6,180.7,2.4,3.4,21.63,54.68,1.9481,377.1446],
    [3019,1532796847,56.8506,-111.5603,761.5,398.8,181.4,3.5,3.7,21.78,54.85,1.9479,377.1446],
    [3020,1532796848,56.85,-111.5603,762.4,399.5,181.0,3.3,3.8,21.02,55.06,1.9456,376.9783],
    [3021,1532796849,56.8494,-111.5602,763.3,399.3,179.7,1.9,4.3,21.28,55.65,1.9461,376.8942],
    [3022,1532796850,56.8489,-111.5602,764.1,399.0,179.7,2.0,5.0,20.86,54.98,1.9541,377.0705],
    [3023,1532796851,56.8483,-111.5602,764.0,399.0,179.7,1.8,4.1,21.43,55.28,1.955,376.6701],
    [3024,1532796852,56.8477,-111.5601,763.2,398.1,178.4,0.2,4.2,21.32,55.08,1.9482,377.1702],
    [3025,1532796853,56.8471,-111.5601,762.1,397.4,178.7,0.9,4.7,22.03,54.6,1.9487,376.2375],
    [3026,1532796854,56.8466,-111.56,760.9,396.0,182.0,4.3,4.7,21.49,55.95,1.9526,377.7585],
    [3027,1532796855,56.846,-111.56,759.9,394.5,182.3,3.8,4.0,21.67,55.14,1.9547,376.9526],
    [3028,1532796856,56.8454,-111.56,758.7,391.7,181.9,2.9,3.3,21.43,55.34,1.9532,376.4646],
    [3029,1532796857,56.8448,-111.56,757.7,389.0,183.2,3.7,3.8,21.33,55.31,1.9516,376.517],
    [3030,1532796858,56.8443,-111.56,756.8,386.6,182.9,3.0,4.0,21.91,54.87,1.9542,376.4815],
    [3031,1532796859,56.8437,-111.56,755.6,384.7,183.8,3.8,2.7,21.39,55.55,1.9564,377.191],
    [3032,1532796860,56.8431,-111.56,753.9,381.9,184.6,4.4,2.3,21.47,56.26,1.9531,376.6681],
    [3033,1532796861,56.8425,-111.56,752.9,380.7,182.6,2.3,1.6,21.54,55.98,1.9535,377.1208],
    [3034,1532796862,56.842,-111.5601,752.7,379.7,181.8,1.7,0.9,21.8,55.26,1.954,376.8762],
    [3035,1532796863,56.8414,-111.5601,752.4,378.4,183.0,3.3,0.6,21.28,55.54,1.9534,376.9668],
    [3036,1532796864,56.8408,-111.5601,753.0,378.0,184.3,4.9,0.6,21.3,55.82,1.9521,377.5563],
    [3037,1532796865,56.8402,-111.56,754.8,379.7,182.7,4.8,1.0,21.11,55.86,1.9511,377.2117],
    [3038,1532796866,56.8397,-111.56,757.9,381.8,178.6,3.5,1.4,21.19,55.93,1.9532,375.958],
    [3039,1532796867,56.8391,-111.5599,761.7,385.5,174.0,2.7,2.0,21.4,56.2,1.9527,375.8378],
    [3040,1532796868,56.8385,-111.5597,765.1,388.0,169.0,1.3,2.5,21.42,56.47,1.9526,375.8378],
    [3041,1532796869,56.838,-111.5594,768.0,391.0,165.2,1.8,2.9,21.59,56.03,1.9502,376.7503],
    [3042,1532796870,56.8375,-111.5591,770.3,392.6,163.2,3.4,3.4,21.29,56.36,1.9452,375.7],
    [3043,1532796871,56.837,-111.5587,771.9,393.9,160.2,3.6,3.0,21.3,56.33,1.9446,376.0012],
    [3044,1532796872,56.8365,-111.5583,772.4,394.3,157.8,3.9,3.1,21.36,56.54,1.9461,376.0012],
    [3045,1532796873,56.836,-111.5578,772.7,395.7,155.3,4.1,3.4,21.63,55.27,1.9432,375.797],
    [3046,1532796874,56.8355,-111.5573,772.9,396.9,151.8,2.8,3.9,21.34,55.94,1.9444,375.3175],
    [3047,1532796875,56.835,-111.5567,773.5,397.5,148.6,2.5,3.7,21.45,55.04,1.9455,376.26],
    [3048,1532796876,56.8346,-111.5561,774.5,398.5,146.3,3.0,3.5,20.99,55.15,1.946,375.1002],
    [3049,1532796877,56.8342,-111.5555,775.6,398.9,143.9,3.4,3.3,21.57,54.91,1.9494,376.6409],
    [3050,1532796878,56.8337,-111.5548,777.0,400.0,142.4,3.8,3.8,21.4,55.35,1.9543,377.8677],
    [3051,1532796879,56.8333,-111.5541,778.3,401.0,139.3,1.8,4.8,21.46,56.34,1.959,376.5252],
    [3052,1532796880,56.833,-111.5534,778.8,401.9,137.9,2.0,6.3,21.17,56.94,1.9601,377.6888],
    [3053,1532796881,56.8326,-111.5526,778.9,402.9,136.0,2.7,5.7,20.94,57.23,1.9597,377.9531],
    [3054,1532796882,56.8322,-111.5518,779.2,404.2,133.6,2.2,5.7,20.85,57.4,1.959,376.8944],
    [3055,1532796883,56.8319,-111.551,779.0,405.1,132.8,2.7,7.0,21.34,57.99,1.9608,377.8048],
    [3056,1532796884,56.8316,-111.5502,778.5,407.3,128.8,1.0,5.7,22.01,57.29,1.9612,378.3533],
    [3057,1532796885,56.8313,-111.5493,777.6,408.6,124.0,-0.1,4.4,21.47,57.93,1.9591,378.3533],
    [3058,1532796886,56.831,-111.5483,775.7,406.7,122.0,0.9,5.2,21.57,57.3,1.9562,376.6855],
    [3059,1532796887,56.8307,-111.5474,774.3,405.3,118.4,1.0,4.5,21.28,58.18,1.9557,376.4772],
    [3060,1532796888,56.8305,-111.5464,772.8,404.9,113.5,0.6,2.2,21.33,57.34,1.9569,377.3096],
    [3061,1532796889,56.8303,-111.5454,770.6,403.6,111.1,1.3,2.3,21.67,56.99,1.9578,378.8605],
    [3062,1532796890,56.8301,-111.5444,768.4,402.4,109.4,2.0,2.6,21.25,57.29,1.9562,377.4691],
    [3063,1532796891,56.8299,-111.5433,766.3,402.0,106.7,2.1,1.9,20.89,57.69,1.9538,377.3658],
    [3064,1532796892,56.8298,-111.5423,765.0,401.6,106.1,2.7,3.6,21.57,56.99,1.9542,377.617],
    [3065,1532796893,56.8297,-111.5412,764.0,401.0,104.5,2.8,3.9,21.67,56.52,1.9532,375.5889],
    [3066,1532796894,56.8296,-111.5401,763.0,402.0,101.4,3.3,3.2,21.09,57.19,1.95,376.0301],
    [3067,1532796895,56.8295,-111.5389,761.7,402.7,98.1,3.0,2.3,21.24,56.67,1.9465,376.6708],
    [3068,1532796896,56.8295,-111.5378,760.6,402.6,95.6,3.4,2.1,21.32,56.37,1.9463,375.7488],
    [3069,1532796897,56.8294,-111.5367,759.6,401.6,94.4,3.1,2.7,20.89,55.75,1.9457,375.5482],
    [3070,1532796898,56.8294,-111.5355,758.7,400.7,92.8,3.5,2.9,21.03,55.48,1.9457,375.6974],
    [3071,1532796899,56.8294,-111.5344,758.0,400.0,92.3,4.1,3.7,21.66,55.28,1.9463,376.3058],
    [3072,1532796900,56.8294,-111.5333,757.6,399.4,90.6,4.2,3.1,21.29,55.73,1.9517,376.2381],
    [3073,1532796901,56.8295,-111.5322,757.3,399.3,89.3,4.3,3.2,20.72,55.33,1.9507,375.7862],
    [3074,1532796902,56.8295,-111.5311,757.5,399.5,89.2,4.1,3.9,20.72,55.5,1.948,375.9836],
    [3075,1532796903,56.8296,-111.53,757.8,399.8,88.3,3.5,3.4,22.19,55.25,1.9473,375.4806],
    [3076,1532796904,56.8296,-111.5289,757.9,400.9,87.7,3.1,3.2,21.96,54.97,1.9533,376.6249],
    [3077,1532796905,56.8297,-111.5278,757.9,402.0,88.5,3.3,4.2,20.97,55.68,1.9541,377.064],
    [3078,1532796906,56.8297,-111.5267,757.8,402.5,88.8,3.1,4.6,20.84,55.93,1.9545,377.9124],
    [3079,1532796907,56.8298,-111.5255,757.1,403.2,87.7,3.1,3.6,21.18,56.22,1.9537,376.9549],
    [3080,1532796908,56.8298,-111.5244,756.2,402.1,86.8,3.1,2.9,21.18,56.28,1.9545,377.297],
    [3081,1532796909,56.8299,-111.5233,755.2,402.0,86.7,2.5,2.8,21.7,55.58,1.9608,377.7889],
    [3082,1532796910,56.8299,-111.5222,754.5,401.5,86.5,1.5,2.4,21.28,56.58,1.9596,377.7889],
    [3083,1532796911,56.83,-111.521,754.2,402.0,87.6,1.3,3.6,21.15,56.71,1.961,377.4739],
    [3084,1532796912,56.8301,-111.5199,753.7,401.7,88.7,0.6,4.1,21.33,57.02,1.9594,377.7988],
    [3085,1532796913,56.8301,-111.5187,753.9,401.8,87.6,-0.2,2.1,21.07,57.81,1.9616,377.7988],
    [3086,1532796914,56.8302,-111.5176,754.3,403.1,88.0,0.8,2.5,21.55,56.94,1.9618,376.246],
    [3087,1532796915,56.8302,-111.5165,754.3,403.3,89.6,0.1,3.5,21.06,57.52,1.9617,378.033],
    [3088,1532796916,56.8302,-111.5154,754.8,404.5,89.6,0.9,3.5,21.13,57.52,1.9616,377.5029],
    [3089,1532796917,56.8303,-111.5143,754.7,404.7,91.5,1.5,5.4,21.57,57.2,1.9611,377.4477],
    [3090,1532796918,56.8303,-111.5132,754.4,404.4,91.0,1.0,4.6,20.89,57.69,1.9556,375.8018],
    [3091,1532796919,56.8303,-111.512,753.8,403.8,90.6,1.8,3.9,21.22,57.69,1.9518,377.2993],
    [3092,1532796920,56.8303,-111.5109,754.3,404.3,91.1,2.1,3.9,21.86,57.06,1.9502,376.204],
    [3093,1532796921,56.8304,-111.5098,754.8,404.8,91.4,2.2,4.2,21.24,57.19,1.9505,375.7931],
    [3094,1532796922,56.8304,-111.5086,755.2,406.2,92.0,2.6,4.9,21.19,56.45,1.9418,375.1148],
    [3095,1532796923,56.8304,-111.5075,755.2,406.2,91.2,3.4,4.1,21.9,55.54,1.9384,376.1225],
    [3096,1532796924,56.8304,-111.5064,753.9,404.9,90.4,3.7,3.4,21.09,55.32,1.937,374.9736],
    [3097,1532796925,56.8305,-111.5052,752.1,403.1,90.9,3.6,3.5,21.59,54.54,1.9385,375.9526],
    [3098,1532796926,56.8305,-111.5041,750.4,401.4,90.8,3.8,3.2,22.03,53.84,1.9376,376.0915],
    [3099,1532796927,56.8305,-111.503,748.3,399.4,91.9,4.3,3.9,21.65,53.68,1.9419,375.0592],
    [3100,1532796928,56.8305,-111.5018,746.6,397.6,92.8,4.4,4.2,21.29,53.73,1.9433,376.9417],
    [3101,1532796929,56.8305,-111.5007,745.3,397.3,92.8,3.5,3.8,21.55,53.65,1.9465,376.9417],
    [3102,1532796930,56.8305,-111.4996,744.1,396.1,92.5,3.3,3.7,21.18,54.07,1.9519,376.4621],
    [3103,1532796931,56.8305,-111.4984,743.1,395.1,92.3,3.3,3.8,21.95,53.83,1.9512,376.4621],
    [3104,1532796932,56.8305,-111.4973,742.3,394.3,91.5,2.7,3.4,22.21,54.35,1.9535,376.8882],
    [3105,1532796933,56.8306,-111.4961,742.0,394.0,91.4,2.9,3.6,21.32,55.01,1.9535,375.9977],
    [3106,1532796934,56.8306,-111.495,741.9,393.9,91.2,2.9,3.7,21.29,55.33,1.9571,377.7313],
    [3107,1532796935,56.8306,-111.4938,741.6,393.6,91.7,3.1,4.2,21.56,55.9,1.961,377.4957],
    [3108,1532796936,56.8306,-111.4927,741.1,392.3,91.6,3.7,3.9,21.26,56.54,1.9611,376.8994],
    [3109,1532796937,56.8306,-111.4915,740.6,392.6,91.2,3.4,3.5,21.54,56.84,1.9597,376.8029],
    [3110,1532796938,56.8307,-111.4904,740.9,392.9,91.4,2.6,4.2,21.14,57.78,1.9592,377.4734],
    [3111,1532796939,56.8307,-111.4892,741.7,393.7,92.2,3.1,5.0,21.61,57.57,1.9572,377.3325],
    [3112,1532796940,56.8307,-111.488,742.8,395.8,91.4,3.2,4.2,20.79,57.77,1.9547,377.717],
    [3113,1532796941,56.8307,-111.4869,744.2,397.2,90.9,2.5,4.0,21.22,57.87,1.9511,376.6826],
    [3114,1532796942,56.8308,-111.4857,745.4,398.4,89.6,2.3,3.0,21.4,56.81,1.9492,377.6109],
    [3115,1532796943,56.8308,-111.4846,745.8,398.8,89.3,3.1,3.0,20.95,57.0,1.9471,375.9096],
    [3116,1532796944,56.8308,-111.4834,745.1,399.1,89.7,2.7,3.3,21.23,56.57,1.9504,375.9096],
    [3117,1532796945,56.8309,-111.4823,743.6,397.6,90.9,2.9,4.2,21.06,56.21,1.953,375.7941],
    [3118,1532796946,56.8309,-111.4812,742.2,395.2,91.7,4.3,4.5,20.53,56.12,1.9488,374.9371],
    [3119,1532796947,56.8309,-111.48,741.3,394.3,92.1,4.1,4.5,21.26,56.72,1.9418,375.1902],
    [3120,1532796948,56.8309,-111.4789,740.6,393.6,92.7,4.1,4.6,20.92,56.3,1.9408,375.267],
    [3121,1532796949,56.8309,-111.4777,740.3,393.3,92.3,3.5,3.8,21.98,55.04,1.9429,374.9879],
    [3122,1532796950,56.8309,-111.4766,739.6,393.2,92.4,3.3,3.8,21.2,55.18,1.9443,375.7171],
    [3123,1532796951,56.831,-111.4755,739.4,393.4,92.9,2.7,4.4,21.48,54.71,1.9465,375.7252],
    [3124,1532796952,56.831,-111.4743,738.5,392.5,92.6,1.8,4.1,20.93,54.85,1.9633,377.6812],
    [3125,1532796953,56.831,-111.4732,736.5,391.5,93.1,1.2,4.9,21.24,55.77,1.9754,378.4114],
    [3126,1532796954,56.831,-111.472,734.7,389.7,93.2,1.0,4.7,21.47,55.6,1.9701,378.3968],
    [3127,1532796955,56.831,-111.4709,733.3,389.3,92.9,0.9,4.2,21.18,56.41,1.9772,378.636],
    [3128,1532796956,56.831,-111.4697,732.1,388.1,94.1,1.8,5.0,21.57,57.37,1.9825,380.3911],
    [3129,1532796957,56.831,-111.4686,731.3,387.3,93.4,2.2,3.7,21.87,57.56,1.9825,380.5424],
    [3130,1532796958,56.831,-111.4674,730.9,386.9,94.0,1.9,4.5,21.25,59.01,1.9857,381.0045],
    [3131,1532796959,56.831,-111.4663,730.2,386.2,95.3,2.1,5.7,21.25,59.54,1.9836,380.1265],
    [3132,1532796960,56.831,-111.4651,730.0,386.0,93.7,1.8,3.8,21.12,59.86,1.985,380.1265],
    [3133,1532796961,56.831,-111.464,730.7,386.7,93.3,1.3,3.9,20.54,59.59,1.9762,379.8178],
    [3134,1532796962,56.831,-111.4629,731.6,387.6,94.5,2.1,5.1,21.21,59.86,1.9721,379.8607],
    [3135,1532796963,56.831,-111.4617,731.9,387.9,94.4,1.9,5.1,21.19,59.72,1.9696,377.6568],
    [3136,1532796964,56.831,-111.4605,731.4,387.4,95.0,1.5,5.5,21.21,59.21,1.9698,378.6142],
    [3137,1532796965,56.831,-111.4594,730.6,386.9,94.9,1.9,5.1,20.41,59.22,1.9646,378.7157],
    [3138,1532796966,56.831,-111.4583,729.5,386.5,94.2,2.9,4.2,21.07,58.88,1.9606,376.9951],
    [3139,1532796967,56.8309,-111.4571,728.2,386.2,95.4,3.9,5.4,21.01,58.56,1.9588,377.5876],
    [3140,1532796968,56.8309,-111.4559,727.1,385.1,95.0,3.8,4.8,21.38,58.26,1.9568,376.465],
    [3141,1532796969,56.8309,-111.4548,725.8,384.8,94.6,3.4,4.4,21.13,58.12,1.9549,375.6095],
    [3142,1532796970,56.8309,-111.4536,724.6,384.6,94.8,4.1,4.6,20.89,57.93,1.9514,375.4579],
    [3143,1532796971,56.8309,-111.4524,723.4,384.4,94.5,4.2,4.1,21.16,58.0,1.951,375.4579],
    [3144,1532796972,56.8309,-111.4513,722.7,384.8,94.4,4.1,4.1,21.54,57.73,1.9511,375.2895],
    [3145,1532796973,56.8309,-111.4501,721.7,384.0,95.7,4.5,5.3,21.72,56.88,1.9466,374.3733],
    [3146,1532796974,56.8309,-111.449,720.3,384.0,94.1,4.5,3.6,20.77,56.77,1.943,373.9478],
    [3147,1532796975,56.8309,-111.4478,719.1,384.1,93.8,4.5,3.8,21.34,56.53,1.9409,374.5256],
    [3148,1532796976,56.8309,-111.4467,717.6,384.5,95.9,5.1,5.8,21.19,56.49,1.9411,375.2904],
    [3149,1532796977,56.8309,-111.4455,716.4,385.4,95.0,4.8,4.8,21.07,55.52,1.9372,375.6352],
    [3150,1532796978,56.8308,-111.4444,715.4,389.8,94.9,4.9,4.8,20.7,54.89,1.9349,374.6327],
    [3151,1532796979,56.8308,-111.4432,714.3,396.4,95.1,4.9,4.9,21.37,54.31,1.9346,374.5386],
    [3152,1532796980,56.8308,-111.442,713.3,407.5,95.2,4.9,5.1,20.96,54.14,1.9376,376.0028],
    [3153,1532796981,56.8308,-111.4409,712.2,420.1,95.2,4.8,5.2,21.53,53.59,1.9375,374.9801],
    [3154,1532796982,56.8308,-111.4397,711.4,435.7,94.6,4.5,4.9,21.22,53.57,1.9371,375.2886],
    [3155,1532796983,56.8308,-111.4386,710.5,446.2,94.4,4.0,5.0,21.31,53.92,1.9431,375.0232],
    [3156,1532796984,56.8308,-111.4374,709.4,453.5,94.0,3.9,5.0,20.7,53.58,1.9476,375.487],
    [3157,1532796985,56.8308,-111.4362,708.4,457.4,94.0,3.9,5.1,21.46,53.78,1.9467,375.487],
    [3158,1532796986,56.8308,-111.435,707.4,458.5,94.0,4.0,5.1,21.37,54.6,1.9499,374.6941],
    [3159,1532796987,56.8308,-111.4338,706.3,458.3,94.0,4.4,5.2,21.19,54.5,1.9479,376.3109],
    [3160,1532796988,56.8308,-111.4327,705.1,458.1,93.8,4.7,5.0,20.88,54.48,1.9472,375.8987],
    [3161,1532796989,56.8308,-111.4315,703.9,457.8,94.0,5.3,5.2,21.17,54.81,1.9472,375.8191],
    [3162,1532796990,56.8308,-111.4303,702.7,457.0,94.0,4.9,5.3,21.3,54.93,1.9503,375.6059],
    [3163,1532796991,56.8308,-111.4292,702.3,458.2,94.1,5.0,5.4,21.44,54.33,1.9539,374.077],
    [3164,1532796992,56.8308,-111.428,703.4,461.4,94.5,5.1,5.6,21.28,54.77,1.9551,375.9446],
    [3165,1532796993,56.8309,-111.4268,705.2,464.2,94.6,5.0,5.8,21.16,55.48,1.9548,376.1323],
    [3166,1532796994,56.8309,-111.4256,706.5,466.2,94.8,5.0,6.1,21.21,55.77,1.9554,374.8506],
    [3167,1532796995,56.8309,-111.4245,707.5,466.5,94.4,5.0,5.7,21.49,55.42,1.9527,375.5356],
    [3168,1532796996,56.8309,-111.4233,708.2,466.3,94.3,5.0,5.7,21.53,55.4,1.9516,375.6024],
    [3169,1532796997,56.8309,-111.4222,708.9,465.9,94.5,4.9,6.0,21.25,56.03,1.9518,375.1199],
    [3170,1532796998,56.8309,-111.421,710.1,466.1,93.9,4.8,5.5,21.22,56.66,1.9512,375.6821],
    [3171,1532796999,56.8309,-111.4199,711.7,468.1,93.9,4.5,5.8,21.73,55.51,1.9503,375.394],
    [3172,1532797000,56.8309,-111.4187,713.3,471.3,93.3,4.3,5.4,21.6,55.97,1.9463,375.6522],
    [3173,1532797001,56.8309,-111.4176,715.0,475.8,92.5,4.3,5.0,21.67,55.41,1.9437,375.0525],
    [3174,1532797002,56.8309,-111.4164,716.2,478.2,92.4,4.0,5.2,21.17,55.73,1.9427,375.0262],
    [3175,1532797003,56.831,-111.4153,717.0,479.0,92.3,3.6,5.3,21.52,54.94,1.9431,375.5928],
    [3176,1532797004,56.831,-111.4142,717.2,479.2,92.2,3.5,5.4,21.14,55.33,1.9406,375.1998],
    [3177,1532797005,56.831,-111.4131,717.2,479.2,92.2,3.5,5.4,21.2,55.13,1.9406,374.2724],
    [3178,1532797006,56.831,-111.4119,717.3,478.3,92.1,3.2,5.4,21.14,55.01,1.9416,375.0701],
    [3179,1532797007,56.8311,-111.4108,717.4,478.4,91.9,3.1,5.1,21.6,54.53,1.9431,374.9925],
    [3180,1532797008,56.8311,-111.4097,717.5,471.6,92.3,3.2,5.2,21.23,55.15,1.9438,375.0678],
    [3181,1532797009,56.8311,-111.4085,716.6,455.5,93.3,3.3,5.6,20.88,54.48,1.9486,375.3057],
    [3182,1532797010,56.8311,-111.4074,714.7,434.1,94.2,3.2,5.7,21.42,54.31,1.9546,377.7406],
    [3183,1532797011,56.8311,-111.4063,712.9,417.9,95.2,3.2,6.0,21.33,54.49,1.9543,378.0867],
    [3184,1532797012,56.8311,-111.4051,711.9,407.5,96.0,3.3,6.3,21.17,55.21,1.9497,375.6939],
    [3185,1532797013,56.8311,-111.404,711.6,399.2,96.3,3.4,6.3,21.09,55.28,1.9489,376.2595],
    [3186,1532797014,56.8311,-111.4029,711.6,392.6,96.5,3.9,6.3,21.51,55.43,1.9479,374.514],
    [3187,1532797015,56.8311,-111.4017,711.4,385.3,96.4,4.0,5.9,21.39,55.59,1.9458,374.0863],
    [3188,1532797016,56.8311,-111.4006,711.0,379.4,96.5,4.8,5.7,21.22,56.12,1.9448,375.6776],
    [3189,1532797017,56.8311,-111.3995,710.2,374.3,96.5,5.4,5.5,20.83,55.27,1.9448,375.7151],
    [3190,1532797018,56.8311,-111.3983,709.5,368.8,96.5,6.1,5.2,21.08,55.35,1.9428,375.3574],
    [3191,1532797019,56.831,-111.3972,709.1,365.1,96.7,6.8,5.2,20.67,55.03,1.9435,375.2745],
    [3192,1532797020,56.831,-111.3961,709.5,362.5,96.8,6.8,5.2,21.38,54.75,1.9476,375.2289],
    [3193,1532797021,56.831,-111.3949,710.9,361.2,96.6,6.2,5.4,21.38,55.37,1.9493,375.7938],
    [3194,1532797022,56.831,-111.3938,713.2,362.2,96.4,6.4,5.5,20.87,55.06,1.9459,375.7784],
    [3195,1532797023,56.831,-111.3927,716.5,365.5,95.4,5.6,5.1,21.02,55.39,1.9505,375.183],
    [3196,1532797024,56.831,-111.3916,720.6,369.5,94.9,5.1,5.2,21.2,55.51,1.9488,374.9824],
    [3197,1532797025,56.831,-111.3905,724.9,374.8,94.7,4.7,5.3,21.14,56.22,1.9487,374.625],
    [3198,1532797026,56.831,-111.3894,728.6,379.5,94.2,4.9,5.0,21.56,55.66,1.9513,376.6329],
    [3199,1532797027,56.831,-111.3883,731.3,383.0,94.0,4.2,5.2,21.14,56.8,1.9588,378.3872],
    [3200,1532797028,56.831,-111.3873,733.1,385.1,94.0,4.7,5.2,20.76,56.67,1.951,376.7053],
    [3201,1532797029,56.831,-111.3862,734.3,385.6,93.6,5.3,4.7,20.41,56.62,1.9412,374.4614],
    [3202,1532797030,56.831,-111.3851,735.3,385.6,93.9,5.1,4.6,21.18,56.48,1.9332,374.3956],
    [3203,1532797031,56.831,-111.3841,736.4,386.6,94.7,4.9,4.9,21.2,55.73,1.9298,373.8486],
    [3204,1532797032,56.831,-111.383,737.9,386.9,94.7,4.4,4.6,21.73,54.69,1.9289,370.7036],
    [3205,1532797033,56.831,-111.3819,738.9,386.8,95.5,3.8,5.4,20.84,54.22,1.9303,374.1664],
    [3206,1532797034,56.831,-111.3809,740.1,387.2,96.0,3.5,5.8,21.03,53.8,1.931,374.8389],
    [3207,1532797035,56.831,-111.3798,741.1,387.0,94.4,2.9,4.4,21.23,53.38,1.9302,374.9776],
    [3208,1532797036,56.831,-111.3788,741.3,388.3,93.9,2.8,4.2,21.16,53.47,1.932,374.3671],
    [3209,1532797037,56.831,-111.3777,740.8,388.4,95.4,2.6,5.7,20.98,53.6,1.933,374.2974],
    [3210,1532797038,56.831,-111.3767,739.9,388.7,95.6,2.3,5.8,20.53,53.64,1.9351,374.9111],
    [3211,1532797039,56.831,-111.3757,738.8,388.9,95.1,2.1,5.2,21.25,53.51,1.936,374.6643],
    [3212,1532797040,56.831,-111.3746,737.9,386.9,95.7,2.3,5.5,21.3,53.3,1.9354,375.3244],
    [3213,1532797041,56.831,-111.3735,737.5,385.7,96.0,2.0,5.6,21.06,53.34,1.9351,375.1688],
    [3214,1532797042,56.831,-111.3725,737.4,384.5,96.1,2.4,5.6,21.5,52.83,1.9346,375.3322],
    [3215,1532797043,56.8309,-111.3714,737.2,383.4,96.4,2.0,5.9,21.06,54.09,1.9335,374.3106],
    [3216,1532797044,56.8309,-111.3704,737.2,382.1,96.3,1.6,5.8,21.05,53.95,1.9382,374.7563],
    [3217,1532797045,56.8309,-111.3693,737.2,381.2,96.5,1.4,6.1,20.72,53.5,1.9421,376.1214],
    [3218,1532797046,56.8309,-111.3682,737.4,380.5,96.3,0.9,6.0,20.88,54.48,1.9411,375.983],
    [3219,1532797047,56.8309,-111.3672,737.9,379.9,96.1,1.6,5.6,20.88,54.03,1.9396,375.438],
    [3220,1532797048,56.8309,-111.3661,738.5,380.2,96.2,2.1,5.5,21.02,54.31,1.9426,376.4228],
    [3221,1532797049,56.8309,-111.365,739.5,380.5,95.6,1.7,5.1,20.9,54.34,1.9459,375.979],
    [3222,1532797050,56.8309,-111.364,740.8,381.8,95.3,1.4,5.2,21.07,55.0,1.9524,377.1135],
    [3223,1532797051,56.8309,-111.3629,742.4,383.4,95.4,1.1,5.4,21.17,54.66,1.9507,377.5046],
    [3224,1532797052,56.8309,-111.3618,744.3,384.3,94.9,0.8,4.9,21.01,55.17,1.9455,377.1659],
    [3225,1532797053,56.8309,-111.3608,746.1,386.1,95.8,0.6,5.9,21.35,54.95,1.9409,375.8093],
    [3226,1532797054,56.8309,-111.3597,747.2,387.2,97.4,0.8,7.1,20.37,55.19,1.9425,375.8137],
    [3227,1532797055,56.8308,-111.3587,747.5,386.5,96.8,2.0,5.9,21.1,55.33,1.9413,375.2127],
    [3228,1532797056,56.8308,-111.3576,747.4,386.4,95.9,2.3,4.9,20.31,54.81,1.9488,376.5029],
    [3229,1532797057,56.8308,-111.3566,747.2,386.2,97.1,2.2,5.7,20.47,54.79,1.9501,374.7052],
    [3230,1532797058,56.8308,-111.3555,747.1,385.1,97.5,2.3,6.0,20.89,55.14,1.9523,377.4095],
    [3231,1532797059,56.8308,-111.3544,747.4,385.4,97.0,1.5,5.8,21.03,55.19,1.952,377.1048],
    [3232,1532797060,56.8308,-111.3534,747.8,385.8,95.9,2.0,5.2,20.79,55.62,1.9388,376.4127],
    [3233,1532797061,56.8307,-111.3523,748.3,386.3,95.0,1.7,5.3,21.01,56.27,1.9393,375.4508],
    [3234,1532797062,56.8307,-111.3513,748.5,385.5,94.8,1.1,5.4,21.58,55.04,1.9366,374.4206],
    [3235,1532797063,56.8307,-111.3502,748.5,385.5,92.9,1.4,3.5,20.82,55.76,1.9322,374.3863],
    [3236,1532797064,56.8308,-111.3491,748.2,385.2,93.1,1.4,4.0,20.91,54.88,1.9304,375.0452],
    [3237,1532797065,56.8308,-111.3481,747.5,384.5,93.9,1.7,4.7,20.64,54.58,1.9266,373.3503],
    [3238,1532797066,56.8308,-111.347,746.9,383.9,92.7,2.2,3.9,21.78,53.04,1.9237,374.2718],
    [3239,1532797067,56.8308,-111.346,745.7,382.7,94.8,2.2,6.4,20.96,53.36,1.9319,374.3426],
    [3240,1532797068,56.8308,-111.3449,745.1,383.1,94.8,2.5,6.2,21.05,53.33,1.9317,375.0419],
    [3241,1532797069,56.8308,-111.3438,745.5,383.5,93.3,2.7,4.8,20.78,53.32,1.9362,374.3644],
    [3242,1532797070,56.8308,-111.3428,746.0,384.0,94.5,1.8,6.1,21.35,52.98,1.9374,375.7272],
    [3243,1532797071,56.8308,-111.3417,745.7,383.2,94.7,3.0,6.1,20.97,53.56,1.9299,374.2656],
    [3244,1532797072,56.8308,-111.3406,745.0,382.0,95.0,2.9,6.4,20.97,53.51,1.9299,373.3324],
    [3245,1532797073,56.8308,-111.3395,744.4,380.3,94.5,2.3,5.6,21.9,52.76,1.9228,373.7105],
    [3246,1532797074,56.8308,-111.3385,744.8,380.8,93.4,2.1,4.4,21.6,52.51,1.9272,373.9723],
    [3247,1532797075,56.8308,-111.3374,745.6,380.9,94.7,2.1,5.6,21.06,53.1,1.9452,376.5669],
    [3248,1532797076,56.8308,-111.3363,746.0,381.0,94.3,3.6,4.5,21.36,52.39,1.946,375.8497],
    [3249,1532797077,56.8308,-111.3353,746.5,381.5,93.5,2.3,4.2,20.93,53.55,1.9431,374.9415],
    [3250,1532797078,56.8308,-111.3342,746.5,381.6,96.0,3.2,6.7,20.63,53.35,1.9429,376.0504],
    [3251,1532797079,56.8308,-111.3331,746.4,380.5,95.4,3.1,6.0,20.77,53.34,1.9439,374.3644],
    [3252,1532797080,56.8308,-111.332,746.4,380.4,93.9,2.1,4.8,21.02,53.35,1.955,376.3388],
    [3253,1532797081,56.8308,-111.331,746.6,380.6,94.1,3.4,4.8,21.43,53.19,1.9555,377.0703],
    [3254,1532797082,56.8308,-111.3299,747.2,380.2,94.5,2.7,5.3,21.04,54.35,1.9496,376.383],
    [3255,1532797083,56.8309,-111.3289,748.5,381.5,94.0,2.7,4.7,21.03,54.46,1.9473,374.6177],
    [3256,1532797084,56.8309,-111.3278,749.7,381.7,93.1,2.8,4.2,21.48,53.9,1.9469,375.9543],
    [3257,1532797085,56.8309,-111.3268,750.3,382.3,92.4,2.2,3.3,21.3,54.1,1.9482,376.7941],
    [3258,1532797086,56.8309,-111.3257,751.0,382.0,91.7,2.5,2.7,20.38,54.64,1.9452,375.0678],
    [3259,1532797087,56.8309,-111.3246,752.0,383.0,93.0,2.2,3.6,20.69,54.11,1.9342,374.8505],
    [3260,1532797088,56.8309,-111.3236,752.7,382.7,93.4,1.9,3.6,21.0,53.85,1.9256,374.4582],
    [3261,1532797089,56.8309,-111.3225,753.4,383.4,94.2,2.6,4.4,20.67,53.62,1.928,374.1611],
    [3262,1532797090,56.8309,-111.3215,753.8,382.8,94.7,2.8,4.5,21.02,53.3,1.9228,373.5697],
    [3263,1532797091,56.8309,-111.3204,753.4,382.4,93.6,3.4,3.5,21.01,52.54,1.9216,373.4087],
    [3264,1532797092,56.8309,-111.3194,752.8,380.8,94.5,3.6,4.7,21.16,52.44,1.9201,372.7145],
    [3265,1532797093,56.8309,-111.3183,752.0,379.0,95.6,3.8,5.6,20.78,51.76,1.9189,373.4668],
    [3266,1532797094,56.8309,-111.3173,752.0,379.0,94.8,3.4,4.9,21.01,51.67,1.9249,373.379],
    [3267,1532797095,56.8309,-111.3162,752.0,378.0,95.0,3.2,5.3,20.76,51.7,1.9415,375.8475],
    [3268,1532797096,56.8309,-111.3152,752.6,377.6,94.4,3.8,4.8,20.52,52.18,1.9581,375.7064],
    [3269,1532797097,56.8309,-111.3141,754.1,377.3,94.3,4.0,4.8,21.27,52.74,1.9602,375.9313],
    [3270,1532797098,56.8309,-111.3131,756.0,377.9,94.9,4.2,5.3,20.74,53.61,1.9598,376.6203],
    [3271,1532797099,56.8309,-111.312,757.9,377.9,94.6,2.6,5.1,21.44,54.21,1.9505,376.7005],
    [3272,1532797100,56.8309,-111.311,759.7,376.3,94.3,2.4,4.8,20.71,54.56,1.9485,375.8705],
    [3273,1532797101,56.8309,-111.31,761.8,375.2,93.7,2.6,4.1,20.78,54.61,1.954,375.024],
    [3274,1532797102,56.8309,-111.309,763.7,374.1,93.7,2.3,4.0,20.44,54.46,1.9582,375.024],
    [3275,1532797103,56.8309,-111.308,766.2,372.2,93.0,2.8,3.2,20.9,54.5,1.9597,375.6285],
    [3276,1532797104,56.8309,-111.3069,769.4,371.0,92.0,2.9,2.3,21.72,53.87,1.9541,375.6026],
    [3277,1532797105,56.8309,-111.3059,772.2,371.2,92.1,3.5,2.3,20.54,55.08,1.953,376.21],
    [3278,1532797106,56.8309,-111.3049,774.4,370.4,92.0,3.5,2.6,21.42,54.13,1.9503,375.8776],
    [3279,1532797107,56.8309,-111.3039,775.9,369.9,93.8,4.6,4.6,20.85,54.78,1.9384,374.3981],
    [3280,1532797108,56.8309,-111.3028,776.6,368.6,94.9,4.5,5.2,20.87,54.56,1.9353,374.2247],
    [3281,1532797109,56.8309,-111.3018,778.3,368.3,94.6,3.7,4.9,21.35,54.48,1.9411,374.2347],
    [3282,1532797110,56.8309,-111.3008,780.9,369.6,94.8,3.4,5.0,20.87,54.08,1.9446,374.7377],
    [3283,1532797111,56.8309,-111.2999,784.3,371.3,94.1,3.1,4.2,20.73,54.12,1.9282,372.6335],
    [3284,1532797112,56.8309,-111.2989,787.6,372.6,93.1,3.9,3.4,20.92,53.77,1.9337,374.3779],
    [3285,1532797113,56.8309,-111.2979,789.6,374.6,94.4,3.6,4.6,21.3,53.23,1.9378,375.6209],
    [3286,1532797114,56.8309,-111.2969,791.2,376.2,95.3,4.7,5.2,21.17,53.15,1.9281,374.2531],
    [3287,1532797115,56.8309,-111.2959,792.3,377.3,95.1,4.1,5.0,20.95,53.19,1.9219,374.0303],
    [3288,1532797116,56.8309,-111.2949,794.0,380.0,95.6,3.3,5.4,21.75,52.61,1.9133,370.9447],
    [3289,1532797117,56.8309,-111.294,796.3,383.0,96.2,3.0,5.7,20.96,53.19,1.9178,370.9447],
    [3290,1532797118,56.8309,-111.293,798.5,387.4,95.8,0.8,5.6,21.68,52.03,1.941,373.7563],
    [3291,1532797119,56.8309,-111.292,799.8,390.4,96.0,1.9,5.7,20.95,52.65,1.9475,374.2708],
    [3292,1532797120,56.8309,-111.291,800.2,394.1,96.3,2.3,5.7,21.63,52.22,1.9483,375.5859],
    [3293,1532797121,56.8309,-111.29,800.3,396.2,95.2,2.2,4.6,21.03,53.23,1.9657,377.4659],
    [3294,1532797122,56.8309,-111.289,800.5,396.5,93.8,2.2,3.5,20.9,54.01,1.9638,376.3032],
    [3295,1532797123,56.8309,-111.288,800.6,395.6,94.9,2.6,4.7,20.9,54.61,1.9576,376.0608],
    [3296,1532797124,56.8309,-111.2871,800.8,395.1,95.6,2.5,5.4,20.94,55.0,1.9557,375.5476],
    [3297,1532797125,56.8309,-111.2861,801.6,394.8,94.8,3.3,4.9,20.97,55.39,1.9542,375.8499],
    [3298,1532797126,56.8309,-111.2851,803.5,396.5,91.9,2.7,2.5,21.5,55.29,1.9518,374.276],
    [3299,1532797127,56.8309,-111.2841,805.4,399.1,89.3,2.4,0.6,20.82,55.42,1.9467,374.062],
    [3300,1532797128,56.8309,-111.2832,806.6,400.5,90.3,2.6,1.7,20.93,55.05,1.9483,374.2799],
    [3301,1532797129,56.8309,-111.2822,807.9,402.6,91.6,3.5,2.4,20.91,55.25,1.9439,374.0673],
    [3302,1532797130,56.8309,-111.2812,810.1,405.8,91.6,3.6,2.1,21.73,54.18,1.9332,375.43],
    [3303,1532797131,56.8309,-111.2802,812.5,409.5,94.2,2.7,4.3,20.82,55.05,1.9313,374.5074],
    [3304,1532797132,56.8309,-111.2792,814.3,412.4,96.6,2.6,6.1,20.82,54.26,1.9303,372.7709],
    [3305,1532797133,56.8309,-111.2783,815.5,413.5,95.9,2.7,4.8,20.84,53.61,1.9287,372.9501],
    [3306,1532797134,56.8309,-111.2773,816.8,414.1,94.1,3.7,3.3,21.0,52.84,1.9277,373.4729],
    [3307,1532797135,56.8309,-111.2763,817.4,414.4,95.4,3.3,4.7,21.2,52.42,1.9185,373.4815],
    [3308,1532797136,56.8309,-111.2754,817.4,413.4,95.9,2.5,5.0,20.26,52.34,1.9266,374.1735],
    [3309,1532797137,56.8309,-111.2744,817.5,412.5,94.3,2.1,3.5,20.8,52.3,1.9296,374.1249],
    [3310,1532797138,56.8309,-111.2734,818.3,412.3,92.8,1.7,2.6,21.41,51.54,1.9277,373.6945],
    [3311,1532797139,56.8309,-111.2724,818.9,411.0,94.2,2.1,3.9,21.32,51.46,1.9172,373.5804],
    [3312,1532797140,56.8309,-111.2714,818.9,408.4,95.8,1.7,5.1,20.73,51.98,1.9247,372.5642],
    [3313,1532797141,56.8309,-111.2705,818.3,405.3,96.3,1.3,5.4,20.53,51.78,1.9334,374.122],
    [3314,1532797142,56.8308,-111.2695,817.5,402.5,95.5,0.9,4.3,20.37,51.53,1.9364,374.9817],
    [3315,1532797143,56.8308,-111.2685,816.7,399.3,93.7,0.6,2.4,20.86,52.17,1.9434,375.3016],
    [3316,1532797144,56.8308,-111.2675,815.7,396.7,95.2,-0.2,3.8,20.84,51.64,1.9527,375.8525],
    [3317,1532797145,56.8308,-111.2665,814.7,394.6,97.3,0.1,5.5,20.88,52.35,1.9491,377.628],
    [3318,1532797146,56.8308,-111.2655,814.0,393.0,96.8,-1.1,4.9,20.82,53.67,1.9522,377.0217],
    [3319,1532797147,56.8308,-111.2645,813.7,392.7,96.3,0.2,4.6,21.64,52.7,1.9531,376.8467],
    [3320,1532797148,56.8307,-111.2635,813.1,393.1,96.2,0.4,4.5,20.63,53.32,1.9467,376.0272],
    [3321,1532797149,56.8307,-111.2625,812.4,392.4,95.8,1.2,4.1,20.6,53.22,1.9434,375.8766],
    [3322,1532797150,56.8307,-111.2614,811.6,391.7,96.2,1.3,4.3,20.48,53.37,1.9429,374.9608],
    [3323,1532797151,56.8307,-111.2604,810.7,389.7,96.8,1.8,4.3,20.83,53.91,1.9383,374.6255],
    [3324,1532797152,56.8306,-111.2594,810.4,388.4,96.7,2.0,4.1,20.72,53.81,1.9271,373.3163],
    [3325,1532797153,56.8306,-111.2583,810.9,387.9,97.3,2.7,4.6,21.14,52.47,1.9234,373.2824],
    [3326,1532797154,56.8306,-111.2573,811.9,387.9,96.6,2.5,3.9,20.65,52.0,1.926,373.5037],
    [3327,1532797155,56.8306,-111.2563,813.0,388.0,95.4,2.6,2.9,21.13,52.04,1.9524,373.5037],
    [3328,1532797156,56.8305,-111.2552,813.7,388.4,96.3,2.3,4.0,20.84,51.66,1.9527,375.0681],
    [3329,1532797157,56.8305,-111.2541,814.1,388.1,96.4,2.1,4.3,20.33,52.01,1.9483,375.8553],
    [3330,1532797158,56.8305,-111.2531,814.9,387.8,96.0,3.2,4.0,21.38,52.32,1.9521,376.3079],
    [3331,1532797159,56.8305,-111.2521,815.3,387.2,95.4,3.8,3.8,20.26,53.18,1.9571,376.3079],
    [3332,1532797160,56.8304,-111.251,815.5,386.5,94.8,4.1,3.6,20.89,53.89,1.9534,375.6238],
    [3333,1532797161,56.8304,-111.2499,816.1,386.2,94.3,4.3,3.5,20.28,53.48,1.9386,374.5897],
    [3334,1532797162,56.8304,-111.2489,817.0,386.0,95.2,4.6,4.3,20.6,53.45,1.9471,374.9517],
    [3335,1532797163,56.8304,-111.2478,818.7,386.8,95.6,4.1,4.5,21.32,52.84,1.9434,374.3922],
    [3336,1532797164,56.8304,-111.2468,820.9,388.5,95.4,4.2,4.1,20.35,53.13,1.9415,373.9372],
    [3337,1532797165,56.8304,-111.2457,823.1,390.1,94.9,4.4,3.7,20.95,52.98,1.9355,375.801],
    [3338,1532797166,56.8304,-111.2447,825.5,391.4,95.2,4.4,4.0,20.76,52.92,1.9326,372.7419],
    [3339,1532797167,56.8304,-111.2436,827.2,392.1,95.2,4.3,4.0,20.26,52.78,1.9311,374.3945],
    [3340,1532797168,56.8304,-111.2426,828.4,392.3,94.6,3.7,3.7,21.13,52.32,1.9301,374.2706],
    [3341,1532797169,56.8303,-111.2416,829.4,392.7,95.0,3.4,3.9,21.22,51.69,1.9334,373.7431],
    [3342,1532797170,56.8303,-111.2405,830.7,393.7,95.2,2.0,4.2,21.32,51.62,1.9379,373.5058],
    [3343,1532797171,56.8303,-111.2395,832.1,394.1,95.5,2.1,4.3,20.34,52.3,1.9371,374.8454],
    [3344,1532797172,56.8303,-111.2384,833.0,394.0,94.9,2.0,3.7,21.25,51.93,1.9335,374.6825],
    [3345,1532797173,56.8303,-111.2374,833.3,393.3,95.3,1.7,4.2,20.7,52.26,1.9294,374.5031],
    [3346,1532797174,56.8303,-111.2364,832.7,391.7,96.2,2.5,4.9,20.39,52.18,1.9245,372.8186],
    [3347,1532797175,56.8303,-111.2353,832.2,391.2,95.3,1.2,4.0,21.0,52.16,1.9243,372.8186],
    [3348,1532797176,56.8302,-111.2343,832.7,390.7,94.7,1.2,3.7,20.48,51.65,1.9393,375.9286],
    [3349,1532797177,56.8302,-111.2332,832.7,390.7,94.9,1.4,4.1,21.38,51.21,1.9533,376.2857],
    [3350,1532797178,56.8302,-111.2321,832.3,390.3,94.2,1.1,3.5,20.43,52.09,1.9517,375.418],
    [3351,1532797179,56.8302,-111.2311,831.9,388.9,93.7,0.6,3.3,20.76,52.53,1.9421,373.8944],
    [3352,1532797180,56.8302,-111.23,831.5,388.5,94.8,1.1,4.7,20.64,53.0,1.9447,375.2391],
    [3353,1532797181,56.8302,-111.2289,830.7,387.7,95.3,1.9,5.2,21.33,52.52,1.9473,376.1692],
    [3354,1532797182,56.8302,-111.2278,831.1,387.8,94.1,2.8,4.6,20.7,53.35,1.9452,374.6516],
    [3355,1532797183,56.8302,-111.2268,832.4,388.4,93.9,2.3,4.7,20.93,53.49,1.9395,374.5343],
    [3356,1532797184,56.8302,-111.2257,833.2,389.2,92.7,1.1,3.3,21.09,52.78,1.9348,373.935],
    [3357,1532797185,56.8302,-111.2246,834.0,390.0,92.8,1.0,3.6,21.13,52.63,1.9391,374.5914],
    [3358,1532797186,56.8302,-111.2235,834.0,390.0,95.0,2.4,5.4,20.69,52.95,1.9412,374.8754],
    [3359,1532797187,56.8302,-111.2225,834.7,390.4,94.0,3.9,3.9,20.99,52.46,1.9402,374.8484],
    [3360,1532797188,56.8302,-111.2214,836.4,392.1,92.9,4.3,3.1,21.23,52.41,1.9353,374.3244],
    [3361,1532797189,56.8302,-111.2203,838.1,393.8,92.8,4.9,3.5,20.97,52.83,1.9325,375.2504],
    [3362,1532797190,56.8302,-111.2192,839.0,393.9,89.9,4.0,2.7,21.03,52.61,1.9381,377.1997],
    [3363,1532797191,56.8303,-111.2181,840.4,395.3,86.1,3.7,2.7,20.86,52.72,1.9361,375.1345],
    [3364,1532797192,56.8303,-111.217,842.0,398.0,82.9,2.7,3.1,20.83,52.43,1.9373,374.2919],
    [3365,1532797193,56.8305,-111.2159,843.3,398.3,79.9,2.4,3.2,20.47,52.21,1.9355,374.1225],
    [3366,1532797194,56.8306,-111.2149,843.4,398.4,76.8,3.2,2.9,21.27,52.03,1.933,373.8757],
    [3367,1532797195,56.8308,-111.2138,843.5,398.5,74.7,2.4,3.4,20.83,52.2,1.9357,375.0366],
    [3368,1532797196,56.831,-111.2128,844.1,399.1,72.0,2.8,3.4,20.68,52.31,1.9403,374.597],
    [3369,1532797197,56.8312,-111.2117,844.5,399.5,68.4,3.4,3.0,21.5,51.47,1.9394,374.563],
    [3370,1532797198,56.8314,-111.2107,845.0,400.0,65.9,3.1,3.9,20.65,52.31,1.939,375.8006],
    [3371,1532797199,56.8317,-111.2097,845.6,400.6,63.7,2.4,4.6,20.89,52.33,1.9356,375.0506],
    [3372,1532797200,56.832,-111.2088,846.4,401.4,60.0,2.3,4.0,20.44,52.19,1.9308,374.5664],
    [3373,1532797201,56.8324,-111.2078,847.1,403.1,56.5,2.1,3.5,20.92,52.73,1.9318,374.5621],
    [3374,1532797202,56.8327,-111.2069,847.5,403.5,52.7,2.0,1.9,20.91,52.73,1.9323,373.8825],
    [3375,1532797203,56.8331,-111.2061,847.5,403.5,49.9,2.4,2.1,20.84,52.27,1.9311,374.5625],
    [3376,1532797204,56.8335,-111.2052,848.0,404.0,47.9,2.0,2.3,20.58,52.02,1.9285,374.3643],
    [3377,1532797205,56.8339,-111.2044,847.7,403.7,46.0,2.0,2.8,20.37,52.27,1.93,373.4529],
    [3378,1532797206,56.8344,-111.2036,846.4,402.4,43.6,2.0,3.0,20.52,51.94,1.9269,373.9718],
    [3379,1532797207,56.8349,-111.2029,843.8,399.8,41.1,2.0,3.1,20.9,52.41,1.9304,374.7262],
    [3380,1532797208,56.8353,-111.2021,840.0,396.0,37.8,3.1,2.9,20.91,52.07,1.9297,375.0822],
    [3381,1532797209,56.8359,-111.2014,836.0,392.0,34.0,4.1,2.9,20.84,51.47,1.9257,374.0151],
    [3382,1532797210,56.8364,-111.2008,833.6,389.6,31.8,3.0,3.2,20.19,51.45,1.9305,374.8179],
    [3383,1532797211,56.8369,-111.2002,831.8,386.9,29.2,3.3,4.5,20.74,51.25,1.9303,374.6678],
    [3384,1532797212,56.8375,-111.1996,830.2,384.3,24.9,3.3,2.5,21.03,51.43,1.9283,373.3933],
    [3385,1532797213,56.8381,-111.1991,828.8,381.6,21.5,4.0,3.2,20.72,51.39,1.9358,374.8751],
    [3386,1532797214,56.8387,-111.1987,828.2,380.2,18.6,4.0,4.8,21.32,50.63,1.9495,376.605],
    [3387,1532797215,56.8393,-111.1983,828.1,379.1,15.9,3.1,4.5,20.39,51.55,1.9482,376.6893],
    [3388,1532797216,56.8399,-111.198,828.2,378.2,12.0,3.7,2.8,20.37,52.08,1.9478,377.1178],
    [3389,1532797217,56.8405,-111.1977,828.4,378.1,8.0,4.6,3.4,21.3,52.32,1.9496,376.9436],
    [3390,1532797218,56.8411,-111.1975,829.1,378.1,6.5,3.4,3.8,20.95,53.75,1.9496,375.7803],
    [3391,1532797219,56.8418,-111.1974,829.7,378.3,4.6,3.2,3.5,20.73,54.09,1.9425,376.7089],
    [3392,1532797220,56.8424,-111.1973,830.4,378.4,361.8,3.8,6.0,20.55,53.69,1.9429,375.2782],
    [3393,1532797221,56.843,-111.1972,831.0,379.0,359.9,3.8,5.0,21.14,53.45,1.942,374.8761],
    [3394,1532797222,56.8437,-111.1971,831.5,379.5,359.1,3.1,5.3,21.01,54.2,1.9226,373.9134],
    [3395,1532797223,56.8443,-111.1971,831.0,379.0,359.7,1.2,4.4,20.97,53.1,1.9217,373.8013],
    [3396,1532797224,56.8449,-111.1971,830.9,379.2,358.9,0.6,4.4,21.38,51.99,1.9242,373.1729],
    [3397,1532797225,56.8456,-111.1971,831.9,380.9,357.1,1.1,4.3,21.07,52.14,1.9279,373.6453],
    [3398,1532797226,56.8462,-111.1972,833.1,382.1,356.3,1.0,4.4,21.42,50.46,1.928,373.5108],
    [3399,1532797227,56.8468,-111.1973,834.3,384.3,355.1,1.6,4.8,20.82,50.79,1.9239,374.5097],
    [3400,1532797228,56.8475,-111.1973,835.5,385.5,353.4,2.2,4.9,20.56,50.99,1.9217,374.5097],
    [3401,1532797229,56.8482,-111.1974,837.2,388.2,351.6,3.3,5.1,20.43,50.87,1.9169,373.6717],
    [3402,1532797230,56.8488,-111.1975,838.4,389.4,350.2,4.8,4.8,20.3,50.8,1.9127,373.1042],
    [3403,1532797231,56.8494,-111.1977,839.5,390.5,349.6,5.5,5.1,21.39,49.98,1.9121,373.1042],
    [3404,1532797232,56.8501,-111.1978,840.2,391.2,350.9,4.6,4.4,20.63,50.53,1.9225,374.3891],
    [3405,1532797233,56.8507,-111.1978,841.1,392.1,351.4,4.7,3.7,21.18,49.83,1.9296,374.3809],
    [3406,1532797234,56.8513,-111.1979,842.7,393.7,351.4,4.9,3.8,20.75,50.03,1.9361,375.1288],
    [3407,1532797235,56.8519,-111.198,844.4,395.4,351.9,4.7,3.7,20.83,50.59,1.9357,375.3705],
    [3408,1532797236,56.8526,-111.1981,845.6,397.6,351.8,5.2,3.7,21.19,50.54,1.934,374.5012],
    [3409,1532797237,56.8532,-111.1982,846.4,398.4,352.3,5.1,3.1,20.94,51.01,1.9292,374.2133],
    [3410,1532797238,56.8538,-111.1982,847.2,399.2,352.3,5.6,1.8,20.96,51.97,1.9292,373.9688],
    [3411,1532797239,56.8545,-111.1983,848.0,400.0,352.7,5.1,2.2,20.73,51.15,1.9411,373.5975],
    [3412,1532797240,56.8551,-111.1983,849.1,401.1,353.6,4.3,3.5,20.52,51.14,1.9406,373.5975],
    [3413,1532797241,56.8557,-111.1984,850.2,402.2,354.2,3.9,4.2,20.84,51.53,1.9524,376.6909],
    [3414,1532797242,56.8564,-111.1984,851.0,403.0,355.1,3.5,1.8,21.37,51.64,1.9543,375.8805],
    [3415,1532797243,56.857,-111.1985,851.4,403.4,355.2,3.6,2.2,20.95,52.93,1.9539,376.3493],
    [3416,1532797244,56.8576,-111.1985,851.2,403.7,354.5,4.5,2.2,21.69,52.45,1.9538,377.107],
    [3417,1532797245,56.8582,-111.1985,850.8,403.8,354.7,4.1,3.0,20.67,53.53,1.9537,376.3359],
    [3418,1532797246,56.8589,-111.1986,850.2,403.2,355.4,3.5,3.0,20.99,54.18,1.9509,375.4635],
    [3419,1532797247,56.8595,-111.1986,850.4,403.4,355.2,3.5,2.6,21.02,53.86,1.9477,376.7505],
    [3420,1532797248,56.8601,-111.1986,851.2,404.2,354.5,3.9,2.5,21.15,53.97,1.9493,375.428],
    [3421,1532797249,56.8608,-111.1987,851.9,404.9,354.5,3.4,2.0,21.0,53.69,1.9471,376.0112],
    [3422,1532797250,56.8614,-111.1987,851.6,404.6,355.6,2.1,2.5,20.59,53.62,1.9442,376.0049],
    [3423,1532797251,56.862,-111.1988,851.1,404.1,355.7,1.7,1.7,20.98,53.84,1.9414,375.7741],
    [3424,1532797252,56.8627,-111.1989,850.9,403.9,356.2,1.1,1.5,21.51,52.75,1.9466,375.3876],
    [3425,1532797253,56.8633,-111.1989,851.1,404.1,355.8,1.5,1.2,21.32,52.99,1.9407,374.7913],
    [3426,1532797254,56.864,-111.199,850.5,403.8,355.4,2.2,3.4,21.44,52.52,1.9265,373.8726],
    [3427,1532797255,56.8646,-111.199,849.8,403.8,355.5,2.5,3.9,20.59,53.39,1.9127,374.1907],
    [3428,1532797256,56.8653,-111.1991,849.6,403.6,355.7,2.9,4.0,21.11,52.38,1.9113,372.8724],
    [3429,1532797257,56.8659,-111.1991,850.1,404.1,355.8,3.1,3.7,20.99,52.24,1.918,374.7867],
    [3430,1532797258,56.8665,-111.1991,850.0,404.0,358.0,1.2,3.8,21.21,50.81,1.9201,375.0563],
    [3431,1532797259,56.8672,-111.1991,849.3,403.3,358.6,0.8,3.5,20.61,50.25,1.92,373.9563],
    [3432,1532797260,56.8678,-111.1992,848.9,402.9,359.2,0.1,3.9,20.78,50.19,1.9256,373.6554],
    [3433,1532797261,56.8685,-111.1992,848.0,402.0,358.7,0.8,4.1,20.55,50.07,1.9273,374.2513],
    [3434,1532797262,56.8691,-111.1992,847.2,401.2,357.1,2.7,4.8,21.11,50.51,1.9358,374.9055],
    [3435,1532797263,56.8698,-111.1992,847.0,401.3,355.2,4.7,4.8,21.13,50.52,1.9331,374.4258],
    [3436,1532797264,56.8704,-111.1992,846.7,401.7,355.2,4.5,5.8,20.54,50.67,1.9274,374.3606],
    [3437,1532797265,56.8711,-111.1992,846.6,401.6,355.8,4.0,6.1,20.9,50.92,1.9231,374.2364],
    [3438,1532797266,56.8717,-111.1992,846.4,401.4,356.1,3.9,5.9,20.69,50.65,1.9172,374.6771],
    [3439,1532797267,56.8724,-111.1993,846.9,401.9,356.3,3.9,5.8,21.65,49.8,1.916,373.6316],
    [3440,1532797268,56.873,-111.1993,847.5,402.5,356.3,3.9,5.7,21.31,49.99,1.9133,373.6316],
    [3441,1532797269,56.8737,-111.1993,848.0,403.3,357.1,3.1,5.7,20.81,50.24,1.916,372.8273],
    [3442,1532797270,56.8743,-111.1993,848.9,404.9,357.6,2.6,5.7,21.69,49.64,1.9232,375.0903],
    [3443,1532797271,56.875,-111.1993,849.9,405.9,357.9,2.3,4.8,20.98,49.98,1.9317,372.9885],
    [3444,1532797272,56.8756,-111.1993,850.6,407.6,356.9,3.5,4.3,20.74,49.89,1.9266,373.0804],
    [3445,1532797273,56.8763,-111.1993,851.0,409.0,355.8,4.5,3.9,21.46,50.01,1.9304,375.4482],
    [3446,1532797274,56.8769,-111.1993,851.3,410.1,355.9,4.1,4.0,21.13,50.48,1.9468,376.8605],
    [3447,1532797275,56.8776,-111.1993,851.3,410.3,356.0,3.6,4.1,20.88,51.11,1.9499,376.8605],
    [3448,1532797276,56.8782,-111.1993,851.5,410.5,355.2,3.9,4.7,20.98,52.08,1.9479,376.417],
    [3449,1532797277,56.8788,-111.1994,852.1,411.1,355.0,3.7,4.8,21.23,52.2,1.9393,376.8161],
    [3450,1532797278,56.8795,-111.1994,852.7,413.7,355.4,2.9,5.2,20.85,53.08,1.9319,375.5656],
    [3451,1532797279,56.8801,-111.1994,852.8,415.5,356.3,1.8,5.2,21.94,52.14,1.9401,374.8417],
    [3452,1532797280,56.8807,-111.1995,852.6,415.6,356.0,2.4,5.1,20.7,52.39,1.9387,375.8504],
    [3453,1532797281,56.8814,-111.1995,852.7,415.7,355.1,2.8,5.5,21.0,53.0,1.9272,373.2441],
    [3454,1532797282,56.882,-111.1996,852.8,415.8,356.2,1.6,4.0,21.23,51.84,1.9277,375.0829],
    [3455,1532797283,56.8827,-111.1996,853.8,417.9,356.8,0.9,4.1,21.26,51.92,1.9242,373.6152],
    [3456,1532797284,56.8833,-111.1996,854.4,419.4,357.0,0.9,4.0,20.88,51.73,1.9146,373.4602],
    [3457,1532797285,56.8839,-111.1997,854.3,422.7,356.6,1.8,3.9,21.45,50.66,1.9168,373.4602],
    [3458,1532797286,56.8845,-111.1997,853.9,424.9,355.1,3.7,3.7,21.1,50.9,1.9141,372.1889],
    [3459,1532797287,56.8852,-111.1998,853.1,429.1,355.6,3.1,3.7,21.6,50.27,1.9154,372.6307],
    [3460,1532797288,56.8858,-111.1998,851.0,429.9,357.1,2.0,3.5,21.06,50.31,1.9162,373.7672],
    [3461,1532797289,56.8864,-111.1998,849.1,431.8,355.7,3.9,3.7,20.72,50.92,1.9101,373.6026],
    [3462,1532797290,56.8871,-111.1998,848.0,434.1,355.8,3.7,3.8,21.0,50.39,1.9102,372.8934],
    [3463,1532797291,56.8878,-111.1998,847.5,436.6,355.5,4.0,3.8,21.08,49.76,1.9109,373.1676],
    [3464,1532797292,56.8884,-111.1999,847.2,441.9,354.6,4.7,3.7,21.1,50.03,1.9093,373.7255],
    [3465,1532797293,56.889,-111.1999,846.2,445.2,355.5,3.6,3.5,21.13,49.74,1.9101,372.2606],
    [3466,1532797294,56.8897,-111.1999,844.6,448.9,354.9,4.4,3.4,21.2,49.37,1.9106,372.5228],
    [3467,1532797295,56.8903,-111.2,843.0,453.2,355.2,4.0,3.4,20.83,49.63,1.9109,373.4652],
    [3468,1532797296,56.8909,-111.2,841.7,456.5,355.6,4.1,3.3,20.98,49.05,1.9144,373.9979],
    [3469,1532797297,56.8916,-111.2,840.9,460.6,354.6,5.4,3.5,20.81,48.87,1.9198,373.7382],
    [3470,1532797298,56.8922,-111.2,840.3,463.8,355.8,4.6,2.8,21.48,48.63,1.9194,374.0865],
    [3471,1532797299,56.8929,-111.2,840.2,467.8,356.1,4.7,3.3,21.65,48.65,1.9265,375.0876],
    [3472,1532797300,56.8935,-111.2,840.0,473.0,356.1,4.8,2.7,21.42,48.95,1.9287,375.6273],
    [3473,1532797301,56.8942,-111.2,839.7,477.4,356.5,4.5,2.6,21.04,49.83,1.9268,375.5713],
    [3474,1532797302,56.8948,-111.2,839.1,478.0,356.5,4.6,2.8,20.49,50.1,1.9265,374.8991],
    [3475,1532797303,56.8954,-111.2,838.4,480.1,356.6,4.3,2.8,21.38,50.08,1.927,375.4925],
    [3476,1532797304,56.8961,-111.2,837.4,478.3,357.1,3.9,3.0,21.3,50.15,1.9261,373.9864],
    [3477,1532797305,56.8968,-111.2,836.1,474.8,357.0,3.8,3.0,20.75,50.4,1.9194,373.9549],
    [3478,1532797306,56.8975,-111.2,834.6,469.3,357.3,3.3,4.0,20.46,50.13,1.9181,375.2063],
    [3479,1532797307,56.8981,-111.2,833.2,457.5,357.6,2.7,4.1,21.07,49.99,1.9196,375.0667],
    [3480,1532797308,56.8988,-111.2,831.8,447.2,357.6,2.5,4.3,21.28,50.41,1.9159,373.6107],
    [3481,1532797309,56.8994,-111.2,830.4,435.1,356.6,3.4,4.2,21.41,49.25,1.9195,374.0946],
    [3482,1532797310,56.9001,-111.2,828.9,427.7,356.7,2.8,4.2,20.99,49.45,1.9246,374.8743],
    [3483,1532797311,56.9008,-111.2,827.4,421.0,356.8,2.6,4.5,21.44,49.18,1.9311,375.7869],
    [3484,1532797312,56.9014,-111.2001,826.9,412.6,356.3,3.5,4.6,20.94,49.48,1.935,375.4904],
    [3485,1532797313,56.9021,-111.2001,827.7,409.6,355.8,4.5,4.8,21.69,49.67,1.9301,375.8404],
    [3486,1532797314,56.9028,-111.2001,828.5,409.4,356.9,3.7,4.4,21.03,50.92,1.9301,374.1978],
    [3487,1532797315,56.9034,-111.2001,829.1,413.9,357.5,3.3,4.8,21.08,50.46,1.921,373.638],
    [3488,1532797316,56.9041,-111.2001,829.2,417.4,357.8,3.0,5.3,20.91,50.46,1.9176,374.0218],
    [3489,1532797317,56.9047,-111.2001,829.3,417.6,357.4,3.5,5.4,21.74,49.68,1.9163,372.8347],
    [3490,1532797318,56.9054,-111.2001,829.2,409.5,357.7,3.1,5.8,21.33,50.07,1.9172,372.7576],
    [3491,1532797319,56.906,-111.2,829.0,403.2,358.0,2.7,6.1,20.98,50.35,1.9176,373.5803],
    [3492,1532797320,56.9067,-111.2,829.3,397.3,358.7,1.5,6.3,21.01,49.9,1.9203,374.2306],
    [3493,1532797321,56.9073,-111.2,829.7,396.3,358.9,1.3,6.4,21.8,49.1,1.916,374.3336],
    [3494,1532797322,56.908,-111.2,830.5,396.2,357.6,2.6,6.4,20.95,50.37,1.9181,373.0662],
    [3495,1532797323,56.9087,-111.2,831.9,397.6,356.4,3.8,6.5,21.29,49.78,1.9191,373.0662],
    [3496,1532797324,56.9093,-111.2001,833.5,399.4,356.1,3.9,6.0,21.24,50.55,1.923,373.4748],
    [3497,1532797325,56.91,-111.2001,835.5,401.6,356.2,3.9,5.3,21.06,49.97,1.9306,373.4748],
    [3498,1532797326,56.9106,-111.2001,837.3,404.2,356.7,3.4,5.1,20.61,50.31,1.9374,375.7483],
    [3499,1532797327,56.9112,-111.2001,838.8,405.6,357.0,3.3,4.7,20.93,50.61,1.9246,375.4854],
    [3500,1532797328,56.9119,-111.2001,840.2,406.1,357.5,2.8,5.0,21.26,51.26,1.9139,373.695],
    [3501,1532797329,56.9126,-111.2001,841.3,408.1,357.9,2.8,4.6,21.12,51.8,1.9121,373.7182],
    [3502,1532797330,56.9132,-111.2001,842.3,407.8,357.7,3.2,4.2,21.35,51.28,1.9136,372.2166],
    [3503,1532797331,56.9138,-111.2001,842.9,409.2,357.9,3.2,4.2,21.2,50.89,1.9145,372.2166],
    [3504,1532797332,56.9145,-111.2001,843.2,418.4,357.8,3.5,4.2,21.08,50.51,1.9221,373.4729],
    [3505,1532797333,56.9151,-111.2,843.3,422.9,358.7,2.6,3.5,21.03,50.27,1.9397,374.0222],
    [3506,1532797334,56.9158,-111.2,843.2,418.0,358.3,3.2,4.5,21.39,50.34,1.946,376.8965],
    [3507,1532797335,56.9164,-111.2,843.2,406.4,357.7,3.7,4.6,20.8,51.1,1.948,375.9852],
    [3508,1532797336,56.9171,-111.2,843.1,402.1,357.1,4.1,4.8,21.55,51.2,1.9472,375.7174],
    [3509,1532797337,56.9177,-111.2,843.1,400.1,356.8,4.2,3.9,20.97,52.43,1.9447,377.3846],
    [3510,1532797338,56.9183,-111.2,842.8,398.8,357.0,3.8,4.1,21.07,52.74,1.945,376.8281],
    [3511,1532797339,56.919,-111.2,842.7,397.7,356.8,3.8,4.7,21.6,52.42,1.9424,376.8095],
    [3512,1532797340,56.9196,-111.2,842.5,397.5,356.8,3.6,4.4,21.53,52.84,1.943,376.9663],
    [3513,1532797341,56.9202,-111.2,842.1,396.1,357.2,3.0,3.7,20.79,53.11,1.9398,376.3898],
    [3514,1532797342,56.9209,-111.2,842.2,396.2,357.6,2.4,3.6,21.42,52.65,1.9373,375.9467],
    [3515,1532797343,56.9215,-111.2,841.8,395.8,358.0,2.0,3.6,20.6,52.93,1.9323,375.641],
    [3516,1532797344,56.9222,-111.2,841.0,395.0,357.4,2.7,4.3,21.28,52.69,1.9329,375.705],
    [3517,1532797345,56.9228,-111.2,840.8,394.8,358.4,1.7,4.5,21.33,51.91,1.945,376.2587],
    [3518,1532797346,56.9235,-111.2,840.7,394.6,359.5,1.3,5.0,20.79,52.45,1.9472,376.2587],
    [3519,1532797347,56.9241,-111.2,840.4,395.5,358.9,2.5,5.4,20.91,52.6,1.9375,376.8827],
    [3520,1532797348,56.9248,-111.2,839.8,394.8,358.5,3.0,5.3,21.06,52.83,1.9134,374.2587],
    [3521,1532797349,56.9254,-111.1999,839.9,396.0,358.0,2.9,5.2,21.35,52.24,1.9143,373.9072],
    [3522,1532797350,56.9261,-111.1999,840.5,396.5,358.5,2.1,4.9,20.94,52.73,1.9166,373.9072],
    [3523,1532797351,56.9267,-111.1999,841.4,397.4,357.1,3.4,5.1,20.53,51.29,1.9147,373.5851],
    [3524,1532797352,56.9273,-111.1999,841.9,398.0,357.0,3.4,4.9,20.72,50.92,1.9137,373.42],
    [3525,1532797353,56.928,-111.1999,842.5,398.5,357.2,2.9,5.0,21.79,50.31,1.914,373.8871],
    [3526,1532797354,56.9286,-111.1999,842.3,398.4,357.6,2.3,4.7,21.75,50.08,1.915,373.7538],
    [3527,1532797355,56.9292,-111.1999,841.9,396.9,357.1,3.1,4.5,20.94,50.45,1.9181,373.9669],
    [3528,1532797356,56.9299,-111.1999,841.9,396.0,355.9,4.6,4.5,20.83,50.43,1.9174,373.8333],
    [3529,1532797357,56.9305,-111.2,842.1,396.1,356.1,4.4,4.2,20.24,50.33,1.9163,372.9587],
    [3530,1532797358,56.9312,-111.2,842.2,395.2,356.5,4.2,4.0,20.84,50.27,1.9121,373.1248],
    [3531,1532797359,56.9318,-111.1999,842.2,395.2,356.3,4.5,3.8,21.26,49.47,1.9123,372.7515],
    [3532,1532797360,56.9324,-111.1999,841.8,394.8,356.7,4.2,3.8,21.22,49.51,1.9096,373.2915],
    [3533,1532797361,56.9331,-111.1999,841.2,394.2,356.5,4.5,3.9,21.65,49.19,1.9115,372.632],
    [3534,1532797362,56.9337,-111.1999,840.3,393.3,356.6,4.5,3.9,21.34,49.28,1.9121,374.2305],
    [3535,1532797363,56.9344,-111.1999,839.3,391.3,356.8,4.4,4.0,21.04,49.39,1.9109,373.425],
    [3536,1532797364,56.935,-111.1999,837.8,390.6,356.9,4.4,3.8,20.97,49.02,1.9108,373.3035],
    [3537,1532797365,56.9356,-111.1999,836.2,389.2,356.8,4.9,3.8,21.06,49.18,1.908,373.0234],
    [3538,1532797366,56.9363,-111.1999,834.9,387.9,356.8,5.0,4.3,20.61,48.68,1.9108,372.9198],
    [3539,1532797367,56.9369,-111.1999,833.9,386.0,357.0,4.8,4.7,21.17,49.01,1.9114,374.6438],
    [3540,1532797368,56.9376,-111.1998,833.2,384.2,357.3,4.5,5.1,20.77,48.62,1.9122,373.6123],
    [3541,1532797369,56.9382,-111.1998,832.7,383.7,357.2,4.6,5.2,21.23,49.0,1.9121,373.893],
    [3542,1532797370,56.9388,-111.1998,832.4,383.4,357.4,4.2,5.2,21.67,48.47,1.9126,373.2389],
    [3543,1532797371,56.9395,-111.1998,832.2,382.2,357.4,4.0,5.4,21.19,49.52,1.913,372.9625],
    [3544,1532797372,56.9401,-111.1998,832.5,382.5,356.7,4.6,5.2,20.65,49.11,1.9106,373.3395],
    [3545,1532797373,56.9407,-111.1998,833.4,383.4,356.3,4.6,5.3,21.51,48.82,1.9128,373.0969],
    [3546,1532797374,56.9414,-111.1997,834.7,384.7,356.2,4.4,6.0,21.4,49.16,1.9298,375.8144],
    [3547,1532797375,56.942,-111.1997,835.5,384.8,356.5,4.1,5.3,21.2,49.35,1.935,375.4596],
    [3548,1532797376,56.9426,-111.1997,835.9,384.9,356.7,4.0,5.7,21.09,50.26,1.9272,375.4596],
    [3549,1532797377,56.9433,-111.1997,836.2,385.2,356.7,4.2,5.1,21.02,50.13,1.9414,376.4588],
    [3550,1532797378,56.9439,-111.1997,837.0,386.5,356.9,4.2,4.6,21.02,51.63,1.9517,377.7585],
    [3551,1532797379,56.9445,-111.1997,838.2,387.2,357.0,4.2,6.2,20.74,51.69,1.9478,377.7585],
    [3552,1532797380,56.9452,-111.1997,839.6,389.6,356.8,4.7,5.7,21.67,51.66,1.9494,377.6232],
    [3553,1532797381,56.9458,-111.1997,841.5,391.5,356.7,4.9,4.7,21.06,53.02,1.93,373.7901],
    [3554,1532797382,56.9464,-111.1997,843.4,393.4,357.3,4.4,4.2,21.02,52.95,1.9143,372.8313],
    [3555,1532797383,56.947,-111.1996,844.6,394.6,358.4,3.5,4.1,21.15,52.71,1.9115,373.9983],
    [3556,1532797384,56.9476,-111.1996,844.8,394.7,358.2,4.6,4.2,21.2,52.15,1.9102,374.3959],
    [3557,1532797385,56.9482,-111.1996,845.9,396.9,357.5,5.2,3.6,21.34,50.13,1.9119,373.7749],
    [3558,1532797386,56.9489,-111.1995,847.3,398.3,359.4,2.7,3.6,20.96,49.85,1.9121,374.2739],
    [3559,1532797387,56.9495,-111.1995,848.5,399.5,358.8,3.2,3.1,20.84,49.63,1.9094,374.5401],
    [3560,1532797388,56.9501,-111.1995,849.1,400.1,357.0,4.9,3.5,21.07,49.39,1.9093,374.0271],
    [3561,1532797389,56.9507,-111.1994,849.0,400.0,356.0,5.4,3.4,21.05,49.26,1.9083,373.993],
    [3562,1532797390,56.9513,-111.1994,849.4,401.1,355.8,5.3,2.6,21.28,49.53,1.9094,374.456],
    [3563,1532797391,56.9519,-111.1994,850.2,402.2,355.5,5.2,2.2,21.36,48.44,1.9284,375.4269],
    [3564,1532797392,56.9525,-111.1994,850.5,402.5,355.5,5.1,1.6,21.13,49.26,1.9408,376.92],
    [3565,1532797393,56.9531,-111.1994,850.0,402.0,355.6,4.8,3.2,21.41,49.29,1.9367,375.5883],
    [3566,1532797394,56.9537,-111.1994,849.3,401.3,355.7,4.7,3.2,21.22,50.2,1.9201,375.0889],
    [3567,1532797395,56.9544,-111.1994,848.4,401.4,356.0,4.5,3.0,20.89,51.17,1.9255,375.087],
    [3568,1532797396,56.955,-111.1994,847.3,400.3,356.4,4.0,4.2,21.15,51.32,1.9136,373.6779],
    [3569,1532797397,56.9556,-111.1994,846.0,399.0,356.2,4.1,3.3,21.54,51.16,1.9124,373.0719],
    [3570,1532797398,56.9562,-111.1994,845.0,398.0,356.1,4.0,3.1,21.32,50.87,1.9158,374.3241],
    [3571,1532797399,56.9569,-111.1995,844.4,397.4,356.4,3.6,3.7,21.71,50.32,1.9152,374.3047],
    [3572,1532797400,56.9575,-111.1995,844.4,397.7,357.8,1.9,3.9,21.06,50.84,1.912,373.5976],
    [3573,1532797401,56.9581,-111.1995,844.2,398.2,359.2,1.2,3.9,20.77,50.39,1.9109,373.889],
    [3574,1532797402,56.9587,-111.1995,844.2,398.2,357.0,4.2,4.5,21.09,49.72,1.9093,373.5287],
    [3575,1532797403,56.9594,-111.1995,845.1,398.1,357.6,3.8,4.8,20.86,49.44,1.9087,373.5287],
    [3576,1532797404,56.96,-111.1994,845.0,398.0,359.2,2.9,4.5,20.88,48.98,1.9081,373.3435],
    [3577,1532797405,56.9607,-111.1994,844.3,397.3,359.0,3.4,4.3,21.18,48.9,1.91,374.2655],
    [3578,1532797406,56.9613,-111.1993,844.0,396.7,359.5,2.9,4.4,21.0,49.47,1.9098,374.551],
    [3579,1532797407,56.962,-111.1993,844.0,396.7,359.3,3.3,4.3,20.87,48.83,1.9087,374.0878],
    [3580,1532797408,56.9626,-111.1993,844.1,397.1,358.7,4.0,4.3,21.16,48.56,1.9073,374.5725],
    [3581,1532797409,56.9632,-111.1992,844.6,397.6,359.0,3.6,4.4,21.01,48.84,1.9092,374.573],
    [3582,1532797410,56.9638,-111.1992,845.0,398.0,359.6,3.1,4.5,20.68,48.06,1.9088,375.687],
    [3583,1532797411,56.9645,-111.1991,845.2,397.2,359.3,3.6,4.9,21.47,47.93,1.909,375.3029],
    [3584,1532797412,56.9651,-111.1991,845.4,397.4,358.9,4.1,5.0,21.15,48.1,1.9097,374.947],
    [3585,1532797413,56.9657,-111.199,845.8,397.7,358.9,4.1,5.4,21.2,48.22,1.9098,374.4778],
    [3586,1532797414,56.9663,-111.199,846.4,398.7,358.8,4.1,5.7,20.99,48.17,1.9111,374.2925],
    [3587,1532797415,56.967,-111.199,847.2,400.2,358.8,3.9,5.4,21.0,48.57,1.9209,375.5319],
    [3588,1532797416,56.9676,-111.1989,848.4,401.4,358.1,4.2,5.1,21.6,48.06,1.9282,375.5319],
    [3589,1532797417,56.9682,-111.1989,850.0,403.0,357.5,4.4,4.3,21.17,49.29,1.934,376.4829],
    [3590,1532797418,56.9688,-111.1989,852.1,405.1,357.4,4.1,3.6,21.4,50.21,1.9392,378.3443],
    [3591,1532797419,56.9695,-111.1989,854.3,407.3,356.8,4.4,5.1,21.82,50.58,1.9384,376.1689],
    [3592,1532797420,56.9701,-111.1988,857.0,410.0,356.6,4.5,3.0,21.52,52.05,1.935,377.2083],
    [3593,1532797421,56.9707,-111.1988,859.5,412.5,356.7,4.2,3.3,22.05,52.15,1.9311,376.7517],
    [3594,1532797422,56.9713,-111.1988,860.8,413.8,357.0,3.8,3.1,20.93,52.6,1.9323,376.4708],
    [3595,1532797423,56.9719,-111.1988,861.4,414.4,357.3,3.3,4.3,20.97,53.09,1.9252,374.664],
    [3596,1532797424,56.9725,-111.1988,862.0,415.0,356.9,3.7,3.7,21.33,52.22,1.9171,374.664],
    [3597,1532797425,56.9731,-111.1988,862.4,415.4,356.3,3.8,3.9,21.09,52.14,1.9109,376.2537],
    [3598,1532797426,56.9737,-111.1988,862.6,416.6,357.1,2.8,3.4,20.87,50.79,1.9101,373.1237],
    [3599,1532797427,56.9743,-111.1988,863.3,417.3,356.8,2.8,3.3,21.33,50.04,1.9093,374.6986],
    [3600,1532797428,56.9749,-111.1988,864.2,418.2,358.1,1.3,3.3,21.14,49.57,1.9084,373.7009],
    [3601,1532797429,56.9755,-111.1989,864.8,418.8,358.2,1.2,3.2,21.12,49.4,1.9097,374.934],
    [3602,1532797430,56.9761,-111.1989,865.2,420.2,356.5,3.0,3.6,21.57,48.65,1.9078,374.9195],
    [3603,1532797431,56.9767,-111.1989,865.0,420.9,355.3,4.1,3.7,21.13,48.71,1.9071,374.9394],
    [3604,1532797432,56.9773,-111.1989,865.1,422.1,355.0,4.3,3.7,20.74,48.76,1.9075,375.2152],
    [3605,1532797433,56.9779,-111.1989,865.4,423.4,354.7,4.5,3.7,21.03,48.49,1.908,374.8176],
    [3606,1532797434,56.9785,-111.199,865.8,424.8,354.4,4.7,3.7,21.25,48.31,1.9072,374.8076],
    [3607,1532797435,56.9791,-111.199,866.4,426.3,354.6,4.3,3.7,21.89,47.87,1.909,376.6523],
    [3608,1532797436,56.9797,-111.199,867.0,428.0,354.3,4.4,3.8,21.18,48.35,1.9088,375.8969],
    [3609,1532797437,56.9803,-111.199,868.0,429.3,353.8,4.7,3.7,21.12,48.25,1.9084,375.1913],
    [3610,1532797438,56.9809,-111.1991,869.5,430.8,353.9,4.6,3.5,21.01,48.33,1.9107,375.5402],
    [3611,1532797439,56.9815,-111.1991,870.8,432.1,354.2,4.5,2.8,21.51,47.85,1.9083,374.9563],
    [3612,1532797440,56.9821,-111.1991,871.7,432.7,354.5,4.4,2.4,21.26,48.95,1.9075,375.3209],
    [3613,1532797441,56.9827,-111.1992,872.6,433.6,354.4,4.7,2.3,21.19,48.47,1.9073,375.9751],
    [3614,1532797442,56.9833,-111.1992,873.3,434.3,354.5,4.6,2.0,21.38,48.16,1.9086,375.8137],
    [3615,1532797443,56.9839,-111.1992,873.7,434.7,354.8,4.3,1.6,20.67,48.32,1.9096,375.2544],
    [3616,1532797444,56.9845,-111.1993,874.0,435.0,354.7,4.5,1.3,21.25,48.13,1.9083,375.9876],
    [3617,1532797445,56.9851,-111.1993,874.1,435.1,354.6,4.6,1.0,20.65,48.09,1.9081,375.9876],
    [3618,1532797446,56.9857,-111.1993,873.8,435.0,354.7,4.4,0.9,21.05,47.97,1.9066,375.9383],
    [3619,1532797447,56.9863,-111.1993,873.0,435.0,354.8,4.4,0.8,21.16,48.07,1.9067,377.4579],
    [3620,1532797448,56.9869,-111.1994,872.2,434.2,354.9,4.3,0.9,20.67,47.58,1.9063,376.9659],
    [3621,1532797449,56.9875,-111.1994,871.0,433.7,355.3,4.0,0.8,21.14,47.84,1.9076,376.871],
    [3622,1532797450,56.9881,-111.1994,869.4,432.4,355.4,4.1,1.0,20.98,47.46,1.907,376.7286],
    [3623,1532797451,56.9887,-111.1994,867.3,430.3,355.5,4.1,1.1,21.77,47.05,1.9071,376.2072],
    [3624,1532797452,56.9894,-111.1995,865.2,428.2,355.6,4.1,1.2,21.05,47.23,1.9079,377.1015],
    [3625,1532797453,56.99,-111.1995,863.2,426.2,355.7,4.1,1.3,21.28,47.83,1.9075,376.7802],
    [3626,1532797454,56.9906,-111.1995,861.6,424.6,355.9,4.1,1.4,20.81,47.08,1.9067,376.4968],
    [3627,1532797455,56.9912,-111.1995,860.5,423.5,355.8,4.4,1.3,21.2,47.23,1.9069,376.8538],
    [3628,1532797456,56.9919,-111.1995,859.4,421.4,355.8,4.5,1.7,21.27,46.91,1.9067,376.268],
    [3629,1532797457,56.9925,-111.1995,858.0,420.0,356.1,4.3,1.7,21.07,46.91,1.9066,375.6152],
    [3630,1532797458,56.9931,-111.1995,856.7,418.7,356.0,4.5,1.9,21.16,47.51,1.9056,375.8616],
    [3631,1532797459,56.9937,-111.1995,855.7,417.7,355.8,4.7,1.9,21.11,46.99,1.9052,376.4177],
    [3632,1532797460,56.9944,-111.1995,854.7,416.7,355.9,4.6,1.9,21.77,46.51,1.9048,376.8341],
    [3633,1532797461,56.995,-111.1995,853.6,415.7,355.6,5.0,1.9,21.87,46.0,1.9036,377.9201],
    [3634,1532797462,56.9956,-111.1995,852.5,414.6,355.5,4.9,2.2,21.93,46.13,1.9044,377.9201],
    [3635,1532797463,56.9963,-111.1995,851.4,413.3,356.0,4.2,2.4,21.48,46.18,1.9036,376.8884],
    [3636,1532797464,56.9969,-111.1996,850.3,413.2,356.0,4.2,2.5,21.76,45.41,1.9039,377.3218],
    [3637,1532797465,56.9976,-111.1996,849.4,412.2,355.8,4.3,2.5,21.86,44.62,1.9055,378.3154],
    [3638,1532797466,56.9982,-111.1996,848.8,410.6,355.8,4.2,2.6,21.74,44.59,1.9048,376.2698],
    [3639,1532797467,56.9989,-111.1996,848.6,410.7,355.7,4.3,2.6,21.63,44.38,1.9053,377.4126],
    [3640,1532797468,56.9995,-111.1996,848.8,410.1,355.1,5.0,2.5,21.59,44.55,1.9065,378.2547],
    [3641,1532797469,57.0001,-111.1996,849.6,410.8,354.9,5.1,2.3,21.23,44.97,1.9069,377.3894],
    [3642,1532797470,57.0008,-111.1996,850.6,411.6,355.0,5.0,2.1,21.63,45.31,1.906,377.5139],
    [3643,1532797471,57.0014,-111.1997,851.3,412.3,354.8,5.0,2.2,21.82,45.03,1.9063,377.4864],
    [3644,1532797472,57.0021,-111.1997,851.5,412.4,355.0,4.8,2.1,22.28,44.94,1.9068,377.4864],
    [3645,1532797473,57.0027,-111.1997,851.3,412.2,354.7,5.0,2.1,21.72,46.22,1.9067,377.3884],
    [3646,1532797474,57.0033,-111.1997,850.6,411.6,354.6,5.0,2.4,21.71,45.87,1.9066,377.0546],
    [3647,1532797475,57.004,-111.1998,849.8,410.8,354.6,4.9,2.8,21.79,45.83,1.9081,375.2009],
    [3648,1532797476,57.0046,-111.1998,849.0,410.0,354.3,5.1,3.0,21.56,46.28,1.9079,375.9437],
    [3649,1532797477,57.0053,-111.1998,848.7,409.7,354.2,5.1,2.9,21.8,46.09,1.9085,376.9005],
    [3650,1532797478,57.0059,-111.1998,848.8,409.8,354.2,5.0,3.1,21.84,46.86,1.9093,374.4958],
    [3651,1532797479,57.0065,-111.1999,849.1,410.1,354.2,5.0,3.2,22.23,46.07,1.9291,377.1862],
    [3652,1532797480,57.0072,-111.1999,849.5,410.5,354.5,4.7,3.0,21.63,47.15,1.9285,376.9754],
    [3653,1532797481,57.0078,-111.1999,849.9,410.9,354.7,4.6,2.5,21.86,47.54,1.9159,373.2599],
    [3654,1532797482,57.0085,-111.2,850.1,411.1,354.8,4.4,2.5,21.73,48.93,1.9152,376.303],
    [3655,1532797483,57.0091,-111.2,850.0,411.0,354.9,4.2,2.9,22.07,48.16,1.9123,375.253],
    [3656,1532797484,57.0097,-111.2,849.6,410.6,355.1,3.8,2.8,21.16,48.8,1.9092,374.4611],
    [3657,1532797485,57.0104,-111.2001,849.0,410.7,355.0,3.7,3.0,21.51,48.22,1.9109,374.6249],
    [3658,1532797486,57.011,-111.2001,848.5,410.1,354.9,3.6,2.1,21.37,48.08,1.9126,374.6249],
    [3659,1532797487,57.0117,-111.2002,847.7,408.9,355.1,3.1,1.8,20.85,48.07,1.9258,377.1291],
    [3660,1532797488,57.0123,-111.2002,846.6,407.6,355.2,3.0,1.3,21.51,48.24,1.9382,375.9504],
    [3661,1532797489,57.013,-111.2003,845.7,406.7,354.3,3.9,2.8,21.2,48.71,1.9391,377.6505],
    [3662,1532797490,57.0136,-111.2003,845.2,406.2,354.6,3.5,2.3,21.08,50.23,1.9389,377.6505],
    [3663,1532797491,57.0143,-111.2004,844.6,405.6,354.9,3.3,2.8,22.32,51.07,1.9352,377.9697],
    [3664,1532797492,57.0149,-111.2004,843.9,404.9,354.4,4.0,2.9,21.69,51.71,1.9306,376.4975],
    [3665,1532797493,57.0156,-111.2005,843.2,404.2,354.8,3.5,4.0,21.54,52.11,1.9293,376.5007],
    [3666,1532797494,57.0162,-111.2005,842.8,403.8,354.9,3.7,4.3,21.4,51.93,1.9148,374.8637],
    [3667,1532797495,57.0169,-111.2005,842.4,403.4,354.9,3.8,3.0,21.43,51.68,1.9083,374.8637],
    [3668,1532797496,57.0175,-111.2006,841.7,402.7,356.8,1.7,3.5,21.26,50.73,1.9057,373.7378],
    [3669,1532797497,57.0182,-111.2006,841.1,402.1,356.6,2.3,4.0,21.42,49.85,1.9066,374.3758],
    [3670,1532797498,57.0189,-111.2006,840.6,401.6,356.5,2.3,4.1,21.08,49.09,1.9076,373.8216],
    [3671,1532797499,57.0195,-111.2007,840.2,401.2,357.3,1.5,4.5,20.73,48.05,1.9064,373.8216],
    [3672,1532797500,57.0202,-111.2007,840.4,401.4,357.1,1.3,3.9,21.53,47.72,1.9098,375.0093],
    [3673,1532797501,57.0208,-111.2007,840.2,401.2,357.2,1.4,3.9,21.32,47.28,1.916,375.0093],
    [3674,1532797502,57.0215,-111.2008,839.5,400.5,356.5,2.7,3.6,21.71,47.37,1.9151,375.2641],
    [3675,1532797503,57.0221,-111.2008,839.8,400.8,356.2,3.3,3.9,21.38,47.74,1.915,374.5934],
    [3676,1532797504,57.0228,-111.2008,840.9,401.9,356.1,3.4,3.7,21.29,48.14,1.9159,374.5934],
    [3677,1532797505,57.0234,-111.2008,841.8,402.8,356.3,3.2,3.3,21.45,49.39,1.9233,375.7889],
    [3678,1532797506,57.0241,-111.2009,842.2,403.2,356.4,3.5,4.3,21.36,49.25,1.9234,375.9072],
    [3679,1532797507,57.0247,-111.2009,842.3,403.3,356.9,3.3,4.0,21.92,48.35,1.926,377.1882],
    [3680,1532797508,57.0254,-111.2009,842.0,402.0,357.8,2.8,3.0,21.58,49.36,1.9344,376.5617],
    [3681,1532797509,57.026,-111.2009,841.3,401.3,358.5,2.5,3.1,20.84,50.19,1.9351,376.6642],
    [3682,1532797510,57.0267,-111.2008,839.8,399.8,359.4,1.9,4.7,21.17,50.76,1.9321,376.5242],
    [3683,1532797511,57.0273,-111.2008,838.9,398.9,359.6,2.3,4.3,21.09,52.12,1.9269,376.1179],
    [3684,1532797512,57.028,-111.2008,839.0,398.3,359.4,2.8,4.2,21.24,51.77,1.9154,375.4771],
    [3685,1532797513,57.0286,-111.2007,839.5,398.5,360.1,2.3,4.2,21.65,51.31,1.9133,375.4771],
    [3686,1532797514,57.0293,-111.2007,840.0,399.0,360.9,1.6,4.3,21.09,50.7,1.9224,376.3361],
    [3687,1532797515,57.0299,-111.2007,840.2,399.2,359.9,2.7,4.4,21.46,49.89,1.9187,375.9361],
    [3688,1532797516,57.0305,-111.2006,840.4,399.4,360.3,1.9,4.4,21.21,49.63,1.9237,376.0615],
    [3689,1532797517,57.0312,-111.2006,840.7,398.6,361.4,0.8,3.2,21.18,49.7,1.9239,376.2787],
    [3690,1532797518,57.0318,-111.2005,840.8,398.8,360.6,1.7,4.1,20.89,49.9,1.9214,375.1399],
    [3691,1532797519,57.0325,-111.2005,840.5,398.5,359.6,2.8,3.7,21.48,49.88,1.9188,374.9011],
    [3692,1532797520,57.0331,-111.2005,840.3,397.2,359.2,3.1,4.4,21.79,49.95,1.919,375.9881],
    [3693,1532797521,57.0338,-111.2004,839.7,396.7,359.4,3.1,4.4,21.98,49.86,1.928,376.5899],
    [3694,1532797522,57.0344,-111.2004,839.1,396.1,359.0,3.6,3.8,21.26,50.06,1.9311,376.5643],
    [3695,1532797523,57.035,-111.2003,838.1,395.1,359.8,2.9,4.3,21.57,51.15,1.924,376.4789],
    [3696,1532797524,57.0357,-111.2003,837.4,394.4,359.8,2.9,5.3,20.84,50.84,1.9226,376.4637],
    [3697,1532797525,57.0364,-111.2003,837.4,393.4,360.2,2.5,6.0,21.26,51.15,1.9173,375.7046],
    [3698,1532797526,57.037,-111.2002,837.6,393.6,360.6,2.4,5.8,20.93,50.91,1.9267,376.668],
    [3699,1532797527,57.0377,-111.2002,838.2,394.2,360.1,2.8,5.3,20.87,50.58,1.928,377.1365],
    [3700,1532797528,57.0383,-111.2001,839.3,395.3,359.7,3.1,4.4,20.79,50.78,1.9277,377.31],
    [3701,1532797529,57.039,-111.2001,840.0,396.0,358.6,3.7,4.3,21.12,51.7,1.9314,376.7955],
    [3702,1532797530,57.0396,-111.2,840.6,396.6,359.3,2.2,4.1,21.44,51.45,1.9269,376.7438],
    [3703,1532797531,57.0402,-111.2,840.8,396.8,359.5,1.7,4.1,21.23,52.34,1.9106,374.6398],
    [3704,1532797532,57.0408,-111.2,840.7,397.2,358.7,2.3,3.6,21.34,51.13,1.9075,375.1366],
    [3705,1532797533,57.0415,-111.2,840.1,396.1,358.3,2.4,3.6,21.37,50.43,1.9062,375.3419],
    [3706,1532797534,57.0422,-111.2,838.7,394.7,357.0,3.2,3.4,21.11,49.76,1.9043,376.6031],
    [3707,1532797535,57.0428,-111.2,837.1,393.1,356.4,3.1,3.8,21.25,48.05,1.9034,376.4281],
    [3708,1532797536,57.0434,-111.2,835.6,391.6,356.0,2.9,4.0,21.46,47.66,1.907,375.6872],
    [3709,1532797537,57.044,-111.2001,834.7,390.7,355.8,2.8,4.8,21.68,46.73,1.9093,376.1929],
    [3710,1532797538,57.0447,-111.2001,834.4,390.1,355.6,2.9,4.8,21.1,46.86,1.9109,376.2764],
    [3711,1532797539,57.0453,-111.2001,834.4,389.4,354.7,4.0,4.7,21.26,47.39,1.9073,375.6745],
    [3712,1532797540,57.0459,-111.2002,834.8,389.8,355.0,3.9,4.5,21.36,47.36,1.9061,375.7456],
    [3713,1532797541,57.0465,-111.2002,835.4,390.4,355.5,3.9,4.8,21.3,46.71,1.9036,377.5109],
    [3714,1532797542,57.0471,-111.2002,836.4,391.4,354.9,4.7,5.0,21.35,47.43,1.9052,376.2704],
    [3715,1532797543,57.0478,-111.2002,837.7,391.7,355.4,4.1,5.2,21.17,46.45,1.9047,377.2787],
    [3716,1532797544,57.0484,-111.2002,838.9,392.8,355.9,3.3,5.2,21.45,46.59,1.9054,377.087],
    [3717,1532797545,57.049,-111.2003,840.0,393.0,355.1,2.8,5.2,21.28,45.99,1.9064,376.7409],
    [3718,1532797546,57.0496,-111.2003,840.5,392.5,352.5,3.3,5.0,22.02,45.17,1.9052,376.7623],
    [3719,1532797547,57.0502,-111.2004,841.2,392.2,348.7,4.0,5.0,21.61,45.98,1.9056,374.9876],
    [3720,1532797548,57.0508,-111.2006,842.2,392.3,345.5,3.8,4.7,21.9,45.16,1.9061,375.5115],
    [3721,1532797549,57.0514,-111.2008,843.8,392.8,342.0,3.9,4.5,20.95,45.97,1.9082,378.0164],
    [3722,1532797550,57.052,-111.2011,845.5,392.5,338.3,4.0,4.5,21.48,46.46,1.9083,376.8061],
    [3723,1532797551,57.0525,-111.2014,846.8,392.8,334.9,4.0,4.1,21.51,46.37,1.9062,376.0215],
    [3724,1532797552,57.053,-111.2018,847.6,393.6,331.9,4.0,3.7,22.4,46.07,1.9062,376.2413],
    [3725,1532797553,57.0535,-111.2022,848.0,394.3,328.8,4.2,3.4,21.57,46.93,1.9054,377.4381],
    [3726,1532797554,57.054,-111.2027,847.9,394.5,325.4,4.4,3.3,21.52,47.21,1.9062,376.8612],
    [3727,1532797555,57.0545,-111.2033,847.4,395.7,322.1,4.4,3.6,21.29,46.68,1.9069,376.1337],
    [3728,1532797556,57.055,-111.2038,847.1,398.1,318.6,4.5,3.8,21.51,46.64,1.9065,375.095],
    [3729,1532797557,57.0554,-111.2044,847.0,400.0,315.2,4.7,3.6,21.64,46.47,1.9072,375.095],
    [3730,1532797558,57.0558,-111.2051,847.2,399.2,312.2,4.4,3.5,21.02,46.51,1.9079,376.6158],
    [3731,1532797559,57.0562,-111.2058,847.3,399.3,308.9,4.3,3.8,21.26,46.72,1.9067,377.163],
    [3732,1532797560,57.0566,-111.2065,847.2,400.2,305.7,4.5,3.7,21.93,45.89,1.9059,377.502],
    [3733,1532797561,57.0569,-111.2073,847.0,400.0,303.0,4.2,3.4,21.75,46.94,1.905,377.5873],
    [3734,1532797562,57.0572,-111.2081,846.6,399.6,300.1,4.3,3.5,21.96,46.34,1.9075,378.0204],
    [3735,1532797563,57.0575,-111.2089,846.8,399.8,297.3,4.2,3.6,22.31,45.98,1.9051,376.9607],
    [3736,1532797564,57.0578,-111.2097,847.4,401.5,295.1,4.0,3.6,21.43,46.57,1.9052,377.076],
    [3737,1532797565,57.058,-111.2105,848.4,402.4,293.3,4.0,3.4,21.64,46.75,1.9056,376.9556],
    [3738,1532797566,57.0583,-111.2114,849.6,403.8,291.9,3.7,3.2,21.4,46.76,1.9072,376.9556],
    [3739,1532797567,57.0585,-111.2122,850.7,405.7,290.5,4.2,2.9,21.6,46.99,1.9068,376.5174],
    [3740,1532797568,57.0587,-111.2131,851.3,406.6,289.2,3.9,2.5,20.91,46.89,1.9081,376.3022],
    [3741,1532797569,57.0589,-111.214,851.7,407.7,287.1,4.2,2.6,21.47,46.84,1.9076,376.308],
    [3742,1532797570,57.0591,-111.2149,852.1,408.1,284.6,4.4,2.7,21.56,47.62,1.917,377.4231],
    [3743,1532797571,57.0592,-111.2158,852.3,409.0,282.3,3.5,2.9,21.55,47.36,1.9221,376.5768],
    [3744,1532797572,57.0593,-111.2167,852.6,408.6,279.8,3.6,3.1,21.53,47.83,1.9233,377.75],
    [3745,1532797573,57.0594,-111.2176,852.7,407.6,277.5,3.6,3.1,21.52,48.56,1.924,377.9899],
    [3746,1532797574,57.0595,-111.2185,852.5,408.5,275.4,4.0,3.1,21.08,49.09,1.9261,376.8765],
    [3747,1532797575,57.0596,-111.2194,851.9,407.9,273.4,4.5,3.1,21.47,50.11,1.9308,377.3859],
    [3748,1532797576,57.0596,-111.2203,851.0,408.0,272.0,5.3,2.9,22.36,50.44,1.934,378.5913],
    [3749,1532797577,57.0597,-111.2213,849.9,407.9,270.4,5.8,3.0,21.33,51.63,1.9376,376.8848],
    [3750,1532797578,57.0597,-111.2222,848.3,406.3,269.3,5.9,3.0,21.45,52.21,1.9262,376.884],
    [3751,1532797579,57.0597,-111.2231,846.7,406.7,267.7,6.1,3.9,21.9,52.24,1.9121,376.8039],
    [3752,1532797580,57.0597,-111.224,845.2,406.3,265.6,4.5,4.9,21.03,52.69,1.9129,375.8328],
    [3753,1532797581,57.0597,-111.225,843.2,405.2,265.0,4.1,4.4,22.24,50.74,1.9162,375.8328],
    [3754,1532797582,57.0597,-111.2259,840.3,403.3,264.8,3.5,3.9,21.56,50.42,1.9192,377.2231],
    [3755,1532797583,57.0597,-111.2268,837.2,401.1,263.9,4.4,4.2,21.62,49.57,1.9093,373.9798],
    [3756,1532797584,57.0597,-111.2278,834.1,400.1,263.6,4.5,4.2,21.45,50.01,1.9086,375.5616],
    [3757,1532797585,57.0596,-111.2288,831.7,400.7,264.0,3.9,4.2,21.08,49.81,1.9077,375.1692],
    [3758,1532797586,57.0596,-111.2297,830.0,402.0,264.2,4.0,4.9,21.04,49.28,1.9062,375.1252],
    [3759,1532797587,57.0596,-111.2307,828.9,405.2,266.9,4.1,3.0,21.99,47.72,1.9059,376.6631],
    [3760,1532797588,57.0596,-111.2317,827.4,407.1,268.1,3.9,2.7,21.64,47.83,1.9082,375.9163],
    [3761,1532797589,57.0596,-111.2327,826.6,408.3,266.7,3.3,4.3,21.63,48.07,1.9074,376.1225],
    [3762,1532797590,57.0596,-111.2336,826.5,410.5,267.1,3.8,3.7,21.44,48.34,1.9065,376.1225],
    [3763,1532797591,57.0596,-111.2346,826.4,411.4,267.2,3.5,3.5,21.9,47.31,1.9073,376.65],
    [3764,1532797592,57.0596,-111.2356,826.4,412.7,266.8,4.0,3.6,21.45,47.4,1.9069,375.4065],
    [3765,1532797593,57.0596,-111.2366,826.2,413.5,267.7,3.5,2.7,21.22,47.21,1.9074,376.8954],
    [3766,1532797594,57.0596,-111.2375,826.0,414.7,267.7,3.9,2.7,21.25,47.23,1.9084,376.8954],
    [3767,1532797595,57.0596,-111.2385,825.9,414.9,267.4,3.9,2.9,21.54,46.82,1.9074,375.9291],
    [3768,1532797596,57.0596,-111.2396,826.0,416.0,266.9,4.3,3.2,21.63,47.45,1.908,375.4044],
    [3769,1532797597,57.0596,-111.2406,826.2,417.3,266.7,4.3,3.1,21.37,47.37,1.9085,374.9719],
    [3770,1532797598,57.0596,-111.2415,826.3,417.3,266.7,4.8,3.0,21.81,46.98,1.9088,375.3929],
    [3771,1532797599,57.0596,-111.2425,826.1,418.0,265.7,5.2,3.8,21.34,47.39,1.9085,376.9108],
    [3772,1532797600,57.0596,-111.2435,826.0,419.0,265.4,5.3,3.7,21.35,47.45,1.9087,375.8909],
    [3773,1532797601,57.0596,-111.2444,825.6,419.6,265.9,5.1,3.1,22.07,47.18,1.9094,376.0827],
    [3774,1532797602,57.0596,-111.2454,824.0,419.0,265.2,5.9,3.7,21.58,47.37,1.909,375.1283],
    [3775,1532797603,57.0596,-111.2464,821.4,417.5,265.2,5.6,3.3,20.74,47.5,1.9089,376.3066],
    [3776,1532797604,57.0595,-111.2474,818.8,415.8,264.8,5.3,3.6,21.16,47.56,1.9096,376.7653],
    [3777,1532797605,57.0595,-111.2483,816.4,414.4,263.6,5.2,4.3,21.49,47.48,1.9092,375.8436],
    [3778,1532797606,57.0595,-111.2493,814.4,412.2,263.7,4.9,4.1,21.04,47.52,1.909,376.1755],
    [3779,1532797607,57.0595,-111.2503,812.1,411.1,263.5,4.4,4.0,21.01,47.31,1.9078,376.421],
    [3780,1532797608,57.0594,-111.2514,809.9,409.0,263.7,4.0,3.8,21.15,47.53,1.9077,375.7032],
    [3781,1532797609,57.0594,-111.2524,807.6,407.5,263.3,4.0,4.2,21.6,47.84,1.9078,375.4695],
    [3782,1532797610,57.0594,-111.2534,805.4,405.4,264.2,4.2,3.7,22.05,46.67,1.9077,375.4695],
    [3783,1532797611,57.0594,-111.2545,803.3,403.3,266.2,4.3,2.4,20.95,47.25,1.9079,378.0644],
    [3784,1532797612,57.0593,-111.2555,801.8,402.7,267.3,4.6,2.4,21.06,46.91,1.9076,375.9883],
    [3785,1532797613,57.0593,-111.2565,801.0,402.0,267.5,4.1,2.9,21.91,46.64,1.908,376.0309],
    [3786,1532797614,57.0593,-111.2575,800.7,401.7,268.3,4.2,2.7,21.2,46.68,1.9096,375.8366],
    [3787,1532797615,57.0594,-111.2585,800.3,402.3,269.0,3.9,2.3,21.91,46.49,1.9102,375.43],
    [3788,1532797616,57.0594,-111.2596,799.6,401.6,269.1,4.4,2.3,21.29,47.27,1.9097,375.1222],
    [3789,1532797617,57.0594,-111.2606,798.4,400.4,269.0,4.1,2.3,21.55,46.73,1.9086,376.9574],
    [3790,1532797618,57.0594,-111.2616,797.1,400.1,268.9,4.7,2.3,21.87,46.24,1.9069,378.3537],
    [3791,1532797619,57.0594,-111.2626,795.6,398.6,268.6,4.9,2.5,21.86,47.06,1.9071,378.3537],
    [3792,1532797620,57.0594,-111.2636,794.0,397.0,268.5,4.9,2.4,21.05,46.82,1.9055,377.4434],
    [3793,1532797621,57.0594,-111.2647,792.5,396.5,268.0,5.0,2.8,21.52,46.84,1.907,377.2765],
    [3794,1532797622,57.0594,-111.2657,791.4,395.4,266.9,4.7,3.5,21.42,46.48,1.9085,374.7338],
    [3795,1532797623,57.0594,-111.2667,790.1,395.1,266.7,4.4,3.5,21.47,46.47,1.9084,376.8366],
    [3796,1532797624,57.0594,-111.2678,788.5,393.5,265.7,4.5,4.1,21.53,46.3,1.9085,377.0584],
    [3797,1532797625,57.0594,-111.2688,786.7,391.7,265.6,4.1,3.6,21.73,46.43,1.9077,376.2967],
    [3798,1532797626,57.0594,-111.2699,784.6,390.6,265.3,3.8,3.4,21.52,46.42,1.9084,376.4768],
    [3799,1532797627,57.0593,-111.2709,782.5,389.5,265.6,3.4,2.8,21.69,46.69,1.9087,376.0653],
    [3800,1532797628,57.0593,-111.2719,780.2,388.2,265.8,2.7,2.9,21.78,46.49,1.9102,376.9558],
    [3801,1532797629,57.0593,-111.273,778.5,387.5,266.8,2.9,2.3,21.77,46.94,1.9109,375.9587],
    [3802,1532797630,57.0593,-111.274,777.4,387.4,267.4,2.8,2.9,21.51,46.32,1.9112,375.9587],
    [3803,1532797631,57.0593,-111.2751,777.2,388.2,267.8,2.7,3.4,21.65,46.52,1.9101,374.723],
    [3804,1532797632,57.0593,-111.2761,777.0,388.7,269.1,3.5,2.7,21.98,46.74,1.9092,377.0303],
    [3805,1532797633,57.0593,-111.2772,776.6,388.6,269.5,2.9,2.7,21.43,46.37,1.9075,376.9682],
    [3806,1532797634,57.0594,-111.2782,776.0,388.0,269.3,3.6,2.9,21.54,46.86,1.9074,376.3796],
    [3807,1532797635,57.0594,-111.2793,775.3,388.3,269.5,3.6,2.8,22.08,46.47,1.9077,376.7923],
    [3808,1532797636,57.0594,-111.2803,774.8,387.8,269.2,2.7,3.6,22.26,46.35,1.9092,376.2652],
    [3809,1532797637,57.0594,-111.2814,774.5,387.5,269.0,2.7,3.7,22.62,46.04,1.9089,376.2792],
    [3810,1532797638,57.0594,-111.2824,774.0,388.0,270.0,2.7,2.9,21.6,46.44,1.9084,376.4779],
    [3811,1532797639,57.0595,-111.2835,773.4,387.4,268.7,2.6,4.1,21.83,46.3,1.9096,377.3321],
    [3812,1532797640,57.0595,-111.2845,772.6,387.6,269.3,2.5,2.9,21.99,46.45,1.9102,377.1382],
    [3813,1532797641,57.0595,-111.2856,771.8,386.8,269.5,1.9,2.6,21.92,46.64,1.9102,376.2248],
    [3814,1532797642,57.0595,-111.2866,771.1,386.1,268.3,2.1,3.4,21.44,46.6,1.9107,376.6347],
    [3815,1532797643,57.0595,-111.2877,770.3,386.3,269.0,2.3,2.4,21.83,47.43,1.9102,375.4456],
    [3816,1532797644,57.0595,-111.2887,770.3,387.3,268.5,2.2,2.7,21.83,47.91,1.9103,375.4587],
    [3817,1532797645,57.0596,-111.2898,770.7,388.7,267.6,2.2,3.4,21.63,47.11,1.9112,375.4358],
    [3818,1532797646,57.0596,-111.2909,770.8,389.8,268.3,2.3,2.6,21.76,47.03,1.9116,375.9019],
    [3819,1532797647,57.0596,-111.2919,770.7,390.7,268.0,2.4,2.8,21.77,46.94,1.912,376.8708],
    [3820,1532797648,57.0596,-111.293,770.6,391.6,267.3,2.4,3.1,21.84,46.95,1.9105,375.9184],
    [3821,1532797649,57.0596,-111.294,769.9,391.9,267.6,2.2,2.6,21.31,46.91,1.9109,376.2532],
    [3822,1532797650,57.0596,-111.2951,769.1,392.8,267.1,2.5,3.0,22.27,46.79,1.9118,377.1301],
    [3823,1532797651,57.0596,-111.2961,768.8,393.8,267.1,2.0,3.0,22.02,47.16,1.9104,376.6223],
    [3824,1532797652,57.0596,-111.2971,768.9,394.9,267.6,2.2,2.7,21.97,46.99,1.9112,376.1087],
    [3825,1532797653,57.0596,-111.2981,769.5,396.5,267.5,2.4,3.1,21.95,47.28,1.9114,376.1645],
    [3826,1532797654,57.0596,-111.2992,769.9,397.9,267.5,2.4,3.3,22.48,46.93,1.9116,376.0434],
    [3827,1532797655,57.0596,-111.3002,770.0,398.9,267.7,2.7,3.1,22.64,46.78,1.9109,376.0434],
    [3828,1532797656,57.0596,-111.3012,769.7,399.7,267.8,2.8,3.0,21.81,47.38,1.9136,376.9396],
    [3829,1532797657,57.0596,-111.3022,769.0,400.0,267.7,2.8,3.2,22.13,47.37,1.912,376.6888],
    [3830,1532797658,57.0596,-111.3032,768.0,399.0,267.6,2.8,3.2,22.68,47.02,1.9127,377.1576],
    [3831,1532797659,57.0596,-111.3043,767.1,398.1,267.6,2.4,3.1,21.54,47.2,1.9135,377.2331],
    [3832,1532797660,57.0596,-111.3053,766.8,397.7,266.9,2.3,3.6,21.93,47.99,1.9154,376.8312],
    [3833,1532797661,57.0596,-111.3063,766.8,399.8,266.8,2.5,3.4,21.92,47.77,1.9148,377.8688],
    [3834,1532797662,57.0596,-111.3073,766.7,400.7,266.9,2.2,3.3,22.26,46.65,1.9157,378.3872],
    [3835,1532797663,57.0596,-111.3083,766.6,401.7,266.8,2.3,3.4,22.03,47.39,1.9145,378.3872],
    [3836,1532797664,57.0596,-111.3094,766.6,402.3,267.4,2.7,2.9,21.73,47.67,1.9146,376.4419],
    [3837,1532797665,57.0596,-111.3104,766.5,402.5,267.8,3.0,2.7,21.93,48.37,1.9154,378.0792],
    [3838,1532797666,57.0596,-111.3114,766.5,403.5,267.7,3.2,2.7,21.27,47.98,1.9167,377.6769],
    [3839,1532797667,57.0596,-111.3124,766.4,403.4,268.1,2.9,2.3,22.41,48.02,1.9152,377.9907],
    [3840,1532797668,57.0596,-111.3134,766.3,403.3,267.6,2.8,2.7,22.28,47.74,1.9164,376.8466],
    [3841,1532797669,57.0596,-111.3144,766.1,403.1,267.6,2.8,2.6,22.27,47.46,1.9184,377.5171],
    [3842,1532797670,57.0596,-111.3154,765.7,403.7,267.8,2.7,2.6,22.81,47.5,1.9187,377.4698],
    [3843,1532797671,57.0596,-111.3164,765.0,403.0,267.8,2.9,3.0,21.73,48.56,1.9214,379.081],
    [3844,1532797672,57.0596,-111.3175,763.7,401.7,268.0,3.0,3.0,22.53,47.54,1.9224,381.0432],
    [3845,1532797673,57.0596,-111.3185,762.4,400.4,268.2,3.6,3.2,21.9,48.08,1.9223,379.205],
    [3846,1532797674,57.0596,-111.3195,761.2,399.2,268.4,3.1,3.4,22.05,48.26,1.922,379.2313],
    [3847,1532797675,57.0596,-111.3205,760.6,398.6,268.2,2.7,3.9,21.99,48.3,1.9204,378.7626],
    [3848,1532797676,57.0597,-111.3215,760.5,398.5,268.4,2.9,4.0,22.13,48.61,1.9211,377.9702],
    [3849,1532797677,57.0597,-111.3225,760.7,399.7,269.0,3.2,3.7,22.14,48.29,1.9209,378.6152],
    [3850,1532797678,57.0597,-111.3235,760.7,399.7,269.7,3.0,3.1,21.73,48.97,1.9233,378.1941],
    [3851,1532797679,57.0597,-111.3245,760.5,400.5,269.7,2.7,3.2,21.41,49.11,1.9239,378.7887],
    [3852,1532797680,57.0597,-111.3256,760.1,400.1,269.8,2.5,3.1,21.79,48.99,1.922,378.5907],
    [3853,1532797681,57.0598,-111.3266,759.3,400.3,270.2,2.4,2.8,22.43,48.79,1.9227,378.9501],
    [3854,1532797682,57.0598,-111.3276,758.4,400.4,270.1,2.9,3.0,21.8,49.74,1.923,378.3556],
    [3855,1532797683,57.0598,-111.3286,757.6,400.6,270.2,2.9,3.0,21.52,49.34,1.9228,377.7178],
    [3856,1532797684,57.0599,-111.3296,757.0,401.0,270.0,2.8,3.3,21.1,49.27,1.9244,379.2633],
    [3857,1532797685,57.0599,-111.3306,756.6,400.9,270.4,2.0,3.0,21.82,49.02,1.9258,379.2633],
    [3858,1532797686,57.0599,-111.3317,756.4,401.4,270.4,2.6,3.2,21.78,49.17,1.9261,379.01],
    [3859,1532797687,57.06,-111.3327,756.5,401.5,270.5,2.2,2.9,21.17,49.33,1.9331,379.0407],
    [3860,1532797688,57.06,-111.3337,756.6,402.6,271.1,2.5,1.9,21.6,49.44,1.9625,380.7079],
    [3861,1532797689,57.06,-111.3347,756.7,402.7,269.6,2.7,2.9,21.68,50.58,1.9617,380.7718],
    [3862,1532797690,57.06,-111.3357,756.3,402.3,267.6,2.1,3.9,21.78,50.85,1.9773,381.3787],
    [3863,1532797691,57.06,-111.3367,755.8,401.8,267.4,1.6,3.4,22.41,51.26,1.9648,381.3787],
    [3864,1532797692,57.06,-111.3377,755.2,401.2,267.0,2.2,3.4,21.92,51.72,1.963,379.6339],
    [3865,1532797693,57.06,-111.3387,754.6,400.6,266.7,2.5,3.3,22.02,51.9,1.929,379.1347],
    [3866,1532797694,57.06,-111.3397,753.8,399.8,266.6,2.4,2.8,21.99,52.41,1.9275,378.3655],
    [3867,1532797695,57.06,-111.3408,753.1,399.1,267.0,3.0,2.5,21.4,51.98,1.9423,381.5815],
    [3868,1532797696,57.06,-111.3418,752.4,398.4,265.6,2.5,4.1,21.17,51.81,1.941,380.4718],
    [3869,1532797697,57.06,-111.3428,751.9,397.9,265.7,2.8,4.0,21.57,51.59,1.9335,378.486],
    [3870,1532797698,57.06,-111.3438,751.3,397.3,266.2,2.6,3.8,21.9,51.61,1.9287,379.5364],
    [3871,1532797699,57.06,-111.3448,750.5,397.5,266.3,2.9,3.8,21.47,51.45,1.9304,379.3905],
    [3872,1532797700,57.06,-111.3458,749.5,396.5,266.1,2.8,4.3,21.31,51.38,1.9313,379.3905],
    [3873,1532797701,57.06,-111.3468,748.7,396.5,265.8,2.7,4.6,22.21,50.78,1.9315,377.7224],
    [3874,1532797702,57.06,-111.3478,747.9,395.9,266.3,2.6,4.2,21.39,51.3,1.9318,377.5755],
    [3875,1532797703,57.06,-111.3488,747.0,395.0,266.3,2.4,4.1,21.78,51.08,1.9329,378.7798],
    [3876,1532797704,57.06,-111.3498,745.8,394.8,267.1,2.3,3.3,21.04,51.31,1.9351,379.791],
    [3877,1532797705,57.06,-111.3509,744.8,393.8,266.9,2.3,3.7,21.44,51.68,1.9372,381.1919],
    [3878,1532797706,57.06,-111.3519,744.0,393.0,266.5,2.6,4.1,21.31,52.11,1.9387,381.1537],
    [3879,1532797707,57.06,-111.3529,743.2,393.2,266.7,2.5,3.9,21.24,51.64,1.9386,380.973],
    [3880,1532797708,57.06,-111.3539,742.3,392.3,267.0,2.2,3.5,21.4,51.84,1.9392,380.4965],
    [3881,1532797709,57.06,-111.3549,741.3,391.3,267.3,2.3,3.2,21.15,51.95,1.9409,381.0979],
    [3882,1532797710,57.06,-111.356,740.1,391.1,267.0,2.4,3.5,21.7,52.14,1.9481,384.122],
    [3883,1532797711,57.06,-111.357,739.0,390.0,266.5,1.7,3.7,21.62,52.69,1.9488,383.755],
    [3884,1532797712,57.06,-111.358,738.3,389.3,266.2,1.4,3.9,21.74,52.24,1.9469,383.2826],
    [3885,1532797713,57.06,-111.3591,738.1,390.1,266.2,1.2,3.8,21.13,52.64,1.9445,381.9496],
    [3886,1532797714,57.06,-111.3601,738.4,390.4,266.3,1.8,3.8,21.23,52.71,1.9521,384.744],
    [3887,1532797715,57.06,-111.3611,738.8,391.5,266.4,1.8,3.7,21.89,53.0,1.9627,385.2482],
    [3888,1532797716,57.06,-111.3621,739.3,392.3,267.0,1.8,3.2,22.13,52.93,1.9512,382.4239],
    [3889,1532797717,57.06,-111.3632,740.0,393.0,266.3,1.8,3.8,21.01,53.52,1.9474,383.229],
    [3890,1532797718,57.06,-111.3642,740.8,394.8,266.1,1.6,3.7,20.99,54.06,1.952,383.229],
    [3891,1532797719,57.06,-111.3652,741.4,395.4,266.4,1.6,3.2,21.31,53.65,1.9522,379.4306],
    [3892,1532797720,57.06,-111.3662,742.1,396.1,265.4,1.8,4.4,21.54,53.67,1.9629,385.4122],
    [3893,1532797721,57.06,-111.3672,742.7,397.7,265.7,2.2,4.3,20.92,54.05,1.9651,385.1553],
    [3894,1532797722,57.06,-111.3682,742.9,397.9,266.9,2.2,3.4,21.25,54.11,1.9567,383.806],
    [3895,1532797723,57.06,-111.3692,743.1,398.1,266.9,2.4,3.8,21.87,54.15,1.955,382.6219],
    [3896,1532797724,57.06,-111.3702,743.4,399.4,267.2,2.6,3.7,21.4,54.66,1.9609,382.5298],
    [3897,1532797725,57.06,-111.3713,743.5,399.5,267.4,3.2,3.6,21.88,54.74,1.9841,392.0451],
    [3898,1532797726,57.06,-111.3723,743.4,400.4,266.9,4.4,4.1,21.4,54.76,1.9529,382.8534],
    [3899,1532797727,57.06,-111.3733,743.0,400.0,266.8,5.4,4.1,21.51,54.39,1.9167,377.1327],
    [3900,1532797728,57.06,-111.3743,742.8,399.1,266.8,5.7,4.0,21.3,53.92,1.9063,378.1502],
    [3901,1532797729,57.06,-111.3753,742.5,398.5,266.8,5.7,3.8,20.7,52.49,1.9039,379.0332],
    [3902,1532797730,57.06,-111.3763,742.2,398.2,266.5,5.5,3.9,21.5,50.86,1.9037,376.6074],
    [3903,1532797731,57.06,-111.3773,742.3,398.3,266.5,5.3,3.9,21.18,49.83,1.9042,379.049],
    [3904,1532797732,57.06,-111.3783,742.4,398.4,266.3,5.4,3.8,21.18,48.85,1.9028,379.4062],
    [3905,1532797733,57.06,-111.3793,742.8,398.9,266.4,5.4,3.7,21.81,48.18,1.9025,377.4637],
    [3906,1532797734,57.06,-111.3803,743.6,400.6,266.3,5.3,3.6,21.49,48.63,1.9022,378.2329],
    [3907,1532797735,57.06,-111.3813,745.0,402.0,266.7,5.1,2.9,21.2,48.26,1.9024,380.066],
    [3908,1532797736,57.0599,-111.3823,746.9,403.9,267.6,5.4,2.0,22.0,47.82,1.9044,378.3154],
    [3909,1532797737,57.0599,-111.3833,748.6,406.6,267.8,5.5,1.6,22.05,47.17,1.9044,378.764],
    [3910,1532797738,57.0599,-111.3843,750.3,408.3,268.1,5.7,0.8,21.64,47.4,1.9041,377.8418],
    [3911,1532797739,57.0599,-111.3854,751.8,409.8,267.1,5.6,0.7,22.21,47.07,1.9103,379.2736],
    [3912,1532797740,57.0599,-111.3864,753.0,412.0,265.1,5.9,1.0,22.79,46.02,1.9198,378.6907],
    [3913,1532797741,57.0598,-111.3874,753.8,412.8,262.9,5.8,1.1,22.37,46.36,1.9262,378.6907],
    [3914,1532797742,57.0597,-111.3884,754.1,413.1,260.4,5.7,1.4,21.44,47.23,1.9573,391.9811],
    [3915,1532797743,57.0597,-111.3894,754.0,413.0,258.3,5.6,1.6,21.9,47.79,1.9845,391.9811],
    [3916,1532797744,57.0595,-111.3903,753.6,412.6,256.6,5.0,1.5,22.06,49.07,2.0329,406.892],
    [3917,1532797745,57.0594,-111.3913,752.9,411.9,255.4,5.1,1.7,22.47,49.49,2.0263,402.6963],
    [3918,1532797746,57.0593,-111.3922,752.0,411.0,254.5,5.4,1.8,21.64,51.02,2.0158,398.9558],
    [3919,1532797747,57.0591,-111.3932,750.5,409.5,253.6,6.6,2.2,21.89,52.71,2.0096,397.1281],
    [3920,1532797748,57.059,-111.3941,749.0,408.0,252.5,5.2,2.2,21.86,53.49,2.0022,388.4498],
    [3921,1532797749,57.0588,-111.3951,747.2,406.2,251.7,5.2,2.2,21.84,54.65,2.0013,392.8147],
    [3922,1532797750,57.0586,-111.396,745.5,404.5,250.2,5.8,2.9,21.57,55.07,2.0096,392.7642],
    [3923,1532797751,57.0585,-111.397,743.6,402.6,248.4,3.7,2.6,22.42,55.32,2.0115,395.9918],
    [3924,1532797752,57.0583,-111.3979,741.3,400.3,246.8,1.9,2.1,21.39,56.19,2.0249,397.0611],
    [3925,1532797753,57.0581,-111.3988,738.9,397.9,244.7,1.7,2.5,20.97,56.53,2.0207,394.8137],
    [3926,1532797754,57.0578,-111.3997,736.6,395.6,243.4,1.8,2.3,21.13,56.98,2.0393,392.8462],
    [3927,1532797755,57.0576,-111.4006,734.1,393.1,241.6,2.3,3.1,21.55,57.44,2.0388,394.7723],
    [3928,1532797756,57.0573,-111.4015,731.3,390.3,238.6,1.4,4.5,21.27,56.84,2.0245,394.7723],
    [3929,1532797757,57.0571,-111.4023,729.0,388.0,236.2,1.4,5.3,21.59,56.93,2.0583,404.6109],
    [3930,1532797758,57.0568,-111.4032,727.1,386.1,236.2,1.4,3.5,21.35,57.46,2.0795,404.6109],
    [3931,1532797759,57.0565,-111.404,725.7,384.7,235.2,1.7,4.1,20.76,57.54,2.059,408.919],
    [3932,1532797760,57.0562,-111.4048,724.9,383.9,232.3,0.6,5.0,21.61,56.93,2.048,406.5028],
    [3933,1532797761,57.0559,-111.4056,724.4,383.4,232.0,1.6,4.5,21.27,57.22,2.0294,405.9945],
    [3934,1532797762,57.0556,-111.4064,723.3,382.3,230.3,1.7,5.2,20.54,56.16,1.9759,397.9669],
    [3935,1532797763,57.0553,-111.4072,722.3,381.3,228.8,2.1,5.8,20.68,55.52,1.9333,384.0488],
    [3936,1532797764,57.0549,-111.408,722.4,381.4,228.2,2.3,5.4,21.81,53.79,1.9188,379.0615],
    [3937,1532797765,57.0546,-111.4087,723.2,382.2,227.8,2.3,5.3,21.16,53.07,1.9098,377.0472],
    [3938,1532797766,57.0542,-111.4095,724.4,384.4,229.3,3.2,4.0,21.09,52.35,1.9085,377.7418],
    [3939,1532797767,57.0539,-111.4102,725.5,385.5,229.9,3.2,3.8,21.35,50.16,1.9121,378.8284],
    [3940,1532797768,57.0536,-111.411,726.5,386.5,229.7,2.8,4.0,21.72,49.18,1.9194,378.8284],
    [3941,1532797769,57.0532,-111.4117,727.5,387.5,230.5,3.1,3.6,21.08,48.73,1.9225,378.2533],
    [3942,1532797770,57.0529,-111.4125,728.6,388.9,231.5,3.5,3.1,21.88,48.22,1.9271,378.5179],
    [3943,1532797771,57.0526,-111.4132,729.9,390.9,232.3,3.5,2.5,20.8,49.42,1.926,379.8998],
    [3944,1532797772,57.0523,-111.414,731.6,392.6,233.9,4.8,2.2,21.96,49.68,1.9302,379.0054],
    [3945,1532797773,57.0519,-111.4148,733.9,394.9,235.0,5.8,2.0,21.44,49.79,1.9071,379.1297],
    [3946,1532797774,57.0516,-111.4155,736.5,397.5,235.0,5.9,2.4,21.27,50.08,1.9071,377.9242],
    [3947,1532797775,57.0513,-111.4163,738.7,399.7,234.9,6.0,2.7,21.37,49.39,1.9102,378.6465],
    [3948,1532797776,57.051,-111.4171,740.6,402.6,235.0,6.3,3.2,21.31,48.87,1.9117,377.2919],
    [3949,1532797777,57.0507,-111.4179,741.6,403.6,234.7,6.0,3.8,21.15,47.93,1.9137,377.2308],
    [3950,1532797778,57.0504,-111.4186,741.9,403.9,234.8,6.3,4.0,21.29,47.7,1.9154,377.2308],
    [3951,1532797779,57.0501,-111.4194,741.7,403.7,235.1,6.5,3.9,21.67,47.71,1.9169,377.6205],
    [3952,1532797780,57.0498,-111.4201,741.3,404.3,235.0,6.3,3.9,21.73,47.76,1.9226,378.4328],
    [3953,1532797781,57.0495,-111.4209,741.0,404.0,235.5,6.6,3.3,22.51,47.71,1.9466,388.2053],
    [3954,1532797782,57.0492,-111.4216,740.7,403.7,236.6,6.9,2.4,21.83,48.9,1.9889,395.521],
    [3955,1532797783,57.049,-111.4224,740.4,403.4,236.0,6.6,3.0,21.82,49.87,2.0209,397.8512],
    [3956,1532797784,57.0487,-111.4232,740.3,404.3,235.8,6.2,2.7,21.72,50.78,2.0388,397.5915],
    [3957,1532797785,57.0484,-111.4239,740.0,404.0,236.2,6.5,2.5,21.36,51.7,2.0641,403.9822],
    [3958,1532797786,57.0481,-111.4247,739.4,403.4,235.6,6.6,3.2,22.56,52.25,2.0753,405.6185],
    [3959,1532797787,57.0478,-111.4254,738.5,402.5,235.1,6.3,3.4,21.3,53.71,2.0928,409.5212],
    [3960,1532797788,57.0475,-111.4262,737.2,402.2,234.8,6.6,3.9,21.99,54.42,2.1008,410.2799],
    [3961,1532797789,57.0472,-111.4269,735.6,400.6,234.3,6.4,4.3,21.55,55.49,2.1126,411.0278],
    [3962,1532797790,57.0469,-111.4277,733.8,399.8,234.0,6.1,4.4,21.5,55.31,2.1009,410.9982],
    [3963,1532797791,57.0466,-111.4284,731.8,397.8,233.7,6.0,4.3,22.29,55.14,2.1673,419.5905],
    [3964,1532797792,57.0463,-111.4292,729.8,396.8,233.9,6.2,4.2,21.33,55.76,2.189,425.5591],
    [3965,1532797793,57.046,-111.43,727.5,394.5,233.6,5.6,4.6,21.43,56.15,2.1944,424.2658],
    [3966,1532797794,57.0457,-111.4307,725.0,393.0,232.8,4.8,5.0,21.32,56.31,2.1764,423.1516],
    [3967,1532797795,57.0454,-111.4315,722.1,391.2,233.0,4.1,4.3,21.46,56.91,2.1617,416.8394],
    [3968,1532797796,57.0451,-111.4323,719.8,388.8,232.1,3.3,4.8,21.33,56.59,2.1157,409.6984],
    [3969,1532797797,57.0447,-111.4331,718.2,388.2,232.1,3.6,4.5,21.1,57.06,2.1389,415.8817],
    [3970,1532797798,57.0444,-111.4339,716.3,387.3,233.1,4.2,3.4,21.68,56.65,2.1441,415.8817],
    [3971,1532797799,57.0441,-111.4346,714.1,385.1,232.5,3.7,3.7,21.15,57.21,2.153,417.5797],
    [3972,1532797800,57.0438,-111.4354,711.5,383.5,231.5,3.2,4.2,21.46,57.29,2.1787,419.4983],
    [3973,1532797801,57.0434,-111.4362,709.6,381.6,231.3,2.9,3.9,21.82,56.97,2.1735,421.302],
    [3974,1532797802,57.0431,-111.437,708.3,380.3,230.9,3.6,5.1,21.22,57.41,2.2052,434.4013],
    [3975,1532797803,57.0428,-111.4378,707.1,379.1,231.0,3.4,4.8,21.53,57.42,2.1892,432.0463],
    [3976,1532797804,57.0425,-111.4386,706.0,378.0,230.9,3.6,5.2,21.63,57.57,2.1102,412.5511],
    [3977,1532797805,57.0421,-111.4394,705.0,376.9,230.7,3.6,5.2,21.27,57.99,2.1213,415.7118],
    [3978,1532797806,57.0418,-111.4402,703.8,376.8,231.3,3.4,4.4,21.52,57.92,2.127,422.9387],
    [3979,1532797807,57.0415,-111.441,702.7,375.7,231.1,3.4,4.7,21.27,57.9,2.0081,400.7011],
    [3980,1532797808,57.0411,-111.4418,702.0,375.0,231.5,3.2,4.1,21.15,57.16,1.9859,385.7618],
    [3981,1532797809,57.0408,-111.4426,701.7,374.7,232.0,3.0,3.7,20.63,56.35,2.0314,394.3982],
    [3982,1532797810,57.0405,-111.4434,701.7,374.7,232.3,3.0,3.7,21.49,56.03,2.027,397.0044],
    [3983,1532797811,57.0401,-111.4443,702.0,375.0,233.1,3.6,3.5,21.88,55.16,2.0001,393.8381],
    [3984,1532797812,57.0398,-111.4451,702.5,376.5,233.2,3.3,3.8,20.77,55.41,2.0043,392.9594],
    [3985,1532797813,57.0394,-111.4459,702.8,376.8,233.4,3.2,3.4,21.5,54.49,2.0828,407.695],
    [3986,1532797814,57.0391,-111.4468,702.9,377.9,233.6,3.1,3.3,21.06,54.28,2.138,409.8313],
    [3987,1532797815,57.0388,-111.4476,703.5,378.5,233.4,4.0,4.2,21.17,54.14,2.0292,395.3239],
    [3988,1532797816,57.0385,-111.4484,704.4,380.4,234.3,4.7,3.6,21.4,54.64,1.9772,389.8322],
    [3989,1532797817,57.0382,-111.4492,705.2,382.2,234.5,4.7,3.5,21.13,55.06,1.9772,392.0702],
    [3990,1532797818,57.0379,-111.45,705.7,382.7,234.0,4.6,3.7,20.9,55.13,1.9898,395.4643],
    [3991,1532797819,57.0375,-111.4508,705.8,383.8,234.0,5.0,3.6,20.84,54.57,2.0812,407.2736],
    [3992,1532797820,57.0372,-111.4516,705.6,383.6,233.6,5.3,3.7,21.15,54.23,2.0887,408.6531],
    [3993,1532797821,57.0369,-111.4524,705.0,384.0,232.5,5.3,4.5,21.1,54.56,2.0555,397.5969],
    [3994,1532797822,57.0366,-111.4532,704.1,383.1,231.7,4.6,4.7,20.8,54.96,2.0218,398.1849],
    [3995,1532797823,57.0362,-111.454,702.9,382.9,231.6,4.6,4.4,21.92,54.54,2.0928,407.0621],
    [3996,1532797824,57.0359,-111.4548,701.8,381.8,232.3,5.2,3.5,21.07,55.56,2.2155,426.3203],
    [3997,1532797825,57.0356,-111.4556,700.9,380.9,231.7,5.2,4.3,21.34,56.15,2.2732,433.1033],
    [3998,1532797826,57.0352,-111.4563,699.8,380.8,230.5,4.7,5.3,21.22,55.99,2.3022,433.1033],
    [3999,1532797827,57.0349,-111.4571,697.9,379.9,230.8,5.1,4.9,21.86,55.71,2.3683,436.6622],
    [4000,1532797828,57.0345,-111.4579,695.5,378.5,231.0,4.7,4.2,21.04,56.83,2.3356,440.8535],
    [4001,1532797829,57.0342,-111.4587,692.6,376.6,230.7,5.3,4.9,21.4,57.37,2.2202,433.1779],
    [4002,1532797830,57.0339,-111.4595,689.0,373.0,230.5,5.1,4.8,20.99,57.68,2.1613,426.23],
    [4003,1532797831,57.0335,-111.4603,685.2,369.2,229.8,4.0,4.3,20.91,58.03,2.051,420.0118],
    [4004,1532797832,57.0331,-111.4611,681.7,365.6,229.2,4.0,4.7,21.28,57.61,2.052,428.2856],
    [4005,1532797833,57.0328,-111.4618,678.6,363.6,228.4,3.3,5.0,21.27,57.29,2.0625,430.7515],
    [4006,1532797834,57.0324,-111.4626,675.4,362.1,228.3,3.1,5.0,21.38,56.92,2.1425,420.5572],
    [4007,1532797835,57.0321,-111.4634,672.2,360.1,228.8,2.2,4.0,22.03,56.78,2.4135,431.1962],
    [4008,1532797836,57.0317,-111.4642,669.0,359.9,229.4,2.2,4.1,21.32,57.65,2.2576,431.1962],
    [4009,1532797837,57.0313,-111.4651,666.1,364.1,230.4,1.9,4.0,21.14,58.28,2.1354,424.0428],
    [4010,1532797838,57.031,-111.4659,664.2,369.9,232.0,2.7,3.9,21.04,57.46,2.0596,415.2893],
    [4011,1532797839,57.0307,-111.4667,663.0,378.3,233.5,2.6,3.5,21.64,57.07,2.0455,431.5299],
    [4012,1532797840,57.0303,-111.4676,662.1,388.5,234.2,2.0,3.5,21.42,57.42,2.0415,431.5299],
    [4013,1532797841,57.03,-111.4685,661.4,394.4,235.4,1.9,3.0,21.96,56.64,2.0537,422.8165],
    [4014,1532797842,57.0297,-111.4694,660.6,397.3,236.0,1.7,2.7,21.03,56.88,2.0146,424.6459],
    [4015,1532797843,57.0294,-111.4703,659.9,397.9,235.7,1.1,3.0,21.66,56.18,2.0253,439.4105],
    [4016,1532797844,57.0291,-111.4711,659.4,397.7,234.8,0.8,3.5,20.76,57.0,2.0322,443.878],
    [4017,1532797845,57.0288,-111.472,659.1,398.1,234.3,0.7,3.2,22.08,56.37,2.0355,443.1751],
    [4018,1532797846,57.0284,-111.4729,658.7,397.7,234.2,1.4,3.2,21.48,57.44,2.036,439.9174],
    [4019,1532797847,57.0281,-111.4737,658.2,398.2,234.1,1.3,3.0,22.12,56.81,2.0233,440.3628],
    [4020,1532797848,57.0278,-111.4746,658.3,399.3,233.1,1.4,3.7,21.36,57.76,2.0079,426.9511],
    [4021,1532797849,57.0275,-111.4755,659.0,401.9,232.8,2.2,3.6,20.53,57.72,1.994,417.9991],
    [4022,1532797850,57.0271,-111.4763,658.7,404.7,233.3,2.7,2.9,20.87,57.86,1.983,418.4234],
    [4023,1532797851,57.0268,-111.4771,658.3,407.4,231.6,2.8,4.7,20.92,57.15,1.9714,396.7584],
    [4024,1532797852,57.0265,-111.4779,657.8,409.4,230.6,1.9,4.8,21.47,56.79,1.9659,396.9735],
    [4025,1532797853,57.0261,-111.4787,657.5,412.5,230.8,2.1,4.4,21.21,56.55,1.9629,383.8562],
    [4026,1532797854,57.0258,-111.4796,656.8,416.8,230.4,1.5,4.2,21.65,56.17,1.9661,385.3673],
    [4027,1532797855,57.0254,-111.4804,655.9,416.9,230.7,1.2,3.4,20.69,56.05,1.9781,407.0729],
    [4028,1532797856,57.0251,-111.4812,655.4,417.4,230.3,1.2,3.8,21.07,56.09,1.9968,419.9553],
    [4029,1532797857,57.0247,-111.4821,655.1,417.1,230.4,1.0,3.4,20.85,56.18,1.982,419.811],
    [4030,1532797858,57.0244,-111.4829,655.3,417.3,230.3,0.5,3.2,21.66,56.0,2.0143,439.1542],
    [4031,1532797859,57.024,-111.4837,655.6,417.6,230.9,0.5,2.5,21.22,56.85,2.014,429.7387],
    [4032,1532797860,57.0237,-111.4845,656.2,418.2,231.5,1.0,3.0,21.79,56.84,1.9838,407.5734],
    [4033,1532797861,57.0234,-111.4853,657.6,418.6,231.3,1.2,3.8,21.33,57.43,1.9654,385.1118],
    [4034,1532797862,57.023,-111.4861,659.4,420.4,232.3,1.7,3.2,20.97,57.41,1.9601,385.5542],
    [4035,1532797863,57.0227,-111.487,660.4,422.5,232.4,1.5,3.2,21.67,56.65,1.9594,383.51],
    [4036,1532797864,57.0224,-111.4878,660.8,423.5,231.8,0.6,3.0,21.34,56.81,1.9698,385.3161],
    [4037,1532797865,57.0221,-111.4886,660.7,424.7,231.7,-0.1,2.6,21.35,57.5,1.9758,399.8648],
    [4038,1532797866,57.0218,-111.4894,659.9,424.9,231.5,-0.4,2.6,21.48,56.45,1.962,382.7036],
    [4039,1532797867,57.0214,-111.4902,659.3,424.3,230.9,-1.4,3.1,21.81,56.37,1.9591,382.2035],
    [4040,1532797868,57.0211,-111.491,660.0,425.0,230.8,-1.8,2.8,21.58,56.7,1.958,381.9934],
    [4041,1532797869,57.0208,-111.4918,660.9,425.0,232.7,-1.3,1.0,21.42,57.21,1.9567,381.0472],
    [4042,1532797870,57.0205,-111.4926,662.1,425.2,232.3,-1.6,1.3,21.45,57.23,1.9581,381.0472],
    [4043,1532797871,57.0202,-111.4934,664.5,424.4,231.8,-1.5,1.4,20.88,56.62,1.9582,381.9609],
    [4044,1532797872,57.0198,-111.4942,668.4,423.6,231.7,-0.6,1.5,21.12,56.74,1.9559,381.1076],
    [4045,1532797873,57.0195,-111.4949,673.2,423.0,230.7,-0.3,2.6,20.77,56.69,1.9548,381.7842],
    [4046,1532797874,57.0192,-111.4957,677.8,419.7,229.9,0.1,3.2,21.29,56.83,1.9549,381.9666],
    [4047,1532797875,57.0189,-111.4964,681.6,417.4,230.7,1.3,2.8,21.37,56.93,1.956,380.9663],
    [4048,1532797876,57.0186,-111.4971,685.9,414.7,230.3,1.7,3.6,22.04,56.34,1.9541,381.1054],
    [4049,1532797877,57.0183,-111.4979,690.5,418.0,230.3,2.3,4.2,21.4,57.29,1.9504,380.6201],
    [4050,1532797878,57.018,-111.4986,694.8,421.5,230.5,2.8,4.5,21.36,56.49,1.9496,380.6201],
    [4051,1532797879,57.0177,-111.4993,698.3,423.6,231.1,3.3,4.7,21.15,56.23,1.9506,380.4569],
    [4052,1532797880,57.0174,-111.5,700.8,422.8,231.4,3.5,5.0,21.35,56.01,1.9526,380.8472],
    [4053,1532797881,57.0171,-111.5008,702.7,421.1,231.9,3.4,4.7,21.37,56.71,1.9499,381.5701],
    [4054,1532797882,57.0168,-111.5014,703.9,414.7,232.3,3.4,4.6,21.19,56.27,1.9493,381.5701],
    [4055,1532797883,57.0165,-111.5022,704.5,410.1,232.5,3.4,4.7,20.9,55.7,1.9494,380.7016],
    [4056,1532797884,57.0163,-111.5029,704.7,407.8,232.8,3.4,4.4,21.65,55.53,1.953,382.1018],
    [4057,1532797885,57.016,-111.5036,704.9,407.8,232.8,3.6,4.4,21.37,56.27,1.9525,380.2359],
    [4058,1532797886,57.0157,-111.5043,705.2,408.2,232.7,4.0,4.4,21.35,55.75,1.9516,380.2359],
    [4059,1532797887,57.0154,-111.505,705.9,408.9,232.4,3.7,4.2,21.43,56.21,1.9486,381.4298],
    [4060,1532797888,57.0151,-111.5057,707.0,410.0,231.9,4.0,4.6,21.22,55.88,1.9438,381.0111],
    [4061,1532797889,57.0148,-111.5064,708.3,411.3,231.4,4.0,4.9,21.05,55.45,1.9404,379.5281],
    [4062,1532797890,57.0146,-111.5071,709.9,412.9,231.1,3.9,4.8,21.33,54.89,1.9425,379.8586],
    [4063,1532797891,57.0143,-111.5078,711.2,414.2,231.2,4.2,4.7,22.12,54.22,1.944,380.4952],
    [4064,1532797892,57.014,-111.5085,711.6,414.6,231.2,4.2,4.8,21.88,54.12,1.941,379.6239],
    [4065,1532797893,57.0137,-111.5092,711.6,414.6,231.2,3.8,4.7,20.8,54.41,1.9382,379.7576],
    [4066,1532797894,57.0134,-111.5099,711.9,414.9,231.4,3.9,4.6,21.21,54.39,1.9399,379.6245],
    [4067,1532797895,57.0131,-111.5105,712.6,415.6,231.8,4.1,4.6,20.79,54.1,1.937,378.9032],
    [4068,1532797896,57.0128,-111.5112,713.4,416.4,232.3,4.0,4.3,21.06,53.97,1.9372,378.3886],
    [4069,1532797897,57.0126,-111.5119,713.8,416.8,232.8,4.0,3.9,21.83,53.19,1.9385,379.7576],
    [4070,1532797898,57.0123,-111.5126,713.9,416.9,233.0,3.6,3.5,22.07,53.07,1.9383,379.7576],
    [4071,1532797899,57.012,-111.5133,714.5,417.5,232.5,3.2,3.7,20.87,53.54,1.9396,380.6845],
    [4072,1532797900,57.0117,-111.514,715.2,407.8,232.1,2.8,3.7,21.42,53.89,1.937,380.8526],
    [4073,1532797901,57.0114,-111.5147,715.8,402.4,232.4,3.1,3.3,21.58,53.92,1.9385,380.2491],
    [4074,1532797902,57.0112,-111.5154,716.3,399.3,232.3,2.6,3.3,21.13,53.72,1.9439,380.5104],
    [4075,1532797903,57.0109,-111.5161,717.0,399.0,232.3,2.4,3.2,21.57,53.5,1.9494,380.495],
    [4076,1532797904,57.0106,-111.5168,718.1,399.1,232.9,2.8,3.0,21.49,54.15,1.9497,380.3438],
    [4077,1532797905,57.0103,-111.5175,720.4,401.4,232.7,2.9,3.5,21.5,55.09,1.9509,381.2504],
    [4078,1532797906,57.0101,-111.5181,724.0,405.0,232.2,3.2,4.3,21.65,54.85,1.9587,381.5216],
    [4079,1532797907,57.0098,-111.5188,728.4,409.4,232.2,3.7,4.5,21.12,55.21,1.9609,381.1233],
    [4080,1532797908,57.0095,-111.5195,731.9,412.9,232.1,4.0,4.5,21.72,55.48,1.9625,382.8441],
    [4081,1532797909,57.0092,-111.5201,733.4,414.4,232.0,4.1,4.6,21.3,56.96,1.9629,381.8347],
    [4082,1532797910,57.009,-111.5208,734.1,415.2,231.5,3.9,4.8,21.44,57.23,1.9629,382.4979],
    [4083,1532797911,57.0087,-111.5215,735.0,414.9,231.2,3.7,5.1,21.41,57.26,1.9634,381.8447],
    [4084,1532797912,57.0084,-111.5222,736.0,416.0,231.0,4.2,5.6,21.53,57.33,1.9599,383.0384],
    [4085,1532797913,57.0081,-111.5228,736.5,417.5,231.5,4.2,5.2,21.54,57.62,1.959,381.8572],
    [4086,1532797914,57.0079,-111.5235,736.5,417.5,231.6,4.2,5.3,21.18,57.63,1.9557,381.129],
    [4087,1532797915,57.0076,-111.5242,736.3,417.3,231.6,4.1,5.5,21.25,57.52,1.9565,381.2021],
    [4088,1532797916,57.0073,-111.5248,736.3,418.0,231.6,4.1,5.8,21.49,57.79,1.9566,381.1728],
    [4089,1532797917,57.007,-111.5256,736.5,418.5,232.3,4.2,5.6,21.77,56.65,1.9568,382.2794],
    [4090,1532797918,57.0068,-111.5263,736.8,418.8,232.2,4.3,6.2,21.3,57.29,1.9559,381.2113],
    [4091,1532797919,57.0065,-111.527,737.5,419.5,232.3,4.7,6.4,21.04,57.28,1.9564,380.6851],
    [4092,1532797920,57.0062,-111.5277,737.9,419.5,232.5,5.2,6.4,21.1,57.22,1.9561,380.6851],
    [4093,1532797921,57.006,-111.5284,738.2,419.1,232.1,5.4,6.9,21.46,56.81,1.9539,380.7873],
    [4094,1532797922,57.0057,-111.529,738.3,419.2,231.3,4.9,7.0,20.97,57.33,1.9437,378.996],
    [4095,1532797923,57.0054,-111.5297,737.9,418.7,231.9,6.0,6.9,21.35,56.69,1.9396,380.8405],
    [4096,1532797924,57.0051,-111.5304,737.1,417.0,231.8,5.9,6.8,20.88,56.1,1.9384,380.8405],
    [4097,1532797925,57.0049,-111.5311,737.0,417.0,231.3,5.9,7.2,21.25,55.34,1.938,378.4189],
    [4098,1532797926,57.0046,-111.5318,736.5,416.5,231.8,6.3,6.8,21.48,55.29,1.9358,378.1625],
    [4099,1532797927,57.0043,-111.5325,735.1,415.2,231.8,6.1,6.9,21.95,54.36,1.9296,377.9807],
    [4100,1532797928,57.004,-111.5332,733.4,413.5,231.4,5.2,7.1,21.45,53.75,1.9259,378.4341],
    [4101,1532797929,57.0037,-111.534,731.6,412.8,232.3,5.7,6.6,21.06,53.58,1.9246,377.5601],
    [4102,1532797930,57.0034,-111.5347,730.4,411.2,233.5,5.5,5.8,21.57,52.07,1.922,377.1898],
    [4103,1532797931,57.0032,-111.5354,730.5,412.2,233.4,4.4,5.4,21.76,50.88,1.9164,376.4961],
    [4104,1532797932,57.0029,-111.5362,731.3,413.9,234.1,4.5,4.9,21.34,51.71,1.9194,377.9661],
    [4105,1532797933,57.0026,-111.5369,731.9,413.6,234.5,5.1,5.3,22.4,49.99,1.9191,377.2587],
    [4106,1532797934,57.0023,-111.5377,732.0,413.1,234.9,5.3,5.3,21.6,49.36,1.9185,377.6003],
    [4107,1532797935,57.002,-111.5385,731.8,411.4,236.1,4.9,4.2,21.09,49.3,1.9311,379.6603],
    [4108,1532797936,57.0018,-111.5392,731.7,410.6,236.9,5.0,3.9,21.89,49.19,1.936,379.6603],
    [4109,1532797937,57.0015,-111.54,732.4,410.7,237.5,4.3,2.8,22.47,49.04,1.9455,380.8929],
    [4110,1532797938,57.0012,-111.5407,734.1,412.2,237.4,4.0,2.6,21.68,50.53,1.9443,380.9064],
    [4111,1532797939,57.001,-111.5415,736.1,413.8,237.8,3.8,1.8,21.84,52.54,1.9511,379.798],
    [4112,1532797940,57.0007,-111.5423,737.6,414.4,237.0,3.5,2.6,21.53,52.7,1.9526,380.88],
    [4113,1532797941,57.0004,-111.543,738.6,415.1,236.4,2.6,2.5,22.1,53.03,1.9534,380.9004],
    [4114,1532797942,57.0002,-111.5438,739.0,414.9,237.3,3.3,1.9,21.83,54.4,1.9534,380.2891],
    [4115,1532797943,56.9999,-111.5446,739.3,415.0,237.3,2.8,2.0,22.61,54.01,1.9541,381.131],
    [4116,1532797944,56.9996,-111.5453,740.4,416.4,236.5,2.3,2.5,21.22,55.08,1.9581,381.6288],
    [4117,1532797945,56.9994,-111.5461,742.2,417.4,236.3,2.7,2.9,21.97,55.43,1.9578,381.6566],
    [4118,1532797946,56.9991,-111.5469,744.6,419.2,235.4,2.2,3.6,22.1,55.94,1.9598,381.4664],
    [4119,1532797947,56.9988,-111.5476,747.0,421.5,235.0,2.4,3.8,21.62,56.12,1.9579,382.2965],
    [4120,1532797948,56.9986,-111.5484,748.6,423.2,234.8,2.6,4.0,21.49,56.56,1.9579,382.2965],
    [4121,1532797949,56.9983,-111.5491,748.9,423.3,234.3,2.7,4.5,21.4,56.86,1.9549,380.5054],
    [4122,1532797950,56.998,-111.5498,749.0,424.0,233.9,2.1,4.2,21.62,56.87,1.95,381.1921],
    [4123,1532797951,56.9978,-111.5505,749.2,424.1,234.4,2.6,3.2,21.77,56.94,1.9457,379.0735],
    [4124,1532797952,56.9975,-111.5513,749.4,424.3,233.1,3.3,3.4,21.98,56.04,1.9564,379.7967],
    [4125,1532797953,56.9972,-111.552,749.8,424.7,229.3,2.6,3.8,21.78,56.0,1.9586,381.6],
    [4126,1532797954,56.9969,-111.5526,750.4,425.4,224.9,2.2,4.1,21.32,56.41,1.9605,381.6],
    [4127,1532797955,56.9965,-111.5532,751.3,426.3,220.3,1.9,4.5,22.01,55.99,1.9573,382.499],
    [4128,1532797956,56.9962,-111.5538,752.4,427.4,215.5,1.0,4.8,21.68,57.04,1.9559,380.5147],
    [4129,1532797957,56.9958,-111.5543,753.9,428.7,212.3,1.2,4.8,22.25,56.74,1.9567,380.9257],
    [4130,1532797958,56.9954,-111.5548,755.6,429.6,210.8,2.9,5.5,21.71,57.33,1.9541,380.9257],
    [4131,1532797959,56.995,-111.5552,757.2,432.1,209.0,3.1,5.2,21.54,58.01,1.9538,379.4912],
    [4132,1532797960,56.9946,-111.5556,758.1,433.4,207.8,3.7,4.9,21.19,57.4,1.9538,380.9529],
    [4133,1532797961,56.9941,-111.556,758.4,434.8,205.9,3.5,5.1,21.33,57.25,1.9517,381.2313],
    [4134,1532797962,56.9937,-111.5563,758.7,435.7,202.7,2.2,5.2,21.51,57.57,1.9546,380.6963],
    [4135,1532797963,56.9932,-111.5566,759.1,437.0,201.2,1.9,4.3,21.52,57.93,1.964,380.5201],
    [4136,1532797964,56.9928,-111.5569,759.2,438.2,200.8,2.4,3.3,21.48,57.83,1.9614,380.7068],
    [4137,1532797965,56.9924,-111.5572,759.2,438.9,200.0,3.0,4.4,21.62,57.49,1.9566,381.5425],
    [4138,1532797966,56.9919,-111.5575,759.5,439.5,198.4,2.8,4.7,21.95,57.38,1.9502,380.1856],
    [4139,1532797967,56.9914,-111.5577,759.8,439.8,197.7,3.6,5.2,21.24,57.8,1.949,380.1856],
    [4140,1532797968,56.991,-111.558,759.7,439.7,196.1,3.3,5.2,21.45,58.11,1.9492,380.3942],
    [4141,1532797969,56.9905,-111.5582,759.7,439.7,193.5,2.8,5.5,22.28,56.61,1.9481,380.3397],
    [4142,1532797970,56.9901,-111.5583,760.0,440.0,191.2,2.9,5.3,21.5,56.92,1.9488,379.9469],
    [4143,1532797971,56.9896,-111.5584,760.6,440.6,188.3,2.1,6.5,22.09,56.35,1.9536,381.6322],
    [4144,1532797972,56.9891,-111.5585,761.7,442.3,184.2,0.0,6.9,21.4,56.74,1.9559,381.289],
    [4145,1532797973,56.9886,-111.5586,762.3,443.3,184.1,1.0,7.2,20.69,56.61,1.9568,381.289],
    [4146,1532797974,56.9881,-111.5587,762.2,444.1,186.0,3.1,8.3,20.9,57.12,1.9565,380.7797],
    [4147,1532797975,56.9877,-111.5587,761.1,444.4,186.7,4.0,7.6,20.83,57.5,1.9581,382.5017],
    [4148,1532797976,56.9872,-111.5588,759.2,444.2,186.6,4.1,7.3,20.91,57.34,1.958,381.1472],
    [4149,1532797977,56.9867,-111.5588,757.9,444.3,185.5,3.6,7.1,21.6,57.0,1.9577,381.2993],
    [4150,1532797978,56.9862,-111.5588,756.5,444.5,185.4,4.0,8.1,21.25,57.5,1.9573,381.6458],
    [4151,1532797979,56.9857,-111.5589,754.4,445.1,184.7,3.3,6.8,21.35,58.24,1.9557,381.3483],
    [4152,1532797980,56.9852,-111.5589,750.9,441.9,183.4,2.3,6.5,21.27,57.52,1.9539,380.6333],
    [4153,1532797981,56.9847,-111.5589,747.6,438.6,183.1,2.3,6.3,21.13,57.45,1.9545,381.0581],
    [4154,1532797982,56.9842,-111.5589,744.8,435.8,182.7,2.1,5.2,21.16,57.49,1.9548,381.4299],
    [4155,1532797983,56.9836,-111.5589,742.4,433.4,183.0,2.8,5.9,20.74,57.24,1.9565,381.0515],
    [4156,1532797984,56.9831,-111.559,740.2,431.2,183.2,3.2,5.7,21.42,57.58,1.9576,380.1002],
    [4157,1532797985,56.9826,-111.559,738.5,429.5,183.1,2.8,5.0,21.47,56.88,1.9559,381.0152],
    [4158,1532797986,56.9821,-111.559,736.6,427.6,182.7,2.1,4.8,21.38,56.9,1.956,380.952],
    [4159,1532797987,56.9815,-111.559,734.1,425.1,184.2,3.1,4.5,21.28,57.08,1.9565,380.3201],
    [4160,1532797988,56.981,-111.559,731.6,420.0,184.7,3.2,5.1,21.22,57.08,1.9548,379.9225],
    [4161,1532797989,56.9805,-111.5591,729.9,415.8,184.8,3.2,3.9,21.07,56.99,1.9544,380.3909],
    [4162,1532797990,56.9799,-111.5591,728.4,411.8,184.3,2.8,4.3,21.8,56.3,1.953,381.0364],
    [4163,1532797991,56.9794,-111.5591,727.1,407.8,183.7,2.3,4.3,21.09,56.71,1.9547,380.7276],
    [4164,1532797992,56.9789,-111.5592,725.8,403.8,183.4,2.0,3.9,21.36,56.98,1.9546,381.3663],
    [4165,1532797993,56.9783,-111.5592,724.9,401.8,183.4,2.3,3.8,21.03,56.64,1.953,381.2118],
    [4166,1532797994,56.9778,-111.5592,723.9,399.9,183.2,2.3,3.3,21.65,56.3,1.9521,379.9929],
    [4167,1532797995,56.9772,-111.5592,722.8,398.8,183.2,2.3,3.5,21.63,56.26,1.9527,382.1571],
    [4168,1532797996,56.9767,-111.5592,722.1,398.1,183.0,2.2,3.2,21.83,55.78,1.9518,381.1068],
    [4169,1532797997,56.9762,-111.5593,721.4,397.4,183.7,2.8,3.6,21.7,56.24,1.9511,379.6873],
    [4170,1532797998,56.9756,-111.5593,720.8,396.4,183.0,2.2,4.0,21.59,56.73,1.9467,380.3315],
    [4171,1532797999,56.9751,-111.5593,720.4,396.4,182.8,2.1,3.7,21.07,56.24,1.9435,379.4375],
    [4172,1532798000,56.9745,-111.5593,719.7,395.7,183.5,3.2,3.6,20.94,55.39,1.9411,379.2569],
    [4173,1532798001,56.974,-111.5593,719.2,395.2,183.5,3.5,3.5,21.3,55.1,1.9453,379.9018],
    [4174,1532798002,56.9735,-111.5593,718.7,394.7,182.6,2.9,3.7,21.98,54.55,1.9491,380.8977],
    [4175,1532798003,56.9729,-111.5593,718.1,394.1,182.1,2.6,3.5,21.31,55.0,1.9526,380.8977],
    [4176,1532798004,56.9724,-111.5593,717.5,393.5,182.1,2.9,2.9,21.54,54.92,1.9534,380.0413],
    [4177,1532798005,56.9718,-111.5593,716.9,394.0,182.0,3.0,2.9,21.45,54.76,1.9531,380.5991],
    [4178,1532798006,56.9713,-111.5593,716.4,394.5,182.1,3.2,2.6,21.61,55.88,1.9525,380.4243],
    [4179,1532798007,56.9707,-111.5593,716.0,395.5,182.5,3.6,2.4,21.46,55.43,1.9521,380.7018],
    [4180,1532798008,56.9702,-111.5593,715.3,396.6,182.7,3.5,1.6,21.35,55.61,1.9533,380.6684],
    [4181,1532798009,56.9697,-111.5593,714.4,398.1,183.4,3.8,2.2,21.64,55.97,1.9552,380.9563],
    [4182,1532798010,56.9691,-111.5593,713.7,398.6,183.1,3.0,2.5,21.24,55.62,1.9545,381.1462],
    [4183,1532798011,56.9686,-111.5593,713.3,399.2,182.6,2.2,2.4,21.7,55.82,1.9572,380.7104],
    [4184,1532798012,56.968,-111.5593,712.8,399.8,183.4,2.8,2.1,21.43,56.15,1.9552,379.8582],
    [4185,1532798013,56.9675,-111.5593,712.3,399.3,183.8,2.9,2.0,20.97,56.37,1.9561,379.1606],
    [4186,1532798014,56.9669,-111.5593,712.3,398.2,182.9,1.7,2.3,21.61,56.15,1.9534,379.8155],
    [4187,1532798015,56.9664,-111.5594,712.5,398.5,182.3,1.3,2.0,21.64,56.1,1.9537,379.0989],
    [4188,1532798016,56.9659,-111.5594,712.8,397.7,183.1,2.1,2.4,21.71,56.91,1.9518,379.866],
    [4189,1532798017,56.9653,-111.5594,713.6,398.6,182.2,1.0,2.7,21.66,56.98,1.9533,378.9452],
    [4190,1532798018,56.9648,-111.5594,714.3,398.3,181.7,0.6,3.1,21.39,56.34,1.9502,379.699],
    [4191,1532798019,56.9643,-111.5594,714.6,397.5,182.0,0.8,3.3,21.31,56.12,1.9485,379.6951],
    [4192,1532798020,56.9637,-111.5595,714.9,397.9,181.6,0.3,3.0,22.09,55.31,1.9485,379.838],
    [4193,1532798021,56.9632,-111.5595,715.2,397.2,182.3,1.1,2.4,21.85,55.71,1.9483,379.5594],
    [4194,1532798022,56.9627,-111.5595,715.1,397.1,182.9,1.6,2.7,21.08,55.74,1.948,379.1441],
    [4195,1532798023,56.9621,-111.5595,714.8,396.8,182.5,1.6,2.3,21.26,55.39,1.9476,379.9376],
    [4196,1532798024,56.9616,-111.5595,714.6,396.6,182.2,1.9,3.3,21.69,55.34,1.9468,379.5043],
    [4197,1532798025,56.9611,-111.5596,714.9,396.9,182.1,2.4,2.9,21.54,55.23,1.9482,378.2573],
    [4198,1532798026,56.9605,-111.5595,715.3,396.3,182.5,2.9,2.3,21.18,55.5,1.9516,379.8444],
    [4199,1532798027,56.96,-111.5595,715.6,396.6,182.0,2.2,2.9,21.41,55.14,1.9551,378.9762],
    [4200,1532798028,56.9595,-111.5595,716.0,398.0,181.4,1.7,3.0,21.71,55.2,1.9531,378.1406],
    [4201,1532798029,56.959,-111.5595,716.6,399.6,181.1,1.4,3.2,21.68,55.55,1.9469,378.1322],
    [4202,1532798030,56.9584,-111.5595,716.5,400.5,180.4,1.0,3.4,21.73,55.57,1.9457,378.4993],
    [4203,1532798031,56.9579,-111.5595,716.0,399.0,180.7,1.5,2.8,21.52,55.69,1.9492,379.0425],
    [4204,1532798032,56.9574,-111.5595,715.8,398.1,181.0,1.9,4.5,21.51,55.1,1.9545,378.9189],
    [4205,1532798033,56.9569,-111.5595,717.4,398.3,181.2,2.1,4.3,21.66,55.21,1.9481,380.3121],
    [4206,1532798034,56.9563,-111.5595,721.1,401.1,180.9,1.5,4.1,21.82,55.06,1.944,379.0024],
    [4207,1532798035,56.9558,-111.5595,725.3,405.3,178.6,-0.6,3.8,21.7,55.42,1.9466,378.4907],
    [4208,1532798036,56.9553,-111.5595,729.2,409.2,177.8,-1.0,3.7,21.31,55.01,1.9484,378.9186],
    [4209,1532798037,56.9548,-111.5594,732.8,411.8,178.4,-0.2,3.6,21.53,55.15,1.9509,378.9921],
    [4210,1532798038,56.9543,-111.5594,736.4,415.4,179.1,0.8,2.9,21.71,55.11,1.9493,378.9946],
    [4211,1532798039,56.9537,-111.5594,740.3,419.3,178.7,0.6,3.5,21.55,55.57,1.9489,379.3931],
    [4212,1532798040,56.9532,-111.5593,744.6,423.6,178.2,0.5,4.0,21.52,55.56,1.9469,378.4971],
    [4213,1532798041,56.9527,-111.5593,749.5,428.5,178.2,0.8,4.1,22.04,55.23,1.9466,378.7547],
    [4214,1532798042,56.9522,-111.5592,754.8,433.8,177.9,0.7,4.9,21.26,55.75,1.949,378.5628],
    [4215,1532798043,56.9516,-111.5592,759.7,439.7,178.4,1.4,4.8,21.2,55.43,1.9474,379.2321],
    [4216,1532798044,56.9511,-111.5591,764.0,444.1,177.9,0.8,4.6,21.68,55.74,1.9512,379.4249],
    [4217,1532798045,56.9506,-111.5591,768.2,448.2,176.6,-0.8,2.7,22.18,55.24,1.9512,377.2103],
    [4218,1532798046,56.9501,-111.5591,771.5,451.5,177.6,-0.5,3.3,21.43,55.7,1.9493,379.6409],
    [4219,1532798047,56.9496,-111.559,773.7,454.7,180.0,1.2,3.5,21.25,55.96,1.9478,378.789],
    [4220,1532798048,56.949,-111.559,775.6,457.5,181.5,1.9,3.5,21.92,55.58,1.9494,378.6064],
    [4221,1532798049,56.9485,-111.559,778.8,460.7,181.5,1.5,3.3,21.53,56.81,1.9515,378.2127],
    [4222,1532798050,56.948,-111.559,783.1,466.1,181.5,1.4,3.6,21.4,56.69,1.9514,378.7085],
    [4223,1532798051,56.9474,-111.559,788.4,471.4,181.2,1.3,3.6,21.45,56.66,1.9502,378.5612],
    [4224,1532798052,56.9469,-111.559,793.9,476.9,181.4,1.7,3.8,21.4,56.92,1.9484,378.5459],
    [4225,1532798053,56.9464,-111.559,799.0,482.2,180.4,0.6,5.0,21.36,57.02,1.9486,379.0581],
    [4226,1532798054,56.9459,-111.559,804.6,488.6,178.4,-1.2,5.9,21.49,57.2,1.9462,379.1736],
    [4227,1532798055,56.9454,-111.559,808.7,492.7,180.0,1.0,5.6,20.92,56.76,1.9439,379.2594],
    [4228,1532798056,56.9448,-111.559,810.9,495.1,181.7,2.5,6.2,21.29,56.97,1.9489,378.4705],
    [4229,1532798057,56.9443,-111.559,813.2,498.2,179.3,0.1,4.6,21.48,56.48,1.9498,378.2222],
    [4230,1532798058,56.9438,-111.5589,816.2,501.2,178.3,-0.2,3.6,21.67,56.3,1.9505,377.9294],
    [4231,1532798059,56.9432,-111.5589,818.0,503.0,179.3,1.1,3.0,21.1,56.95,1.9543,378.9379],
    [4232,1532798060,56.9427,-111.5589,820.0,505.0,178.4,0.5,3.0,21.4,57.01,1.9534,378.8043],
    [4233,1532798061,56.9422,-111.5588,822.1,507.1,178.3,0.7,2.0,21.42,57.37,1.955,378.5165],
    [4234,1532798062,56.9416,-111.5588,824.5,509.5,178.8,1.2,1.5,21.16,57.92,1.953,378.9324],
    [4235,1532798063,56.9411,-111.5588,828.5,513.5,180.0,2.1,2.7,21.93,57.3,1.9527,378.9324],
    [4236,1532798064,56.9406,-111.5587,833.6,518.6,180.5,2.1,2.7,21.63,58.2,1.9509,377.4924],
    [4237,1532798065,56.94,-111.5587,839.0,524.0,179.9,1.2,2.8,22.03,57.83,1.9457,377.4985],
    [4238,1532798066,56.9395,-111.5587,844.8,529.8,180.4,1.0,2.5,21.52,58.26,1.9408,378.3418],
    [4239,1532798067,56.939,-111.5587,850.0,535.0,180.8,0.7,3.9,20.91,57.8,1.9327,378.0526],
    [4240,1532798068,56.9384,-111.5587,855.2,540.2,180.9,-0.2,3.7,21.37,57.34,1.932,377.0646],
    [4241,1532798069,56.9379,-111.5587,860.0,544.0,181.8,0.0,3.8,21.42,55.89,1.9298,377.2464],
    [4242,1532798070,56.9374,-111.5588,864.3,548.3,183.6,1.2,3.5,20.68,55.08,1.9272,376.0126],
    [4243,1532798071,56.9368,-111.5588,868.6,552.6,184.7,1.5,3.0,21.87,53.93,1.927,377.701],
    [4244,1532798072,56.9363,-111.5589,873.8,557.8,183.8,0.3,3.4,21.13,53.96,1.9265,377.4103],
    [4245,1532798073,56.9358,-111.5589,879.1,563.1,185.1,1.5,3.0,21.56,53.24,1.9252,377.1445],
    [4246,1532798074,56.9353,-111.559,884.3,568.3,185.9,2.3,2.8,21.32,53.19,1.9213,376.5688],
    [4247,1532798075,56.9347,-111.5591,889.4,573.4,185.1,2.0,2.6,21.04,53.02,1.9149,376.787],
    [4248,1532798076,56.9342,-111.5591,894.3,578.3,186.2,3.4,2.1,21.1,52.43,1.9108,376.787],
    [4249,1532798077,56.9337,-111.5592,899.2,582.2,185.8,3.3,1.4,21.0,52.5,1.9104,376.077],
    [4250,1532798078,56.9331,-111.5592,904.4,586.9,184.6,3.1,1.7,21.89,50.69,1.9134,376.3356],
    [4251,1532798079,56.9326,-111.5592,909.5,591.5,184.4,3.8,1.4,21.58,49.78,1.9114,376.2063],
    [4252,1532798080,56.9321,-111.5592,914.9,596.2,183.0,3.3,1.6,21.58,49.13,1.9109,375.2346],
    [4253,1532798081,56.9315,-111.5592,920.4,601.4,182.0,3.2,2.1,20.85,49.44,1.9115,375.2346],
    [4254,1532798082,56.931,-111.5592,926.2,607.0,182.2,4.0,2.7,21.04,49.4,1.9099,375.9191],
    [4255,1532798083,56.9305,-111.5592,932.0,611.9,181.9,4.0,3.2,21.0,49.11,1.9096,375.6706],
    [4256,1532798084,56.93,-111.5592,937.7,617.7,182.2,4.6,3.8,20.5,48.07,1.9107,375.1656],
    [4257,1532798085,56.9294,-111.5591,943.0,623.0,182.8,4.8,4.1,20.67,47.25,1.9119,375.6424],
    [4258,1532798086,56.9289,-111.5591,948.1,628.1,182.8,4.7,5.0,21.24,47.51,1.9123,374.5289],
    [4259,1532798087,56.9284,-111.5591,952.5,631.9,183.4,5.0,5.1,20.76,46.55,1.9115,375.2313],
    [4260,1532798088,56.9279,-111.5591,956.4,635.4,183.4,4.5,6.2,21.69,45.63,1.9123,375.8997],
    [4261,1532798089,56.9274,-111.559,959.5,638.5,184.1,4.6,6.6,20.99,46.22,1.9112,375.8711],
    [4262,1532798090,56.9269,-111.5591,962.3,641.3,184.6,4.4,7.0,21.75,45.55,1.9124,376.3184],
    [4263,1532798091,56.9263,-111.5591,964.9,643.8,185.4,4.8,7.3,21.05,46.36,1.9114,376.3933],
    [4264,1532798092,56.9258,-111.5591,966.9,646.9,185.9,5.1,7.2,21.37,46.75,1.913,375.6313],
    [4265,1532798093,56.9253,-111.5591,968.5,648.5,185.1,4.4,7.3,20.98,45.97,1.9123,375.4789],
    [4266,1532798094,56.9248,-111.5591,969.3,649.2,184.4,4.0,7.3,21.3,45.78,1.9114,375.0671],
    [4267,1532798095,56.9242,-111.5592,968.8,648.8,185.0,4.8,6.3,21.32,45.47,1.9118,377.2011],
    [4268,1532798096,56.9237,-111.5592,967.8,646.8,184.8,4.6,6.1,21.89,44.46,1.9134,376.0986],
    [4269,1532798097,56.9231,-111.5592,966.3,643.6,184.7,4.8,5.9,21.29,45.39,1.9145,376.87],
    [4270,1532798098,56.9226,-111.5592,964.0,640.2,185.0,5.0,4.8,20.99,45.16,1.9134,375.4628],
    [4271,1532798099,56.922,-111.5592,961.7,636.7,184.8,4.6,3.9,21.45,45.32,1.9132,375.4224],
    [4272,1532798100,56.9214,-111.5592,959.6,634.1,185.1,4.9,3.5,21.48,45.26,1.9141,376.0441],
    [4273,1532798101,56.9209,-111.5593,957.8,631.8,185.0,5.0,3.1,21.93,44.72,1.914,375.6369],
    [4274,1532798102,56.9203,-111.5593,956.6,630.6,184.8,4.8,3.0,21.56,45.51,1.9148,375.6576],
    [4275,1532798103,56.9197,-111.5593,956.1,629.1,184.8,4.6,3.0,21.29,45.12,1.9161,377.2496],
    [4276,1532798104,56.9191,-111.5593,956.3,628.5,184.6,4.2,3.0,21.93,44.65,1.9167,376.7214],
    [4277,1532798105,56.9186,-111.5593,956.3,628.3,185.5,5.3,2.7,21.81,45.66,1.9189,377.7722],
    [4278,1532798106,56.918,-111.5594,956.2,628.2,185.8,5.3,2.1,21.81,46.06,1.9221,379.1062],
    [4279,1532798107,56.9174,-111.5594,956.9,628.1,184.9,4.4,2.1,22.19,47.03,1.9162,378.9497],
    [4280,1532798108,56.9168,-111.5594,957.4,628.4,185.3,4.7,1.9,21.62,47.95,1.9135,376.8363],
    [4281,1532798109,56.9162,-111.5594,958.0,629.0,185.6,5.0,2.2,22.21,47.54,1.915,376.4795],
    [4282,1532798110,56.9156,-111.5595,959.1,630.1,185.4,4.9,3.0,22.27,47.34,1.9188,377.9603],
    [4283,1532798111,56.9151,-111.5595,960.6,631.6,185.5,5.3,2.9,21.45,47.92,1.922,378.0333],
    [4284,1532798112,56.9145,-111.5595,961.9,631.9,185.7,5.7,3.4,21.57,48.07,1.9151,376.0706],
    [4285,1532798113,56.9139,-111.5595,963.3,633.3,185.4,5.5,4.2,21.4,48.01,1.9131,376.8273],
    [4286,1532798114,56.9133,-111.5595,964.7,634.7,185.0,5.4,4.7,21.74,47.72,1.9156,376.0261],
    [4287,1532798115,56.9128,-111.5595,965.3,635.3,185.3,6.0,5.0,21.73,47.62,1.9156,377.2705],
    [4288,1532798116,56.9122,-111.5595,965.2,635.2,185.3,5.7,4.2,21.34,47.68,1.9156,377.4143],
    [4289,1532798117,56.9116,-111.5596,964.5,634.5,184.7,5.2,3.8,21.76,47.32,1.9182,377.9543],
    [4290,1532798118,56.911,-111.5596,963.5,633.5,185.4,5.9,4.0,21.14,47.48,1.9179,376.8572],
    [4291,1532798119,56.9104,-111.5596,962.8,632.8,185.4,5.7,3.8,21.56,48.02,1.9139,375.3108],
    [4292,1532798120,56.9099,-111.5596,962.7,632.7,184.8,5.2,3.9,22.22,47.19,1.9127,375.1965],
    [4293,1532798121,56.9093,-111.5596,962.5,632.5,185.3,5.7,4.4,21.54,47.51,1.9153,375.1965],
    [4294,1532798122,56.9087,-111.5596,962.6,632.6,185.3,5.3,4.1,21.02,47.24,1.919,377.9652],
    [4295,1532798123,56.9081,-111.5596,963.3,633.3,185.4,5.1,3.7,21.15,47.32,1.9327,378.6634],
    [4296,1532798124,56.9075,-111.5597,964.3,633.6,186.3,5.8,3.1,21.6,48.13,1.9355,377.1513],
    [4297,1532798125,56.9069,-111.5597,965.5,634.5,186.5,5.8,3.2,21.5,49.7,1.9337,377.7071],
    [4298,1532798126,56.9063,-111.5597,966.3,635.3,186.2,5.4,2.8,21.26,49.89,1.9332,378.101],
    [4299,1532798127,56.9057,-111.5598,966.7,635.7,186.5,5.6,2.6,21.41,50.99,1.9338,379.1967],
    [4300,1532798128,56.9051,-111.5598,967.8,635.8,186.3,5.2,2.4,21.38,51.92,1.9357,378.668],
    [4301,1532798129,56.9045,-111.5598,969.1,637.1,186.6,5.6,2.1,21.74,52.07,1.9362,378.4228],
    [4302,1532798130,56.9039,-111.5599,970.0,638.0,187.2,6.2,2.0,21.37,53.36,1.9354,378.7345],
    [4303,1532798131,56.9033,-111.5599,971.0,638.0,186.8,5.8,1.4,21.36,52.93,1.9356,377.3733],
    [4304,1532798132,56.9027,-111.56,972.6,639.6,186.1,5.3,2.1,21.54,53.21,1.9338,377.8827],
    [4305,1532798133,56.9021,-111.56,974.6,641.6,185.9,5.5,2.3,21.84,53.32,1.9369,377.3143],
    [4306,1532798134,56.9015,-111.56,977.1,644.1,185.3,5.4,2.7,20.74,54.13,1.938,377.9023],
    [4307,1532798135,56.9009,-111.56,979.6,645.6,184.4,5.2,2.9,21.5,53.41,1.9385,377.9023],
    [4308,1532798136,56.9004,-111.56,981.8,647.8,183.8,5.1,3.3,20.84,54.3,1.9374,377.9914],
    [4309,1532798137,56.8998,-111.56,983.4,649.4,183.4,5.2,3.8,21.35,54.29,1.9378,377.6941],
    [4310,1532798138,56.8992,-111.56,984.7,650.7,182.7,4.9,3.7,21.01,55.35,1.9286,377.2795],
    [4311,1532798139,56.8986,-111.5599,985.4,650.4,182.4,4.8,3.6,20.94,54.87,1.9248,377.2795],
    [4312,1532798140,56.898,-111.5599,985.6,650.6,182.4,4.9,3.4,20.89,54.18,1.9101,376.5223],
    [4313,1532798141,56.8974,-111.5599,985.5,650.5,182.3,4.8,3.7,20.75,52.86,1.9116,375.1629],
    [4314,1532798142,56.8968,-111.5598,985.0,650.0,182.3,4.9,3.8,20.78,51.07,1.9134,375.1629],
    [4315,1532798143,56.8962,-111.5598,983.9,648.9,181.8,4.4,3.6,20.49,49.88,1.9172,375.8537],
    [4316,1532798144,56.8956,-111.5598,982.6,647.6,181.6,4.2,3.8,21.11,48.74,1.9262,376.7044],
    [4317,1532798145,56.895,-111.5597,980.7,644.7,182.3,5.0,3.3,20.26,49.43,1.9354,377.5099],
    [4318,1532798146,56.8944,-111.5597,978.9,643.9,182.4,4.9,2.9,21.56,49.31,1.9398,378.093],
    [4319,1532798147,56.8938,-111.5597,977.8,642.8,182.5,5.0,3.1,21.31,50.3,1.9413,378.1066],
    [4320,1532798148,56.8932,-111.5596,977.4,642.4,183.3,5.8,3.1,21.54,51.88,1.9405,378.7931],
    [4321,1532798149,56.8926,-111.5596,977.6,642.6,183.0,5.4,3.8,20.72,53.23,1.9406,378.7419],
    [4322,1532798150,56.892,-111.5596,977.4,642.4,183.3,5.8,3.7,20.78,53.96,1.9413,377.3382],
    [4323,1532798151,56.8914,-111.5596,976.9,640.8,183.3,5.9,3.8,21.02,54.41,1.9421,377.3382],
    [4324,1532798152,56.8908,-111.5595,976.6,639.9,182.6,5.4,3.7,20.6,54.61,1.9371,378.6662],
    [4325,1532798153,56.8902,-111.5595,976.4,639.4,182.3,5.3,3.1,20.85,55.08,1.9299,377.1355],
    [4326,1532798154,56.8896,-111.5594,975.9,637.9,181.8,4.9,2.8,21.13,54.07,1.9323,376.0007],
    [4327,1532798155,56.889,-111.5594,975.3,637.4,181.0,4.4,2.4,21.36,53.66,1.935,376.575],
    [4328,1532798156,56.8884,-111.5594,974.4,636.4,182.0,5.3,2.3,20.73,54.02,1.9343,378.0586],
    [4329,1532798157,56.8878,-111.5593,973.2,635.2,182.4,5.2,1.8,21.21,53.14,1.9334,375.3029],
    [4330,1532798158,56.8871,-111.5593,971.7,633.0,182.9,5.1,1.9,21.47,52.85,1.9344,377.0969],
    [4331,1532798159,56.8865,-111.5593,970.4,631.4,183.1,4.8,2.2,20.06,53.64,1.9417,377.0365],
    [4332,1532798160,56.8859,-111.5592,970.0,631.1,183.5,4.9,1.3,20.95,53.55,1.9441,377.0365],
    [4333,1532798161,56.8853,-111.5592,969.8,629.8,183.9,5.1,0.7,21.64,53.08,1.9462,377.6401],
    [4334,1532798162,56.8847,-111.5592,969.8,628.8,184.4,5.3,0.2,20.53,54.27,1.9469,377.6401],
    [4335,1532798163,56.8841,-111.5592,970.7,629.0,184.6,5.2,1.6,20.93,56.02,1.94,376.6417],
    [4336,1532798164,56.8835,-111.5592,971.7,629.8,184.6,4.9,1.0,20.85,55.67,1.9415,377.5594],
    [4337,1532798165,56.8829,-111.5593,972.6,629.6,185.1,5.2,1.1,20.43,56.05,1.9418,377.6209],
    [4338,1532798166,56.8823,-111.5593,974.2,631.1,184.4,4.4,1.4,20.69,56.05,1.9396,377.216],
    [4339,1532798167,56.8817,-111.5593,976.0,632.0,184.6,4.8,2.1,21.71,55.61,1.9421,376.825],
    [4340,1532798168,56.8811,-111.5593,977.4,633.4,184.3,4.2,2.2,21.1,55.8,1.9454,377.5237],
    [4341,1532798169,56.8805,-111.5593,978.4,633.4,183.4,3.4,2.8,20.86,56.05,1.9488,377.9669],
    [4342,1532798170,56.8799,-111.5593,979.6,634.6,183.1,3.4,3.2,20.73,56.65,1.9498,376.7329],
    [4343,1532798171,56.8793,-111.5593,980.6,635.7,182.6,3.2,3.0,21.06,56.13,1.9449,376.508],
    [4344,1532798172,56.8787,-111.5593,981.0,636.1,184.6,5.5,1.7,21.06,57.12,1.9529,376.289],
    [4345,1532798173,56.8781,-111.5593,981.0,636.3,184.3,4.8,1.1,20.65,57.71,1.9495,377.6011],
    [4346,1532798174,56.8775,-111.5593,981.2,636.3,182.5,3.3,0.5,20.74,57.8,1.9364,375.8934],
    [4347,1532798175,56.8769,-111.5593,981.5,636.3,182.7,4.0,-0.6,20.34,57.9,1.9186,375.9157],
    [4348,1532798176,56.8763,-111.5593,981.8,634.8,183.3,4.6,-0.8,20.76,56.96,1.925,375.9508],
    [4349,1532798177,56.8757,-111.5593,983.2,635.1,182.5,3.5,-1.2,19.86,56.26,1.9366,377.1749],
    [4350,1532798178,56.875,-111.5593,984.9,635.8,182.9,3.6,0.4,20.38,55.2,1.9391,376.9682],
    [4351,1532798179,56.8744,-111.5593,986.3,636.2,183.1,3.6,-0.7,20.51,55.0,1.9381,375.877],
    [4352,1532798180,56.8738,-111.5593,988.6,637.6,182.9,3.1,-0.1,20.21,55.47,1.9439,375.9336],
    [4353,1532798181,56.8733,-111.5593,992.0,640.6,182.2,2.0,-0.3,20.04,55.57,1.9477,377.0982],
    [4354,1532798182,56.8727,-111.5593,995.5,643.4,183.4,3.1,-0.6,20.62,56.2,1.9536,377.1298],
    [4355,1532798183,56.8721,-111.5593,999.4,646.7,185.9,5.2,-0.1,20.3,57.03,1.9433,377.9934],
    [4356,1532798184,56.8715,-111.5594,1003.8,650.4,186.9,6.0,-0.2,20.38,58.27,1.9297,376.7745],
    [4357,1532798185,56.8709,-111.5594,1008.7,654.7,187.3,6.1,-0.3,20.5,57.72,1.9153,374.8598],
    [4358,1532798186,56.8704,-111.5594,1012.7,657.7,185.9,4.8,-0.1,20.23,56.75,1.9091,374.7372],
    [4359,1532798187,56.8698,-111.5594,1016.1,661.3,185.6,4.6,0.1,21.02,55.09,1.9082,374.7372],
    [4360,1532798188,56.8692,-111.5595,1019.0,663.0,184.9,4.6,0.7,20.08,53.36,1.9091,373.5787],
    [4361,1532798189,56.8687,-111.5595,1021.9,665.9,185.1,5.4,1.2,19.74,50.98,1.9096,374.052],
    [4362,1532798190,56.8681,-111.5595,1025.0,668.0,184.5,4.9,2.1,20.17,49.9,1.9115,376.2353],
    [4363,1532798191,56.8675,-111.5595,1028.5,671.5,183.1,3.7,3.3,19.89,49.01,1.9213,376.0906],
    [4364,1532798192,56.867,-111.5595,1031.2,673.2,183.8,5.0,4.0,20.43,48.78,1.9285,377.1635],
    [4365,1532798193,56.8664,-111.5595,1032.7,674.7,183.8,5.4,4.4,21.17,48.76,1.9337,377.8848],
    [4366,1532798194,56.8659,-111.5594,1033.3,675.3,183.5,5.7,4.7,20.52,50.7,1.9356,377.4788],
    [4367,1532798195,56.8653,-111.5594,1033.4,674.7,183.4,6.0,5.1,20.07,51.25,1.9317,377.845],
    [4368,1532798196,56.8648,-111.5594,1033.0,674.0,182.5,5.4,5.1,21.03,52.31,1.9298,378.1694],
    [4369,1532798197,56.8642,-111.5593,1032.0,673.0,181.9,5.0,4.5,20.28,53.25,1.9293,377.1392],
    [4370,1532798198,56.8636,-111.5593,1029.9,669.9,181.8,4.9,4.8,21.03,52.93,1.9144,375.9478],
    [4371,1532798199,56.8631,-111.5592,1027.3,667.3,182.2,5.1,4.5,19.78,53.45,1.9119,375.6858],
    [4372,1532798200,56.8625,-111.5592,1024.8,664.8,182.7,5.2,4.3,20.32,52.72,1.911,375.664],
    [4373,1532798201,56.8619,-111.5592,1023.0,663.0,183.1,5.1,4.3,20.6,52.29,1.9093,375.4508],
    [4374,1532798202,56.8614,-111.5592,1021.7,661.7,184.5,6.1,4.1,20.79,50.9,1.9148,376.9725],
    [4375,1532798203,56.8608,-111.5591,1020.3,660.3,184.9,5.9,4.0,20.34,49.46,1.9219,376.3068],
    [4376,1532798204,56.8602,-111.5591,1018.9,658.9,184.8,5.5,4.3,20.51,49.26,1.9257,378.3648],
    [4377,1532798205,56.8596,-111.5592,1017.5,657.2,185.9,6.4,3.7,20.17,49.2,1.927,377.4314],
    [4378,1532798206,56.8591,-111.5592,1016.2,655.2,185.7,6.0,3.4,20.14,50.35,1.9236,377.6964],
    [4379,1532798207,56.8585,-111.5592,1015.2,654.2,185.7,6.0,2.7,20.59,51.31,1.9236,377.6],
    [4380,1532798208,56.8579,-111.5592,1014.3,653.3,186.0,6.2,2.3,20.57,51.26,1.9231,377.687],
    [4381,1532798209,56.8573,-111.5592,1013.6,652.6,185.7,5.8,2.1,20.5,51.21,1.9213,376.9979],
    [4382,1532798210,56.8567,-111.5592,1013.0,652.0,185.9,6.1,2.6,20.57,51.7,1.9273,377.8089],
    [4383,1532798211,56.8561,-111.5592,1012.3,651.3,186.1,6.3,2.3,20.53,51.24,1.9319,378.391],
    [4384,1532798212,56.8555,-111.5593,1011.9,650.9,186.5,6.5,1.7,20.52,51.29,1.9334,378.048],
    [4385,1532798213,56.8549,-111.5593,1011.7,650.7,186.4,6.3,2.3,20.54,51.85,1.9223,377.7098],
    [4386,1532798214,56.8543,-111.5593,1011.9,650.9,186.0,5.9,2.2,20.25,52.9,1.924,377.1115],
    [4387,1532798215,56.8537,-111.5593,1012.5,651.5,185.8,5.8,2.7,20.78,52.0,1.9235,377.9063],
    [4388,1532798216,56.8531,-111.5593,1013.0,652.0,186.0,6.1,2.8,20.53,53.13,1.9203,378.0861],
    [4389,1532798217,56.8525,-111.5594,1013.5,652.5,185.9,5.9,2.4,20.52,51.58,1.9136,376.6716],
    [4390,1532798218,56.8519,-111.5594,1013.8,652.8,185.8,6.1,2.6,21.16,51.09,1.9233,377.3475],
    [4391,1532798219,56.8513,-111.5594,1013.9,652.9,185.6,5.9,2.7,20.47,51.07,1.9287,377.3475],
    [4392,1532798220,56.8507,-111.5594,1013.9,653.1,184.9,5.3,3.1,21.02,51.07,1.9423,376.5725],
    [4393,1532798221,56.8502,-111.5594,1014.3,652.2,183.4,4.1,3.3,20.91,51.84,1.9432,376.1194],
    [4394,1532798222,56.8496,-111.5594,1014.4,651.7,184.5,5.9,3.9,20.31,52.85,1.9404,376.1194],
    [4395,1532798223,56.849,-111.5594,1014.4,651.0,185.4,6.5,2.9,19.97,54.23,1.9387,377.5459],
    [4396,1532798224,56.8484,-111.5594,1014.9,650.9,184.6,5.6,2.4,19.85,55.1,1.9341,377.4048],
    [4397,1532798225,56.8478,-111.5594,1015.7,651.7,185.6,6.7,1.7,20.11,55.31,1.9301,376.602],
    [4398,1532798226,56.8472,-111.5594,1016.6,652.5,186.0,6.6,1.2,20.27,55.26,1.9322,375.9016],
    [4399,1532798227,56.8466,-111.5594,1017.4,653.4,185.9,6.3,2.1,20.17,54.92,1.9294,376.3853],
    [4400,1532798228,56.846,-111.5594,1018.3,653.5,186.4,6.6,1.9,20.58,54.7,1.9227,377.6915],
    [4401,1532798229,56.8455,-111.5594,1018.8,652.8,186.5,6.4,1.9,20.33,54.39,1.9177,376.7693],
    [4402,1532798230,56.8449,-111.5595,1019.0,651.1,185.9,5.4,1.9,20.6,53.26,1.9191,376.7693],
    [4403,1532798231,56.8443,-111.5595,1019.2,649.9,185.8,4.8,1.5,20.24,53.04,1.9254,376.0276],
    [4404,1532798232,56.8437,-111.5595,1019.7,648.7,185.9,4.8,1.6,20.86,52.39,1.9239,376.0276],
    [4405,1532798233,56.8431,-111.5596,1020.3,649.3,186.8,5.5,1.7,21.09,52.0,1.9248,377.6717],
    [4406,1532798234,56.8426,-111.5596,1021.9,649.8,187.2,5.8,2.1,20.38,52.96,1.9317,375.3062],
    [4407,1532798235,56.842,-111.5597,1024.3,652.3,187.0,5.9,3.5,19.99,53.33,1.94,376.7042],
    [4408,1532798236,56.8414,-111.5597,1026.4,653.4,186.9,6.8,4.0,20.28,53.5,1.9442,377.1051],
    [4409,1532798237,56.8408,-111.5597,1027.8,653.7,186.5,8.4,3.6,20.49,54.36,1.9454,377.3405],
    [4410,1532798238,56.8403,-111.5597,1028.8,653.7,182.3,7.1,3.9,20.11,55.79,1.9448,376.8867],
    [4411,1532798239,56.8397,-111.5595,1030.0,655.0,177.4,6.2,3.8,20.63,55.97,1.938,376.3737],
    [4412,1532798240,56.8391,-111.5594,1031.3,655.3,174.0,6.4,4.3,20.47,56.67,1.9344,376.3737],
    [4413,1532798241,56.8386,-111.5591,1032.2,656.3,169.9,6.1,3.6,19.89,56.76,1.9289,376.7143],
    [4414,1532798242,56.838,-111.5588,1032.1,655.1,166.7,6.4,3.6,20.17,56.51,1.9134,376.0573],
    [4415,1532798243,56.8375,-111.5584,1031.1,654.2,162.3,5.4,3.0,20.15,55.47,1.9097,376.0233],
    [4416,1532798244,56.8369,-111.5579,1029.9,652.9,158.3,4.9,2.5,20.28,53.81,1.9082,376.4944],
    [4417,1532798245,56.8364,-111.5574,1029.2,652.2,154.9,4.5,2.0,20.14,53.33,1.9058,376.7713],
    [4418,1532798246,56.8359,-111.5569,1029.3,652.9,152.3,4.9,2.5,19.87,52.0,1.9034,377.1531],
    [4419,1532798247,56.8354,-111.5563,1029.0,653.0,150.7,5.4,2.9,19.59,50.74,1.9034,377.1531],
    [4420,1532798248,56.8349,-111.5556,1027.7,652.6,147.1,4.0,2.3,20.13,49.92,1.9053,377.095],
    [4421,1532798249,56.8344,-111.5549,1025.7,650.3,145.5,5.2,3.0,19.95,49.23,1.906,377.1609],
    [4422,1532798250,56.8339,-111.5542,1023.8,648.6,144.3,6.2,3.7,19.74,49.02,1.906,377.0154],
    [4423,1532798251,56.8335,-111.5534,1022.6,646.4,141.1,6.0,3.1,20.0,49.2,1.9054,376.8385],
    [4424,1532798252,56.8331,-111.5526,1021.8,646.4,138.8,5.9,3.6,20.2,48.19,1.9114,377.459],
    [4425,1532798253,56.8327,-111.5517,1021.2,646.3,136.4,5.6,3.8,20.95,48.12,1.9143,377.2255],
    [4426,1532798254,56.8323,-111.5509,1020.2,646.2,134.1,5.6,3.8,20.45,48.9,1.9171,378.0505],
    [4427,1532798255,56.8319,-111.55,1018.7,647.6,131.6,5.8,4.0,20.5,49.61,1.925,378.7311],
    [4428,1532798256,56.8315,-111.549,1017.4,647.8,127.8,4.7,4.0,20.8,49.56,1.9404,375.9723],
    [4429,1532798257,56.8312,-111.5481,1016.4,646.7,124.2,4.1,4.1,20.34,50.75,1.9523,376.5696],
    [4430,1532798258,56.8309,-111.547,1015.7,646.7,120.4,3.5,4.0,20.42,53.27,1.9485,376.3047],
    [4431,1532798259,56.8306,-111.546,1015.7,647.7,116.4,3.5,3.6,21.15,54.57,1.948,376.525],
    [4432,1532798260,56.8304,-111.5449,1016.4,649.3,113.0,3.9,3.3,20.45,56.02,1.9473,376.5477],
    [4433,1532798261,56.8302,-111.5437,1017.7,652.7,109.9,4.7,3.0,20.46,57.27,1.9425,376.6369],
    [4434,1532798262,56.83,-111.5426,1019.1,655.1,107.2,4.5,3.4,20.55,57.44,1.944,376.6369],
    [4435,1532798263,56.8299,-111.5415,1020.5,657.4,104.0,4.7,3.3,20.43,58.04,1.9371,376.0113],
    [4436,1532798264,56.8298,-111.5403,1021.7,660.7,101.2,5.2,3.8,20.46,57.08,1.9315,376.0548],
    [4437,1532798265,56.8297,-111.5391,1022.7,662.7,98.0,4.9,3.7,20.53,57.26,1.9269,376.1917],
    [4438,1532798266,56.8297,-111.5379,1024.2,666.2,94.1,4.5,2.6,19.82,56.36,1.9286,375.7609],
    [4439,1532798267,56.8297,-111.5367,1025.3,667.3,91.7,4.0,2.3,20.68,55.27,1.9285,376.7244],
    [4440,1532798268,56.8297,-111.5355,1025.4,668.4,89.7,3.4,1.7,19.7,54.91,1.9302,374.7889],
    [4441,1532798269,56.8297,-111.5343,1024.5,667.5,90.3,3.6,3.5,19.92,54.68,1.9279,375.8941],
    [4442,1532798270,56.8298,-111.5331,1023.0,666.0,89.9,3.8,3.3,20.84,54.26,1.9302,375.681],
    [4443,1532798271,56.8298,-111.5319,1021.1,663.4,89.3,3.9,3.0,19.73,54.33,1.9267,375.6064],
    [4444,1532798272,56.8298,-111.5307,1018.5,660.8,91.2,4.7,4.5,19.55,54.25,1.9215,377.0778],
    [4445,1532798273,56.8299,-111.5295,1015.4,658.5,90.7,4.7,3.2,20.44,53.71,1.9162,375.999],
    [4446,1532798274,56.8299,-111.5283,1012.4,655.6,91.2,5.2,3.0,20.27,53.55,1.9173,376.1792],
    [4447,1532798275,56.8299,-111.5271,1009.4,653.7,92.8,5.2,3.9,20.25,53.01,1.9167,376.3489],
    [4448,1532798276,56.8299,-111.5259,1006.6,651.7,92.8,5.6,3.3,19.81,52.21,1.9161,377.4537],
    [4449,1532798277,56.8299,-111.5246,1004.2,650.1,93.0,5.8,3.4,20.24,52.0,1.9158,375.968],
    [4450,1532798278,56.8299,-111.5234,1002.3,648.6,92.7,5.5,3.2,19.5,51.41,1.9203,375.7788],
    [4451,1532798279,56.8299,-111.5222,1000.4,647.4,92.2,5.2,3.1,20.03,51.18,1.9272,376.5221],
    [4452,1532798280,56.8299,-111.521,998.6,645.6,92.4,5.0,3.7,20.37,51.11,1.9309,376.1899],
    [4453,1532798281,56.8299,-111.5198,996.4,643.6,91.8,4.7,3.3,20.24,51.51,1.9326,377.2026],
    [4454,1532798282,56.8299,-111.5185,994.4,642.4,91.8,5.0,3.6,20.37,52.76,1.9323,375.6917],
    [4455,1532798283,56.8299,-111.5173,992.5,640.8,91.5,5.0,3.5,20.49,52.93,1.9424,375.9754],
    [4456,1532798284,56.8299,-111.5161,990.8,639.8,91.3,4.3,3.6,19.87,54.22,1.9462,377.3568],
    [4457,1532798285,56.83,-111.5148,989.3,638.3,91.2,4.7,3.7,20.95,54.68,1.9458,375.1709],
    [4458,1532798286,56.83,-111.5136,988.1,638.1,91.2,2.8,3.8,20.56,55.05,1.9486,376.2922],
    [4459,1532798287,56.83,-111.5123,987.1,637.1,91.1,3.7,3.8,20.24,56.51,1.9471,376.3184],
    [4460,1532798288,56.83,-111.5111,986.4,636.4,91.1,4.8,3.8,20.32,57.49,1.946,376.3184],
    [4461,1532798289,56.83,-111.5099,985.8,635.8,91.6,5.3,4.2,20.21,57.74,1.9432,376.6009],
    [4462,1532798290,56.8301,-111.5087,985.5,636.5,91.6,5.7,4.1,20.01,57.87,1.9375,375.6001],
    [4463,1532798291,56.8301,-111.5074,985.1,636.1,91.9,6.7,4.2,19.88,57.7,1.9332,375.1249],
    [4464,1532798292,56.8301,-111.5062,984.9,635.8,92.2,7.7,4.2,20.44,56.95,1.9241,376.3773],
    [4465,1532798293,56.8301,-111.5049,984.6,635.5,93.0,8.2,5.2,20.88,55.95,1.9151,376.3746],
    [4466,1532798294,56.8301,-111.5037,983.9,634.9,92.4,8.4,4.3,19.65,55.08,1.908,376.5265],
    [4467,1532798295,56.8301,-111.5024,984.1,635.4,90.8,8.3,3.0,19.67,53.36,1.9083,377.5833],
    [4468,1532798296,56.8302,-111.5012,984.8,636.7,91.3,8.0,3.6,20.43,51.92,1.906,377.6576],
    [4469,1532798297,56.8302,-111.5,984.9,636.9,91.4,7.8,3.6,19.85,50.87,1.9058,377.6576],
    [4470,1532798298,56.8302,-111.4987,984.5,636.5,92.2,7.7,4.4,20.55,49.54,1.9052,377.2934],
    [4471,1532798299,56.8302,-111.4974,983.4,635.4,92.0,7.7,3.8,19.93,49.27,1.9065,378.1741],
    [4472,1532798300,56.8302,-111.4962,982.2,634.2,91.2,7.8,3.1,20.63,49.1,1.9052,378.1741],
    [4473,1532798301,56.8302,-111.4949,981.4,633.4,91.2,7.8,3.1,20.41,48.84,1.9062,377.1108],
    [4474,1532798302,56.8303,-111.4937,980.5,632.5,91.0,7.9,2.8,20.26,48.57,1.9071,377.5988],
    [4475,1532798303,56.8303,-111.4925,979.4,630.4,91.0,7.6,2.7,20.98,47.94,1.9084,376.0522],
    [4476,1532798304,56.8303,-111.4913,978.8,630.8,91.2,7.7,2.8,20.46,48.36,1.9067,377.5082],
    [4477,1532798305,56.8303,-111.4901,978.3,630.3,91.1,7.4,2.7,21.07,48.08,1.908,377.5345],
    [4478,1532798306,56.8303,-111.4889,978.1,630.1,91.2,7.7,2.8,20.36,48.07,1.9072,377.5474],
    [4479,1532798307,56.8303,-111.4876,978.0,630.3,90.9,7.9,2.4,20.34,48.14,1.9071,377.7871],
    [4480,1532798308,56.8303,-111.4864,978.1,631.1,90.8,7.5,2.3,20.8,48.14,1.9056,377.7931],
    [4481,1532798309,56.8303,-111.4852,978.1,631.1,91.1,7.6,2.6,20.48,47.34,1.9126,377.1297],
    [4482,1532798310,56.8304,-111.484,977.9,630.9,91.2,6.7,2.6,20.24,47.31,1.9203,377.4363],
    [4483,1532798311,56.8304,-111.4828,978.0,632.0,90.9,7.1,2.5,20.8,47.74,1.9168,377.7145],
    [4484,1532798312,56.8304,-111.4816,978.5,631.5,90.9,6.6,2.4,20.21,47.94,1.9217,376.8584],
    [4485,1532798313,56.8304,-111.4804,979.4,632.4,90.9,5.9,2.3,21.17,48.39,1.9318,376.101],
    [4486,1532798314,56.8304,-111.4792,980.6,632.6,90.9,6.6,2.3,20.87,50.3,1.9382,376.6593],
    [4487,1532798315,56.8304,-111.478,981.9,634.9,91.2,6.4,2.6,20.85,51.22,1.9375,375.5526],
    [4488,1532798316,56.8304,-111.4768,983.0,636.0,91.2,7.0,2.5,20.83,51.95,1.938,375.8585],
    [4489,1532798317,56.8304,-111.4756,983.9,637.9,91.9,6.3,3.0,21.24,53.43,1.9398,375.7889],
    [4490,1532798318,56.8304,-111.4744,985.0,639.0,92.6,6.1,3.3,20.42,54.48,1.9396,376.6508],
    [4491,1532798319,56.8304,-111.4733,986.4,641.4,92.6,6.1,3.0,20.84,54.89,1.9386,374.8581],
    [4492,1532798320,56.8304,-111.472,987.9,642.9,92.6,6.7,3.0,20.46,55.25,1.936,375.9177],
    [4493,1532798321,56.8304,-111.4709,989.5,645.5,92.6,6.5,3.1,20.92,55.25,1.932,376.1811],
    [4494,1532798322,56.8304,-111.4696,990.9,646.9,93.1,6.3,3.6,21.16,54.95,1.9289,374.5481],
    [4495,1532798323,56.8304,-111.4685,992.3,648.3,93.2,6.6,3.5,21.06,54.8,1.927,375.7549],
    [4496,1532798324,56.8304,-111.4673,993.9,649.9,92.7,6.4,2.6,19.95,54.98,1.9215,376.4388],
    [4497,1532798325,56.8304,-111.4661,995.3,651.3,93.8,6.2,3.6,20.17,54.04,1.9114,376.0044],
    [4498,1532798326,56.8304,-111.4649,996.3,652.3,94.4,6.0,3.7,20.13,54.05,1.9071,377.4868],
    [4499,1532798327,56.8304,-111.4637,997.0,653.0,94.1,5.5,3.3,20.44,52.76,1.908,377.4768],
    [4500,1532798328,56.8304,-111.4625,997.5,653.5,94.7,4.4,3.8,20.23,51.32,1.9133,377.0717],
    [4501,1532798329,56.8304,-111.4614,997.5,653.5,94.6,4.2,3.6,20.91,50.17,1.9133,376.8808],
    [4502,1532798330,56.8304,-111.4602,996.3,652.3,94.9,4.0,3.9,20.27,50.2,1.9136,376.5747],
    [4503,1532798331,56.8303,-111.459,994.0,651.0,95.0,4.1,4.1,20.29,49.96,1.9104,377.7076],
    [4504,1532798332,56.8303,-111.4578,990.9,647.9,94.4,3.9,3.8,20.82,49.35,1.9058,377.9404],
    [4505,1532798333,56.8303,-111.4567,987.3,645.3,93.9,3.8,3.5,20.62,49.97,1.9056,377.7956],
    [4506,1532798334,56.8303,-111.4555,983.4,641.4,93.7,3.9,3.4,20.66,48.73,1.9061,377.7758],
    [4507,1532798335,56.8303,-111.4543,979.2,638.2,93.6,3.9,3.5,20.55,48.71,1.9057,377.5333],
    [4508,1532798336,56.8303,-111.453,974.8,634.8,93.1,5.2,3.2,21.11,47.55,1.9053,378.2302],
    [4509,1532798337,56.8303,-111.4518,970.0,631.0,93.2,5.6,3.6,20.77,47.9,1.9039,378.2302],
    [4510,1532798338,56.8303,-111.4506,965.3,627.3,93.2,6.1,3.7,20.48,47.1,1.9057,378.9053],
    [4511,1532798339,56.8303,-111.4494,960.4,623.4,92.8,6.1,3.3,20.71,47.03,1.9058,377.5005],
    [4512,1532798340,56.8303,-111.4481,955.8,619.8,92.6,6.8,3.1,20.94,46.75,1.9076,377.4314],
    [4513,1532798341,56.8303,-111.4469,951.5,617.4,92.2,6.8,2.7,20.52,46.59,1.9072,377.4256],
    [4514,1532798342,56.8303,-111.4456,948.4,617.1,91.9,7.2,2.4,20.96,46.75,1.9068,376.306],
    [4515,1532798343,56.8303,-111.4443,946.8,621.4,92.2,7.6,2.8,20.96,47.44,1.9064,377.9276],
    [4516,1532798344,56.8303,-111.443,946.0,632.3,92.1,7.6,2.6,21.37,46.57,1.9064,378.6198],
    [4517,1532798345,56.8303,-111.4418,945.6,643.3,91.2,7.5,1.9,21.47,45.93,1.905,376.6737],
    [4518,1532798346,56.8303,-111.4405,945.0,659.0,91.5,7.0,2.6,21.44,46.3,1.9069,376.6737],
    [4519,1532798347,56.8303,-111.4392,944.1,670.7,91.5,7.1,2.6,21.8,46.09,1.9086,376.9922],
    [4520,1532798348,56.8303,-111.438,942.8,683.8,90.9,7.0,2.2,21.2,46.14,1.9088,379.1392],
    [4521,1532798349,56.8303,-111.4367,941.5,688.9,91.0,7.2,2.5,21.09,47.1,1.9058,378.3362],
    [4522,1532798350,56.8303,-111.4355,941.1,692.1,91.0,7.5,2.6,21.17,46.76,1.906,378.5491],
    [4523,1532798351,56.8303,-111.4342,941.7,693.7,90.6,7.3,2.4,20.78,46.78,1.9065,378.2263],
    [4524,1532798352,56.8303,-111.433,942.0,695.0,91.0,7.1,3.0,21.87,46.46,1.9069,377.6896],
    [4525,1532798353,56.8304,-111.4317,941.6,694.6,91.0,7.1,3.1,21.35,46.65,1.9073,377.6896],
    [4526,1532798354,56.8304,-111.4304,940.6,695.6,90.6,6.5,3.0,20.98,46.33,1.9055,378.4558],
    [4527,1532798355,56.8304,-111.4292,938.9,694.9,90.4,7.1,2.9,20.79,46.21,1.9054,378.4223],
    [4528,1532798356,56.8304,-111.4279,937.3,695.3,90.0,7.0,2.6,21.14,46.29,1.906,377.2059],
    [4529,1532798357,56.8304,-111.4267,936.5,695.5,90.1,6.5,2.5,21.23,46.08,1.9084,376.2341],
    [4530,1532798358,56.8305,-111.4254,936.2,695.2,90.6,6.2,2.7,21.08,46.28,1.908,376.7639],
    [4531,1532798359,56.8305,-111.4241,936.2,694.2,91.0,6.0,2.9,22.07,45.39,1.9056,376.5253],
    [4532,1532798360,56.8305,-111.4229,935.9,692.9,91.2,6.1,3.0,21.44,46.69,1.9053,376.4175],
    [4533,1532798361,56.8305,-111.4216,935.3,691.3,91.5,6.2,3.2,21.29,45.68,1.9071,376.3546],
    [4534,1532798362,56.8305,-111.4204,934.3,690.3,91.5,6.5,3.0,21.18,46.1,1.9066,376.5721],
    [4535,1532798363,56.8305,-111.4191,932.9,690.6,91.5,6.7,2.9,21.14,45.31,1.9049,376.666],
    [4536,1532798364,56.8305,-111.4178,931.1,691.1,91.8,7.0,3.3,21.07,45.64,1.905,377.6061],
    [4537,1532798365,56.8306,-111.4166,929.2,691.2,91.4,7.3,3.1,20.98,45.34,1.9046,377.6844],
    [4538,1532798366,56.8306,-111.4153,926.9,688.9,91.7,7.5,3.7,21.97,45.22,1.9046,376.795],
    [4539,1532798367,56.8306,-111.414,925.0,687.0,91.4,7.5,3.6,22.01,44.27,1.905,376.4594],
    [4540,1532798368,56.8306,-111.4127,923.4,684.4,91.1,7.4,3.5,21.68,45.21,1.9089,376.4594],
    [4541,1532798369,56.8306,-111.4114,922.7,683.7,91.1,7.2,3.5,22.11,44.81,1.9107,376.0412],
    [4542,1532798370,56.8306,-111.4101,922.5,681.2,91.3,7.2,3.8,20.98,45.38,1.9111,374.7595],
    [4543,1532798371,56.8307,-111.4089,922.6,666.5,91.4,7.2,3.8,21.68,45.2,1.9088,376.4066],
    [4544,1532798372,56.8307,-111.4075,922.6,647.9,91.4,7.4,3.7,21.79,46.05,1.9091,374.5322],
    [4545,1532798373,56.8307,-111.4062,922.2,628.2,91.4,7.9,3.8,22.13,45.57,1.906,374.4194],
    [4546,1532798374,56.8307,-111.4049,921.5,615.9,91.5,8.5,3.9,21.42,46.26,1.9076,376.7836],
    [4547,1532798375,56.8307,-111.4036,920.5,607.4,91.4,9.0,3.5,21.51,46.32,1.9038,377.0748],
    [4548,1532798376,56.8307,-111.4024,919.5,597.7,91.9,10.4,3.7,21.64,46.02,1.9049,378.043],
    [4549,1532798377,56.8308,-111.4011,918.6,589.0,92.6,11.4,3.9,21.23,45.4,1.9038,377.1096],
    [4550,1532798378,56.8308,-111.3998,917.9,583.2,92.7,12.3,3.5,21.43,45.33,1.9043,376.3749],
    [4551,1532798379,56.8308,-111.3985,917.4,577.9,93.1,13.2,3.6,21.46,45.67,1.9068,376.5033],
    [4552,1532798380,56.8308,-111.3973,916.9,574.3,93.4,13.9,3.6,21.35,45.42,1.9038,376.6332],
    [4553,1532798381,56.8308,-111.396,917.1,569.8,93.5,14.3,3.6,21.59,44.84,1.9041,375.5043],
    [4554,1532798382,56.8308,-111.3947,919.0,569.0,93.5,14.2,3.5,21.44,45.14,1.9044,376.5832],
    [4555,1532798383,56.8308,-111.3934,922.7,571.7,93.2,13.8,3.2,21.11,45.34,1.9046,375.9238],
    [4556,1532798384,56.8307,-111.3922,927.6,576.6,93.4,13.2,3.5,21.98,44.92,1.9045,375.9238],
    [4557,1532798385,56.8307,-111.391,933.3,582.3,93.3,12.5,3.4,21.36,45.65,1.9043,376.246],
    [4558,1532798386,56.8307,-111.3897,939.6,589.4,93.0,11.6,3.3,20.94,45.75,1.9057,377.5266],
    [4559,1532798387,56.8307,-111.3885,945.9,597.0,92.8,11.0,3.4,21.58,45.98,1.9052,376.3576],
    [4560,1532798388,56.8308,-111.3873,952.0,604.0,92.4,10.6,3.2,21.15,45.95,1.9054,376.6185],
    [4561,1532798389,56.8308,-111.3862,957.3,609.4,92.2,10.4,3.2,21.91,45.58,1.9052,376.4097],
    [4562,1532798390,56.8308,-111.385,961.7,613.2,92.0,10.3,3.2,21.0,46.01,1.9049,378.6451],
    [4563,1532798391,56.8308,-111.3838,965.1,615.1,91.7,10.3,3.0,21.44,46.32,1.9051,377.8332],
    [4564,1532798392,56.8308,-111.3827,967.4,616.5,91.5,10.2,2.7,21.45,46.64,1.9055,378.3049],
    [4565,1532798393,56.8308,-111.3815,969.4,617.2,92.0,10.0,3.0,20.75,46.29,1.9063,378.1395],
    [4566,1532798394,56.8308,-111.3804,971.4,618.3,92.2,9.9,3.0,21.16,47.31,1.9043,378.3016],
    [4567,1532798395,56.8308,-111.3793,973.2,619.9,91.9,9.6,2.7,22.27,46.34,1.9037,377.9479],
    [4568,1532798396,56.8308,-111.3781,975.2,622.2,92.1,9.3,2.8,21.84,46.18,1.9048,377.9479],
    [4569,1532798397,56.8308,-111.377,977.6,624.9,92.3,8.9,2.8,22.03,46.28,1.9048,378.6611],
    [4570,1532798398,56.8308,-111.3758,980.4,629.6,92.4,8.7,2.8,21.4,47.26,1.905,379.528],
    [4571,1532798399,56.8308,-111.3747,983.2,632.9,92.2,8.6,2.6,22.08,46.8,1.9041,379.528],
    [4572,1532798400,56.8308,-111.3736,985.8,634.7,92.2,8.5,2.6,21.14,47.59,1.9052,379.4657],
    [4573,1532798401,56.8308,-111.3725,988.0,635.7,92.0,8.4,2.6,21.73,47.09,1.9046,378.7443],
    [4574,1532798402,56.8308,-111.3713,989.8,635.8,91.7,8.5,2.4,21.3,47.66,1.9041,379.6788],
    [4575,1532798403,56.8308,-111.3702,991.2,636.3,91.5,8.6,2.4,20.98,47.9,1.9052,378.1542],
    [4576,1532798404,56.8308,-111.3691,992.4,636.5,91.3,8.6,2.5,21.54,47.83,1.9043,379.4266],
    [4577,1532798405,56.8309,-111.368,993.3,635.6,90.9,8.6,2.3,21.69,47.47,1.9036,379.4266],
    [4578,1532798406,56.8309,-111.3669,994.6,636.6,90.3,8.5,1.9,21.19,48.12,1.9041,378.6001],
    [4579,1532798407,56.8309,-111.3658,996.4,637.4,90.3,8.3,2.1,21.82,47.53,1.9025,377.9244],
    [4580,1532798408,56.8309,-111.3647,998.7,639.7,90.6,7.9,2.3,21.3,48.09,1.9048,378.0505],
    [4581,1532798409,56.8309,-111.3636,1001.2,642.2,90.5,7.6,2.0,20.6,47.92,1.9049,377.8662],
    [4582,1532798410,56.8309,-111.3625,1003.9,644.7,90.5,7.4,2.0,21.18,47.62,1.9032,377.1855],
    [4583,1532798411,56.8309,-111.3614,1006.7,646.7,90.5,7.1,1.9,21.42,47.04,1.9057,376.4642],
    [4584,1532798412,56.831,-111.3603,1009.5,649.5,90.4,6.9,1.7,20.54,47.42,1.9049,377.2705],
    [4585,1532798413,56.831,-111.3592,1011.9,651.9,91.0,6.6,1.9,21.18,47.05,1.9041,377.2798],
    [4586,1532798414,56.831,-111.3582,1013.6,652.6,91.4,6.2,2.1,21.14,47.24,1.9057,377.1177],
    [4587,1532798415,56.831,-111.3571,1015.1,654.1,91.4,5.8,2.0,21.17,47.28,1.9064,375.7717],
    [4588,1532798416,56.831,-111.356,1016.3,655.3,91.5,5.5,2.0,21.23,47.07,1.9059,376.9096],
    [4589,1532798417,56.831,-111.3549,1017.6,655.6,91.5,5.6,2.0,21.09,48.17,1.9055,376.6039],
    [4590,1532798418,56.831,-111.3538,1019.2,657.2,91.9,5.7,2.4,21.1,48.04,1.9045,376.0603],
    [4591,1532798419,56.831,-111.3527,1020.9,658.9,92.0,5.7,2.5,20.89,47.45,1.904,375.9097],
    [4592,1532798420,56.831,-111.3515,1022.6,659.6,91.8,5.7,2.4,20.56,47.4,1.9073,377.0041],
    [4593,1532798421,56.831,-111.3504,1023.8,660.8,91.5,5.8,2.2,20.96,47.52,1.9044,376.6241],
    [4594,1532798422,56.831,-111.3493,1024.5,661.5,91.4,5.9,1.9,20.37,47.44,1.9042,378.0317],
    [4595,1532798423,56.831,-111.3482,1024.8,661.8,92.3,6.1,2.4,21.57,46.96,1.9039,376.8481],
    [4596,1532798424,56.831,-111.3472,1024.6,661.6,93.4,6.5,3.1,21.0,47.76,1.9053,376.7612],
    [4597,1532798425,56.831,-111.346,1024.1,661.2,93.8,6.9,3.0,20.98,47.46,1.9056,377.3105],
    [4598,1532798426,56.831,-111.3448,1023.8,661.8,94.1,7.1,3.0,20.43,47.91,1.9064,377.8519],
    [4599,1532798427,56.831,-111.3437,1024.4,662.4,94.1,6.7,2.9,20.96,48.16,1.9068,376.8603],
    [4600,1532798428,56.831,-111.3426,1025.2,663.2,94.0,6.8,2.7,20.91,48.02,1.9047,376.43],
    [4601,1532798429,56.8309,-111.3415,1025.8,662.8,93.8,6.7,2.7,21.5,47.24,1.9057,376.2781],
    [4602,1532798430,56.8309,-111.3403,1026.3,662.6,93.4,6.4,2.5,20.43,47.49,1.9051,376.1826],
    [4603,1532798431,56.8309,-111.3392,1027.1,663.1,93.0,5.9,2.4,20.58,47.62,1.9051,376.4656],
    [4604,1532798432,56.8309,-111.3381,1028.1,664.2,92.6,5.4,2.4,20.76,47.6,1.9052,376.9696],
    [4605,1532798433,56.8309,-111.3369,1029.2,664.2,92.3,4.7,2.4,20.41,47.56,1.9055,377.584],
    [4606,1532798434,56.8309,-111.3358,1030.3,665.3,91.7,4.3,2.3,20.88,47.37,1.9067,377.076],
    [4607,1532798435,56.8309,-111.3346,1031.4,666.5,91.3,3.9,2.1,20.76,47.44,1.9072,375.3417],
    [4608,1532798436,56.8309,-111.3335,1032.4,666.7,91.1,3.6,2.3,20.74,47.81,1.9087,375.8817],
    [4609,1532798437,56.8309,-111.3324,1033.1,667.1,91.3,3.4,2.5,20.62,47.87,1.9083,375.355],
    [4610,1532798438,56.8309,-111.3313,1033.2,667.2,91.2,3.2,2.5,20.67,48.39,1.9072,376.897],
    [4611,1532798439,56.831,-111.3301,1032.6,665.6,91.2,3.3,2.4,20.35,48.54,1.9069,376.7179],
    [4612,1532798440,56.831,-111.329,1031.1,664.1,91.5,3.7,2.6,20.83,48.78,1.9062,376.8853],
    [4613,1532798441,56.831,-111.3278,1029.1,661.1,91.9,4.0,2.7,20.83,48.5,1.9054,376.0404],
    [4614,1532798442,56.831,-111.3267,1026.8,658.8,92.2,4.3,2.6,20.81,48.4,1.9058,375.8276],
    [4615,1532798443,56.831,-111.3255,1024.3,655.3,92.7,4.6,2.6,20.58,48.06,1.9063,376.7587],
    [4616,1532798444,56.831,-111.3244,1022.1,653.1,93.4,4.9,2.7,20.78,48.38,1.9067,376.6431],
    [4617,1532798445,56.8309,-111.3231,1020.2,650.2,94.3,5.4,3.0,20.59,47.77,1.9078,375.4289],
    [4618,1532798446,56.8309,-111.3219,1018.4,647.4,95.1,6.0,3.3,20.47,47.7,1.9084,374.2186],
    [4619,1532798447,56.8309,-111.3207,1016.9,645.9,95.7,6.6,3.4,21.04,48.23,1.9081,373.7633],
    [4620,1532798448,56.8309,-111.3195,1016.0,644.0,95.9,7.3,3.3,21.27,48.32,1.909,374.7367],
    [4621,1532798449,56.8308,-111.3183,1015.4,642.4,95.6,7.5,3.1,21.18,48.8,1.9083,372.7141],
    [4622,1532798450,56.8308,-111.3172,1015.2,642.2,95.5,7.2,3.2,20.85,49.09,1.9094,372.9517],
    [4623,1532798451,56.8308,-111.316,1015.5,641.5,95.4,7.3,3.4,20.73,49.42,1.9111,373.4103],
    [4624,1532798452,56.8308,-111.3148,1016.0,641.0,95.2,7.3,3.5,20.69,49.81,1.9178,374.8912],
    [4625,1532798453,56.8307,-111.3136,1016.7,639.7,94.9,7.7,3.6,20.37,50.14,1.913,373.7585],
    [4626,1532798454,56.8307,-111.3124,1017.8,638.6,94.5,7.3,3.7,20.75,50.83,1.9074,375.52],
    [4627,1532798455,56.8307,-111.3113,1019.2,637.2,94.4,7.6,3.8,20.72,50.38,1.9063,375.0805],
    [4628,1532798456,56.8307,-111.3101,1020.7,634.7,94.1,7.7,3.7,20.78,50.17,1.9071,375.0805],
    [4629,1532798457,56.8307,-111.3089,1022.4,631.4,93.7,8.2,3.4,21.23,49.32,1.9076,374.4037],
    [4630,1532798458,56.8307,-111.3077,1023.9,628.5,93.6,8.7,3.4,20.7,49.36,1.9081,374.4397],
    [4631,1532798459,56.8307,-111.3065,1025.1,626.2,93.5,8.9,3.1,20.78,49.35,1.9133,374.2263],
    [4632,1532798460,56.8307,-111.3053,1026.6,623.6,93.7,9.1,3.1,20.39,48.93,1.9197,374.2263],
    [4633,1532798461,56.8307,-111.3042,1028.1,622.4,94.0,9.2,3.1,20.74,49.53,1.9108,374.4568],
    [4634,1532798462,56.8307,-111.303,1029.1,621.1,94.3,8.6,3.1,20.6,50.26,1.9068,374.5083],
    [4635,1532798463,56.8306,-111.3018,1030.1,620.1,94.9,8.4,3.2,21.01,50.11,1.9065,374.9983],
    [4636,1532798464,56.8306,-111.3006,1031.5,619.5,94.7,8.4,2.6,20.58,50.42,1.9078,374.4054],
    [4637,1532798465,56.8306,-111.2994,1034.6,620.6,95.0,8.1,2.5,20.73,49.75,1.9078,373.8065],
    [4638,1532798466,56.8306,-111.2982,1038.1,623.1,95.7,8.0,3.0,21.12,49.5,1.9096,372.1899],
    [4639,1532798467,56.8305,-111.297,1041.5,626.5,95.7,7.5,2.6,20.58,49.83,1.9104,374.3844],
    [4640,1532798468,56.8305,-111.2959,1044.7,629.7,96.2,7.3,2.9,20.85,49.58,1.9072,375.4443],
    [4641,1532798469,56.8305,-111.2947,1047.8,633.8,96.9,7.2,3.4,20.45,50.5,1.9058,375.3183],
    [4642,1532798470,56.8304,-111.2936,1050.4,637.5,96.6,7.2,2.9,20.51,49.92,1.905,375.8988],
    [4643,1532798471,56.8304,-111.2925,1052.1,640.0,96.6,7.4,3.0,21.06,49.46,1.905,375.5382],
    [4644,1532798472,56.8303,-111.2913,1053.5,644.5,96.5,7.6,2.9,20.59,49.37,1.904,375.6639],
    [4645,1532798473,56.8303,-111.2902,1054.8,648.7,96.3,7.8,3.1,20.4,49.89,1.9047,377.06],
    [4646,1532798474,56.8303,-111.2891,1056.0,651.0,96.0,8.2,3.2,20.48,49.27,1.9039,377.7665],
    [4647,1532798475,56.8303,-111.2879,1057.2,651.9,95.2,8.3,3.1,21.01,48.44,1.9041,378.1385],
    [4648,1532798476,56.8302,-111.2868,1057.8,652.5,94.5,8.2,3.1,20.3,49.13,1.9045,376.8847],
    [4649,1532798477,56.8302,-111.2856,1058.2,652.2,93.3,7.9,2.6,20.23,49.15,1.9047,378.3489],
    [4650,1532798478,56.8302,-111.2845,1058.7,651.7,92.5,7.6,2.4,20.05,49.07,1.9045,377.1218],
    [4651,1532798479,56.8302,-111.2834,1059.3,651.3,92.1,7.2,2.3,20.12,49.21,1.9042,377.4426],
    [4652,1532798480,56.8302,-111.2823,1060.3,653.3,91.9,6.4,2.1,20.28,49.12,1.9053,376.6452],
    [4653,1532798481,56.8302,-111.2811,1061.6,655.6,92.3,5.8,2.5,20.28,49.12,1.9045,377.3738],
    [4654,1532798482,56.8302,-111.28,1063.1,658.9,92.1,5.2,2.3,19.94,49.4,1.905,377.3362],
    [4655,1532798483,56.8302,-111.2789,1064.9,661.9,91.7,4.5,2.0,20.4,49.63,1.9069,375.7937],
    [4656,1532798484,56.8302,-111.2777,1066.7,663.7,91.5,4.0,2.1,19.83,49.02,1.9068,375.7937],
    [4657,1532798485,56.8302,-111.2766,1067.7,664.8,91.5,4.0,2.2,19.92,48.92,1.9059,374.5473],
    [4658,1532798486,56.8302,-111.2755,1067.6,663.6,91.4,4.3,2.3,20.14,49.05,1.908,375.5106],
    [4659,1532798487,56.8302,-111.2744,1067.0,662.0,91.4,4.8,2.4,19.69,48.82,1.9096,374.1495],
    [4660,1532798488,56.8302,-111.2732,1066.0,659.3,91.3,5.2,2.2,20.48,49.13,1.9099,373.8983],
    [4661,1532798489,56.8302,-111.2721,1064.9,656.9,91.0,5.3,1.9,20.29,50.33,1.9088,373.8983],
    [4662,1532798490,56.8303,-111.2709,1064.1,653.1,91.3,5.5,2.2,20.27,49.92,1.9083,374.6233],
    [4663,1532798491,56.8303,-111.2698,1063.4,649.7,91.7,5.9,2.5,20.97,49.47,1.9067,376.5067],
    [4664,1532798492,56.8303,-111.2686,1063.0,647.0,91.7,6.2,2.5,19.83,50.06,1.9064,376.7308],
    [4665,1532798493,56.8303,-111.2675,1062.9,644.0,91.8,6.4,2.6,19.65,50.11,1.9067,375.6841],
    [4666,1532798494,56.8303,-111.2663,1063.4,642.4,91.8,6.3,2.4,20.32,49.96,1.9066,375.9915],
    [4667,1532798495,56.8303,-111.2651,1064.4,643.4,91.9,6.1,2.6,19.75,49.54,1.9049,376.2462],
    [4668,1532798496,56.8303,-111.264,1065.3,645.0,92.0,5.8,2.7,20.89,49.14,1.9069,375.7093],
    [4669,1532798497,56.8303,-111.2628,1066.2,646.2,91.9,5.6,2.8,19.93,49.58,1.907,375.3239],
    [4670,1532798498,56.8303,-111.2616,1066.9,647.0,92.0,5.6,3.0,20.17,49.67,1.9079,375.7464],
    [4671,1532798499,56.8303,-111.2605,1067.6,646.6,91.7,5.3,2.8,20.3,49.29,1.9087,374.1835],
    [4672,1532798500,56.8303,-111.2593,1068.2,646.2,91.4,5.1,2.7,20.13,49.73,1.9093,374.1257],
    [4673,1532798501,56.8303,-111.2582,1068.9,645.9,91.2,4.8,2.5,20.29,50.24,1.9082,374.1257],
    [4674,1532798502,56.8303,-111.257,1069.7,645.7,91.0,4.5,2.4,20.16,50.43,1.9083,373.963],
    [4675,1532798503,56.8303,-111.2558,1070.3,645.4,90.9,4.7,2.4,20.27,50.5,1.9082,373.5476],
    [4676,1532798504,56.8303,-111.2547,1070.4,644.4,91.0,5.4,2.5,20.2,50.29,1.9083,373.1122],
    [4677,1532798505,56.8304,-111.2535,1069.9,642.8,90.9,5.6,2.5,20.22,50.72,1.9073,373.1199],
    [4678,1532798506,56.8304,-111.2523,1068.8,640.8,90.8,5.6,2.5,19.93,50.74,1.9071,375.9238],
    [4679,1532798507,56.8304,-111.2511,1067.5,638.5,91.0,5.9,2.7,19.51,50.7,1.907,376.8954],
    [4680,1532798508,56.8304,-111.25,1066.0,636.1,91.0,6.2,2.6,20.13,51.19,1.9048,376.9307],
    [4681,1532798509,56.8304,-111.2488,1064.7,633.6,91.2,6.6,2.8,20.28,50.73,1.905,377.1526],
    [4682,1532798510,56.8304,-111.2476,1063.9,631.9,91.6,6.8,3.2,19.95,50.15,1.9051,376.1392],
    [4683,1532798511,56.8304,-111.2464,1063.5,630.4,91.8,7.1,3.2,20.15,49.62,1.9049,377.4511],
    [4684,1532798512,56.8304,-111.2452,1063.4,629.4,91.9,7.3,3.3,20.55,49.28,1.9059,376.236],
    [4685,1532798513,56.8305,-111.244,1063.4,628.4,92.0,7.4,3.3,20.18,49.07,1.9058,376.3956],
    [4686,1532798514,56.8305,-111.2428,1063.1,628.1,91.7,7.5,3.1,20.6,48.72,1.9073,377.9167],
    [4687,1532798515,56.8305,-111.2416,1062.7,626.0,91.5,7.4,3.0,20.06,49.18,1.9057,376.3147],
    [4688,1532798516,56.8305,-111.2404,1062.7,625.7,90.7,7.4,2.3,20.11,49.5,1.9058,377.9367],
    [4689,1532798517,56.8305,-111.2392,1062.8,624.5,90.1,7.5,1.8,19.71,49.2,1.9067,378.5599],
    [4690,1532798518,56.8305,-111.2381,1063.0,624.0,90.0,7.6,1.9,20.3,49.51,1.9035,377.9058],
    [4691,1532798519,56.8305,-111.2369,1063.5,623.5,89.6,7.5,1.6,20.58,48.58,1.9058,378.5877],
    [4692,1532798520,56.8306,-111.2357,1064.4,623.4,89.7,7.5,1.6,20.07,49.07,1.9043,377.3679],
    [4693,1532798521,56.8306,-111.2345,1065.2,624.3,90.2,7.2,1.8,20.35,48.65,1.9057,377.423],
    [4694,1532798522,56.8306,-111.2333,1065.9,623.9,91.0,6.9,2.1,20.06,49.01,1.9052,377.8355],
    [4695,1532798523,56.8306,-111.2321,1066.2,624.2,92.1,6.7,2.5,20.38,49.23,1.9098,375.647],
    [4696,1532798524,56.8306,-111.2309,1066.5,624.5,92.5,5.9,2.3,20.07,48.97,1.9175,375.4775],
    [4697,1532798525,56.8306,-111.2297,1066.9,624.2,92.7,6.3,2.2,20.17,49.18,1.9097,375.9486],
    [4698,1532798526,56.8306,-111.2285,1067.4,624.3,93.0,6.5,2.1,20.14,49.48,1.9145,374.6942],
    [4699,1532798527,56.8306,-111.2273,1068.0,625.0,93.2,6.2,2.1,20.41,49.56,1.9339,374.0667],
    [4700,1532798528,56.8305,-111.2262,1069.0,626.0,93.3,6.4,2.0,19.9,50.82,1.922,374.1671],
    [4701,1532798529,56.8305,-111.225,1070.4,626.4,93.5,6.4,2.0,20.59,51.1,1.9174,374.1671],
    [4702,1532798530,56.8305,-111.2238,1072.1,628.1,93.7,6.2,2.0,20.0,51.8,1.9204,373.8841],
    [4703,1532798531,56.8305,-111.2227,1074.0,630.0,93.9,7.2,2.1,19.98,52.75,1.9126,374.5015],
    [4704,1532798532,56.8305,-111.2215,1076.0,632.0,93.6,7.3,2.0,19.59,52.56,1.9092,375.4492],
    [4705,1532798533,56.8304,-111.2203,1078.1,634.1,93.7,7.1,2.4,20.51,52.14,1.9064,374.9043],
    [4706,1532798534,56.8304,-111.2191,1080.1,636.1,94.1,7.1,3.4,20.68,50.98,1.9057,375.8246],
    [4707,1532798535,56.8304,-111.2179,1082.5,638.5,93.1,6.8,4.1,20.16,51.14,1.9064,376.3147],
    [4708,1532798536,56.8304,-111.2168,1084.5,640.5,90.7,6.6,4.2,20.08,51.62,1.9076,375.9405],
    [4709,1532798537,56.8305,-111.2156,1086.4,641.4,86.9,6.2,3.3,20.09,50.33,1.9057,376.9133],
    [4710,1532798538,56.8306,-111.2144,1088.7,643.7,83.2,6.0,3.0,19.58,50.21,1.9072,375.6146],
    [4711,1532798539,56.8307,-111.2132,1091.2,646.2,79.8,5.2,3.1,20.08,50.14,1.9076,376.6227],
    [4712,1532798540,56.8308,-111.2121,1093.5,648.5,76.6,5.1,3.2,20.03,50.17,1.9073,375.9028],
    [4713,1532798541,56.831,-111.211,1094.5,649.5,73.0,4.9,2.6,20.24,50.09,1.9077,375.2645],
    [4714,1532798542,56.8312,-111.2098,1094.2,649.2,68.7,5.0,1.8,19.75,50.2,1.9092,375.0947],
    [4715,1532798543,56.8315,-111.2088,1093.7,648.7,64.6,5.1,1.4,19.8,50.59,1.9108,373.9945],
    [4716,1532798544,56.8318,-111.2077,1093.1,648.1,61.1,5.2,1.5,20.09,50.35,1.911,373.9233],
    [4717,1532798545,56.8321,-111.2067,1092.5,647.5,57.2,5.0,1.2,20.05,50.6,1.9081,374.7158],
    [4718,1532798546,56.8324,-111.2057,1091.9,647.9,53.7,4.8,1.0,19.76,50.74,1.9072,377.2049],
    [4719,1532798547,56.8328,-111.2047,1091.1,647.1,50.3,4.5,0.7,20.03,51.01,1.9065,377.6723],
    [4720,1532798548,56.8332,-111.2038,1090.2,646.2,46.8,4.3,0.5,19.83,50.78,1.9048,378.0605],
    [4721,1532798549,56.8337,-111.203,1088.8,644.8,43.7,4.0,0.8,20.19,50.39,1.9042,377.8705],
    [4722,1532798550,56.8341,-111.2022,1087.1,643.1,39.2,4.7,0.8,20.44,49.67,1.9055,377.7995],
    [4723,1532798551,56.8346,-111.2014,1085.0,641.0,34.6,5.3,0.9,19.81,50.24,1.9088,375.5497],
    [4724,1532798552,56.8352,-111.2007,1082.7,638.7,30.4,5.2,1.1,19.97,50.28,1.9064,377.5075],
    [4725,1532798553,56.8357,-111.2001,1080.1,636.1,26.1,5.5,1.6,19.37,49.76,1.9057,377.6536],
    [4726,1532798554,56.8363,-111.1996,1077.2,632.2,22.0,5.8,2.2,20.67,49.08,1.9062,377.3129],
    [4727,1532798555,56.8369,-111.1991,1073.7,628.8,17.8,6.0,2.6,19.84,49.84,1.9114,376.4096],
    [4728,1532798556,56.8375,-111.1987,1069.7,622.7,12.9,6.9,3.9,20.1,49.17,1.9095,376.4096],
    [4729,1532798557,56.8382,-111.1984,1065.9,617.8,8.2,7.4,4.6,19.63,49.67,1.9072,376.9717],
    [4730,1532798558,56.8388,-111.1981,1062.5,613.4,3.6,7.6,5.5,19.64,49.67,1.9089,376.3899],
    [4731,1532798559,56.8394,-111.198,1059.6,610.7,359.9,7.7,5.8,20.64,49.45,1.9107,375.4138],
    [4732,1532798560,56.8401,-111.1979,1057.4,607.4,357.3,7.3,6.9,20.16,49.65,1.9069,375.5919],
    [4733,1532798561,56.8407,-111.1978,1055.9,605.9,356.3,6.1,7.5,20.3,49.3,1.9081,374.8827],
    [4734,1532798562,56.8413,-111.1978,1055.6,604.6,354.4,6.5,7.2,20.06,50.06,1.9082,374.9173],
    [4735,1532798563,56.842,-111.1978,1056.9,605.9,353.0,6.4,7.2,20.12,50.4,1.9095,375.4961],
    [4736,1532798564,56.8426,-111.1979,1059.3,608.3,352.6,5.8,6.6,19.94,50.03,1.9097,373.1763],
    [4737,1532798565,56.8432,-111.1979,1062.7,610.6,351.1,6.3,5.9,19.98,51.12,1.9088,373.1763],
    [4738,1532798566,56.8438,-111.198,1066.8,614.8,350.2,6.4,5.4,19.93,51.09,1.9104,373.4981],
    [4739,1532798567,56.8444,-111.198,1071.0,620.0,349.8,6.3,4.9,20.16,51.36,1.909,374.2582],
    [4740,1532798568,56.845,-111.1981,1075.3,624.3,349.6,6.3,4.2,20.35,50.93,1.9071,374.637],
    [4741,1532798569,56.8456,-111.1982,1080.0,629.0,349.4,6.5,3.7,20.06,51.48,1.9061,375.7086],
    [4742,1532798570,56.8462,-111.1983,1083.5,633.5,349.3,6.6,3.7,19.71,51.15,1.9052,376.9619],
    [4743,1532798571,56.8467,-111.1984,1085.3,635.3,350.0,6.2,3.7,19.94,50.91,1.9057,376.9619],
    [4744,1532798572,56.8473,-111.1984,1085.6,635.6,350.7,6.0,3.9,19.95,50.43,1.9063,377.1769],
    [4745,1532798573,56.8479,-111.1985,1085.6,636.6,350.7,6.5,4.2,19.99,51.29,1.9034,378.0062],
    [4746,1532798574,56.8485,-111.1985,1085.6,636.6,350.9,6.4,4.2,19.9,50.53,1.9034,378.8707],
    [4747,1532798575,56.849,-111.1986,1086.0,637.0,351.3,6.1,4.1,19.83,50.69,1.9037,377.5858],
    [4748,1532798576,56.8496,-111.1986,1087.2,638.2,350.9,6.3,4.0,19.75,50.85,1.9037,377.421],
    [4749,1532798577,56.8502,-111.1987,1089.1,640.1,349.9,6.8,3.7,20.74,50.09,1.9051,376.9855],
    [4750,1532798578,56.8508,-111.1988,1091.3,642.3,349.2,7.1,3.5,20.23,50.42,1.9056,377.1955],
    [4751,1532798579,56.8514,-111.1989,1093.9,644.9,348.8,7.1,2.9,19.84,49.8,1.9053,377.2245],
    [4752,1532798580,56.8519,-111.1989,1096.5,648.5,348.3,7.3,2.5,19.9,49.23,1.9045,378.6786],
    [4753,1532798581,56.8525,-111.199,1099.3,651.3,347.6,7.8,2.0,19.73,48.46,1.9053,378.6786],
    [4754,1532798582,56.853,-111.1991,1102.0,654.0,347.2,7.9,1.5,19.96,48.51,1.905,378.1815],
    [4755,1532798583,56.8536,-111.1992,1103.6,655.6,347.2,7.7,1.2,19.84,48.7,1.9064,376.7885],
    [4756,1532798584,56.8542,-111.1993,1104.0,656.0,346.8,8.0,0.9,19.28,47.83,1.9046,375.8284],
    [4757,1532798585,56.8547,-111.1994,1103.8,655.8,346.6,8.1,0.5,19.97,48.0,1.9055,378.4453],
    [4758,1532798586,56.8553,-111.1995,1103.4,655.4,347.1,7.7,0.2,19.77,47.67,1.9064,377.8503],
    [4759,1532798587,56.8558,-111.1996,1102.9,654.9,347.7,7.6,-0.4,19.92,48.51,1.9114,376.9616],
    [4760,1532798588,56.8564,-111.1997,1102.3,654.3,348.2,7.7,-0.9,19.43,48.47,1.92,376.9616],
    [4761,1532798589,56.8569,-111.1998,1101.7,653.7,348.9,7.5,-1.5,20.35,49.09,1.9251,374.7209],
    [4762,1532798590,56.8575,-111.1999,1101.3,654.3,349.4,7.3,-1.5,19.78,50.03,1.9299,375.8242],
    [4763,1532798591,56.858,-111.2,1100.8,653.8,349.5,7.2,-0.6,20.3,50.56,1.9382,375.8242],
    [4764,1532798592,56.8586,-111.2,1100.3,653.3,349.7,6.8,1.0,20.06,53.26,1.9485,376.3904],
    [4765,1532798593,56.8592,-111.2001,1099.6,652.6,349.5,6.8,1.3,19.61,53.78,1.9464,376.7727],
    [4766,1532798594,56.8597,-111.2002,1098.6,651.6,349.2,7.3,0.3,20.39,54.02,1.925,376.438],
    [4767,1532798595,56.8603,-111.2003,1097.2,651.2,348.7,7.7,1.0,19.92,54.92,1.9112,375.9506],
    [4768,1532798596,56.8609,-111.2003,1096.3,650.3,348.4,8.1,1.3,19.61,54.94,1.9094,375.9506],
    [4769,1532798597,56.8614,-111.2004,1095.9,649.9,349.1,7.5,1.7,20.45,53.92,1.9056,377.1787],
    [4770,1532798598,56.862,-111.2005,1095.3,649.3,351.1,6.3,1.5,19.53,52.94,1.9041,375.6382],
    [4771,1532798599,56.8626,-111.2005,1094.1,648.1,354.3,4.7,1.1,19.94,52.65,1.9046,376.3839],
    [4772,1532798600,56.8632,-111.2005,1093.8,647.8,355.8,4.9,1.3,19.51,51.49,1.9049,377.5014],
    [4773,1532798601,56.8638,-111.2005,1094.7,648.7,358.0,3.7,1.2,19.82,51.34,1.905,377.1979],
    [4774,1532798602,56.8644,-111.2005,1095.4,649.4,358.4,4.2,1.0,19.77,51.28,1.9038,377.1001],
    [4775,1532798603,56.865,-111.2005,1095.9,649.9,357.6,5.5,1.3,19.82,50.82,1.906,377.1345],
    [4776,1532798604,56.8656,-111.2004,1096.5,650.5,357.8,5.7,1.4,19.9,50.68,1.9041,376.7048],
    [4777,1532798605,56.8662,-111.2003,1096.8,650.8,357.3,6.7,1.4,19.87,50.62,1.9048,378.1926],
    [4778,1532798606,56.8668,-111.2003,1096.7,650.7,356.9,7.1,1.6,19.59,50.83,1.9041,378.5849],
    [4779,1532798607,56.8674,-111.2002,1095.0,649.0,357.2,6.8,1.8,20.11,50.34,1.9049,379.126],
    [4780,1532798608,56.868,-111.2002,1092.4,646.4,357.4,6.5,2.0,19.84,51.09,1.9071,379.1926],
    [4781,1532798609,56.8686,-111.2001,1090.4,644.4,357.3,6.0,2.1,20.67,50.43,1.905,378.8444],
    [4782,1532798610,56.8692,-111.2001,1089.1,643.8,356.0,6.4,1.9,19.66,51.05,1.9066,378.8444],
    [4783,1532798611,56.8698,-111.2001,1088.5,643.5,354.5,6.8,1.9,19.55,50.88,1.9056,377.2762],
    [4784,1532798612,56.8704,-111.2001,1088.6,643.6,353.7,6.8,2.0,19.4,50.81,1.9052,378.2403],
    [4785,1532798613,56.871,-111.2001,1089.1,644.1,352.9,7.4,2.0,19.8,50.66,1.9044,377.8647],
    [4786,1532798614,56.8716,-111.2001,1089.6,644.6,353.4,7.0,2.1,20.34,49.96,1.9052,378.1237],
    [4787,1532798615,56.8722,-111.2001,1090.0,645.0,354.0,6.8,2.1,20.2,50.05,1.9044,377.2539],
    [4788,1532798616,56.8728,-111.2001,1090.3,645.3,354.1,7.0,2.2,19.89,50.5,1.9048,378.9138],
    [4789,1532798617,56.8734,-111.2001,1090.1,645.1,354.6,6.8,2.3,19.99,50.28,1.9051,377.1539],
    [4790,1532798618,56.874,-111.2001,1089.6,644.6,354.9,6.7,2.5,20.15,50.14,1.9055,377.7477],
    [4791,1532798619,56.8746,-111.2,1089.0,644.0,355.2,6.6,2.5,20.0,50.26,1.9041,378.9138],
    [4792,1532798620,56.8753,-111.2,1088.5,644.3,355.6,6.4,2.7,19.86,50.21,1.9065,378.6649],
    [4793,1532798621,56.8759,-111.2,1088.4,645.4,355.8,6.4,2.8,19.71,50.64,1.9047,378.7037],
    [4794,1532798622,56.8765,-111.2,1088.7,646.8,355.6,6.7,2.9,20.37,50.18,1.9049,377.7461],
    [4795,1532798623,56.8771,-111.1999,1089.1,647.0,355.8,6.6,2.8,20.42,50.39,1.9043,378.1617],
    [4796,1532798624,56.8777,-111.1999,1089.5,648.5,355.8,6.6,2.7,19.79,50.69,1.9051,378.9877],
    [4797,1532798625,56.8783,-111.1999,1089.8,648.8,355.6,6.8,2.6,19.61,50.54,1.9045,378.2301],
    [4798,1532798626,56.8789,-111.1998,1090.2,649.2,355.6,6.7,2.6,19.31,50.52,1.9042,378.6925],
    [4799,1532798627,56.8795,-111.1998,1090.8,651.8,355.3,6.8,2.4,20.37,50.14,1.9032,379.2872],
    [4800,1532798628,56.8801,-111.1998,1091.5,654.0,355.0,6.9,2.3,19.69,50.47,1.9033,379.5451],
    [4801,1532798629,56.8807,-111.1998,1092.2,655.2,354.9,6.8,1.9,19.85,50.71,1.9037,378.7722],
    [4802,1532798630,56.8813,-111.1998,1092.9,655.9,354.6,6.8,1.6,19.32,50.63,1.9044,378.5457],
    [4803,1532798631,56.8819,-111.1997,1093.4,656.4,354.1,7.1,1.4,20.64,50.2,1.9036,377.5227],
    [4804,1532798632,56.8825,-111.1997,1093.6,657.7,354.1,7.0,1.2,20.05,50.72,1.9059,379.0202],
    [4805,1532798633,56.8831,-111.1997,1093.7,658.7,354.0,7.2,0.9,20.15,50.84,1.9057,378.5155],
    [4806,1532798634,56.8837,-111.1997,1093.5,660.5,353.9,7.2,0.6,20.48,50.62,1.9061,378.9276],
    [4807,1532798635,56.8843,-111.1997,1093.1,662.9,354.2,7.0,0.2,19.88,50.49,1.9042,377.5542],
    [4808,1532798636,56.8849,-111.1997,1092.5,666.5,354.3,7.1,0.1,19.96,51.29,1.9041,377.5807],
    [4809,1532798637,56.8855,-111.1997,1091.7,668.9,354.5,6.9,0.0,20.48,49.61,1.9058,377.5892],
    [4810,1532798638,56.8861,-111.1997,1090.5,670.5,354.8,6.7,0.1,19.57,48.87,1.9058,377.2298],
    [4811,1532798639,56.8867,-111.1997,1089.3,672.6,354.9,6.7,0.3,19.68,48.21,1.9069,377.6984],
    [4812,1532798640,56.8873,-111.1997,1087.9,675.6,354.9,6.6,0.4,20.5,47.11,1.9071,377.2643],
    [4813,1532798641,56.8879,-111.1997,1086.2,678.2,354.9,6.6,0.5,20.25,47.39,1.9066,377.2664],
    [4814,1532798642,56.8886,-111.1997,1084.1,680.6,354.9,6.5,0.6,20.76,46.69,1.9067,376.4513],
    [4815,1532798643,56.8892,-111.1997,1081.9,686.1,354.9,6.5,1.0,20.26,46.86,1.9066,377.7117],
    [4816,1532798644,56.8898,-111.1997,1079.7,689.1,354.9,6.4,1.3,20.75,46.7,1.9056,377.7406],
    [4817,1532798645,56.8904,-111.1997,1077.6,691.6,355.1,6.1,1.6,20.43,47.41,1.9077,378.2684],
    [4818,1532798646,56.891,-111.1996,1075.8,694.2,355.4,5.6,1.8,20.46,47.76,1.9074,377.5157],
    [4819,1532798647,56.8916,-111.1996,1074.9,697.6,355.4,5.5,1.9,20.24,49.06,1.9071,377.5157],
    [4820,1532798648,56.8922,-111.1996,1074.6,703.2,355.3,5.5,1.9,20.33,49.12,1.9065,378.5106],
    [4821,1532798649,56.8929,-111.1996,1074.2,708.2,355.1,5.6,2.0,20.31,48.81,1.9061,378.1604],
    [4822,1532798650,56.8935,-111.1996,1073.4,711.8,354.9,5.9,2.0,19.62,48.59,1.9054,378.1137],
    [4823,1532798651,56.8941,-111.1996,1072.7,714.0,355.5,5.6,2.0,20.27,48.26,1.9071,378.1231],
    [4824,1532798652,56.8947,-111.1996,1072.2,715.2,355.5,5.8,2.0,20.89,47.7,1.9046,378.5816],
    [4825,1532798653,56.8954,-111.1996,1072.1,714.1,355.2,6.0,2.0,20.79,47.37,1.906,377.6442],
    [4826,1532798654,56.896,-111.1996,1072.2,713.2,355.4,6.0,1.8,19.64,47.78,1.906,378.2737],
    [4827,1532798655,56.8966,-111.1996,1072.3,711.0,355.2,6.3,1.6,19.83,47.41,1.9047,378.1077],
    [4828,1532798656,56.8972,-111.1996,1072.6,704.9,355.1,6.6,1.5,20.03,47.97,1.906,378.0176],
    [4829,1532798657,56.8978,-111.1996,1072.7,699.7,355.5,6.3,1.4,20.23,47.38,1.9065,378.9814],
    [4830,1532798658,56.8985,-111.1996,1072.8,691.9,356.2,6.0,1.5,20.29,47.61,1.9058,377.5193],
    [4831,1532798659,56.8991,-111.1995,1072.8,682.7,356.7,6.0,1.6,20.6,47.58,1.9052,377.4652],
    [4832,1532798660,56.8997,-111.1995,1072.7,674.7,357.2,5.9,1.6,20.44,48.2,1.9065,378.3887],
    [4833,1532798661,56.9003,-111.1995,1072.4,664.4,357.7,5.9,1.5,20.4,48.85,1.9042,378.6283],
    [4834,1532798662,56.901,-111.1994,1072.1,655.2,358.1,5.9,1.7,20.2,49.66,1.9056,379.1665],
    [4835,1532798663,56.9016,-111.1993,1071.7,648.3,358.6,5.9,1.9,19.93,49.9,1.9054,379.1665],
    [4836,1532798664,56.9022,-111.1993,1071.3,643.6,359.0,5.7,2.2,20.92,49.02,1.9047,379.7144],
    [4837,1532798665,56.9028,-111.1992,1070.9,642.1,359.3,5.7,2.5,20.06,49.91,1.9039,379.6127],
    [4838,1532798666,56.9034,-111.1991,1070.6,642.6,359.4,5.8,2.7,20.31,50.1,1.9048,379.1482],
    [4839,1532798667,56.9041,-111.199,1070.5,645.9,359.3,5.9,2.9,20.12,50.08,1.9039,378.4669],
    [4840,1532798668,56.9047,-111.1989,1070.4,647.2,359.0,6.0,3.2,20.05,49.83,1.9044,378.6355],
    [4841,1532798669,56.9053,-111.1989,1070.5,640.5,358.6,6.2,3.3,20.09,49.96,1.905,377.7451],
    [4842,1532798670,56.9059,-111.1988,1070.9,638.3,358.3,6.1,3.3,20.01,50.08,1.9054,377.4809],
    [4843,1532798671,56.9066,-111.1987,1071.4,636.2,358.0,6.1,3.5,20.27,50.18,1.9047,378.0245],
    [4844,1532798672,56.9072,-111.1987,1072.3,635.3,357.7,6.1,3.6,20.43,50.6,1.9037,378.404],
    [4845,1532798673,56.9078,-111.1986,1073.2,635.2,357.6,5.9,3.7,20.64,49.84,1.9034,378.4422],
    [4846,1532798674,56.9084,-111.1986,1074.3,636.2,357.4,5.9,3.7,20.53,49.95,1.9043,378.4422],
    [4847,1532798675,56.909,-111.1985,1075.3,638.1,357.0,6.0,3.8,20.05,50.5,1.9032,378.3654],
    [4848,1532798676,56.9097,-111.1985,1076.3,639.3,356.8,5.9,4.0,20.16,50.41,1.9037,378.3654],
    [4849,1532798677,56.9103,-111.1984,1077.1,640.1,356.5,6.0,4.0,20.1,50.46,1.9025,378.6074],
    [4850,1532798678,56.9109,-111.1984,1077.7,640.5,356.2,6.0,4.1,19.97,50.51,1.903,377.3692],
    [4851,1532798679,56.9115,-111.1984,1078.5,640.4,355.9,6.0,4.1,19.81,50.78,1.9028,378.0379],
    [4852,1532798680,56.9121,-111.1984,1079.8,641.8,355.1,6.2,3.8,20.51,50.4,1.9034,379.0246],
    [4853,1532798681,56.9127,-111.1984,1081.4,644.2,354.3,6.4,3.6,20.76,50.17,1.9025,377.0141],
    [4854,1532798682,56.9133,-111.1984,1083.1,644.7,353.7,6.6,3.3,20.13,50.94,1.9027,378.9],
    [4855,1532798683,56.9139,-111.1984,1084.8,645.5,353.6,6.5,3.0,20.61,50.27,1.9014,378.6048],
    [4856,1532798684,56.9145,-111.1984,1086.6,650.2,353.9,6.2,2.6,20.03,50.83,1.9016,378.6048],
    [4857,1532798685,56.9151,-111.1984,1088.3,655.5,353.7,6.4,2.3,19.96,50.45,1.9014,377.5337],
    [4858,1532798686,56.9157,-111.1984,1089.9,657.2,353.6,6.6,1.9,19.58,50.4,1.9024,376.7028],
    [4859,1532798687,56.9163,-111.1984,1091.2,655.2,354.0,6.3,1.5,21.09,49.8,1.9032,377.1518],
    [4860,1532798688,56.9169,-111.1984,1092.1,652.4,353.9,6.5,1.2,20.39,50.71,1.9032,377.5995],
    [4861,1532798689,56.9175,-111.1984,1092.7,650.6,354.1,6.5,1.2,19.86,50.06,1.9034,376.4969],
    [4862,1532798690,56.9181,-111.1984,1092.8,648.8,354.4,6.3,1.1,20.32,50.08,1.9033,377.7701],
    [4863,1532798691,56.9187,-111.1984,1092.6,648.6,354.4,6.4,1.1,19.96,50.12,1.9046,377.7701],
    [4864,1532798692,56.9193,-111.1984,1092.2,647.2,354.4,6.4,1.2,20.17,50.7,1.9032,378.6769],
    [4865,1532798693,56.9199,-111.1984,1091.5,645.5,354.3,6.3,1.3,20.3,50.32,1.9026,379.2083],
    [4866,1532798694,56.9205,-111.1985,1090.7,644.7,354.0,6.2,1.4,20.31,49.91,1.9023,378.5344],
    [4867,1532798695,56.9211,-111.1985,1089.7,642.7,353.7,6.3,1.6,20.74,49.62,1.9034,380.2171],
    [4868,1532798696,56.9217,-111.1985,1088.6,641.6,353.4,6.3,1.7,20.45,50.31,1.9042,379.0008],
    [4869,1532798697,56.9223,-111.1985,1087.5,639.3,353.2,6.2,1.6,20.15,50.82,1.9069,378.3953],
    [4870,1532798698,56.9229,-111.1985,1086.3,639.0,352.9,6.1,1.7,20.41,50.94,1.9065,377.8861],
    [4871,1532798699,56.9235,-111.1986,1085.2,638.2,352.7,6.1,1.8,20.44,50.69,1.9053,377.8861],
    [4872,1532798700,56.9241,-111.1986,1084.1,637.0,352.5,6.2,1.7,20.27,50.15,1.9052,379.057],
    [4873,1532798701,56.9247,-111.1986,1083.4,637.4,352.3,6.4,1.6,20.15,50.4,1.906,378.4971],
    [4874,1532798702,56.9253,-111.1987,1083.2,637.2,352.3,6.4,1.6,20.18,50.92,1.9038,379.4326],
    [4875,1532798703,56.9259,-111.1987,1083.1,638.1,352.3,6.3,1.5,19.8,50.54,1.9033,379.4326],
    [4876,1532798704,56.9265,-111.1988,1083.2,639.2,352.3,6.4,1.5,20.65,50.38,1.9017,378.2098],
    [4877,1532798705,56.9271,-111.1988,1082.9,638.9,352.3,6.3,1.5,20.52,49.97,1.9024,378.715],
    [4878,1532798706,56.9277,-111.1989,1082.4,638.4,352.3,6.1,1.6,19.53,50.5,1.9017,379.889],
    [4879,1532798707,56.9283,-111.1989,1081.8,637.8,352.3,5.9,1.8,20.57,49.65,1.9025,378.9048],
    [4880,1532798708,56.9289,-111.199,1081.0,636.0,352.1,5.9,2.0,20.32,50.08,1.9028,378.3458],
    [4881,1532798709,56.9295,-111.199,1080.2,634.2,351.7,6.0,2.3,20.2,50.69,1.9048,377.2159],
    [4882,1532798710,56.9301,-111.1991,1079.4,633.4,351.7,5.8,2.4,20.05,49.9,1.9052,378.0708],
    [4883,1532798711,56.9307,-111.1991,1078.7,631.7,351.4,6.0,2.7,19.88,50.1,1.907,377.8193],
    [4884,1532798712,56.9313,-111.1992,1078.3,631.3,351.4,6.0,2.9,19.72,49.51,1.9054,377.5526],
    [4885,1532798713,56.9319,-111.1993,1078.3,631.3,351.6,5.9,2.9,19.74,49.4,1.9053,377.4797],
    [4886,1532798714,56.9325,-111.1993,1078.6,631.6,351.7,6.0,3.0,20.36,49.04,1.9055,377.9995],
    [4887,1532798715,56.9331,-111.1994,1079.2,632.2,351.8,6.1,3.0,20.23,49.41,1.9069,378.3268],
    [4888,1532798716,56.9337,-111.1994,1080.2,633.2,352.2,6.0,2.9,19.5,49.07,1.907,377.9158],
    [4889,1532798717,56.9343,-111.1995,1081.2,633.2,352.5,6.1,2.9,20.61,49.02,1.9052,377.3512],
    [4890,1532798718,56.9349,-111.1995,1082.4,634.4,353.1,6.0,2.9,20.2,49.1,1.9055,377.6402],
    [4891,1532798719,56.9355,-111.1995,1083.6,636.6,353.8,5.6,2.7,20.13,48.85,1.9061,377.6402],
    [4892,1532798720,56.9361,-111.1995,1084.7,637.7,354.4,5.3,2.7,20.41,48.07,1.9057,378.3748],
    [4893,1532798721,56.9367,-111.1995,1085.8,637.7,354.5,5.5,2.5,20.44,48.02,1.9052,377.1702],
    [4894,1532798722,56.9373,-111.1996,1086.8,638.5,354.4,5.6,2.4,20.7,47.48,1.906,378.5742],
    [4895,1532798723,56.9379,-111.1996,1087.7,638.7,354.4,5.6,2.3,19.92,48.04,1.9068,377.174],
    [4896,1532798724,56.9385,-111.1996,1088.5,639.5,354.3,5.7,2.1,20.14,48.47,1.9076,378.498],
    [4897,1532798725,56.9391,-111.1996,1089.4,639.3,354.4,5.6,2.0,20.22,48.71,1.907,377.9333],
    [4898,1532798726,56.9397,-111.1996,1090.2,640.2,354.6,5.4,1.9,20.63,48.81,1.9057,377.2855],
    [4899,1532798727,56.9403,-111.1996,1091.0,641.0,354.6,5.4,1.9,20.24,49.04,1.9065,377.9644],
    [4900,1532798728,56.9409,-111.1996,1091.8,641.8,354.7,5.4,1.6,19.66,48.62,1.9055,376.5959],
    [4901,1532798729,56.9415,-111.1996,1092.5,642.5,354.7,5.5,1.3,19.96,48.59,1.9058,376.5959],
    [4902,1532798730,56.9421,-111.1997,1093.0,642.0,354.7,5.5,1.2,20.24,48.02,1.906,376.6291],
    [4903,1532798731,56.9427,-111.1997,1093.4,642.4,354.8,5.4,1.0,20.75,47.09,1.9065,378.3352],
    [4904,1532798732,56.9433,-111.1997,1093.7,642.7,354.6,5.6,0.9,19.53,47.48,1.9069,377.3404],
    [4905,1532798733,56.9439,-111.1997,1093.8,642.8,354.5,5.7,0.9,20.54,47.34,1.908,377.8543],
    [4906,1532798734,56.9445,-111.1997,1093.7,642.7,354.5,5.6,1.0,20.19,48.29,1.9077,378.6169],
    [4907,1532798735,56.945,-111.1997,1093.5,643.5,354.4,5.6,1.1,19.91,49.03,1.9091,378.5146],
    [4908,1532798736,56.9456,-111.1997,1093.2,643.2,354.4,5.5,1.1,20.84,48.9,1.9071,378.3927],
    [4909,1532798737,56.9462,-111.1997,1092.7,642.7,354.5,5.1,1.3,20.24,49.68,1.9076,378.7098],
    [4910,1532798738,56.9468,-111.1998,1092.2,642.2,354.4,5.0,1.4,20.12,50.36,1.9082,379.2764],
    [4911,1532798739,56.9474,-111.1998,1091.8,641.8,354.3,4.8,1.4,20.92,49.94,1.9064,378.679],
    [4912,1532798740,56.948,-111.1998,1091.4,642.4,353.9,5.0,1.4,20.31,50.93,1.9057,378.1186],
    [4913,1532798741,56.9486,-111.1998,1091.2,642.2,353.4,5.3,1.4,19.58,50.4,1.9065,377.8384],
    [4914,1532798742,56.9492,-111.1999,1091.1,642.1,353.3,5.2,1.5,20.23,49.79,1.9075,378.2222],
    [4915,1532798743,56.9498,-111.1999,1091.0,642.0,353.0,5.3,1.7,20.16,50.32,1.9066,378.614],
    [4916,1532798744,56.9504,-111.2,1091.2,642.5,352.7,5.5,1.8,19.98,49.75,1.9063,380.1304],
    [4917,1532798745,56.951,-111.2,1091.4,643.4,352.8,5.6,1.9,20.88,49.74,1.9081,380.1304],
    [4918,1532798746,56.9516,-111.2001,1091.6,643.6,353.0,5.4,2.1,21.0,50.12,1.9074,377.56],
    [4919,1532798747,56.9522,-111.2001,1091.9,643.9,353.3,5.4,2.4,20.23,51.28,1.9071,377.4583],
    [4920,1532798748,56.9528,-111.2001,1092.1,644.8,353.8,5.3,2.4,20.22,51.76,1.9061,378.5281],
    [4921,1532798749,56.9534,-111.2002,1092.3,645.3,354.3,5.1,2.5,20.4,51.08,1.9072,377.9426],
    [4922,1532798750,56.9541,-111.2002,1092.4,645.4,354.9,4.9,2.6,19.98,51.39,1.9059,377.9808],
    [4923,1532798751,56.9547,-111.2002,1092.6,645.6,355.3,5.0,2.7,20.22,51.35,1.9043,377.9819],
    [4924,1532798752,56.9553,-111.2002,1092.9,646.9,355.7,5.1,2.8,20.24,51.79,1.9055,377.8525],
    [4925,1532798753,56.9559,-111.2002,1093.5,647.5,356.4,5.2,3.0,19.94,50.53,1.905,377.8457],
    [4926,1532798754,56.9565,-111.2002,1094.2,648.2,357.0,5.3,3.1,20.28,49.48,1.9045,377.8916],
    [4927,1532798755,56.9572,-111.2001,1095.0,649.0,357.7,5.3,3.2,19.97,49.09,1.9042,376.969],
    [4928,1532798756,56.9578,-111.2001,1095.9,649.9,358.6,5.0,3.3,20.26,48.75,1.9062,376.795],
    [4929,1532798757,56.9584,-111.2,1096.8,650.8,358.8,5.1,3.2,20.29,47.48,1.9065,378.6978],
    [4930,1532798758,56.959,-111.1999,1097.8,651.8,358.6,5.3,3.1,20.1,47.36,1.9051,377.5566],
    [4931,1532798759,56.9596,-111.1999,1098.9,652.2,358.4,5.4,3.0,20.25,46.67,1.9051,376.7567],
    [4932,1532798760,56.9602,-111.1998,1100.0,653.0,358.2,5.4,2.9,20.59,46.46,1.9051,377.6798],
    [4933,1532798761,56.9608,-111.1998,1101.2,654.2,357.9,5.3,2.7,20.37,46.28,1.906,377.5061],
    [4934,1532798762,56.9614,-111.1997,1102.3,655.3,357.7,5.2,2.6,20.2,46.36,1.9059,377.8743],
    [4935,1532798763,56.962,-111.1997,1103.5,656.5,357.4,5.0,2.4,20.37,46.31,1.9074,376.5735],
    [4936,1532798764,56.9626,-111.1997,1104.7,657.7,357.2,4.9,2.3,20.34,47.05,1.9084,378.373],
    [4937,1532798765,56.9632,-111.1996,1105.9,658.9,356.7,4.9,2.1,20.51,46.41,1.9078,377.471],
    [4938,1532798766,56.9638,-111.1996,1107.0,660.0,356.2,4.8,1.7,19.72,46.42,1.9087,377.7845],
    [4939,1532798767,56.9644,-111.1996,1108.0,661.0,355.7,4.8,1.5,20.92,45.88,1.9099,376.739],
    [4940,1532798768,56.965,-111.1996,1108.5,660.4,355.2,4.8,1.5,19.59,46.14,1.9086,377.8491],
    [4941,1532798769,56.9656,-111.1996,1108.7,661.7,354.8,4.9,1.5,20.43,45.85,1.9106,376.8046],
    [4942,1532798770,56.9662,-111.1997,1108.7,661.7,354.8,4.9,1.5,20.38,45.8,1.9099,376.3658],
    [4943,1532798771,56.9669,-111.1997,1108.9,661.9,355.3,4.5,1.4,20.59,45.22,1.9114,376.8584],
    [4944,1532798772,56.9675,-111.1997,1109.5,662.8,355.3,4.6,1.3,20.7,45.06,1.9121,376.2184],
    [4945,1532798773,56.9681,-111.1997,1110.1,664.1,355.4,4.6,1.2,20.85,45.09,1.9108,376.1728],
    [4946,1532798774,56.9687,-111.1997,1110.4,664.4,355.5,4.5,1.1,20.4,45.34,1.911,376.347],
    [4947,1532798775,56.9693,-111.1997,1110.3,664.3,355.7,4.4,1.1,20.79,45.01,1.9112,375.5749],
    [4948,1532798776,56.9699,-111.1997,1109.9,663.9,356.1,4.3,1.1,20.25,44.95,1.9121,376.5707],
    [4949,1532798777,56.9705,-111.1997,1109.3,663.3,356.5,4.2,1.1,19.5,45.23,1.9109,376.8023],
    [4950,1532798778,56.9711,-111.1997,1108.6,662.6,356.9,4.0,1.1,20.98,44.39,1.9108,376.5912],
    [4951,1532798779,56.9717,-111.1997,1107.9,661.9,356.9,4.3,1.1,20.47,44.88,1.9108,376.8764],
    [4952,1532798780,56.9723,-111.1997,1107.3,661.3,356.8,4.5,1.0,20.37,44.97,1.911,378.358],
    [4953,1532798781,56.9729,-111.1997,1106.6,660.6,357.1,4.3,1.0,20.64,44.48,1.9097,377.3447],
    [4954,1532798782,56.9735,-111.1997,1105.9,659.9,357.4,4.1,1.0,20.43,44.67,1.909,377.511],
    [4955,1532798783,56.9741,-111.1997,1105.3,659.3,357.5,4.1,1.0,19.91,44.68,1.9089,377.5134],
    [4956,1532798784,56.9747,-111.1996,1104.9,658.8,357.4,4.3,1.0,20.68,44.69,1.9085,377.6646],
    [4957,1532798785,56.9753,-111.1996,1104.4,659.4,357.4,4.3,1.0,20.06,45.09,1.9091,378.2288],
    [4958,1532798786,56.976,-111.1996,1104.0,659.0,357.4,4.2,1.0,19.66,45.38,1.9066,377.1053],
    [4959,1532798787,56.9766,-111.1996,1103.5,659.5,357.4,4.3,0.9,19.95,45.48,1.9077,377.9918],
    [4960,1532798788,56.9772,-111.1996,1102.8,658.8,357.3,4.4,0.7,20.22,45.97,1.9074,377.7379],
    [4961,1532798789,56.9778,-111.1995,1101.8,659.8,357.5,4.2,0.5,20.31,45.81,1.9065,378.4354],
    [4962,1532798790,56.9784,-111.1995,1100.6,659.6,357.6,4.1,0.5,20.42,45.99,1.9068,378.0902],
    [4963,1532798791,56.979,-111.1995,1099.4,659.4,357.7,4.0,0.4,19.73,45.85,1.9064,378.0902],
    [4964,1532798792,56.9796,-111.1995,1098.1,659.1,357.6,4.1,0.4,20.46,45.68,1.9061,377.6894],
    [4965,1532798793,56.9803,-111.1995,1096.8,658.8,357.5,4.1,0.5,20.59,45.04,1.9092,376.8952],
    [4966,1532798794,56.9809,-111.1994,1095.4,657.4,357.5,4.1,0.6,19.94,45.55,1.9082,377.1878],
    [4967,1532798795,56.9815,-111.1994,1094.2,656.2,357.4,4.2,0.8,19.97,46.07,1.9084,378.9894],
    [4968,1532798796,56.9821,-111.1994,1092.8,654.5,357.4,4.2,1.1,20.38,45.98,1.9075,378.9894],
    [4969,1532798797,56.9828,-111.1994,1091.1,652.1,357.4,4.1,1.4,19.99,45.59,1.9073,377.2055],
    [4970,1532798798,56.9834,-111.1994,1089.1,650.1,357.4,4.1,1.8,19.9,45.61,1.9072,378.9476],
    [4971,1532798799,56.984,-111.1994,1086.9,647.9,357.4,4.2,2.2,20.55,45.37,1.9073,378.1091],
    [4972,1532798800,56.9847,-111.1993,1084.5,645.5,357.5,4.2,2.7,20.36,46.0,1.9079,377.9694],
    [4973,1532798801,56.9853,-111.1993,1082.2,643.2,357.7,4.0,3.3,20.6,45.14,1.9065,377.7124],
    [4974,1532798802,56.9859,-111.1993,1080.6,642.6,357.7,4.2,3.6,20.42,45.73,1.9079,377.5245],
    [4975,1532798803,56.9866,-111.1993,1079.7,641.7,357.7,4.2,3.8,20.57,45.08,1.9081,378.3878],
    [4976,1532798804,56.9872,-111.1992,1079.1,641.1,357.6,4.2,4.0,20.53,46.0,1.9075,377.881],
    [4977,1532798805,56.9879,-111.1992,1078.7,641.7,357.2,4.5,4.2,20.64,45.32,1.9066,378.1918],
    [4978,1532798806,56.9885,-111.1992,1078.7,641.7,357.2,4.4,4.3,21.31,44.95,1.9072,377.9844],
    [4979,1532798807,56.9892,-111.1992,1078.9,641.9,357.1,4.3,4.0,20.41,45.96,1.9082,377.9513],
    [4980,1532798808,56.9898,-111.1992,1079.4,642.4,357.0,4.3,3.7,20.4,46.29,1.9088,377.1308],
    [4981,1532798809,56.9904,-111.1992,1080.3,643.3,356.9,4.2,3.5,20.4,45.78,1.9071,377.6674],
    [4982,1532798810,56.9911,-111.1992,1081.3,643.9,356.6,4.3,3.3,21.09,45.04,1.9074,377.8104],
    [4983,1532798811,56.9917,-111.1992,1082.5,644.5,356.6,4.3,3.0,20.63,45.85,1.9069,378.0827],
    [4984,1532798812,56.9923,-111.1991,1083.7,645.7,356.7,4.2,2.7,20.2,46.04,1.9071,377.4154],
    [4985,1532798813,56.9929,-111.1991,1084.9,646.9,356.6,4.3,2.5,20.53,46.02,1.9076,378.0381],
    [4986,1532798814,56.9935,-111.1991,1086.1,648.1,356.7,4.4,2.4,21.1,45.76,1.909,377.6057],
    [4987,1532798815,56.9942,-111.1991,1087.1,649.1,356.8,4.4,2.2,20.37,46.2,1.9067,378.4905],
    [4988,1532798816,56.9948,-111.1991,1087.8,649.8,356.8,4.4,1.9,20.29,46.31,1.9074,377.2002],
    [4989,1532798817,56.9954,-111.1991,1087.9,649.9,356.8,4.4,1.8,20.38,46.5,1.9065,378.0873],
    [4990,1532798818,56.996,-111.1991,1087.8,649.8,356.8,4.4,1.8,20.26,46.31,1.9083,378.1354],
    [4991,1532798819,56.9966,-111.1991,1087.9,649.9,356.8,4.3,1.8,20.52,46.02,1.9067,376.9375],
    [4992,1532798820,56.9972,-111.1991,1087.9,650.0,356.7,4.3,1.9,20.45,45.95,1.9068,377.0216],
    [4993,1532798821,56.9979,-111.1991,1087.7,649.5,356.5,4.3,2.0,20.21,46.2,1.9067,378.0646],
    [4994,1532798822,56.9985,-111.1991,1087.5,649.0,356.3,4.3,2.0,19.63,45.93,1.9076,378.7711],
    [4995,1532798823,56.9991,-111.1991,1087.3,648.5,356.2,4.3,2.0,20.57,45.46,1.9076,378.1092],
    [4996,1532798824,56.9997,-111.1991,1087.0,648.4,355.9,4.4,2.1,20.07,45.64,1.9083,377.0767],
    [4997,1532798825,57.0003,-111.1991,1086.8,647.9,355.7,4.3,2.1,20.27,45.51,1.9079,376.8168],
    [4998,1532798826,57.001,-111.1991,1086.6,647.7,355.5,4.3,2.1,20.36,45.94,1.9086,378.0853],
    [4999,1532798827,57.0016,-111.1991,1086.5,647.4,355.3,4.4,2.1,19.98,46.02,1.9084,379.3349],
    [5000,1532798828,57.0022,-111.1991,1086.4,647.3,355.0,4.5,2.2,20.55,45.54,1.9069,377.2174],
    [5001,1532798829,57.0028,-111.1992,1086.4,647.4,354.9,4.5,2.2,20.36,46.25,1.9097,378.688],
    [5002,1532798830,57.0034,-111.1992,1086.4,647.4,354.9,4.4,2.2,20.02,45.63,1.9081,378.688],
    [5003,1532798831,57.004,-111.1992,1086.4,647.4,354.8,4.4,2.2,20.8,45.39,1.9073,376.9361],
    [5004,1532798832,57.0047,-111.1992,1086.4,647.4,354.6,4.4,2.1,20.28,45.68,1.9068,378.4217],
    [5005,1532798833,57.0053,-111.1993,1086.4,647.4,354.5,4.4,2.1,20.17,45.73,1.9071,379.7749],
    [5006,1532798834,57.0059,-111.1993,1086.5,647.5,354.5,4.4,2.0,20.36,46.5,1.9069,378.8325],
    [5007,1532798835,57.0065,-111.1993,1086.6,647.6,354.3,4.7,1.9,20.29,45.38,1.9071,377.6855],
    [5008,1532798836,57.0071,-111.1994,1086.7,647.7,354.7,4.5,1.9,21.16,45.25,1.9066,377.6855],
    [5009,1532798837,57.0077,-111.1994,1086.6,647.6,354.9,4.5,2.0,20.35,45.36,1.9075,377.6592],
    [5010,1532798838,57.0084,-111.1994,1086.6,647.6,355.2,4.5,1.8,21.14,45.03,1.908,377.4125],
    [5011,1532798839,57.009,-111.1994,1086.6,647.6,355.6,4.4,2.1,19.74,45.85,1.9076,377.3605],
    [5012,1532798840,57.0096,-111.1994,1086.5,647.5,355.9,4.3,2.0,19.88,45.63,1.9079,377.1963],
    [5013,1532798841,57.0102,-111.1994,1086.4,647.4,356.3,4.4,2.2,20.52,45.53,1.9086,378.9599],
    [5014,1532798842,57.0109,-111.1994,1086.3,647.3,356.6,4.4,2.5,20.55,46.1,1.9087,378.1072],
    [5015,1532798843,57.0115,-111.1994,1086.2,647.2,356.9,4.4,2.5,20.67,46.27,1.9084,379.0215],
    [5016,1532798844,57.0121,-111.1994,1086.1,647.1,357.1,4.5,2.3,21.22,46.29,1.9079,377.8283],
    [5017,1532798845,57.0127,-111.1994,1086.2,647.2,357.4,4.5,2.2,20.52,46.85,1.9089,378.9752],
    [5018,1532798846,57.0134,-111.1994,1086.5,647.5,357.7,4.4,2.3,19.91,47.77,1.9068,378.9912],
    [5019,1532798847,57.014,-111.1993,1086.9,647.9,357.8,4.4,2.4,20.23,47.91,1.9087,378.9387],
    [5020,1532798848,57.0146,-111.1993,1087.4,648.4,357.8,4.6,2.5,20.44,48.35,1.9064,378.099],
    [5021,1532798849,57.0152,-111.1993,1088.2,649.2,357.7,4.7,2.9,20.49,48.45,1.9074,378.099],
    [5022,1532798850,57.0158,-111.1992,1089.0,650.0,357.5,4.9,2.9,19.92,48.57,1.9062,378.5793],
    [5023,1532798851,57.0165,-111.1992,1089.9,650.9,357.5,4.6,2.8,20.55,47.85,1.9067,378.5793],
    [5024,1532798852,57.0171,-111.1992,1090.7,651.7,357.0,4.8,2.7,20.67,47.27,1.9057,377.4681],
    [5025,1532798853,57.0177,-111.1992,1091.5,652.5,355.9,5.4,2.6,20.47,47.07,1.9061,377.4747],
    [5026,1532798854,57.0183,-111.1992,1092.2,653.2,355.7,5.1,2.5,20.25,46.64,1.9084,377.9059],
    [5027,1532798855,57.0189,-111.1992,1092.7,653.7,355.4,5.1,2.4,20.48,46.57,1.9055,376.8723],
    [5028,1532798856,57.0196,-111.1992,1093.3,654.3,355.0,5.1,2.3,20.66,45.83,1.9061,377.622],
    [5029,1532798857,57.0202,-111.1992,1093.8,654.8,354.8,5.0,2.3,20.04,46.19,1.9053,377.3726],
    [5030,1532798858,57.0208,-111.1992,1094.2,655.1,354.4,5.1,2.2,20.39,46.81,1.906,378.1927],
    [5031,1532798859,57.0214,-111.1992,1094.5,654.5,353.9,5.2,2.2,20.35,46.32,1.9047,377.6407],
    [5032,1532798860,57.022,-111.1993,1094.7,654.7,353.7,5.0,2.0,20.16,46.96,1.906,379.2285],
    [5033,1532798861,57.0227,-111.1993,1094.8,654.8,353.7,4.7,2.1,20.17,46.37,1.9068,379.3664],
    [5034,1532798862,57.0233,-111.1994,1095.1,655.1,353.5,4.6,2.1,20.34,46.61,1.9061,377.8373],
    [5035,1532798863,57.0239,-111.1994,1095.5,655.5,353.5,4.5,2.0,20.43,46.14,1.9057,377.9804],
    [5036,1532798864,57.0245,-111.1995,1096.0,656.0,353.4,4.4,2.0,20.63,46.21,1.9078,376.0166],
    [5037,1532798865,57.0251,-111.1995,1096.6,656.6,353.2,4.4,1.9,19.87,46.12,1.9067,378.2657],
    [5038,1532798866,57.0257,-111.1996,1097.1,656.1,353.2,4.3,1.8,20.32,46.6,1.9068,378.2738],
    [5039,1532798867,57.0264,-111.1996,1097.7,656.7,353.1,4.3,1.6,19.78,46.15,1.9083,376.3036],
    [5040,1532798868,57.027,-111.1997,1098.3,657.3,353.2,4.3,1.4,19.99,46.53,1.9088,377.1764],
    [5041,1532798869,57.0276,-111.1998,1099.0,658.0,353.5,4.3,1.2,20.34,46.42,1.9063,377.3278],
    [5042,1532798870,57.0282,-111.1998,1099.6,658.6,353.7,4.3,0.8,20.71,45.96,1.9062,377.1343],
    [5043,1532798871,57.0288,-111.1999,1100.2,659.2,354.0,4.2,0.5,20.34,46.33,1.9078,378.7977],
    [5044,1532798872,57.0294,-111.1999,1100.8,659.1,354.5,4.1,0.0,20.53,45.77,1.9081,375.871],
    [5045,1532798873,57.0301,-111.2,1101.3,659.3,354.9,4.1,-0.4,19.69,46.2,1.9079,378.5586],
    [5046,1532798874,57.0307,-111.2,1101.6,659.6,355.3,4.1,-0.8,20.21,46.09,1.9093,376.9378],
    [5047,1532798875,57.0313,-111.2,1101.9,659.9,355.7,4.0,-0.8,19.79,46.18,1.9083,378.2829],
    [5048,1532798876,57.0319,-111.2,1101.9,659.9,356.2,4.0,-1.0,20.23,46.59,1.9071,378.4237],
    [5049,1532798877,57.0325,-111.2,1101.2,658.3,356.6,3.9,-1.0,20.47,46.26,1.9084,378.266],
    [5050,1532798878,57.0332,-111.2,1099.8,656.8,356.9,3.8,-0.9,20.33,46.41,1.9084,377.3377],
    [5051,1532798879,57.0338,-111.2,1097.9,654.9,357.1,3.7,-0.6,20.21,46.65,1.9079,377.5778],
    [5052,1532798880,57.0344,-111.2,1096.0,653.0,357.4,3.6,-0.2,20.32,46.99,1.9077,378.0467],
    [5053,1532798881,57.035,-111.2,1094.3,651.3,357.5,3.6,0.2,20.29,46.64,1.9073,377.2624],
    [5054,1532798882,57.0357,-111.2,1092.4,649.3,357.4,3.7,0.7,20.32,46.57,1.9087,377.8901],
    [5055,1532798883,57.0363,-111.2,1090.2,646.2,357.3,3.8,1.1,20.38,46.69,1.9067,377.0729],
    [5056,1532798884,57.0369,-111.2,1088.1,644.1,357.2,3.9,1.5,20.3,46.48,1.9062,377.2584],
    [5057,1532798885,57.0376,-111.2,1085.9,641.9,357.4,3.7,1.9,19.87,46.42,1.9068,378.2306],
    [5058,1532798886,57.0382,-111.2,1084.3,640.3,357.7,3.6,2.5,19.8,46.27,1.9098,377.7123],
    [5059,1532798887,57.0389,-111.2,1083.3,639.3,357.6,3.8,2.5,20.37,45.84,1.9088,378.7766],
    [5060,1532798888,57.0395,-111.1999,1082.7,638.7,357.6,3.8,2.6,20.39,45.83,1.9088,377.5254],
    [5061,1532798889,57.0401,-111.1999,1082.3,638.3,357.4,3.9,2.8,20.28,46.64,1.907,377.5254],
    [5062,1532798890,57.0408,-111.1999,1082.2,638.2,357.4,3.7,2.9,20.4,45.84,1.9089,378.3198],
    [5063,1532798891,57.0414,-111.1999,1082.4,638.4,357.2,3.9,2.9,20.71,45.73,1.9093,377.6908],
    [5064,1532798892,57.0421,-111.1999,1082.8,638.8,357.2,3.8,3.0,20.36,46.33,1.9092,378.3495],
    [5065,1532798893,57.0427,-111.1999,1083.0,639.0,357.4,3.7,3.0,20.56,45.78,1.9089,377.0607],
    [5066,1532798894,57.0434,-111.1999,1083.4,639.4,357.5,3.7,3.0,20.26,46.58,1.9084,377.1782],
    [5067,1532798895,57.044,-111.1999,1083.7,639.1,357.8,3.5,3.1,20.8,45.31,1.9065,377.4083],
    [5068,1532798896,57.0447,-111.1999,1084.2,639.2,357.7,3.7,3.2,21.22,45.65,1.9072,377.6801],
    [5069,1532798897,57.0453,-111.1998,1084.7,639.7,358.0,3.6,3.4,20.49,45.96,1.9072,377.7672],
    [5070,1532798898,57.046,-111.1998,1085.3,640.3,358.0,3.7,3.5,20.4,46.17,1.9073,378.717],
    [5071,1532798899,57.0466,-111.1998,1085.8,640.7,358.1,3.6,3.8,20.6,45.71,1.9075,377.3999],
    [5072,1532798900,57.0473,-111.1998,1086.2,640.2,358.3,3.6,4.0,20.54,45.7,1.9084,378.1378],
    [5073,1532798901,57.0479,-111.1997,1086.7,640.7,358.2,3.5,4.2,20.9,45.57,1.9078,379.1501],
    [5074,1532798902,57.0486,-111.1997,1086.9,640.2,358.5,2.5,4.3,20.6,45.79,1.9064,378.3838],
    [5075,1532798903,57.0492,-111.1997,1086.9,639.2,356.8,2.6,4.4,20.31,46.3,1.9084,379.0913],
    [5076,1532798904,57.0499,-111.1998,1087.0,638.6,353.6,2.9,4.4,19.74,46.13,1.9089,375.8279],
    [5077,1532798905,57.0505,-111.1999,1087.8,638.8,350.0,2.9,4.4,20.87,45.78,1.9107,374.7215],
    [5078,1532798906,57.0511,-111.2001,1089.3,638.3,346.0,2.8,4.4,20.86,45.27,1.9116,375.5703],
    [5079,1532798907,57.0518,-111.2003,1091.1,638.4,341.5,3.0,4.5,20.32,45.56,1.9115,375.4399],
    [5080,1532798908,57.0524,-111.2007,1092.7,638.6,336.8,3.3,4.6,20.45,45.4,1.9113,375.7193],
    [5081,1532798909,57.0529,-111.2011,1094.0,638.9,332.6,3.3,4.7,20.44,45.66,1.9131,376.9466],
    [5082,1532798910,57.0535,-111.2016,1095.0,640.1,328.9,3.3,4.8,20.27,45.91,1.9086,377.9785],
    [5083,1532798911,57.054,-111.2021,1096.0,641.7,325.6,3.1,4.9,20.31,45.21,1.9086,377.5116],
    [5084,1532798912,57.0545,-111.2027,1097.1,643.8,322.9,2.7,4.7,20.46,44.81,1.9068,377.5061],
    [5085,1532798913,57.055,-111.2033,1098.4,646.7,320.1,2.6,4.8,20.25,46.18,1.9096,377.1155],
    [5086,1532798914,57.0556,-111.204,1100.1,651.4,317.4,2.7,4.7,20.46,45.66,1.9085,377.9063],
    [5087,1532798915,57.056,-111.2047,1102.0,654.0,315.2,2.7,4.5,20.66,45.76,1.9087,378.4521],
    [5088,1532798916,57.0565,-111.2054,1104.0,656.0,313.2,3.0,3.7,20.31,46.56,1.9089,378.166],
    [5089,1532798917,57.0569,-111.2062,1106.0,659.0,310.6,3.1,3.8,20.19,46.5,1.9078,378.2205],
    [5090,1532798918,57.0573,-111.2069,1107.8,660.8,308.1,3.3,3.6,20.44,46.18,1.9106,377.7605],
    [5091,1532798919,57.0577,-111.2077,1109.3,662.3,305.6,3.5,3.2,20.59,46.11,1.9103,378.661],
    [5092,1532798920,57.058,-111.2085,1110.6,663.6,302.8,3.7,3.2,20.5,46.65,1.9086,378.5074],
    [5093,1532798921,57.0583,-111.2094,1111.8,664.8,299.9,4.0,3.0,20.23,47.63,1.9079,378.1108],
    [5094,1532798922,57.0586,-111.2102,1112.9,665.9,297.0,4.4,2.9,20.65,46.63,1.9078,377.4581],
    [5095,1532798923,57.0589,-111.2111,1114.0,667.7,294.3,4.8,2.7,20.31,47.79,1.9079,378.4172],
    [5096,1532798924,57.0592,-111.212,1114.9,668.8,291.4,5.2,2.8,19.73,47.2,1.9076,377.2704],
    [5097,1532798925,57.0594,-111.2129,1115.6,670.6,288.8,5.5,2.9,20.28,47.07,1.9091,377.3629],
    [5098,1532798926,57.0596,-111.2138,1116.3,672.3,286.5,5.7,2.8,20.68,46.67,1.9097,377.3629],
    [5099,1532798927,57.0598,-111.2148,1116.8,672.7,284.8,5.8,2.5,21.06,46.71,1.9074,377.7081],
    [5100,1532798928,57.0599,-111.2157,1117.1,674.1,283.1,6.1,2.2,20.22,47.03,1.9083,377.9723],
    [5101,1532798929,57.0601,-111.2167,1117.2,674.0,281.4,6.3,1.9,20.77,47.0,1.908,378.3887],
    [5102,1532798930,57.0602,-111.2177,1116.7,673.4,279.2,6.4,1.9,20.32,47.03,1.9088,377.191],
    [5103,1532798931,57.0603,-111.2186,1115.7,672.7,276.2,6.5,2.5,21.07,46.74,1.9082,377.9898],
    [5104,1532798932,57.0604,-111.2196,1114.5,671.5,273.6,6.4,2.6,20.3,47.22,1.9088,377.8189],
    [5105,1532798933,57.0604,-111.2206,1113.2,671.2,271.1,6.3,2.8,20.23,47.44,1.91,377.5904],
    [5106,1532798934,57.0604,-111.2216,1112.0,671.1,268.8,6.3,3.0,20.13,47.12,1.9108,378.1039],
    [5107,1532798935,57.0604,-111.2226,1111.2,671.3,266.8,6.3,3.3,20.22,47.65,1.9083,378.1039],
    [5108,1532798936,57.0604,-111.2236,1110.8,671.8,265.7,6.2,3.3,20.26,46.72,1.9076,377.2414],
    [5109,1532798937,57.0604,-111.2246,1109.9,671.9,265.3,6.0,3.0,20.0,47.01,1.9088,377.2373],
    [5110,1532798938,57.0604,-111.2256,1108.0,670.9,265.0,5.7,2.9,19.59,47.19,1.9094,376.542],
    [5111,1532798939,57.0604,-111.2266,1105.7,670.0,264.4,5.3,3.0,20.44,46.51,1.9095,376.542],
    [5112,1532798940,57.0603,-111.2277,1103.7,670.4,264.2,5.0,2.8,20.86,46.7,1.9102,377.0208],
    [5113,1532798941,57.0603,-111.2287,1102.1,672.1,264.0,4.9,2.8,20.69,46.38,1.9103,376.5985],
    [5114,1532798942,57.0602,-111.2297,1100.6,673.3,264.1,4.6,3.0,20.3,46.82,1.9096,376.9111],
    [5115,1532798943,57.0602,-111.2307,1099.5,676.9,264.6,4.5,2.9,19.75,46.99,1.9102,376.3143],
    [5116,1532798944,57.0602,-111.2318,1098.5,679.2,265.8,4.3,2.4,20.2,46.74,1.9104,375.4913],
    [5117,1532798945,57.0602,-111.2328,1097.6,680.6,266.6,4.2,2.3,21.02,46.37,1.9097,375.4913],
    [5118,1532798946,57.0602,-111.2338,1096.8,680.8,267.2,4.3,2.3,19.9,46.84,1.9103,376.5525],
    [5119,1532798947,57.0601,-111.2349,1096.3,681.6,267.6,4.3,2.3,19.67,46.49,1.9116,376.7017],
    [5120,1532798948,57.0601,-111.2359,1096.0,683.0,267.6,4.4,2.7,20.46,46.18,1.9128,375.6806],
    [5121,1532798949,57.0601,-111.237,1096.0,684.6,268.0,4.4,2.5,20.22,46.32,1.9125,376.8486],
    [5122,1532798950,57.0601,-111.238,1096.1,685.0,268.6,4.4,2.1,20.03,46.11,1.9134,375.1527],
    [5123,1532798951,57.0601,-111.2391,1096.4,686.4,268.8,4.4,2.1,20.27,45.92,1.9132,376.1307],
    [5124,1532798952,57.0602,-111.2401,1096.2,687.3,269.0,4.6,2.0,19.87,45.69,1.9131,376.0989],
    [5125,1532798953,57.0602,-111.2411,1095.5,687.2,268.9,4.7,2.0,20.43,45.72,1.9143,375.0533],
    [5126,1532798954,57.0602,-111.2422,1094.6,686.6,268.6,4.9,2.1,20.47,45.42,1.9136,375.2951],
    [5127,1532798955,57.0602,-111.2432,1094.0,687.0,268.2,5.1,2.3,20.64,44.65,1.915,375.9029],
    [5128,1532798956,57.0602,-111.2443,1093.6,687.6,268.0,5.3,2.3,20.59,45.43,1.9125,376.0864],
    [5129,1532798957,57.0602,-111.2453,1093.2,688.1,267.9,5.5,2.3,19.79,45.75,1.9133,374.8489],
    [5130,1532798958,57.0602,-111.2464,1092.6,688.7,267.7,5.7,2.3,20.01,46.0,1.9142,375.5482],
    [5131,1532798959,57.0602,-111.2475,1092.2,689.2,267.8,5.9,2.3,19.61,45.4,1.9138,375.7712],
    [5132,1532798960,57.0602,-111.2486,1091.9,689.8,267.7,6.2,2.5,20.82,45.21,1.9125,375.7712],
    [5133,1532798961,57.0602,-111.2497,1091.6,689.4,267.8,6.3,2.4,20.41,46.1,1.9135,376.736],
    [5134,1532798962,57.0601,-111.2507,1090.8,689.9,268.1,6.3,2.2,20.63,45.28,1.9147,375.774],
    [5135,1532798963,57.0601,-111.2518,1089.6,688.6,268.1,6.4,2.2,20.6,45.37,1.9152,375.3908],
    [5136,1532798964,57.0601,-111.2528,1088.1,688.0,267.8,6.6,2.3,19.75,45.58,1.9152,375.3908],
    [5137,1532798965,57.0601,-111.2539,1086.4,686.4,267.6,6.8,2.2,20.22,45.64,1.9146,376.7867],
    [5138,1532798966,57.0601,-111.255,1084.5,684.6,267.3,6.8,2.2,19.96,45.63,1.9142,375.2434],
    [5139,1532798967,57.0601,-111.256,1082.7,683.7,267.1,6.9,2.2,20.47,46.13,1.9138,375.2434],
    [5140,1532798968,57.0601,-111.2571,1080.8,681.8,267.2,6.9,2.1,20.24,45.53,1.9157,374.8878],
    [5141,1532798969,57.0601,-111.2582,1078.9,680.2,267.4,6.9,1.9,20.46,45.5,1.9165,375.1301],
    [5142,1532798970,57.0601,-111.2592,1077.1,679.1,267.3,6.8,1.9,20.4,45.7,1.9154,375.5964],
    [5143,1532798971,57.0601,-111.2603,1075.1,677.1,267.2,6.6,2.1,20.62,45.31,1.9151,375.9316],
    [5144,1532798972,57.0601,-111.2614,1072.9,675.9,267.2,6.3,2.0,21.07,45.12,1.9161,375.6798],
    [5145,1532798973,57.06,-111.2625,1070.2,673.2,267.4,5.9,1.9,20.5,45.84,1.9175,375.6798],
    [5146,1532798974,57.06,-111.2636,1067.3,671.3,267.6,5.6,1.8,20.58,45.45,1.9139,376.0119],
    [5147,1532798975,57.06,-111.2648,1064.5,668.5,267.7,5.4,1.8,20.87,45.38,1.9137,374.5929],
    [5148,1532798976,57.06,-111.2659,1061.9,666.9,267.9,5.3,1.7,19.94,45.45,1.9144,374.5929],
    [5149,1532798977,57.06,-111.267,1059.3,664.3,268.0,5.1,1.6,20.44,45.96,1.9147,375.8701],
    [5150,1532798978,57.06,-111.2681,1056.7,661.7,268.1,5.0,1.6,20.2,45.41,1.9139,374.8744],
    [5151,1532798979,57.06,-111.2692,1054.9,660.9,268.0,5.0,1.7,21.07,44.52,1.9135,375.3863],
    [5152,1532798980,57.06,-111.2703,1054.1,661.1,268.0,5.1,1.7,21.05,44.44,1.9141,375.5535],
    [5153,1532798981,57.06,-111.2714,1053.6,661.6,267.9,5.2,1.7,20.78,44.93,1.9148,375.8104],
    [5154,1532798982,57.06,-111.2725,1053.2,662.2,267.8,5.3,1.8,20.77,45.01,1.9161,374.9615],
    [5155,1532798983,57.0599,-111.2736,1052.2,662.2,267.8,5.4,1.7,20.24,44.99,1.9152,375.2347],
    [5156,1532798984,57.0599,-111.2748,1050.7,661.7,267.7,5.5,1.8,20.37,44.58,1.9151,376.2976],
    [5157,1532798985,57.0599,-111.2759,1048.8,660.5,267.8,5.5,1.8,21.08,44.94,1.9144,374.5052],
    [5158,1532798986,57.0599,-111.2771,1046.9,658.9,267.9,5.5,1.8,20.74,45.25,1.9145,374.8202],
    [5159,1532798987,57.0599,-111.2782,1045.2,657.7,267.8,5.5,1.8,21.26,44.28,1.9155,374.8202],
    [5160,1532798988,57.0599,-111.2793,1043.6,656.6,267.9,5.5,1.8,21.22,44.01,1.916,374.6964],
    [5161,1532798989,57.0599,-111.2804,1042.1,655.1,267.9,5.6,1.9,21.55,44.22,1.9145,375.7899],
    [5162,1532798990,57.0599,-111.2816,1040.7,654.7,268.1,5.7,1.8,20.84,44.62,1.9152,376.0688],
    [5163,1532798991,57.0599,-111.2827,1039.2,653.2,268.1,5.9,1.7,21.15,44.72,1.9153,374.7978],
    [5164,1532798992,57.0599,-111.2838,1037.5,651.5,268.0,5.9,1.8,21.6,44.11,1.9147,374.8083],
    [5165,1532798993,57.0599,-111.285,1035.7,650.7,267.8,5.9,1.8,20.9,44.59,1.9156,375.478],
    [5166,1532798994,57.0599,-111.2861,1033.8,648.8,267.7,5.8,1.7,21.19,44.2,1.9158,377.0218],
    [5167,1532798995,57.0598,-111.2872,1031.9,647.9,267.6,5.8,1.6,20.96,44.48,1.9154,374.8103],
    [5168,1532798996,57.0598,-111.2884,1029.8,646.6,267.4,5.7,1.6,21.28,44.0,1.9151,374.7904],
    [5169,1532798997,57.0598,-111.2895,1027.5,645.5,267.2,5.4,1.7,21.38,43.87,1.9136,375.8559],
    [5170,1532798998,57.0598,-111.2906,1025.1,644.1,267.1,5.2,1.7,20.79,43.97,1.9135,377.4997],
    [5171,1532798999,57.0598,-111.2918,1022.7,642.7,267.1,5.1,1.7,20.87,44.02,1.9153,375.7928],
    [5172,1532799000,57.0598,-111.2929,1020.5,641.5,267.4,5.1,1.7,21.74,43.48,1.9146,375.7928],
    [5173,1532799001,57.0597,-111.2941,1018.8,640.7,268.1,5.0,1.4,21.16,43.88,1.9158,373.9198],
    [5174,1532799002,57.0597,-111.2952,1017.1,640.6,268.4,4.7,1.4,20.98,44.56,1.9149,375.1644],
    [5175,1532799003,57.0597,-111.2964,1015.5,640.5,268.5,4.4,1.3,20.89,44.64,1.9145,375.2322],
    [5176,1532799004,57.0597,-111.2975,1013.8,639.6,268.6,4.4,1.5,21.34,44.25,1.9133,375.5349],
    [5177,1532799005,57.0597,-111.2987,1012.3,640.3,268.9,4.3,1.3,21.29,44.53,1.9139,374.8716],
    [5178,1532799006,57.0597,-111.2998,1011.3,640.3,269.1,4.3,1.3,21.17,44.98,1.9135,375.2084],
    [5179,1532799007,57.0597,-111.301,1010.4,640.4,269.1,4.4,1.4,21.12,43.88,1.9149,375.0232],
    [5180,1532799008,57.0597,-111.3021,1009.6,640.6,269.3,4.4,1.1,21.48,43.18,1.9131,376.5101],
    [5181,1532799009,57.0597,-111.3033,1008.6,639.6,269.3,4.4,1.2,21.42,43.56,1.9146,375.4016],
    [5182,1532799010,57.0597,-111.3044,1007.9,638.9,269.3,4.5,1.1,21.14,43.9,1.9141,374.5977],
    [5183,1532799011,57.0597,-111.3056,1007.4,639.4,269.5,4.5,0.9,21.52,43.37,1.9148,374.6284],
    [5184,1532799012,57.0597,-111.3067,1006.9,639.8,269.3,4.5,1.1,21.12,43.7,1.9136,375.8004],
    [5185,1532799013,57.0597,-111.3078,1006.6,640.6,268.9,4.6,1.5,21.16,43.37,1.9129,375.0206],
    [5186,1532799014,57.0597,-111.309,1006.1,641.5,268.8,4.6,1.5,21.25,43.13,1.9143,375.4962],
    [5187,1532799015,57.0597,-111.3101,1005.5,641.5,268.7,4.6,1.7,21.29,43.17,1.914,375.4133],
    [5188,1532799016,57.0597,-111.3113,1004.8,641.8,268.7,4.6,1.6,21.75,42.95,1.9147,376.0368],
    [5189,1532799017,57.0597,-111.3124,1004.1,641.1,268.5,4.5,1.7,20.98,43.83,1.9132,375.5235],
    [5190,1532799018,57.0597,-111.3135,1003.5,640.8,268.5,4.5,1.7,21.25,42.95,1.9134,375.5089],
    [5191,1532799019,57.0597,-111.3147,1002.8,640.8,268.4,4.5,1.7,21.49,43.81,1.9133,374.4987],
    [5192,1532799020,57.0597,-111.3158,1002.2,640.2,268.2,4.5,1.8,21.6,42.94,1.9138,374.4695],
    [5193,1532799021,57.0597,-111.3169,1001.5,639.5,268.2,4.6,1.8,20.83,43.53,1.9148,374.9492],
    [5194,1532799022,57.0597,-111.3181,1000.7,638.7,268.2,4.5,1.8,21.15,43.23,1.9135,374.9336],
    [5195,1532799023,57.0597,-111.3192,1000.0,638.0,268.4,4.3,1.7,22.09,42.78,1.9147,375.7349],
    [5196,1532799024,57.0597,-111.3203,999.2,637.2,268.6,4.1,1.5,21.68,42.62,1.9144,375.4452],
    [5197,1532799025,57.0597,-111.3215,998.5,636.5,268.7,4.0,1.5,22.04,42.72,1.9137,375.3763],
    [5198,1532799026,57.0597,-111.3226,997.7,636.7,268.7,3.9,1.5,21.65,42.93,1.9147,375.1194],
    [5199,1532799027,57.0597,-111.3238,997.1,636.1,268.6,3.8,1.6,22.04,42.71,1.9155,375.1194],
    [5200,1532799028,57.0597,-111.3249,996.5,636.5,268.6,3.7,1.6,21.56,42.86,1.9133,375.32],
    [5201,1532799029,57.0597,-111.326,996.1,637.1,268.6,3.7,1.7,21.88,42.25,1.9132,375.4089],
    [5202,1532799030,57.0597,-111.3272,995.9,637.9,268.8,3.7,1.6,21.36,43.08,1.9147,375.6171],
    [5203,1532799031,57.0597,-111.3283,995.8,638.1,268.8,3.7,1.6,21.35,42.92,1.9148,375.6573],
    [5204,1532799032,57.0597,-111.3294,995.8,638.8,268.9,3.8,1.6,21.95,42.71,1.915,375.6573],
    [5205,1532799033,57.0597,-111.3305,995.9,639.9,268.9,3.8,1.5,21.32,43.67,1.9149,376.5093],
    [5206,1532799034,57.0597,-111.3317,996.0,641.0,268.9,4.1,1.6,21.72,42.95,1.9147,375.4036],
    [5207,1532799035,57.0597,-111.3328,996.1,641.1,268.8,4.2,1.6,22.3,42.62,1.9146,373.9565],
    [5208,1532799036,57.0597,-111.3339,996.2,642.2,268.7,4.3,1.5,21.59,43.15,1.9145,373.9565],
    [5209,1532799037,57.0597,-111.335,996.2,642.2,268.7,4.3,1.5,21.82,43.64,1.9145,375.7523],
    [5210,1532799038,57.0597,-111.3361,996.3,642.3,268.6,4.4,1.5,21.72,44.02,1.9145,376.0888],
    [5211,1532799039,57.0597,-111.3372,996.4,642.4,268.5,4.3,1.5,22.15,43.71,1.9156,376.1492],
    [5212,1532799040,57.0597,-111.3384,996.6,642.6,268.4,4.3,1.5,21.41,44.81,1.9135,375.5091],
    [5213,1532799041,57.0597,-111.3394,996.7,642.7,268.4,4.4,1.6,21.55,44.02,1.914,375.1948],
    [5214,1532799042,57.0597,-111.3406,996.9,642.9,268.6,4.4,1.5,21.22,43.95,1.9137,374.23],
    [5215,1532799043,57.0597,-111.3417,996.8,642.8,268.8,4.5,1.5,22.2,43.19,1.9135,375.2184],
    [5216,1532799044,57.0597,-111.3428,996.7,642.7,269.1,4.6,1.2,21.54,43.23,1.9145,374.3998],
    [5217,1532799045,57.0597,-111.3439,996.6,642.6,269.4,4.7,1.0,20.93,43.06,1.9143,375.5145],
    [5218,1532799046,57.0597,-111.3449,996.5,643.5,269.4,4.7,1.2,21.11,42.88,1.9144,375.5702],
    [5219,1532799047,57.0597,-111.346,996.3,643.3,269.5,4.7,1.2,21.13,42.86,1.915,375.5058],
    [5220,1532799048,57.0597,-111.3471,996.2,644.2,269.5,4.8,1.3,21.9,42.2,1.9154,375.6713],
    [5221,1532799049,57.0597,-111.3482,995.9,643.9,269.4,4.7,1.4,21.78,42.31,1.914,375.8362],
    [5222,1532799050,57.0597,-111.3493,995.7,643.7,269.3,4.8,1.5,21.21,42.58,1.9132,375.8362],
    [5223,1532799051,57.0597,-111.3504,995.4,644.4,269.1,4.8,1.7,21.39,42.61,1.913,375.5145],
    [5224,1532799052,57.0597,-111.3515,995.1,644.1,269.0,4.8,1.7,21.28,42.35,1.9134,375.1245],
    [5225,1532799053,57.0597,-111.3526,994.7,644.7,268.9,4.9,1.8,20.9,42.36,1.9144,375.4165],
    [5226,1532799054,57.0597,-111.3537,994.2,644.2,269.0,4.9,1.7,21.92,42.56,1.914,375.0386],
    [5227,1532799055,57.0597,-111.3548,993.7,643.7,268.9,4.9,1.8,21.52,42.4,1.9142,375.3533],
    [5228,1532799056,57.0597,-111.3559,993.2,644.2,269.0,5.0,1.7,21.75,41.92,1.9148,375.0182],
    [5229,1532799057,57.0597,-111.357,992.7,643.7,269.0,5.0,1.7,21.65,42.72,1.9164,375.609],
    [5230,1532799058,57.0597,-111.3581,992.2,644.2,268.9,5.1,1.8,21.51,42.15,1.9169,375.6726],
    [5231,1532799059,57.0598,-111.3592,991.6,643.6,268.8,5.0,1.8,21.81,42.47,1.916,375.2893],
    [5232,1532799060,57.0598,-111.3603,990.9,642.9,268.8,4.8,1.8,21.23,43.7,1.9148,376.2599],
    [5233,1532799061,57.0598,-111.3614,990.2,643.2,268.7,4.5,1.9,21.87,43.55,1.9138,375.1089],
    [5234,1532799062,57.0598,-111.3625,989.4,642.4,268.5,4.4,1.9,21.5,43.48,1.9134,374.6638],
    [5235,1532799063,57.0598,-111.3636,988.7,641.7,268.4,4.1,1.9,22.13,43.21,1.9137,375.2405],
    [5236,1532799064,57.0598,-111.3647,988.0,642.0,268.3,4.0,1.9,21.54,43.6,1.9139,375.7245],
    [5237,1532799065,57.0598,-111.3659,987.4,641.4,268.3,3.9,1.8,21.98,42.98,1.9132,375.2505],
    [5238,1532799066,57.0597,-111.367,987.0,641.0,268.3,4.0,1.7,21.53,43.24,1.912,375.1209],
    [5239,1532799067,57.0597,-111.3681,986.9,641.9,268.2,4.0,1.6,22.22,42.06,1.9132,375.2636],
    [5240,1532799068,57.0597,-111.3691,986.9,641.9,268.4,4.1,1.4,20.89,42.46,1.9123,375.1452],
    [5241,1532799069,57.0597,-111.3702,987.2,643.2,268.3,4.3,1.4,21.6,42.22,1.913,375.1433],
    [5242,1532799070,57.0597,-111.3713,987.4,643.4,268.3,4.4,1.4,21.31,42.36,1.915,374.8169],
    [5243,1532799071,57.0597,-111.3724,987.6,644.6,268.1,4.4,1.5,21.53,42.22,1.9121,375.0616],
    [5244,1532799072,57.0597,-111.3735,987.7,644.7,268.2,4.5,1.5,21.44,42.22,1.9134,374.7743],
    [5245,1532799073,57.0597,-111.3746,988.0,644.0,268.1,4.6,1.5,21.63,42.3,1.9135,374.7322],
    [5246,1532799074,57.0597,-111.3757,988.1,644.1,268.1,4.5,1.6,21.34,42.07,1.9135,375.2267],
    [5247,1532799075,57.0597,-111.3767,988.1,644.1,268.1,4.4,1.6,21.72,42.12,1.9136,374.5426],
    [5248,1532799076,57.0597,-111.3778,987.8,643.8,268.1,4.4,1.6,21.64,42.08,1.9129,376.3766],
    [5249,1532799077,57.0597,-111.3789,987.4,643.4,268.2,4.3,1.7,21.85,41.54,1.9133,374.9536],
    [5250,1532799078,57.0597,-111.38,986.8,643.8,268.2,4.3,1.7,21.72,41.57,1.9148,376.0421],
    [5251,1532799079,57.0597,-111.3811,985.9,642.9,268.2,4.4,1.8,21.25,41.67,1.9145,376.036],
    [5252,1532799080,57.0597,-111.3822,985.1,642.1,268.3,4.4,1.7,22.21,41.37,1.9149,376.0286],
    [5253,1532799081,57.0597,-111.3833,984.4,641.7,268.4,4.4,1.7,22.01,41.86,1.916,375.677],
    [5254,1532799082,57.0597,-111.3844,983.9,641.9,268.4,4.5,1.7,21.87,42.05,1.9159,375.6279],
    [5255,1532799083,57.0597,-111.3855,983.5,641.5,268.6,4.7,1.1,21.9,42.51,1.9158,375.4437],
    [5256,1532799084,57.0596,-111.3865,983.2,641.6,267.8,4.8,0.9,21.64,43.67,1.9144,376.3009],
    [5257,1532799085,57.0596,-111.3876,983.1,642.1,265.7,4.9,1.6,21.7,43.67,1.9144,374.5633],
    [5258,1532799086,57.0596,-111.3887,982.9,641.9,263.9,5.1,1.7,21.49,43.74,1.9147,375.5606],
    [5259,1532799087,57.0595,-111.3898,982.6,641.6,262.1,5.3,1.7,21.04,43.32,1.9146,375.8695],
    [5260,1532799088,57.0594,-111.3908,982.2,641.2,260.1,5.4,2.0,21.8,43.18,1.9131,374.9894],
    [5261,1532799089,57.0593,-111.3919,981.7,640.7,258.6,5.7,1.8,21.6,43.83,1.9134,375.8618],
    [5262,1532799090,57.0592,-111.393,981.1,640.1,257.1,6.0,1.8,21.18,42.75,1.9142,376.6374],
    [5263,1532799091,57.0591,-111.394,980.4,639.4,255.4,6.2,1.8,22.15,42.11,1.9147,375.83],
    [5264,1532799092,57.0589,-111.395,979.5,638.5,253.7,6.5,1.9,21.71,42.94,1.9155,375.83],
    [5265,1532799093,57.0588,-111.3961,978.3,637.3,251.7,6.8,2.2,21.72,42.68,1.9161,375.229],
    [5266,1532799094,57.0586,-111.3971,977.0,636.0,249.7,6.8,2.3,21.67,43.47,1.9179,375.5392],
    [5267,1532799095,57.0583,-111.3981,975.5,634.5,247.9,6.8,2.4,21.5,43.23,1.9167,375.5849],
    [5268,1532799096,57.0581,-111.399,973.8,632.8,245.9,6.5,2.5,22.06,43.62,1.9151,376.0083],
    [5269,1532799097,57.0579,-111.4,972.0,631.0,244.1,6.2,2.4,21.8,44.56,1.9153,375.5864],
    [5270,1532799098,57.0576,-111.401,970.1,629.1,242.3,5.8,2.4,22.21,45.07,1.9161,375.6017],
    [5271,1532799099,57.0573,-111.4019,968.0,627.0,240.5,5.3,2.2,21.46,46.07,1.9158,377.1811],
    [5272,1532799100,57.057,-111.4029,965.8,624.8,238.8,4.6,1.9,21.71,46.29,1.9142,375.6029],
    [5273,1532799101,57.0567,-111.4038,963.8,622.8,237.2,3.9,1.6,21.78,45.75,1.9152,376.1764],
    [5274,1532799102,57.0563,-111.4047,961.9,620.9,236.0,3.5,1.0,21.76,45.47,1.915,376.1107],
    [5275,1532799103,57.056,-111.4056,960.3,619.3,235.0,3.1,0.5,21.22,45.63,1.9151,375.3855],
    [5276,1532799104,57.0556,-111.4065,959.1,618.1,234.3,2.8,0.0,21.2,45.66,1.9131,373.3921],
    [5277,1532799105,57.0553,-111.4073,958.4,617.4,234.0,2.5,-0.4,22.27,44.29,1.9125,374.1568],
    [5278,1532799106,57.0549,-111.4082,958.3,617.3,234.3,2.4,-0.7,21.54,44.26,1.9107,374.7751],
    [5279,1532799107,57.0545,-111.4091,958.6,617.9,234.8,2.4,-0.7,21.82,44.18,1.9115,375.9929],
    [5280,1532799108,57.0542,-111.41,959.4,619.4,235.8,2.7,-0.9,21.54,43.19,1.9117,375.9746],
    [5281,1532799109,57.0538,-111.4109,960.9,620.9,236.4,2.9,-0.8,21.4,42.81,1.9127,375.8924],
    [5282,1532799110,57.0535,-111.4118,962.9,623.4,236.4,3.3,-0.4,21.72,42.32,1.9117,375.4331],
    [5283,1532799111,57.0531,-111.4127,965.5,626.5,236.1,3.7,0.2,21.54,42.54,1.9113,374.5617],
    [5284,1532799112,57.0528,-111.4135,968.2,629.2,235.5,4.1,0.7,21.16,41.78,1.9116,374.5617],
    [5285,1532799113,57.0525,-111.4144,971.0,632.0,234.9,4.6,1.1,21.78,41.54,1.9109,375.5497],
    [5286,1532799114,57.0521,-111.4152,973.6,634.6,234.2,4.9,1.5,21.16,41.53,1.9128,375.1853],
    [5287,1532799115,57.0518,-111.416,975.8,636.8,233.4,5.2,2.1,21.37,41.73,1.9149,376.2464],
    [5288,1532799116,57.0514,-111.4169,977.3,639.3,232.7,5.2,2.6,22.64,41.03,1.9145,375.5775],
    [5289,1532799117,57.0511,-111.4177,977.9,639.9,232.2,5.1,2.7,21.81,41.48,1.915,375.8762],
    [5290,1532799118,57.0507,-111.4185,978.0,640.0,232.3,5.1,2.6,21.21,41.55,1.9152,375.3259],
    [5291,1532799119,57.0504,-111.4193,977.8,639.8,232.6,5.0,2.6,21.85,41.46,1.9149,375.1245],
    [5292,1532799120,57.05,-111.4201,977.2,640.2,233.1,5.0,2.6,21.5,41.79,1.9156,375.6783],
    [5293,1532799121,57.0497,-111.4209,976.1,639.1,234.2,5.4,2.5,21.54,42.14,1.9152,375.153],
    [5294,1532799122,57.0493,-111.4218,974.7,637.7,235.1,5.5,2.1,21.29,41.92,1.9158,374.5924],
    [5295,1532799123,57.049,-111.4226,973.3,636.3,235.5,5.6,2.2,21.59,42.14,1.9158,375.6243],
    [5296,1532799124,57.0487,-111.4235,972.1,636.1,235.5,5.5,2.3,21.6,42.39,1.9175,376.1146],
    [5297,1532799125,57.0483,-111.4243,971.2,635.2,235.5,5.4,2.2,22.44,42.24,1.9158,375.3123],
    [5298,1532799126,57.048,-111.4251,970.7,634.7,235.4,5.6,2.2,21.78,43.1,1.9151,375.1596],
    [5299,1532799127,57.0477,-111.426,970.3,635.3,235.2,5.6,2.3,21.61,43.24,1.9177,375.9001],
    [5300,1532799128,57.0473,-111.4269,969.9,634.9,234.9,5.7,2.3,21.5,43.53,1.9164,376.4268],
    [5301,1532799129,57.047,-111.4277,969.2,635.2,234.4,5.5,2.4,21.51,43.81,1.9155,375.0229],
    [5302,1532799130,57.0466,-111.4285,968.3,634.3,234.1,5.5,2.4,21.71,44.4,1.9153,375.0229],
    [5303,1532799131,57.0463,-111.4294,967.3,634.3,233.8,5.4,2.3,22.11,44.13,1.9161,375.604],
    [5304,1532799132,57.0459,-111.4302,966.3,633.5,233.6,5.2,2.2,22.6,44.13,1.9165,375.2712],
    [5305,1532799133,57.0456,-111.431,965.4,633.4,233.2,5.0,2.1,21.87,44.79,1.9164,375.2415],
    [5306,1532799134,57.0452,-111.4319,964.6,633.6,233.2,5.0,2.0,21.62,44.71,1.916,376.4951],
    [5307,1532799135,57.0449,-111.4327,963.9,633.6,233.0,4.9,2.0,22.1,44.65,1.9148,376.2296],
    [5308,1532799136,57.0445,-111.4335,963.3,633.3,232.9,4.8,1.8,21.92,45.33,1.9164,375.3538],
    [5309,1532799137,57.0442,-111.4344,962.9,633.9,233.0,4.8,1.6,21.83,44.97,1.9145,374.4228],
    [5310,1532799138,57.0438,-111.4352,962.5,634.5,233.0,4.8,1.5,21.85,44.77,1.913,374.8709],
    [5311,1532799139,57.0435,-111.436,962.3,634.3,233.0,4.9,1.6,21.48,44.41,1.9145,375.8817],
    [5312,1532799140,57.0431,-111.4368,962.2,634.2,233.0,4.9,1.6,21.8,44.32,1.9139,374.7712],
    [5313,1532799141,57.0427,-111.4376,962.2,634.2,233.1,4.9,1.6,21.81,44.11,1.9116,373.7953],
    [5314,1532799142,57.0424,-111.4385,962.3,634.3,233.3,4.9,1.8,22.48,43.04,1.9149,373.7865],
    [5315,1532799143,57.042,-111.4393,962.5,634.5,233.7,5.0,2.0,21.75,43.38,1.9122,375.1189],
    [5316,1532799144,57.0417,-111.4401,962.6,635.6,234.7,5.4,1.8,21.64,42.77,1.9134,375.8917],
    [5317,1532799145,57.0414,-111.441,962.6,635.6,235.4,5.7,1.8,21.67,43.11,1.915,375.4401],
    [5318,1532799146,57.041,-111.4418,962.6,635.6,235.9,5.8,2.0,21.19,42.58,1.9153,374.6507],
    [5319,1532799147,57.0407,-111.4427,962.4,635.4,236.4,5.9,2.1,22.23,41.8,1.9144,374.6288],
    [5320,1532799148,57.0404,-111.4435,962.0,635.0,236.6,5.9,2.4,21.44,42.89,1.9161,374.8252],
    [5321,1532799149,57.04,-111.4444,961.5,634.5,236.9,6.2,2.4,21.88,43.14,1.9159,375.4852],
    [5322,1532799150,57.0397,-111.4453,960.8,634.8,237.0,6.2,2.4,21.69,43.4,1.9167,374.5699],
    [5323,1532799151,57.0394,-111.4461,960.0,634.0,236.7,6.1,2.6,22.59,42.72,1.9166,375.9028],
    [5324,1532799152,57.0391,-111.447,959.1,634.1,236.8,6.2,2.6,21.97,43.33,1.9155,373.9307],
    [5325,1532799153,57.0388,-111.4479,958.0,634.0,236.7,6.3,2.7,22.12,43.26,1.9182,375.9911],
    [5326,1532799154,57.0384,-111.4487,956.9,632.9,236.6,6.4,2.8,22.01,43.25,1.9156,375.3211],
    [5327,1532799155,57.0381,-111.4496,955.6,632.6,236.5,6.7,2.9,21.4,43.43,1.9158,375.8761],
    [5328,1532799156,57.0378,-111.4505,954.3,631.3,236.4,7.0,3.0,21.8,43.5,1.9148,375.4273],
    [5329,1532799157,57.0374,-111.4513,952.9,630.9,236.4,7.3,3.0,21.9,44.3,1.9147,375.0544],
    [5330,1532799158,57.0371,-111.4522,951.4,630.4,236.0,7.3,3.1,22.3,43.87,1.916,376.465],
    [5331,1532799159,57.0368,-111.4531,949.8,629.0,235.8,7.6,3.2,21.46,44.9,1.9154,376.7243],
    [5332,1532799160,57.0364,-111.4539,948.1,628.1,235.5,8.0,3.2,21.88,45.01,1.9153,375.8488],
    [5333,1532799161,57.0361,-111.4548,946.4,626.4,235.0,8.2,3.6,21.88,44.79,1.9143,377.8024],
    [5334,1532799162,57.0357,-111.4556,944.4,624.4,234.6,8.3,3.7,22.05,45.16,1.9149,376.5289],
    [5335,1532799163,57.0354,-111.4565,942.2,623.2,234.3,8.3,3.8,21.7,45.73,1.9143,378.2264],
    [5336,1532799164,57.035,-111.4574,939.7,621.7,234.1,8.2,3.9,21.96,46.05,1.9138,376.4526],
    [5337,1532799165,57.0347,-111.4582,937.1,620.1,234.0,8.3,3.8,21.99,45.68,1.9146,376.5695],
    [5338,1532799166,57.0343,-111.4591,934.5,618.5,234.1,8.2,3.5,21.9,45.88,1.9148,377.1142],
    [5339,1532799167,57.034,-111.4599,931.9,615.9,234.2,7.8,3.2,21.49,46.06,1.9135,377.1262],
    [5340,1532799168,57.0336,-111.4608,928.9,612.9,234.3,7.5,2.9,21.96,46.77,1.9138,376.2484],
    [5341,1532799169,57.0332,-111.4617,925.7,610.4,234.5,7.0,2.4,21.84,46.43,1.9124,375.528],
    [5342,1532799170,57.0329,-111.4625,922.5,608.2,234.8,6.6,1.8,22.01,46.77,1.9122,375.3246],
    [5343,1532799171,57.0325,-111.4634,919.4,606.4,235.0,6.2,1.3,22.52,45.81,1.9124,375.4423],
    [5344,1532799172,57.0321,-111.4643,916.5,606.4,235.1,5.7,1.1,22.78,45.7,1.9135,376.2096],
    [5345,1532799173,57.0318,-111.4652,913.9,607.9,235.3,5.3,0.8,22.14,45.87,1.913,375.0724],
    [5346,1532799174,57.0314,-111.4661,911.7,611.4,235.4,5.0,0.6,21.85,45.99,1.9128,375.186],
    [5347,1532799175,57.0311,-111.467,910.0,624.8,235.6,4.6,0.2,22.03,45.87,1.9144,375.6808],
    [5348,1532799176,57.0307,-111.4679,908.9,634.2,235.6,4.2,0.0,21.99,45.3,1.9124,375.1036],
    [5349,1532799177,57.0303,-111.4688,908.5,641.5,235.6,4.2,0.0,21.97,45.11,1.9123,374.5143],
    [5350,1532799178,57.03,-111.4697,908.9,645.9,235.7,4.2,-0.1,21.66,45.1,1.9132,374.638],
    [5351,1532799179,57.0296,-111.4705,909.6,647.6,235.6,4.3,0.0,21.88,44.17,1.9131,375.7532],
    [5352,1532799180,57.0293,-111.4714,910.4,649.4,235.7,4.4,-0.1,22.0,45.05,1.9134,375.7496],
    [5353,1532799181,57.0289,-111.4723,911.2,650.2,235.6,4.3,-0.1,22.06,44.04,1.914,375.2317],
    [5354,1532799182,57.0286,-111.4732,911.8,650.8,235.6,4.1,-0.1,21.39,44.33,1.9159,374.8356],
    [5355,1532799183,57.0282,-111.4741,912.5,652.5,235.4,4.1,0.1,21.74,44.77,1.9165,376.0946],
    [5356,1532799184,57.0278,-111.4749,913.5,654.8,235.3,4.2,0.3,22.47,44.24,1.9153,374.7568],
    [5357,1532799185,57.0275,-111.4758,915.0,659.7,235.1,4.1,0.5,21.51,45.01,1.9147,375.9312],
    [5358,1532799186,57.0271,-111.4767,916.6,663.5,234.8,4.2,0.9,22.01,44.97,1.9142,375.9721],
    [5359,1532799187,57.0268,-111.4776,918.2,668.5,234.8,4.4,1.0,22.16,45.39,1.9143,375.9977],
    [5360,1532799188,57.0264,-111.4784,919.7,673.0,234.8,4.6,1.1,22.27,45.05,1.916,376.399],
    [5361,1532799189,57.0261,-111.4793,921.1,679.3,234.7,4.7,1.2,22.07,45.23,1.9137,374.2906],
    [5362,1532799190,57.0257,-111.4802,922.5,682.4,234.7,5.1,1.3,22.45,45.17,1.9147,375.7385],
    [5363,1532799191,57.0254,-111.481,923.7,685.4,234.7,5.2,1.3,22.17,45.46,1.9139,375.6064],
    [5364,1532799192,57.025,-111.4819,924.7,686.7,234.7,5.4,1.5,22.04,46.09,1.9134,374.7282],
    [5365,1532799193,57.0247,-111.4827,925.2,688.2,234.8,5.7,1.5,22.17,45.69,1.914,374.4244],
    [5366,1532799194,57.0243,-111.4835,925.6,687.6,235.1,5.9,1.5,22.1,45.16,1.9141,375.4092],
    [5367,1532799195,57.024,-111.4844,925.9,687.9,235.4,6.1,1.6,21.73,45.02,1.9136,376.1189],
    [5368,1532799196,57.0237,-111.4852,926.2,687.2,235.7,6.4,1.6,22.2,45.38,1.9142,373.6667],
    [5369,1532799197,57.0233,-111.4861,926.5,687.5,236.1,6.5,1.7,22.16,45.12,1.9139,374.9108],
    [5370,1532799198,57.023,-111.4869,926.8,687.8,236.4,6.5,1.8,21.72,45.32,1.9143,375.6803],
    [5371,1532799199,57.0227,-111.4878,926.9,688.8,236.8,6.6,1.8,22.19,44.57,1.9142,375.1534],
    [5372,1532799200,57.0223,-111.4886,926.6,690.1,237.1,6.6,1.7,22.13,44.48,1.914,374.9897],
    [5373,1532799201,57.022,-111.4895,926.1,691.1,237.1,6.5,1.8,23.03,44.0,1.9155,375.8272],
    [5374,1532799202,57.0217,-111.4903,925.6,690.6,236.7,6.1,2.0,22.36,44.39,1.9143,374.2341],
    [5375,1532799203,57.0214,-111.4912,924.9,689.9,236.8,6.0,1.7,22.4,43.99,1.9141,374.2341],
    [5376,1532799204,57.021,-111.492,924.1,688.8,236.6,5.4,1.7,22.13,44.56,1.9138,375.7838],
    [5377,1532799205,57.0207,-111.4929,923.2,686.6,236.3,4.9,1.5,21.74,44.18,1.9144,374.8493],
    [5378,1532799206,57.0204,-111.4937,922.1,683.1,236.3,4.6,1.1,21.95,44.04,1.915,374.8659],
    [5379,1532799207,57.0201,-111.4946,921.1,676.7,236.0,4.3,1.1,21.67,43.77,1.9139,374.8734],
    [5380,1532799208,57.0197,-111.4955,920.7,670.6,235.8,4.1,1.0,22.28,43.43,1.9158,375.7556],
    [5381,1532799209,57.0194,-111.4963,920.4,660.5,235.8,3.8,0.9,22.39,44.01,1.9144,375.0123],
    [5382,1532799210,57.0191,-111.4972,920.0,653.9,235.7,3.6,0.8,22.07,43.55,1.9144,374.3083],
    [5383,1532799211,57.0187,-111.498,919.5,649.7,235.9,3.5,0.6,22.5,43.35,1.9154,375.6816],
    [5384,1532799212,57.0184,-111.4989,919.6,648.4,235.9,3.2,0.4,21.86,43.77,1.9135,375.5206],
    [5385,1532799213,57.0181,-111.4997,920.5,647.1,235.9,2.9,0.2,21.51,43.88,1.914,375.5206],
    [5386,1532799214,57.0177,-111.5006,922.2,643.9,235.9,2.5,-0.1,22.39,43.5,1.9144,374.9242],
    [5387,1532799215,57.0174,-111.5014,924.0,639.2,235.9,2.1,-0.2,22.07,43.96,1.9133,374.7028],
    [5388,1532799216,57.0171,-111.5023,926.0,632.8,235.9,1.9,-0.2,22.16,44.02,1.9131,374.1461],
    [5389,1532799217,57.0168,-111.5031,927.8,629.7,235.9,2.0,-0.2,22.51,43.18,1.9141,375.943],
    [5390,1532799218,57.0164,-111.5039,929.4,628.9,235.9,1.9,-0.3,22.19,43.77,1.9134,374.5785],
    [5391,1532799219,57.0161,-111.5048,930.5,633.6,235.9,1.9,-0.3,22.12,43.52,1.9141,375.2213],
    [5392,1532799220,57.0158,-111.5056,931.5,634.5,235.9,1.9,-0.4,21.69,43.7,1.9152,374.9116],
    [5393,1532799221,57.0155,-111.5064,932.9,635.9,235.8,2.1,-0.2,22.17,44.39,1.9164,374.9062],
    [5394,1532799222,57.0151,-111.5073,935.5,638.5,235.7,2.4,0.1,21.92,44.13,1.9165,375.2774],
    [5395,1532799223,57.0148,-111.5081,939.1,642.1,235.5,2.9,0.5,21.77,44.29,1.9158,375.31],
    [5396,1532799224,57.0145,-111.5088,943.5,646.5,235.3,3.5,1.0,22.21,44.12,1.9159,375.5845],
    [5397,1532799225,57.0142,-111.5096,948.5,651.5,235.1,4.1,1.5,22.85,43.87,1.9152,374.227],
    [5398,1532799226,57.0139,-111.5104,952.8,652.9,234.7,4.4,1.9,21.93,44.35,1.9146,374.5726],
    [5399,1532799227,57.0136,-111.5112,955.6,658.6,234.5,4.7,2.1,21.36,44.48,1.9151,374.5726],
    [5400,1532799228,57.0133,-111.512,957.3,660.3,234.2,5.0,2.4,22.22,44.03,1.9149,375.6131],
    [5401,1532799229,57.013,-111.5127,958.9,661.9,234.0,5.2,2.5,21.48,44.44,1.9155,375.7123],
    [5402,1532799230,57.0127,-111.5135,960.3,651.6,234.1,5.6,2.5,22.24,44.2,1.9141,375.1318],
    [5403,1532799231,57.0123,-111.5142,961.5,646.0,234.2,5.9,2.7,22.22,44.64,1.9133,375.4206],
    [5404,1532799232,57.012,-111.515,962.5,645.5,234.1,6.2,3.0,21.9,44.59,1.9157,375.2795],
    [5405,1532799233,57.0117,-111.5157,963.1,645.3,234.2,6.3,2.9,21.7,44.02,1.9139,375.2795],
    [5406,1532799234,57.0114,-111.5165,963.4,644.9,234.0,6.4,3.1,22.47,43.49,1.9145,375.2174],
    [5407,1532799235,57.0111,-111.5172,963.3,644.3,234.0,6.3,3.0,22.74,43.27,1.9134,375.5122],
    [5408,1532799236,57.0108,-111.518,963.0,643.7,234.1,6.2,2.8,22.05,44.39,1.9137,374.4241],
    [5409,1532799237,57.0105,-111.5187,962.8,642.8,233.9,6.1,2.8,22.3,43.81,1.9142,376.4526],
    [5410,1532799238,57.0102,-111.5195,962.6,642.6,233.6,5.9,3.0,21.78,44.17,1.9159,374.5928],
    [5411,1532799239,57.0099,-111.5202,962.4,642.3,233.5,5.8,3.1,22.0,44.31,1.9144,375.6585],
    [5412,1532799240,57.0095,-111.521,962.0,642.0,233.7,5.8,2.9,21.71,44.55,1.9153,375.442],
    [5413,1532799241,57.0092,-111.5217,961.5,641.5,233.7,5.5,2.9,21.94,44.66,1.9145,375.6258],
    [5414,1532799242,57.0089,-111.5225,961.1,641.1,233.7,5.2,2.8,21.66,44.57,1.9147,375.6258],
    [5415,1532799243,57.0086,-111.5232,960.7,641.8,234.0,5.2,2.5,22.09,45.41,1.9159,375.3687],
    [5416,1532799244,57.0083,-111.524,960.4,641.3,234.1,5.1,2.3,22.1,45.32,1.9154,375.5855],
    [5417,1532799245,57.008,-111.5248,960.2,641.2,234.3,5.4,2.4,21.68,44.96,1.9163,375.9243],
    [5418,1532799246,57.0077,-111.5255,960.3,641.2,234.3,5.6,2.6,21.79,45.15,1.9144,376.2091],
    [5419,1532799247,57.0074,-111.5263,960.4,641.3,234.3,5.9,2.9,21.9,45.18,1.915,375.6753],
    [5420,1532799248,57.007,-111.5271,960.6,641.6,234.4,6.1,2.7,21.96,45.44,1.9141,375.8809],
    [5421,1532799249,57.0067,-111.5278,960.9,642.2,234.5,6.3,2.7,22.13,45.07,1.9148,376.2315],
    [5422,1532799250,57.0064,-111.5286,961.4,643.4,234.5,6.4,2.7,22.0,45.39,1.9142,375.0645],
    [5423,1532799251,57.0061,-111.5293,962.2,643.1,234.5,6.3,2.5,22.73,44.86,1.9155,373.3254],
    [5424,1532799252,57.0058,-111.5301,963.1,644.0,234.3,6.0,2.5,21.97,45.33,1.9141,373.3254],
    [5425,1532799253,57.0055,-111.5309,964.0,644.8,234.2,6.1,2.6,22.07,45.6,1.9142,375.0826],
    [5426,1532799254,57.0052,-111.5316,964.5,645.2,234.2,6.1,2.7,22.3,45.2,1.9145,375.8221],
    [5427,1532799255,57.0049,-111.5324,964.4,644.7,233.9,5.7,2.6,22.05,45.11,1.9159,373.9097],
    [5428,1532799256,57.0045,-111.5331,963.8,643.9,234.2,5.6,2.0,22.24,45.42,1.9148,373.9097],
    [5429,1532799257,57.0042,-111.5339,962.9,643.0,234.4,5.3,1.6,21.87,45.45,1.9141,375.725],
    [5430,1532799258,57.0039,-111.5347,961.9,642.6,234.8,5.1,1.2,21.77,45.68,1.9148,375.3573],
    [5431,1532799259,57.0036,-111.5354,961.2,642.9,235.1,4.9,1.2,22.07,46.24,1.9158,376.006],
    [5432,1532799260,57.0033,-111.5362,961.2,643.8,235.5,4.8,1.0,22.16,45.62,1.9153,376.175],
    [5433,1532799261,57.003,-111.537,961.7,644.2,235.5,4.5,1.2,21.66,45.63,1.9139,375.4032],
    [5434,1532799262,57.0027,-111.5378,962.3,643.8,235.3,3.9,1.4,22.08,45.78,1.9138,376.4345],
    [5435,1532799263,57.0024,-111.5385,963.0,643.4,235.8,3.5,0.8,21.79,45.95,1.9146,374.5313],
    [5436,1532799264,57.0021,-111.5393,963.9,643.1,236.3,3.3,0.5,22.08,46.08,1.9158,374.0408],
    [5437,1532799265,57.0018,-111.5401,965.1,644.0,236.7,3.1,0.1,22.0,46.03,1.9136,374.7456],
    [5438,1532799266,57.0015,-111.5408,966.8,645.0,237.0,2.9,-0.1,21.86,45.68,1.9139,374.0138],
    [5439,1532799267,57.0012,-111.5416,968.9,646.9,237.1,2.6,-0.2,21.96,45.28,1.9137,375.8064],
    [5440,1532799268,57.0009,-111.5424,971.3,648.2,236.6,2.3,0.2,21.92,45.19,1.9135,375.1557],
    [5441,1532799269,57.0006,-111.5432,973.5,650.1,236.6,2.3,0.4,22.39,44.91,1.9134,376.3452],
    [5442,1532799270,57.0003,-111.5439,975.3,651.5,236.8,2.5,0.4,21.7,45.13,1.914,375.6571],
    [5443,1532799271,57.0,-111.5447,977.5,653.8,236.8,2.7,0.4,21.76,45.27,1.9145,375.0652],
    [5444,1532799272,56.9998,-111.5454,980.5,656.5,236.9,2.7,0.3,21.37,45.68,1.9148,375.67],
    [5445,1532799273,56.9995,-111.5462,984.2,660.1,236.8,3.0,0.5,21.88,46.33,1.9129,375.5702],
    [5446,1532799274,56.9992,-111.5469,988.3,663.4,236.4,3.2,0.9,22.1,45.74,1.9148,374.8861],
    [5447,1532799275,56.9989,-111.5476,992.9,668.1,235.8,3.5,1.4,22.35,45.04,1.9146,375.5326],
    [5448,1532799276,56.9987,-111.5483,997.5,672.0,235.2,3.9,1.9,21.71,46.3,1.9138,375.9575],
    [5449,1532799277,56.9984,-111.549,1001.8,676.4,234.8,4.4,2.2,22.18,44.97,1.9132,375.4681],
    [5450,1532799278,56.9981,-111.5497,1005.7,680.9,234.1,4.9,2.5,21.64,45.91,1.9142,375.5157],
    [5451,1532799279,56.9978,-111.5504,1008.8,683.8,233.2,5.2,2.7,21.7,45.43,1.9123,374.6825],
    [5452,1532799280,56.9976,-111.551,1011.7,686.6,232.4,5.6,2.8,22.07,45.12,1.9141,374.9434],
    [5453,1532799281,56.9973,-111.5517,1014.1,689.0,231.3,6.0,2.9,21.43,45.77,1.9131,373.736],
    [5454,1532799282,56.997,-111.5523,1016.5,691.3,229.5,6.1,3.2,22.02,45.17,1.9139,373.9947],
    [5455,1532799283,56.9966,-111.5529,1018.6,693.5,227.6,6.1,3.6,21.73,45.0,1.913,375.9502],
    [5456,1532799284,56.9963,-111.5535,1020.3,695.3,225.4,6.5,4.4,22.0,44.98,1.9143,375.9925],
    [5457,1532799285,56.996,-111.5541,1021.9,696.9,223.2,6.7,4.9,21.67,45.37,1.9147,376.2471],
    [5458,1532799286,56.9956,-111.5546,1023.0,697.0,221.1,7.0,5.3,21.53,44.74,1.9142,376.5544],
    [5459,1532799287,56.9953,-111.5552,1024.0,698.2,218.9,7.1,5.7,21.85,44.59,1.9143,376.625],
    [5460,1532799288,56.9949,-111.5557,1024.7,699.6,216.7,7.1,6.0,22.01,44.29,1.9145,376.116],
    [5461,1532799289,56.9945,-111.5561,1025.3,701.3,214.4,6.9,6.2,21.48,45.86,1.9156,376.4175],
    [5462,1532799290,56.9941,-111.5566,1025.8,702.9,212.7,7.0,6.2,21.68,45.48,1.9129,375.4196],
    [5463,1532799291,56.9937,-111.557,1026.2,704.2,210.5,6.7,6.5,21.67,45.26,1.9155,375.5092],
    [5464,1532799292,56.9932,-111.5574,1026.7,705.7,208.8,7.0,6.9,21.07,45.53,1.914,375.6612],
    [5465,1532799293,56.9928,-111.5578,1027.0,706.0,207.2,7.0,7.2,21.43,46.24,1.9154,374.557],
    [5466,1532799294,56.9924,-111.5581,1026.6,706.6,205.5,6.8,7.5,21.97,45.63,1.9163,375.2877],
    [5467,1532799295,56.9919,-111.5584,1025.3,705.3,204.4,7.1,7.4,21.51,45.93,1.9175,376.9752],
    [5468,1532799296,56.9914,-111.5587,1023.8,703.8,202.5,7.1,7.9,21.64,46.56,1.9212,376.9752],
    [5469,1532799297,56.991,-111.559,1022.6,702.9,200.4,7.0,8.3,21.66,46.64,1.9335,377.9179],
    [5470,1532799298,56.9905,-111.5592,1021.2,701.9,199.2,7.4,8.2,21.25,47.82,1.9396,379.165],
    [5471,1532799299,56.99,-111.5595,1019.5,700.5,197.1,7.0,8.5,21.52,48.85,1.9427,380.3092],
    [5472,1532799300,56.9895,-111.5597,1017.9,698.9,195.2,6.7,8.5,21.21,50.51,1.9396,380.1502],
    [5473,1532799301,56.989,-111.5598,1015.8,696.8,194.1,7.1,8.6,21.3,51.86,1.9398,379.0519],
    [5474,1532799302,56.9885,-111.56,1013.3,695.3,192.0,6.6,8.2,21.38,53.07,1.9381,378.7097],
    [5475,1532799303,56.9879,-111.5601,1010.5,694.5,189.9,6.1,7.7,21.38,53.59,1.9373,379.3421],
    [5476,1532799304,56.9874,-111.5602,1007.5,693.2,188.3,6.0,6.8,20.9,53.9,1.9344,378.9721],
    [5477,1532799305,56.9869,-111.5602,1004.3,692.1,186.6,5.8,6.6,21.11,54.03,1.9325,378.1612],
    [5478,1532799306,56.9863,-111.5602,1001.3,691.2,185.6,6.0,6.1,21.66,54.23,1.9295,376.4013],
    [5479,1532799307,56.9857,-111.5602,998.4,689.4,184.9,5.9,5.7,20.68,53.86,1.9287,377.2914],
    [5480,1532799308,56.9852,-111.5602,995.5,686.5,183.9,5.3,5.1,20.9,53.56,1.9273,377.2914],
    [5481,1532799309,56.9846,-111.5602,992.6,683.6,183.3,5.1,5.1,21.15,53.29,1.9265,376.9457],
    [5482,1532799310,56.9841,-111.5602,990.3,681.3,183.0,5.1,4.7,21.04,52.61,1.925,375.9293],
    [5483,1532799311,56.9835,-111.5602,988.2,679.2,182.4,4.8,4.7,20.6,52.23,1.9253,376.3424],
    [5484,1532799312,56.9829,-111.5601,986.4,677.4,182.4,4.9,5.1,20.88,52.44,1.9304,378.1197],
    [5485,1532799313,56.9824,-111.5601,984.9,675.9,182.3,4.6,4.8,21.8,51.27,1.9329,378.4343],
    [5486,1532799314,56.9818,-111.5601,983.4,674.4,183.4,5.7,4.9,21.2,52.53,1.9337,377.918],
    [5487,1532799315,56.9812,-111.56,981.6,670.6,183.8,5.8,4.5,20.94,52.55,1.9311,377.3456],
    [5488,1532799316,56.9807,-111.56,979.9,665.8,183.3,5.2,4.4,21.33,52.39,1.9277,377.4603],
    [5489,1532799317,56.9801,-111.56,979.2,661.8,183.6,5.5,4.2,21.45,52.59,1.9261,377.4085],
    [5490,1532799318,56.9795,-111.56,978.8,659.5,184.0,5.8,4.2,21.5,52.26,1.9306,377.3866],
    [5491,1532799319,56.9789,-111.56,978.1,656.9,183.6,5.3,4.4,21.15,52.45,1.9374,378.1288],
    [5492,1532799320,56.9784,-111.5599,977.1,654.8,183.9,5.7,4.1,21.24,52.14,1.94,378.5171],
    [5493,1532799321,56.9778,-111.5599,976.1,653.1,183.8,5.5,3.7,21.11,53.61,1.9404,378.7795],
    [5494,1532799322,56.9772,-111.5599,974.9,650.9,184.2,5.8,3.8,21.51,53.19,1.9359,377.5888],
    [5495,1532799323,56.9767,-111.5599,973.6,649.6,184.7,6.0,3.6,21.33,54.13,1.9294,378.0704],
    [5496,1532799324,56.9761,-111.5599,972.1,648.1,184.1,5.0,3.1,21.27,54.11,1.9277,378.0704],
    [5497,1532799325,56.9755,-111.5599,971.0,647.0,183.7,4.8,2.7,21.1,54.36,1.9311,376.9704],
    [5498,1532799326,56.9749,-111.5599,969.9,645.9,184.0,5.4,2.2,21.13,53.37,1.9307,377.6374],
    [5499,1532799327,56.9743,-111.5599,969.0,645.0,183.5,5.2,2.1,20.52,53.38,1.9342,377.5819],
    [5500,1532799328,56.9738,-111.5599,967.9,643.9,183.7,5.7,1.7,21.07,53.84,1.9384,378.1692],
    [5501,1532799329,56.9732,-111.5598,967.0,643.0,183.7,5.7,1.7,20.64,53.59,1.9368,378.1692],
    [5502,1532799330,56.9726,-111.5598,966.9,643.9,182.8,4.7,2.3,20.94,54.21,1.9377,378.9211],
    [5503,1532799331,56.972,-111.5598,967.9,644.9,182.7,4.2,2.7,21.56,54.36,1.939,378.9535],
    [5504,1532799332,56.9714,-111.5598,968.7,646.4,182.4,3.4,2.7,21.14,54.97,1.9387,378.9535],
    [5505,1532799333,56.9709,-111.5598,969.0,648.3,182.2,2.9,2.9,20.67,55.09,1.9341,377.2624],
    [5506,1532799334,56.9703,-111.5598,968.8,650.1,183.4,4.3,2.5,21.51,54.7,1.9353,376.3224],
    [5507,1532799335,56.9697,-111.5598,968.8,652.6,184.5,5.1,2.8,21.14,54.95,1.9348,378.331],
    [5508,1532799336,56.9692,-111.5598,968.8,654.8,184.0,4.5,3.1,21.03,55.04,1.9363,378.331],
    [5509,1532799337,56.9686,-111.5598,968.2,655.2,184.5,5.0,2.8,21.82,54.54,1.9394,377.5859],
    [5510,1532799338,56.968,-111.5598,967.7,654.7,183.8,4.3,2.7,21.84,54.84,1.9404,377.0043],
    [5511,1532799339,56.9674,-111.5598,967.2,654.2,183.7,4.4,2.6,21.01,55.44,1.9416,377.6461],
    [5512,1532799340,56.9669,-111.5598,966.9,652.9,183.1,3.9,3.0,21.41,55.45,1.9428,377.7702],
    [5513,1532799341,56.9663,-111.5598,966.2,651.2,183.0,4.1,3.5,20.68,56.3,1.9435,376.728],
    [5514,1532799342,56.9657,-111.5597,965.6,650.7,183.3,4.3,3.1,20.93,56.37,1.9472,377.6333],
    [5515,1532799343,56.9652,-111.5597,965.0,649.0,182.7,3.6,3.8,20.8,57.0,1.947,378.7844],
    [5516,1532799344,56.9646,-111.5597,963.8,646.8,183.6,4.5,3.4,20.5,57.28,1.9469,377.2298],
    [5517,1532799345,56.964,-111.5597,962.8,645.8,183.6,4.2,3.3,20.81,57.54,1.9464,378.3561],
    [5518,1532799346,56.9635,-111.5597,962.3,644.3,184.4,5.1,4.1,21.15,57.18,1.9404,377.8623],
    [5519,1532799347,56.9629,-111.5597,962.1,644.1,185.3,5.7,4.1,20.77,57.68,1.94,377.6891],
    [5520,1532799348,56.9623,-111.5597,962.1,644.1,184.8,5.1,4.8,21.33,56.51,1.9394,378.3372],
    [5521,1532799349,56.9618,-111.5598,961.5,643.5,185.3,5.6,5.5,20.73,57.13,1.9426,378.3372],
    [5522,1532799350,56.9612,-111.5598,960.4,642.4,185.3,5.2,5.5,20.38,56.86,1.9409,376.8262],
    [5523,1532799351,56.9606,-111.5598,958.8,640.8,185.0,4.7,5.1,20.86,57.48,1.9418,377.7469],
    [5524,1532799352,56.9601,-111.5598,957.0,638.0,185.3,4.9,5.3,20.75,57.01,1.9421,377.4621],
    [5525,1532799353,56.9595,-111.5598,955.1,637.1,185.6,4.8,5.0,20.19,56.87,1.9448,378.1948],
    [5526,1532799354,56.959,-111.5599,953.4,636.4,184.7,3.5,5.0,20.63,57.52,1.9461,379.0446],
    [5527,1532799355,56.9584,-111.5599,951.9,636.0,184.1,2.7,5.0,21.26,56.4,1.9455,377.8536],
    [5528,1532799356,56.9578,-111.5599,949.9,633.9,184.7,3.3,4.4,20.83,58.04,1.9423,377.407],
    [5529,1532799357,56.9572,-111.56,946.9,629.1,186.2,4.8,4.4,20.73,57.41,1.9441,377.1131],
    [5530,1532799358,56.9567,-111.56,943.1,624.5,186.3,4.7,4.2,20.7,58.37,1.9449,378.2098],
    [5531,1532799359,56.9561,-111.5601,939.4,620.1,185.6,4.1,3.6,20.76,58.2,1.9428,377.8803],
    [5532,1532799360,56.9555,-111.5601,936.3,617.0,186.1,4.5,3.3,21.2,56.96,1.9397,377.7518],
    [5533,1532799361,56.9549,-111.5602,934.0,614.0,185.7,3.9,3.5,21.56,56.81,1.9453,377.824],
    [5534,1532799362,56.9544,-111.5602,932.2,611.9,185.3,3.4,4.5,20.56,57.2,1.9469,377.824],
    [5535,1532799363,56.9538,-111.5603,930.7,609.6,186.0,4.3,4.9,21.17,56.77,1.9456,377.3286],
    [5536,1532799364,56.9532,-111.5603,929.3,609.4,186.0,4.0,4.4,20.39,57.18,1.9437,377.6736],
    [5537,1532799365,56.9526,-111.5604,928.6,608.6,185.1,2.9,4.2,20.55,57.38,1.9464,377.1079],
    [5538,1532799366,56.952,-111.5604,928.1,608.1,185.6,3.7,3.6,20.77,57.72,1.9467,376.6955],
    [5539,1532799367,56.9515,-111.5605,927.2,607.8,186.3,4.8,3.1,20.61,57.65,1.9465,377.4431],
    [5540,1532799368,56.9509,-111.5605,925.8,606.8,185.4,4.3,3.1,20.76,57.43,1.9471,376.8132],
    [5541,1532799369,56.9503,-111.5605,924.2,605.2,184.2,3.5,3.7,21.06,57.17,1.9494,377.1495],
    [5542,1532799370,56.9497,-111.5605,921.9,603.9,184.3,4.2,4.1,20.88,58.38,1.9491,377.2502],
    [5543,1532799371,56.9491,-111.5606,918.6,601.6,184.7,5.1,3.3,21.09,57.96,1.9487,377.5022],
    [5544,1532799372,56.9486,-111.5606,914.8,598.3,183.4,4.0,2.9,20.9,58.5,1.9489,377.095],
    [5545,1532799373,56.948,-111.5606,911.1,595.1,182.4,3.4,2.6,20.63,58.12,1.9475,376.9781],
    [5546,1532799374,56.9474,-111.5606,907.8,591.8,183.1,4.5,2.7,20.75,57.92,1.9463,376.9592],
    [5547,1532799375,56.9468,-111.5605,904.8,588.8,183.4,5.1,2.3,20.81,57.93,1.9466,376.5558],
    [5548,1532799376,56.9462,-111.5605,902.1,587.1,182.6,4.3,2.3,20.88,58.55,1.9437,375.3559],
    [5549,1532799377,56.9456,-111.5605,900.1,585.1,181.9,3.9,2.3,20.76,57.97,1.9424,376.9101],
    [5550,1532799378,56.945,-111.5605,898.9,583.9,181.7,3.6,2.3,21.5,57.13,1.9422,376.5027],
    [5551,1532799379,56.9445,-111.5604,897.5,582.5,181.5,3.6,2.6,20.5,57.31,1.9434,375.8902],
    [5552,1532799380,56.9439,-111.5604,897.1,582.1,182.0,4.2,2.9,21.44,56.53,1.9448,376.7324],
    [5553,1532799381,56.9433,-111.5604,897.3,582.3,180.9,2.8,3.2,20.6,57.27,1.9451,377.007],
    [5554,1532799382,56.9427,-111.5603,898.1,583.1,179.9,1.7,3.5,20.85,57.13,1.9454,376.3812],
    [5555,1532799383,56.9421,-111.5603,898.0,583.0,180.7,2.5,3.0,20.58,57.56,1.9448,376.9925],
    [5556,1532799384,56.9416,-111.5603,896.8,581.8,181.1,2.7,3.6,20.19,57.18,1.9435,375.756],
    [5557,1532799385,56.941,-111.5603,894.6,579.6,180.7,2.3,4.4,21.47,56.6,1.9423,376.7303],
    [5558,1532799386,56.9404,-111.5602,891.4,576.4,181.8,3.4,3.9,21.03,56.74,1.9431,377.4799],
    [5559,1532799387,56.9398,-111.5602,888.3,573.3,181.9,3.3,3.2,21.35,56.37,1.9457,376.8451],
    [5560,1532799388,56.9392,-111.5602,885.7,570.7,182.0,3.4,2.1,21.17,56.33,1.9454,376.816],
    [5561,1532799389,56.9387,-111.5602,883.9,568.9,182.2,3.6,2.1,20.82,56.37,1.9464,376.8568],
    [5562,1532799390,56.9381,-111.5602,882.0,566.0,182.2,3.9,2.2,20.46,56.69,1.9468,377.2116],
    [5563,1532799391,56.9375,-111.5602,880.0,564.0,182.5,4.4,2.0,20.56,56.92,1.9472,377.3783],
    [5564,1532799392,56.9369,-111.5601,877.8,561.8,181.6,3.6,1.4,21.2,57.69,1.9471,376.2876],
    [5565,1532799393,56.9363,-111.5601,875.6,559.6,181.8,4.1,0.7,20.96,57.06,1.9465,376.9837],
    [5566,1532799394,56.9358,-111.5601,873.4,556.7,182.7,4.8,0.9,20.43,57.15,1.9468,376.1525],
    [5567,1532799395,56.9352,-111.56,871.5,554.5,181.1,3.0,1.8,20.59,57.57,1.9447,376.9441],
    [5568,1532799396,56.9346,-111.56,870.4,553.4,180.5,2.6,2.3,21.14,57.4,1.9445,377.1611],
    [5569,1532799397,56.934,-111.56,869.6,552.7,181.0,3.2,1.8,21.46,57.03,1.9442,375.7721],
    [5570,1532799398,56.9335,-111.5599,869.2,551.6,180.6,2.6,2.0,21.17,56.79,1.9454,378.3438],
    [5571,1532799399,56.9329,-111.5599,868.8,550.8,178.0,-0.2,2.5,21.1,57.11,1.9441,377.2536],
    [5572,1532799400,56.9323,-111.5599,868.5,549.4,177.8,0.3,3.2,20.81,56.62,1.9429,376.9192],
    [5573,1532799401,56.9317,-111.5598,868.6,549.6,178.9,1.3,3.9,20.88,56.4,1.9442,376.0414],
    [5574,1532799402,56.9312,-111.5598,868.6,548.5,178.6,0.6,4.0,21.08,56.32,1.9446,375.2914],
    [5575,1532799403,56.9306,-111.5597,867.8,547.8,179.8,1.2,4.1,21.42,56.6,1.9475,376.3998],
    [5576,1532799404,56.93,-111.5597,866.5,546.6,181.5,2.5,3.5,21.2,56.51,1.9492,375.4275],
    [5577,1532799405,56.9295,-111.5597,865.0,545.0,182.1,2.7,3.1,21.28,57.13,1.9424,374.8634],
    [5578,1532799406,56.9289,-111.5597,863.5,542.5,182.5,3.1,3.1,20.63,56.97,1.9372,376.4864],
    [5579,1532799407,56.9284,-111.5597,862.9,541.9,182.4,3.1,3.5,21.27,56.25,1.94,376.1686],
    [5580,1532799408,56.9278,-111.5597,863.0,542.0,182.3,2.9,3.4,21.18,56.09,1.9421,376.8092],
    [5581,1532799409,56.9272,-111.5597,863.5,541.8,181.7,1.8,3.4,21.15,55.53,1.9408,376.4817],
    [5582,1532799410,56.9267,-111.5597,862.6,540.6,182.9,2.9,3.1,21.0,55.85,1.9374,374.4013],
    [5583,1532799411,56.9261,-111.5597,861.0,539.1,183.8,3.8,3.0,21.35,55.52,1.9369,376.5273],
    [5584,1532799412,56.9255,-111.5597,859.7,538.7,183.3,3.3,2.8,20.78,55.06,1.9409,376.5171],
    [5585,1532799413,56.9249,-111.5597,859.1,538.1,182.8,3.0,2.5,20.61,55.14,1.9424,376.295],
    [5586,1532799414,56.9244,-111.5597,858.6,537.7,182.5,3.1,2.6,21.34,55.2,1.9432,376.0777],
    [5587,1532799415,56.9238,-111.5597,858.7,536.6,180.9,1.4,2.2,21.68,55.26,1.9445,376.0777],
    [5588,1532799416,56.9232,-111.5597,857.3,534.6,179.6,0.6,2.1,21.87,54.77,1.945,375.537],
    [5589,1532799417,56.9227,-111.5597,854.4,530.3,182.3,4.0,2.1,21.62,55.45,1.9433,375.2775],
    [5590,1532799418,56.9221,-111.5597,852.3,527.3,182.6,3.9,2.1,22.03,55.53,1.943,376.0585],
    [5591,1532799419,56.9215,-111.5597,852.3,526.6,182.0,3.4,2.7,21.29,56.38,1.9425,375.9272],
    [5592,1532799420,56.9209,-111.5597,852.6,526.6,182.5,3.7,2.5,21.44,55.92,1.9451,375.977],
    [5593,1532799421,56.9203,-111.5596,852.0,526.0,182.1,3.3,1.9,21.53,55.92,1.9441,376.2466],
    [5594,1532799422,56.9198,-111.5596,850.7,524.7,182.8,3.9,1.2,22.03,55.32,1.9427,376.7236],
    [5595,1532799423,56.9192,-111.5596,850.4,523.4,182.3,3.4,0.8,20.97,56.04,1.941,376.2472],
    [5596,1532799424,56.9186,-111.5596,851.0,523.0,181.7,2.7,0.6,21.34,55.85,1.9421,376.2472],
    [5597,1532799425,56.918,-111.5596,852.0,524.0,181.7,2.9,0.6,20.97,55.93,1.9416,375.9056],
    [5598,1532799426,56.9175,-111.5596,852.9,524.9,181.7,2.6,1.5,22.17,55.09,1.9436,375.2727],
    [5599,1532799427,56.9169,-111.5596,854.1,525.1,180.2,1.1,2.3,21.49,55.52,1.9451,375.9436],
    [5600,1532799428,56.9163,-111.5596,854.6,525.6,181.0,2.2,2.3,20.64,55.53,1.9483,376.2775],
    [5601,1532799429,56.9158,-111.5595,854.8,525.8,182.8,3.9,1.2,21.35,55.47,1.9455,375.439],
    [5602,1532799430,56.9152,-111.5595,855.7,526.7,182.0,2.9,0.5,21.69,56.27,1.9455,374.1248],
    [5603,1532799431,56.9146,-111.5595,857.3,527.3,183.4,4.9,1.0,22.16,55.86,1.9446,375.4752],
    [5604,1532799432,56.9141,-111.5595,858.4,528.4,185.3,6.3,1.3,21.13,56.56,1.9431,375.9048],
    [5605,1532799433,56.9135,-111.5595,859.3,529.3,182.8,3.4,1.0,21.44,57.22,1.9469,374.888],
    [5606,1532799434,56.9129,-111.5595,860.3,530.3,182.9,3.3,0.5,21.11,56.31,1.9458,375.6966],
    [5607,1532799435,56.9124,-111.5595,860.7,530.7,182.7,3.1,0.1,21.06,56.28,1.9459,376.3073],
    [5608,1532799436,56.9118,-111.5595,861.0,531.0,182.1,2.7,-0.1,21.27,56.23,1.9454,375.9737],
    [5609,1532799437,56.9112,-111.5595,861.1,531.1,182.9,3.9,-0.5,21.81,55.87,1.9468,375.9111],
    [5610,1532799438,56.9107,-111.5595,862.0,532.0,183.4,4.7,-0.4,21.2,56.75,1.9482,375.3052],
    [5611,1532799439,56.9101,-111.5594,863.7,533.7,182.8,4.5,0.4,21.88,56.11,1.947,376.1829],
    [5612,1532799440,56.9096,-111.5594,866.5,536.5,181.6,3.7,1.3,21.37,56.69,1.9484,376.0457],
    [5613,1532799441,56.909,-111.5594,870.1,540.1,181.0,3.7,2.2,21.58,57.31,1.945,375.9422],
    [5614,1532799442,56.9085,-111.5593,872.5,542.5,182.0,4.9,2.1,21.79,56.59,1.944,377.1311],
    [5615,1532799443,56.9079,-111.5593,874.0,544.0,181.8,4.3,2.7,21.65,56.51,1.9469,374.9325],
    [5616,1532799444,56.9073,-111.5593,875.5,544.8,179.6,2.2,2.9,21.13,56.61,1.9474,375.8023],
    [5617,1532799445,56.9068,-111.5592,878.1,547.1,180.1,2.9,2.4,21.08,56.61,1.9471,375.6833],
    [5618,1532799446,56.9062,-111.5592,879.2,548.2,179.8,2.4,2.0,20.89,56.72,1.9455,376.1102],
    [5619,1532799447,56.9057,-111.5591,880.1,549.1,179.5,2.2,2.0,21.35,56.96,1.9433,375.8419],
    [5620,1532799448,56.9052,-111.5591,880.6,548.6,180.4,2.7,1.8,22.04,55.92,1.9432,375.5155],
    [5621,1532799449,56.9046,-111.559,880.4,548.4,180.5,2.7,2.0,21.73,56.08,1.944,376.185],
    [5622,1532799450,56.9041,-111.559,880.1,548.1,180.9,2.9,2.5,22.11,55.7,1.9427,375.9199],
    [5623,1532799451,56.9036,-111.559,880.4,548.1,181.8,3.2,2.7,21.22,56.14,1.9428,375.7508],
    [5624,1532799452,56.903,-111.559,881.0,548.0,182.1,2.6,2.7,21.07,56.14,1.9403,376.7016],
    [5625,1532799453,56.9025,-111.559,881.8,548.8,182.4,2.3,2.8,21.96,55.79,1.9399,375.633],
    [5626,1532799454,56.9019,-111.559,882.4,549.4,183.6,3.0,3.3,21.29,55.7,1.9415,375.472],
    [5627,1532799455,56.9014,-111.559,882.5,549.5,184.3,3.3,3.2,21.53,56.08,1.94,376.764],
    [5628,1532799456,56.9009,-111.559,882.5,548.5,183.6,2.7,3.6,20.97,55.61,1.9416,376.7395],
    [5629,1532799457,56.9003,-111.559,883.2,549.2,182.7,2.0,4.2,21.2,55.59,1.9443,375.8148],
    [5630,1532799458,56.8998,-111.5591,883.3,549.3,182.0,1.8,4.2,20.99,55.64,1.9407,375.3967],
    [5631,1532799459,56.8993,-111.5591,882.6,548.6,183.5,3.4,3.6,21.54,55.15,1.9409,375.9156],
    [5632,1532799460,56.8988,-111.5591,881.7,547.7,182.9,2.8,3.8,21.4,55.67,1.9409,376.115],
    [5633,1532799461,56.8982,-111.5591,880.7,545.7,182.9,3.0,3.7,21.17,55.4,1.941,375.7989],
    [5634,1532799462,56.8977,-111.5591,879.9,544.9,183.8,3.5,3.0,21.3,55.85,1.942,377.5153],
    [5635,1532799463,56.8972,-111.5591,879.1,544.1,183.1,2.8,3.0,21.53,55.08,1.9416,376.3626],
    [5636,1532799464,56.8966,-111.5591,877.9,542.9,183.8,3.5,2.8,21.1,55.35,1.9425,376.44],
    [5637,1532799465,56.8961,-111.5591,877.0,542.0,183.2,2.9,2.9,21.36,55.7,1.9445,376.6463],
    [5638,1532799466,56.8956,-111.5591,876.0,541.0,183.0,3.0,3.0,21.43,55.52,1.9457,376.7096],
    [5639,1532799467,56.895,-111.5591,875.6,540.6,183.1,3.4,2.6,21.43,56.04,1.9447,377.4227],
    [5640,1532799468,56.8945,-111.5591,875.7,540.7,182.5,3.3,2.7,20.83,55.91,1.9421,376.9318],
    [5641,1532799469,56.8939,-111.5591,875.8,540.8,183.4,4.4,3.2,21.37,56.25,1.9395,376.9318],
    [5642,1532799470,56.8934,-111.5591,875.5,540.5,183.6,4.5,2.6,20.76,55.76,1.9445,376.0391],
    [5643,1532799471,56.8929,-111.5591,875.2,540.2,183.0,3.8,2.0,21.41,55.87,1.944,376.0391],
    [5644,1532799472,56.8923,-111.5591,875.5,540.5,183.1,4.1,1.6,21.4,55.98,1.944,375.5221],
    [5645,1532799473,56.8918,-111.5591,875.6,540.6,184.4,5.1,1.0,21.51,56.19,1.9485,375.9772],
    [5646,1532799474,56.8913,-111.5591,875.1,539.1,184.6,5.1,0.4,21.45,56.31,1.9478,376.1318],
    [5647,1532799475,56.8907,-111.5591,874.0,538.1,184.4,4.8,0.4,21.45,56.78,1.9451,375.2236],
    [5648,1532799476,56.8902,-111.5591,872.6,535.5,184.1,4.5,-0.2,21.23,56.95,1.9421,375.2057],
    [5649,1532799477,56.8896,-111.5591,872.6,535.6,183.3,4.0,0.6,21.16,56.4,1.9438,376.5345],
    [5650,1532799478,56.8891,-111.559,873.8,536.6,182.6,3.2,1.1,21.33,56.83,1.9482,376.2565],
    [5651,1532799479,56.8886,-111.559,875.0,536.8,182.0,3.2,1.9,21.47,56.11,1.9496,377.5917],
    [5652,1532799480,56.888,-111.559,875.4,537.4,183.5,4.9,2.0,21.35,56.91,1.946,375.4638],
    [5653,1532799481,56.8875,-111.559,876.2,538.2,183.4,4.6,1.8,21.4,56.73,1.9452,375.2536],
    [5654,1532799482,56.8869,-111.559,877.8,539.8,182.1,3.5,1.9,20.94,56.65,1.9448,374.8093],
    [5655,1532799483,56.8864,-111.559,880.5,541.7,182.5,3.6,2.5,21.33,57.49,1.9456,376.2486],
    [5656,1532799484,56.8859,-111.559,883.4,544.4,182.0,2.9,2.4,21.55,56.34,1.9443,376.2486],
    [5657,1532799485,56.8854,-111.5589,885.9,545.9,181.9,2.7,2.3,21.07,56.43,1.9444,375.6701],
    [5658,1532799486,56.8848,-111.5589,888.0,547.3,182.1,2.8,1.8,21.32,56.51,1.9401,376.102],
    [5659,1532799487,56.8843,-111.5589,889.7,548.7,182.8,3.4,2.7,21.5,56.57,1.9379,374.8842],
    [5660,1532799488,56.8837,-111.5589,891.4,549.4,183.5,4.5,3.3,21.67,55.71,1.9366,375.2039],
    [5661,1532799489,56.8832,-111.5589,892.2,550.4,183.8,4.7,2.9,21.59,55.24,1.9383,375.8518],
    [5662,1532799490,56.8827,-111.5589,894.1,551.1,180.7,1.1,3.4,21.3,55.66,1.9432,376.5348],
    [5663,1532799491,56.8822,-111.5589,896.7,553.7,180.3,1.2,4.8,22.1,54.89,1.9459,376.8497],
    [5664,1532799492,56.8817,-111.5589,897.8,553.8,183.4,4.1,5.0,21.39,55.54,1.9479,376.0508],
    [5665,1532799493,56.8811,-111.5589,898.7,554.7,183.6,3.9,5.1,21.84,55.69,1.9513,376.0176],
    [5666,1532799494,56.8806,-111.5589,899.6,555.6,183.8,3.8,5.0,21.44,56.41,1.953,375.2841],
    [5667,1532799495,56.8801,-111.5589,900.6,555.5,184.4,4.0,3.8,21.99,56.61,1.9501,373.1047],
    [5668,1532799496,56.8796,-111.5589,901.6,556.6,184.5,3.7,3.9,21.33,57.22,1.9495,375.5882],
    [5669,1532799497,56.879,-111.5589,902.4,557.4,185.1,4.0,4.1,21.33,57.75,1.9481,375.5882],
    [5670,1532799498,56.8785,-111.5589,902.5,557.6,186.4,5.0,4.0,21.34,58.07,1.9474,375.409],
    [5671,1532799499,56.878,-111.559,903.3,559.3,186.4,4.8,3.6,21.32,57.52,1.9461,375.7164],
    [5672,1532799500,56.8775,-111.559,903.9,559.8,186.3,4.8,2.9,21.34,57.59,1.9481,374.5974],
    [5673,1532799501,56.877,-111.5591,903.7,558.6,187.3,5.7,2.6,21.31,57.4,1.95,375.5975],
    [5674,1532799502,56.8764,-111.5591,903.0,557.1,186.7,4.9,2.9,21.84,56.77,1.9505,375.7025],
    [5675,1532799503,56.8759,-111.5591,903.2,556.2,185.0,3.5,3.4,21.88,57.07,1.9505,375.5414],
    [5676,1532799504,56.8754,-111.5592,904.6,556.6,185.2,4.0,3.0,21.25,57.48,1.9502,374.8388],
    [5677,1532799505,56.8748,-111.5592,905.4,556.4,185.0,4.3,2.9,21.2,57.63,1.95,374.8138],
    [5678,1532799506,56.8743,-111.5592,906.0,556.0,183.9,3.6,3.2,21.86,56.89,1.944,376.254],
    [5679,1532799507,56.8738,-111.5592,906.3,555.3,182.4,2.6,3.3,21.86,56.87,1.9422,376.3999],
    [5680,1532799508,56.8732,-111.5592,907.6,556.1,182.5,3.2,4.1,21.48,56.89,1.945,375.2586],
    [5681,1532799509,56.8727,-111.5592,909.5,557.5,182.9,3.7,4.6,21.31,57.14,1.945,374.9623],
    [5682,1532799510,56.8722,-111.5592,911.2,558.5,182.8,3.7,4.8,21.34,56.76,1.9479,374.9623],
    [5683,1532799511,56.8716,-111.5592,912.5,559.1,183.3,4.0,3.9,21.22,57.23,1.9495,374.1153],
    [5684,1532799512,56.8711,-111.5592,913.1,559.1,182.5,3.0,3.4,21.3,57.01,1.9504,375.1909],
    [5685,1532799513,56.8706,-111.5592,913.0,559.1,181.0,1.6,2.6,21.51,56.95,1.9502,375.3689],
    [5686,1532799514,56.8701,-111.5592,912.7,557.7,181.1,1.9,1.0,21.2,57.71,1.947,375.2401],
    [5687,1532799515,56.8695,-111.5591,912.4,557.1,182.3,3.1,0.7,21.52,57.31,1.9487,374.8953],
    [5688,1532799516,56.869,-111.5591,911.7,555.7,182.7,3.6,0.6,21.2,58.17,1.9487,374.1818],
    [5689,1532799517,56.8684,-111.5591,910.6,554.6,183.4,4.4,0.1,21.15,57.97,1.9479,374.4515],
    [5690,1532799518,56.8679,-111.5591,909.6,552.6,183.6,4.5,-0.9,21.07,57.67,1.9476,375.0983],
    [5691,1532799519,56.8674,-111.5591,909.2,552.2,183.0,4.0,-1.1,20.76,57.87,1.9464,374.8977],
    [5692,1532799520,56.8668,-111.5591,909.1,551.8,182.8,4.1,-0.4,21.89,57.39,1.9507,374.7742],
    [5693,1532799521,56.8663,-111.5591,910.0,552.0,182.5,4.1,-0.5,20.47,58.03,1.9483,375.5465],
    [5694,1532799522,56.8657,-111.559,912.3,554.3,181.7,3.6,0.1,21.57,57.69,1.9461,375.5432],
    [5695,1532799523,56.8652,-111.559,915.7,557.2,182.0,3.9,0.7,21.25,57.98,1.9463,375.2453],
    [5696,1532799524,56.8647,-111.559,919.2,560.2,182.7,3.9,1.4,21.73,57.53,1.9473,375.1222],
    [5697,1532799525,56.8642,-111.559,922.2,563.2,183.1,3.3,1.8,21.1,58.23,1.9489,375.1444],
    [5698,1532799526,56.8637,-111.559,925.4,566.1,184.0,3.0,2.8,21.56,57.85,1.9453,374.5066],
    [5699,1532799527,56.8631,-111.559,928.3,568.3,185.2,3.4,3.7,21.1,58.08,1.943,375.293],
    [5700,1532799528,56.8626,-111.559,931.9,571.9,184.9,2.9,4.5,20.77,58.58,1.9424,375.1138],
    [5701,1532799529,56.8621,-111.5591,936.5,576.5,183.5,1.8,4.8,20.87,57.83,1.9435,374.766],
    [5702,1532799530,56.8616,-111.5591,940.5,580.5,182.2,0.8,4.9,21.26,57.42,1.9451,374.5839],
    [5703,1532799531,56.8611,-111.5591,943.5,583.5,181.9,1.1,4.9,20.88,57.52,1.9434,374.872],
    [5704,1532799532,56.8606,-111.5591,945.6,585.6,183.4,3.1,5.2,20.61,57.71,1.9426,374.586],
    [5705,1532799533,56.8601,-111.5591,945.9,585.9,184.1,4.1,4.8,21.23,57.27,1.941,374.6304],
    [5706,1532799534,56.8596,-111.5591,945.3,585.0,183.3,3.5,5.1,21.03,57.54,1.9425,375.5461],
    [5707,1532799535,56.8591,-111.5591,944.2,583.2,183.8,3.9,4.9,20.91,57.42,1.9419,375.449],
    [5708,1532799536,56.8586,-111.5592,942.4,581.4,184.4,4.2,5.1,20.52,56.89,1.9419,375.449],
    [5709,1532799537,56.8581,-111.5592,940.0,579.0,184.4,4.1,4.8,21.29,56.58,1.9424,374.9488],
    [5710,1532799538,56.8575,-111.5592,937.1,576.1,184.6,4.4,4.5,20.69,57.19,1.9436,374.9488],
    [5711,1532799539,56.857,-111.5592,934.4,573.4,185.1,4.8,3.9,21.53,56.1,1.9423,376.2527],
    [5712,1532799540,56.8565,-111.5592,931.9,570.9,185.6,5.2,3.2,20.7,56.73,1.9406,374.3047],
    [5713,1532799541,56.856,-111.5592,930.3,569.3,185.6,5.1,2.9,21.79,56.16,1.9393,375.3902],
    [5714,1532799542,56.8554,-111.5592,929.4,568.4,184.9,4.1,2.6,20.82,57.25,1.9389,375.0507],
    [5715,1532799543,56.8549,-111.5593,928.5,567.5,185.0,4.2,2.4,21.07,56.36,1.9378,374.1217],
    [5716,1532799544,56.8543,-111.5593,927.3,566.3,185.4,4.5,2.4,21.07,56.49,1.9407,374.8183],
    [5717,1532799545,56.8538,-111.5593,926.2,565.2,185.1,4.2,2.0,20.57,55.8,1.9456,375.1943],
    [5718,1532799546,56.8533,-111.5593,925.4,564.4,185.5,4.4,0.9,21.01,56.86,1.9449,375.9573],
    [5719,1532799547,56.8527,-111.5594,925.3,564.3,184.5,3.5,1.1,21.07,56.03,1.9452,375.3979],
    [5720,1532799548,56.8522,-111.5594,925.8,564.8,183.7,3.2,2.9,21.04,57.61,1.9466,375.8759],
    [5721,1532799549,56.8517,-111.5594,926.4,565.4,184.0,3.7,2.6,20.74,57.45,1.9446,375.347],
    [5722,1532799550,56.8511,-111.5594,926.7,565.7,183.9,3.6,2.5,20.27,57.43,1.9451,375.347],
    [5723,1532799551,56.8506,-111.5594,927.4,566.6,183.8,3.5,3.0,20.52,57.43,1.9417,374.9995],
    [5724,1532799552,56.8501,-111.5594,928.6,566.5,184.1,3.6,3.6,20.85,57.47,1.9405,375.0135],
    [5725,1532799553,56.8495,-111.5594,930.1,567.4,183.8,3.5,3.8,21.12,56.58,1.942,374.6916],
    [5726,1532799554,56.849,-111.5594,931.5,568.0,184.2,4.0,3.6,20.68,57.21,1.9413,374.6916],
    [5727,1532799555,56.8484,-111.5595,932.7,568.7,183.6,3.5,4.0,20.68,56.52,1.9435,375.7654],
    [5728,1532799556,56.8479,-111.5595,933.7,569.7,183.4,3.4,4.9,20.62,56.54,1.9441,374.8393],
    [5729,1532799557,56.8473,-111.5595,934.8,570.8,183.3,3.3,4.9,21.45,55.99,1.9446,374.6663],
    [5730,1532799558,56.8468,-111.5595,935.5,571.5,181.8,1.3,5.2,21.06,56.88,1.9432,373.8041],
    [5731,1532799559,56.8463,-111.5595,936.2,572.2,180.7,0.3,4.3,21.32,56.67,1.9438,373.8041],
    [5732,1532799560,56.8457,-111.5595,935.8,570.1,182.8,2.3,4.5,21.04,57.38,1.9457,375.4699],
    [5733,1532799561,56.8452,-111.5595,934.4,567.0,183.2,2.7,3.6,21.06,57.01,1.9432,374.5293],
    [5734,1532799562,56.8446,-111.5595,932.8,563.8,183.8,3.8,2.8,21.37,56.08,1.939,375.5886],
    [5735,1532799563,56.8441,-111.5595,930.9,561.0,184.2,4.3,1.9,20.52,56.85,1.9388,375.1963],
    [5736,1532799564,56.8435,-111.5595,929.8,558.8,183.2,3.5,1.4,20.98,56.5,1.9375,375.4007],
    [5737,1532799565,56.843,-111.5595,929.1,558.1,183.8,4.1,0.4,21.29,55.97,1.9356,375.7314],
    [5738,1532799566,56.8424,-111.5595,928.4,556.4,183.8,3.9,0.2,21.18,55.69,1.9376,374.5313],
    [5739,1532799567,56.8419,-111.5595,928.1,555.0,183.8,3.8,-0.8,21.31,55.78,1.9405,375.2124],
    [5740,1532799568,56.8413,-111.5595,928.2,555.2,185.0,4.4,-1.4,21.34,55.35,1.9423,376.0165],
    [5741,1532799569,56.8408,-111.5596,928.9,554.9,183.8,2.5,-1.2,21.07,55.74,1.9446,375.8416],
    [5742,1532799570,56.8402,-111.5596,929.8,554.7,184.4,2.7,-0.9,21.05,56.05,1.9449,374.3186],
    [5743,1532799571,56.8397,-111.5596,930.5,555.5,185.1,2.8,-0.6,20.68,56.51,1.9442,374.3186],
    [5744,1532799572,56.8392,-111.5597,931.8,555.8,185.0,3.2,0.1,20.84,56.93,1.9424,376.1849],
    [5745,1532799573,56.8386,-111.5597,933.2,557.2,185.3,5.0,0.5,20.94,57.77,1.9396,375.6174],
    [5746,1532799574,56.8381,-111.5597,933.6,556.6,181.8,4.4,1.3,20.74,57.09,1.9388,374.9729],
    [5747,1532799575,56.8376,-111.5596,932.8,554.7,175.7,3.6,1.6,21.01,57.39,1.9375,374.9729],
    [5748,1532799576,56.837,-111.5594,932.2,554.2,171.0,4.1,2.2,20.82,56.8,1.9382,375.4314],
    [5749,1532799577,56.8365,-111.5591,932.0,554.0,165.2,2.9,2.7,21.02,56.88,1.9376,376.0112],
    [5750,1532799578,56.836,-111.5588,932.4,554.7,161.2,2.9,3.3,20.59,56.04,1.9351,375.2981],
    [5751,1532799579,56.8355,-111.5584,932.9,555.9,158.3,3.2,3.1,21.57,54.98,1.9348,375.2397],
    [5752,1532799580,56.835,-111.558,932.3,556.4,155.1,3.2,2.3,20.47,55.37,1.9351,375.939],
    [5753,1532799581,56.8346,-111.5575,931.2,554.9,151.3,2.8,1.6,21.01,55.29,1.9349,374.841],
    [5754,1532799582,56.8341,-111.5569,930.2,552.5,148.6,3.3,1.5,21.26,54.51,1.9328,375.071],
    [5755,1532799583,56.8337,-111.5563,928.7,550.7,146.6,3.6,1.8,21.73,54.14,1.9351,375.7246],
    [5756,1532799584,56.8333,-111.5557,927.0,548.2,144.2,3.4,2.2,21.43,54.26,1.9362,375.2027],
    [5757,1532799585,56.8328,-111.555,925.1,546.1,141.0,3.0,1.9,21.16,54.49,1.9374,373.689],
    [5758,1532799586,56.8324,-111.5543,923.7,545.0,138.9,3.8,1.6,21.51,54.44,1.9393,374.2648],
    [5759,1532799587,56.832,-111.5536,922.8,544.8,137.0,4.5,1.7,20.82,54.91,1.9406,374.9907],
    [5760,1532799588,56.8317,-111.5528,921.7,545.4,134.3,4.3,2.1,20.88,55.27,1.9393,373.8276],
    [5761,1532799589,56.8313,-111.552,920.4,545.4,130.9,4.3,2.0,21.21,55.48,1.9399,374.4932],
    [5762,1532799590,56.831,-111.5512,919.9,548.0,127.0,4.6,1.7,20.99,55.78,1.9392,373.3714],
    [5763,1532799591,56.8307,-111.5503,920.6,551.3,122.4,4.1,1.4,21.09,56.34,1.9376,375.2599],
    [5764,1532799592,56.8304,-111.5494,921.8,553.8,119.3,4.0,2.1,21.5,55.62,1.937,375.4663],
    [5765,1532799593,56.8302,-111.5485,922.6,553.6,117.1,4.1,3.2,21.21,56.12,1.9369,375.3516],
    [5766,1532799594,56.83,-111.5475,922.8,554.8,113.6,4.1,3.1,21.01,55.61,1.9359,375.3112],
    [5767,1532799595,56.8298,-111.5465,922.8,554.8,107.9,3.6,1.5,21.39,54.95,1.9346,374.6171],
    [5768,1532799596,56.8297,-111.5455,923.2,556.2,104.3,3.4,1.9,20.89,55.28,1.9353,374.6468],
    [5769,1532799597,56.8296,-111.5445,923.4,557.4,101.7,3.1,2.9,20.47,55.4,1.9362,374.6468],
    [5770,1532799598,56.8295,-111.5434,924.3,559.6,97.9,3.1,2.6,20.78,55.85,1.9396,374.3728],
    [5771,1532799599,56.8295,-111.5424,925.1,562.1,95.1,3.5,2.6,20.78,55.45,1.94,374.3914],
    [5772,1532799600,56.8295,-111.5413,925.3,562.3,92.7,3.2,2.6,20.92,55.91,1.9424,373.7796],
    [5773,1532799601,56.8295,-111.5402,925.9,564.9,91.1,3.1,2.8,21.05,56.87,1.9426,373.6061],
    [5774,1532799602,56.8295,-111.5392,925.9,565.9,89.7,2.8,2.6,20.98,56.95,1.9426,373.069],
    [5775,1532799603,56.8295,-111.5381,926.1,567.1,88.3,2.6,1.9,20.84,57.14,1.9429,374.1506],
    [5776,1532799604,56.8296,-111.5371,926.8,568.8,87.6,2.1,1.7,20.81,57.41,1.9423,372.3597],
    [5777,1532799605,56.8296,-111.536,926.8,569.8,87.3,1.3,1.5,20.94,57.97,1.9423,373.2785],
    [5778,1532799606,56.8296,-111.535,925.6,567.6,87.2,0.9,1.5,21.0,58.1,1.9426,373.3009],
    [5779,1532799607,56.8297,-111.534,923.6,565.6,88.7,0.8,2.8,20.23,57.39,1.9423,374.2319],
    [5780,1532799608,56.8297,-111.5329,922.1,564.1,89.8,1.1,3.4,20.89,57.39,1.9419,374.041],
    [5781,1532799609,56.8297,-111.5319,921.5,563.8,89.7,0.7,3.1,20.96,57.45,1.9409,373.9366],
    [5782,1532799610,56.8298,-111.5308,921.4,563.7,90.7,0.5,3.6,20.81,57.15,1.9412,374.0491],
    [5783,1532799611,56.8298,-111.5298,921.9,564.2,91.2,0.7,3.6,20.63,57.07,1.9419,373.4304],
    [5784,1532799612,56.8298,-111.5287,923.0,566.0,92.1,1.2,4.0,20.97,57.04,1.9406,373.5538],
    [5785,1532799613,56.8298,-111.5277,923.7,567.7,92.7,1.5,4.0,20.96,57.24,1.9407,373.5407],
    [5786,1532799614,56.8298,-111.5267,924.0,568.5,92.5,1.9,3.5,20.64,56.95,1.942,374.7433],
    [5787,1532799615,56.8298,-111.5256,923.3,568.6,92.5,2.1,3.1,21.06,57.35,1.9402,374.7433],
    [5788,1532799616,56.8298,-111.5246,922.4,568.3,92.4,2.1,3.0,20.56,57.53,1.9413,373.3098],
    [5789,1532799617,56.8298,-111.5235,920.6,566.9,93.5,1.7,4.2,21.25,56.8,1.9434,373.3098],
    [5790,1532799618,56.8299,-111.5224,918.3,565.3,93.0,1.8,3.4,21.78,56.64,1.939,374.0074],
    [5791,1532799619,56.8299,-111.5214,916.5,563.5,91.4,1.3,2.1,21.02,57.11,1.9365,372.8784],
    [5792,1532799620,56.8299,-111.5203,915.0,562.3,92.0,0.7,3.0,21.31,56.0,1.9346,374.2393],
    [5793,1532799621,56.8299,-111.5192,914.0,562.0,92.2,0.6,2.9,20.85,56.66,1.9412,373.4321],
    [5794,1532799622,56.8299,-111.5181,913.1,561.1,91.6,0.4,2.3,20.74,56.0,1.9416,374.411],
    [5795,1532799623,56.8299,-111.5171,912.4,560.8,91.7,1.0,2.7,21.3,55.58,1.9411,373.4062],
    [5796,1532799624,56.8299,-111.516,911.9,561.0,91.6,1.7,2.9,21.38,55.3,1.9416,372.7242],
    [5797,1532799625,56.8299,-111.5149,911.5,560.4,91.6,2.1,3.0,20.58,56.3,1.9411,374.2017],
    [5798,1532799626,56.8299,-111.5138,910.9,560.9,92.4,2.5,3.9,21.18,56.07,1.9404,372.8271],
    [5799,1532799627,56.8299,-111.5128,910.1,560.1,92.4,2.8,3.6,20.43,56.24,1.9392,373.6941],
    [5800,1532799628,56.8299,-111.5117,908.7,558.7,90.7,3.4,2.0,21.48,56.06,1.9356,376.188],
    [5801,1532799629,56.8299,-111.5106,907.2,557.2,92.0,3.7,3.3,21.66,55.72,1.9327,373.1891],
    [5802,1532799630,56.8299,-111.5095,905.4,555.4,91.3,3.8,2.2,21.21,55.13,1.9368,373.1891],
    [5803,1532799631,56.8299,-111.5084,904.1,555.1,91.1,4.1,2.1,21.1,55.1,1.9421,373.3959],
    [5804,1532799632,56.83,-111.5073,903.2,554.2,92.6,3.9,3.5,20.71,55.43,1.9421,373.4199],
    [5805,1532799633,56.83,-111.5062,903.0,554.0,91.4,3.1,2.2,20.87,55.86,1.9413,374.0163],
    [5806,1532799634,56.83,-111.5051,903.6,554.6,91.2,3.1,2.1,20.93,56.39,1.9412,374.1052],
    [5807,1532799635,56.83,-111.504,905.0,556.0,91.5,3.0,2.1,20.98,56.99,1.9396,374.1367],
    [5808,1532799636,56.83,-111.5029,906.3,557.3,91.8,3.0,2.5,21.57,55.75,1.9389,373.7733],
    [5809,1532799637,56.83,-111.5018,906.4,558.4,93.0,3.2,3.6,20.97,56.35,1.9404,373.7733],
    [5810,1532799638,56.83,-111.5007,905.5,557.4,92.7,3.7,3.1,20.77,56.35,1.9397,374.3505],
    [5811,1532799639,56.83,-111.4996,904.1,556.1,92.1,4.1,2.8,21.23,55.75,1.9401,373.9706],
    [5812,1532799640,56.83,-111.4985,903.1,555.1,92.6,4.4,3.5,21.09,56.38,1.9401,373.347],
    [5813,1532799641,56.83,-111.4974,902.8,554.8,91.1,4.3,2.4,20.73,56.17,1.9388,373.4622],
    [5814,1532799642,56.83,-111.4963,903.5,555.5,90.9,4.0,2.5,20.4,56.28,1.9392,373.4196],
    [5815,1532799643,56.83,-111.4952,905.1,557.1,90.8,3.9,2.6,20.96,56.73,1.9369,373.8646],
    [5816,1532799644,56.83,-111.4941,906.4,558.4,90.8,3.9,2.8,20.78,56.4,1.9382,374.236],
    [5817,1532799645,56.8301,-111.493,907.1,558.1,90.4,3.6,2.5,21.02,56.52,1.9373,374.6942],
    [5818,1532799646,56.8301,-111.4919,906.8,557.8,90.6,3.8,2.9,20.93,56.41,1.9349,375.0215],
    [5819,1532799647,56.8301,-111.4908,906.6,557.6,91.3,3.7,3.5,21.0,56.17,1.9324,374.5604],
    [5820,1532799648,56.8301,-111.4897,906.8,558.8,91.2,3.6,3.4,21.66,54.95,1.933,374.375],
    [5821,1532799649,56.8301,-111.4886,906.9,558.9,91.8,3.4,4.0,21.08,55.04,1.9345,373.5508],
    [5822,1532799650,56.8302,-111.4875,906.6,558.6,92.1,3.6,4.0,20.83,54.87,1.9393,373.7544],
    [5823,1532799651,56.8302,-111.4864,905.9,558.9,91.2,4.0,3.2,21.34,54.77,1.9378,375.2775],
    [5824,1532799652,56.8302,-111.4853,904.5,557.5,91.3,4.3,3.4,21.84,54.45,1.9358,374.2794],
    [5825,1532799653,56.8302,-111.4842,902.8,555.8,91.4,4.6,3.4,20.96,54.99,1.9359,375.439],
    [5826,1532799654,56.8302,-111.4831,901.1,554.1,91.5,4.8,3.3,20.77,55.26,1.9356,374.6849],
    [5827,1532799655,56.8302,-111.482,899.4,552.4,91.5,4.9,3.1,20.77,55.01,1.9332,374.5705],
    [5828,1532799656,56.8302,-111.4809,898.2,551.2,91.0,4.6,2.7,20.91,54.45,1.9344,373.5256],
    [5829,1532799657,56.8303,-111.4798,897.1,549.1,90.8,4.1,2.6,21.01,53.94,1.9379,375.3191],
    [5830,1532799658,56.8303,-111.4787,895.7,548.3,91.0,3.9,2.9,21.18,53.84,1.937,374.34],
    [5831,1532799659,56.8303,-111.4776,893.7,546.7,91.1,4.0,2.8,21.04,54.32,1.9348,373.5965],
    [5832,1532799660,56.8303,-111.4765,891.4,544.4,90.9,3.5,2.5,21.08,54.72,1.9368,373.4201],
    [5833,1532799661,56.8303,-111.4753,889.1,543.1,90.7,3.4,2.4,20.81,55.04,1.9381,374.7446],
    [5834,1532799662,56.8303,-111.4742,887.2,541.2,90.8,3.6,2.5,21.31,54.92,1.9397,374.6943],
    [5835,1532799663,56.8303,-111.4731,886.2,541.2,90.4,4.0,2.2,20.78,55.04,1.9383,374.9436],
    [5836,1532799664,56.8304,-111.472,886.1,541.1,90.7,4.5,2.5,20.88,55.1,1.9351,373.823],
    [5837,1532799665,56.8304,-111.4709,886.3,542.3,90.9,3.8,2.6,21.02,55.39,1.9381,373.0897],
    [5838,1532799666,56.8304,-111.4697,886.1,542.1,90.9,3.8,2.5,21.12,55.96,1.9387,373.0897],
    [5839,1532799667,56.8304,-111.4686,885.6,541.6,91.1,2.7,3.0,20.96,55.35,1.9383,374.8423],
    [5840,1532799668,56.8304,-111.4675,884.9,540.9,90.9,2.5,2.7,21.57,55.13,1.9394,373.3695],
    [5841,1532799669,56.8304,-111.4664,884.2,540.2,90.7,2.6,2.6,20.58,55.55,1.9416,372.9719],
    [5842,1532799670,56.8305,-111.4652,883.4,539.4,90.9,1.9,2.4,20.77,55.82,1.9413,372.5965],
    [5843,1532799671,56.8305,-111.4641,883.1,539.1,91.2,1.0,2.5,20.74,55.93,1.9395,373.8497],
    [5844,1532799672,56.8305,-111.463,883.5,539.5,92.1,-0.9,3.2,21.0,55.99,1.9411,374.4168],
    [5845,1532799673,56.8305,-111.4619,884.5,540.5,92.2,-1.7,3.1,21.12,56.24,1.9455,374.079],
    [5846,1532799674,56.8305,-111.4607,886.3,542.3,92.3,-1.9,3.2,21.63,56.03,1.9509,373.0184],
    [5847,1532799675,56.8305,-111.4596,887.1,543.1,92.3,-1.6,3.3,21.7,56.02,1.9503,374.1886],
    [5848,1532799676,56.8305,-111.4585,886.5,543.5,93.0,-1.2,4.2,20.6,56.92,1.947,373.0437],
    [5849,1532799677,56.8305,-111.4573,884.4,541.4,93.4,0.4,4.9,21.21,56.86,1.9442,373.7204],
    [5850,1532799678,56.8305,-111.4561,881.1,539.1,91.6,1.4,3.2,21.08,57.02,1.9415,372.0979],
    [5851,1532799679,56.8305,-111.455,878.4,537.4,89.8,2.3,2.0,21.19,56.88,1.94,372.4051],
    [5852,1532799680,56.8305,-111.4538,874.7,533.7,90.1,3.3,2.7,20.99,56.5,1.9391,372.2966],
    [5853,1532799681,56.8306,-111.4527,871.0,531.0,90.4,3.9,3.8,21.13,56.38,1.936,373.8376],
    [5854,1532799682,56.8306,-111.4515,866.6,527.6,90.2,4.7,3.9,21.86,55.87,1.9338,374.6286],
    [5855,1532799683,56.8306,-111.4503,861.9,523.9,89.6,5.6,3.1,21.15,56.26,1.9328,372.652],
    [5856,1532799684,56.8307,-111.4491,859.2,522.3,89.9,6.2,3.0,20.8,55.16,1.9317,372.652],
    [5857,1532799685,56.8307,-111.448,857.9,522.2,91.9,6.8,4.4,21.06,55.11,1.9366,374.1129],
    [5858,1532799686,56.8307,-111.4468,856.9,522.9,92.9,6.9,4.6,21.19,54.73,1.942,373.66],
    [5859,1532799687,56.8307,-111.4456,856.0,524.7,93.3,6.1,4.8,21.24,54.7,1.9458,372.8486],
    [5860,1532799688,56.8307,-111.4444,854.5,529.0,94.1,7.4,5.1,21.13,55.46,1.95,372.7422],
    [5861,1532799689,56.8307,-111.4432,852.2,534.6,92.0,7.7,3.0,20.65,56.05,1.9424,373.7369],
    [5862,1532799690,56.8307,-111.4421,850.5,544.7,92.2,6.8,4.0,21.22,56.71,1.9409,374.1393],
    [5863,1532799691,56.8307,-111.4409,848.9,556.7,93.1,6.8,4.9,21.92,55.87,1.9446,374.4724],
    [5864,1532799692,56.8308,-111.4397,848.1,569.4,92.4,6.8,4.3,21.61,56.13,1.9506,373.6712],
    [5865,1532799693,56.8308,-111.4385,847.5,583.2,92.2,6.4,4.2,21.17,56.51,1.9552,374.7413],
    [5866,1532799694,56.8308,-111.4374,847.1,591.2,92.9,6.5,4.5,21.62,56.61,1.9547,374.9487],
    [5867,1532799695,56.8308,-111.4361,846.8,595.8,93.1,6.3,3.9,21.11,57.36,1.9493,372.8786],
    [5868,1532799696,56.8308,-111.435,846.9,598.7,93.6,6.7,3.9,20.91,58.01,1.9477,372.898],
    [5869,1532799697,56.8308,-111.4338,846.9,598.9,95.2,7.3,5.0,21.19,58.63,1.9342,373.0515],
    [5870,1532799698,56.8308,-111.4327,846.4,599.4,95.5,7.7,4.6,21.23,57.06,1.9224,374.7878],
    [5871,1532799699,56.8308,-111.4315,846.4,600.1,95.2,7.9,4.7,21.76,55.26,1.9196,372.8729],
    [5872,1532799700,56.8308,-111.4304,846.3,601.4,95.6,7.3,5.4,21.14,54.34,1.9265,373.9254],
    [5873,1532799701,56.8308,-111.4292,846.3,602.3,92.2,6.2,2.5,20.85,53.26,1.9339,374.0403],
    [5874,1532799702,56.8308,-111.4281,846.2,603.8,92.1,5.6,3.1,21.26,52.33,1.9336,373.9778],
    [5875,1532799703,56.8308,-111.427,846.0,605.0,92.7,5.4,3.8,21.07,53.21,1.931,374.1694],
    [5876,1532799704,56.8308,-111.4258,846.3,605.3,91.8,5.3,3.1,21.11,52.82,1.9274,374.6802],
    [5877,1532799705,56.8308,-111.4247,846.6,605.7,91.9,4.9,3.2,21.39,53.56,1.9318,374.6802],
    [5878,1532799706,56.8308,-111.4236,847.1,605.2,91.8,4.6,3.4,20.96,53.13,1.9315,371.683],
    [5879,1532799707,56.8308,-111.4224,847.9,604.9,91.9,4.5,3.6,20.99,53.61,1.9313,375.6175],
    [5880,1532799708,56.8308,-111.4213,848.0,604.0,91.8,4.5,3.6,21.11,53.01,1.9349,374.1136],
    [5881,1532799709,56.8308,-111.4202,846.8,602.8,91.6,4.5,3.3,21.31,53.22,1.9342,374.4268],
    [5882,1532799710,56.8309,-111.419,845.0,602.9,91.3,4.7,2.5,21.37,53.64,1.9337,374.3247],
    [5883,1532799711,56.8309,-111.4179,843.2,603.2,91.9,5.0,2.6,21.86,53.07,1.9366,373.5785],
    [5884,1532799712,56.8309,-111.4168,841.1,603.1,93.6,5.7,3.9,20.98,53.6,1.939,373.9434],
    [5885,1532799713,56.8309,-111.4156,838.5,600.5,94.4,6.3,4.1,21.38,54.16,1.941,374.0751],
    [5886,1532799714,56.8308,-111.4145,836.0,598.0,94.0,6.7,3.4,21.72,54.0,1.942,373.0161],
    [5887,1532799715,56.8308,-111.4133,834.6,596.6,94.5,7.2,3.5,21.35,54.58,1.9405,373.845],
    [5888,1532799716,56.8308,-111.4122,834.0,595.0,95.1,8.1,3.5,21.7,54.78,1.9416,372.0816],
    [5889,1532799717,56.8308,-111.4111,833.7,594.7,95.5,8.9,3.5,21.71,54.37,1.9408,372.9722],
    [5890,1532799718,56.8308,-111.4099,833.6,590.4,95.8,9.2,3.7,21.49,54.93,1.9398,373.1269],
    [5891,1532799719,56.8308,-111.4087,834.5,578.4,95.6,9.4,3.5,22.0,54.45,1.9382,373.0195],
    [5892,1532799720,56.8307,-111.4076,836.3,561.6,95.3,9.7,3.6,21.37,55.52,1.9361,371.4592],
    [5893,1532799721,56.8307,-111.4064,839.3,548.2,94.7,9.6,3.6,21.35,55.89,1.9367,371.6081],
    [5894,1532799722,56.8307,-111.4053,842.9,541.6,93.9,9.4,3.5,21.75,55.01,1.9367,371.8572],
    [5895,1532799723,56.8307,-111.4042,846.8,537.2,93.0,9.4,3.4,21.32,55.83,1.9369,372.6434],
    [5896,1532799724,56.8307,-111.4031,851.0,534.3,92.7,8.9,3.9,21.56,54.84,1.9371,372.9334],
    [5897,1532799725,56.8307,-111.4019,855.5,530.1,91.9,8.5,3.6,21.18,55.19,1.9382,372.9344],
    [5898,1532799726,56.8307,-111.4008,859.9,530.2,91.7,8.7,3.8,20.63,55.15,1.938,372.9401],
    [5899,1532799727,56.8308,-111.3997,864.4,529.7,91.6,8.1,3.7,20.57,55.11,1.9342,372.3439],
    [5900,1532799728,56.8308,-111.3986,868.8,529.7,90.4,7.6,2.5,21.02,55.19,1.9354,372.7278],
    [5901,1532799729,56.8308,-111.3976,872.6,530.6,91.6,7.5,3.3,21.24,55.66,1.9366,372.7902],
    [5902,1532799730,56.8308,-111.3965,875.8,530.3,93.0,7.5,4.1,21.1,55.77,1.9373,372.1502],
    [5903,1532799731,56.8308,-111.3954,878.5,529.5,93.4,7.7,4.0,21.41,55.08,1.9364,373.93],
    [5904,1532799732,56.8308,-111.3943,881.0,530.7,93.5,7.7,3.9,21.07,55.58,1.9343,373.0286],
    [5905,1532799733,56.8308,-111.3933,883.9,532.9,94.1,7.4,4.1,21.33,54.99,1.9346,373.0372],
    [5906,1532799734,56.8308,-111.3922,887.4,536.5,94.0,7.1,3.9,21.25,55.07,1.9344,373.5173],
    [5907,1532799735,56.8308,-111.3912,891.9,541.0,93.2,6.8,3.3,21.41,55.05,1.9339,373.5173],
    [5908,1532799736,56.8308,-111.3901,895.9,545.2,93.3,6.5,3.7,21.16,55.6,1.9332,372.8826],
    [5909,1532799737,56.8308,-111.3891,898.5,548.8,94.4,6.5,4.7,20.9,55.38,1.9345,373.0333],
    [5910,1532799738,56.8308,-111.3881,899.9,550.8,94.6,6.7,4.8,20.61,55.54,1.9315,373.5205],
    [5911,1532799739,56.8308,-111.3871,901.0,553.0,92.9,6.4,3.3,20.95,55.93,1.931,373.6067],
    [5912,1532799740,56.8308,-111.386,902.8,553.9,93.2,6.2,3.7,20.82,55.32,1.931,372.9221],
    [5913,1532799741,56.8308,-111.385,905.1,555.4,94.6,5.9,4.7,21.23,54.83,1.9306,372.9713],
    [5914,1532799742,56.8308,-111.384,907.2,557.3,95.1,5.5,5.0,20.92,54.5,1.9306,374.2877],
    [5915,1532799743,56.8308,-111.3829,908.6,557.7,95.4,5.1,4.9,20.99,54.74,1.9306,375.5728],
    [5916,1532799744,56.8308,-111.3819,910.0,557.8,94.5,4.4,4.2,21.1,54.68,1.9296,374.1768],
    [5917,1532799745,56.8308,-111.3809,911.1,558.6,94.3,4.3,4.1,20.45,54.7,1.9279,374.1768],
    [5918,1532799746,56.8308,-111.3799,912.1,558.8,94.6,4.4,4.4,21.01,54.59,1.9277,374.2117],
    [5919,1532799747,56.8308,-111.3789,913.1,559.8,94.4,4.3,4.1,20.58,54.54,1.9282,374.861],
    [5920,1532799748,56.8308,-111.3779,914.0,561.0,94.2,3.7,4.1,21.08,54.16,1.931,374.2765],
    [5921,1532799749,56.8308,-111.3769,914.6,562.8,94.4,3.1,4.5,20.9,55.02,1.9306,374.2765],
    [5922,1532799750,56.8308,-111.3759,914.9,564.2,93.9,3.0,4.3,20.8,54.75,1.931,374.8187],
    [5923,1532799751,56.8308,-111.3749,915.0,565.2,92.7,2.7,3.9,20.96,54.29,1.9325,373.5929],
    [5924,1532799752,56.8308,-111.3739,915.2,563.5,92.2,3.0,3.8,21.01,54.28,1.9328,373.4508],
    [5925,1532799753,56.8309,-111.3728,915.6,562.9,91.6,3.0,3.6,20.89,55.08,1.9309,373.4508],
    [5926,1532799754,56.8309,-111.3718,915.5,561.8,91.4,3.4,3.7,20.8,54.67,1.9365,373.0949],
    [5927,1532799755,56.8309,-111.3708,914.5,559.8,91.0,3.5,3.6,21.52,53.98,1.9341,375.4115],
    [5928,1532799756,56.8309,-111.3698,913.3,557.9,90.5,3.6,3.4,20.76,54.78,1.9302,374.4584],
    [5929,1532799757,56.831,-111.3687,913.1,556.4,90.3,3.6,3.5,20.71,54.82,1.9294,374.6555],
    [5930,1532799758,56.831,-111.3677,913.5,555.5,90.1,4.2,3.4,20.85,54.94,1.9288,375.4584],
    [5931,1532799759,56.831,-111.3667,913.8,555.8,89.6,4.1,2.8,20.8,54.52,1.9287,373.6817],
    [5932,1532799760,56.831,-111.3656,913.7,554.7,90.0,4.4,3.2,20.83,54.56,1.9289,373.6503],
    [5933,1532799761,56.8311,-111.3645,912.8,553.8,91.1,4.4,3.7,20.16,54.04,1.9298,373.9634],
    [5934,1532799762,56.8311,-111.3634,911.7,552.7,92.2,4.6,4.0,21.49,53.55,1.9254,376.0463],
    [5935,1532799763,56.8311,-111.3624,910.7,550.7,94.7,4.7,5.2,20.23,53.8,1.9248,374.0949],
    [5936,1532799764,56.8311,-111.3613,910.3,550.3,95.7,4.5,4.7,20.93,53.62,1.9263,374.0949],
    [5937,1532799765,56.8311,-111.3603,910.2,550.2,95.2,4.2,3.8,20.56,53.45,1.926,374.364],
    [5938,1532799766,56.8311,-111.3592,909.7,549.7,96.2,4.3,4.4,20.26,53.57,1.9272,375.4822],
    [5939,1532799767,56.831,-111.3582,909.2,548.2,97.1,4.5,4.5,20.31,53.18,1.929,374.1555],
    [5940,1532799768,56.831,-111.3571,909.7,548.7,96.7,4.3,3.7,21.23,53.05,1.9288,373.9451],
    [5941,1532799769,56.831,-111.3561,910.8,549.8,97.3,3.9,4.0,21.01,53.11,1.9268,375.7638],
    [5942,1532799770,56.8309,-111.355,912.2,550.2,97.6,3.3,4.1,20.74,53.39,1.9292,374.5667],
    [5943,1532799771,56.8309,-111.354,913.6,551.6,97.3,2.4,3.8,20.89,54.2,1.9301,373.9619],
    [5944,1532799772,56.8309,-111.3529,914.8,552.8,96.8,1.8,3.5,20.92,53.66,1.9299,374.0615],
    [5945,1532799773,56.8308,-111.3519,914.8,552.2,97.2,2.2,4.2,20.68,53.46,1.9293,374.9516],
    [5946,1532799774,56.8308,-111.3508,913.8,550.8,97.1,2.0,4.4,20.88,53.5,1.9332,374.3851],
    [5947,1532799775,56.8308,-111.3497,913.1,550.1,95.8,2.3,3.8,21.64,53.19,1.9322,374.6547],
    [5948,1532799776,56.8308,-111.3486,912.6,549.6,95.1,2.2,3.6,21.2,53.59,1.9331,373.4868],
    [5949,1532799777,56.8307,-111.3476,912.3,549.3,94.1,2.0,3.1,21.78,53.09,1.934,373.504],
    [5950,1532799778,56.8307,-111.3465,912.1,549.1,94.1,2.0,3.6,21.17,54.07,1.9335,374.2374],
    [5951,1532799779,56.8307,-111.3453,911.8,549.8,94.2,2.2,3.9,20.92,54.56,1.9329,374.2374],
    [5952,1532799780,56.8307,-111.3442,911.7,549.7,93.7,2.0,3.5,20.45,53.98,1.93,374.7292],
    [5953,1532799781,56.8307,-111.3431,911.2,549.2,93.7,2.5,3.7,21.58,53.67,1.9296,374.7292],
    [5954,1532799782,56.8307,-111.342,910.2,548.2,94.0,2.7,3.9,20.87,54.43,1.9308,372.9248],
    [5955,1532799783,56.8307,-111.3409,908.9,545.9,93.6,2.5,3.6,20.52,53.76,1.9301,372.4606],
    [5956,1532799784,56.8307,-111.3398,907.7,544.4,94.5,3.8,4.3,21.0,54.04,1.9368,374.6511],
    [5957,1532799785,56.8307,-111.3387,907.6,543.6,94.7,4.5,4.2,20.87,54.06,1.9434,374.4824],
    [5958,1532799786,56.8307,-111.3376,908.5,544.5,94.4,4.3,4.0,20.88,53.85,1.9403,374.0327],
    [5959,1532799787,56.8307,-111.3365,909.4,545.1,95.2,4.2,4.7,20.31,54.97,1.9411,375.6297],
    [5960,1532799788,56.8306,-111.3354,909.8,544.8,95.2,4.0,4.4,20.36,55.05,1.9396,374.9533],
    [5961,1532799789,56.8306,-111.3343,910.0,545.0,95.4,3.7,4.4,21.27,54.51,1.9355,374.6861],
    [5962,1532799790,56.8306,-111.3331,910.1,544.8,96.5,4.1,5.0,20.78,55.01,1.9318,373.2782],
    [5963,1532799791,56.8306,-111.332,910.2,544.2,96.4,5.1,4.5,21.44,54.76,1.9279,374.3358],
    [5964,1532799792,56.8306,-111.3309,910.5,544.5,96.1,5.8,4.0,20.44,54.67,1.9284,374.1725],
    [5965,1532799793,56.8305,-111.3298,911.2,544.2,96.6,5.9,4.3,20.84,54.86,1.9273,372.9818],
    [5966,1532799794,56.8305,-111.3287,912.7,545.7,96.4,5.5,4.1,20.62,53.91,1.9328,373.825],
    [5967,1532799795,56.8305,-111.3276,915.1,547.1,96.4,4.8,4.5,21.35,53.43,1.9329,373.0618],
    [5968,1532799796,56.8305,-111.3265,918.4,550.4,96.5,4.4,4.8,20.55,53.94,1.9336,373.0995],
    [5969,1532799797,56.8305,-111.3253,923.0,554.0,95.7,4.4,4.5,21.0,53.79,1.9294,373.2944],
    [5970,1532799798,56.8304,-111.3242,926.8,557.8,95.7,4.6,5.0,20.85,54.43,1.9287,373.8115],
    [5971,1532799799,56.8304,-111.3232,929.5,559.5,96.0,4.8,5.6,20.46,54.36,1.9244,374.6835],
    [5972,1532799800,56.8304,-111.3221,931.2,561.2,95.7,5.2,5.4,20.69,53.96,1.9239,373.2337],
    [5973,1532799801,56.8304,-111.321,932.6,561.6,95.4,5.2,5.3,20.23,53.63,1.9283,373.2337],
    [5974,1532799802,56.8304,-111.3199,933.3,561.3,95.6,5.5,5.4,20.19,53.45,1.9255,373.591],
    [5975,1532799803,56.8304,-111.3188,932.1,560.1,95.7,6.4,5.3,20.68,53.56,1.9227,373.167],
    [5976,1532799804,56.8304,-111.3177,930.4,557.4,95.3,7.2,4.8,20.72,54.02,1.922,374.0773],
    [5977,1532799805,56.8304,-111.3166,928.8,554.8,95.2,7.8,4.7,20.16,53.66,1.9186,374.897],
    [5978,1532799806,56.8304,-111.3155,927.6,553.6,94.8,8.9,4.3,20.79,52.9,1.9161,374.897],
    [5979,1532799807,56.8304,-111.3144,927.1,551.0,94.5,9.3,3.8,20.65,53.08,1.9168,373.4488],
    [5980,1532799808,56.8304,-111.3133,927.0,549.3,94.2,9.4,3.5,20.64,52.79,1.9176,374.3307],
    [5981,1532799809,56.8304,-111.3122,927.3,547.3,94.4,9.0,3.8,20.63,52.88,1.9192,374.3307],
    [5982,1532799810,56.8304,-111.3111,928.5,545.1,93.8,8.2,3.2,20.96,51.72,1.9361,374.0745],
    [5983,1532799811,56.8304,-111.31,931.1,544.1,93.2,7.8,2.6,20.73,52.7,1.9384,375.2494],
    [5984,1532799812,56.8303,-111.3088,934.4,543.4,94.4,7.3,3.3,21.06,52.64,1.9396,375.0186],
    [5985,1532799813,56.8303,-111.3078,938.0,542.6,95.2,6.3,3.6,20.89,54.66,1.94,374.3816],
    [5986,1532799814,56.8303,-111.3067,941.8,543.4,95.7,5.6,3.9,20.91,54.86,1.9396,376.0048],
    [5987,1532799815,56.8303,-111.3056,945.7,543.7,95.8,4.1,3.7,21.16,55.1,1.9366,374.9736],
    [5988,1532799816,56.8303,-111.3046,949.3,544.3,96.2,3.0,3.9,21.13,55.25,1.9343,374.158],
    [5989,1532799817,56.8302,-111.3035,952.8,545.7,96.7,2.7,4.3,20.31,55.52,1.9343,374.0613],
    [5990,1532799818,56.8302,-111.3025,956.5,547.5,95.5,1.7,3.4,20.97,54.91,1.9334,373.7602],
    [5991,1532799819,56.8302,-111.3014,960.4,549.7,94.5,0.8,2.9,20.59,55.49,1.9334,374.0433],
    [5992,1532799820,56.8302,-111.3004,964.0,551.0,94.9,0.3,3.7,20.58,55.02,1.9305,374.2911],
    [5993,1532799821,56.8302,-111.2993,967.0,553.0,94.4,1.6,3.5,20.63,55.18,1.9233,375.0835],
    [5994,1532799822,56.8302,-111.2983,969.0,554.0,94.1,2.9,3.2,20.65,54.67,1.9172,374.8644],
    [5995,1532799823,56.8301,-111.2973,970.3,555.3,93.6,2.9,2.8,19.71,54.17,1.9121,375.8744],
    [5996,1532799824,56.8301,-111.2962,971.0,556.0,94.3,2.9,3.4,20.04,53.47,1.9169,374.9504],
    [5997,1532799825,56.8301,-111.2952,971.0,556.6,95.2,2.2,4.1,20.7,52.46,1.923,375.0309],
    [5998,1532799826,56.8301,-111.2942,970.4,556.4,94.8,1.2,3.8,20.48,52.31,1.9297,374.3617],
    [5999,1532799827,56.8301,-111.2931,969.9,556.9,94.6,1.7,3.5,20.99,51.71,1.9299,374.5934],
    [6000,1532799828,56.8301,-111.2921,970.0,557.9,94.5,2.0,3.7,20.04,53.0,1.9277,374.8963],
    [6001,1532799829,56.8301,-111.291,969.6,560.7,96.4,2.6,6.0,20.8,52.69,1.9263,373.6412],
    [6002,1532799830,56.8301,-111.29,967.5,561.2,96.9,3.1,6.3,19.88,53.61,1.9258,374.1143],
    [6003,1532799831,56.8301,-111.2889,966.1,560.8,94.7,3.0,4.3,20.82,53.3,1.9233,373.8732],
    [6004,1532799832,56.83,-111.2878,965.6,560.7,94.8,3.0,4.9,20.36,53.34,1.9217,373.9198],
    [6005,1532799833,56.83,-111.2867,966.1,560.8,95.0,3.0,5.3,20.45,53.21,1.9183,374.0045],
    [6006,1532799834,56.83,-111.2856,966.0,560.0,93.2,3.2,3.6,20.63,52.81,1.9187,374.2377],
    [6007,1532799835,56.83,-111.2845,965.0,558.0,92.7,3.5,3.0,20.48,52.87,1.9188,374.0032],
    [6008,1532799836,56.83,-111.2835,963.9,555.9,93.4,4.1,3.4,20.49,52.81,1.9172,374.2049],
    [6009,1532799837,56.83,-111.2824,963.4,556.5,93.2,4.4,3.1,20.43,53.24,1.9155,374.06],
    [6010,1532799838,56.83,-111.2813,963.7,557.6,94.2,4.9,4.1,20.23,52.24,1.9168,373.9155],
    [6011,1532799839,56.83,-111.2802,964.9,560.6,94.4,5.2,4.1,20.48,52.2,1.9162,374.5663],
    [6012,1532799840,56.83,-111.279,966.6,563.5,94.8,5.8,4.8,20.29,52.07,1.9116,374.8007],
    [6013,1532799841,56.83,-111.278,966.5,563.5,95.7,6.5,5.3,20.56,51.92,1.9086,373.9844],
    [6014,1532799842,56.83,-111.2768,966.6,563.6,95.0,6.5,4.7,20.94,50.98,1.9068,376.0217],
    [6015,1532799843,56.83,-111.2758,966.3,562.3,94.4,6.5,4.2,21.01,50.27,1.9098,375.3432],
    [6016,1532799844,56.83,-111.2746,965.4,560.4,94.3,5.8,4.2,20.73,49.96,1.9127,374.6438],
    [6017,1532799845,56.83,-111.2735,964.6,558.6,94.4,5.3,4.5,19.81,50.0,1.9134,374.6498],
    [6018,1532799846,56.83,-111.2724,964.3,556.5,93.7,5.2,4.0,20.46,50.06,1.9168,374.5683],
    [6019,1532799847,56.83,-111.2713,964.3,554.3,93.0,5.4,3.5,20.56,50.59,1.919,374.599],
    [6020,1532799848,56.83,-111.2701,964.4,551.3,93.0,5.8,3.9,20.37,50.63,1.9152,374.6031],
    [6021,1532799849,56.83,-111.269,964.4,548.7,92.9,5.2,3.6,21.37,50.14,1.9166,374.5044],
    [6022,1532799850,56.83,-111.2679,964.7,546.7,92.2,4.7,2.9,20.55,50.67,1.9217,374.4716],
    [6023,1532799851,56.83,-111.2668,965.0,544.9,93.0,4.3,3.7,20.42,51.47,1.9184,374.4791],
    [6024,1532799852,56.83,-111.2657,965.0,544.0,93.5,4.2,4.1,20.37,50.83,1.918,374.5591],
    [6025,1532799853,56.83,-111.2645,965.1,544.1,92.6,4.7,3.1,20.19,51.02,1.9187,373.8398],
    [6026,1532799854,56.83,-111.2634,965.4,545.4,92.3,5.3,2.9,20.43,51.21,1.923,374.1623],
    [6027,1532799855,56.83,-111.2623,965.6,545.6,92.7,4.9,3.1,20.42,51.44,1.9267,373.4048],
    [6028,1532799856,56.83,-111.2612,965.5,544.5,92.4,5.1,2.9,20.91,51.44,1.9281,373.4048],
    [6029,1532799857,56.83,-111.26,965.6,544.3,92.5,5.4,3.1,20.72,51.78,1.931,373.2049],
    [6030,1532799858,56.83,-111.2589,966.6,544.3,92.3,5.6,3.0,20.91,52.28,1.9356,373.03],
    [6031,1532799859,56.83,-111.2578,968.4,545.3,93.5,5.3,4.4,20.09,52.77,1.9369,374.4979],
    [6032,1532799860,56.83,-111.2566,969.8,545.8,93.9,5.4,4.3,20.55,53.33,1.9354,373.3425],
    [6033,1532799861,56.83,-111.2555,971.3,546.3,92.3,5.0,2.8,20.55,53.61,1.9351,373.2634],
    [6034,1532799862,56.83,-111.2544,972.9,546.9,93.7,4.7,4.7,20.92,53.59,1.9312,373.2202],
    [6035,1532799863,56.83,-111.2533,973.9,546.8,93.6,5.0,4.1,20.38,54.6,1.924,373.3139],
    [6036,1532799864,56.83,-111.2522,975.1,547.0,92.6,5.1,3.3,20.89,53.39,1.9244,373.7895],
    [6037,1532799865,56.83,-111.251,976.4,547.3,94.1,5.8,4.5,20.4,53.37,1.9245,374.1223],
    [6038,1532799866,56.83,-111.2499,977.5,547.7,92.7,6.2,3.1,20.3,53.65,1.9289,374.5992],
    [6039,1532799867,56.83,-111.2488,979.0,548.0,92.9,6.5,3.6,19.78,53.05,1.9311,374.8217],
    [6040,1532799868,56.83,-111.2476,980.2,548.2,94.5,7.6,4.9,20.1,53.05,1.9304,375.5762],
    [6041,1532799869,56.83,-111.2465,981.1,548.4,93.6,8.5,3.8,20.75,53.15,1.9211,373.2656],
    [6042,1532799870,56.8301,-111.2454,981.9,548.9,93.5,8.6,3.8,20.63,53.37,1.9123,373.3539],
    [6043,1532799871,56.8301,-111.2443,982.5,548.4,93.5,8.1,3.8,20.46,53.13,1.9109,373.2722],
    [6044,1532799872,56.8301,-111.2432,982.9,547.9,93.0,7.5,3.4,20.62,52.13,1.9119,372.9938],
    [6045,1532799873,56.8301,-111.2421,983.0,547.0,93.0,7.3,3.6,19.96,51.82,1.9133,373.0645],
    [6046,1532799874,56.8301,-111.2409,983.1,546.1,93.5,5.8,4.3,20.44,52.13,1.9216,373.5849],
    [6047,1532799875,56.8301,-111.2398,984.0,546.0,94.4,4.6,5.2,20.7,50.97,1.9216,374.1874],
    [6048,1532799876,56.8301,-111.2387,984.9,545.9,94.5,4.1,5.1,20.49,51.89,1.9202,373.8957],
    [6049,1532799877,56.8301,-111.2376,986.7,546.7,93.8,4.4,4.4,19.88,51.79,1.9198,373.8957],
    [6050,1532799878,56.8301,-111.2365,988.2,547.5,93.7,4.5,4.4,20.0,51.82,1.9216,373.8915],
    [6051,1532799879,56.8301,-111.2354,990.1,549.1,93.7,4.3,5.0,20.88,51.25,1.9197,373.859],
    [6052,1532799880,56.8301,-111.2343,991.6,549.6,93.0,5.1,4.6,20.67,51.87,1.9165,375.2746],
    [6053,1532799881,56.8301,-111.2332,992.7,550.7,91.9,5.4,4.0,20.38,51.8,1.9124,375.8559],
    [6054,1532799882,56.8301,-111.2321,993.6,551.6,91.7,5.5,3.2,19.99,51.52,1.908,376.094],
    [6055,1532799883,56.8301,-111.231,995.0,552.0,91.1,4.8,2.6,20.53,50.96,1.9204,375.7492],
    [6056,1532799884,56.8301,-111.2298,996.0,553.0,92.7,4.5,3.6,20.67,50.8,1.9235,375.3123],
    [6057,1532799885,56.8301,-111.2287,996.7,553.7,92.2,5.0,2.5,20.31,50.91,1.9239,374.9837],
    [6058,1532799886,56.8301,-111.2276,997.5,554.2,91.8,4.3,2.1,20.76,50.8,1.9314,375.735],
    [6059,1532799887,56.8301,-111.2265,998.3,554.3,92.9,4.4,2.7,20.74,51.55,1.9343,373.4752],
    [6060,1532799888,56.8301,-111.2254,999.6,555.6,93.9,4.8,3.1,20.85,51.95,1.9348,374.2241],
    [6061,1532799889,56.8301,-111.2243,1000.0,556.0,95.6,5.2,4.3,20.21,52.81,1.934,373.299],
    [6062,1532799890,56.8301,-111.2232,999.4,555.4,95.5,6.1,3.7,20.35,53.68,1.933,375.2764],
    [6063,1532799891,56.8301,-111.2221,998.1,553.8,94.7,5.7,3.3,20.28,54.12,1.9296,374.928],
    [6064,1532799892,56.8301,-111.221,996.5,552.2,94.8,4.8,3.2,20.37,53.54,1.9296,374.5336],
    [6065,1532799893,56.8301,-111.2199,995.4,550.3,93.4,4.4,2.2,19.96,53.35,1.9269,374.6284],
    [6066,1532799894,56.83,-111.2188,995.0,549.9,93.1,4.0,3.7,20.04,53.23,1.926,374.6384],
    [6067,1532799895,56.8301,-111.2177,994.4,549.3,91.6,3.8,4.5,20.41,53.1,1.9289,375.5954],
    [6068,1532799896,56.8301,-111.2166,993.6,548.5,86.9,4.3,3.3,21.31,52.34,1.9276,374.9886],
    [6069,1532799897,56.8302,-111.2154,992.7,547.7,82.9,4.8,2.8,19.66,52.98,1.9293,375.2003],
    [6070,1532799898,56.8303,-111.2143,992.6,547.6,79.0,5.1,2.4,20.5,52.8,1.9288,374.3622],
    [6071,1532799899,56.8304,-111.2133,993.6,548.6,75.9,4.6,3.0,21.37,52.03,1.9158,373.7731],
    [6072,1532799900,56.8306,-111.2122,995.1,550.1,73.6,4.4,3.9,20.89,52.42,1.9178,375.0446],
    [6073,1532799901,56.8308,-111.2111,996.5,551.5,70.0,4.8,3.8,21.17,51.73,1.9172,376.7424],
    [6074,1532799902,56.8311,-111.21,997.5,552.5,66.9,5.2,4.3,20.61,51.74,1.9193,376.7424],
    [6075,1532799903,56.8314,-111.209,997.0,552.0,63.4,6.0,3.7,21.28,50.76,1.9217,375.2614],
    [6076,1532799904,56.8317,-111.208,995.8,550.8,59.2,6.5,3.9,20.48,51.51,1.9173,375.7099],
    [6077,1532799905,56.832,-111.2071,994.8,549.8,57.2,5.5,5.2,19.83,51.33,1.9186,375.3294],
    [6078,1532799906,56.8324,-111.2062,993.7,549.7,53.3,5.6,4.5,20.53,51.84,1.9178,373.8996],
    [6079,1532799907,56.8327,-111.2053,992.5,548.5,47.8,6.7,3.2,20.93,50.9,1.916,375.6696],
    [6080,1532799908,56.8331,-111.2045,992.4,548.4,44.5,6.4,3.5,20.84,50.96,1.9151,375.9082],
    [6081,1532799909,56.8336,-111.2037,992.9,548.9,42.9,5.3,4.4,20.36,51.15,1.9136,374.7889],
    [6082,1532799910,56.8341,-111.2029,994.3,550.3,39.5,5.2,4.0,20.38,51.07,1.919,375.3008],
    [6083,1532799911,56.8345,-111.2022,995.6,551.6,36.7,5.1,3.7,21.06,50.71,1.9225,375.0714],
    [6084,1532799912,56.835,-111.2015,997.2,553.2,32.7,6.0,3.4,20.2,51.07,1.9212,375.984],
    [6085,1532799913,56.8355,-111.2009,999.2,555.2,28.7,6.4,3.1,20.25,51.22,1.9219,375.3085],
    [6086,1532799914,56.836,-111.2003,1001.1,557.1,26.5,5.3,3.5,19.64,51.48,1.9207,374.6922],
    [6087,1532799915,56.8366,-111.1998,1002.7,557.6,23.5,4.8,3.5,20.39,51.64,1.9146,375.3326],
    [6088,1532799916,56.8371,-111.1994,1003.4,557.4,18.7,5.3,3.2,20.55,51.45,1.9118,375.4226],
    [6089,1532799917,56.8377,-111.199,1002.8,555.9,12.9,6.0,2.7,20.52,51.47,1.9183,376.6593],
    [6090,1532799918,56.8382,-111.1988,1002.1,554.0,7.6,5.8,2.6,20.71,51.42,1.9198,375.4744],
    [6091,1532799919,56.8388,-111.1986,1001.4,553.1,2.6,5.9,2.2,20.93,50.72,1.9151,377.2041],
    [6092,1532799920,56.8394,-111.1985,1001.3,552.3,357.5,6.8,1.9,20.81,51.06,1.9095,377.103],
    [6093,1532799921,56.84,-111.1985,1001.8,552.7,354.2,6.7,1.7,21.23,50.81,1.9092,376.6137],
    [6094,1532799922,56.8405,-111.1985,1003.0,553.0,352.2,6.5,1.9,20.51,50.79,1.9105,377.3012],
    [6095,1532799923,56.8411,-111.1985,1004.4,554.4,352.1,5.5,1.9,21.23,49.72,1.9131,376.9433],
    [6096,1532799924,56.8417,-111.1986,1005.8,555.0,352.9,4.7,1.6,20.06,50.15,1.9195,375.5694],
    [6097,1532799925,56.8422,-111.1986,1007.5,556.5,351.3,6.4,1.3,20.0,50.03,1.9245,375.3],
    [6098,1532799926,56.8428,-111.1987,1008.4,557.4,352.8,5.2,0.8,20.5,50.74,1.923,375.4592],
    [6099,1532799927,56.8434,-111.1987,1008.2,557.2,354.2,4.8,0.4,20.53,51.1,1.9232,376.2129],
    [6100,1532799928,56.8439,-111.1987,1007.0,556.0,353.8,5.7,0.7,20.8,50.75,1.9241,376.0394],
    [6101,1532799929,56.8445,-111.1987,1004.9,553.9,354.8,4.9,0.7,21.04,51.09,1.9257,376.0394],
    [6102,1532799930,56.8451,-111.1988,1003.1,552.1,353.8,5.6,1.0,20.62,52.03,1.9268,374.669],
    [6103,1532799931,56.8457,-111.1988,1002.0,550.9,352.7,6.4,1.2,21.31,51.24,1.924,375.5807],
    [6104,1532799932,56.8462,-111.1988,1001.5,551.5,352.1,6.4,2.0,20.25,52.03,1.9219,375.4126],
    [6105,1532799933,56.8468,-111.1989,1001.1,551.1,353.0,4.9,2.6,20.6,52.43,1.9283,375.1441],
    [6106,1532799934,56.8474,-111.1989,1000.6,550.7,353.1,4.6,2.6,20.9,51.71,1.9221,375.3776],
    [6107,1532799935,56.848,-111.199,1000.4,551.4,352.6,4.9,2.1,21.35,51.66,1.922,373.7503],
    [6108,1532799936,56.8486,-111.199,1000.3,551.3,352.9,4.6,1.4,20.52,52.1,1.9358,374.4342],
    [6109,1532799937,56.8492,-111.1991,1000.5,551.5,353.5,4.0,2.3,20.54,52.85,1.9393,374.7133],
    [6110,1532799938,56.8498,-111.1991,1001.2,552.2,353.3,4.3,2.5,20.53,53.03,1.9342,374.952],
    [6111,1532799939,56.8504,-111.1992,1001.7,552.7,351.5,5.9,1.9,20.37,53.0,1.93,373.8146],
    [6112,1532799940,56.851,-111.1992,1001.7,552.7,352.7,5.0,1.2,20.71,53.13,1.9277,373.8146],
    [6113,1532799941,56.8516,-111.1993,1000.8,552.8,351.4,6.6,1.2,20.54,54.32,1.9326,374.8825],
    [6114,1532799942,56.8521,-111.1993,1000.4,552.4,352.2,5.1,1.8,20.78,53.22,1.9386,374.612],
    [6115,1532799943,56.8527,-111.1994,999.5,551.5,354.2,3.2,1.5,20.45,53.58,1.9401,374.5713],
    [6116,1532799944,56.8533,-111.1995,998.7,550.7,352.7,4.7,2.7,20.0,54.28,1.9323,374.2844],
    [6117,1532799945,56.8539,-111.1995,998.5,550.5,351.8,5.4,3.8,20.48,54.43,1.9349,373.9236],
    [6118,1532799946,56.8545,-111.1996,999.3,551.3,352.7,4.0,4.2,20.3,54.63,1.934,374.0065],
    [6119,1532799947,56.8551,-111.1997,999.0,551.0,352.8,4.5,4.3,20.24,54.45,1.9422,373.9327],
    [6120,1532799948,56.8557,-111.1997,998.3,550.3,350.7,6.6,4.7,20.55,54.61,1.9403,372.9398],
    [6121,1532799949,56.8563,-111.1998,998.9,550.9,353.0,4.3,5.2,21.27,54.54,1.9389,373.6611],
    [6122,1532799950,56.8569,-111.1998,999.2,551.2,354.4,3.5,4.2,20.47,55.11,1.9392,374.1384],
    [6123,1532799951,56.8575,-111.1999,999.1,552.1,354.8,3.7,2.9,20.07,55.37,1.9392,374.1694],
    [6124,1532799952,56.8581,-111.1999,999.2,552.2,354.9,4.1,2.7,20.13,55.42,1.9364,374.4303],
    [6125,1532799953,56.8587,-111.1999,999.6,552.6,356.0,3.2,2.4,20.24,55.41,1.9337,373.9749],
    [6126,1532799954,56.8594,-111.1999,1000.0,553.0,357.7,1.9,2.0,20.09,55.36,1.9295,372.5148],
    [6127,1532799955,56.86,-111.1999,1001.0,554.0,358.1,2.1,1.8,20.43,54.86,1.9282,374.984],
    [6128,1532799956,56.8606,-111.1999,1001.7,555.7,357.9,2.5,2.1,20.34,54.83,1.9343,373.684],
    [6129,1532799957,56.8612,-111.1999,1001.8,555.8,356.8,3.7,2.2,20.94,54.17,1.9287,374.4097],
    [6130,1532799958,56.8618,-111.1999,1001.8,555.8,356.9,3.0,2.0,20.62,53.8,1.9203,375.15],
    [6131,1532799959,56.8624,-111.2,1001.5,555.5,358.9,0.5,1.9,20.73,53.31,1.926,374.0255],
    [6132,1532799960,56.863,-111.2,1002.6,556.6,358.6,0.7,2.4,20.05,53.46,1.9331,374.4955],
    [6133,1532799961,56.8636,-111.2,1003.8,557.8,357.2,2.2,3.0,20.51,53.27,1.9381,374.0998],
    [6134,1532799962,56.8642,-111.2,1003.8,557.8,357.6,2.0,3.4,20.19,54.09,1.9262,374.8089],
    [6135,1532799963,56.8649,-111.2,1003.1,557.1,356.7,2.7,2.9,20.18,54.67,1.9072,375.177],
    [6136,1532799964,56.8655,-111.2,1003.2,557.2,354.3,5.3,2.5,20.04,53.7,1.904,375.901],
    [6137,1532799965,56.8661,-111.2001,1004.3,558.3,353.9,5.3,2.6,20.4,53.1,1.9049,377.0287],
    [6138,1532799966,56.8667,-111.2001,1004.3,558.3,356.6,2.2,2.6,21.05,50.93,1.9053,376.4178],
    [6139,1532799967,56.8673,-111.2001,1004.2,558.2,356.4,2.7,2.9,20.6,50.65,1.9063,376.3152],
    [6140,1532799968,56.8679,-111.2001,1003.8,557.8,354.1,4.8,3.4,20.43,49.7,1.9162,375.6158],
    [6141,1532799969,56.8686,-111.2002,1002.8,556.8,353.7,4.8,3.6,20.95,49.03,1.9207,375.6695],
    [6142,1532799970,56.8692,-111.2002,1002.3,557.0,352.6,6.0,3.0,20.36,50.15,1.9281,375.1997],
    [6143,1532799971,56.8698,-111.2003,1002.4,557.4,351.9,5.9,3.7,21.1,49.83,1.9266,376.0366],
    [6144,1532799972,56.8704,-111.2003,1002.5,557.5,353.2,4.6,4.5,20.53,50.93,1.9255,376.0366],
    [6145,1532799973,56.871,-111.2004,1003.4,558.4,354.4,3.5,4.3,20.64,51.5,1.9264,374.7835],
    [6146,1532799974,56.8717,-111.2004,1005.7,560.7,354.9,3.2,3.8,20.43,52.28,1.9269,374.2858],
    [6147,1532799975,56.8723,-111.2004,1008.4,563.4,354.1,4.9,3.5,20.89,52.45,1.9233,374.8552],
    [6148,1532799976,56.8729,-111.2005,1011.8,566.8,352.4,7.1,3.6,20.95,52.51,1.9243,375.0136],
    [6149,1532799977,56.8735,-111.2005,1014.8,569.8,354.9,5.3,3.0,20.44,52.93,1.9262,374.4269],
    [6150,1532799978,56.8741,-111.2005,1017.1,572.1,356.3,4.8,2.4,20.54,52.93,1.9268,375.1272],
    [6151,1532799979,56.8747,-111.2005,1019.2,574.2,356.1,5.7,2.1,20.48,53.12,1.9276,374.2377],
    [6152,1532799980,56.8753,-111.2005,1021.2,577.2,356.7,5.4,2.0,20.81,53.11,1.9318,374.643],
    [6153,1532799981,56.876,-111.2004,1021.9,578.6,357.6,4.3,2.5,19.95,53.57,1.927,374.8131],
    [6154,1532799982,56.8766,-111.2004,1021.3,578.3,359.5,2.5,1.9,20.37,53.85,1.9181,376.0137],
    [6155,1532799983,56.8772,-111.2004,1021.8,579.8,358.3,4.1,1.7,20.83,52.88,1.917,376.0137],
    [6156,1532799984,56.8778,-111.2003,1022.2,580.2,357.6,4.6,1.6,20.33,53.14,1.9121,376.4674],
    [6157,1532799985,56.8784,-111.2003,1022.0,581.0,359.2,3.0,1.8,20.37,52.59,1.9123,376.0663],
    [6158,1532799986,56.879,-111.2003,1021.1,581.2,358.7,3.6,2.1,20.66,51.36,1.9138,375.9564],
    [6159,1532799987,56.8797,-111.2002,1020.4,581.4,357.5,4.6,2.3,20.16,52.08,1.9144,374.8326],
    [6160,1532799988,56.8803,-111.2002,1019.5,581.9,357.3,4.3,2.6,20.03,51.12,1.9176,374.4498],
    [6161,1532799989,56.8809,-111.2002,1018.3,581.4,356.6,4.6,2.6,20.12,51.08,1.9223,374.1002],
    [6162,1532799990,56.8815,-111.2002,1016.9,580.0,357.0,3.9,2.5,20.65,51.08,1.9259,373.7225],
    [6163,1532799991,56.8822,-111.2002,1015.9,578.9,357.1,3.8,2.8,20.7,51.49,1.9324,374.4453],
    [6164,1532799992,56.8828,-111.2002,1015.4,579.4,356.8,3.8,3.2,19.96,53.14,1.9272,373.8444],
    [6165,1532799993,56.8834,-111.2002,1015.5,581.1,358.1,2.4,3.2,20.01,53.03,1.9162,374.9225],
    [6166,1532799994,56.8841,-111.2002,1015.2,583.8,356.7,4.1,2.9,20.14,53.34,1.9119,377.1767],
    [6167,1532799995,56.8847,-111.2002,1015.0,587.7,355.3,5.4,2.8,20.23,53.15,1.9097,376.1396],
    [6168,1532799996,56.8854,-111.2002,1015.0,593.6,355.9,4.8,2.6,19.73,52.21,1.9108,376.1396],
    [6169,1532799997,56.886,-111.2002,1015.3,596.5,355.2,5.5,2.1,19.94,51.49,1.9109,375.7805],
    [6170,1532799998,56.8866,-111.2002,1015.9,600.0,355.0,5.6,2.3,20.28,50.83,1.9138,376.0425],
    [6171,1532799999,56.8873,-111.2002,1016.7,604.0,355.3,5.1,2.4,20.92,50.12,1.9158,375.6645],
    [6172,1532800000,56.8879,-111.2002,1017.5,606.8,355.3,5.1,2.5,20.32,51.09,1.9192,375.4196],
    [6173,1532800001,56.8885,-111.2002,1017.4,609.5,355.9,4.4,2.6,20.16,50.58,1.9266,375.2935],
    [6174,1532800002,56.8892,-111.2002,1016.4,612.7,356.8,3.7,2.7,19.91,51.49,1.9238,375.1871],
    [6175,1532800003,56.8898,-111.2002,1014.7,618.1,357.4,3.4,2.6,20.23,51.93,1.936,375.8544],
    [6176,1532800004,56.8904,-111.2002,1013.1,620.8,357.9,3.3,2.7,20.71,52.0,1.9409,374.7816],
    [6177,1532800005,56.8911,-111.2002,1011.5,623.5,357.5,4.2,2.7,20.25,53.29,1.9418,375.0953],
    [6178,1532800006,56.8917,-111.2002,1010.2,629.4,356.6,5.4,2.9,20.56,54.32,1.9404,376.5059],
    [6179,1532800007,56.8924,-111.2002,1009.0,632.5,356.8,5.3,3.4,20.36,55.59,1.9296,374.6102],
    [6180,1532800008,56.893,-111.2001,1008.3,636.0,356.9,5.3,3.7,20.28,55.69,1.9306,375.0412],
    [6181,1532800009,56.8936,-111.2001,1007.9,643.7,356.9,5.4,3.1,20.03,54.76,1.9261,375.433],
    [6182,1532800010,56.8943,-111.2001,1007.3,645.0,357.6,5.1,2.3,20.11,54.68,1.9231,375.3672],
    [6183,1532800011,56.8949,-111.2,1006.3,645.1,357.8,5.3,2.5,19.58,54.09,1.9242,374.9508],
    [6184,1532800012,56.8955,-111.2,1004.9,646.6,358.2,5.1,2.9,20.35,53.47,1.9337,375.9513],
    [6185,1532800013,56.8962,-111.1999,1003.1,644.1,359.0,4.3,3.2,20.65,52.95,1.9387,375.9513],
    [6186,1532800014,56.8968,-111.1999,1000.8,639.5,359.4,4.0,3.6,20.28,53.69,1.9391,374.8184],
    [6187,1532800015,56.8975,-111.1998,999.1,633.8,359.9,3.4,4.2,20.26,54.36,1.9388,375.1766],
    [6188,1532800016,56.8981,-111.1998,998.1,622.3,360.5,3.0,4.9,19.98,54.95,1.9364,375.1025],
    [6189,1532800017,56.8987,-111.1997,997.3,611.3,360.1,3.4,5.3,20.22,55.53,1.9318,375.3686],
    [6190,1532800018,56.8994,-111.1997,997.5,603.6,359.8,3.5,5.1,20.05,55.88,1.927,375.382],
    [6191,1532800019,56.9001,-111.1996,998.3,593.0,359.6,3.4,4.7,20.87,54.55,1.9233,375.2451],
    [6192,1532800020,56.9007,-111.1996,998.6,586.8,358.8,4.0,4.5,19.76,54.79,1.9231,374.9051],
    [6193,1532800021,56.9014,-111.1995,998.7,580.7,358.7,3.8,4.7,19.98,54.33,1.9228,374.9051],
    [6194,1532800022,56.902,-111.1995,999.3,574.3,358.4,4.2,4.0,20.26,53.42,1.9149,375.6245],
    [6195,1532800023,56.9026,-111.1994,1000.4,571.7,358.5,3.8,3.2,20.24,53.8,1.9081,376.7162],
    [6196,1532800024,56.9033,-111.1994,1000.8,573.6,359.2,2.9,2.7,19.98,52.71,1.9071,376.7162],
    [6197,1532800025,56.9039,-111.1994,1001.4,580.2,359.5,2.4,2.4,20.31,52.41,1.9114,377.1248],
    [6198,1532800026,56.9046,-111.1994,1002.2,581.5,359.6,2.3,2.4,19.8,51.12,1.9148,376.4184],
    [6199,1532800027,56.9052,-111.1993,1002.3,578.5,359.7,2.0,2.6,20.76,50.33,1.9199,376.4184],
    [6200,1532800028,56.9059,-111.1993,1001.8,571.1,359.2,2.1,2.4,20.33,50.66,1.9103,375.5394],
    [6201,1532800029,56.9065,-111.1993,1001.5,567.2,358.4,2.3,2.4,20.35,50.23,1.9075,377.2964],
    [6202,1532800030,56.9072,-111.1993,1001.0,564.9,357.2,3.6,2.7,20.87,49.34,1.9068,377.4618],
    [6203,1532800031,56.9078,-111.1993,1001.1,564.8,356.0,4.8,2.8,20.4,49.73,1.9079,376.6012],
    [6204,1532800032,56.9085,-111.1993,1001.7,565.4,357.4,3.3,2.8,20.18,49.32,1.9087,376.8045],
    [6205,1532800033,56.9091,-111.1993,1002.7,566.7,357.5,3.7,2.9,20.36,49.12,1.9088,376.9168],
    [6206,1532800034,56.9097,-111.1993,1003.8,568.0,357.5,3.9,2.9,20.36,48.37,1.9093,375.7128],
    [6207,1532800035,56.9104,-111.1993,1004.9,569.6,357.6,4.2,3.0,21.0,47.66,1.9093,376.7578],
    [6208,1532800036,56.911,-111.1992,1006.2,571.0,356.6,5.2,3.2,20.04,47.66,1.9088,376.7578],
    [6209,1532800037,56.9117,-111.1992,1007.3,571.2,356.6,4.9,3.2,21.22,46.92,1.9099,376.4899],
    [6210,1532800038,56.9123,-111.1992,1008.3,573.1,356.6,4.9,3.1,20.44,47.73,1.9108,376.4931],
    [6211,1532800039,56.913,-111.1992,1009.6,574.2,356.4,5.0,2.9,20.17,47.67,1.91,376.6438],
    [6212,1532800040,56.9136,-111.1992,1011.2,573.8,357.0,4.5,2.7,20.01,47.57,1.9107,376.6438],
    [6213,1532800041,56.9142,-111.1992,1013.3,577.2,356.7,5.0,2.7,20.59,47.84,1.9093,376.767],
    [6214,1532800042,56.9149,-111.1991,1015.9,585.4,356.2,5.3,2.6,20.53,47.88,1.9103,377.8546],
    [6215,1532800043,56.9155,-111.1991,1018.6,590.3,356.1,5.4,2.1,21.07,47.41,1.9093,377.8841],
    [6216,1532800044,56.9162,-111.1991,1021.0,586.3,356.0,5.3,1.9,20.64,48.0,1.9093,378.2963],
    [6217,1532800045,56.9168,-111.1991,1022.6,583.3,356.1,5.0,1.8,20.57,48.22,1.9109,376.8708],
    [6218,1532800046,56.9174,-111.1991,1023.5,581.1,356.5,4.4,1.7,20.92,47.75,1.9115,377.5024],
    [6219,1532800047,56.9181,-111.1991,1024.3,580.3,356.3,4.4,1.7,20.25,48.17,1.916,376.7312],
    [6220,1532800048,56.9187,-111.1991,1025.0,581.1,356.0,4.7,1.7,20.64,48.27,1.9163,376.7312],
    [6221,1532800049,56.9193,-111.1991,1025.7,580.7,355.7,4.9,1.8,20.73,48.87,1.9182,376.6241],
    [6222,1532800050,56.92,-111.1991,1026.2,580.2,355.8,4.8,2.0,20.75,49.38,1.9199,377.0006],
    [6223,1532800051,56.9206,-111.1991,1026.5,580.3,355.6,5.0,2.2,20.64,49.96,1.924,377.0676],
    [6224,1532800052,56.9212,-111.1991,1026.4,579.4,355.5,5.1,2.5,20.6,50.91,1.9278,376.8407],
    [6225,1532800053,56.9218,-111.1991,1026.0,579.0,355.4,5.3,1.7,20.42,51.21,1.927,376.3497],
    [6226,1532800054,56.9225,-111.1991,1025.2,578.2,355.4,5.3,1.6,20.56,52.22,1.9291,376.7921],
    [6227,1532800055,56.9231,-111.1991,1024.3,577.4,355.3,5.3,1.8,21.16,51.79,1.9379,376.0362],
    [6228,1532800056,56.9237,-111.1992,1023.1,577.2,355.3,5.5,1.4,20.74,53.02,1.9348,375.8381],
    [6229,1532800057,56.9244,-111.1992,1021.8,575.8,355.1,5.5,2.0,21.1,52.35,1.9283,375.6026],
    [6230,1532800058,56.925,-111.1992,1020.3,575.2,355.3,5.0,3.1,20.64,53.32,1.9202,376.1261],
    [6231,1532800059,56.9256,-111.1992,1018.8,573.6,355.3,5.0,2.9,21.2,52.97,1.923,375.5845],
    [6232,1532800060,56.9263,-111.1992,1017.2,573.2,355.3,4.9,3.1,20.27,53.23,1.932,375.9208],
    [6233,1532800061,56.9269,-111.1992,1015.5,571.5,355.5,4.6,3.4,20.67,52.76,1.9354,375.5411],
    [6234,1532800062,56.9275,-111.1992,1014.4,571.5,356.1,4.1,2.9,21.1,52.47,1.9255,375.9997],
    [6235,1532800063,56.9282,-111.1992,1014.1,570.1,356.4,4.0,2.2,20.53,52.75,1.9217,375.8066],
    [6236,1532800064,56.9288,-111.1992,1014.3,569.3,356.1,4.5,2.1,20.63,52.78,1.9168,376.8588],
    [6237,1532800065,56.9295,-111.1992,1014.4,568.4,356.0,4.5,2.0,20.22,52.55,1.916,376.4607],
    [6238,1532800066,56.9301,-111.1992,1014.0,568.0,357.0,3.3,1.5,20.47,53.07,1.9249,374.8349],
    [6239,1532800067,56.9307,-111.1992,1013.4,566.4,356.6,4.0,1.9,20.05,51.96,1.9343,375.6124],
    [6240,1532800068,56.9314,-111.1992,1012.7,565.7,356.0,4.3,2.4,20.42,53.03,1.9248,377.1561],
    [6241,1532800069,56.932,-111.1992,1012.0,565.0,357.7,2.9,2.1,20.18,52.71,1.9244,376.5603],
    [6242,1532800070,56.9327,-111.1992,1011.4,564.4,356.6,4.7,2.3,20.84,51.88,1.9276,376.1947],
    [6243,1532800071,56.9333,-111.1992,1010.6,563.6,356.4,4.8,2.3,20.82,52.59,1.9313,375.9927],
    [6244,1532800072,56.9339,-111.1992,1009.1,561.8,357.6,3.8,2.6,20.39,53.68,1.9324,375.349],
    [6245,1532800073,56.9346,-111.1992,1008.4,560.4,357.3,4.2,3.1,20.36,53.4,1.9331,375.7323],
    [6246,1532800074,56.9352,-111.1992,1008.2,560.2,357.7,3.8,2.4,20.38,53.74,1.925,375.0967],
    [6247,1532800075,56.9359,-111.1992,1007.4,560.4,356.5,5.0,2.0,20.55,53.61,1.9184,375.3868],
    [6248,1532800076,56.9365,-111.1992,1006.1,558.1,356.5,4.5,2.2,19.63,53.88,1.9173,375.7098],
    [6249,1532800077,56.9372,-111.1992,1004.2,556.3,357.3,3.8,2.3,20.39,53.91,1.9156,375.8558],
    [6250,1532800078,56.9378,-111.1992,1003.0,554.0,356.1,5.3,2.6,20.54,51.92,1.9135,376.2968],
    [6251,1532800079,56.9385,-111.1991,1002.4,553.0,356.6,4.8,2.2,20.18,51.8,1.9126,375.9728],
    [6252,1532800080,56.9391,-111.1991,1001.7,551.7,357.4,4.0,2.3,21.19,50.69,1.9097,375.8113],
    [6253,1532800081,56.9398,-111.1991,1000.4,550.4,357.4,4.0,2.8,20.6,50.38,1.9099,375.8133],
    [6254,1532800082,56.9405,-111.1991,999.1,549.1,358.2,3.3,3.3,20.4,49.35,1.9089,375.6343],
    [6255,1532800083,56.9411,-111.1991,998.6,548.6,358.0,3.8,3.6,20.61,48.88,1.9091,375.7797],
    [6256,1532800084,56.9418,-111.1991,998.7,547.7,357.7,4.2,3.8,20.33,48.79,1.9099,376.2069],
    [6257,1532800085,56.9424,-111.199,999.3,548.3,357.4,4.7,4.2,21.25,47.34,1.91,376.4666],
    [6258,1532800086,56.9431,-111.199,999.9,548.9,357.9,4.2,4.4,20.82,47.46,1.9098,376.6428],
    [6259,1532800087,56.9438,-111.199,1000.1,549.1,358.6,3.8,4.5,20.65,47.77,1.9108,375.9038],
    [6260,1532800088,56.9444,-111.1989,1000.6,549.6,357.6,5.2,4.5,20.64,48.05,1.9114,376.6729],
    [6261,1532800089,56.9451,-111.1989,1001.3,550.3,357.9,4.6,4.3,20.99,47.68,1.9097,376.459],
    [6262,1532800090,56.9457,-111.1989,1002.1,551.1,357.9,4.7,4.1,20.71,48.29,1.9143,376.436],
    [6263,1532800091,56.9464,-111.1988,1003.0,553.0,357.4,5.2,4.1,20.56,47.58,1.9148,376.436],
    [6264,1532800092,56.947,-111.1988,1004.1,554.1,357.9,4.6,4.3,21.07,46.99,1.9185,377.3256],
    [6265,1532800093,56.9477,-111.1988,1005.8,555.8,357.8,4.8,4.2,20.75,47.92,1.9153,376.126],
    [6266,1532800094,56.9483,-111.1987,1007.8,557.8,357.8,4.7,3.7,20.66,49.05,1.9139,376.126],
    [6267,1532800095,56.949,-111.1987,1010.2,561.2,357.7,4.8,3.1,20.57,49.1,1.9104,376.3293],
    [6268,1532800096,56.9496,-111.1987,1012.5,563.5,357.6,4.8,3.1,20.46,48.61,1.9106,376.0358],
    [6269,1532800097,56.9503,-111.1986,1014.7,565.7,357.5,4.8,3.0,21.0,47.7,1.9114,376.0063],
    [6270,1532800098,56.9509,-111.1986,1016.6,567.6,357.2,4.9,2.6,20.91,47.54,1.9104,374.8148],
    [6271,1532800099,56.9515,-111.1986,1018.3,569.3,357.3,4.7,2.2,20.73,47.12,1.9098,375.6828],
    [6272,1532800100,56.9522,-111.1986,1019.6,571.6,357.3,4.5,2.0,20.54,46.6,1.9101,374.2882],
    [6273,1532800101,56.9528,-111.1986,1020.9,572.9,357.2,4.4,1.8,21.23,45.61,1.9105,375.0105],
    [6274,1532800102,56.9534,-111.1985,1022.1,574.1,357.0,4.2,1.7,20.24,45.96,1.9115,375.6022],
    [6275,1532800103,56.9541,-111.1985,1023.3,575.3,356.8,4.0,1.8,21.23,45.3,1.9332,376.517],
    [6276,1532800104,56.9547,-111.1985,1024.3,576.3,356.8,3.6,2.0,20.36,46.54,1.9314,376.2251],
    [6277,1532800105,56.9553,-111.1985,1024.8,577.8,357.2,3.0,2.0,20.7,47.24,1.9166,374.2732],
    [6278,1532800106,56.9559,-111.1985,1025.4,578.4,357.3,3.5,1.8,20.74,48.47,1.9208,376.7876],
    [6279,1532800107,56.9566,-111.1985,1026.2,579.2,356.4,4.6,2.4,20.87,49.74,1.927,377.4348],
    [6280,1532800108,56.9572,-111.1985,1026.9,579.9,356.7,4.2,2.7,20.55,49.28,1.9244,376.6383],
    [6281,1532800109,56.9578,-111.1985,1027.0,580.0,356.3,4.6,2.4,20.65,49.67,1.9117,376.2677],
    [6282,1532800110,56.9585,-111.1985,1026.5,579.5,355.9,4.7,2.2,20.76,49.79,1.9109,376.3452],
    [6283,1532800111,56.9591,-111.1985,1025.7,578.4,356.2,4.1,2.7,20.85,49.33,1.9096,376.5586],
    [6284,1532800112,56.9597,-111.1985,1025.2,577.2,355.7,4.4,3.1,20.85,49.03,1.9149,374.9613],
    [6285,1532800113,56.9604,-111.1986,1024.8,576.8,355.5,4.1,3.0,20.89,48.46,1.9174,376.0255],
    [6286,1532800114,56.961,-111.1986,1024.8,576.8,355.1,4.2,2.9,20.98,47.71,1.911,375.9544],
    [6287,1532800115,56.9616,-111.1986,1025.0,577.0,354.6,4.6,2.6,20.53,47.56,1.9098,376.4033],
    [6288,1532800116,56.9622,-111.1986,1025.6,577.6,354.6,4.6,2.1,21.24,47.12,1.9122,376.3651],
    [6289,1532800117,56.9629,-111.1987,1027.1,579.1,354.4,4.9,1.9,20.77,47.5,1.9167,376.5981],
    [6290,1532800118,56.9635,-111.1987,1029.2,581.2,354.9,4.8,1.6,20.84,47.66,1.9173,375.9077],
    [6291,1532800119,56.9641,-111.1987,1031.5,583.5,355.4,4.4,1.1,21.57,47.12,1.916,375.6925],
    [6292,1532800120,56.9647,-111.1987,1033.9,585.9,356.6,3.4,1.0,20.79,47.91,1.9119,377.1605],
    [6293,1532800121,56.9653,-111.1987,1035.2,587.2,356.8,3.7,1.0,20.17,47.86,1.9122,376.503],
    [6294,1532800122,56.966,-111.1987,1036.3,588.3,356.3,4.4,1.2,20.84,47.46,1.9116,376.2193],
    [6295,1532800123,56.9666,-111.1987,1037.8,589.8,356.3,4.2,1.1,20.93,46.49,1.9118,374.4471],
    [6296,1532800124,56.9672,-111.1987,1040.1,593.1,356.0,4.3,1.0,21.46,45.81,1.9117,374.9282],
    [6297,1532800125,56.9678,-111.1987,1042.1,595.1,355.5,4.5,1.1,20.48,45.57,1.9136,374.974],
    [6298,1532800126,56.9684,-111.1988,1043.0,596.0,355.2,4.4,1.2,21.42,44.77,1.9115,375.6378],
    [6299,1532800127,56.969,-111.1988,1042.8,595.8,356.1,3.6,1.2,20.72,44.79,1.913,375.309],
    [6300,1532800128,56.9697,-111.1988,1042.6,595.6,355.2,4.5,1.5,20.56,45.04,1.9128,375.4177],
    [6301,1532800129,56.9703,-111.1988,1042.6,595.6,354.9,4.7,1.6,20.88,44.99,1.9115,375.6566],
    [6302,1532800130,56.9709,-111.1988,1043.5,596.5,354.9,4.5,1.6,20.28,44.57,1.9133,376.2417],
    [6303,1532800131,56.9715,-111.1989,1044.4,597.4,355.2,4.1,1.3,20.8,44.84,1.9139,375.1444],
    [6304,1532800132,56.9722,-111.1989,1045.4,598.7,355.4,4.1,1.1,21.09,44.05,1.9152,375.8595],
    [6305,1532800133,56.9728,-111.1989,1046.5,599.8,354.5,4.9,0.8,20.62,43.99,1.9137,376.0922],
    [6306,1532800134,56.9734,-111.199,1047.5,601.5,355.1,4.3,0.4,20.54,43.82,1.9127,376.5604],
    [6307,1532800135,56.9741,-111.199,1048.1,602.1,354.8,4.7,-0.1,21.17,43.69,1.9155,376.079],
    [6308,1532800136,56.9747,-111.199,1048.3,602.3,354.9,4.6,-0.6,20.55,43.9,1.9154,376.5035],
    [6309,1532800137,56.9753,-111.199,1048.3,603.3,355.5,4.0,-1.0,20.85,44.03,1.9128,376.197],
    [6310,1532800138,56.9759,-111.1991,1048.4,603.4,355.4,4.3,-1.2,21.73,43.26,1.913,375.4056],
    [6311,1532800139,56.9766,-111.1991,1048.5,604.6,355.5,4.2,-1.6,21.06,43.51,1.9144,375.9289],
    [6312,1532800140,56.9772,-111.1991,1048.8,605.5,355.7,4.2,-2.0,20.61,43.56,1.9138,376.1712],
    [6313,1532800141,56.9778,-111.1991,1049.2,607.2,355.5,4.4,-2.4,20.5,43.54,1.9117,376.6144],
    [6314,1532800142,56.9784,-111.1992,1048.8,607.7,355.6,4.2,-2.6,21.25,43.85,1.9135,376.857],
    [6315,1532800143,56.9791,-111.1992,1047.6,607.6,355.4,4.2,-2.5,21.07,44.64,1.9138,377.1375],
    [6316,1532800144,56.9797,-111.1992,1045.8,606.8,355.2,4.4,-2.2,21.71,43.69,1.9131,377.1581],
    [6317,1532800145,56.9803,-111.1992,1043.4,605.4,355.0,4.4,-1.6,21.19,44.48,1.9141,377.2304],
    [6318,1532800146,56.981,-111.1993,1040.6,602.6,354.8,4.4,-1.0,21.22,44.53,1.9123,376.9193],
    [6319,1532800147,56.9816,-111.1993,1037.3,599.3,354.8,4.3,-0.6,20.98,44.75,1.9126,377.6234],
    [6320,1532800148,56.9822,-111.1993,1033.9,595.3,354.8,4.1,-0.3,21.23,44.65,1.9164,375.9008],
    [6321,1532800149,56.9829,-111.1994,1030.6,591.6,354.9,4.0,-0.2,21.74,44.79,1.9173,377.0245],
    [6322,1532800150,56.9835,-111.1994,1027.3,588.3,355.1,3.7,0.1,21.39,44.99,1.9139,378.1708],
    [6323,1532800151,56.9842,-111.1995,1024.0,585.0,355.3,3.6,0.7,21.8,45.41,1.9135,376.561],
    [6324,1532800152,56.9848,-111.1995,1020.9,581.9,355.2,3.6,1.4,21.07,46.68,1.9137,375.2936],
    [6325,1532800153,56.9855,-111.1995,1017.9,578.9,355.4,3.6,1.9,21.9,46.0,1.9124,375.2936],
    [6326,1532800154,56.9862,-111.1996,1015.8,577.8,355.1,4.0,2.1,21.26,45.87,1.9108,376.9261],
    [6327,1532800155,56.9868,-111.1996,1014.5,576.5,355.4,3.8,1.8,20.99,45.96,1.9115,376.358],
    [6328,1532800156,56.9875,-111.1996,1014.0,576.7,355.1,4.2,1.5,20.71,45.81,1.9124,375.1902],
    [6329,1532800157,56.9882,-111.1997,1014.6,577.6,355.1,4.1,1.3,21.18,45.78,1.9122,374.8954],
    [6330,1532800158,56.9888,-111.1997,1015.7,578.7,354.8,4.3,0.9,21.41,44.83,1.9131,374.1216],
    [6331,1532800159,56.9895,-111.1998,1016.7,579.7,355.0,3.9,0.8,21.17,45.55,1.9119,375.8837],
    [6332,1532800160,56.9902,-111.1998,1017.1,580.1,355.2,3.9,0.6,21.44,44.23,1.913,374.6671],
    [6333,1532800161,56.9908,-111.1998,1017.5,580.5,355.4,3.8,0.5,20.63,44.71,1.9129,375.0493],
    [6334,1532800162,56.9915,-111.1999,1018.1,580.8,356.0,3.3,0.5,21.12,45.76,1.9121,377.1304],
    [6335,1532800163,56.9921,-111.1999,1018.7,580.7,356.4,3.2,0.6,21.1,45.41,1.9123,376.3049],
    [6336,1532800164,56.9928,-111.1999,1019.0,581.0,356.7,3.3,0.7,21.18,44.83,1.9126,376.3267],
    [6337,1532800165,56.9934,-111.1999,1018.8,581.6,357.4,2.9,0.8,21.49,44.6,1.9125,376.82],
    [6338,1532800166,56.9941,-111.1999,1017.9,580.9,357.8,3.0,1.0,20.96,44.53,1.9134,376.9274],
    [6339,1532800167,56.9947,-111.1999,1016.8,579.1,358.0,3.1,1.4,21.3,44.58,1.9117,377.4723],
    [6340,1532800168,56.9954,-111.1999,1015.6,577.9,358.2,3.1,2.0,21.35,44.95,1.9106,377.0381],
    [6341,1532800169,56.9961,-111.1999,1014.3,577.2,358.3,3.2,2.5,21.61,43.88,1.9116,375.7383],
    [6342,1532800170,56.9967,-111.1999,1013.2,576.1,358.3,3.2,3.0,21.14,44.3,1.9123,375.7383],
    [6343,1532800171,56.9974,-111.1998,1012.0,574.8,358.3,3.3,3.5,21.69,43.38,1.9125,376.1818],
    [6344,1532800172,56.9981,-111.1998,1010.7,573.5,358.1,3.6,3.7,22.06,43.1,1.9134,375.1161],
    [6345,1532800173,56.9987,-111.1998,1009.5,571.6,358.4,3.3,3.7,21.48,43.14,1.9129,375.6534],
    [6346,1532800174,56.9994,-111.1998,1008.3,570.1,358.4,3.3,3.7,21.18,43.51,1.9135,376.5405],
    [6347,1532800175,57.0,-111.1998,1007.1,568.2,358.4,3.2,3.7,21.15,43.54,1.9139,376.5764],
    [6348,1532800176,57.0007,-111.1997,1006.1,567.4,358.5,3.0,3.6,21.31,43.78,1.9149,376.7644],
    [6349,1532800177,57.0014,-111.1997,1005.2,566.4,358.6,2.8,4.0,21.38,44.38,1.9357,377.1542],
    [6350,1532800178,57.002,-111.1997,1004.4,565.2,358.6,2.8,4.2,21.33,45.74,1.9362,377.1542],
    [6351,1532800179,57.0027,-111.1997,1003.7,564.7,358.4,2.9,4.0,21.51,46.55,1.93,377.365],
    [6352,1532800180,57.0034,-111.1997,1003.4,564.4,358.5,2.6,4.3,21.13,47.72,1.9319,378.353],
    [6353,1532800181,57.004,-111.1997,1004.0,565.0,358.5,2.5,3.9,21.52,49.0,1.9359,377.996],
    [6354,1532800182,57.0047,-111.1997,1005.0,566.0,358.3,2.6,2.9,21.28,50.34,1.9274,377.9348],
    [6355,1532800183,57.0053,-111.1996,1006.2,567.2,358.3,2.5,1.5,20.94,50.93,1.9182,375.8248],
    [6356,1532800184,57.006,-111.1996,1007.5,568.5,358.1,2.6,0.9,21.72,50.2,1.9132,375.8248],
    [6357,1532800185,57.0066,-111.1996,1008.7,569.7,357.8,2.8,0.6,21.62,49.35,1.9107,376.6154],
    [6358,1532800186,57.0073,-111.1996,1009.5,570.5,357.6,3.0,0.2,21.83,48.15,1.9102,376.5163],
    [6359,1532800187,57.0079,-111.1996,1009.8,570.8,357.1,3.5,0.0,21.43,47.48,1.9103,376.1799],
    [6360,1532800188,57.0085,-111.1996,1009.6,570.6,356.9,3.7,-0.2,20.86,46.87,1.9129,375.9838],
    [6361,1532800189,57.0092,-111.1997,1009.1,570.1,356.4,4.2,-0.1,21.18,46.44,1.9193,376.9375],
    [6362,1532800190,57.0098,-111.1997,1008.1,569.1,356.4,4.3,0.1,21.08,47.03,1.9225,377.9652],
    [6363,1532800191,57.0104,-111.1997,1007.0,568.0,357.5,3.4,0.3,20.76,46.79,1.9218,376.9989],
    [6364,1532800192,57.0111,-111.1996,1005.5,566.5,357.7,3.6,0.6,21.04,47.65,1.9158,376.9989],
    [6365,1532800193,57.0117,-111.1996,1004.2,565.2,357.5,4.0,0.7,21.5,47.29,1.9131,376.2521],
    [6366,1532800194,57.0124,-111.1996,1002.1,563.1,358.2,3.4,1.1,21.75,47.17,1.9108,375.5693],
    [6367,1532800195,57.013,-111.1996,999.2,560.2,358.0,3.7,1.5,21.24,46.57,1.911,376.0408],
    [6368,1532800196,57.0136,-111.1996,996.7,557.7,358.2,3.7,2.2,21.03,46.34,1.9118,376.0408],
    [6369,1532800197,57.0143,-111.1995,994.4,555.4,358.2,3.9,3.6,21.16,45.89,1.9279,376.0053],
    [6370,1532800198,57.0149,-111.1995,992.3,553.3,358.0,4.0,4.2,21.09,47.21,1.9298,377.1254],
    [6371,1532800199,57.0156,-111.1995,990.1,551.1,358.3,3.7,4.0,21.03,47.64,1.915,375.7853],
    [6372,1532800200,57.0162,-111.1995,988.0,549.0,357.9,3.9,4.2,21.83,47.99,1.9117,375.768],
    [6373,1532800201,57.0169,-111.1994,986.1,547.1,357.5,3.9,4.4,21.09,49.51,1.9109,375.8082],
    [6374,1532800202,57.0175,-111.1994,984.6,545.6,357.1,3.9,4.6,21.47,48.13,1.9124,375.2299],
    [6375,1532800203,57.0182,-111.1994,983.3,544.3,356.6,4.0,4.7,21.34,48.03,1.9119,376.0728],
    [6376,1532800204,57.0188,-111.1994,982.4,543.4,356.6,3.8,4.8,21.62,46.95,1.9114,375.6353],
    [6377,1532800205,57.0195,-111.1994,981.3,542.3,356.2,4.0,4.7,20.73,46.65,1.9112,376.1608],
    [6378,1532800206,57.0202,-111.1994,980.9,541.9,356.9,3.2,4.5,21.92,46.11,1.9121,376.6826],
    [6379,1532800207,57.0208,-111.1994,980.7,541.7,357.1,3.4,4.2,21.5,46.1,1.9116,376.4041],
    [6380,1532800208,57.0214,-111.1994,980.8,541.5,357.2,3.5,4.1,21.34,47.1,1.9127,374.8525],
    [6381,1532800209,57.0221,-111.1994,980.9,540.9,358.0,3.1,4.0,20.91,46.76,1.9112,375.3565],
    [6382,1532800210,57.0227,-111.1994,981.4,541.4,357.8,3.9,4.0,21.24,46.41,1.9116,376.9423],
    [6383,1532800211,57.0233,-111.1994,982.5,542.5,357.6,4.5,3.9,21.28,46.66,1.9113,375.085],
    [6384,1532800212,57.024,-111.1994,984.0,544.0,358.2,4.4,3.6,21.98,45.8,1.9114,375.1604],
    [6385,1532800213,57.0246,-111.1993,985.8,545.5,358.5,4.5,3.2,21.29,46.4,1.9109,375.743],
    [6386,1532800214,57.0252,-111.1993,987.5,546.5,359.3,4.0,2.8,21.25,46.76,1.9116,376.0045],
    [6387,1532800215,57.0258,-111.1992,988.8,547.8,360.0,3.6,2.6,21.53,46.26,1.9115,377.3222],
    [6388,1532800216,57.0264,-111.1992,989.7,548.7,360.4,3.4,2.6,21.48,46.73,1.9127,375.4045],
    [6389,1532800217,57.0271,-111.1991,990.5,549.5,360.0,3.7,2.5,21.24,47.06,1.9122,376.8126],
    [6390,1532800218,57.0277,-111.199,991.1,549.4,359.6,3.6,2.2,21.2,46.89,1.9117,376.9039],
    [6391,1532800219,57.0283,-111.199,991.6,549.6,359.0,3.8,2.0,21.5,46.37,1.9114,376.1651],
    [6392,1532800220,57.0289,-111.199,992.2,550.2,358.6,3.5,1.7,21.76,46.13,1.9111,376.1651],
    [6393,1532800221,57.0295,-111.1989,993.0,551.0,358.5,3.1,1.4,20.95,46.35,1.912,375.2162],
    [6394,1532800222,57.0301,-111.1989,994.5,552.5,357.7,3.3,1.2,21.27,46.3,1.9132,375.2162],
    [6395,1532800223,57.0307,-111.1989,996.2,553.4,357.0,3.6,0.9,21.68,45.81,1.9165,377.395],
    [6396,1532800224,57.0313,-111.1989,997.5,554.5,356.8,3.4,0.8,22.02,45.64,1.9231,376.9466],
    [6397,1532800225,57.0319,-111.1989,998.4,555.4,356.7,3.2,0.6,20.98,46.79,1.9262,377.3809],
    [6398,1532800226,57.0326,-111.1989,998.7,555.7,356.2,3.6,1.0,21.42,47.35,1.9263,377.2075],
    [6399,1532800227,57.0332,-111.1989,998.7,555.7,355.7,4.2,0.7,21.44,48.32,1.9242,376.2372],
    [6400,1532800228,57.0338,-111.199,998.5,555.5,355.3,4.6,0.3,21.66,49.35,1.9197,376.7244],
    [6401,1532800229,57.0344,-111.199,998.3,554.3,355.4,4.4,0.3,21.04,49.92,1.92,378.2366],
    [6402,1532800230,57.035,-111.199,997.8,553.8,355.9,3.9,0.4,20.94,50.18,1.92,377.7911],
    [6403,1532800231,57.0356,-111.199,997.1,553.1,356.1,3.7,0.7,20.84,50.35,1.9203,377.8775],
    [6404,1532800232,57.0362,-111.199,995.9,551.9,355.8,4.1,0.8,20.82,50.15,1.9218,378.889],
    [6405,1532800233,57.0368,-111.199,994.4,550.4,355.8,4.0,0.6,20.88,50.59,1.922,378.9035],
    [6406,1532800234,57.0374,-111.1991,992.6,548.6,356.2,3.7,0.2,21.65,50.35,1.921,378.1684],
    [6407,1532800235,57.038,-111.1991,990.9,546.9,355.8,4.2,0.1,21.08,51.19,1.9224,377.0245],
    [6408,1532800236,57.0386,-111.1991,989.2,545.2,355.5,4.7,0.1,20.89,51.5,1.9222,377.0245],
    [6409,1532800237,57.0392,-111.1991,987.5,543.5,355.7,4.6,0.3,21.4,51.02,1.9169,378.3716],
    [6410,1532800238,57.0399,-111.1991,985.8,541.8,356.1,4.3,0.8,20.54,51.06,1.9267,377.3625],
    [6411,1532800239,57.0405,-111.1991,984.5,540.5,356.2,4.4,2.0,20.9,51.21,1.9334,377.1766],
    [6412,1532800240,57.0411,-111.1991,983.0,539.0,356.7,4.1,2.7,21.18,51.38,1.9344,376.4585],
    [6413,1532800241,57.0417,-111.1991,981.7,537.7,356.9,4.1,3.2,20.87,52.22,1.9358,375.2409],
    [6414,1532800242,57.0423,-111.1991,980.7,536.0,356.7,4.3,4.4,21.37,52.65,1.94,376.7924],
    [6415,1532800243,57.0429,-111.1991,979.9,534.9,357.2,3.9,5.5,21.16,54.04,1.9432,375.742],
    [6416,1532800244,57.0435,-111.199,979.1,534.1,357.9,3.5,6.6,20.97,54.84,1.944,374.7454],
    [6417,1532800245,57.0442,-111.199,978.3,533.3,358.4,3.3,7.2,20.64,55.56,1.9342,375.8913],
    [6418,1532800246,57.0448,-111.199,977.4,531.7,358.8,3.1,7.1,21.74,55.74,1.9248,375.8257],
    [6419,1532800247,57.0454,-111.199,976.6,530.6,358.6,3.1,6.9,20.44,55.95,1.9118,375.1901],
    [6420,1532800248,57.046,-111.1989,976.1,530.1,357.6,3.0,6.7,21.32,54.59,1.9116,375.1442],
    [6421,1532800249,57.0466,-111.199,976.0,530.0,355.2,3.1,6.4,21.03,53.44,1.9077,374.6682],
    [6422,1532800250,57.0472,-111.199,976.4,530.4,351.6,3.1,5.8,21.08,51.6,1.911,375.6245],
    [6423,1532800251,57.0478,-111.1992,977.8,531.8,347.0,2.9,5.3,20.91,50.31,1.9094,375.6007],
    [6424,1532800252,57.0484,-111.1994,980.1,533.4,342.7,2.7,4.8,21.06,49.7,1.9115,375.8064],
    [6425,1532800253,57.049,-111.1997,983.4,536.4,338.0,3.3,5.1,21.02,49.45,1.9145,376.8156],
    [6426,1532800254,57.0496,-111.2,987.5,539.5,334.1,3.7,4.6,20.76,49.05,1.9163,376.8156],
    [6427,1532800255,57.0501,-111.2005,992.1,543.1,331.7,3.5,3.6,20.36,49.38,1.912,375.9674],
    [6428,1532800256,57.0506,-111.2009,996.6,546.6,329.4,3.7,3.2,20.87,49.91,1.9107,375.5862],
    [6429,1532800257,57.0511,-111.2014,1000.8,550.1,327.5,3.6,3.1,21.21,49.47,1.9101,376.2979],
    [6430,1532800258,57.0516,-111.2019,1004.7,553.3,325.6,3.5,3.2,20.5,49.25,1.9122,375.7282],
    [6431,1532800259,57.052,-111.2024,1007.8,555.9,323.5,3.4,2.8,21.22,48.59,1.9132,377.0368],
    [6432,1532800260,57.0525,-111.2029,1010.1,558.1,321.7,2.9,2.6,20.77,48.74,1.9293,377.1684],
    [6433,1532800261,57.0529,-111.2035,1011.8,560.8,318.6,3.4,3.0,20.79,49.34,1.9133,375.9451],
    [6434,1532800262,57.0534,-111.2041,1012.8,564.0,316.4,3.1,2.8,20.81,49.9,1.9134,375.9451],
    [6435,1532800263,57.0538,-111.2048,1013.1,566.1,313.9,3.1,3.0,20.24,49.86,1.9144,375.557],
    [6436,1532800264,57.0542,-111.2055,1013.6,566.6,311.0,3.8,3.0,20.76,49.82,1.912,375.6531],
    [6437,1532800265,57.0546,-111.2062,1014.7,566.7,309.0,4.5,2.3,20.61,48.88,1.9116,375.6531],
    [6438,1532800266,57.0549,-111.2069,1016.2,569.2,307.6,5.3,1.5,20.49,48.23,1.9122,374.4018],
    [6439,1532800267,57.0553,-111.2076,1018.5,571.5,306.7,6.0,0.2,20.69,47.72,1.9129,375.055],
    [6440,1532800268,57.0556,-111.2084,1021.6,574.6,305.3,6.7,-0.9,21.08,46.38,1.9122,374.3497],
    [6441,1532800269,57.0559,-111.2091,1024.7,577.7,302.7,7.8,-1.3,20.73,46.73,1.9121,375.8484],
    [6442,1532800270,57.0562,-111.2099,1027.8,581.8,299.1,9.1,-1.2,20.83,46.07,1.9127,375.5114],
    [6443,1532800271,57.0565,-111.2107,1030.6,585.6,295.2,10.0,-0.5,20.85,46.78,1.9144,375.9445],
    [6444,1532800272,57.0567,-111.2116,1032.7,587.7,292.5,10.1,-0.5,20.76,46.46,1.9145,375.3208],
    [6445,1532800273,57.0569,-111.2124,1034.3,589.5,290.1,10.1,-0.5,20.37,46.51,1.9157,375.0297],
    [6446,1532800274,57.0571,-111.2133,1036.1,592.1,286.5,10.6,1.3,20.22,46.6,1.9149,376.0787],
    [6447,1532800275,57.0573,-111.2141,1037.1,593.0,285.2,10.1,1.2,20.83,46.62,1.9145,376.0787],
    [6448,1532800276,57.0574,-111.215,1036.7,591.7,284.9,9.4,0.9,20.41,46.29,1.9123,376.1779],
    [6449,1532800277,57.0576,-111.2159,1034.8,589.8,284.1,8.7,1.1,20.92,46.08,1.9136,377.0289],
    [6450,1532800278,57.0577,-111.2168,1031.3,585.5,283.9,7.9,0.7,20.52,46.03,1.913,373.9896],
    [6451,1532800279,57.0579,-111.2177,1026.8,580.8,282.3,7.2,1.5,21.68,45.6,1.9138,373.9896],
    [6452,1532800280,57.058,-111.2186,1021.9,576.9,280.7,6.4,2.1,20.58,46.01,1.913,376.266],
    [6453,1532800281,57.0581,-111.2196,1017.3,572.3,280.2,5.7,1.6,21.03,45.61,1.9131,375.6982],
    [6454,1532800282,57.0582,-111.2206,1013.3,569.3,279.1,5.1,1.5,21.01,46.51,1.9133,374.9126],
    [6455,1532800283,57.0583,-111.2216,1010.2,566.8,277.5,4.8,1.7,21.18,45.73,1.9143,376.9688],
    [6456,1532800284,57.0584,-111.2225,1008.4,566.5,276.0,4.9,1.5,21.06,46.49,1.9129,376.4409],
    [6457,1532800285,57.0585,-111.2235,1008.0,567.0,274.3,5.1,1.5,21.28,45.67,1.9142,375.3167],
    [6458,1532800286,57.0585,-111.2245,1008.5,569.2,272.6,5.6,1.5,20.98,45.92,1.9143,374.8512],
    [6459,1532800287,57.0586,-111.2255,1009.5,571.2,271.1,6.1,1.8,21.07,46.39,1.9134,375.0192],
    [6460,1532800288,57.0586,-111.2265,1010.7,573.7,270.2,6.2,1.7,21.06,46.74,1.9146,376.0755],
    [6461,1532800289,57.0586,-111.2275,1011.9,576.8,270.0,6.2,1.3,20.54,46.37,1.9136,373.6069],
    [6462,1532800290,57.0586,-111.2285,1013.0,579.7,269.1,6.4,1.9,21.55,45.56,1.9142,374.3544],
    [6463,1532800291,57.0586,-111.2295,1013.9,583.8,268.6,6.6,2.1,21.09,45.74,1.9128,374.0048],
    [6464,1532800292,57.0586,-111.2305,1014.4,588.1,268.9,7.0,1.8,20.86,44.95,1.9144,374.0048],
    [6465,1532800293,57.0586,-111.2315,1014.5,592.6,269.2,7.6,2.0,21.09,44.61,1.9141,375.3288],
    [6466,1532800294,57.0586,-111.2325,1014.3,594.3,270.0,8.2,1.8,21.71,44.22,1.9138,375.8479],
    [6467,1532800295,57.0586,-111.2335,1013.6,596.3,271.3,8.3,1.3,21.43,44.09,1.9138,375.3785],
    [6468,1532800296,57.0587,-111.2345,1012.7,597.7,272.3,8.3,1.2,21.43,44.28,1.9143,375.4841],
    [6469,1532800297,57.0587,-111.2355,1011.5,597.5,273.2,8.3,1.0,21.18,44.74,1.9146,375.7385],
    [6470,1532800298,57.0588,-111.2365,1010.0,597.0,273.8,8.3,1.1,20.54,44.78,1.9133,375.1345],
    [6471,1532800299,57.0588,-111.2375,1008.5,596.5,274.1,8.5,1.0,21.17,44.76,1.9139,375.6134],
    [6472,1532800300,57.0589,-111.2385,1007.0,595.0,274.5,8.8,0.6,21.17,44.43,1.9142,376.058],
    [6473,1532800301,57.0589,-111.2395,1005.9,595.2,274.0,8.8,1.0,21.22,45.0,1.9147,375.9969],
    [6474,1532800302,57.059,-111.2405,1004.7,594.7,273.4,8.5,1.5,21.27,45.17,1.9159,375.9969],
    [6475,1532800303,57.059,-111.2416,1003.3,594.3,273.0,7.9,1.7,20.91,45.38,1.9145,375.8884],
    [6476,1532800304,57.0591,-111.2426,1001.5,593.5,272.8,7.4,1.8,21.43,46.28,1.9144,375.1118],
    [6477,1532800305,57.0591,-111.2436,999.2,592.2,272.8,7.2,1.5,21.79,45.49,1.9138,375.3798],
    [6478,1532800306,57.0592,-111.2446,996.2,590.2,272.4,7.0,1.4,21.27,46.3,1.9146,375.3798],
    [6479,1532800307,57.0592,-111.2457,993.2,588.2,272.0,7.0,1.1,21.79,45.41,1.9141,374.4841],
    [6480,1532800308,57.0592,-111.2467,990.2,586.4,271.4,6.6,1.1,21.89,45.14,1.9158,375.6387],
    [6481,1532800309,57.0592,-111.2478,987.0,584.0,270.4,6.3,1.3,21.6,44.67,1.9153,375.8987],
    [6482,1532800310,57.0593,-111.2488,983.5,581.3,269.7,5.7,1.2,21.24,45.8,1.9159,376.7483],
    [6483,1532800311,57.0593,-111.2499,980.0,579.0,268.8,5.0,1.5,21.46,45.41,1.9151,375.992],
    [6484,1532800312,57.0593,-111.2509,976.6,575.7,268.2,4.6,1.8,21.24,45.9,1.9151,377.0627],
    [6485,1532800313,57.0593,-111.252,973.9,573.8,268.6,4.9,1.4,21.51,46.25,1.9155,377.1574],
    [6486,1532800314,57.0593,-111.2531,972.2,572.2,269.2,5.1,1.1,21.04,46.53,1.9152,377.4082],
    [6487,1532800315,57.0593,-111.2542,971.2,571.3,270.2,5.1,0.9,21.18,46.71,1.9148,377.7236],
    [6488,1532800316,57.0593,-111.2552,969.9,570.9,271.0,4.8,0.6,21.66,47.09,1.9129,376.485],
    [6489,1532800317,57.0593,-111.2563,968.1,569.1,271.7,4.2,0.4,21.34,47.14,1.9127,376.4979],
    [6490,1532800318,57.0593,-111.2574,965.9,566.9,271.4,3.4,1.0,21.38,47.2,1.9134,376.089],
    [6491,1532800319,57.0593,-111.2585,963.8,565.8,271.1,2.8,1.2,21.63,46.74,1.9137,375.4059],
    [6492,1532800320,57.0594,-111.2595,962.7,564.7,270.8,2.9,1.2,21.19,47.24,1.9128,375.0416],
    [6493,1532800321,57.0594,-111.2606,962.4,564.4,270.8,3.0,0.9,21.82,45.68,1.9115,375.1222],
    [6494,1532800322,57.0594,-111.2617,962.6,565.6,270.3,3.1,0.8,21.88,45.04,1.912,375.3497],
    [6495,1532800323,57.0594,-111.2627,963.1,566.1,270.0,3.3,0.6,21.25,44.66,1.9124,375.4691],
    [6496,1532800324,57.0594,-111.2638,963.6,566.6,270.0,3.3,0.3,21.85,43.85,1.9122,374.8154],
    [6497,1532800325,57.0594,-111.2649,963.8,567.8,269.6,3.3,0.5,21.54,43.8,1.913,375.18],
    [6498,1532800326,57.0594,-111.2659,963.2,567.2,269.4,3.3,0.6,21.46,43.51,1.9129,375.424],
    [6499,1532800327,57.0594,-111.2669,962.4,567.4,269.7,3.6,0.4,21.03,43.0,1.9141,375.424],
    [6500,1532800328,57.0594,-111.268,962.2,567.2,269.5,3.9,0.9,21.35,43.44,1.9156,374.1942],
    [6501,1532800329,57.0594,-111.269,962.5,568.5,270.1,4.1,0.7,22.41,42.54,1.916,377.6001],
    [6502,1532800330,57.0594,-111.2701,963.1,569.8,270.7,4.1,0.5,21.5,43.66,1.9168,375.9608],
    [6503,1532800331,57.0594,-111.2711,963.8,571.8,271.0,3.8,0.6,21.7,44.15,1.9154,375.9608],
    [6504,1532800332,57.0595,-111.2722,963.9,571.9,271.0,3.6,0.9,21.57,45.12,1.9144,376.4003],
    [6505,1532800333,57.0595,-111.2732,963.3,572.3,270.8,3.6,1.2,21.49,46.52,1.915,375.9824],
    [6506,1532800334,57.0595,-111.2743,962.8,572.8,270.9,3.4,1.3,21.58,46.87,1.9145,376.4419],
    [6507,1532800335,57.0595,-111.2754,962.4,573.4,271.0,3.1,1.3,21.62,46.22,1.9156,375.5887],
    [6508,1532800336,57.0595,-111.2765,962.1,574.1,270.9,2.8,1.4,22.31,45.78,1.9151,374.8349],
    [6509,1532800337,57.0596,-111.2775,961.9,573.9,270.8,2.7,1.4,21.57,46.49,1.9145,374.5028],
    [6510,1532800338,57.0596,-111.2786,961.9,574.6,270.5,2.8,1.5,21.08,46.37,1.9131,373.9689],
    [6511,1532800339,57.0596,-111.2796,962.0,575.0,270.2,2.9,1.5,21.43,46.4,1.9136,375.652],
    [6512,1532800340,57.0596,-111.2807,962.3,575.3,269.9,3.0,1.5,22.3,45.37,1.9151,375.425],
    [6513,1532800341,57.0596,-111.2817,962.8,576.8,269.5,3.3,1.4,21.89,45.15,1.9121,374.4199],
    [6514,1532800342,57.0596,-111.2827,963.4,577.4,269.3,3.6,1.2,21.72,45.24,1.9108,374.1034],
    [6515,1532800343,57.0596,-111.2837,964.3,578.3,269.1,4.0,1.1,21.11,44.5,1.9113,374.9236],
    [6516,1532800344,57.0596,-111.2848,965.5,580.5,268.5,4.5,1.4,21.55,44.01,1.9119,375.5482],
    [6517,1532800345,57.0596,-111.2858,966.5,581.5,268.4,5.0,1.2,21.6,43.83,1.9134,375.1527],
    [6518,1532800346,57.0596,-111.2868,967.4,582.4,268.5,5.6,1.0,21.58,43.33,1.9133,374.9497],
    [6519,1532800347,57.0596,-111.2878,968.0,584.0,268.2,6.2,1.3,21.55,43.49,1.9143,375.0341],
    [6520,1532800348,57.0596,-111.2888,968.5,585.5,268.5,6.5,1.2,22.04,42.33,1.9167,375.5378],
    [6521,1532800349,57.0596,-111.2898,968.6,586.6,268.8,6.7,1.3,21.94,43.23,1.9154,375.8701],
    [6522,1532800350,57.0596,-111.2908,968.5,587.5,268.9,6.5,1.5,21.3,43.85,1.9162,376.2341],
    [6523,1532800351,57.0596,-111.2918,968.1,588.1,269.3,5.9,1.4,21.41,44.69,1.916,375.9643],
    [6524,1532800352,57.0596,-111.2928,967.3,588.3,269.8,5.4,1.2,22.06,44.62,1.9155,375.9643],
    [6525,1532800353,57.0596,-111.2938,966.2,588.2,270.1,5.0,1.1,21.69,46.52,1.9147,375.8905],
    [6526,1532800354,57.0596,-111.2948,965.1,588.1,270.3,4.6,1.1,21.72,46.3,1.9143,376.5993],
    [6527,1532800355,57.0596,-111.2958,964.3,588.6,270.2,4.2,1.3,21.89,46.23,1.9143,375.4782],
    [6528,1532800356,57.0597,-111.2968,963.1,589.1,269.9,3.8,1.4,21.4,47.48,1.9165,376.6306],
    [6529,1532800357,57.0597,-111.2979,961.7,588.7,269.6,3.7,1.5,21.91,46.54,1.9146,375.0826],
    [6530,1532800358,57.0597,-111.2989,960.4,588.4,269.5,3.6,1.5,21.96,46.19,1.9136,374.99],
    [6531,1532800359,57.0597,-111.2999,959.3,588.3,269.4,3.8,1.5,21.43,46.21,1.9117,374.9754],
    [6532,1532800360,57.0597,-111.301,958.1,588.1,269.5,4.5,1.4,21.24,46.0,1.9141,375.5507],
    [6533,1532800361,57.0597,-111.302,957.2,588.2,269.9,5.1,1.1,22.38,44.65,1.914,376.0313],
    [6534,1532800362,57.0597,-111.303,957.2,588.2,270.0,5.7,1.2,21.97,44.31,1.9143,375.72],
    [6535,1532800363,57.0597,-111.304,958.4,589.4,270.1,6.5,1.1,21.72,45.56,1.9156,375.8505],
    [6536,1532800364,57.0597,-111.305,960.8,591.7,270.3,7.0,1.0,21.26,45.32,1.9146,376.0066],
    [6537,1532800365,57.0597,-111.306,963.3,595.4,270.1,7.5,1.0,22.14,45.29,1.9143,375.6415],
    [6538,1532800366,57.0597,-111.307,964.8,598.8,270.0,7.9,0.8,21.86,45.37,1.9138,374.4263],
    [6539,1532800367,57.0598,-111.308,965.4,599.4,269.7,8.6,0.9,21.49,45.29,1.9143,374.3781],
    [6540,1532800368,57.0598,-111.309,965.4,600.7,269.4,9.1,0.9,21.99,44.78,1.9153,375.4071],
    [6541,1532800369,57.0598,-111.31,965.2,601.2,269.3,9.1,0.9,22.03,45.16,1.9145,373.4955],
    [6542,1532800370,57.0598,-111.311,964.4,601.4,269.3,9.1,0.9,21.5,45.18,1.913,375.0043],
    [6543,1532800371,57.0598,-111.312,962.9,599.9,269.3,9.1,1.0,22.11,43.9,1.9144,375.8498],
    [6544,1532800372,57.0598,-111.313,960.5,597.5,269.5,9.3,1.0,21.82,44.39,1.9144,375.8498],
    [6545,1532800373,57.0598,-111.314,957.6,595.6,270.0,9.4,0.8,21.84,44.42,1.9141,375.6595],
    [6546,1532800374,57.0598,-111.315,954.7,592.7,270.4,9.3,0.6,21.98,44.12,1.9145,375.6307],
    [6547,1532800375,57.0598,-111.316,952.1,590.1,270.4,9.1,0.7,21.97,43.82,1.9148,377.3947],
    [6548,1532800376,57.0598,-111.317,950.1,588.1,270.2,8.8,0.9,21.26,44.7,1.9155,377.3947],
    [6549,1532800377,57.0598,-111.3181,948.3,586.3,270.0,8.6,1.0,21.78,45.55,1.9152,376.5786],
    [6550,1532800378,57.0598,-111.3191,946.3,584.3,269.8,8.3,1.1,21.97,45.73,1.9143,376.5479],
    [6551,1532800379,57.0598,-111.3201,944.0,582.0,269.7,8.1,1.1,22.0,45.93,1.9138,376.2734],
    [6552,1532800380,57.0598,-111.3212,940.8,578.8,269.5,7.8,1.1,21.73,46.11,1.9137,376.2239],
    [6553,1532800381,57.0598,-111.3222,937.3,576.3,269.3,7.4,1.2,22.05,45.84,1.9147,375.4745],
    [6554,1532800382,57.0598,-111.3233,933.6,572.6,269.1,7.2,1.4,22.46,45.66,1.914,375.734],
    [6555,1532800383,57.0598,-111.3243,930.2,570.2,268.8,7.0,1.4,21.87,46.2,1.914,375.4996],
    [6556,1532800384,57.0598,-111.3254,927.2,567.1,268.7,6.8,1.5,22.48,45.57,1.9137,376.1237],
    [6557,1532800385,57.0598,-111.3265,924.7,565.7,268.5,6.7,1.6,21.93,46.44,1.9144,375.0729],
    [6558,1532800386,57.0598,-111.3276,922.8,564.8,268.7,6.8,1.4,21.88,45.93,1.9131,375.0729],
    [6559,1532800387,57.0598,-111.3286,921.7,564.7,268.8,6.9,1.3,21.57,45.92,1.9123,377.141],
    [6560,1532800388,57.0598,-111.3297,920.7,564.7,269.1,6.7,1.0,21.53,46.17,1.9141,377.141],
    [6561,1532800389,57.0598,-111.3308,919.7,564.0,269.2,6.5,1.1,22.02,46.3,1.9207,377.1724],
    [6562,1532800390,57.0598,-111.3319,918.5,563.5,269.5,6.2,1.1,22.09,47.23,1.9243,378.5516],
    [6563,1532800391,57.0598,-111.3329,917.1,563.1,269.9,6.2,1.0,21.97,47.27,1.9228,379.1804],
    [6564,1532800392,57.0598,-111.334,915.3,561.3,270.3,6.3,0.9,21.82,47.7,1.9221,378.6417],
    [6565,1532800393,57.0599,-111.3351,913.1,559.1,270.8,6.1,0.8,22.66,47.41,1.9239,382.5643],
    [6566,1532800394,57.0599,-111.3362,910.4,556.4,271.4,5.7,0.6,22.62,47.33,1.9321,382.1662],
    [6567,1532800395,57.0599,-111.3372,907.4,553.4,271.8,5.7,0.6,22.42,47.7,1.9238,382.1404],
    [6568,1532800396,57.0599,-111.3383,904.7,550.7,272.3,5.6,0.5,21.81,48.27,1.9176,377.9241],
    [6569,1532800397,57.06,-111.3394,902.9,548.9,272.5,5.4,0.6,22.39,48.33,1.9139,376.3715],
    [6570,1532800398,57.06,-111.3405,901.6,547.6,272.4,5.2,0.7,22.45,48.48,1.9123,375.8806],
    [6571,1532800399,57.06,-111.3416,900.5,546.5,272.3,5.0,0.7,22.17,48.36,1.9117,375.5982],
    [6572,1532800400,57.0601,-111.3426,899.6,545.6,272.0,5.0,0.8,22.29,47.49,1.9121,376.0935],
    [6573,1532800401,57.0601,-111.3437,899.2,545.2,271.5,4.9,1.0,21.72,47.32,1.913,375.5951],
    [6574,1532800402,57.0601,-111.3448,898.7,545.7,270.6,4.9,1.7,21.78,46.93,1.9137,375.2228],
    [6575,1532800403,57.0601,-111.3458,898.2,545.2,270.1,4.7,2.2,21.65,47.26,1.9119,375.2228],
    [6576,1532800404,57.0601,-111.3469,897.8,545.4,270.2,4.5,2.1,21.82,46.86,1.9138,375.5479],
    [6577,1532800405,57.0602,-111.348,896.9,544.9,270.4,4.2,1.9,22.05,46.25,1.9138,375.0925],
    [6578,1532800406,57.0602,-111.349,895.8,543.8,270.2,3.9,2.1,21.65,46.12,1.9143,375.0925],
    [6579,1532800407,57.0602,-111.3501,894.6,543.6,269.9,3.7,2.6,21.98,46.21,1.9131,374.6264],
    [6580,1532800408,57.0602,-111.3512,893.6,542.6,269.8,3.6,2.6,22.39,45.44,1.9139,373.9492],
    [6581,1532800409,57.0603,-111.3522,893.5,542.5,270.3,3.4,1.8,22.43,45.32,1.9138,375.1407],
    [6582,1532800410,57.0603,-111.3533,894.1,544.1,270.4,3.2,1.4,22.02,45.04,1.9128,374.8322],
    [6583,1532800411,57.0603,-111.3544,894.9,544.9,270.4,3.1,1.0,21.85,44.63,1.9129,374.7407],
    [6584,1532800412,57.0603,-111.3555,895.6,546.6,270.3,3.2,0.8,22.01,44.29,1.9124,374.6165],
    [6585,1532800413,57.0603,-111.3565,896.5,547.5,270.0,3.5,0.9,22.44,43.63,1.9139,374.2164],
    [6586,1532800414,57.0603,-111.3576,897.4,548.4,269.9,3.8,0.8,22.22,43.96,1.9152,375.311],
    [6587,1532800415,57.0603,-111.3586,898.4,550.4,269.9,4.3,0.7,22.01,43.55,1.9151,375.311],
    [6588,1532800416,57.0603,-111.3597,899.4,551.4,269.8,4.8,0.8,22.06,44.1,1.9146,375.1934],
    [6589,1532800417,57.0603,-111.3607,900.3,552.3,269.7,5.3,0.9,22.16,43.78,1.9154,375.1505],
    [6590,1532800418,57.0603,-111.3617,901.2,554.2,269.7,5.9,1.0,21.62,44.4,1.9152,376.8004],
    [6591,1532800419,57.0603,-111.3628,901.7,554.7,269.8,6.3,1.1,22.6,44.32,1.9147,376.7815],
    [6592,1532800420,57.0604,-111.3638,902.0,555.0,269.8,6.1,1.4,21.75,45.07,1.9176,376.9676],
    [6593,1532800421,57.0604,-111.3649,902.1,556.1,270.0,5.7,1.6,22.4,46.07,1.9301,378.8848],
    [6594,1532800422,57.0604,-111.3659,902.3,556.3,270.3,4.9,1.7,22.48,45.85,1.9538,388.0621],
    [6595,1532800423,57.0604,-111.3669,902.5,556.5,270.7,4.3,1.8,22.13,47.34,1.9774,399.6302],
    [6596,1532800424,57.0604,-111.368,902.6,557.6,271.2,4.3,1.6,21.54,48.7,1.9873,395.8095],
    [6597,1532800425,57.0605,-111.369,902.3,557.3,271.4,3.3,1.7,22.22,49.93,1.9875,391.5964],
    [6598,1532800426,57.0605,-111.37,901.5,557.5,271.6,2.0,1.7,21.99,51.66,1.9838,387.6729],
    [6599,1532800427,57.0605,-111.3711,900.0,556.0,271.6,3.0,1.7,21.86,53.34,1.9842,387.4351],
    [6600,1532800428,57.0606,-111.3721,898.2,554.2,271.6,5.2,1.6,22.4,54.03,1.953,385.8378],
    [6601,1532800429,57.0606,-111.3731,896.0,553.0,271.7,5.4,1.6,21.9,55.65,1.9501,387.4432],
    [6602,1532800430,57.0606,-111.3742,893.7,550.7,271.9,4.9,1.4,22.2,54.55,2.0106,405.4034],
    [6603,1532800431,57.0606,-111.3752,891.3,547.8,272.1,4.7,1.3,21.74,54.73,2.084,416.3646],
    [6604,1532800432,57.0607,-111.3762,889.0,545.0,272.4,4.3,1.0,21.7,54.44,2.0314,399.5663],
    [6605,1532800433,57.0607,-111.3773,887.2,543.2,272.4,5.0,1.1,22.33,53.42,1.971,385.4153],
    [6606,1532800434,57.0608,-111.3783,885.5,542.0,272.4,5.3,1.4,21.71,54.26,1.9584,387.9103],
    [6607,1532800435,57.0608,-111.3793,883.7,540.7,272.0,4.4,2.4,21.38,54.47,1.9562,386.5359],
    [6608,1532800436,57.0608,-111.3804,882.3,539.3,271.5,4.6,3.3,21.83,53.56,1.9249,380.0112],
    [6609,1532800437,57.0609,-111.3814,880.6,538.6,272.6,4.5,2.2,21.31,53.11,1.919,378.1645],
    [6610,1532800438,57.0609,-111.3824,877.8,535.8,273.8,3.8,0.7,21.5,52.29,1.9142,375.716],
    [6611,1532800439,57.061,-111.3835,874.8,532.8,271.7,3.4,1.9,22.16,50.78,1.9135,375.9031],
    [6612,1532800440,57.061,-111.3845,872.0,531.0,267.8,2.8,3.6,21.45,50.36,1.9119,375.5563],
    [6613,1532800441,57.061,-111.3855,868.0,527.0,265.1,1.8,3.4,21.32,49.52,1.912,374.8032],
    [6614,1532800442,57.061,-111.3866,864.1,523.1,261.9,1.2,3.5,21.88,48.45,1.9105,374.8437],
    [6615,1532800443,57.0609,-111.3876,861.5,520.5,258.8,0.9,3.7,21.0,48.48,1.9127,375.4228],
    [6616,1532800444,57.0608,-111.3887,860.6,519.6,256.5,0.9,3.2,21.62,48.45,1.9103,375.4228],
    [6617,1532800445,57.0607,-111.3897,860.9,519.9,253.8,1.1,3.1,21.58,47.3,1.9104,375.1995],
    [6618,1532800446,57.0605,-111.3907,862.1,521.1,251.4,1.5,2.6,21.83,47.58,1.9111,375.4236],
    [6619,1532800447,57.0604,-111.3916,864.5,523.5,249.2,2.0,2.1,22.07,46.76,1.9137,375.4236],
    [6620,1532800448,57.0601,-111.3926,867.8,526.8,247.6,3.0,1.1,21.76,46.95,1.9137,374.9658],
    [6621,1532800449,57.0599,-111.3936,871.7,530.7,243.8,2.9,2.6,22.24,46.56,1.912,375.3196],
    [6622,1532800450,57.0597,-111.3944,874.7,533.7,242.5,3.8,1.7,21.64,46.71,1.9138,375.6019],
    [6623,1532800451,57.0594,-111.3953,877.0,536.0,241.7,4.6,0.9,22.27,45.92,1.9145,374.6069],
    [6624,1532800452,57.0591,-111.3962,878.8,537.8,239.1,4.5,1.8,22.05,46.31,1.9128,375.2247],
    [6625,1532800453,57.0589,-111.397,880.2,539.2,238.3,5.1,1.3,21.81,46.32,1.9122,376.1037],
    [6626,1532800454,57.0586,-111.3978,881.5,540.5,237.0,5.0,1.5,21.67,46.46,1.9114,376.3141],
    [6627,1532800455,57.0583,-111.3986,882.6,541.6,236.6,5.2,1.3,21.88,46.5,1.9118,376.3141],
    [6628,1532800456,57.058,-111.3994,883.2,542.2,237.2,5.7,0.6,22.64,45.9,1.9133,375.0224],
    [6629,1532800457,57.0576,-111.4002,883.6,542.6,236.5,5.6,1.0,22.02,46.76,1.9148,374.058],
    [6630,1532800458,57.0573,-111.4009,883.7,542.7,236.1,5.7,1.1,22.54,46.0,1.9151,375.492],
    [6631,1532800459,57.057,-111.4017,883.5,542.5,235.9,5.7,1.1,21.96,46.35,1.9133,374.8573],
    [6632,1532800460,57.0567,-111.4025,883.2,542.2,235.7,5.9,1.3,22.24,45.94,1.9136,375.4189],
    [6633,1532800461,57.0564,-111.4032,882.8,541.8,235.7,6.1,1.3,21.69,45.9,1.9143,375.6104],
    [6634,1532800462,57.0561,-111.404,882.5,541.5,235.5,6.1,1.6,21.95,45.93,1.9151,376.0558],
    [6635,1532800463,57.0558,-111.4048,882.4,541.4,235.4,6.2,1.6,21.46,46.23,1.9149,376.5512],
    [6636,1532800464,57.0555,-111.4055,882.4,541.4,235.4,6.5,1.7,21.85,46.47,1.916,376.9583],
    [6637,1532800465,57.0552,-111.4063,882.7,541.7,235.2,6.6,1.9,22.06,46.92,1.9161,376.7636],
    [6638,1532800466,57.0548,-111.4071,883.2,542.2,235.3,6.6,1.7,22.43,46.35,1.9162,377.1982],
    [6639,1532800467,57.0545,-111.4078,883.8,542.8,235.6,6.6,1.4,21.77,47.51,1.9167,377.0682],
    [6640,1532800468,57.0542,-111.4086,884.3,543.3,235.6,6.6,1.5,21.94,47.1,1.9189,377.9128],
    [6641,1532800469,57.0539,-111.4093,884.8,544.8,235.8,6.6,1.5,21.99,47.22,1.9182,377.5743],
    [6642,1532800470,57.0536,-111.4101,885.0,545.0,235.8,6.6,1.6,22.5,46.84,1.9207,376.8933],
    [6643,1532800471,57.0533,-111.4109,885.1,545.1,235.9,6.5,1.6,21.8,48.1,1.9244,376.9498],
    [6644,1532800472,57.053,-111.4116,885.0,545.0,236.0,6.4,1.5,22.01,47.88,1.923,377.3522],
    [6645,1532800473,57.0527,-111.4124,884.7,544.9,235.9,6.2,1.4,21.87,48.97,1.9235,377.4998],
    [6646,1532800474,57.0524,-111.4132,884.2,545.2,235.9,6.0,1.3,22.72,48.01,1.9212,377.4998],
    [6647,1532800475,57.0521,-111.4139,883.8,544.8,235.8,5.9,1.3,22.19,48.97,1.92,377.1576],
    [6648,1532800476,57.0518,-111.4147,883.4,544.4,235.7,5.8,1.4,21.44,48.64,1.9191,376.4866],
    [6649,1532800477,57.0515,-111.4155,883.1,544.1,235.5,5.7,1.6,22.21,48.4,1.9198,376.121],
    [6650,1532800478,57.0512,-111.4162,883.0,544.0,235.6,5.7,1.6,22.08,48.3,1.9221,377.6355],
    [6651,1532800479,57.0508,-111.417,883.1,545.1,235.4,5.6,1.8,22.04,48.28,1.9242,378.0145],
    [6652,1532800480,57.0505,-111.4177,883.5,545.5,235.2,5.5,1.9,21.6,48.53,1.9241,378.0745],
    [6653,1532800481,57.0502,-111.4185,883.9,545.9,235.3,5.8,2.0,21.74,49.39,1.9233,378.0395],
    [6654,1532800482,57.0499,-111.4193,884.3,546.3,235.2,5.9,2.1,21.46,49.15,1.9237,378.0395],
    [6655,1532800483,57.0496,-111.42,884.7,547.7,235.2,5.9,2.2,22.14,49.54,1.9221,377.2519],
    [6656,1532800484,57.0493,-111.4208,885.3,548.3,235.0,5.8,2.3,22.25,48.88,1.9196,377.2519],
    [6657,1532800485,57.049,-111.4215,885.8,548.8,234.7,5.7,2.6,22.22,48.83,1.9165,377.197],
    [6658,1532800486,57.0487,-111.4223,886.5,549.5,234.6,5.8,2.6,21.87,49.15,1.912,376.3245],
    [6659,1532800487,57.0484,-111.423,887.1,551.1,234.7,6.0,2.5,22.13,47.99,1.9112,375.4075],
    [6660,1532800488,57.0481,-111.4238,887.6,551.6,234.7,6.2,2.6,21.97,47.88,1.9116,376.5733],
    [6661,1532800489,57.0478,-111.4245,888.0,552.0,234.5,6.4,2.7,22.3,46.82,1.9124,375.1204],
    [6662,1532800490,57.0475,-111.4253,888.4,553.4,234.4,6.4,2.8,22.64,46.73,1.9126,377.09],
    [6663,1532800491,57.0472,-111.426,888.6,553.6,234.2,6.6,3.0,22.57,46.21,1.9121,376.66],
    [6664,1532800492,57.0469,-111.4268,888.8,553.8,234.3,6.7,3.1,22.09,46.34,1.9136,375.1262],
    [6665,1532800493,57.0466,-111.4275,888.9,554.9,234.2,6.7,3.3,21.6,46.31,1.913,375.1321],
    [6666,1532800494,57.0463,-111.4283,888.9,554.9,234.5,7.0,3.2,22.0,46.12,1.9122,374.9816],
    [6667,1532800495,57.046,-111.429,888.6,555.6,234.8,7.3,3.2,21.87,45.88,1.9138,375.6192],
    [6668,1532800496,57.0457,-111.4297,888.5,555.5,234.6,7.3,3.4,21.63,46.16,1.913,375.6192],
    [6669,1532800497,57.0454,-111.4305,888.5,556.5,234.6,7.3,3.4,22.09,45.71,1.9149,375.7074],
    [6670,1532800498,57.0451,-111.4312,888.4,557.4,234.6,7.4,3.2,22.06,46.35,1.9172,375.6563],
    [6671,1532800499,57.0448,-111.4319,887.9,556.9,234.8,7.3,2.9,21.58,45.84,1.9178,375.5497],
    [6672,1532800500,57.0444,-111.4327,887.3,557.3,235.1,7.1,2.4,21.73,45.97,1.916,375.0626],
    [6673,1532800501,57.0441,-111.4334,886.6,557.6,235.4,6.8,2.2,21.97,46.1,1.9138,374.6593],
    [6674,1532800502,57.0438,-111.4342,885.7,556.7,235.6,6.7,1.9,22.09,46.42,1.9144,374.7371],
    [6675,1532800503,57.0435,-111.4349,884.9,556.9,235.8,6.6,1.8,22.53,45.28,1.9136,374.0682],
    [6676,1532800504,57.0432,-111.4357,884.0,556.0,235.8,6.6,1.9,22.16,46.15,1.9132,374.3929],
    [6677,1532800505,57.0429,-111.4365,883.0,555.0,235.8,6.6,2.0,22.15,45.82,1.9144,377.9336],
    [6678,1532800506,57.0426,-111.4372,882.1,554.1,235.8,6.7,2.1,22.02,45.98,1.9165,375.9163],
    [6679,1532800507,57.0423,-111.438,881.3,553.3,235.8,6.6,2.1,22.15,45.88,1.9175,375.8692],
    [6680,1532800508,57.042,-111.4387,880.5,553.5,235.9,6.4,1.9,21.46,45.54,1.92,374.824],
    [6681,1532800509,57.0417,-111.4395,879.8,552.8,236.0,6.4,1.9,21.99,45.83,1.9262,377.2147],
    [6682,1532800510,57.0414,-111.4403,879.2,552.2,236.0,6.3,1.9,22.19,46.57,1.9267,377.7973],
    [6683,1532800511,57.0411,-111.4411,878.7,551.7,236.1,6.0,2.0,22.22,47.54,1.9296,377.4013],
    [6684,1532800512,57.0408,-111.4418,878.6,551.6,236.0,5.6,2.0,22.41,47.33,1.9329,378.444],
    [6685,1532800513,57.0405,-111.4426,878.7,551.7,236.3,5.4,1.8,22.16,48.94,1.934,377.634],
    [6686,1532800514,57.0402,-111.4434,878.8,551.8,236.6,5.4,1.5,22.15,48.94,1.934,377.634],
    [6687,1532800515,57.0399,-111.4441,878.6,552.3,237.0,5.5,1.3,22.67,49.37,1.9312,377.0844],
    [6688,1532800516,57.0396,-111.4449,878.2,552.2,237.0,5.4,1.4,22.13,50.56,1.9313,377.8556],
    [6689,1532800517,57.0393,-111.4457,877.7,551.7,236.8,5.4,1.6,22.09,50.37,1.9281,377.8556],
    [6690,1532800518,57.039,-111.4465,877.3,552.3,236.9,5.4,1.5,22.11,50.72,1.9237,377.3638],
    [6691,1532800519,57.0387,-111.4473,876.9,551.9,236.8,5.6,1.6,22.51,49.91,1.9279,378.0653],
    [6692,1532800520,57.0384,-111.448,876.6,552.6,236.4,5.7,2.1,21.45,49.9,1.9296,377.8081],
    [6693,1532800521,57.0381,-111.4488,876.5,552.5,236.3,6.0,2.3,22.32,49.61,1.9292,376.6945],
    [6694,1532800522,57.0378,-111.4496,876.6,553.6,236.2,6.1,2.5,22.08,50.08,1.929,377.2252],
    [6695,1532800523,57.0375,-111.4504,876.9,553.9,235.8,5.9,2.9,21.57,50.01,1.9311,378.7956],
    [6696,1532800524,57.0373,-111.4511,877.2,555.2,235.7,6.0,3.0,22.37,49.87,1.9391,381.752],
    [6697,1532800525,57.037,-111.4519,877.7,556.4,235.6,6.1,3.3,21.5,50.19,1.9409,380.488],
    [6698,1532800526,57.0367,-111.4527,878.3,557.3,235.2,6.2,3.8,21.78,50.99,1.9408,380.488],
    [6699,1532800527,57.0364,-111.4535,878.8,557.8,235.2,6.5,4.0,21.78,52.08,1.9437,381.2382],
    [6700,1532800528,57.036,-111.4543,879.3,559.2,235.2,6.6,3.9,21.86,51.74,1.9416,378.7957],
    [6701,1532800529,57.0358,-111.455,879.6,559.6,235.3,6.4,3.8,22.63,51.87,1.9434,378.6496],
    [6702,1532800530,57.0355,-111.4557,879.8,559.8,235.2,6.3,3.6,21.81,52.98,1.9434,378.7087],
    [6703,1532800531,57.0352,-111.4565,879.7,560.7,235.3,6.4,3.4,21.61,53.21,1.9427,377.7286],
    [6704,1532800532,57.0349,-111.4572,878.7,560.6,235.5,6.6,3.3,21.93,53.59,1.9436,379.0862],
    [6705,1532800533,57.0346,-111.458,877.0,560.0,234.9,6.5,3.8,22.46,53.25,1.9436,379.0488],
    [6706,1532800534,57.0343,-111.4588,874.7,558.7,234.6,6.6,4.2,22.22,53.44,1.9441,379.0488],
    [6707,1532800535,57.034,-111.4595,872.4,556.4,234.7,6.9,4.1,21.71,54.17,1.9445,379.2397],
    [6708,1532800536,57.0337,-111.4603,870.5,554.5,234.7,7.1,4.3,21.7,54.67,1.945,379.2545],
    [6709,1532800537,57.0334,-111.461,869.3,553.3,234.2,7.0,4.7,22.05,54.1,1.944,379.2545],
    [6710,1532800538,57.0331,-111.4618,868.3,553.0,234.2,7.1,4.6,21.29,54.48,1.9442,379.2508],
    [6711,1532800539,57.0328,-111.4625,867.6,553.3,233.8,7.0,4.7,21.56,54.39,1.9424,378.6897],
    [6712,1532800540,57.0325,-111.4633,867.0,554.2,233.3,6.9,5.1,21.36,54.89,1.9428,378.6897],
    [6713,1532800541,57.0322,-111.464,866.6,555.9,233.0,6.8,5.2,21.95,54.27,1.943,377.9555],
    [6714,1532800542,57.0319,-111.4648,866.2,558.8,232.8,6.8,5.1,21.6,54.21,1.945,378.6426],
    [6715,1532800543,57.0316,-111.4655,865.9,562.4,232.4,6.8,5.5,21.7,55.18,1.9445,378.0797],
    [6716,1532800544,57.0313,-111.4663,865.3,569.3,232.2,6.8,5.7,21.54,54.57,1.944,378.2443],
    [6717,1532800545,57.0309,-111.467,864.0,578.8,232.1,6.5,5.6,21.74,54.57,1.9432,379.7676],
    [6718,1532800546,57.0306,-111.4678,862.2,587.5,232.2,6.4,5.5,21.91,54.63,1.9419,378.4813],
    [6719,1532800547,57.0303,-111.4685,859.8,591.5,232.0,6.3,5.5,21.34,54.83,1.9398,376.9116],
    [6720,1532800548,57.03,-111.4693,857.2,594.0,231.9,6.2,5.5,21.54,54.92,1.9348,377.8074],
    [6721,1532800549,57.0297,-111.4701,854.5,592.6,231.7,6.2,5.5,21.77,54.52,1.9303,375.5957],
    [6722,1532800550,57.0293,-111.4708,852.0,590.7,231.8,6.1,5.3,21.86,53.46,1.9313,375.2693],
    [6723,1532800551,57.029,-111.4716,850.1,589.2,231.9,6.0,5.4,21.71,52.76,1.9345,377.261],
    [6724,1532800552,57.0287,-111.4724,848.8,587.8,231.9,6.0,5.5,21.35,52.33,1.9384,377.506],
    [6725,1532800553,57.0284,-111.4732,848.0,587.0,232.4,6.2,5.4,21.37,52.29,1.9386,377.1301],
    [6726,1532800554,57.028,-111.4739,847.4,587.4,233.0,6.6,5.2,21.37,52.46,1.9372,377.3105],
    [6727,1532800555,57.0277,-111.4747,846.9,588.4,233.0,6.6,5.6,21.64,52.39,1.938,377.3105],
    [6728,1532800556,57.0274,-111.4755,846.3,589.2,232.9,6.6,5.7,21.26,52.75,1.9377,377.497],
    [6729,1532800557,57.0271,-111.4763,845.6,591.6,233.1,7.0,5.6,21.66,52.4,1.932,376.436],
    [6730,1532800558,57.0268,-111.4771,845.0,594.1,232.8,7.1,5.8,22.03,52.04,1.9307,378.0467],
    [6731,1532800559,57.0264,-111.4779,844.5,596.2,232.8,7.1,5.7,22.14,51.68,1.931,377.4065],
    [6732,1532800560,57.0261,-111.4787,844.0,599.0,232.8,7.1,5.5,21.56,51.42,1.9301,375.7188],
    [6733,1532800561,57.0258,-111.4795,843.6,603.6,232.6,7.0,5.3,21.24,51.0,1.9291,376.8972],
    [6734,1532800562,57.0255,-111.4802,842.6,603.6,232.7,7.0,4.9,21.06,50.8,1.9321,377.3346],
    [6735,1532800563,57.0251,-111.481,840.7,602.7,233.0,6.9,4.4,21.58,50.83,1.9362,377.4732],
    [6736,1532800564,57.0248,-111.4818,838.2,600.2,232.8,6.3,4.3,21.56,51.29,1.9359,376.3085],
    [6737,1532800565,57.0245,-111.4826,835.5,598.5,233.0,6.0,3.9,21.86,51.58,1.934,376.07],
    [6738,1532800566,57.0241,-111.4834,832.9,594.9,232.8,5.6,4.1,21.87,51.57,1.9347,377.6272],
    [6739,1532800567,57.0238,-111.4842,830.5,592.5,233.0,5.4,4.0,21.29,51.2,1.9354,377.6021],
    [6740,1532800568,57.0235,-111.485,828.2,589.3,233.3,5.2,3.6,22.02,51.11,1.9394,377.386],
    [6741,1532800569,57.0231,-111.4858,826.1,587.1,233.4,4.7,3.3,21.5,51.2,1.9395,377.858],
    [6742,1532800570,57.0228,-111.4866,824.2,585.2,233.5,4.3,2.9,21.55,52.05,1.9404,377.4358],
    [6743,1532800571,57.0225,-111.4875,822.3,584.5,233.4,3.5,2.6,21.12,52.2,1.9412,376.7451],
    [6744,1532800572,57.0221,-111.4883,820.6,583.9,233.7,3.1,1.7,22.44,52.26,1.9395,378.1087],
    [6745,1532800573,57.0218,-111.4891,819.8,584.3,233.5,2.5,1.5,22.27,52.08,1.9373,377.4336],
    [6746,1532800574,57.0215,-111.4899,819.6,584.6,233.3,2.1,1.2,21.95,52.66,1.9393,377.195],
    [6747,1532800575,57.0211,-111.4908,819.3,584.3,233.5,1.8,0.7,22.65,52.09,1.9407,377.0949],
    [6748,1532800576,57.0208,-111.4916,818.9,583.1,233.1,1.2,0.8,21.96,53.4,1.9428,378.6],
    [6749,1532800577,57.0204,-111.4925,818.5,581.5,233.1,0.8,0.5,22.86,52.45,1.9436,376.7936],
    [6750,1532800578,57.0201,-111.4933,818.1,578.7,233.1,0.3,0.2,21.52,53.31,1.9423,377.4601],
    [6751,1532800579,57.0198,-111.4941,817.7,573.9,233.1,0.1,-0.1,22.05,53.46,1.9357,377.5283],
    [6752,1532800580,57.0194,-111.4949,817.1,563.6,233.4,0.0,-0.4,21.9,53.68,1.9381,375.7498],
    [6753,1532800581,57.0191,-111.4957,816.3,555.9,233.3,0.0,-0.3,22.66,53.14,1.9344,376.8056],
    [6754,1532800582,57.0188,-111.4965,816.3,549.0,233.2,0.0,-0.2,21.88,53.67,1.9299,376.5482],
    [6755,1532800583,57.0184,-111.4973,817.8,546.4,233.1,0.1,0.0,22.29,52.59,1.9279,375.2241],
    [6756,1532800584,57.0181,-111.4981,820.7,548.3,233.2,0.4,0.1,21.64,52.12,1.9268,375.2242],
    [6757,1532800585,57.0178,-111.4989,824.9,551.7,233.1,0.7,0.5,21.17,51.73,1.9246,375.2815],
    [6758,1532800586,57.0175,-111.4997,829.4,553.1,232.8,0.8,0.8,21.95,51.75,1.9274,375.2815],
    [6759,1532800587,57.0172,-111.5004,833.9,553.5,232.9,0.9,0.8,21.28,50.77,1.9279,376.1433],
    [6760,1532800588,57.0169,-111.5012,838.0,550.6,232.9,1.0,1.0,21.94,50.65,1.931,376.2793],
    [6761,1532800589,57.0165,-111.5019,841.7,547.4,233.0,1.2,1.3,22.11,50.45,1.935,377.2519],
    [6762,1532800590,57.0162,-111.5027,844.8,547.2,233.1,1.4,1.4,22.26,50.91,1.9357,377.7711],
    [6763,1532800591,57.0159,-111.5034,847.3,550.3,233.2,1.3,1.4,22.05,51.53,1.9394,377.7711],
    [6764,1532800592,57.0157,-111.5041,849.5,552.5,233.4,1.6,1.3,21.69,52.76,1.9406,377.5767],
    [6765,1532800593,57.0154,-111.5049,851.5,554.6,233.6,1.8,1.3,22.07,52.88,1.941,377.4063],
    [6766,1532800594,57.0151,-111.5056,853.7,556.7,233.3,1.8,1.6,22.3,53.53,1.9422,378.0497],
    [6767,1532800595,57.0148,-111.5063,856.3,559.2,232.8,2.0,1.9,21.36,53.95,1.9436,378.0497],
    [6768,1532800596,57.0145,-111.5071,858.8,561.8,233.2,2.5,1.7,22.07,54.33,1.9433,377.9665],
    [6769,1532800597,57.0142,-111.5078,861.4,564.4,233.1,2.8,1.9,21.96,54.67,1.9395,378.8534],
    [6770,1532800598,57.0139,-111.5085,864.3,567.3,232.5,3.2,2.6,21.78,55.13,1.9378,377.0924],
    [6771,1532800599,57.0136,-111.5092,867.5,570.5,232.9,4.1,2.5,21.41,55.33,1.9392,377.4684],
    [6772,1532800600,57.0133,-111.5098,871.0,574.0,232.8,4.5,3.0,21.9,54.63,1.9401,376.8192],
    [6773,1532800601,57.013,-111.5105,874.6,577.6,232.1,4.4,3.8,21.28,55.26,1.9401,378.2027],
    [6774,1532800602,57.0127,-111.5112,877.7,580.7,232.5,4.6,3.6,21.7,55.2,1.9406,377.8987],
    [6775,1532800603,57.0125,-111.5119,880.6,583.6,232.3,4.5,4.3,22.28,54.68,1.9421,377.931],
    [6776,1532800604,57.0122,-111.5126,883.4,586.4,232.5,4.9,4.8,21.62,55.63,1.943,376.499],
    [6777,1532800605,57.0119,-111.5133,885.6,588.6,233.4,5.5,4.7,21.54,55.81,1.9433,378.5351],
    [6778,1532800606,57.0116,-111.514,887.3,587.2,233.2,5.6,5.4,21.47,56.55,1.9432,378.5697],
    [6779,1532800607,57.0114,-111.5147,889.0,578.0,233.3,5.8,5.7,21.85,56.79,1.9428,377.5091],
    [6780,1532800608,57.0111,-111.5154,890.7,574.0,233.6,6.2,5.9,21.3,56.3,1.9421,378.968],
    [6781,1532800609,57.0108,-111.516,892.4,574.4,233.8,6.7,6.3,21.59,56.75,1.9403,377.7353],
    [6782,1532800610,57.0106,-111.5167,893.6,574.6,233.8,7.0,6.7,21.55,56.47,1.9396,377.3749],
    [6783,1532800611,57.0103,-111.5174,893.7,574.7,233.7,7.2,6.8,21.66,56.02,1.9373,376.5571],
    [6784,1532800612,57.01,-111.5181,892.8,573.8,234.0,7.5,6.5,21.54,55.65,1.9381,377.3425],
    [6785,1532800613,57.0098,-111.5188,891.7,572.7,233.6,7.1,6.6,21.34,55.72,1.939,377.1405],
    [6786,1532800614,57.0095,-111.5195,891.0,572.0,232.6,6.6,7.1,21.5,55.44,1.9366,377.1405],
    [6787,1532800615,57.0092,-111.5202,890.7,571.7,232.5,6.8,6.9,20.83,55.06,1.9355,376.8865],
    [6788,1532800616,57.009,-111.5209,890.7,571.5,232.4,6.7,6.6,21.62,54.2,1.9344,375.8431],
    [6789,1532800617,57.0087,-111.5215,890.5,570.4,232.1,6.5,6.6,21.1,54.52,1.9373,375.7928],
    [6790,1532800618,57.0084,-111.5222,889.6,570.2,232.3,6.6,6.3,21.38,54.37,1.9395,376.0391],
    [6791,1532800619,57.0081,-111.5229,888.7,569.7,232.5,6.6,6.1,21.7,54.5,1.938,376.1133],
    [6792,1532800620,57.0078,-111.5236,888.3,569.3,232.4,6.4,6.0,21.8,54.59,1.9409,376.172],
    [6793,1532800621,57.0076,-111.5243,888.1,569.1,232.3,6.1,5.9,21.57,55.15,1.9427,377.8457],
    [6794,1532800622,57.0073,-111.525,887.7,569.4,232.3,5.8,5.7,21.86,54.63,1.9444,376.8722],
    [6795,1532800623,57.007,-111.5257,887.1,569.1,232.1,5.5,5.5,21.28,55.3,1.9453,376.7388],
    [6796,1532800624,57.0067,-111.5264,886.6,568.6,232.5,5.5,5.0,22.02,55.64,1.9452,377.1423],
    [6797,1532800625,57.0064,-111.5272,886.0,568.0,232.3,5.2,5.0,21.41,56.01,1.9444,377.037],
    [6798,1532800626,57.0061,-111.5278,886.0,567.9,232.0,5.0,5.2,20.91,56.65,1.9436,376.4688],
    [6799,1532800627,57.0058,-111.5286,886.5,567.4,232.0,4.9,4.9,21.8,56.24,1.9462,377.761],
    [6800,1532800628,57.0055,-111.5293,887.1,567.9,232.0,4.7,4.5,21.3,56.51,1.9462,377.8911],
    [6801,1532800629,57.0052,-111.53,887.8,567.7,231.9,4.9,4.6,21.25,56.56,1.9478,377.5835],
    [6802,1532800630,57.0049,-111.5307,888.3,568.3,232.2,5.3,4.7,22.23,56.43,1.9446,377.6443],
    [6803,1532800631,57.0046,-111.5314,888.4,568.5,232.4,5.7,4.8,21.56,57.14,1.9365,376.8734],
    [6804,1532800632,57.0043,-111.5322,888.3,568.5,232.4,5.7,4.8,22.16,56.26,1.9342,376.39],
    [6805,1532800633,57.004,-111.5329,888.0,568.2,232.1,5.3,4.8,20.77,56.4,1.94,376.4959],
    [6806,1532800634,57.0037,-111.5336,887.8,567.9,231.0,4.1,4.9,21.13,55.6,1.9412,376.1688],
    [6807,1532800635,57.0034,-111.5343,887.8,568.8,230.7,3.5,4.5,21.49,56.08,1.9441,377.2435],
    [6808,1532800636,57.0031,-111.535,887.6,569.3,231.0,3.0,3.7,21.34,55.97,1.945,375.703],
    [6809,1532800637,57.0028,-111.5358,887.8,569.4,231.2,2.7,3.1,20.95,56.29,1.9469,375.7495],
    [6810,1532800638,57.0025,-111.5365,888.2,569.9,231.7,3.1,3.0,21.88,56.29,1.9504,377.4632],
    [6811,1532800639,57.0022,-111.5372,888.5,569.8,232.2,3.0,2.8,20.75,57.08,1.9496,377.4632],
    [6812,1532800640,57.0019,-111.538,888.9,568.2,232.8,2.7,2.7,21.45,57.56,1.949,378.0197],
    [6813,1532800641,57.0016,-111.5387,889.2,567.7,233.5,2.3,2.8,21.53,58.43,1.9494,377.859],
    [6814,1532800642,57.0013,-111.5395,890.0,568.2,234.1,1.8,2.8,21.67,58.32,1.9483,377.998],
    [6815,1532800643,57.001,-111.5402,890.8,568.6,235.8,2.2,1.9,21.52,58.4,1.9501,376.4304],
    [6816,1532800644,57.0007,-111.541,891.4,568.6,236.6,1.9,1.6,21.8,58.47,1.9531,376.7238],
    [6817,1532800645,57.0005,-111.5418,892.3,569.1,236.7,1.4,2.0,20.81,58.94,1.955,376.5232],
    [6818,1532800646,57.0002,-111.5425,893.5,569.5,237.1,1.5,2.2,21.73,59.1,1.9549,378.2568],
    [6819,1532800647,56.9999,-111.5433,895.0,570.5,237.2,2.0,2.4,21.44,59.37,1.9506,378.5093],
    [6820,1532800648,56.9997,-111.5441,896.7,571.7,237.9,2.9,2.1,21.82,59.05,1.9446,376.9152],
    [6821,1532800649,56.9994,-111.5449,898.1,573.3,237.4,2.8,2.4,21.23,59.42,1.9412,376.9152],
    [6822,1532800650,56.9991,-111.5457,900.4,575.9,236.5,2.7,3.1,20.85,58.98,1.9451,377.0034],
    [6823,1532800651,56.9989,-111.5464,902.6,577.2,235.2,2.4,3.9,21.34,58.99,1.9458,377.8101],
    [6824,1532800652,56.9986,-111.5472,904.6,579.1,235.1,2.5,3.5,21.57,58.38,1.9476,377.8101],
    [6825,1532800653,56.9983,-111.5479,906.2,580.7,235.0,2.9,3.1,21.31,59.03,1.948,376.1075],
    [6826,1532800654,56.9981,-111.5487,908.0,582.0,233.8,2.7,3.5,21.24,58.87,1.9463,376.4832],
    [6827,1532800655,56.9978,-111.5494,909.8,584.7,232.9,2.4,3.6,21.94,57.95,1.9484,377.493],
    [6828,1532800656,56.9975,-111.5502,911.6,586.4,233.1,3.2,3.4,21.45,58.83,1.9475,377.493],
    [6829,1532800657,56.9972,-111.5509,913.2,588.0,233.0,4.0,3.4,21.81,58.51,1.9474,376.6709],
    [6830,1532800658,56.9969,-111.5516,914.8,589.7,232.0,4.2,3.1,21.44,58.47,1.9479,377.9045],
    [6831,1532800659,56.9966,-111.5523,915.8,590.7,229.9,4.2,3.0,21.67,58.64,1.9495,377.506],
    [6832,1532800660,56.9963,-111.5529,916.5,591.5,226.2,3.8,3.6,21.13,59.23,1.9478,377.506],
    [6833,1532800661,56.9959,-111.5536,917.7,592.6,222.3,3.9,4.9,20.42,59.33,1.9474,376.8941],
    [6834,1532800662,56.9955,-111.5542,918.9,594.0,219.2,4.2,5.7,20.91,59.12,1.946,376.7223],
    [6835,1532800663,56.9951,-111.5548,920.0,594.1,216.5,4.2,5.8,21.07,59.14,1.947,377.5257],
    [6836,1532800664,56.9947,-111.5553,920.7,595.7,213.4,3.6,6.2,21.15,59.16,1.9472,377.0555],
    [6837,1532800665,56.9943,-111.5557,920.9,596.5,210.8,3.2,5.9,21.26,58.94,1.9464,377.9088],
    [6838,1532800666,56.9939,-111.5562,920.9,597.9,208.7,3.3,5.6,21.19,59.63,1.9466,376.7313],
    [6839,1532800667,56.9934,-111.5566,920.8,598.8,206.0,3.2,6.1,21.55,58.35,1.9461,377.4485],
    [6840,1532800668,56.993,-111.557,920.4,599.4,203.7,3.3,5.9,21.28,58.67,1.9453,377.2206],
    [6841,1532800669,56.9925,-111.5573,919.9,598.9,200.9,2.5,5.3,21.37,58.48,1.949,376.0573],
    [6842,1532800670,56.9921,-111.5576,919.7,599.7,197.9,1.9,5.2,20.94,58.99,1.9479,377.1506],
    [6843,1532800671,56.9916,-111.5579,919.7,599.7,196.3,2.6,5.5,20.94,59.02,1.9478,376.9082],
    [6844,1532800672,56.9911,-111.5581,919.9,599.9,194.1,2.3,6.8,21.32,58.73,1.949,376.3524],
    [6845,1532800673,56.9906,-111.5583,919.9,599.9,191.6,1.4,7.8,21.44,58.93,1.9493,376.3093],
    [6846,1532800674,56.9901,-111.5585,919.3,599.3,191.0,1.9,7.8,21.3,59.02,1.9483,377.0977],
    [6847,1532800675,56.9896,-111.5586,918.2,598.2,190.9,2.9,7.2,21.14,59.39,1.9504,377.2586],
    [6848,1532800676,56.9891,-111.5588,917.0,598.0,191.3,4.0,6.1,21.2,59.3,1.9485,376.4733],
    [6849,1532800677,56.9886,-111.5589,916.0,598.1,189.5,3.4,6.2,20.78,59.35,1.9488,377.6084],
    [6850,1532800678,56.988,-111.559,916.0,599.0,187.7,3.1,6.0,20.91,59.88,1.9487,376.4876],
    [6851,1532800679,56.9875,-111.5591,916.0,600.7,186.4,3.2,5.4,21.8,58.81,1.9483,376.0529],
    [6852,1532800680,56.9869,-111.5592,916.3,601.6,184.7,2.6,5.2,20.79,59.43,1.9476,377.1743],
    [6853,1532800681,56.9864,-111.5592,916.6,604.2,183.3,2.2,5.4,21.04,58.97,1.9471,377.4822],
    [6854,1532800682,56.9859,-111.5592,915.8,605.9,182.4,2.4,5.3,21.08,59.03,1.9465,376.7902],
    [6855,1532800683,56.9854,-111.5592,914.0,605.0,180.9,1.8,4.6,21.15,58.55,1.9463,376.2605],
    [6856,1532800684,56.9848,-111.5592,911.9,602.9,179.6,1.4,4.0,20.95,58.62,1.9467,377.0595],
    [6857,1532800685,56.9843,-111.5591,909.2,600.2,179.5,1.9,4.3,21.6,58.19,1.9475,376.3041],
    [6858,1532800686,56.9838,-111.5591,905.8,596.8,179.4,2.2,4.5,21.23,58.47,1.9484,376.3041],
    [6859,1532800687,56.9832,-111.5591,902.4,593.4,179.4,2.4,4.6,22.05,57.87,1.9492,375.8114],
    [6860,1532800688,56.9826,-111.559,899.3,590.3,179.8,2.0,3.9,20.95,58.44,1.9478,376.1],
    [6861,1532800689,56.9821,-111.559,897.6,588.6,181.0,2.3,3.2,21.35,58.26,1.9484,375.8802],
    [6862,1532800690,56.9815,-111.559,897.5,588.5,182.5,3.1,2.9,21.45,58.25,1.9465,376.0769],
    [6863,1532800691,56.981,-111.559,896.6,585.0,183.0,3.3,2.7,20.83,58.76,1.9459,375.6761],
    [6864,1532800692,56.9804,-111.559,894.6,580.5,184.2,4.0,2.6,21.06,58.49,1.9475,376.2374],
    [6865,1532800693,56.9799,-111.559,893.2,576.6,184.6,3.8,2.6,20.82,58.11,1.9462,376.3512],
    [6866,1532800694,56.9793,-111.559,892.4,573.1,183.9,2.9,2.4,20.96,57.97,1.946,376.3498],
    [6867,1532800695,56.9788,-111.559,891.4,569.4,182.9,2.0,2.4,21.34,58.1,1.9439,375.6082],
    [6868,1532800696,56.9782,-111.5591,889.9,566.9,182.6,2.0,2.1,21.36,58.13,1.9465,376.8781],
    [6869,1532800697,56.9776,-111.5591,888.7,564.7,182.8,2.5,2.8,21.24,57.85,1.9459,377.0182],
    [6870,1532800698,56.9771,-111.5591,887.0,563.0,183.1,2.8,3.7,20.93,57.74,1.9449,377.1382],
    [6871,1532800699,56.9765,-111.5591,885.1,561.1,182.4,2.2,3.6,21.77,57.58,1.9447,376.884],
    [6872,1532800700,56.976,-111.5591,884.4,559.5,182.1,2.1,3.8,21.29,57.78,1.9444,376.2202],
    [6873,1532800701,56.9754,-111.5591,884.7,560.0,182.9,3.1,4.1,20.91,57.26,1.9437,375.1897],
    [6874,1532800702,56.9748,-111.5591,884.5,560.5,182.8,2.8,4.2,20.95,57.09,1.943,376.0836],
    [6875,1532800703,56.9743,-111.5591,883.5,559.5,182.8,3.1,4.4,21.45,56.88,1.9399,375.9047],
    [6876,1532800704,56.9737,-111.5591,883.3,559.3,184.0,4.2,4.6,20.74,56.89,1.9395,375.4158],
    [6877,1532800705,56.9732,-111.5591,883.3,559.3,183.3,3.3,4.6,21.74,55.76,1.9409,376.5019],
    [6878,1532800706,56.9726,-111.5591,883.4,559.4,182.2,2.7,4.6,21.45,56.58,1.9444,377.0153],
    [6879,1532800707,56.972,-111.5591,883.2,559.1,181.9,2.9,4.4,21.18,56.23,1.9444,376.7665],
    [6880,1532800708,56.9715,-111.5591,882.2,559.2,181.8,3.2,4.1,21.53,55.61,1.9438,376.4182],
    [6881,1532800709,56.9709,-111.5591,880.7,558.9,181.3,2.7,3.9,20.96,56.12,1.9436,376.9819],
    [6882,1532800710,56.9704,-111.5591,878.3,558.4,180.9,2.4,3.5,21.06,56.32,1.9431,376.228],
    [6883,1532800711,56.9698,-111.559,875.7,557.4,181.7,2.8,2.7,21.6,56.54,1.9444,376.827],
    [6884,1532800712,56.9692,-111.559,873.5,557.0,182.1,2.5,2.1,21.46,56.47,1.9435,375.9403],
    [6885,1532800713,56.9686,-111.559,871.8,556.8,182.8,2.6,1.7,21.5,56.82,1.9441,375.3318],
    [6886,1532800714,56.9681,-111.5591,870.1,556.1,183.9,3.1,1.5,21.77,55.93,1.941,375.4406],
    [6887,1532800715,56.9675,-111.5591,868.8,556.0,183.8,2.8,1.3,21.46,57.12,1.9423,375.6169],
    [6888,1532800716,56.9669,-111.5591,868.0,554.0,183.6,2.5,1.2,20.78,56.32,1.9407,375.8893],
    [6889,1532800717,56.9664,-111.5591,866.7,552.7,183.8,2.7,1.0,21.53,56.49,1.9405,375.016],
    [6890,1532800718,56.9658,-111.5592,865.1,550.1,184.3,3.2,0.9,20.78,55.97,1.9411,376.1415],
    [6891,1532800719,56.9652,-111.5592,865.0,549.1,183.3,1.9,1.5,21.57,56.17,1.9423,375.771],
    [6892,1532800720,56.9646,-111.5592,865.3,549.3,182.8,1.5,1.7,22.46,55.41,1.9427,374.9231],
    [6893,1532800721,56.964,-111.5593,865.3,548.3,183.6,2.4,1.8,21.44,55.54,1.9426,375.9099],
    [6894,1532800722,56.9634,-111.5593,865.0,547.0,183.1,2.0,2.4,21.95,55.33,1.9429,376.0251],
    [6895,1532800723,56.9628,-111.5593,864.1,546.1,183.0,2.1,2.6,21.12,56.37,1.9454,375.6562],
    [6896,1532800724,56.9623,-111.5593,863.5,545.5,183.2,2.6,2.3,21.59,56.49,1.9459,376.1712],
    [6897,1532800725,56.9617,-111.5593,863.3,545.3,182.9,2.5,1.9,21.48,56.59,1.9448,375.9314],
    [6898,1532800726,56.9611,-111.5594,863.5,545.5,183.3,3.1,2.0,21.58,56.48,1.9454,376.1072],
    [6899,1532800727,56.9606,-111.5594,863.8,545.0,183.4,3.1,2.2,21.51,56.42,1.9458,376.3113],
    [6900,1532800728,56.96,-111.5594,864.1,545.0,183.4,3.0,2.6,21.66,57.02,1.9467,376.2019],
    [6901,1532800729,56.9594,-111.5594,863.9,546.2,184.1,3.3,3.3,21.24,56.95,1.9474,375.9549],
    [6902,1532800730,56.9589,-111.5594,863.5,546.5,184.2,3.3,3.5,21.67,56.93,1.9472,375.4058],
    [6903,1532800731,56.9583,-111.5595,862.7,546.8,185.1,4.2,3.0,21.26,56.82,1.9477,375.4058],
    [6904,1532800732,56.9577,-111.5595,861.8,544.9,184.8,3.7,2.9,21.84,56.47,1.9453,375.1569],
    [6905,1532800733,56.9572,-111.5595,860.6,542.6,184.5,3.7,2.8,21.64,56.77,1.9461,374.8988],
    [6906,1532800734,56.9566,-111.5595,858.9,539.2,185.1,4.0,2.2,21.77,56.19,1.9428,376.922],
    [6907,1532800735,56.9561,-111.5596,856.8,536.8,185.1,3.7,2.0,21.2,56.18,1.9421,375.469],
    [6908,1532800736,56.9555,-111.5596,854.4,534.4,185.5,3.9,2.1,21.53,56.03,1.9433,375.9027],
    [6909,1532800737,56.9549,-111.5597,852.0,531.0,184.5,2.4,2.3,21.36,56.21,1.9428,376.2638],
    [6910,1532800738,56.9544,-111.5597,848.8,527.8,184.5,2.6,2.1,22.07,55.55,1.9432,375.9469],
    [6911,1532800739,56.9538,-111.5597,846.3,525.3,185.0,3.0,2.0,21.77,55.91,1.9436,375.8671],
    [6912,1532800740,56.9532,-111.5598,844.8,523.8,184.5,2.7,2.0,21.65,56.07,1.941,374.3792],
    [6913,1532800741,56.9526,-111.5598,842.5,521.5,184.4,2.7,2.2,21.07,55.63,1.9399,375.3644],
    [6914,1532800742,56.9521,-111.5599,839.8,519.9,184.0,2.5,2.5,21.87,55.73,1.9417,375.812],
    [6915,1532800743,56.9515,-111.5599,837.1,517.1,184.1,2.8,1.8,21.91,55.41,1.9447,374.654],
    [6916,1532800744,56.9509,-111.5599,835.3,515.4,182.8,1.5,2.2,21.65,56.05,1.9429,375.7728],
    [6917,1532800745,56.9503,-111.56,834.9,515.9,182.3,1.3,2.8,21.45,55.43,1.9439,374.8795],
    [6918,1532800746,56.9497,-111.56,834.6,515.4,182.4,1.9,2.8,21.9,55.65,1.944,374.8795],
    [6919,1532800747,56.9491,-111.56,834.3,516.2,183.9,4.3,3.0,21.93,55.94,1.9447,375.2403],
    [6920,1532800748,56.9486,-111.56,834.0,517.0,184.4,4.9,3.1,22.13,55.65,1.9435,375.1156],
    [6921,1532800749,56.948,-111.56,833.9,516.9,182.3,2.3,3.4,22.49,55.45,1.9443,373.4237],
    [6922,1532800750,56.9474,-111.56,833.7,517.7,181.7,2.0,3.9,21.93,56.47,1.9445,372.884],
    [6923,1532800751,56.9468,-111.56,832.7,516.7,183.4,3.6,4.2,21.79,56.1,1.9452,375.0804],
    [6924,1532800752,56.9463,-111.56,830.9,514.9,183.2,3.1,5.4,21.78,56.02,1.9444,374.8028],
    [6925,1532800753,56.9457,-111.56,828.0,512.4,183.2,3.2,5.5,21.72,55.91,1.9424,376.0932],
    [6926,1532800754,56.9451,-111.56,825.2,510.2,184.2,4.1,3.5,22.23,55.19,1.9412,376.0932],
    [6927,1532800755,56.9445,-111.5601,822.7,507.7,183.9,3.3,1.6,22.33,55.41,1.9422,375.058],
    [6928,1532800756,56.944,-111.5601,820.5,505.5,183.9,3.5,1.6,21.58,54.68,1.9412,374.0932],
    [6929,1532800757,56.9434,-111.5601,818.3,503.3,183.5,3.0,1.3,22.02,54.73,1.9422,374.8556],
    [6930,1532800758,56.9428,-111.5601,815.4,500.4,181.8,1.6,0.9,22.19,54.82,1.9397,375.6588],
    [6931,1532800759,56.9422,-111.5601,812.4,497.4,181.8,1.9,1.0,21.62,54.16,1.9371,375.4766],
    [6932,1532800760,56.9416,-111.5601,810.2,495.2,182.8,2.9,0.4,22.05,53.91,1.936,374.987],
    [6933,1532800761,56.9411,-111.5601,808.3,493.3,182.8,2.8,-0.1,22.17,53.73,1.9358,375.0393],
    [6934,1532800762,56.9405,-111.5601,806.1,491.1,182.6,2.4,0.0,21.86,53.05,1.9345,374.4588],
    [6935,1532800763,56.9399,-111.5601,802.6,487.6,182.1,1.7,-0.4,22.0,52.75,1.9349,374.6009],
    [6936,1532800764,56.9393,-111.5601,799.5,484.5,181.9,1.5,-0.7,21.64,52.58,1.9357,374.7943],
    [6937,1532800765,56.9387,-111.5602,797.5,482.5,182.1,1.8,-1.1,22.54,51.98,1.937,374.5709],
    [6938,1532800766,56.9381,-111.5602,796.8,480.8,183.0,2.7,-1.4,22.42,52.85,1.9359,374.5709],
    [6939,1532800767,56.9375,-111.5602,798.4,482.4,182.7,2.1,-1.0,22.79,52.36,1.9355,375.3841],
    [6940,1532800768,56.9369,-111.5602,800.0,484.0,182.8,2.1,-1.2,23.11,51.91,1.9344,375.0801],
    [6941,1532800769,56.9364,-111.5602,801.4,485.4,182.9,2.3,-1.5,22.41,52.5,1.9334,375.3946],
    [6942,1532800770,56.9358,-111.5602,801.6,484.9,182.2,1.7,-1.1,22.53,51.44,1.9332,375.9212],
    [6943,1532800771,56.9352,-111.5602,800.8,483.8,182.9,2.7,-1.5,22.22,51.61,1.9367,375.2685],
    [6944,1532800772,56.9346,-111.5603,799.9,482.9,183.8,3.5,-1.3,21.74,51.77,1.9391,373.5635],
    [6945,1532800773,56.9341,-111.5603,798.7,481.2,183.3,3.2,-0.5,22.23,51.79,1.9406,376.1362],
    [6946,1532800774,56.9335,-111.5603,797.4,479.3,182.8,3.0,0.1,22.26,52.13,1.942,375.812],
    [6947,1532800775,56.9329,-111.5603,796.1,478.2,182.0,2.6,-0.1,22.06,52.39,1.9429,375.0532],
    [6948,1532800776,56.9324,-111.5602,794.4,475.4,182.0,3.3,-0.9,22.58,53.54,1.9449,375.0532],
    [6949,1532800777,56.9318,-111.5602,792.5,473.4,182.6,4.4,-1.1,22.5,53.74,1.946,375.4999],
    [6950,1532800778,56.9313,-111.5602,791.1,471.1,181.5,3.9,-0.7,22.51,53.82,1.9473,375.5775],
    [6951,1532800779,56.9307,-111.5602,789.9,469.9,182.0,4.8,-0.4,22.54,54.83,1.9469,375.6886],
    [6952,1532800780,56.9301,-111.5601,789.3,468.5,181.8,4.4,0.1,22.47,54.98,1.9465,374.7386],
    [6953,1532800781,56.9296,-111.5601,789.2,468.2,181.6,4.1,0.6,22.56,55.3,1.9471,374.7386],
    [6954,1532800782,56.929,-111.56,789.2,468.2,182.3,4.7,0.5,23.04,54.13,1.9474,375.7446],
    [6955,1532800783,56.9285,-111.56,788.4,467.2,182.9,4.7,-0.1,22.82,54.65,1.9458,375.7826],
    [6956,1532800784,56.9279,-111.56,787.1,465.8,183.1,4.3,-0.3,22.26,55.45,1.9447,375.0408],
    [6957,1532800785,56.9274,-111.56,785.2,463.2,184.5,5.0,-0.6,22.29,54.9,1.9439,375.5142],
    [6958,1532800786,56.9269,-111.56,782.9,460.9,185.0,4.9,-1.1,22.48,55.12,1.9395,374.8905],
    [6959,1532800787,56.9263,-111.56,780.6,458.5,184.1,3.8,-1.3,22.37,54.06,1.937,374.4092],
    [6960,1532800788,56.9258,-111.56,779.1,457.8,183.3,2.9,-1.7,23.11,53.76,1.9361,375.2784],
    [6961,1532800789,56.9252,-111.56,779.0,458.0,183.4,3.0,-1.6,22.81,53.56,1.9374,374.9755],
    [6962,1532800790,56.9247,-111.56,779.3,458.3,182.5,2.4,-1.0,22.17,53.18,1.9366,375.9511],
    [6963,1532800791,56.9242,-111.56,780.3,459.2,180.9,1.1,-0.4,22.15,52.97,1.938,374.878],
    [6964,1532800792,56.9236,-111.56,781.0,458.9,179.9,0.6,0.1,22.36,52.6,1.9401,376.3768],
    [6965,1532800793,56.9231,-111.56,781.0,458.3,180.6,1.5,0.5,21.95,52.86,1.9391,375.0007],
    [6966,1532800794,56.9226,-111.56,780.5,456.5,181.0,1.7,1.2,22.48,53.69,1.9394,374.486],
    [6967,1532800795,56.922,-111.56,780.2,455.2,180.6,1.3,1.7,22.3,53.07,1.9405,374.625],
    [6968,1532800796,56.9215,-111.5599,780.6,454.8,180.6,0.9,2.0,22.96,52.56,1.9427,374.7228],
    [6969,1532800797,56.921,-111.5599,780.4,454.4,180.1,0.4,2.8,22.66,53.03,1.9429,374.4384],
    [6970,1532800798,56.9205,-111.5599,779.3,453.3,181.7,2.0,3.4,22.34,53.33,1.9421,374.7969],
    [6971,1532800799,56.92,-111.5599,777.8,451.8,182.9,2.8,3.4,22.57,53.42,1.9414,371.8849],
    [6972,1532800800,56.9195,-111.5599,775.9,448.9,182.5,2.1,3.4,22.46,53.1,1.9403,372.3447],
    [6973,1532800801,56.9189,-111.5599,774.1,447.2,182.6,2.4,3.6,22.23,53.3,1.9391,374.0499],
    [6974,1532800802,56.9184,-111.56,772.8,444.8,183.9,3.7,2.9,22.91,53.0,1.9408,374.0497],
    [6975,1532800803,56.9179,-111.56,771.5,443.5,183.9,3.5,3.0,22.78,52.73,1.9414,373.8734],
    [6976,1532800804,56.9174,-111.56,770.1,442.1,183.6,3.2,4.2,22.68,53.31,1.9415,374.2867],
    [6977,1532800805,56.9169,-111.56,768.7,439.7,183.4,3.0,4.5,22.62,53.31,1.9408,374.2405],
    [6978,1532800806,56.9164,-111.56,767.2,438.2,182.3,2.1,4.9,22.22,53.24,1.943,373.6587],
    [6979,1532800807,56.9159,-111.56,765.9,436.9,180.8,0.9,4.1,22.61,53.86,1.9417,374.0871],
    [6980,1532800808,56.9154,-111.56,765.4,436.4,180.4,1.0,2.8,22.44,53.26,1.9446,374.1869],
    [6981,1532800809,56.9148,-111.56,766.7,437.7,180.8,1.5,3.0,22.64,53.83,1.945,375.5853],
    [6982,1532800810,56.9143,-111.56,768.9,438.9,180.0,0.5,3.2,22.8,53.17,1.9388,375.75],
    [6983,1532800811,56.9138,-111.56,770.8,440.8,179.3,0.1,3.4,22.0,53.7,1.9382,375.75],
    [6984,1532800812,56.9133,-111.5599,772.3,442.3,178.9,0.1,4.1,22.42,54.26,1.9408,373.3324],
    [6985,1532800813,56.9128,-111.5599,773.4,443.4,179.7,1.2,4.6,22.34,53.33,1.9416,374.218],
    [6986,1532800814,56.9122,-111.5599,774.6,444.6,180.3,1.7,4.5,22.44,53.19,1.9416,374.2392],
    [6987,1532800815,56.9117,-111.5599,776.3,446.3,178.9,0.3,4.8,22.22,53.27,1.9405,374.4197],
    [6988,1532800816,56.9112,-111.5598,777.4,447.4,179.2,0.8,5.2,23.17,52.68,1.94,374.743],
    [6989,1532800817,56.9107,-111.5598,779.0,449.0,178.8,0.3,5.3,22.58,53.19,1.9389,374.489],
    [6990,1532800818,56.9102,-111.5598,780.2,450.2,178.7,0.5,5.1,23.18,52.71,1.9372,374.4873],
    [6991,1532800819,56.9097,-111.5598,780.8,450.8,179.7,1.5,5.1,22.49,52.78,1.9368,374.8291],
    [6992,1532800820,56.9091,-111.5597,781.1,451.1,179.3,1.2,4.9,22.52,52.52,1.9347,374.3573],
    [6993,1532800821,56.9086,-111.5597,782.3,452.3,179.4,1.1,5.5,22.64,52.8,1.9373,374.7912],
    [6994,1532800822,56.9081,-111.5597,783.8,453.8,179.9,1.1,6.0,22.72,51.85,1.9346,373.5875],
    [6995,1532800823,56.9076,-111.5597,785.7,455.7,179.4,0.5,5.8,22.07,51.47,1.9338,373.5875],
    [6996,1532800824,56.907,-111.5596,787.3,456.3,180.0,1.5,5.6,22.81,51.06,1.9364,374.9312],
    [6997,1532800825,56.9065,-111.5596,786.8,455.8,181.4,2.9,5.1,22.43,51.69,1.9384,374.0875],
    [6998,1532800826,56.906,-111.5596,785.8,454.8,180.6,2.2,4.8,23.07,51.01,1.9402,373.8082],
    [6999,1532800827,56.9054,-111.5596,784.6,453.6,181.4,3.3,4.2,23.21,51.24,1.9418,374.3],
    [7000,1532800828,56.9049,-111.5595,783.9,451.9,181.9,3.9,3.3,23.12,51.55,1.942,374.2059],
    [7001,1532800829,56.9043,-111.5595,783.2,451.2,181.0,3.2,3.1,22.8,51.71,1.9425,372.0917],
    [7002,1532800830,56.9038,-111.5595,782.4,450.4,180.6,2.5,2.7,23.01,52.1,1.9429,374.4381],
    [7003,1532800831,56.9032,-111.5594,783.2,450.2,180.3,2.1,2.7,22.54,52.55,1.9418,374.3807],
    [7004,1532800832,56.9027,-111.5594,783.8,450.8,181.7,3.4,3.1,22.84,52.8,1.9408,375.3404],
    [7005,1532800833,56.9022,-111.5594,783.0,450.0,181.1,3.0,3.7,22.75,52.85,1.9398,374.2578],
    [7006,1532800834,56.9016,-111.5594,782.0,449.0,179.5,1.7,3.5,23.09,52.65,1.94,374.2578],
    [7007,1532800835,56.901,-111.5593,781.5,447.5,179.7,2.3,3.3,22.75,53.47,1.9391,373.9249],
    [7008,1532800836,56.9005,-111.5593,781.2,447.2,180.2,2.9,2.8,22.69,52.89,1.9396,373.891],
    [7009,1532800837,56.8999,-111.5592,780.6,446.6,180.5,3.1,2.5,22.84,52.77,1.94,374.424],
    [7010,1532800838,56.8994,-111.5592,779.8,445.8,180.3,2.5,2.4,22.74,52.71,1.94,374.9452],
    [7011,1532800839,56.8988,-111.5592,779.0,445.0,181.4,3.3,1.7,22.83,52.54,1.9394,374.6219],
    [7012,1532800840,56.8983,-111.5591,778.0,443.0,182.9,3.8,1.0,23.43,52.02,1.9382,374.6219],
    [7013,1532800841,56.8977,-111.5591,777.1,442.1,182.4,2.9,0.3,22.95,52.15,1.9382,372.9368],
    [7014,1532800842,56.8971,-111.5591,776.6,441.6,182.4,2.4,0.0,22.29,52.24,1.9377,373.8229],
    [7015,1532800843,56.8966,-111.5591,777.5,442.5,180.6,0.7,0.3,22.81,52.14,1.9366,373.6097],
    [7016,1532800844,56.896,-111.5591,778.9,443.9,181.6,1.9,0.4,22.63,52.53,1.9392,375.1184],
    [7017,1532800845,56.8955,-111.5591,780.1,445.1,181.9,1.8,0.9,22.52,52.13,1.9402,375.242],
    [7018,1532800846,56.8949,-111.5591,781.3,446.3,180.6,0.4,1.2,23.0,51.94,1.9406,374.4147],
    [7019,1532800847,56.8944,-111.5591,783.1,448.1,180.2,0.1,0.5,22.91,52.37,1.9394,373.4918],
    [7020,1532800848,56.8938,-111.5591,786.3,451.3,180.1,0.4,0.8,22.87,51.97,1.9437,373.86],
    [7021,1532800849,56.8933,-111.5591,790.0,455.0,180.9,1.7,1.7,22.61,52.3,1.9452,374.5546],
    [7022,1532800850,56.8927,-111.5591,792.3,457.3,182.6,3.5,2.2,22.78,52.57,1.945,374.5546],
    [7023,1532800851,56.8922,-111.5591,794.0,459.0,181.7,2.0,2.5,22.5,53.42,1.9449,374.1623],
    [7024,1532800852,56.8916,-111.5591,796.5,461.4,181.5,1.8,2.9,22.84,53.63,1.9458,374.1623],
    [7025,1532800853,56.8911,-111.5591,799.7,463.7,182.9,2.8,2.9,22.9,53.88,1.9428,373.0255],
    [7026,1532800854,56.8905,-111.5591,802.5,466.2,182.4,2.5,2.4,22.71,53.76,1.9425,374.5308],
    [7027,1532800855,56.89,-111.5591,803.5,466.5,183.4,3.8,2.3,22.7,53.85,1.9432,374.1265],
    [7028,1532800856,56.8895,-111.5591,803.9,466.9,183.7,4.2,3.2,22.82,54.27,1.9429,372.5178],
    [7029,1532800857,56.8889,-111.5591,805.4,468.2,182.4,3.3,3.9,22.85,53.63,1.9424,374.1549],
    [7030,1532800858,56.8884,-111.5591,806.7,468.6,181.7,3.0,3.6,22.84,53.64,1.9412,373.8398],
    [7031,1532800859,56.8878,-111.5591,807.3,469.3,179.6,1.3,3.7,22.77,53.71,1.9387,374.2699],
    [7032,1532800860,56.8873,-111.559,806.9,468.9,179.5,1.8,3.7,22.51,53.47,1.9391,374.2659],
    [7033,1532800861,56.8868,-111.559,806.5,468.4,180.9,3.1,3.4,23.13,52.61,1.9388,374.354],
    [7034,1532800862,56.8862,-111.559,806.1,467.1,179.7,1.8,3.4,22.35,53.09,1.9375,374.2479],
    [7035,1532800863,56.8857,-111.5589,805.8,466.1,179.4,1.6,3.2,22.17,53.22,1.9384,373.9253],
    [7036,1532800864,56.8852,-111.5589,805.7,465.7,180.4,2.1,2.9,22.93,52.57,1.9373,373.9253],
    [7037,1532800865,56.8846,-111.5589,806.5,465.5,179.8,1.1,3.4,22.12,53.04,1.9377,374.8872],
    [7038,1532800866,56.8841,-111.5589,808.5,466.8,179.0,0.4,4.0,22.02,52.76,1.9391,374.8872],
    [7039,1532800867,56.8835,-111.5588,810.2,468.2,180.5,2.0,4.3,22.57,52.81,1.9375,374.2749],
    [7040,1532800868,56.883,-111.5588,811.0,468.0,182.3,3.6,3.9,23.26,52.18,1.9408,373.7657],
    [7041,1532800869,56.8824,-111.5588,812.0,469.0,180.9,2.1,3.2,23.37,52.05,1.9411,373.8516],
    [7042,1532800870,56.8819,-111.5588,813.3,470.0,179.7,1.4,2.1,23.43,52.08,1.9436,374.1868],
    [7043,1532800871,56.8814,-111.5587,814.7,470.7,180.4,2.2,1.6,22.62,52.99,1.9441,374.4683],
    [7044,1532800872,56.8808,-111.5587,815.9,471.9,180.5,2.5,0.8,22.72,53.2,1.9443,374.5094],
    [7045,1532800873,56.8803,-111.5587,816.7,471.6,181.6,3.3,0.1,22.92,52.96,1.9448,373.7711],
    [7046,1532800874,56.8797,-111.5587,816.5,471.5,181.9,3.2,-0.1,23.07,53.3,1.944,375.0494],
    [7047,1532800875,56.8792,-111.5586,816.5,471.5,181.7,3.0,0.4,22.41,53.55,1.9431,375.1808],
    [7048,1532800876,56.8786,-111.5586,816.4,472.4,181.7,3.2,1.1,22.42,54.36,1.9437,372.5545],
    [7049,1532800877,56.8781,-111.5586,816.7,472.9,181.7,3.4,1.3,22.23,53.98,1.9441,373.1606],
    [7050,1532800878,56.8775,-111.5586,817.9,474.1,181.7,3.4,0.8,22.79,53.9,1.9452,373.1606],
    [7051,1532800879,56.877,-111.5585,819.1,475.1,181.9,3.6,0.6,22.24,54.17,1.9441,373.6086],
    [7052,1532800880,56.8765,-111.5585,820.4,474.7,182.0,3.6,1.5,22.36,54.85,1.9442,374.2028],
    [7053,1532800881,56.8759,-111.5585,822.6,475.7,181.1,2.6,3.3,22.09,54.36,1.9418,374.4606],
    [7054,1532800882,56.8754,-111.5585,825.3,477.2,181.7,3.0,4.5,22.64,53.97,1.9396,373.6015],
    [7055,1532800883,56.8748,-111.5585,828.7,480.3,181.1,2.0,5.0,22.71,53.97,1.9374,373.9962],
    [7056,1532800884,56.8743,-111.5585,831.7,482.8,181.9,2.7,5.2,22.67,53.5,1.9364,373.5597],
    [7057,1532800885,56.8738,-111.5585,835.2,485.6,182.5,2.7,5.5,22.56,53.53,1.9363,373.2097],
    [7058,1532800886,56.8732,-111.5585,839.2,489.3,181.1,1.4,5.6,22.73,52.68,1.9353,374.0364],
    [7059,1532800887,56.8727,-111.5584,842.5,491.7,180.4,1.2,4.8,22.3,52.74,1.9373,375.0267],
    [7060,1532800888,56.8722,-111.5584,845.0,494.0,180.1,1.6,4.1,22.81,52.43,1.9381,373.428],
    [7061,1532800889,56.8717,-111.5584,846.9,494.4,179.9,1.8,4.1,22.51,53.01,1.94,374.047],
    [7062,1532800890,56.8711,-111.5584,847.8,494.8,180.0,2.2,4.5,22.53,52.53,1.9398,375.351],
    [7063,1532800891,56.8706,-111.5583,848.4,495.2,180.1,2.6,4.8,23.17,52.25,1.942,375.1033],
    [7064,1532800892,56.8701,-111.5583,849.2,495.2,180.0,2.9,5.7,21.95,52.88,1.942,375.159],
    [7065,1532800893,56.8696,-111.5582,850.2,495.2,179.6,2.4,5.9,22.6,52.85,1.9389,374.5263],
    [7066,1532800894,56.869,-111.5582,850.6,495.5,178.4,0.9,5.5,22.15,52.87,1.9382,374.5166],
    [7067,1532800895,56.8685,-111.5582,850.3,494.3,178.1,0.2,5.1,22.47,52.72,1.9374,375.1743],
    [7068,1532800896,56.868,-111.5581,849.2,493.2,180.4,2.4,4.4,23.03,52.14,1.936,375.0874],
    [7069,1532800897,56.8674,-111.5581,848.4,491.4,182.3,3.3,4.1,22.51,52.65,1.9361,373.2052],
    [7070,1532800898,56.8669,-111.5581,848.3,491.3,183.1,3.3,4.6,21.99,52.09,1.9379,375.2065],
    [7071,1532800899,56.8663,-111.5581,848.0,491.0,185.1,4.5,5.1,22.48,51.81,1.9386,374.4301],
    [7072,1532800900,56.8658,-111.5581,847.1,489.1,186.2,5.1,5.5,22.48,52.13,1.9375,374.8027],
    [7073,1532800901,56.8652,-111.5582,845.3,487.3,186.5,4.9,5.5,22.49,52.68,1.9375,374.8207],
    [7074,1532800902,56.8647,-111.5582,843.6,484.6,186.8,5.1,5.3,22.79,52.08,1.942,374.8839],
    [7075,1532800903,56.8642,-111.5583,842.5,483.5,187.3,5.3,5.3,22.73,52.22,1.9412,374.6902],
    [7076,1532800904,56.8636,-111.5583,841.9,482.9,185.9,3.9,4.8,22.62,52.21,1.9417,374.5959],
    [7077,1532800905,56.8631,-111.5584,841.5,482.5,185.5,4.0,4.4,22.3,53.31,1.9415,374.2686],
    [7078,1532800906,56.8625,-111.5584,841.1,481.4,184.7,3.8,4.5,22.6,53.12,1.9408,374.6885],
    [7079,1532800907,56.862,-111.5584,841.3,481.6,183.2,2.7,4.2,22.84,52.96,1.9394,374.4414],
    [7080,1532800908,56.8614,-111.5584,841.2,481.2,182.1,2.0,4.3,23.19,53.0,1.9396,374.6104],
    [7081,1532800909,56.8608,-111.5584,840.2,480.2,182.7,3.0,4.2,22.46,52.84,1.939,374.5876],
    [7082,1532800910,56.8603,-111.5584,839.1,479.1,182.3,2.8,4.2,22.59,52.78,1.9397,373.6362],
    [7083,1532800911,56.8597,-111.5584,838.2,478.2,182.5,3.6,4.5,22.92,52.48,1.9402,374.1909],
    [7084,1532800912,56.8592,-111.5584,836.8,476.8,183.7,4.9,4.3,22.48,53.16,1.9378,374.9512],
    [7085,1532800913,56.8586,-111.5584,835.7,475.7,182.6,3.6,3.7,22.59,52.85,1.9361,374.3606],
    [7086,1532800914,56.858,-111.5584,835.1,475.1,182.7,3.3,3.6,22.19,52.55,1.938,374.9097],
    [7087,1532800915,56.8575,-111.5584,835.1,475.1,183.0,3.3,3.9,22.53,52.72,1.939,374.5555],
    [7088,1532800916,56.8569,-111.5584,835.4,475.4,183.8,3.5,4.1,22.78,51.72,1.939,374.5555],
    [7089,1532800917,56.8563,-111.5584,837.0,477.0,182.8,2.1,4.0,22.97,51.9,1.9422,374.7968],
    [7090,1532800918,56.8558,-111.5585,838.5,478.5,184.2,3.6,3.8,22.65,51.96,1.9415,375.0222],
    [7091,1532800919,56.8552,-111.5585,839.1,479.1,184.7,3.6,3.5,23.05,51.9,1.9387,374.343],
    [7092,1532800920,56.8546,-111.5585,839.0,479.0,183.6,2.6,2.9,22.86,52.02,1.9375,374.148],
    [7093,1532800921,56.8541,-111.5585,838.8,478.8,183.5,2.5,2.1,23.11,52.11,1.9364,373.7724],
    [7094,1532800922,56.8535,-111.5586,839.2,479.2,182.1,1.3,2.0,22.36,53.08,1.934,372.9252],
    [7095,1532800923,56.8529,-111.5586,839.2,479.2,181.9,1.4,2.1,22.62,52.35,1.9346,374.2528],
    [7096,1532800924,56.8524,-111.5586,838.0,478.0,182.5,2.2,2.3,22.54,51.98,1.9351,374.5469],
    [7097,1532800925,56.8518,-111.5586,835.7,475.7,183.5,3.1,2.2,22.97,51.55,1.9379,373.769],
    [7098,1532800926,56.8512,-111.5586,833.6,473.6,183.9,3.4,1.9,22.26,51.85,1.9362,375.1125],
    [7099,1532800927,56.8506,-111.5586,831.9,470.9,185.2,4.5,1.6,22.3,51.86,1.9381,373.2806],
    [7100,1532800928,56.85,-111.5587,830.5,469.5,185.1,3.9,1.3,22.28,52.38,1.9408,373.8003],
    [7101,1532800929,56.8494,-111.5587,830.3,468.3,183.7,2.5,1.0,22.85,51.94,1.9408,374.1233],
    [7102,1532800930,56.8489,-111.5587,831.3,468.3,183.3,2.1,1.0,22.48,52.4,1.9337,374.7668],
    [7103,1532800931,56.8483,-111.5588,832.5,469.5,182.9,1.8,1.5,22.02,52.34,1.9345,374.7668],
    [7104,1532800932,56.8477,-111.5588,833.6,470.6,183.0,2.1,1.1,22.41,52.25,1.9368,373.7775],
    [7105,1532800933,56.8471,-111.5588,833.9,470.9,183.8,2.7,0.3,22.47,52.39,1.939,374.3867],
    [7106,1532800934,56.8465,-111.5588,833.3,470.4,183.5,2.2,0.1,21.96,52.06,1.9393,374.289],
    [7107,1532800935,56.846,-111.5589,832.6,468.3,184.5,3.2,0.5,23.16,51.77,1.939,374.1641],
    [7108,1532800936,56.8454,-111.5589,832.4,466.4,185.9,4.5,0.9,22.19,52.23,1.9382,374.2294],
    [7109,1532800937,56.8448,-111.5589,833.2,465.5,185.5,3.9,1.2,22.57,52.0,1.9395,373.8941],
    [7110,1532800938,56.8442,-111.559,834.4,465.3,185.3,3.9,2.0,22.21,52.52,1.9408,373.978],
    [7111,1532800939,56.8437,-111.559,835.7,465.7,185.4,4.0,2.4,22.86,51.8,1.9409,373.8827],
    [7112,1532800940,56.8431,-111.559,837.4,466.6,184.7,3.1,2.4,22.33,53.18,1.942,374.9324],
    [7113,1532800941,56.8425,-111.5591,839.4,468.4,185.1,3.6,3.0,22.35,52.77,1.9436,374.5366],
    [7114,1532800942,56.842,-111.5591,840.5,468.4,186.5,4.5,3.1,22.35,53.34,1.9437,375.2871],
    [7115,1532800943,56.8414,-111.5592,841.6,468.6,185.9,3.5,2.9,21.82,53.24,1.9399,373.4033],
    [7116,1532800944,56.8408,-111.5592,842.7,468.8,185.4,3.9,2.6,23.01,52.56,1.9387,373.5478],
    [7117,1532800945,56.8402,-111.5592,843.2,469.1,185.4,5.8,2.5,22.48,53.09,1.9389,374.0681],
    [7118,1532800946,56.8397,-111.5592,843.9,468.9,181.4,4.5,2.7,22.48,53.11,1.9396,374.1295],
    [7119,1532800947,56.8391,-111.5592,845.5,470.4,177.5,3.7,2.9,22.81,52.81,1.938,374.4725],
    [7120,1532800948,56.8385,-111.559,847.5,471.6,174.8,3.9,3.2,22.06,52.75,1.9383,375.0138],
    [7121,1532800949,56.838,-111.5588,849.6,472.6,171.1,3.2,3.0,22.01,52.61,1.9387,374.3642],
    [7122,1532800950,56.8374,-111.5586,850.5,473.6,168.2,3.6,2.6,22.39,53.31,1.9382,375.3399],
    [7123,1532800951,56.8369,-111.5583,851.4,473.8,165.7,4.4,2.6,22.25,52.83,1.9368,373.7907],
    [7124,1532800952,56.8363,-111.5579,851.8,474.8,162.7,4.7,2.8,22.36,52.62,1.936,374.5874],
    [7125,1532800953,56.8358,-111.5575,851.8,475.3,160.1,5.1,2.9,21.99,52.48,1.9354,374.6737],
    [7126,1532800954,56.8353,-111.557,852.2,476.2,155.8,3.8,2.3,22.46,52.22,1.9345,373.6212],
    [7127,1532800955,56.8348,-111.5565,852.0,476.0,152.5,3.4,1.5,22.76,51.79,1.9345,374.5714],
    [7128,1532800956,56.8343,-111.5559,850.4,474.1,148.0,2.3,0.2,22.48,51.7,1.9323,372.9958],
    [7129,1532800957,56.8338,-111.5553,849.7,472.7,144.2,2.4,0.3,22.69,51.97,1.9318,374.7843],
    [7130,1532800958,56.8333,-111.5546,849.2,471.9,142.0,2.9,0.5,22.28,51.51,1.9301,373.9215],
    [7131,1532800959,56.8329,-111.5539,847.9,469.9,139.3,3.2,0.6,22.42,51.4,1.9325,373.9391],
    [7132,1532800960,56.8325,-111.5531,845.9,468.9,137.3,4.0,1.1,22.6,50.99,1.9344,374.1272],
    [7133,1532800961,56.8321,-111.5523,843.1,467.1,134.9,4.7,1.8,22.25,51.1,1.9335,374.784],
    [7134,1532800962,56.8317,-111.5514,840.6,465.5,130.7,4.4,1.7,22.25,51.24,1.9355,374.7073],
    [7135,1532800963,56.8313,-111.5505,839.1,468.1,126.4,4.5,1.2,22.03,51.27,1.9386,374.8825],
    [7136,1532800964,56.831,-111.5496,838.2,469.5,121.8,4.3,0.3,22.46,51.17,1.9387,373.5276],
    [7137,1532800965,56.8307,-111.5486,837.5,468.4,118.3,4.5,1.0,22.25,51.46,1.938,374.0183],
    [7138,1532800966,56.8305,-111.5475,836.8,467.8,115.2,4.5,2.0,21.74,51.75,1.936,374.5987],
    [7139,1532800967,56.8303,-111.5465,836.5,468.5,110.2,3.8,1.3,22.73,51.21,1.9371,375.1471],
    [7140,1532800968,56.8301,-111.5454,836.8,469.8,106.9,3.8,1.7,21.94,51.77,1.9365,373.9813],
    [7141,1532800969,56.8299,-111.5443,836.9,470.9,104.3,3.8,2.1,22.23,51.84,1.9359,374.5078],
    [7142,1532800970,56.8298,-111.5431,837.1,472.8,100.7,3.4,1.3,22.61,51.28,1.938,375.2488],
    [7143,1532800971,56.8297,-111.542,836.9,473.9,98.3,2.9,1.9,22.52,51.68,1.9376,374.0499],
    [7144,1532800972,56.8297,-111.5409,836.4,474.5,96.3,2.6,2.3,23.06,51.33,1.9373,373.9379],
    [7145,1532800973,56.8296,-111.5397,835.9,475.9,92.7,2.8,0.7,22.32,51.91,1.9372,374.7569],
    [7146,1532800974,56.8296,-111.5386,835.5,476.5,90.7,2.9,0.6,22.09,51.86,1.9378,374.6738],
    [7147,1532800975,56.8296,-111.5374,835.3,477.3,90.6,3.1,1.3,22.29,51.83,1.9371,374.7024],
    [7148,1532800976,56.8296,-111.5363,835.7,478.7,90.3,3.2,1.4,22.29,51.83,1.9382,374.5689],
    [7149,1532800977,56.8297,-111.5351,836.7,478.7,90.6,3.4,2.0,22.51,51.57,1.9385,375.3039],
    [7150,1532800978,56.8297,-111.534,837.7,479.7,90.1,3.4,1.3,21.88,51.71,1.9369,375.3039],
    [7151,1532800979,56.8297,-111.5328,838.2,480.2,89.9,2.8,1.2,23.2,51.33,1.9348,374.2721],
    [7152,1532800980,56.8297,-111.5317,838.3,480.3,91.4,2.3,2.6,21.96,52.18,1.934,373.3644],
    [7153,1532800981,56.8297,-111.5305,838.2,480.2,90.9,2.3,1.8,22.95,51.41,1.9341,374.039],
    [7154,1532800982,56.8297,-111.5294,837.7,480.0,90.7,2.7,1.7,22.25,51.56,1.9338,374.0504],
    [7155,1532800983,56.8297,-111.5282,836.8,479.8,90.9,3.0,1.8,22.53,51.31,1.9354,373.0683],
    [7156,1532800984,56.8297,-111.5271,835.3,479.3,91.3,2.3,1.9,22.85,50.88,1.9382,373.0683],
    [7157,1532800985,56.8297,-111.5259,834.0,479.0,91.9,2.5,2.1,22.4,51.86,1.938,372.6985],
    [7158,1532800986,56.8297,-111.5248,832.6,478.6,92.1,3.3,2.0,22.45,51.6,1.9372,372.6429],
    [7159,1532800987,56.8297,-111.5236,831.3,477.3,92.6,4.0,2.3,23.16,51.65,1.9375,372.0489],
    [7160,1532800988,56.8297,-111.5224,830.4,477.4,93.1,4.5,2.6,23.12,51.88,1.9389,372.3434],
    [7161,1532800989,56.8297,-111.5213,829.9,476.9,93.1,4.5,2.5,22.61,52.13,1.9371,373.2272],
    [7162,1532800990,56.8297,-111.5201,830.4,477.4,93.7,4.4,3.0,22.12,52.16,1.9316,374.393],
    [7163,1532800991,56.8297,-111.5189,831.1,478.1,94.0,4.9,3.1,22.55,51.9,1.9283,373.8396],
    [7164,1532800992,56.8297,-111.5178,831.9,479.9,93.5,4.7,2.4,21.91,51.8,1.9281,375.0992],
    [7165,1532800993,56.8296,-111.5166,832.8,480.8,93.9,4.6,2.7,21.93,51.01,1.9292,373.3285],
    [7166,1532800994,56.8296,-111.5155,833.1,482.1,95.5,4.8,3.9,22.32,50.47,1.9328,373.3123],
    [7167,1532800995,56.8296,-111.5143,833.6,482.6,95.3,4.3,3.0,21.9,50.24,1.933,373.6246],
    [7168,1532800996,56.8296,-111.5131,834.7,483.7,95.3,4.0,2.5,22.36,50.44,1.9334,373.5381],
    [7169,1532800997,56.8295,-111.512,835.4,485.4,97.5,4.6,4.3,22.38,50.49,1.9313,374.2034],
    [7170,1532800998,56.8295,-111.5108,835.9,485.9,96.6,4.5,3.1,22.3,50.47,1.9288,374.8106],
    [7171,1532800999,56.8295,-111.5097,837.0,487.0,95.5,4.3,2.4,22.73,49.86,1.9289,374.477],
    [7172,1532801000,56.8294,-111.5085,837.8,487.8,95.7,4.5,3.1,22.39,50.05,1.9269,374.9001],
    [7173,1532801001,56.8294,-111.5074,837.9,488.6,95.1,4.0,3.0,22.14,49.46,1.928,375.078],
    [7174,1532801002,56.8294,-111.5062,837.4,488.4,94.7,3.3,3.3,22.28,49.35,1.9322,374.3432],
    [7175,1532801003,56.8293,-111.5051,837.1,488.1,94.1,2.5,3.1,22.4,49.85,1.9359,374.2373],
    [7176,1532801004,56.8293,-111.5039,837.5,488.5,93.5,2.1,2.9,22.69,49.33,1.9338,373.9222],
    [7177,1532801005,56.8293,-111.5028,837.2,488.4,93.0,1.9,3.0,22.54,49.96,1.9347,373.9999],
    [7178,1532801006,56.8293,-111.5016,836.1,488.0,92.0,2.2,2.5,22.73,50.68,1.9353,373.4396],
    [7179,1532801007,56.8293,-111.5005,834.5,486.5,91.2,2.2,2.4,22.6,51.28,1.9361,374.3615],
    [7180,1532801008,56.8293,-111.4993,832.7,484.8,91.0,1.7,2.6,23.03,50.67,1.9363,373.0703],
    [7181,1532801009,56.8294,-111.4982,831.0,482.7,90.4,1.7,2.1,21.94,51.18,1.9352,373.7414],
    [7182,1532801010,56.8294,-111.497,829.4,481.1,89.9,1.6,2.0,22.69,51.16,1.9357,374.3496],
    [7183,1532801011,56.8294,-111.4958,827.8,479.4,90.1,1.3,2.3,21.95,51.3,1.935,374.3496],
    [7184,1532801012,56.8294,-111.4947,825.9,477.6,89.6,0.9,2.0,22.88,50.87,1.9366,373.6807],
    [7185,1532801013,56.8294,-111.4935,824.5,475.5,90.0,0.6,2.9,23.15,50.78,1.9351,372.5264],
    [7186,1532801014,56.8295,-111.4923,823.4,474.4,90.4,0.5,3.2,22.8,50.64,1.9362,372.735],
    [7187,1532801015,56.8295,-111.4912,822.2,473.2,89.8,-0.2,2.6,22.18,51.17,1.9378,372.735],
    [7188,1532801016,56.8295,-111.49,820.8,471.8,91.1,-0.9,4.2,22.41,51.55,1.937,372.5314],
    [7189,1532801017,56.8295,-111.4889,818.9,470.9,91.2,-0.8,3.9,21.99,51.9,1.9374,372.5499],
    [7190,1532801018,56.8296,-111.4877,817.5,469.5,91.3,0.1,3.8,22.54,51.78,1.938,371.8562],
    [7191,1532801019,56.8296,-111.4865,816.4,468.4,91.8,0.8,3.9,22.36,51.73,1.9372,371.8562],
    [7192,1532801020,56.8296,-111.4853,815.3,468.3,91.5,0.4,3.3,22.5,52.18,1.9365,372.2334],
    [7193,1532801021,56.8296,-111.4842,813.9,466.9,91.7,0.0,3.4,22.59,51.87,1.9374,372.8754],
    [7194,1532801022,56.8296,-111.483,812.0,465.0,92.1,0.7,3.6,22.03,52.28,1.9377,371.6788],
    [7195,1532801023,56.8296,-111.4818,809.9,462.9,92.7,1.6,4.0,22.3,52.18,1.9365,372.6721],
    [7196,1532801024,56.8296,-111.4806,807.8,459.8,93.7,1.9,4.5,22.56,52.38,1.9363,372.4373],
    [7197,1532801025,56.8296,-111.4794,805.7,457.7,93.8,2.6,4.0,22.52,52.0,1.9349,372.4716],
    [7198,1532801026,56.8296,-111.4782,803.5,456.2,93.8,3.4,3.7,22.86,51.07,1.9359,372.5028],
    [7199,1532801027,56.8296,-111.477,800.8,453.8,93.8,3.8,3.5,22.52,52.09,1.9354,372.1849],
    [7200,1532801028,56.8296,-111.4758,798.2,451.9,94.2,3.6,3.8,22.27,51.51,1.9362,372.9782],
    [7201,1532801029,56.8296,-111.4746,796.4,450.4,94.7,2.8,4.1,23.03,50.63,1.9377,372.6966],
    [7202,1532801030,56.8296,-111.4734,795.9,449.9,94.4,2.0,3.6,22.77,51.36,1.9365,371.6157],
    [7203,1532801031,56.8295,-111.4721,795.7,450.7,95.2,2.0,4.3,22.7,51.47,1.937,372.5055],
    [7204,1532801032,56.8295,-111.4709,795.7,450.7,96.4,2.0,5.4,23.06,51.22,1.9371,372.8692],
    [7205,1532801033,56.8295,-111.4697,795.4,451.4,95.7,1.5,4.0,22.57,52.02,1.9374,372.6344],
    [7206,1532801034,56.8295,-111.4685,795.8,451.8,94.6,1.3,2.6,22.25,51.72,1.935,372.5287],
    [7207,1532801035,56.8294,-111.4673,795.6,451.6,96.3,1.8,4.3,22.55,51.61,1.9343,372.8772],
    [7208,1532801036,56.8294,-111.4661,795.1,451.1,96.3,2.0,4.0,22.41,52.04,1.9336,372.3004],
    [7209,1532801037,56.8294,-111.4649,794.1,450.1,95.5,2.1,3.3,22.77,51.4,1.9324,373.7956],
    [7210,1532801038,56.8293,-111.4636,792.4,448.4,96.6,1.8,4.6,22.83,50.88,1.9337,373.5116],
    [7211,1532801039,56.8293,-111.4624,790.5,446.5,96.2,1.5,4.3,22.83,51.03,1.9344,373.5116],
    [7212,1532801040,56.8293,-111.4612,788.5,444.5,95.6,1.8,4.1,22.28,50.56,1.9351,373.0299],
    [7213,1532801041,56.8292,-111.46,786.2,442.2,95.3,1.7,4.4,22.62,51.01,1.9382,372.6629],
    [7214,1532801042,56.8292,-111.4588,783.2,440.2,94.6,2.5,4.4,23.36,50.6,1.9409,374.0527],
    [7215,1532801043,56.8292,-111.4575,779.8,436.8,94.2,3.4,4.3,22.4,51.34,1.9383,373.1303],
    [7216,1532801044,56.8292,-111.4563,776.8,434.8,93.0,3.2,3.4,22.73,52.03,1.9354,372.797],
    [7217,1532801045,56.8292,-111.455,774.2,432.2,92.7,3.5,3.8,22.61,52.18,1.9403,370.7809],
    [7218,1532801046,56.8292,-111.4538,771.4,430.7,92.2,2.9,3.8,22.77,52.6,1.9444,371.5415],
    [7219,1532801047,56.8292,-111.4525,768.4,428.5,90.7,1.6,2.3,22.7,52.09,1.9489,372.9675],
    [7220,1532801048,56.8292,-111.4513,766.3,427.6,90.0,1.2,1.9,22.92,51.88,1.9505,373.2086],
    [7221,1532801049,56.8292,-111.45,764.4,426.4,91.7,1.2,3.9,22.36,53.12,1.9464,373.2086],
    [7222,1532801050,56.8293,-111.4488,762.1,425.4,91.3,1.5,3.4,22.88,52.96,1.944,372.8208],
    [7223,1532801051,56.8293,-111.4476,759.6,424.7,91.3,2.4,3.6,22.46,53.23,1.9461,372.8208],
    [7224,1532801052,56.8293,-111.4463,757.0,424.0,91.9,3.0,4.2,22.06,53.03,1.9463,372.553],
    [7225,1532801053,56.8293,-111.4451,754.5,426.4,91.7,3.8,3.7,22.85,52.82,1.9467,372.5141],
    [7226,1532801054,56.8293,-111.4438,752.1,433.2,92.3,4.8,4.3,23.08,52.84,1.9442,372.6528],
    [7227,1532801055,56.8293,-111.4426,749.8,439.3,92.4,5.6,4.2,22.74,52.94,1.9418,372.892],
    [7228,1532801056,56.8293,-111.4414,747.9,450.6,92.3,6.4,4.1,22.94,52.3,1.9364,371.5242],
    [7229,1532801057,56.8294,-111.4401,747.0,461.6,93.4,6.9,5.0,22.31,52.29,1.9365,371.1495],
    [7230,1532801058,56.8294,-111.4388,746.6,477.0,92.5,7.2,3.6,22.66,52.09,1.9357,372.2205],
    [7231,1532801059,56.8294,-111.4376,745.7,487.0,90.9,7.2,1.8,22.58,52.07,1.936,370.4428],
    [7232,1532801060,56.8294,-111.4363,745.3,493.3,91.8,7.4,2.6,23.33,50.74,1.9367,372.5315],
    [7233,1532801061,56.8294,-111.4351,745.3,496.1,93.0,7.7,3.2,22.85,51.87,1.9359,372.1923],
    [7234,1532801062,56.8294,-111.4338,744.3,495.9,92.9,8.1,2.5,22.71,51.73,1.9363,371.7411],
    [7235,1532801063,56.8294,-111.4326,742.9,494.9,93.4,8.7,2.9,22.63,51.31,1.9351,372.186],
    [7236,1532801064,56.8293,-111.4313,741.5,495.5,93.8,8.6,3.5,22.35,51.39,1.9346,371.8618],
    [7237,1532801065,56.8293,-111.4301,740.3,496.4,94.3,8.6,4.1,22.58,51.49,1.9349,371.9793],
    [7238,1532801066,56.8293,-111.4289,739.4,497.5,94.1,8.7,3.8,22.75,51.23,1.9357,371.8981],
    [7239,1532801067,56.8293,-111.4276,739.1,497.1,94.0,8.9,3.8,22.46,50.97,1.9345,373.9997],
    [7240,1532801068,56.8293,-111.4264,738.8,496.9,93.3,9.0,3.3,22.79,50.98,1.9356,373.7497],
    [7241,1532801069,56.8293,-111.4251,738.7,495.7,92.9,8.8,3.5,22.84,50.88,1.9348,371.6874],
    [7242,1532801070,56.8293,-111.4239,739.2,496.0,92.6,8.3,3.7,23.57,50.76,1.935,371.3429],
    [7243,1532801071,56.8293,-111.4227,740.6,496.6,92.4,7.3,3.9,22.8,51.31,1.9342,372.6036],
    [7244,1532801072,56.8293,-111.4214,742.6,498.6,93.0,6.3,4.9,23.3,50.61,1.9354,372.8287],
    [7245,1532801073,56.8294,-111.4202,743.9,499.9,92.4,5.5,4.4,22.84,51.08,1.9366,372.3179],
    [7246,1532801074,56.8294,-111.419,744.6,501.6,91.4,4.4,3.7,23.5,50.71,1.9394,373.0257],
    [7247,1532801075,56.8294,-111.4178,745.2,504.2,91.6,3.2,4.1,23.22,51.06,1.9405,371.9505],
    [7248,1532801076,56.8294,-111.4166,745.9,507.9,91.0,2.5,3.7,22.19,51.2,1.9438,373.612],
    [7249,1532801077,56.8294,-111.4155,746.1,508.1,89.8,2.4,2.8,22.83,51.42,1.9444,373.345],
    [7250,1532801078,56.8295,-111.4143,746.5,508.5,88.8,2.4,2.5,23.18,51.44,1.9429,373.345],
    [7251,1532801079,56.8295,-111.4131,747.4,509.4,89.8,2.1,3.7,22.74,51.89,1.9421,371.6581],
    [7252,1532801080,56.8295,-111.4119,748.9,510.9,89.3,2.3,3.3,23.08,51.54,1.9407,372.8713],
    [7253,1532801081,56.8296,-111.4108,750.7,511.7,89.5,2.7,3.4,22.82,51.97,1.9401,372.8713],
    [7254,1532801082,56.8296,-111.4096,753.0,508.0,89.6,3.2,3.6,22.48,52.09,1.94,372.5624],
    [7255,1532801083,56.8296,-111.4084,754.8,497.8,89.8,4.0,3.9,22.58,51.99,1.9409,373.3615],
    [7256,1532801084,56.8297,-111.4073,755.8,483.6,90.0,4.8,4.3,22.5,51.95,1.9406,373.4634],
    [7257,1532801085,56.8297,-111.4061,756.4,467.6,90.3,5.3,4.5,22.72,52.79,1.9387,372.1223],
    [7258,1532801086,56.8298,-111.4049,756.7,454.9,90.2,5.7,4.5,22.21,51.86,1.9382,372.652],
    [7259,1532801087,56.8298,-111.4038,757.0,448.3,90.1,6.3,4.4,22.94,51.52,1.9368,372.3016],
    [7260,1532801088,56.8298,-111.4026,757.4,440.4,89.3,6.5,3.8,22.8,51.78,1.9373,371.9391],
    [7261,1532801089,56.8299,-111.4014,757.8,433.7,89.1,6.4,3.8,22.73,52.58,1.9375,372.4715],
    [7262,1532801090,56.8299,-111.4001,757.1,426.4,89.6,6.6,4.1,22.5,51.87,1.938,372.0682],
    [7263,1532801091,56.83,-111.399,756.0,421.1,88.4,7.0,2.8,22.58,51.96,1.9376,372.4084],
    [7264,1532801092,56.83,-111.3978,754.7,414.0,88.7,7.6,3.3,22.89,51.66,1.9363,371.7743],
    [7265,1532801093,56.83,-111.3966,752.8,407.1,89.3,7.8,3.8,23.01,51.32,1.9382,371.7584],
    [7266,1532801094,56.8301,-111.3954,752.4,403.4,89.4,7.7,3.7,22.75,52.22,1.9385,372.1569],
    [7267,1532801095,56.8301,-111.3943,754.1,403.8,90.9,7.7,5.0,22.1,52.1,1.9369,372.3529],
    [7268,1532801096,56.8302,-111.3931,757.2,406.2,91.6,7.5,4.9,22.33,52.41,1.94,373.0269],
    [7269,1532801097,56.8302,-111.3919,761.0,409.0,91.4,6.6,4.6,22.99,51.68,1.9417,373.0269],
    [7270,1532801098,56.8302,-111.3908,765.3,413.2,91.4,5.5,4.4,22.78,52.08,1.9427,372.485],
    [7271,1532801099,56.8302,-111.3897,769.7,418.4,90.4,4.8,3.7,22.13,52.57,1.9426,374.7474],
    [7272,1532801100,56.8303,-111.3885,773.3,423.1,90.8,4.8,4.4,23.2,52.25,1.9422,372.1463],
    [7273,1532801101,56.8303,-111.3874,776.0,427.9,90.9,5.1,4.4,21.93,52.91,1.9435,372.2476],
    [7274,1532801102,56.8303,-111.3863,777.8,429.8,90.2,5.1,4.0,22.21,52.99,1.9406,372.2339],
    [7275,1532801103,56.8304,-111.3852,778.6,430.6,90.0,5.0,4.0,21.73,53.29,1.9383,372.9131],
    [7276,1532801104,56.8304,-111.384,779.2,430.2,89.4,4.7,3.8,22.22,53.38,1.9357,372.2755],
    [7277,1532801105,56.8304,-111.383,780.3,430.3,89.4,4.6,4.2,22.44,53.57,1.9363,372.2961],
    [7278,1532801106,56.8305,-111.3818,782.0,430.7,89.2,4.1,4.2,22.06,52.85,1.936,373.2055],
    [7279,1532801107,56.8305,-111.3807,784.3,432.3,88.7,3.3,3.7,22.32,53.51,1.9362,373.3825],
    [7280,1532801108,56.8306,-111.3796,787.0,433.7,89.4,2.8,4.2,22.26,52.17,1.9358,372.2959],
    [7281,1532801109,56.8306,-111.3785,790.1,437.1,89.5,2.7,4.1,22.83,52.18,1.9362,372.2959],
    [7282,1532801110,56.8307,-111.3773,793.2,440.4,89.0,2.5,3.6,22.39,52.95,1.9393,373.1632],
    [7283,1532801111,56.8307,-111.3762,795.9,444.9,89.2,2.9,3.5,22.3,52.68,1.9435,372.7098],
    [7284,1532801112,56.8308,-111.3751,798.0,448.1,89.8,3.0,3.8,22.34,52.54,1.9448,372.4804],
    [7285,1532801113,56.8308,-111.374,799.4,448.5,91.3,2.4,4.4,22.06,53.19,1.945,373.3293],
    [7286,1532801114,56.8308,-111.3729,801.2,449.1,91.4,1.8,3.8,21.96,53.66,1.9447,375.2069],
    [7287,1532801115,56.8308,-111.3718,802.8,449.7,91.0,2.3,3.2,22.89,53.41,1.9447,373.2388],
    [7288,1532801116,56.8308,-111.3707,803.6,448.9,92.8,2.9,4.9,22.26,53.94,1.9397,373.349],
    [7289,1532801117,56.8309,-111.3697,803.4,447.4,92.5,2.8,4.4,22.63,53.73,1.9362,373.4765],
    [7290,1532801118,56.8309,-111.3686,802.7,445.7,91.3,2.4,3.4,22.19,53.86,1.9373,373.9385],
    [7291,1532801119,56.8309,-111.3675,802.2,444.2,91.5,2.2,3.8,22.87,52.67,1.9382,372.846],
    [7292,1532801120,56.8309,-111.3664,802.5,444.5,91.3,2.5,3.9,22.28,53.28,1.9407,372.846],
    [7293,1532801121,56.8309,-111.3653,803.3,444.3,90.5,2.6,3.5,22.11,52.83,1.9393,372.9238],
    [7294,1532801122,56.831,-111.3642,804.3,445.3,90.1,2.8,3.5,22.25,53.58,1.9409,372.8332],
    [7295,1532801123,56.831,-111.3631,805.6,446.6,90.3,2.7,3.8,22.26,53.47,1.9368,373.6641],
    [7296,1532801124,56.831,-111.362,806.8,446.8,89.5,2.0,2.9,23.1,52.41,1.9421,374.0117],
    [7297,1532801125,56.8311,-111.3609,807.6,447.6,90.8,1.9,3.3,22.24,53.04,1.9367,372.3213],
    [7298,1532801126,56.8311,-111.3598,807.8,447.8,92.0,2.2,3.6,23.11,52.38,1.9346,373.0866],
    [7299,1532801127,56.8311,-111.3587,807.1,446.1,93.7,2.1,4.2,21.88,52.71,1.9331,373.572],
    [7300,1532801128,56.8311,-111.3576,806.2,445.2,93.1,1.2,2.8,22.07,53.27,1.9351,373.8679],
    [7301,1532801129,56.8311,-111.3564,805.0,444.0,93.7,0.9,3.6,22.26,52.0,1.9387,372.4913],
    [7302,1532801130,56.8311,-111.3553,803.5,441.5,94.9,1.8,4.8,22.2,52.0,1.9409,373.1615],
    [7303,1532801131,56.831,-111.3542,802.0,440.0,94.8,2.0,4.6,21.8,51.9,1.9405,373.5664],
    [7304,1532801132,56.831,-111.3531,800.9,438.9,94.4,1.7,4.2,22.65,51.36,1.9386,373.1482],
    [7305,1532801133,56.831,-111.3519,800.8,438.8,94.3,1.5,4.3,22.15,52.44,1.9367,373.5126],
    [7306,1532801134,56.831,-111.3508,801.4,438.4,94.0,1.1,4.3,22.79,51.97,1.9378,373.9945],
    [7307,1532801135,56.831,-111.3497,802.1,439.1,92.9,1.1,3.5,22.24,52.65,1.938,372.8602],
    [7308,1532801136,56.831,-111.3486,802.2,439.2,92.7,1.6,3.9,22.64,51.47,1.9376,373.6214],
    [7309,1532801137,56.831,-111.3475,801.2,438.2,92.7,2.4,4.1,22.14,52.06,1.939,372.2529],
    [7310,1532801138,56.831,-111.3464,799.9,436.9,92.9,4.2,4.3,22.24,52.34,1.9405,372.5876],
    [7311,1532801139,56.8311,-111.3452,798.9,436.9,93.8,5.6,5.3,22.19,52.15,1.9398,373.3237],
    [7312,1532801140,56.8311,-111.3441,797.3,435.3,94.3,5.6,5.7,22.44,51.8,1.9396,373.3862],
    [7313,1532801141,56.8311,-111.3429,795.8,433.8,93.2,5.2,4.5,22.07,52.52,1.9414,372.4177],
    [7314,1532801142,56.8311,-111.3418,794.8,431.6,92.2,4.9,3.9,22.5,52.19,1.9416,373.7162],
    [7315,1532801143,56.8311,-111.3407,794.1,431.2,91.9,5.2,4.0,21.74,52.72,1.9419,373.3242],
    [7316,1532801144,56.8311,-111.3395,794.1,430.1,91.7,5.3,4.1,22.17,53.12,1.9412,372.801],
    [7317,1532801145,56.8311,-111.3384,794.2,429.2,91.1,5.5,3.4,21.46,53.25,1.941,374.0171],
    [7318,1532801146,56.8311,-111.3372,793.4,428.4,91.9,5.8,3.9,22.13,53.78,1.9406,372.4138],
    [7319,1532801147,56.8312,-111.3361,791.9,426.9,93.5,6.2,5.0,22.57,52.26,1.9411,373.7613],
    [7320,1532801148,56.8312,-111.3349,790.8,425.1,93.3,6.7,4.4,22.02,52.87,1.9387,374.1722],
    [7321,1532801149,56.8312,-111.3337,790.6,424.6,93.0,6.7,4.1,22.18,52.84,1.9407,373.7269],
    [7322,1532801150,56.8312,-111.3326,791.3,425.3,93.2,5.9,4.3,22.62,52.9,1.9339,372.4237],
    [7323,1532801151,56.8312,-111.3315,792.6,426.6,93.6,5.4,4.4,21.81,52.43,1.935,372.6237],
    [7324,1532801152,56.8312,-111.3303,794.5,427.5,92.8,5.2,3.6,22.53,52.01,1.9358,373.7026],
    [7325,1532801153,56.8312,-111.3292,796.7,429.7,92.7,4.9,3.4,22.95,51.76,1.9364,373.5388],
    [7326,1532801154,56.8312,-111.328,799.4,431.4,93.4,5.6,3.8,22.17,52.02,1.9349,373.3647],
    [7327,1532801155,56.8312,-111.3269,803.0,435.0,93.9,5.7,3.5,22.18,51.92,1.9329,371.6463],
    [7328,1532801156,56.8312,-111.3258,806.9,437.9,93.7,5.7,2.9,22.3,52.08,1.9335,372.539],
    [7329,1532801157,56.8312,-111.3247,810.2,441.2,94.2,5.9,3.1,21.76,51.81,1.9323,373.2938],
    [7330,1532801158,56.8312,-111.3236,813.0,443.0,93.6,6.1,2.3,22.56,51.53,1.9311,373.3641],
    [7331,1532801159,56.8311,-111.3225,815.5,445.5,94.5,6.0,3.2,22.46,51.06,1.9344,373.3003],
    [7332,1532801160,56.8311,-111.3214,817.8,446.8,95.0,5.3,3.5,22.56,51.3,1.9359,372.9308],
    [7333,1532801161,56.8311,-111.3203,819.6,448.6,94.6,4.6,3.3,22.12,52.28,1.9349,374.2037],
    [7334,1532801162,56.8311,-111.3192,820.3,448.3,94.4,4.0,3.5,21.6,51.63,1.9361,374.2037],
    [7335,1532801163,56.8311,-111.3181,819.6,446.6,94.6,5.1,4.1,21.7,52.64,1.9367,372.8396],
    [7336,1532801164,56.8311,-111.317,818.1,445.1,93.6,6.2,3.5,21.58,52.0,1.9359,372.6153],
    [7337,1532801165,56.8311,-111.3159,816.9,442.9,92.6,7.0,3.1,22.49,51.97,1.9351,373.3418],
    [7338,1532801166,56.8311,-111.3148,816.6,441.7,93.0,7.7,3.6,22.01,52.67,1.9348,373.5104],
    [7339,1532801167,56.8311,-111.3137,817.7,440.7,93.3,8.2,4.1,21.87,52.89,1.9342,373.0306],
    [7340,1532801168,56.8311,-111.3126,820.4,441.3,93.1,7.6,4.3,22.65,51.76,1.936,373.1877],
    [7341,1532801169,56.8311,-111.3115,822.9,441.2,93.5,6.8,4.6,21.49,52.31,1.9348,373.474],
    [7342,1532801170,56.8311,-111.3104,824.5,439.5,93.4,7.0,3.7,22.34,52.1,1.9355,373.0866],
    [7343,1532801171,56.8311,-111.3093,826.5,437.9,92.8,6.6,2.2,21.65,52.43,1.9333,373.1228],
    [7344,1532801172,56.8311,-111.3082,828.8,436.2,94.2,5.8,3.0,21.5,53.01,1.9346,372.7236],
    [7345,1532801173,56.8311,-111.3072,832.0,435.0,95.6,5.4,4.1,22.0,52.79,1.9337,373.7097],
    [7346,1532801174,56.8311,-111.3061,835.8,434.7,95.2,4.3,3.6,21.94,52.65,1.9331,373.9834],
    [7347,1532801175,56.8311,-111.305,840.3,436.9,94.9,3.0,3.5,21.49,52.65,1.9342,373.9834],
    [7348,1532801176,56.831,-111.304,843.8,438.1,95.9,2.3,4.4,22.1,52.29,1.9336,374.2426],
    [7349,1532801177,56.831,-111.3029,847.3,439.3,96.1,2.0,4.3,22.16,52.61,1.9339,374.0462],
    [7350,1532801178,56.831,-111.3019,852.0,441.9,95.6,1.8,3.8,21.63,52.54,1.9346,372.2785],
    [7351,1532801179,56.831,-111.3009,857.6,446.3,95.2,1.6,3.9,21.28,52.96,1.9336,373.1282],
    [7352,1532801180,56.831,-111.2998,862.6,449.6,94.5,1.1,3.2,22.05,52.24,1.9322,371.8925],
    [7353,1532801181,56.831,-111.2988,867.3,452.3,94.5,0.8,3.5,21.84,52.75,1.9327,374.0517],
    [7354,1532801182,56.8309,-111.2978,870.7,455.7,94.8,0.3,3.8,21.35,52.86,1.9336,374.0716],
    [7355,1532801183,56.8309,-111.2968,873.7,458.7,93.4,-0.4,2.9,22.16,52.27,1.9333,371.8453],
    [7356,1532801184,56.8309,-111.2959,876.0,461.0,93.9,0.2,3.9,22.26,51.62,1.9322,373.5574],
    [7357,1532801185,56.8309,-111.2948,878.5,464.4,94.4,0.6,4.6,22.23,52.0,1.9318,373.5672],
    [7358,1532801186,56.8309,-111.2938,880.4,467.4,93.9,0.3,4.4,21.76,52.51,1.9311,374.2018],
    [7359,1532801187,56.8309,-111.2928,880.5,469.5,93.0,0.2,3.6,21.88,52.13,1.9329,374.0697],
    [7360,1532801188,56.8309,-111.2918,879.1,470.8,93.2,0.5,4.0,21.74,52.96,1.9331,373.3157],
    [7361,1532801189,56.8309,-111.2908,877.9,472.8,93.0,1.6,3.9,21.39,52.15,1.9325,373.3157],
    [7362,1532801190,56.8309,-111.2897,876.7,472.8,91.2,2.2,2.7,21.59,52.21,1.9326,374.6656],
    [7363,1532801191,56.831,-111.2886,875.5,471.5,90.9,1.3,2.8,21.95,51.87,1.9322,374.6656],
    [7364,1532801192,56.831,-111.2876,875.0,470.0,90.2,0.7,2.0,21.25,52.11,1.9311,373.1229],
    [7365,1532801193,56.831,-111.2865,875.2,469.3,89.9,1.5,1.9,22.1,51.99,1.931,373.0891],
    [7366,1532801194,56.831,-111.2854,875.8,468.8,90.3,2.7,2.1,21.76,52.34,1.9309,372.8288],
    [7367,1532801195,56.831,-111.2844,875.7,469.4,89.3,3.5,1.6,21.65,52.48,1.9326,372.4879],
    [7368,1532801196,56.831,-111.2833,874.6,468.5,91.2,3.8,3.3,21.08,52.56,1.9317,372.8807],
    [7369,1532801197,56.8311,-111.2822,873.9,468.4,90.9,3.9,2.6,22.0,52.14,1.9281,373.1366],
    [7370,1532801198,56.8311,-111.2812,873.2,468.9,92.5,4.0,4.1,21.95,52.03,1.9282,373.6687],
    [7371,1532801199,56.8311,-111.2801,872.3,469.3,95.1,4.0,5.4,21.64,52.87,1.9252,373.2329],
    [7372,1532801200,56.8311,-111.279,872.2,470.2,92.9,4.0,2.2,21.6,51.86,1.9255,373.0205],
    [7373,1532801201,56.8311,-111.278,872.4,470.4,94.3,4.7,3.3,21.47,51.57,1.9265,374.7628],
    [7374,1532801202,56.8311,-111.2769,871.6,468.6,96.6,5.5,4.6,21.72,51.39,1.925,373.7234],
    [7375,1532801203,56.831,-111.2758,871.5,467.5,96.8,6.5,4.4,21.91,50.82,1.926,373.7234],
    [7376,1532801204,56.831,-111.2747,873.2,468.4,96.0,6.6,3.5,21.6,51.13,1.9268,374.2796],
    [7377,1532801205,56.831,-111.2737,875.7,469.7,94.5,5.9,2.6,21.32,51.12,1.9259,374.4462],
    [7378,1532801206,56.831,-111.2726,878.0,470.7,94.4,5.4,2.9,21.55,51.76,1.9245,374.2195],
    [7379,1532801207,56.831,-111.2716,881.0,470.5,95.2,4.5,3.6,21.67,51.42,1.9288,372.8019],
    [7380,1532801208,56.8309,-111.2705,884.0,471.0,95.7,4.1,3.7,21.62,51.41,1.9321,374.4087],
    [7381,1532801209,56.8309,-111.2695,887.3,472.3,96.0,3.9,3.3,21.42,51.35,1.9319,373.627],
    [7382,1532801210,56.8309,-111.2684,890.1,472.8,94.7,3.4,2.2,21.71,51.79,1.9331,374.5842],
    [7383,1532801211,56.8309,-111.2674,892.8,473.1,94.6,3.1,2.7,22.37,51.49,1.9326,374.1464],
    [7384,1532801212,56.8308,-111.2663,894.3,473.3,95.4,2.7,4.0,21.78,52.08,1.9322,374.1778],
    [7385,1532801213,56.8308,-111.2653,894.9,473.9,94.8,2.1,3.5,22.04,51.99,1.9329,373.2138],
    [7386,1532801214,56.8308,-111.2642,895.8,474.9,94.3,1.2,3.0,21.48,52.74,1.9318,373.3897],
    [7387,1532801215,56.8308,-111.2632,897.5,477.5,95.0,0.7,3.6,21.1,52.56,1.9317,374.5213],
    [7388,1532801216,56.8308,-111.2622,900.3,480.3,95.2,-0.8,3.5,21.56,52.67,1.9274,374.1612],
    [7389,1532801217,56.8308,-111.2611,904.0,483.0,95.4,-2.7,3.7,21.55,52.33,1.9287,374.1612],
    [7390,1532801218,56.8307,-111.2601,907.4,486.1,95.2,-3.4,3.7,21.48,52.19,1.9297,374.0246],
    [7391,1532801219,56.8307,-111.2591,910.2,488.3,94.8,-3.8,3.7,21.58,52.38,1.9309,373.6891],
    [7392,1532801220,56.8307,-111.2581,912.4,489.4,96.3,-3.8,5.7,21.65,51.92,1.9307,374.5326],
    [7393,1532801221,56.8307,-111.2571,913.1,489.1,96.2,-4.3,5.5,21.62,52.47,1.9303,374.5326],
    [7394,1532801222,56.8307,-111.2561,912.4,487.4,94.9,-4.4,4.5,21.62,51.54,1.9303,375.4684],
    [7395,1532801223,56.8307,-111.255,910.7,485.2,95.8,-4.1,5.6,22.05,51.26,1.9298,373.6755],
    [7396,1532801224,56.8307,-111.254,908.2,481.4,95.4,-4.0,4.9,21.56,51.7,1.9308,372.8357],
    [7397,1532801225,56.8306,-111.253,905.6,478.6,93.7,-3.3,3.0,21.52,51.59,1.9298,372.8819],
    [7398,1532801226,56.8306,-111.2519,903.1,474.9,93.2,-2.6,2.9,22.02,50.9,1.9296,372.7665],
    [7399,1532801227,56.8306,-111.2509,900.7,471.7,92.8,-2.0,2.6,22.0,51.08,1.9295,373.8167],
    [7400,1532801228,56.8306,-111.2498,897.5,467.4,92.3,-1.3,2.6,21.63,51.23,1.9295,373.6869],
    [7401,1532801229,56.8306,-111.2488,894.9,463.8,92.9,-0.8,3.7,21.39,51.37,1.9292,372.786],
    [7402,1532801230,56.8306,-111.2477,892.0,460.0,92.9,-0.4,4.2,21.67,51.7,1.9302,372.786],
    [7403,1532801231,56.8306,-111.2466,889.3,456.3,93.0,0.7,4.4,21.33,51.39,1.9286,374.4599],
    [7404,1532801232,56.8306,-111.2455,887.4,453.3,92.8,1.3,4.6,22.36,50.81,1.9276,374.5831],
    [7405,1532801233,56.8307,-111.2443,886.7,451.7,93.8,1.8,5.7,21.68,51.64,1.9279,374.3214],
    [7406,1532801234,56.8307,-111.2432,886.3,451.2,92.9,1.8,4.7,21.74,51.3,1.9277,373.5726],
    [7407,1532801235,56.8307,-111.2421,886.1,450.1,92.6,2.5,4.3,21.7,50.68,1.9285,373.6438],
    [7408,1532801236,56.8307,-111.241,885.9,448.9,92.7,3.9,4.3,21.68,50.83,1.9272,373.696],
    [7409,1532801237,56.8307,-111.2399,885.5,447.5,92.6,4.9,3.9,21.61,50.77,1.9271,373.696],
    [7410,1532801238,56.8307,-111.2388,885.6,446.6,92.1,5.5,3.6,21.73,50.76,1.927,373.6297],
    [7411,1532801239,56.8307,-111.2376,884.7,444.7,91.5,6.0,3.2,22.12,50.04,1.926,373.1193],
    [7412,1532801240,56.8307,-111.2365,884.6,443.5,91.1,6.6,3.1,21.5,50.64,1.927,374.4893],
    [7413,1532801241,56.8308,-111.2354,886.7,445.7,90.8,6.4,2.9,22.07,50.39,1.9238,374.0401],
    [7414,1532801242,56.8308,-111.2342,888.6,446.8,89.6,6.0,2.0,21.61,51.07,1.923,374.517],
    [7415,1532801243,56.8308,-111.2331,889.3,447.3,89.7,6.7,2.4,22.14,50.38,1.9227,374.6382],
    [7416,1532801244,56.8308,-111.232,889.2,447.2,90.4,7.5,2.8,21.81,49.82,1.9227,374.6018],
    [7417,1532801245,56.8308,-111.2308,889.9,447.9,90.4,7.6,2.3,21.77,49.71,1.9228,374.6229],
    [7418,1532801246,56.8309,-111.2297,891.6,449.6,90.6,7.6,2.5,21.5,49.78,1.9224,374.7848],
    [7419,1532801247,56.8309,-111.2285,892.9,450.6,92.2,7.8,3.9,22.03,49.36,1.9235,373.6375],
    [7420,1532801248,56.8309,-111.2274,894.1,451.0,91.8,8.0,3.3,22.45,49.13,1.9229,374.8452],
    [7421,1532801249,56.8309,-111.2262,896.0,453.0,91.2,7.7,3.2,21.33,49.45,1.9244,374.4452],
    [7422,1532801250,56.8309,-111.2251,898.3,455.3,91.1,7.8,3.5,21.99,49.37,1.9257,374.3672],
    [7423,1532801251,56.8309,-111.2239,900.6,457.7,89.8,7.9,3.2,21.59,49.68,1.9259,374.2066],
    [7424,1532801252,56.831,-111.2228,902.2,458.9,88.7,7.7,3.3,21.39,49.89,1.9249,374.0105],
    [7425,1532801253,56.831,-111.2217,903.4,459.4,87.0,7.0,2.9,22.31,49.73,1.9226,373.9752],
    [7426,1532801254,56.8311,-111.2206,904.0,460.0,85.7,6.1,3.1,22.32,49.99,1.9235,374.5019],
    [7427,1532801255,56.8312,-111.2195,903.8,459.8,84.5,5.8,3.4,21.98,49.72,1.9247,374.7873],
    [7428,1532801256,56.8313,-111.2185,903.4,459.4,81.5,5.4,2.4,21.41,50.22,1.9264,373.8405],
    [7429,1532801257,56.8314,-111.2174,903.9,459.9,79.1,4.8,2.7,21.21,50.07,1.9233,374.7077],
    [7430,1532801258,56.8315,-111.2163,905.2,461.2,76.3,4.2,3.1,21.0,49.95,1.9204,375.0951],
    [7431,1532801259,56.8317,-111.2152,907.0,463.0,71.5,4.1,2.2,21.61,49.85,1.9184,374.8456],
    [7432,1532801260,56.8319,-111.2142,908.0,464.0,67.7,4.2,2.1,21.67,49.87,1.9192,374.7742],
    [7433,1532801261,56.8322,-111.2132,908.8,463.8,64.2,4.2,2.4,21.94,49.22,1.9191,374.2495],
    [7434,1532801262,56.8324,-111.2123,909.7,464.8,61.0,3.8,2.5,21.71,48.69,1.9272,374.4914],
    [7435,1532801263,56.8328,-111.2113,911.0,467.0,57.1,3.5,1.7,22.55,48.79,1.9273,374.7203],
    [7436,1532801264,56.8331,-111.2104,913.5,469.5,52.8,3.6,0.6,21.79,49.83,1.9268,375.046],
    [7437,1532801265,56.8334,-111.2096,916.0,472.0,51.1,2.9,1.5,21.64,50.67,1.9279,374.0144],
    [7438,1532801266,56.8338,-111.2087,917.4,473.4,49.2,2.0,1.6,21.31,50.81,1.9309,373.538],
    [7439,1532801267,56.8342,-111.2079,918.0,474.0,45.9,1.8,0.8,22.35,50.37,1.9315,373.7597],
    [7440,1532801268,56.8346,-111.2072,918.1,475.1,44.1,1.1,1.9,22.19,50.65,1.9326,374.0637],
    [7441,1532801269,56.8351,-111.2064,917.9,474.9,40.4,1.7,1.3,21.64,51.61,1.93,374.178],
    [7442,1532801270,56.8355,-111.2058,918.3,475.3,35.9,2.3,0.5,21.65,51.51,1.9304,373.4227],
    [7443,1532801271,56.836,-111.2051,918.7,476.6,32.5,2.2,0.2,21.79,51.77,1.9311,374.0871],
    [7444,1532801272,56.8365,-111.2045,918.9,476.9,28.4,2.9,0.3,21.82,51.13,1.9307,373.2421],
    [7445,1532801273,56.8371,-111.204,919.0,476.3,25.5,2.5,0.5,21.25,51.36,1.9287,373.7425],
    [7446,1532801274,56.8376,-111.2036,919.1,475.2,21.8,3.1,0.1,21.1,51.31,1.928,374.616],
    [7447,1532801275,56.8381,-111.2031,918.9,474.7,17.7,4.0,0.2,21.16,51.1,1.9263,374.3347],
    [7448,1532801276,56.8387,-111.2028,918.1,473.1,15.0,3.9,0.7,21.54,50.94,1.9265,373.9002],
    [7449,1532801277,56.8393,-111.2025,917.0,471.0,12.2,3.9,0.5,21.55,50.93,1.924,374.4715],
    [7450,1532801278,56.8399,-111.2022,916.0,470.0,9.7,4.1,0.2,21.84,50.06,1.9244,374.4715],
    [7451,1532801279,56.8405,-111.202,915.8,468.8,8.2,3.7,0.8,21.69,50.22,1.9261,375.4355],
    [7452,1532801280,56.8411,-111.2018,915.9,468.9,7.7,3.2,1.0,21.72,50.6,1.9264,373.511],
    [7453,1532801281,56.8417,-111.2016,916.0,468.0,6.6,3.5,1.3,21.67,51.09,1.9235,373.4473],
    [7454,1532801282,56.8423,-111.2014,916.5,467.7,5.4,4.1,1.7,21.64,50.8,1.9255,374.8972],
    [7455,1532801283,56.8429,-111.2012,916.3,467.3,5.4,3.5,1.7,21.61,50.68,1.9284,373.8448],
    [7456,1532801284,56.8435,-111.2011,917.4,468.2,5.0,3.3,2.2,21.61,50.85,1.9291,374.2297],
    [7457,1532801285,56.8441,-111.2009,919.5,470.2,3.6,3.5,2.0,21.65,50.6,1.9285,374.2678],
    [7458,1532801286,56.8447,-111.2008,921.8,471.8,3.8,1.8,1.3,21.53,50.37,1.9283,375.4099],
    [7459,1532801287,56.8454,-111.2007,923.7,473.7,2.6,2.1,1.5,21.23,50.6,1.9306,374.2262],
    [7460,1532801288,56.846,-111.2006,924.9,474.9,362.1,1.7,1.1,20.85,50.96,1.9309,374.1901],
    [7461,1532801289,56.8466,-111.2006,925.4,475.4,361.9,1.3,1.5,21.36,51.21,1.9322,373.8133],
    [7462,1532801290,56.8472,-111.2005,925.8,476.8,360.8,2.0,1.4,21.68,51.45,1.9328,373.8443],
    [7463,1532801291,56.8479,-111.2005,925.6,476.6,359.5,3.4,0.1,21.16,51.14,1.9343,373.1808],
    [7464,1532801292,56.8485,-111.2004,924.0,475.0,357.6,5.3,0.1,21.64,51.89,1.9344,374.4534],
    [7465,1532801293,56.8491,-111.2004,922.9,473.9,356.8,5.2,0.4,21.99,51.26,1.9331,373.3919],
    [7466,1532801294,56.8497,-111.2004,923.2,474.2,356.9,4.1,1.0,22.02,51.19,1.9353,374.0981],
    [7467,1532801295,56.8503,-111.2004,923.9,475.9,356.4,4.3,1.3,21.38,51.66,1.9335,373.4433],
    [7468,1532801296,56.851,-111.2004,924.3,476.3,356.3,4.2,1.0,21.85,51.14,1.9308,373.7615],
    [7469,1532801297,56.8516,-111.2004,924.0,476.0,356.6,3.9,0.7,21.07,51.83,1.9275,375.0034],
    [7470,1532801298,56.8522,-111.2004,923.3,475.3,356.0,4.8,0.0,21.46,51.6,1.924,374.1559],
    [7471,1532801299,56.8528,-111.2004,922.1,474.1,356.0,4.9,-0.4,21.67,51.27,1.9252,373.5757],
    [7472,1532801300,56.8534,-111.2004,920.7,472.7,356.0,5.2,-0.1,21.96,50.33,1.9257,374.9448],
    [7473,1532801301,56.8541,-111.2004,919.4,471.4,356.0,5.3,0.6,21.77,49.83,1.9238,374.6557],
    [7474,1532801302,56.8547,-111.2004,918.9,470.9,356.3,4.7,1.7,21.8,49.68,1.9258,375.4325],
    [7475,1532801303,56.8554,-111.2004,919.0,471.0,357.9,2.4,3.1,22.06,49.36,1.927,374.3121],
    [7476,1532801304,56.856,-111.2004,918.5,470.5,358.8,1.4,4.0,21.88,49.04,1.9245,374.7495],
    [7477,1532801305,56.8566,-111.2004,918.1,470.1,357.0,3.4,4.7,21.6,49.61,1.9249,374.5868],
    [7478,1532801306,56.8573,-111.2004,917.4,470.4,356.5,3.7,4.8,22.15,49.25,1.9284,374.5868],
    [7479,1532801307,56.8579,-111.2004,916.5,469.5,356.9,3.3,4.6,22.26,49.44,1.9317,374.1605],
    [7480,1532801308,56.8586,-111.2004,915.9,468.9,357.0,3.1,4.4,21.78,49.5,1.928,375.3424],
    [7481,1532801309,56.8592,-111.2004,915.6,468.6,357.6,2.4,4.4,21.64,50.2,1.9238,375.7774],
    [7482,1532801310,56.8599,-111.2004,915.0,469.0,357.3,2.6,4.1,21.61,50.79,1.9247,374.5266],
    [7483,1532801311,56.8605,-111.2004,913.9,467.9,356.3,3.4,3.9,21.27,50.24,1.9259,374.6904],
    [7484,1532801312,56.8612,-111.2005,912.7,466.7,355.6,4.3,4.0,21.98,49.91,1.9292,372.7441],
    [7485,1532801313,56.8619,-111.2005,911.7,465.7,355.9,4.1,4.3,21.57,50.15,1.9299,373.8443],
    [7486,1532801314,56.8625,-111.2005,910.9,464.9,357.5,3.0,4.7,22.0,49.63,1.927,375.3965],
    [7487,1532801315,56.8632,-111.2005,910.9,464.9,357.9,3.0,4.5,21.48,51.28,1.927,374.5589],
    [7488,1532801316,56.8638,-111.2005,911.6,465.6,358.4,2.7,4.2,21.52,50.79,1.9295,373.8306],
    [7489,1532801317,56.8645,-111.2005,912.7,466.7,358.0,3.4,4.6,21.12,50.42,1.9316,374.4664],
    [7490,1532801318,56.8652,-111.2004,914.5,468.5,358.1,3.3,4.7,21.69,50.52,1.9324,374.573],
    [7491,1532801319,56.8658,-111.2004,915.9,469.9,359.6,2.1,4.8,22.03,50.32,1.9316,374.9043],
    [7492,1532801320,56.8665,-111.2004,916.6,470.6,359.1,3.1,4.7,22.06,50.61,1.9304,374.5894],
    [7493,1532801321,56.8671,-111.2004,916.9,470.9,359.3,2.7,4.1,21.62,51.27,1.9332,374.6244],
    [7494,1532801322,56.8678,-111.2003,916.6,470.6,359.4,2.6,3.6,21.34,51.45,1.9335,375.1155],
    [7495,1532801323,56.8684,-111.2003,916.6,470.5,358.3,3.2,4.2,20.97,51.27,1.9319,371.9066],
    [7496,1532801324,56.8691,-111.2003,916.1,471.1,358.3,2.8,4.5,21.53,51.6,1.933,373.7787],
    [7497,1532801325,56.8697,-111.2003,915.6,470.6,356.9,3.7,3.9,21.45,51.94,1.9327,374.3045],
    [7498,1532801326,56.8704,-111.2003,915.3,470.3,356.2,3.8,3.5,21.39,51.78,1.9265,374.9347],
    [7499,1532801327,56.871,-111.2003,915.5,470.5,355.5,4.1,3.2,21.41,51.51,1.9236,376.0014],
    [7500,1532801328,56.8717,-111.2003,915.8,470.8,355.8,3.2,2.9,21.36,51.11,1.9225,375.3524],
    [7501,1532801329,56.8723,-111.2004,916.3,471.3,356.4,2.9,2.6,21.62,50.34,1.9198,373.6197],
    [7502,1532801330,56.8729,-111.2004,917.2,472.2,355.8,3.9,2.0,22.12,49.34,1.9191,375.7709],
    [7503,1532801331,56.8736,-111.2004,918.1,473.1,356.1,3.7,1.8,21.19,49.14,1.9265,375.0637],
    [7504,1532801332,56.8742,-111.2004,918.4,473.4,356.7,3.3,1.8,21.42,48.67,1.9303,374.3423],
    [7505,1532801333,56.8749,-111.2004,918.6,473.6,357.2,3.0,2.5,21.24,48.7,1.9301,375.0587],
    [7506,1532801334,56.8755,-111.2004,918.5,474.5,357.5,3.0,3.0,21.59,49.04,1.9307,374.1961],
    [7507,1532801335,56.8762,-111.2004,917.6,474.6,358.4,2.3,3.1,21.56,49.95,1.9317,373.976],
    [7508,1532801336,56.8768,-111.2004,916.7,474.3,358.1,3.0,3.6,21.54,50.44,1.9319,374.5539],
    [7509,1532801337,56.8774,-111.2004,915.2,473.2,358.5,2.6,3.9,22.25,50.16,1.9316,373.274],
    [7510,1532801338,56.8781,-111.2004,913.6,472.7,359.5,2.0,4.7,21.35,51.3,1.9309,373.482],
    [7511,1532801339,56.8787,-111.2004,911.7,470.7,359.6,2.2,5.5,21.61,51.99,1.9256,374.5785],
    [7512,1532801340,56.8794,-111.2003,909.2,469.1,360.5,1.6,5.4,21.44,51.69,1.9255,374.4342],
    [7513,1532801341,56.8801,-111.2003,906.7,468.8,360.1,2.4,5.6,21.51,51.44,1.9256,373.7963],
    [7514,1532801342,56.8807,-111.2003,905.0,468.2,359.0,3.5,5.7,21.6,51.88,1.9252,374.8953],
    [7515,1532801343,56.8814,-111.2002,904.2,467.3,359.4,3.0,5.2,21.1,50.82,1.9243,374.1172],
    [7516,1532801344,56.882,-111.2002,904.3,467.3,358.9,3.5,4.7,21.55,50.65,1.9244,373.9596],
    [7517,1532801345,56.8827,-111.2001,905.2,469.2,358.5,4.0,4.3,21.65,50.68,1.9249,374.9232],
    [7518,1532801346,56.8833,-111.2001,906.2,471.2,359.0,3.6,3.4,21.09,50.42,1.9258,375.6737],
    [7519,1532801347,56.884,-111.2001,908.2,476.8,359.4,3.1,2.7,21.55,50.48,1.9306,373.9994],
    [7520,1532801348,56.8846,-111.2,909.9,482.6,359.4,2.9,2.7,22.1,50.16,1.9316,373.9994],
    [7521,1532801349,56.8853,-111.2,910.9,486.9,359.5,2.9,2.2,21.83,50.62,1.9308,373.7498],
    [7522,1532801350,56.8859,-111.1999,911.2,491.2,359.3,3.2,1.8,22.06,50.56,1.9263,374.6537],
    [7523,1532801351,56.8865,-111.1999,910.9,493.6,359.8,2.6,1.9,21.52,51.0,1.9284,374.6537],
    [7524,1532801352,56.8872,-111.1999,910.4,496.5,360.1,2.1,2.2,21.82,50.55,1.9309,373.5905],
    [7525,1532801353,56.8879,-111.1998,910.2,500.9,360.2,1.6,2.3,21.27,51.56,1.932,373.5274],
    [7526,1532801354,56.8885,-111.1998,910.2,504.9,359.4,2.0,2.1,21.37,51.7,1.934,374.7268],
    [7527,1532801355,56.8892,-111.1998,910.2,509.2,358.0,3.0,2.1,21.5,52.29,1.9331,372.7118],
    [7528,1532801356,56.8898,-111.1998,909.6,515.5,357.0,3.1,2.3,21.63,52.42,1.9319,374.4287],
    [7529,1532801357,56.8904,-111.1998,908.4,518.6,356.5,3.1,2.5,21.23,52.57,1.9344,373.9114],
    [7530,1532801358,56.8911,-111.1998,906.8,521.6,356.0,3.1,2.7,21.37,52.52,1.9311,373.9571],
    [7531,1532801359,56.8918,-111.1999,904.5,526.1,356.0,3.0,3.3,22.12,51.81,1.9314,374.168],
    [7532,1532801360,56.8924,-111.1999,902.6,528.5,355.9,3.1,3.6,21.32,52.31,1.9312,374.3099],
    [7533,1532801361,56.8931,-111.1999,900.8,531.8,356.7,2.7,3.5,22.31,51.77,1.9303,374.6159],
    [7534,1532801362,56.8937,-111.1999,898.6,536.2,357.4,2.6,3.4,22.06,51.7,1.925,374.6284],
    [7535,1532801363,56.8944,-111.1999,896.2,536.5,357.9,2.7,3.3,21.57,51.86,1.9226,374.2418],
    [7536,1532801364,56.895,-111.1999,893.4,534.7,358.9,1.8,3.7,21.59,51.83,1.925,374.3401],
    [7537,1532801365,56.8957,-111.1999,890.1,531.0,359.1,1.8,4.4,21.64,51.28,1.9285,373.9674],
    [7538,1532801366,56.8963,-111.1999,887.1,528.1,357.3,3.6,4.3,21.51,50.39,1.9275,374.5529],
    [7539,1532801367,56.897,-111.1999,885.6,523.0,359.2,1.5,4.2,21.63,50.55,1.9292,373.7926],
    [7540,1532801368,56.8977,-111.1999,885.8,518.0,359.7,1.5,4.6,21.59,50.8,1.9315,373.8613],
    [7541,1532801369,56.8983,-111.1999,886.9,511.1,359.7,2.2,5.2,21.99,50.59,1.9314,374.0229],
    [7542,1532801370,56.899,-111.1998,888.5,499.8,360.5,1.7,5.5,21.62,50.97,1.9323,374.5221],
    [7543,1532801371,56.8996,-111.1998,889.6,493.0,361.2,1.0,5.5,21.69,51.15,1.9316,374.1764],
    [7544,1532801372,56.9003,-111.1998,890.6,484.2,360.5,2.0,4.9,21.52,51.29,1.9308,373.5221],
    [7545,1532801373,56.901,-111.1997,890.8,476.6,359.4,3.0,3.9,21.59,51.39,1.9316,373.4999],
    [7546,1532801374,56.9016,-111.1997,890.2,469.4,360.4,1.7,3.5,22.17,50.99,1.9311,374.2672],
    [7547,1532801375,56.9023,-111.1996,889.1,463.0,359.8,2.3,3.3,21.99,51.16,1.9285,374.9782],
    [7548,1532801376,56.9029,-111.1996,887.4,462.4,359.5,2.4,3.6,21.84,51.43,1.9245,375.2393],
    [7549,1532801377,56.9036,-111.1996,885.3,463.6,359.6,2.1,3.9,21.88,51.25,1.9256,374.4907],
    [7550,1532801378,56.9043,-111.1996,882.6,465.4,359.4,2.1,3.2,21.33,50.74,1.9243,375.3218],
    [7551,1532801379,56.9049,-111.1995,881.3,462.0,359.3,2.3,2.9,21.55,50.36,1.9235,374.9452],
    [7552,1532801380,56.9056,-111.1995,881.0,454.3,359.5,2.0,2.5,21.61,50.4,1.9226,375.288],
    [7553,1532801381,56.9062,-111.1995,881.4,450.4,359.2,2.2,2.8,21.41,50.17,1.922,375.288],
    [7554,1532801382,56.9069,-111.1995,882.4,448.5,358.0,3.3,2.8,21.13,49.15,1.9283,374.2554],
    [7555,1532801383,56.9076,-111.1995,883.5,447.5,358.0,3.0,2.4,21.23,49.3,1.9294,375.5913],
    [7556,1532801384,56.9082,-111.1995,884.1,448.1,358.2,2.7,2.5,22.11,49.11,1.9296,375.8183],
    [7557,1532801385,56.9089,-111.1995,884.0,448.0,357.8,2.7,2.5,21.29,49.84,1.9277,375.054],
    [7558,1532801386,56.9095,-111.1995,882.9,447.9,358.6,1.5,2.7,21.6,49.83,1.9283,375.078],
    [7559,1532801387,56.9102,-111.1995,880.9,445.9,358.0,2.0,3.6,21.17,49.96,1.9323,375.455],
    [7560,1532801388,56.9109,-111.1995,878.2,443.2,357.1,2.8,5.3,21.42,50.63,1.9302,373.8988],
    [7561,1532801389,56.9115,-111.1995,876.1,441.1,356.7,3.0,6.8,21.58,50.96,1.9259,375.2654],
    [7562,1532801390,56.9122,-111.1995,875.2,440.2,356.6,2.9,7.7,21.26,51.09,1.929,375.0874],
    [7563,1532801391,56.9128,-111.1995,874.6,439.6,357.3,2.3,8.2,21.22,51.06,1.9323,373.9327],
    [7564,1532801392,56.9135,-111.1995,874.0,438.0,356.2,3.5,8.9,21.72,51.81,1.9326,375.2612],
    [7565,1532801393,56.9142,-111.1995,873.4,440.6,356.1,3.1,9.3,22.3,51.1,1.9309,374.2173],
    [7566,1532801394,56.9148,-111.1996,872.8,446.5,356.0,2.9,9.6,22.14,51.22,1.9319,374.2545],
    [7567,1532801395,56.9155,-111.1996,872.7,447.7,355.2,3.2,9.4,21.64,51.95,1.9316,374.53],
    [7568,1532801396,56.9162,-111.1996,872.8,438.8,355.5,2.6,9.6,21.62,52.59,1.9341,374.4223],
    [7569,1532801397,56.9168,-111.1997,873.0,433.6,355.2,2.5,10.5,21.81,52.09,1.9337,373.2121],
    [7570,1532801398,56.9175,-111.1997,873.7,430.7,355.3,2.0,10.8,21.35,52.46,1.9341,373.7051],
    [7571,1532801399,56.9182,-111.1998,874.8,430.8,354.9,2.2,10.7,21.89,52.39,1.9346,373.7388],
    [7572,1532801400,56.9189,-111.1998,876.9,431.9,354.4,2.5,10.4,21.78,53.58,1.9343,372.7789],
    [7573,1532801401,56.9195,-111.1999,880.4,435.4,354.6,2.6,9.9,21.21,53.7,1.9341,374.2342],
    [7574,1532801402,56.9202,-111.2,884.9,438.9,354.6,3.1,9.3,21.33,54.3,1.936,373.7581],
    [7575,1532801403,56.9208,-111.2,890.6,444.6,355.2,3.0,7.3,21.0,53.92,1.9346,372.872],
    [7576,1532801404,56.9214,-111.2,895.4,449.4,355.3,3.2,6.1,21.71,53.92,1.935,373.1558],
    [7577,1532801405,56.9221,-111.2001,899.2,453.2,354.9,3.9,5.3,21.58,54.06,1.9337,373.0956],
    [7578,1532801406,56.9227,-111.2001,903.3,457.3,355.7,3.8,4.6,21.85,54.16,1.9332,374.0878],
    [7579,1532801407,56.9233,-111.2001,908.1,462.2,356.8,3.3,4.9,22.01,53.72,1.9331,373.6666],
    [7580,1532801408,56.9239,-111.2001,913.1,468.1,357.7,2.9,4.6,21.59,54.51,1.9325,374.4339],
    [7581,1532801409,56.9245,-111.2001,917.4,472.3,358.3,2.7,4.2,21.46,54.97,1.9296,374.8211],
    [7582,1532801410,56.9251,-111.2001,920.4,476.4,357.7,3.2,3.6,21.65,54.38,1.9227,373.8561],
    [7583,1532801411,56.9257,-111.2001,922.5,478.5,357.3,3.3,2.4,21.21,53.82,1.9211,375.4269],
    [7584,1532801412,56.9263,-111.2001,923.5,479.5,357.5,2.8,2.3,21.35,53.76,1.9223,375.8592],
    [7585,1532801413,56.9269,-111.2001,923.7,479.7,356.7,3.7,2.5,20.78,52.49,1.9262,375.4928],
    [7586,1532801414,56.9275,-111.2001,924.5,480.5,356.3,3.6,2.7,21.12,51.64,1.9316,373.7089],
    [7587,1532801415,56.9281,-111.2001,925.0,481.0,356.3,2.9,2.7,21.6,51.65,1.9314,373.3535],
    [7588,1532801416,56.9287,-111.2001,924.6,480.6,354.7,4.0,2.6,20.95,52.37,1.9286,376.2841],
    [7589,1532801417,56.9293,-111.2002,924.1,479.1,353.1,4.8,2.6,21.61,52.06,1.9264,376.2841],
    [7590,1532801418,56.9299,-111.2002,923.4,478.3,354.3,3.3,2.0,21.29,52.81,1.9267,375.5939],
    [7591,1532801419,56.9305,-111.2003,922.5,476.5,355.0,2.8,1.4,21.44,52.33,1.9282,375.1676],
    [7592,1532801420,56.9311,-111.2003,922.0,475.0,354.3,3.7,1.2,21.54,51.96,1.9292,376.2103],
    [7593,1532801421,56.9317,-111.2004,922.4,475.4,354.1,3.9,1.0,21.28,52.17,1.9291,375.043],
    [7594,1532801422,56.9323,-111.2004,923.4,476.4,354.8,3.5,1.0,21.23,52.5,1.9296,374.7888],
    [7595,1532801423,56.9329,-111.2004,924.0,477.0,354.5,3.8,1.4,21.06,52.2,1.9301,374.4315],
    [7596,1532801424,56.9336,-111.2005,922.9,475.9,355.4,3.2,1.5,21.43,52.04,1.9285,374.4315],
    [7597,1532801425,56.9342,-111.2005,920.3,472.3,355.9,3.1,1.6,21.15,52.35,1.9283,375.7983],
    [7598,1532801426,56.9348,-111.2005,918.1,470.0,355.7,3.5,2.1,21.77,51.59,1.9286,375.8921],
    [7599,1532801427,56.9354,-111.2006,916.2,469.2,356.1,2.9,2.5,21.35,52.11,1.9309,375.3497],
    [7600,1532801428,56.9361,-111.2006,915.0,468.0,356.5,2.6,2.1,21.39,52.91,1.9328,373.566],
    [7601,1532801429,56.9367,-111.2006,914.2,466.8,356.1,3.0,1.6,21.57,52.23,1.9313,374.4798],
    [7602,1532801430,56.9373,-111.2006,913.0,465.1,355.9,3.1,2.4,21.23,52.72,1.932,374.4798],
    [7603,1532801431,56.9379,-111.2007,911.4,462.4,355.3,3.3,3.1,21.47,52.93,1.9334,373.538],
    [7604,1532801432,56.9385,-111.2007,909.3,460.3,355.7,2.7,3.4,21.79,53.19,1.933,374.2307],
    [7605,1532801433,56.9391,-111.2007,906.5,457.5,355.5,3.1,3.6,21.17,53.8,1.93,374.6827],
    [7606,1532801434,56.9398,-111.2008,903.3,453.3,354.7,3.8,3.5,20.73,53.81,1.926,375.2815],
    [7607,1532801435,56.9404,-111.2008,900.0,450.0,354.9,3.4,3.5,21.2,53.91,1.9267,375.8407],
    [7608,1532801436,56.941,-111.2009,897.1,447.1,355.4,2.7,3.7,21.75,52.46,1.9281,375.0701],
    [7609,1532801437,56.9417,-111.2009,895.5,445.5,354.7,3.4,4.3,21.3,52.54,1.9295,374.6584],
    [7610,1532801438,56.9423,-111.201,894.8,444.8,354.9,3.4,4.4,21.33,52.62,1.931,373.6105],
    [7611,1532801439,56.9429,-111.201,894.5,444.5,355.5,3.2,4.1,21.47,52.13,1.9332,376.2134],
    [7612,1532801440,56.9436,-111.201,894.0,444.0,355.8,3.3,4.3,21.15,52.44,1.9349,373.1316],
    [7613,1532801441,56.9442,-111.201,893.6,443.6,355.9,3.6,4.7,21.23,53.11,1.935,374.0851],
    [7614,1532801442,56.9449,-111.2011,893.5,443.5,356.2,3.9,4.6,21.09,54.12,1.9362,374.0851],
    [7615,1532801443,56.9455,-111.2011,893.9,443.9,357.0,3.6,4.2,21.69,53.62,1.9349,373.9173],
    [7616,1532801444,56.9461,-111.2011,894.8,445.8,358.0,3.3,4.0,21.46,55.02,1.9353,373.6418],
    [7617,1532801445,56.9468,-111.201,895.6,446.6,359.6,2.2,3.8,21.38,55.21,1.9361,372.6804],
    [7618,1532801446,56.9474,-111.201,896.4,447.4,360.2,2.4,3.7,21.14,55.9,1.935,373.6179],
    [7619,1532801447,56.9481,-111.201,897.0,448.0,360.1,3.0,3.1,21.71,54.94,1.9354,373.7471],
    [7620,1532801448,56.9487,-111.2009,897.5,448.5,360.8,2.7,3.2,21.11,55.27,1.9351,373.1598],
    [7621,1532801449,56.9493,-111.2008,898.1,449.3,360.7,3.4,3.6,21.56,54.99,1.9347,372.8207],
    [7622,1532801450,56.95,-111.2008,898.9,450.9,359.6,4.5,3.1,21.16,55.34,1.9357,372.8181],
    [7623,1532801451,56.9506,-111.2007,899.8,451.8,360.7,3.2,3.4,21.3,55.27,1.9306,374.4105],
    [7624,1532801452,56.9512,-111.2006,900.8,452.8,360.8,3.6,3.8,21.67,54.6,1.9316,375.1097],
    [7625,1532801453,56.9518,-111.2005,901.6,453.6,360.6,4.1,3.0,21.88,54.17,1.9336,375.3241],
    [7626,1532801454,56.9525,-111.2005,902.6,454.9,361.5,3.7,3.1,21.03,54.38,1.9339,373.4697],
    [7627,1532801455,56.9531,-111.2004,903.3,456.3,361.8,4.0,3.4,21.42,54.12,1.9336,373.6747],
    [7628,1532801456,56.9537,-111.2003,904.8,457.8,361.7,4.3,2.9,21.25,55.14,1.9312,375.2624],
    [7629,1532801457,56.9543,-111.2002,906.8,459.8,2.7,3.2,2.4,21.57,54.19,1.9287,374.878],
    [7630,1532801458,56.955,-111.2001,907.4,460.4,3.0,2.7,2.4,21.07,53.91,1.9285,374.878],
    [7631,1532801459,56.9556,-111.2,907.5,460.8,2.6,3.0,2.4,21.07,53.67,1.9302,375.2324],
    [7632,1532801460,56.9562,-111.1999,907.8,461.8,362.0,3.3,2.1,21.3,53.47,1.9326,374.4542],
    [7633,1532801461,56.9568,-111.1998,908.4,462.4,361.6,3.1,2.1,20.75,53.19,1.9318,373.4469],
    [7634,1532801462,56.9574,-111.1997,908.1,461.4,362.2,2.3,2.5,21.81,52.59,1.9329,374.4069],
    [7635,1532801463,56.9581,-111.1996,907.9,461.9,361.5,3.5,2.8,21.47,53.21,1.9339,372.9477],
    [7636,1532801464,56.9587,-111.1995,909.0,463.0,361.1,3.8,3.3,21.21,53.65,1.937,373.2592],
    [7637,1532801465,56.9593,-111.1995,909.9,462.9,361.8,2.8,4.4,21.25,54.26,1.9359,373.181],
    [7638,1532801466,56.96,-111.1994,911.0,464.0,361.0,3.4,5.1,21.39,54.33,1.9362,373.2433],
    [7639,1532801467,56.9606,-111.1993,910.1,463.1,360.9,3.6,4.4,21.18,54.68,1.9358,372.9978],
    [7640,1532801468,56.9612,-111.1992,909.6,462.3,360.8,3.3,4.7,20.69,55.11,1.9336,373.3487],
    [7641,1532801469,56.9618,-111.1992,909.0,461.0,361.9,1.7,5.1,21.11,55.1,1.9342,373.2809],
    [7642,1532801470,56.9625,-111.1991,907.9,459.9,361.3,2.1,4.5,20.6,55.16,1.9351,374.1178],
    [7643,1532801471,56.9631,-111.199,906.6,458.9,360.4,2.7,4.4,21.44,54.8,1.936,373.0689],
    [7644,1532801472,56.9637,-111.199,905.0,457.3,360.1,2.2,5.2,20.8,54.95,1.9349,372.7901],
    [7645,1532801473,56.9644,-111.199,904.1,456.1,359.0,2.6,6.2,21.51,54.91,1.9321,373.6955],
    [7646,1532801474,56.965,-111.1989,904.1,456.1,358.3,2.3,6.7,21.91,54.68,1.9349,373.5129],
    [7647,1532801475,56.9656,-111.1989,904.2,456.2,357.7,2.4,6.5,21.36,54.95,1.9343,374.3228],
    [7648,1532801476,56.9663,-111.199,904.8,457.1,356.1,3.3,6.4,21.24,55.13,1.9344,373.8481],
    [7649,1532801477,56.9669,-111.199,905.4,458.4,356.0,2.9,6.0,21.51,55.04,1.9362,374.2515],
    [7650,1532801478,56.9675,-111.199,906.3,459.3,355.8,2.8,5.3,20.51,54.8,1.9353,374.1062],
    [7651,1532801479,56.9682,-111.199,908.1,461.1,355.7,2.2,4.5,21.99,54.46,1.9341,374.288],
    [7652,1532801480,56.9688,-111.1991,911.1,464.1,356.1,1.3,3.9,20.71,54.56,1.9317,375.5426],
    [7653,1532801481,56.9694,-111.1992,914.0,467.0,355.7,1.6,4.0,21.29,54.09,1.9322,373.9925],
    [7654,1532801482,56.97,-111.1992,916.9,470.6,355.0,1.9,4.3,21.22,54.2,1.9327,374.6222],
    [7655,1532801483,56.9706,-111.1993,919.4,473.1,354.9,1.6,4.5,21.18,54.39,1.932,374.4736],
    [7656,1532801484,56.9712,-111.1993,920.8,474.5,354.4,2.2,3.8,21.08,53.9,1.9323,375.3436],
    [7657,1532801485,56.9719,-111.1994,921.5,475.5,354.2,2.3,3.2,21.27,53.73,1.9344,375.0799],
    [7658,1532801486,56.9725,-111.1995,921.8,475.8,354.8,1.6,3.0,21.04,53.77,1.9343,375.7635],
    [7659,1532801487,56.9731,-111.1996,922.5,476.5,354.0,1.9,3.8,20.91,53.74,1.9333,375.5368],
    [7660,1532801488,56.9737,-111.1996,923.6,477.6,354.2,1.3,4.1,21.17,54.29,1.9323,375.4205],
    [7661,1532801489,56.9743,-111.1997,923.7,477.7,353.5,2.5,3.9,21.65,53.54,1.932,375.2751],
    [7662,1532801490,56.9749,-111.1998,924.0,478.6,353.1,3.3,3.6,21.15,54.09,1.929,375.3052],
    [7663,1532801491,56.9755,-111.1999,924.2,479.2,355.3,1.8,3.1,20.85,53.77,1.9271,375.5958],
    [7664,1532801492,56.9761,-111.1999,923.5,479.5,355.2,2.8,2.7,20.48,53.78,1.9253,373.7342],
    [7665,1532801493,56.9767,-111.2,922.7,478.7,356.3,2.4,2.3,21.1,52.49,1.9251,373.7342],
    [7666,1532801494,56.9773,-111.2,921.8,478.8,357.5,2.4,2.8,20.37,52.24,1.9297,375.2199],
    [7667,1532801495,56.978,-111.2,921.6,479.6,357.9,2.9,3.0,21.07,52.54,1.9319,375.305],
    [7668,1532801496,56.9786,-111.2,922.0,480.9,359.1,2.4,2.2,21.15,52.33,1.9332,374.8787],
    [7669,1532801497,56.9792,-111.1999,922.9,483.6,359.9,2.2,1.9,21.08,52.62,1.9344,374.6871],
    [7670,1532801498,56.9798,-111.1999,924.7,486.0,360.1,2.2,1.8,21.28,52.47,1.9248,374.2828],
    [7671,1532801499,56.9804,-111.1999,926.0,488.0,359.1,2.8,1.6,21.2,53.46,1.9314,374.0852],
    [7672,1532801500,56.981,-111.1998,926.3,488.3,358.5,3.1,1.9,21.14,53.33,1.9339,374.1624],
    [7673,1532801501,56.9816,-111.1998,926.1,488.1,358.4,3.0,1.9,20.94,52.62,1.9342,374.1667],
    [7674,1532801502,56.9823,-111.1998,925.3,487.3,360.0,1.1,1.1,21.16,52.46,1.9234,374.7335],
    [7675,1532801503,56.9829,-111.1998,924.7,486.7,360.1,1.5,0.9,20.86,52.65,1.9105,374.7111],
    [7676,1532801504,56.9835,-111.1998,924.7,486.7,359.2,2.4,1.0,21.4,50.11,1.9109,375.2799],
    [7677,1532801505,56.9841,-111.1997,924.2,485.4,359.7,2.1,1.0,20.51,49.06,1.9089,373.3577],
    [7678,1532801506,56.9847,-111.1997,923.3,484.3,359.3,3.0,1.0,20.41,47.16,1.9108,374.518],
    [7679,1532801507,56.9853,-111.1997,922.8,483.8,359.7,2.9,0.9,21.86,45.11,1.912,373.7665],
    [7680,1532801508,56.986,-111.1996,923.1,485.1,360.1,3.2,1.0,21.28,45.16,1.9151,375.6192],
    [7681,1532801509,56.9866,-111.1995,924.4,486.4,359.9,3.4,1.2,21.06,45.92,1.923,375.152],
    [7682,1532801510,56.9872,-111.1995,925.9,487.9,361.7,1.8,1.5,21.87,44.87,1.9286,375.3319],
    [7683,1532801511,56.9878,-111.1994,927.1,490.1,361.2,2.7,2.1,21.05,46.87,1.9332,375.6667],
    [7684,1532801512,56.9884,-111.1994,927.5,490.5,361.0,2.4,2.1,21.61,46.91,1.9414,375.4482],
    [7685,1532801513,56.9891,-111.1993,927.7,490.7,361.8,1.7,1.7,21.16,49.64,1.943,375.3285],
    [7686,1532801514,56.9897,-111.1992,928.2,491.2,360.1,3.6,1.9,21.23,52.06,1.9394,375.0075],
    [7687,1532801515,56.9903,-111.1992,929.4,492.4,360.7,2.9,2.0,21.34,51.98,1.94,374.9796],
    [7688,1532801516,56.9909,-111.1991,930.7,493.2,2.5,1.3,2.2,21.05,52.72,1.9407,375.0016],
    [7689,1532801517,56.9915,-111.199,931.8,493.8,2.5,1.4,2.6,21.24,53.73,1.9386,376.2774],
    [7690,1532801518,56.9921,-111.199,933.0,495.0,362.2,1.4,2.0,20.9,53.64,1.9322,375.5775],
    [7691,1532801519,56.9928,-111.1989,933.4,495.4,360.6,2.6,1.2,21.57,53.44,1.9305,375.4149],
    [7692,1532801520,56.9934,-111.1989,933.0,495.0,359.7,3.2,1.6,21.44,53.29,1.9351,374.1323],
    [7693,1532801521,56.994,-111.1988,932.1,494.1,359.3,3.2,2.5,21.33,53.66,1.9369,374.1323],
    [7694,1532801522,56.9946,-111.1988,930.6,491.6,359.3,3.2,2.6,21.47,53.29,1.9405,374.0493],
    [7695,1532801523,56.9952,-111.1987,928.8,489.8,359.3,3.3,2.5,21.81,52.87,1.9398,374.4987],
    [7696,1532801524,56.9959,-111.1987,927.3,489.4,359.6,3.1,3.0,22.05,53.3,1.9397,374.7191],
    [7697,1532801525,56.9965,-111.1987,925.8,487.7,359.4,3.5,2.9,21.61,53.85,1.9419,374.3285],
    [7698,1532801526,56.9971,-111.1986,924.6,486.4,359.3,3.6,2.3,20.61,54.6,1.9419,375.3603],
    [7699,1532801527,56.9977,-111.1986,923.7,485.4,359.3,3.6,1.7,21.1,54.61,1.9396,375.535],
    [7700,1532801528,56.9983,-111.1985,922.7,483.6,359.0,3.5,1.2,21.35,54.75,1.9383,375.279],
    [7701,1532801529,56.999,-111.1985,921.8,482.5,358.5,3.6,1.4,21.19,54.6,1.9375,375.2481],
    [7702,1532801530,56.9996,-111.1985,920.7,480.9,357.1,4.2,1.4,21.65,53.87,1.9399,374.8349],
    [7703,1532801531,57.0002,-111.1985,919.0,479.4,356.5,3.9,2.0,21.35,54.35,1.9408,374.609],
    [7704,1532801532,57.0008,-111.1985,917.0,477.7,355.8,3.9,2.6,21.48,54.61,1.9418,374.609],
    [7705,1532801533,57.0014,-111.1985,915.1,476.1,354.5,4.1,3.0,21.14,54.85,1.9397,375.0253],
    [7706,1532801534,57.0021,-111.1986,913.3,474.2,353.6,4.4,3.7,21.85,54.49,1.9412,374.2625],
    [7707,1532801535,57.0027,-111.1986,911.9,472.8,353.4,4.4,3.7,21.25,54.72,1.9397,374.9968],
    [7708,1532801536,57.0033,-111.1987,910.6,471.5,354.5,3.4,2.8,20.98,54.86,1.9404,375.2621],
    [7709,1532801537,57.0039,-111.1987,909.4,470.4,354.6,3.9,2.6,21.73,54.93,1.9382,375.3232],
    [7710,1532801538,57.0046,-111.1987,908.8,469.8,355.0,3.9,2.8,21.38,55.09,1.9371,375.3262],
    [7711,1532801539,57.0052,-111.1988,907.8,468.8,356.0,3.5,3.2,21.78,53.83,1.9357,374.1943],
    [7712,1532801540,57.0058,-111.1988,906.5,467.5,356.3,3.8,3.2,21.25,53.48,1.9368,374.2447],
    [7713,1532801541,57.0064,-111.1988,904.5,465.5,356.9,3.4,2.8,20.81,53.12,1.9399,374.1776],
    [7714,1532801542,57.0071,-111.1988,902.1,463.1,358.1,2.3,2.6,21.35,53.16,1.9379,375.4818],
    [7715,1532801543,57.0077,-111.1988,899.1,459.1,358.2,2.2,2.4,21.68,51.86,1.939,374.9299],
    [7716,1532801544,57.0083,-111.1988,896.5,457.1,357.8,2.5,2.1,21.53,51.68,1.938,376.2472],
    [7717,1532801545,57.009,-111.1988,894.5,455.5,357.4,2.7,1.9,21.1,51.89,1.9395,376.9281],
    [7718,1532801546,57.0096,-111.1988,893.5,454.5,358.5,1.3,2.4,21.29,52.03,1.9395,374.5324],
    [7719,1532801547,57.0102,-111.1988,892.6,453.6,359.2,0.9,2.1,21.18,52.54,1.9405,374.8338],
    [7720,1532801548,57.0109,-111.1988,892.0,453.0,358.2,1.9,2.2,21.05,52.98,1.9422,375.2647],
    [7721,1532801549,57.0115,-111.1988,891.7,452.7,357.5,2.4,2.7,21.28,53.87,1.9437,375.9348],
    [7722,1532801550,57.0121,-111.1988,891.9,452.9,357.3,2.6,2.2,21.47,53.71,1.9457,374.4127],
    [7723,1532801551,57.0128,-111.1988,891.9,452.9,357.1,2.8,2.0,21.29,54.58,1.9449,373.3821],
    [7724,1532801552,57.0134,-111.1988,892.0,453.0,357.9,2.0,2.3,21.39,54.67,1.9436,374.7834],
    [7725,1532801553,57.014,-111.1989,892.1,453.1,358.1,1.8,2.7,21.42,55.34,1.9435,373.4461],
    [7726,1532801554,57.0146,-111.1989,892.0,453.0,357.4,2.7,3.0,21.57,54.8,1.9434,374.564],
    [7727,1532801555,57.0153,-111.1989,891.4,452.4,356.9,3.3,3.3,21.8,54.79,1.9464,374.6972],
    [7728,1532801556,57.0159,-111.1989,890.5,451.5,357.1,3.2,3.4,21.96,54.57,1.9421,375.1723],
    [7729,1532801557,57.0165,-111.1989,889.2,450.2,358.5,2.2,3.1,21.33,54.92,1.9421,374.6945],
    [7730,1532801558,57.0172,-111.1989,887.3,448.3,359.1,1.9,2.9,21.02,54.57,1.9414,374.7247],
    [7731,1532801559,57.0178,-111.1988,885.2,446.2,359.1,2.3,3.0,21.34,54.42,1.9388,375.6978],
    [7732,1532801560,57.0185,-111.1988,882.6,443.6,360.0,1.6,3.8,21.62,53.27,1.9405,374.7668],
    [7733,1532801561,57.0191,-111.1988,879.5,440.2,360.7,1.3,4.8,21.63,53.27,1.9407,376.5204],
    [7734,1532801562,57.0198,-111.1988,876.4,436.4,360.4,1.2,5.6,21.38,54.01,1.9411,376.5204],
    [7735,1532801563,57.0204,-111.1987,873.5,433.5,361.2,0.4,6.3,21.57,53.13,1.941,375.0733],
    [7736,1532801564,57.0211,-111.1987,871.3,431.3,359.7,1.9,6.8,21.03,53.39,1.9355,375.4884],
    [7737,1532801565,57.0217,-111.1987,869.7,429.7,360.2,0.2,7.2,21.76,53.05,1.941,374.973],
    [7738,1532801566,57.0224,-111.1987,868.8,428.8,361.7,-1.5,7.9,20.93,53.44,1.9421,374.5185],
    [7739,1532801567,57.023,-111.1987,868.3,428.3,356.8,2.8,8.2,21.76,52.96,1.9404,375.21],
    [7740,1532801568,57.0236,-111.1987,868.8,427.8,356.1,2.3,8.0,21.37,53.81,1.938,375.4537],
    [7741,1532801569,57.0243,-111.1987,868.8,427.8,358.6,-0.4,8.1,21.15,53.23,1.9399,376.617],
    [7742,1532801570,57.0249,-111.1988,870.4,429.4,357.9,0.1,8.6,21.67,52.8,1.9415,376.8606],
    [7743,1532801571,57.0256,-111.1988,872.8,431.8,357.4,0.8,8.7,21.28,53.36,1.9418,374.3004],
    [7744,1532801572,57.0262,-111.1988,874.8,433.8,356.3,1.8,8.1,21.09,53.4,1.9436,375.9887],
    [7745,1532801573,57.0269,-111.1989,875.8,434.1,356.3,2.3,7.5,21.6,53.84,1.9488,375.0318],
    [7746,1532801574,57.0275,-111.1989,876.3,435.2,356.5,2.6,6.9,21.96,53.87,1.9515,374.7164],
    [7747,1532801575,57.0281,-111.1989,876.7,434.7,358.3,1.6,5.6,21.36,55.1,1.9503,373.8768],
    [7748,1532801576,57.0287,-111.1989,877.8,435.8,359.3,1.5,5.3,21.35,55.34,1.95,373.8768],
    [7749,1532801577,57.0294,-111.1989,879.8,437.8,359.0,2.4,5.2,21.32,55.64,1.9486,374.6423],
    [7750,1532801578,57.03,-111.1989,882.5,440.2,359.8,1.9,5.5,21.25,55.65,1.9498,375.3928],
    [7751,1532801579,57.0306,-111.1988,884.8,441.8,359.9,2.1,5.6,21.27,56.38,1.9463,376.4303],
    [7752,1532801580,57.0312,-111.1988,886.1,443.1,359.1,2.7,5.7,20.89,56.13,1.941,375.8734],
    [7753,1532801581,57.0318,-111.1988,886.6,443.6,359.5,1.8,5.1,21.78,55.2,1.9443,375.2662],
    [7754,1532801582,57.0324,-111.1988,887.5,444.5,359.5,1.2,4.5,21.08,55.31,1.9424,375.4482],
    [7755,1532801583,57.0331,-111.1988,889.0,446.0,358.9,1.7,4.6,21.58,54.03,1.9413,376.0312],
    [7756,1532801584,57.0336,-111.1988,890.8,447.8,357.9,2.2,3.8,21.26,54.17,1.9425,375.5556],
    [7757,1532801585,57.0343,-111.1988,892.9,448.9,357.7,1.9,3.1,21.06,54.15,1.9427,375.3241],
    [7758,1532801586,57.0349,-111.1988,895.1,451.1,356.9,2.4,2.9,21.35,53.82,1.9439,375.5073],
    [7759,1532801587,57.0355,-111.1988,896.7,452.7,356.5,2.3,2.5,22.07,53.07,1.9493,376.0469],
    [7760,1532801588,57.0361,-111.1988,897.4,453.4,357.2,1.4,2.5,21.82,52.76,1.9488,375.7981],
    [7761,1532801589,57.0367,-111.1989,897.5,453.5,356.7,2.1,2.6,21.03,53.46,1.9507,375.9611],
    [7762,1532801590,57.0372,-111.1989,898.6,454.6,356.4,2.6,3.1,21.07,53.84,1.9528,375.0919],
    [7763,1532801591,57.0378,-111.1989,900.0,456.0,357.7,1.7,3.5,21.32,54.38,1.9545,375.1871],
    [7764,1532801592,57.0384,-111.1989,901.1,457.1,358.2,2.1,3.2,21.81,54.04,1.9541,375.4009],
    [7765,1532801593,57.039,-111.1989,902.9,458.9,357.5,3.0,3.2,20.83,54.85,1.9512,376.3961],
    [7766,1532801594,57.0396,-111.1989,905.2,461.2,357.9,2.5,3.2,21.07,55.01,1.9373,376.5502],
    [7767,1532801595,57.0402,-111.1989,906.1,462.1,358.6,2.0,3.1,21.04,54.96,1.9344,375.3934],
    [7768,1532801596,57.0408,-111.1989,906.4,462.4,357.1,3.7,3.5,21.77,53.76,1.9358,375.9266],
    [7769,1532801597,57.0414,-111.1989,906.8,462.8,357.3,3.4,3.5,20.58,53.77,1.9405,376.3036],
    [7770,1532801598,57.042,-111.1989,906.8,461.8,358.8,1.8,3.7,21.01,53.12,1.9345,375.5392],
    [7771,1532801599,57.0426,-111.1989,906.1,461.1,358.6,2.4,3.8,21.12,53.14,1.9351,375.6229],
    [7772,1532801600,57.0432,-111.1988,905.6,460.6,357.9,3.1,4.4,21.3,52.55,1.9317,375.5979],
    [7773,1532801601,57.0438,-111.1988,905.7,460.7,358.6,2.4,4.8,21.06,51.61,1.9219,374.7773],
    [7774,1532801602,57.0444,-111.1988,906.1,460.4,358.5,2.3,4.9,21.6,49.96,1.9114,373.7467],
    [7775,1532801603,57.045,-111.1988,907.1,461.1,358.0,2.6,5.1,20.67,49.03,1.9099,374.1801],
    [7776,1532801604,57.0456,-111.1988,908.7,462.7,357.4,3.4,5.4,21.06,47.54,1.9096,374.4698],
    [7777,1532801605,57.0462,-111.1988,910.2,464.2,357.0,3.6,5.0,21.08,46.04,1.9164,373.6386],
    [7778,1532801606,57.0468,-111.1988,910.9,464.9,358.3,2.1,4.1,21.78,45.29,1.937,375.875],
    [7779,1532801607,57.0474,-111.1988,911.5,465.5,358.0,2.4,4.6,21.11,45.83,1.9557,376.2169],
    [7780,1532801608,57.048,-111.1988,912.2,466.2,356.9,3.0,5.4,21.26,47.89,1.9589,376.8281],
    [7781,1532801609,57.0486,-111.1988,912.5,465.8,358.1,1.8,4.9,21.67,50.39,1.9601,377.5068],
    [7782,1532801610,57.0492,-111.1988,913.4,465.7,357.6,2.3,4.6,21.39,52.3,1.9613,376.6388],
    [7783,1532801611,57.0498,-111.1988,914.8,466.5,356.0,4.0,4.9,21.32,53.88,1.9624,376.687],
    [7784,1532801612,57.0504,-111.1988,917.3,468.3,355.5,4.2,4.0,21.08,55.09,1.9627,376.687],
    [7785,1532801613,57.051,-111.1988,919.7,469.8,356.7,2.8,2.6,20.65,55.44,1.9661,376.4913],
    [7786,1532801614,57.0515,-111.1988,922.5,471.1,356.6,2.5,2.3,21.22,55.38,1.9675,375.6349],
    [7787,1532801615,57.0522,-111.1989,925.9,472.9,354.3,3.3,1.7,21.31,55.99,1.9636,375.6757],
    [7788,1532801616,57.0527,-111.1989,929.3,474.6,352.3,3.1,1.1,21.52,55.96,1.9603,377.1894],
    [7789,1532801617,57.0533,-111.1991,932.3,477.4,348.8,4.0,1.2,21.35,56.62,1.9523,376.4403],
    [7790,1532801618,57.0539,-111.1992,934.7,478.7,345.1,4.7,0.7,21.67,55.61,1.944,376.3301],
    [7791,1532801619,57.0544,-111.1994,936.7,480.0,342.6,3.9,1.0,21.41,54.93,1.9521,375.4895],
    [7792,1532801620,57.055,-111.1997,938.3,481.3,339.3,3.7,1.3,21.42,54.31,1.9575,376.5545],
    [7793,1532801621,57.0555,-111.2001,938.9,481.9,335.3,4.5,0.2,21.0,54.01,1.9422,376.1375],
    [7794,1532801622,57.056,-111.2005,938.3,481.3,330.7,5.3,-1.1,21.75,53.49,1.9308,375.1978],
    [7795,1532801623,57.0565,-111.2009,937.9,480.8,326.3,4.9,-0.5,22.07,52.08,1.9231,375.2935],
    [7796,1532801624,57.057,-111.2015,937.1,481.4,321.9,4.8,0.1,21.79,50.91,1.9392,373.9229],
    [7797,1532801625,57.0574,-111.2021,936.0,481.9,316.8,5.2,0.8,21.85,49.9,1.9538,376.6767],
    [7798,1532801626,57.0578,-111.2028,934.7,483.4,313.5,4.6,0.1,21.69,49.32,1.9692,376.6767],
    [7799,1532801627,57.0582,-111.2035,933.3,483.9,308.8,4.5,2.2,21.24,49.91,1.9708,376.8385],
    [7800,1532801628,57.0586,-111.2043,931.2,483.0,305.2,3.4,3.5,21.43,51.08,1.9734,377.9904],
    [7801,1532801629,57.059,-111.2051,927.9,479.9,303.5,2.8,2.9,21.89,52.58,1.9832,376.8072],
    [7802,1532801630,57.0593,-111.2059,924.5,476.5,299.9,3.3,2.9,21.18,53.69,1.9859,376.7809],
    [7803,1532801631,57.0596,-111.2068,921.5,473.5,295.4,3.0,4.1,22.02,54.38,1.9843,377.2022],
    [7804,1532801632,57.0598,-111.2077,918.6,470.6,291.2,2.5,4.3,21.78,55.27,1.9859,377.1304],
    [7805,1532801633,57.0601,-111.2087,916.1,468.1,287.4,2.1,4.2,21.28,56.86,1.9888,376.6294],
    [7806,1532801634,57.0602,-111.2096,914.5,467.5,284.2,1.7,3.3,20.76,56.48,1.9847,377.4788],
    [7807,1532801635,57.0604,-111.2106,914.4,468.4,280.2,1.4,3.6,21.27,57.37,1.9807,375.5662],
    [7808,1532801636,57.0605,-111.2116,915.3,470.3,275.1,2.6,5.1,20.97,57.04,1.9767,376.4313],
    [7809,1532801637,57.0606,-111.2126,916.4,472.4,271.9,3.4,4.6,21.07,57.67,1.9638,376.9356],
    [7810,1532801638,57.0606,-111.2136,917.6,473.9,270.2,4.0,3.0,20.89,56.6,1.9638,376.9356],
    [7811,1532801639,57.0606,-111.2146,919.2,476.3,266.7,4.3,3.8,21.04,55.73,1.9623,376.3296],
    [7812,1532801640,57.0606,-111.2156,920.9,477.9,264.9,4.0,3.1,21.52,54.83,1.9632,377.4438],
    [7813,1532801641,57.0606,-111.2166,922.1,479.0,264.4,4.6,2.6,21.33,54.48,1.9649,376.057],
    [7814,1532801642,57.0606,-111.2175,923.2,480.2,262.3,4.7,4.2,21.26,54.05,1.967,376.244],
    [7815,1532801643,57.0605,-111.2185,924.1,481.1,263.2,5.2,3.2,20.35,54.45,1.9702,376.2642],
    [7816,1532801644,57.0605,-111.2195,923.3,480.3,264.5,6.2,2.5,20.87,54.49,1.9712,376.7374],
    [7817,1532801645,57.0605,-111.2204,921.3,479.3,263.9,5.1,4.0,21.81,54.38,1.9719,376.877],
    [7818,1532801646,57.0604,-111.2214,918.4,477.4,265.2,3.6,3.3,21.81,54.51,1.9707,376.3562],
    [7819,1532801647,57.0604,-111.2224,915.7,475.0,266.5,3.5,3.0,21.81,54.88,1.9699,376.9482],
    [7820,1532801648,57.0604,-111.2234,913.1,474.1,266.7,3.1,3.4,21.31,55.24,1.9666,375.9807],
    [7821,1532801649,57.0604,-111.2244,910.8,472.5,267.3,2.6,3.1,21.81,54.7,1.9644,376.9771],
    [7822,1532801650,57.0604,-111.2254,909.2,472.2,267.6,2.9,3.0,21.02,54.99,1.9634,376.8767],
    [7823,1532801651,57.0604,-111.2264,908.5,472.8,267.2,3.1,3.5,21.97,54.34,1.9677,376.4539],
    [7824,1532801652,57.0604,-111.2274,907.9,474.0,267.3,3.8,3.0,20.87,54.82,1.9511,377.8377],
    [7825,1532801653,57.0604,-111.2284,907.6,476.2,266.3,5.3,3.4,20.91,55.26,1.9308,374.0192],
    [7826,1532801654,57.0604,-111.2294,908.7,480.3,264.8,5.5,4.1,21.29,53.3,1.9127,374.339],
    [7827,1532801655,57.0604,-111.2304,910.4,486.4,264.4,6.4,4.0,21.66,51.68,1.9101,374.3511],
    [7828,1532801656,57.0604,-111.2314,912.1,492.1,263.8,6.9,4.5,21.19,50.02,1.9104,373.5451],
    [7829,1532801657,57.0603,-111.2324,912.9,494.9,264.0,7.4,4.0,20.98,49.4,1.9125,373.5451],
    [7830,1532801658,57.0603,-111.2334,912.9,496.9,264.9,8.3,3.3,21.44,46.77,1.9117,374.5377],
    [7831,1532801659,57.0603,-111.2344,912.8,497.5,263.7,8.6,5.3,20.87,46.53,1.9149,375.9514],
    [7832,1532801660,57.0603,-111.2354,912.5,498.5,264.3,8.4,4.9,21.4,46.63,1.9371,378.1667],
    [7833,1532801661,57.0602,-111.2363,912.2,499.2,266.5,7.8,3.6,21.4,46.88,1.9476,377.3772],
    [7834,1532801662,57.0603,-111.2373,912.8,501.8,266.4,7.9,5.2,21.45,47.55,1.9638,378.5432],
    [7835,1532801663,57.0603,-111.2384,913.5,503.5,268.6,9.3,3.6,21.3,49.43,1.9783,378.9975],
    [7836,1532801664,57.0603,-111.2394,914.0,504.7,270.9,8.5,1.7,21.7,50.9,1.9825,377.9782],
    [7837,1532801665,57.0603,-111.2404,913.7,504.7,270.3,7.8,2.7,22.2,51.68,1.9835,377.9782],
    [7838,1532801666,57.0603,-111.2414,912.5,504.5,269.9,7.7,3.3,21.66,52.68,1.9889,378.305],
    [7839,1532801667,57.0604,-111.2424,910.5,503.5,269.5,7.0,3.5,21.24,53.66,1.9943,376.9127],
    [7840,1532801668,57.0604,-111.2434,908.9,502.6,269.0,6.6,3.1,21.3,54.39,2.0051,377.4897],
    [7841,1532801669,57.0604,-111.2444,907.3,501.3,269.6,6.7,1.5,22.2,54.41,2.0073,378.3412],
    [7842,1532801670,57.0604,-111.2455,905.2,500.2,268.6,7.2,1.8,21.76,54.71,2.0119,377.5862],
    [7843,1532801671,57.0604,-111.2465,902.7,498.8,267.7,6.6,2.0,21.69,55.37,2.0136,378.0898],
    [7844,1532801672,57.0604,-111.2475,900.0,497.0,267.5,6.5,1.7,21.09,56.34,2.0111,377.7962],
    [7845,1532801673,57.0604,-111.2485,897.0,495.0,267.0,5.9,2.2,21.39,57.09,2.0103,377.3352],
    [7846,1532801674,57.0604,-111.2496,893.8,491.8,267.3,5.6,1.8,21.83,56.5,1.9896,377.093],
    [7847,1532801675,57.0604,-111.2506,890.3,489.3,268.0,6.2,1.1,21.45,56.52,1.9842,377.156],
    [7848,1532801676,57.0603,-111.2517,886.7,485.7,267.8,6.6,1.7,21.21,56.14,1.9474,378.4531],
    [7849,1532801677,57.0603,-111.2527,883.2,483.0,267.3,6.3,2.2,21.74,54.96,1.9686,377.7104],
    [7850,1532801678,57.0603,-111.2538,879.5,479.5,267.9,6.0,1.8,21.07,55.04,1.9679,377.7104],
    [7851,1532801679,57.0603,-111.2548,875.5,475.6,267.7,4.8,2.3,21.38,55.16,1.9714,377.0749],
    [7852,1532801680,57.0603,-111.2559,872.2,473.2,265.8,4.0,4.6,20.84,54.41,1.9508,378.0271],
    [7853,1532801681,57.0603,-111.257,869.9,470.9,265.3,3.7,4.9,21.28,55.24,1.9441,378.3278],
    [7854,1532801682,57.0603,-111.258,867.6,468.6,266.6,3.7,3.5,21.34,54.88,1.95,377.5322],
    [7855,1532801683,57.0603,-111.2592,864.7,466.7,266.1,4.0,4.3,21.05,54.4,1.9562,377.5322],
    [7856,1532801684,57.0603,-111.2603,862.4,464.4,266.6,3.1,4.0,21.19,54.74,1.9633,377.4978],
    [7857,1532801685,57.0603,-111.2614,860.1,463.1,266.7,2.2,3.7,21.21,55.11,1.9668,377.8916],
    [7858,1532801686,57.0603,-111.2624,858.0,461.0,266.5,2.5,4.1,21.41,55.14,1.9642,378.6706],
    [7859,1532801687,57.0603,-111.2635,856.2,460.2,266.0,2.7,4.6,21.47,55.43,1.9734,378.5898],
    [7860,1532801688,57.0603,-111.2646,855.2,459.2,267.1,2.2,3.7,21.52,55.45,1.9769,378.5898],
    [7861,1532801689,57.0603,-111.2657,854.1,459.1,267.5,1.0,3.5,21.1,55.72,1.9811,377.8325],
    [7862,1532801690,57.0603,-111.2668,853.1,458.1,267.6,0.8,3.2,21.99,55.92,1.979,377.5486],
    [7863,1532801691,57.0603,-111.2678,852.1,457.1,268.5,1.7,2.4,21.91,56.19,1.9779,378.4223],
    [7864,1532801692,57.0603,-111.2689,851.0,457.0,267.7,1.9,3.3,22.2,56.18,1.9833,378.4223],
    [7865,1532801693,57.0603,-111.27,849.6,456.6,268.0,2.1,2.8,21.38,56.68,1.9722,376.9394],
    [7866,1532801694,57.0603,-111.2711,848.0,455.7,267.9,3.0,3.0,21.08,56.75,1.9473,378.0963],
    [7867,1532801695,57.0603,-111.2721,846.5,454.5,267.4,3.2,3.3,21.15,56.86,1.9414,378.0212],
    [7868,1532801696,57.0603,-111.2732,846.1,455.4,267.3,3.3,3.1,21.28,55.93,1.9364,378.0212],
    [7869,1532801697,57.0603,-111.2743,845.5,455.5,267.5,3.6,2.7,22.01,54.46,1.9339,381.913],
    [7870,1532801698,57.0603,-111.2754,844.5,455.5,267.5,4.1,2.6,21.01,53.23,1.9342,381.6903],
    [7871,1532801699,57.0603,-111.2764,843.3,455.3,266.9,4.5,3.3,21.34,52.42,1.9279,377.7329],
    [7872,1532801700,57.0603,-111.2775,842.3,454.6,267.0,5.1,2.6,21.12,51.83,1.9237,375.9663],
    [7873,1532801701,57.0603,-111.2786,841.6,454.6,267.6,5.3,1.9,20.87,51.27,1.911,374.2021],
    [7874,1532801702,57.0603,-111.2796,841.4,454.4,266.3,4.9,3.4,21.48,49.68,1.9105,374.144],
    [7875,1532801703,57.0603,-111.2807,841.4,455.4,266.6,4.8,3.2,21.58,48.63,1.9109,374.5001],
    [7876,1532801704,57.0603,-111.2817,841.6,455.6,267.8,5.1,2.2,21.32,47.53,1.9113,373.8587],
    [7877,1532801705,57.0603,-111.2828,841.1,455.1,267.1,5.6,3.2,22.08,46.04,1.925,375.5306],
    [7878,1532801706,57.0603,-111.2838,840.7,455.4,266.1,5.7,4.0,21.96,46.01,1.9363,379.0618],
    [7879,1532801707,57.0603,-111.2849,841.0,456.0,266.9,5.5,3.0,21.17,46.67,1.9398,379.0618],
    [7880,1532801708,57.0603,-111.2859,841.3,456.3,266.5,5.3,3.5,22.23,47.59,1.9429,378.5413],
    [7881,1532801709,57.0602,-111.287,841.6,457.6,266.2,4.9,3.8,21.31,49.59,1.9487,378.5878],
    [7882,1532801710,57.0602,-111.288,841.9,457.9,267.5,4.3,2.5,21.85,50.48,1.9509,379.2656],
    [7883,1532801711,57.0602,-111.2891,841.7,458.6,268.1,3.0,2.1,21.5,51.73,1.9593,379.0142],
    [7884,1532801712,57.0602,-111.2901,841.1,459.8,268.1,2.5,2.6,21.87,52.15,1.967,378.6143],
    [7885,1532801713,57.0602,-111.2912,839.8,459.8,269.4,2.5,1.8,21.95,53.68,1.9652,378.4594],
    [7886,1532801714,57.0603,-111.2922,838.1,459.1,269.7,2.7,2.1,22.47,53.95,1.9572,378.4594],
    [7887,1532801715,57.0603,-111.2933,836.1,457.3,270.6,2.4,1.5,22.34,54.34,1.9592,378.9997],
    [7888,1532801716,57.0603,-111.2943,834.5,457.2,271.5,1.7,0.8,22.03,55.21,1.9605,378.5934],
    [7889,1532801717,57.0603,-111.2954,834.4,458.4,271.3,2.1,1.0,21.38,55.43,1.9601,378.5934],
    [7890,1532801718,57.0603,-111.2965,835.1,460.1,270.7,3.7,1.6,21.91,55.34,1.9417,378.8612],
    [7891,1532801719,57.0604,-111.2975,835.4,461.4,270.9,4.5,1.2,21.66,55.12,1.9376,378.2266],
    [7892,1532801720,57.0604,-111.2986,834.8,461.5,270.9,4.2,1.2,21.41,55.06,1.9433,378.8046],
    [7893,1532801721,57.0604,-111.2997,833.7,461.7,270.6,3.9,1.3,21.8,54.65,1.9512,376.5279],
    [7894,1532801722,57.0604,-111.3007,832.3,461.4,269.9,3.8,2.0,21.86,54.14,1.9558,377.4337],
    [7895,1532801723,57.0604,-111.3018,831.0,461.0,269.1,3.6,2.6,22.09,53.51,1.9604,378.1403],
    [7896,1532801724,57.0604,-111.3028,830.0,461.0,268.9,4.1,2.5,22.5,53.91,1.9565,377.9168],
    [7897,1532801725,57.0605,-111.3038,829.7,460.7,268.5,4.1,2.8,21.25,54.91,1.9532,377.2092],
    [7898,1532801726,57.0605,-111.3049,830.1,461.4,268.0,4.5,2.6,21.42,55.24,1.9511,378.8654],
    [7899,1532801727,57.0605,-111.3059,830.5,463.5,267.1,5.2,3.1,21.97,54.96,1.9463,377.8935],
    [7900,1532801728,57.0605,-111.307,830.2,464.2,265.5,5.3,4.4,21.64,55.66,1.9432,377.4401],
    [7901,1532801729,57.0604,-111.308,830.1,465.1,266.0,5.5,3.6,22.07,54.51,1.9458,377.0522],
    [7902,1532801730,57.0604,-111.309,830.1,465.4,267.1,5.7,2.6,21.64,54.78,1.9582,377.9726],
    [7903,1532801731,57.0604,-111.31,829.1,465.0,267.5,5.2,2.7,22.02,54.4,1.9618,378.215],
    [7904,1532801732,57.0604,-111.3111,828.0,465.0,267.0,4.8,3.8,21.72,55.01,1.9635,378.0743],
    [7905,1532801733,57.0604,-111.3121,826.3,463.3,267.8,5.0,3.4,21.7,56.14,1.9577,378.245],
    [7906,1532801734,57.0604,-111.3131,824.5,462.5,268.4,6.0,3.0,21.69,56.52,1.9543,378.1518],
    [7907,1532801735,57.0605,-111.3141,822.5,460.5,268.6,6.1,2.6,22.25,55.59,1.9547,378.7776],
    [7908,1532801736,57.0605,-111.3152,820.8,458.8,268.3,5.2,2.5,21.54,56.08,1.95,377.2907],
    [7909,1532801737,57.0605,-111.3162,819.1,457.1,267.0,5.0,3.4,21.15,55.76,1.9498,378.2864],
    [7910,1532801738,57.0605,-111.3173,818.0,456.0,266.6,4.9,3.5,21.21,55.57,1.951,378.2864],
    [7911,1532801739,57.0605,-111.3183,817.1,455.1,266.6,4.6,3.4,21.33,55.98,1.9544,377.9915],
    [7912,1532801740,57.0604,-111.3193,816.0,454.0,266.3,4.4,4.0,21.71,55.49,1.9516,378.463],
    [7913,1532801741,57.0604,-111.3204,814.8,452.8,266.6,5.0,4.0,21.88,55.05,1.9489,378.463],
    [7914,1532801742,57.0604,-111.3214,813.2,452.2,267.2,5.0,3.4,21.58,55.18,1.9507,378.7153],
    [7915,1532801743,57.0604,-111.3225,811.5,450.5,267.9,5.0,2.7,21.7,55.43,1.9503,379.1226],
    [7916,1532801744,57.0604,-111.3235,809.8,449.8,267.3,4.8,3.3,21.68,55.05,1.9511,379.1226],
    [7917,1532801745,57.0604,-111.3245,808.2,448.2,267.0,4.6,3.2,22.26,54.93,1.9536,377.9769],
    [7918,1532801746,57.0604,-111.3256,806.4,447.4,266.8,4.2,3.3,22.13,55.1,1.9573,377.8914],
    [7919,1532801747,57.0604,-111.3266,804.3,445.3,265.5,3.8,4.4,21.45,55.34,1.956,379.133],
    [7920,1532801748,57.0604,-111.3276,802.4,444.4,265.7,3.7,4.3,21.71,55.32,1.9546,378.3435],
    [7921,1532801749,57.0604,-111.3287,800.2,443.2,265.3,3.2,4.5,21.12,55.46,1.9557,379.4487],
    [7922,1532801750,57.0604,-111.3298,797.9,441.9,265.7,3.7,3.9,21.38,55.76,1.9498,381.439],
    [7923,1532801751,57.0604,-111.3308,795.9,439.9,265.5,3.7,3.8,21.54,55.3,1.9625,385.8614],
    [7924,1532801752,57.0604,-111.3319,794.3,439.3,266.0,3.7,3.0,21.76,55.31,1.9554,384.4084],
    [7925,1532801753,57.0604,-111.3329,794.0,440.0,265.4,3.7,3.5,21.62,55.44,1.9536,382.3587],
    [7926,1532801754,57.0604,-111.334,794.7,440.7,264.7,3.5,3.8,21.51,54.92,1.9483,380.1863],
    [7927,1532801755,57.0603,-111.335,795.5,441.5,265.0,3.3,3.5,21.66,54.79,1.9503,377.3849],
    [7928,1532801756,57.0603,-111.3361,795.8,441.8,264.4,2.5,4.1,21.72,54.64,1.9564,377.4913],
    [7929,1532801757,57.0603,-111.3371,795.2,441.2,265.6,2.1,2.8,21.76,54.99,1.9679,378.1576],
    [7930,1532801758,57.0603,-111.3382,794.2,440.2,266.1,2.6,2.5,21.66,55.71,1.9611,377.5073],
    [7931,1532801759,57.0603,-111.3392,793.0,439.0,265.7,2.8,3.1,21.6,55.92,1.9531,377.1673],
    [7932,1532801760,57.0602,-111.3403,792.0,438.0,265.7,3.1,3.1,21.81,56.39,1.9495,378.9382],
    [7933,1532801761,57.0602,-111.3413,791.0,437.0,265.8,2.9,3.0,21.67,56.19,1.9519,379.4361],
    [7934,1532801762,57.0602,-111.3423,790.1,436.1,265.4,2.8,3.2,21.64,55.88,1.9518,378.1986],
    [7935,1532801763,57.0602,-111.3434,789.5,435.5,264.5,2.8,4.1,22.22,55.35,1.952,377.2116],
    [7936,1532801764,57.0602,-111.3444,788.6,435.6,264.8,3.1,3.6,22.03,55.09,1.9554,378.2279],
    [7937,1532801765,57.0601,-111.3455,787.5,434.5,265.0,3.0,3.6,21.41,55.98,1.956,379.0176],
    [7938,1532801766,57.0601,-111.3465,786.8,433.8,264.9,2.3,3.8,21.9,55.45,1.9575,378.3805],
    [7939,1532801767,57.0601,-111.3475,786.7,434.7,266.1,2.0,2.8,21.62,56.56,1.9611,377.8483],
    [7940,1532801768,57.0601,-111.3485,786.9,434.9,266.6,2.4,2.7,21.81,56.83,1.9617,378.7766],
    [7941,1532801769,57.0601,-111.3496,787.7,436.7,266.5,2.8,2.9,21.45,56.27,1.9609,378.7766],
    [7942,1532801770,57.0601,-111.3506,788.5,437.5,266.7,2.9,2.7,21.07,56.63,1.963,378.4244],
    [7943,1532801771,57.0601,-111.3517,788.9,437.9,265.9,2.7,3.4,21.74,56.79,1.9639,378.8983],
    [7944,1532801772,57.06,-111.3527,788.8,438.8,265.4,2.8,3.7,22.21,56.64,1.965,379.6461],
    [7945,1532801773,57.06,-111.3537,788.5,438.5,265.8,2.4,2.6,21.82,56.72,1.9666,378.1906],
    [7946,1532801774,57.06,-111.3547,787.6,437.6,265.5,2.6,2.7,21.61,58.11,1.9735,384.7369],
    [7947,1532801775,57.06,-111.3558,786.7,437.7,264.3,2.9,3.9,21.4,57.75,1.9816,384.248],
    [7948,1532801776,57.06,-111.3568,785.9,436.9,265.2,2.3,3.1,21.56,57.44,1.9838,385.7698],
    [7949,1532801777,57.0599,-111.3578,785.1,436.1,265.4,2.3,3.6,22.1,57.17,1.9861,384.4284],
    [7950,1532801778,57.0599,-111.3588,783.9,435.9,265.2,1.9,4.3,21.65,57.21,2.0385,396.9973],
    [7951,1532801779,57.0599,-111.3599,782.1,434.1,266.8,1.6,2.8,21.9,56.46,2.0623,407.3256],
    [7952,1532801780,57.0599,-111.3609,780.3,433.0,267.5,1.7,3.0,21.71,57.34,2.0283,395.8262],
    [7953,1532801781,57.0599,-111.3619,779.5,432.5,266.9,2.1,3.9,21.82,56.56,1.9831,383.5104],
    [7954,1532801782,57.0599,-111.3629,779.9,432.9,267.8,2.3,3.2,21.83,56.56,1.9776,383.5104],
    [7955,1532801783,57.0599,-111.364,780.5,433.8,267.4,2.1,3.9,22.14,56.4,2.0158,405.9616],
    [7956,1532801784,57.0599,-111.365,781.4,435.4,266.2,1.9,5.2,21.27,56.58,2.016,401.6892],
    [7957,1532801785,57.06,-111.3661,781.5,435.5,267.5,1.9,3.9,21.34,56.63,2.0332,401.1451],
    [7958,1532801786,57.06,-111.3671,780.9,434.9,267.9,1.8,3.6,22.1,56.37,2.0579,419.616],
    [7959,1532801787,57.06,-111.3681,780.2,435.2,267.3,1.8,4.1,22.16,56.41,2.0525,422.4082],
    [7960,1532801788,57.06,-111.3691,779.6,434.6,267.4,1.9,4.2,21.69,56.9,2.0447,413.7598],
    [7961,1532801789,57.06,-111.3702,779.1,435.1,268.0,1.7,3.8,21.37,56.59,1.9978,407.1941],
    [7962,1532801790,57.06,-111.3712,779.8,435.8,269.2,1.8,2.9,21.88,56.44,2.0125,412.6706],
    [7963,1532801791,57.06,-111.3722,780.9,436.9,270.2,2.0,1.8,21.73,56.34,2.0227,413.5844],
    [7964,1532801792,57.0601,-111.3732,782.0,439.0,270.3,2.3,2.3,21.59,56.26,1.9927,401.3244],
    [7965,1532801793,57.0601,-111.3743,783.0,440.0,266.9,2.9,5.5,21.72,56.32,1.9929,404.0668],
    [7966,1532801794,57.0601,-111.3753,784.2,440.2,266.7,2.8,5.3,21.77,54.99,1.997,410.109],
    [7967,1532801795,57.0601,-111.3763,784.8,440.8,267.2,2.8,4.6,21.1,55.36,2.0283,417.2257],
    [7968,1532801796,57.0601,-111.3773,785.0,441.0,267.4,2.8,4.4,21.47,55.06,2.0328,422.0509],
    [7969,1532801797,57.0601,-111.3783,784.8,440.8,268.0,2.7,3.7,21.56,55.46,2.0304,421.4844],
    [7970,1532801798,57.0601,-111.3793,785.4,442.3,267.4,2.8,4.2,21.69,56.18,2.0333,423.7733],
    [7971,1532801799,57.0602,-111.3803,787.0,444.0,267.2,2.9,3.9,22.04,55.97,2.0364,422.111],
    [7972,1532801800,57.0602,-111.3813,788.6,445.6,267.4,3.2,3.7,22.13,55.76,2.0385,421.442],
    [7973,1532801801,57.0602,-111.3823,790.0,447.8,267.5,3.4,3.4,22.16,56.09,2.0395,423.6936],
    [7974,1532801802,57.0602,-111.3833,791.2,449.2,267.4,3.5,2.8,22.19,56.17,2.0414,420.6911],
    [7975,1532801803,57.0602,-111.3843,792.0,450.0,265.4,3.7,3.2,21.79,57.09,2.0298,418.7008],
    [7976,1532801804,57.0601,-111.3853,792.2,450.2,262.7,3.9,3.7,21.67,56.83,2.0219,417.2556],
    [7977,1532801805,57.0601,-111.3862,792.1,451.1,260.5,4.1,3.7,21.79,57.05,2.0197,413.8221],
    [7978,1532801806,57.06,-111.3872,791.8,450.8,258.4,3.7,4.0,22.06,56.44,2.0195,409.602],
    [7979,1532801807,57.0599,-111.3882,791.5,450.5,257.4,3.2,3.4,21.96,56.32,1.9941,386.1279],
    [7980,1532801808,57.0598,-111.3891,791.1,450.1,256.5,2.8,3.0,22.08,56.43,1.9929,385.7145],
    [7981,1532801809,57.0597,-111.3901,790.5,449.5,254.6,2.6,3.3,22.48,56.93,1.9845,379.688],
    [7982,1532801810,57.0596,-111.391,789.7,448.7,253.0,3.0,3.6,22.03,58.05,1.9786,378.1153],
    [7983,1532801811,57.0595,-111.392,788.8,447.8,251.2,2.7,3.8,21.95,58.25,1.977,379.2622],
    [7984,1532801812,57.0593,-111.3929,788.0,447.0,250.2,2.7,3.4,21.9,59.16,1.9789,377.4541],
    [7985,1532801813,57.0591,-111.3938,787.1,446.1,249.3,2.8,3.2,21.86,59.18,1.9809,378.7986],
    [7986,1532801814,57.059,-111.3947,786.2,445.2,247.8,2.9,3.5,21.51,59.18,1.9902,384.3779],
    [7987,1532801815,57.0588,-111.3956,785.1,444.1,246.7,4.1,3.9,21.44,59.0,2.0035,388.7793],
    [7988,1532801816,57.0586,-111.3965,784.0,443.0,245.5,4.3,4.0,21.56,59.37,1.9993,389.6398],
    [7989,1532801817,57.0584,-111.3974,782.9,441.9,244.3,3.6,3.7,21.94,58.52,2.0087,400.7864],
    [7990,1532801818,57.0581,-111.3983,781.7,440.7,243.5,3.6,3.6,22.1,58.52,2.0086,403.922],
    [7991,1532801819,57.0579,-111.3992,780.3,439.3,242.3,3.8,3.9,22.4,57.92,2.022,406.3044],
    [7992,1532801820,57.0577,-111.4001,778.8,437.8,241.4,4.2,4.0,22.16,57.62,2.0252,413.3041],
    [7993,1532801821,57.0574,-111.401,777.0,436.0,240.6,4.0,3.7,21.58,58.24,2.0332,418.5608],
    [7994,1532801822,57.0572,-111.4018,775.2,434.2,239.3,4.0,4.0,21.45,57.6,2.0185,411.3183],
    [7995,1532801823,57.0569,-111.4027,773.5,432.5,237.5,4.1,4.6,21.94,57.37,1.9964,407.3029],
    [7996,1532801824,57.0566,-111.4035,772.6,431.6,235.1,3.2,5.5,21.99,56.95,1.9873,405.8962],
    [7997,1532801825,57.0563,-111.4043,771.5,430.5,233.9,3.3,5.7,21.81,57.18,1.9823,401.6144],
    [7998,1532801826,57.056,-111.4051,771.2,430.2,233.3,3.7,5.1,22.15,56.22,1.9803,398.9018],
    [7999,1532801827,57.0557,-111.4059,771.2,430.2,232.3,3.1,4.6,21.8,56.85,1.9809,402.0848],
    [8000,1532801828,57.0554,-111.4067,771.0,430.0,231.5,2.5,4.1,22.33,55.75,1.9715,403.293],
    [8001,1532801829,57.0551,-111.4075,770.9,429.9,231.4,2.5,3.8,22.03,55.54,1.969,404.2582],
    [8002,1532801830,57.0547,-111.4083,770.5,429.5,231.9,3.0,3.7,21.88,55.58,1.9666,407.5831],
    [8003,1532801831,57.0544,-111.4091,769.7,429.0,231.5,2.9,4.2,22.52,54.84,1.9678,407.7054],
    [8004,1532801832,57.0541,-111.4099,769.9,429.9,231.0,2.8,4.8,22.05,55.18,1.9612,396.3023],
    [8005,1532801833,57.0538,-111.4107,770.4,430.4,232.4,4.0,3.9,21.77,55.17,1.9598,396.3023],
    [8006,1532801834,57.0534,-111.4115,771.2,431.2,233.4,4.5,3.8,21.99,54.48,1.9582,395.4516],
    [8007,1532801835,57.0531,-111.4123,772.2,433.2,231.7,3.6,5.5,22.02,54.71,1.9522,392.6683],
    [8008,1532801836,57.0528,-111.4131,773.1,434.1,232.8,4.5,4.5,22.16,53.69,1.9474,386.3981],
    [8009,1532801837,57.0525,-111.4139,774.6,435.6,233.1,4.5,4.2,22.05,54.07,1.9692,405.3761],
    [8010,1532801838,57.0522,-111.4147,776.4,437.4,232.4,4.1,4.7,22.2,53.53,1.9736,407.8159],
    [8011,1532801839,57.0518,-111.4154,777.9,438.9,232.7,4.4,4.5,22.48,53.64,1.9797,404.1027],
    [8012,1532801840,57.0515,-111.4162,778.7,439.7,232.8,4.4,4.5,21.65,54.59,1.9721,405.9748],
    [8013,1532801841,57.0512,-111.417,779.0,441.0,232.6,4.2,4.8,21.6,54.99,1.9763,406.07],
    [8014,1532801842,57.0509,-111.4178,779.1,441.1,233.1,4.2,4.2,21.98,55.72,1.9806,408.6775],
    [8015,1532801843,57.0506,-111.4186,779.8,441.8,233.6,4.9,4.1,21.91,55.06,1.9859,410.4617],
    [8016,1532801844,57.0503,-111.4194,780.9,442.9,234.0,5.4,4.2,22.11,55.04,1.9967,417.1749],
    [8017,1532801845,57.05,-111.4202,781.9,444.9,233.5,4.9,4.8,21.91,55.59,2.0023,414.0773],
    [8018,1532801846,57.0496,-111.421,782.7,445.7,233.3,4.9,5.0,21.9,56.33,1.9945,414.0773],
    [8019,1532801847,57.0493,-111.4218,783.0,446.0,233.5,5.1,5.0,21.85,55.99,1.9853,405.2097],
    [8020,1532801848,57.049,-111.4226,782.9,445.9,233.2,5.0,5.1,22.4,55.89,1.99,399.1162],
    [8021,1532801849,57.0487,-111.4234,782.7,446.7,233.0,5.3,5.3,22.18,55.56,1.9866,407.2408],
    [8022,1532801850,57.0484,-111.4242,782.5,446.5,232.6,5.3,5.4,22.15,55.77,2.0007,409.6981],
    [8023,1532801851,57.0481,-111.425,782.1,446.1,233.0,6.1,5.4,21.76,55.83,1.9787,402.9226],
    [8024,1532801852,57.0478,-111.4258,781.8,446.8,233.0,6.6,5.9,22.0,56.17,1.9654,397.0782],
    [8025,1532801853,57.0474,-111.4266,781.6,446.6,232.7,6.1,5.9,22.57,55.12,1.9733,404.7444],
    [8026,1532801854,57.0471,-111.4274,781.7,447.0,232.3,5.9,6.1,21.66,56.08,1.9999,416.8233],
    [8027,1532801855,57.0468,-111.4281,781.7,447.7,232.3,6.2,6.3,22.0,56.12,2.0159,419.9404],
    [8028,1532801856,57.0465,-111.4289,781.6,447.8,232.7,6.2,5.7,21.5,55.67,2.0146,418.2267],
    [8029,1532801857,57.0462,-111.4297,781.1,448.1,232.9,6.1,5.6,22.46,55.44,1.9788,401.5998],
    [8030,1532801858,57.0458,-111.4305,780.5,447.8,232.2,6.0,6.5,22.41,55.76,1.967,399.9985],
    [8031,1532801859,57.0455,-111.4313,779.5,447.5,232.5,6.2,6.3,21.84,56.5,1.9631,404.9984],
    [8032,1532801860,57.0452,-111.4321,777.8,446.8,233.0,6.3,5.7,22.44,55.42,1.9765,404.9984],
    [8033,1532801861,57.0449,-111.433,776.0,446.0,232.9,5.9,5.6,22.13,55.25,1.9735,412.8971],
    [8034,1532801862,57.0446,-111.4338,774.3,444.3,233.0,5.2,5.3,22.3,55.23,1.9859,418.7462],
    [8035,1532801863,57.0442,-111.4346,772.5,443.5,232.8,4.9,5.4,22.66,54.8,1.981,404.9805],
    [8036,1532801864,57.0439,-111.4354,770.5,442.2,233.5,4.9,4.9,21.89,56.11,1.9869,413.2688],
    [8037,1532801865,57.0436,-111.4362,768.6,440.6,233.1,4.1,4.7,22.11,55.8,1.9965,416.5587],
    [8038,1532801866,57.0432,-111.4371,766.7,438.7,233.5,4.3,4.4,22.81,55.38,1.9824,401.8721],
    [8039,1532801867,57.0429,-111.4379,764.8,436.8,233.2,3.6,4.3,21.51,55.95,1.9742,403.7936],
    [8040,1532801868,57.0426,-111.4388,763.0,435.0,233.6,3.5,3.4,21.78,56.22,1.9838,399.1005],
    [8041,1532801869,57.0423,-111.4396,761.5,433.5,234.2,3.8,3.0,22.18,56.34,2.0106,421.6232],
    [8042,1532801870,57.0419,-111.4404,760.2,433.2,233.5,3.2,3.7,22.25,55.54,2.0116,421.6232],
    [8043,1532801871,57.0416,-111.4413,759.1,432.1,233.7,2.9,3.3,22.65,55.08,2.0226,420.9708],
    [8044,1532801872,57.0413,-111.4421,758.1,431.1,234.0,2.8,3.2,22.54,55.94,2.0041,416.7655],
    [8045,1532801873,57.0409,-111.443,757.0,430.0,233.9,2.6,3.3,22.48,55.77,1.9712,394.2571],
    [8046,1532801874,57.0406,-111.4438,755.8,428.8,233.9,2.8,3.3,22.21,56.47,1.9612,394.2571],
    [8047,1532801875,57.0403,-111.4447,754.4,427.4,233.9,2.9,3.4,21.92,56.82,1.9539,377.6042],
    [8048,1532801876,57.04,-111.4455,752.9,426.9,234.0,2.8,3.2,22.57,55.37,1.9533,378.3672],
    [8049,1532801877,57.0396,-111.4464,751.8,426.1,234.1,2.7,2.8,22.06,55.65,1.9611,392.8011],
    [8050,1532801878,57.0393,-111.4473,750.7,425.7,234.1,3.4,2.9,22.77,55.26,1.9739,399.226],
    [8051,1532801879,57.039,-111.4481,749.8,425.8,233.8,3.7,3.1,21.57,55.67,1.9823,403.8259],
    [8052,1532801880,57.0386,-111.4489,748.7,425.0,233.8,3.5,2.7,22.06,56.34,1.9826,403.5007],
    [8053,1532801881,57.0383,-111.4498,748.3,425.3,233.3,3.1,3.4,22.01,56.07,1.9714,395.3275],
    [8054,1532801882,57.038,-111.4506,748.2,426.2,232.2,2.8,4.5,22.54,55.76,1.9637,389.7452],
    [8055,1532801883,57.0376,-111.4515,747.8,425.8,233.2,3.5,3.4,22.94,55.43,1.963,386.5048],
    [8056,1532801884,57.0373,-111.4524,747.3,426.3,232.7,2.8,3.7,22.57,55.74,1.9696,391.5366],
    [8057,1532801885,57.037,-111.4532,746.9,426.9,232.1,3.0,4.5,22.16,56.73,1.9735,391.5366],
    [8058,1532801886,57.0366,-111.454,746.4,426.4,232.2,3.6,4.9,22.82,55.42,1.9769,390.5629],
    [8059,1532801887,57.0363,-111.4548,745.9,425.9,231.2,2.6,5.4,21.76,56.21,1.9736,388.6582],
    [8060,1532801888,57.0359,-111.4557,745.6,425.6,231.8,3.2,5.3,22.48,56.14,1.958,385.7718],
    [8061,1532801889,57.0356,-111.4565,745.2,426.2,232.0,3.2,4.9,22.35,56.43,1.9483,377.5291],
    [8062,1532801890,57.0353,-111.4574,744.5,426.5,232.6,3.4,4.4,22.69,55.14,1.9473,376.66],
    [8063,1532801891,57.0349,-111.4582,743.8,426.8,232.8,3.6,4.3,22.35,55.21,1.9449,376.913],
    [8064,1532801892,57.0346,-111.459,742.7,426.7,233.3,3.7,3.9,22.69,54.03,1.9461,377.1803],
    [8065,1532801893,57.0343,-111.4599,741.5,425.5,233.3,3.1,4.0,22.74,54.06,1.9451,376.1548],
    [8066,1532801894,57.034,-111.4607,740.5,424.5,233.2,2.8,3.9,22.35,54.45,1.9449,376.9155],
    [8067,1532801895,57.0336,-111.4616,739.4,423.4,234.2,3.2,2.9,23.05,53.69,1.9466,376.632],
    [8068,1532801896,57.0333,-111.4624,738.7,423.8,233.7,3.0,3.3,22.18,54.11,1.9462,377.1761],
    [8069,1532801897,57.033,-111.4633,738.8,424.7,233.5,3.4,3.7,22.28,54.14,1.9498,376.502],
    [8070,1532801898,57.0326,-111.4641,739.3,427.4,233.6,3.3,3.9,21.91,53.85,1.9498,377.1082],
    [8071,1532801899,57.0323,-111.465,739.8,430.7,233.7,3.5,4.1,22.43,53.8,1.9499,377.5658],
    [8072,1532801900,57.032,-111.4658,739.5,435.1,234.2,3.8,4.0,22.82,53.37,1.9434,376.7338],
    [8073,1532801901,57.0316,-111.4667,739.2,444.9,233.8,3.8,4.8,22.23,53.69,1.9418,374.9117],
    [8074,1532801902,57.0313,-111.4676,738.5,454.1,234.8,4.5,3.7,22.63,53.12,1.9384,374.7045],
    [8075,1532801903,57.031,-111.4684,738.1,464.1,234.6,4.2,3.9,22.94,52.11,1.9404,374.7045],
    [8076,1532801904,57.0307,-111.4693,738.7,473.2,232.8,3.2,5.0,22.19,52.37,1.9483,376.7365],
    [8077,1532801905,57.0303,-111.4702,740.4,478.3,233.8,4.0,3.7,21.94,52.21,1.9509,375.6818],
    [8078,1532801906,57.03,-111.471,742.4,481.4,233.8,4.0,3.7,22.45,52.49,1.9496,377.2604],
    [8079,1532801907,57.0297,-111.4718,744.9,483.9,232.9,3.9,4.2,22.89,52.34,1.9525,377.3686],
    [8080,1532801908,57.0293,-111.4727,747.5,486.5,233.6,4.8,3.8,22.51,53.15,1.975,377.0916],
    [8081,1532801909,57.029,-111.4735,749.6,489.6,233.3,5.2,4.4,23.29,52.87,1.9795,377.1559],
    [8082,1532801910,57.0287,-111.4743,750.8,491.5,232.8,5.2,4.8,23.3,53.13,1.9889,376.1435],
    [8083,1532801911,57.0283,-111.4752,751.4,493.4,232.4,5.1,5.0,22.3,53.5,1.9987,377.286],
    [8084,1532801912,57.028,-111.476,751.4,495.4,232.0,4.7,4.9,22.54,53.83,2.0133,377.286],
    [8085,1532801913,57.0277,-111.4768,750.7,496.7,232.0,4.7,4.4,22.1,53.81,1.9925,377.4051],
    [8086,1532801914,57.0273,-111.4776,749.5,498.0,231.7,4.7,4.5,22.52,54.05,1.9897,377.2986],
    [8087,1532801915,57.027,-111.4785,747.9,498.9,231.6,4.7,4.3,22.24,53.85,1.9964,376.9363],
    [8088,1532801916,57.0266,-111.4793,745.9,501.1,231.3,4.5,4.4,22.62,54.28,1.9938,376.6481],
    [8089,1532801917,57.0262,-111.4801,743.8,503.8,231.1,4.4,4.5,22.62,53.92,1.9651,376.4107],
    [8090,1532801918,57.0259,-111.4809,741.6,502.6,231.1,4.3,4.4,22.43,53.87,1.9893,376.3789],
    [8091,1532801919,57.0255,-111.4818,740.0,502.0,231.0,4.4,4.3,22.63,53.52,2.0171,375.0863],
    [8092,1532801920,57.0252,-111.4826,739.5,502.5,231.0,4.5,4.6,22.2,53.83,2.0344,376.5224],
    [8093,1532801921,57.0248,-111.4834,739.5,501.6,230.7,4.5,4.7,22.24,54.18,2.0322,376.837],
    [8094,1532801922,57.0245,-111.4842,739.1,501.1,230.8,4.6,4.6,22.32,53.74,2.1097,376.4948],
    [8095,1532801923,57.0241,-111.485,737.9,499.5,230.8,4.4,4.5,22.72,53.55,2.2072,377.1177],
    [8096,1532801924,57.0237,-111.4859,736.2,497.2,230.5,4.0,4.4,22.38,53.83,2.3455,376.4264],
    [8097,1532801925,57.0234,-111.4867,734.1,495.1,230.7,3.6,3.7,22.61,54.31,2.2359,375.1556],
    [8098,1532801926,57.023,-111.4875,731.6,493.6,230.9,2.9,2.8,22.51,54.3,2.2733,374.9415],
    [8099,1532801927,57.0227,-111.4884,729.5,492.4,230.6,2.0,2.7,22.4,54.3,2.1997,376.6067],
    [8100,1532801928,57.0223,-111.4892,728.2,492.0,230.6,1.6,2.4,23.06,53.89,2.0766,375.2355],
    [8101,1532801929,57.0219,-111.49,727.5,492.5,230.9,1.2,1.8,22.77,54.68,2.0592,375.2355],
    [8102,1532801930,57.0216,-111.4909,726.5,491.5,230.6,0.1,1.6,22.59,55.34,2.0816,377.3108],
    [8103,1532801931,57.0212,-111.4917,724.8,489.8,230.4,-0.8,1.1,22.27,54.59,2.0723,376.154],
    [8104,1532801932,57.0209,-111.4925,722.4,486.4,230.8,-1.4,0.3,23.32,54.37,2.0711,377.7615],
    [8105,1532801933,57.0205,-111.4934,719.9,481.2,230.4,-2.2,0.2,22.36,54.74,2.074,375.7234],
    [8106,1532801934,57.0201,-111.4942,718.0,475.0,230.7,-2.5,-0.3,22.76,55.77,2.0693,375.965],
    [8107,1532801935,57.0198,-111.4951,716.7,467.9,230.4,-3.0,-0.5,22.78,55.09,2.0538,375.1303],
    [8108,1532801936,57.0194,-111.4959,715.9,457.1,230.7,-3.3,-1.0,22.8,55.27,2.0522,374.0848],
    [8109,1532801937,57.019,-111.4968,715.2,450.2,230.5,-3.8,-1.2,22.84,55.32,2.0622,375.9131],
    [8110,1532801938,57.0187,-111.4976,714.7,445.3,231.0,-3.7,-1.6,22.22,55.46,2.0326,375.9131],
    [8111,1532801939,57.0183,-111.4985,714.4,441.8,231.3,-3.5,-1.6,22.11,55.57,1.9859,375.8186],
    [8112,1532801940,57.0179,-111.4993,714.5,441.2,232.0,-3.5,-1.9,22.83,55.16,1.9517,376.8561],
    [8113,1532801941,57.0176,-111.5002,715.1,438.7,232.1,-4.0,-2.0,22.55,54.76,1.9437,375.6971],
    [8114,1532801942,57.0172,-111.5011,717.2,436.1,231.9,-4.3,-1.7,22.41,54.09,1.9451,375.6971],
    [8115,1532801943,57.0169,-111.5019,721.2,430.3,232.2,-4.1,-1.5,22.35,53.85,1.9426,374.6763],
    [8116,1532801944,57.0165,-111.5028,725.5,428.9,232.9,-3.7,-1.8,22.67,53.59,1.9433,374.4703],
    [8117,1532801945,57.0162,-111.5036,729.1,432.1,232.9,-3.6,-1.8,22.89,53.5,1.9417,376.5734],
    [8118,1532801946,57.0159,-111.5044,732.9,435.9,233.4,-3.0,-2.1,23.13,53.33,1.9427,376.5734],
    [8119,1532801947,57.0155,-111.5052,737.6,440.6,233.6,-2.6,-2.1,23.09,53.27,1.9438,375.7814],
    [8120,1532801948,57.0152,-111.506,742.5,445.5,233.1,-2.1,-1.2,22.62,53.94,1.9441,373.8003],
    [8121,1532801949,57.0149,-111.5068,747.0,450.0,233.2,-1.5,-0.9,22.38,54.03,1.9487,375.2098],
    [8122,1532801950,57.0146,-111.5076,750.6,453.6,232.8,-0.9,-0.2,22.98,53.7,1.9525,376.1657],
    [8123,1532801951,57.0143,-111.5084,754.2,457.2,232.4,-0.1,0.4,22.71,55.06,1.9499,375.913],
    [8124,1532801952,57.0139,-111.5092,757.8,460.8,232.4,0.2,0.6,22.41,55.23,1.9446,376.5596],
    [8125,1532801953,57.0136,-111.51,762.0,465.0,232.4,0.3,1.0,22.05,55.0,1.9524,376.5742],
    [8126,1532801954,57.0133,-111.5107,766.2,469.2,233.5,1.7,1.3,22.49,55.22,1.9466,376.5587],
    [8127,1532801955,57.013,-111.5115,770.4,473.4,233.1,2.5,2.7,22.66,55.22,1.9454,376.5587],
    [8128,1532801956,57.0127,-111.5122,774.9,477.9,233.6,3.4,2.9,22.68,55.09,1.9439,376.4851],
    [8129,1532801957,57.0124,-111.513,779.7,482.7,233.9,4.2,3.4,22.94,54.72,1.9431,376.5555],
    [8130,1532801958,57.0121,-111.5137,784.5,476.5,232.9,4.2,4.6,22.47,55.01,2.0345,375.3611],
    [8131,1532801959,57.0118,-111.5145,789.1,474.5,232.8,4.7,4.9,22.57,55.77,2.182,375.745],
    [8132,1532801960,57.0115,-111.5152,793.5,476.7,232.2,4.9,5.4,22.31,55.64,2.36,376.0819],
    [8133,1532801961,57.0112,-111.5159,797.6,479.5,231.7,5.0,5.9,22.49,56.02,2.4334,375.5564],
    [8134,1532801962,57.011,-111.5166,801.0,482.7,231.9,5.8,5.9,22.73,56.92,2.4153,375.2852],
    [8135,1532801963,57.0107,-111.5173,803.7,484.7,232.4,6.5,5.8,22.53,58.41,2.3123,375.3331],
    [8136,1532801964,57.0104,-111.518,805.7,486.7,232.1,6.8,6.4,22.52,57.61,2.2132,375.5318],
    [8137,1532801965,57.0101,-111.5187,807.0,488.1,232.0,7.1,6.6,22.57,58.78,2.042,375.5172],
    [8138,1532801966,57.0098,-111.5194,807.7,488.4,231.8,6.8,6.7,22.36,57.39,1.9655,375.3488],
    [8139,1532801967,57.0095,-111.5201,807.7,488.8,231.8,6.5,6.5,22.13,56.61,1.9671,375.7284],
    [8140,1532801968,57.0092,-111.5208,807.2,487.2,232.1,6.4,6.1,22.27,56.04,1.9576,376.5222],
    [8141,1532801969,57.0089,-111.5216,806.6,486.6,232.6,6.6,5.8,22.35,56.05,1.9513,376.8434],
    [8142,1532801970,57.0086,-111.5223,806.2,486.2,232.3,6.5,6.4,23.08,55.36,1.9465,375.9048],
    [8143,1532801971,57.0083,-111.523,805.8,486.8,231.9,6.6,6.8,22.7,55.31,1.9457,375.8467],
    [8144,1532801972,57.008,-111.5237,805.0,486.0,232.5,6.6,6.3,23.37,54.64,1.9417,374.9083],
    [8145,1532801973,57.0077,-111.5245,804.4,485.4,232.8,6.4,5.8,22.42,54.76,1.9387,374.6233],
    [8146,1532801974,57.0074,-111.5252,803.8,485.5,233.3,6.6,5.5,22.4,54.76,1.9375,375.4225],
    [8147,1532801975,57.0071,-111.526,803.2,485.2,233.3,6.8,5.7,22.49,54.65,1.942,376.0137],
    [8148,1532801976,57.0068,-111.5267,802.8,484.9,233.3,6.4,5.5,22.37,53.77,1.9434,376.1056],
    [8149,1532801977,57.0065,-111.5275,803.2,485.2,232.2,5.3,6.3,22.48,53.84,1.9432,376.4734],
    [8150,1532801978,57.0062,-111.5282,803.9,485.8,232.2,5.3,6.2,22.59,53.99,1.9435,374.7796],
    [8151,1532801979,57.0059,-111.529,803.7,484.6,233.2,5.5,5.7,22.46,54.58,1.9414,375.585],
    [8152,1532801980,57.0056,-111.5298,802.4,483.3,231.7,4.2,6.6,21.94,54.62,1.9407,375.623],
    [8153,1532801981,57.0053,-111.5305,801.4,482.2,231.3,3.2,5.5,23.16,53.9,1.9426,375.4109],
    [8154,1532801982,57.005,-111.5313,801.1,481.7,231.6,2.8,4.3,23.26,53.87,1.9422,376.0642],
    [8155,1532801983,57.0047,-111.5321,801.0,481.1,231.6,3.0,4.2,22.32,54.15,1.9421,373.2457],
    [8156,1532801984,57.0044,-111.5329,800.4,480.6,231.9,2.6,4.0,22.75,53.79,1.9396,373.2457],
    [8157,1532801985,57.0041,-111.5337,799.6,479.7,232.0,1.9,4.0,22.43,54.32,1.9434,375.8882],
    [8158,1532801986,57.0037,-111.5345,798.5,479.5,233.3,2.1,2.9,22.6,54.55,1.9429,375.9642],
    [8159,1532801987,57.0034,-111.5353,797.1,479.0,233.3,1.8,2.9,22.93,54.39,1.9406,373.5364],
    [8160,1532801988,57.0031,-111.5361,796.1,478.8,232.4,1.2,3.3,23.21,53.7,1.9378,374.6869],
    [8161,1532801989,57.0028,-111.5369,795.7,478.3,232.6,1.4,2.7,22.47,54.42,1.9393,374.4972],
    [8162,1532801990,57.0025,-111.5377,795.6,476.6,232.6,1.5,2.7,22.09,53.99,1.939,374.4666],
    [8163,1532801991,57.0021,-111.5385,796.0,475.6,231.8,0.9,2.9,22.84,53.85,1.9374,374.8513],
    [8164,1532801992,57.0018,-111.5393,796.8,475.7,232.0,0.6,2.1,22.77,53.44,1.939,374.7117],
    [8165,1532801993,57.0015,-111.5401,797.1,475.4,232.1,0.1,1.5,22.59,53.46,1.9377,374.8979],
    [8166,1532801994,57.0011,-111.5409,797.4,475.5,232.0,0.2,1.7,21.86,53.78,1.9356,374.6243],
    [8167,1532801995,57.0008,-111.5417,798.5,475.5,232.6,0.8,1.5,22.44,53.74,1.9351,373.9799],
    [8168,1532801996,57.0005,-111.5426,801.0,477.5,233.0,1.0,1.7,22.56,53.46,1.9347,374.0431],
    [8169,1532801997,57.0002,-111.5433,804.8,480.7,233.3,1.0,1.8,22.17,52.99,1.9367,373.8502],
    [8170,1532801998,56.9999,-111.5442,808.5,484.1,233.1,0.9,2.7,22.44,53.57,1.9358,374.8239],
    [8171,1532801999,56.9995,-111.545,811.4,486.5,232.7,0.9,3.2,22.48,52.75,1.9376,374.2965],
    [8172,1532802000,56.9992,-111.5458,813.2,488.4,233.3,1.4,2.6,22.14,52.98,1.9385,374.1893],
    [8173,1532802001,56.9989,-111.5466,814.6,489.3,232.8,1.7,3.0,22.74,52.46,1.9377,375.3842],
    [8174,1532802002,56.9986,-111.5474,816.2,490.7,231.8,1.9,3.2,22.19,53.36,1.9355,374.4166],
    [8175,1532802003,56.9983,-111.5481,817.9,492.2,230.4,1.8,3.5,22.24,53.37,1.9372,375.1162],
    [8176,1532802004,56.998,-111.5489,819.7,493.8,229.0,2.0,3.6,22.77,52.75,1.9385,374.1907],
    [8177,1532802005,56.9976,-111.5496,821.8,496.7,227.8,2.8,3.7,22.14,53.71,1.9382,375.0912],
    [8178,1532802006,56.9972,-111.5503,824.2,499.1,225.8,3.5,4.8,22.62,53.07,1.9404,374.9296],
    [8179,1532802007,56.9969,-111.551,826.6,501.4,224.4,4.4,5.0,22.26,53.53,1.9425,375.3562],
    [8180,1532802008,56.9965,-111.5517,828.7,503.6,222.1,4.6,5.8,22.83,53.87,1.9429,375.3562],
    [8181,1532802009,56.9961,-111.5523,830.6,505.6,218.4,4.0,7.3,22.44,54.3,1.9385,375.508],
    [8182,1532802010,56.9957,-111.5529,832.7,507.7,215.5,3.8,8.5,22.4,54.7,1.936,375.5877],
    [8183,1532802011,56.9953,-111.5535,834.1,509.1,214.0,4.2,8.7,23.05,54.24,1.9379,375.4544],
    [8184,1532802012,56.9948,-111.554,835.6,510.6,212.3,4.4,8.9,22.48,54.28,1.9368,375.4544],
    [8185,1532802013,56.9944,-111.5545,837.3,512.3,210.7,4.7,9.0,22.43,53.57,1.9373,375.2583],
    [8186,1532802014,56.994,-111.555,839.1,514.1,209.1,4.9,9.0,22.43,53.36,1.9375,374.6339],
    [8187,1532802015,56.9935,-111.5555,841.0,517.3,207.2,4.9,9.6,22.42,53.49,1.937,374.9307],
    [8188,1532802016,56.993,-111.5559,842.7,520.7,205.6,4.8,10.1,22.6,53.38,1.9357,373.5762],
    [8189,1532802017,56.9926,-111.5563,843.6,521.9,204.7,5.2,9.7,21.73,53.08,1.9366,374.9808],
    [8190,1532802018,56.9921,-111.5567,843.4,522.4,203.9,6.0,9.2,22.28,52.97,1.9377,374.7947],
    [8191,1532802019,56.9916,-111.557,843.5,523.5,201.7,5.4,9.0,22.33,52.43,1.9402,374.9316],
    [8192,1532802020,56.991,-111.5574,843.6,523.5,199.9,4.9,8.4,22.47,52.18,1.942,375.5239],
    [8193,1532802021,56.9905,-111.5576,843.0,521.9,197.9,4.5,8.7,22.64,52.73,1.9444,375.9372],
    [8194,1532802022,56.99,-111.5579,841.2,521.2,195.7,4.5,9.3,22.74,53.13,1.9438,375.9372],
    [8195,1532802023,56.9895,-111.5581,838.7,518.7,193.3,3.9,9.1,22.8,53.52,1.9447,375.4458],
    [8196,1532802024,56.989,-111.5583,835.8,516.5,190.4,2.3,8.7,23.25,53.49,1.9446,374.9041],
    [8197,1532802025,56.9884,-111.5585,833.3,514.5,188.4,1.4,7.9,22.89,54.05,1.9449,374.9775],
    [8198,1532802026,56.9879,-111.5586,831.0,512.9,187.9,1.6,6.7,22.34,54.33,1.9444,374.8777],
    [8199,1532802027,56.9873,-111.5587,828.5,512.4,188.0,2.1,5.7,23.08,53.82,1.9415,375.5787],
    [8200,1532802028,56.9868,-111.5588,826.1,512.5,188.5,2.7,4.4,22.63,54.82,1.9408,374.3382],
    [8201,1532802029,56.9862,-111.559,823.9,513.0,189.1,3.3,3.5,21.95,54.15,1.9434,374.9628],
    [8202,1532802030,56.9856,-111.5591,821.6,512.3,188.7,3.0,2.7,22.28,54.17,1.9428,374.4711],
    [8203,1532802031,56.9851,-111.5592,819.1,510.1,187.9,3.0,1.6,22.69,54.74,1.9437,375.6664],
    [8204,1532802032,56.9845,-111.5593,816.3,507.3,187.1,3.2,1.7,22.17,54.41,1.942,375.6664],
    [8205,1532802033,56.9839,-111.5593,813.2,504.2,185.6,3.2,0.9,22.53,54.38,1.9421,374.6841],
    [8206,1532802034,56.9833,-111.5594,810.5,501.5,183.9,2.9,0.3,22.23,54.37,1.9449,374.774],
    [8207,1532802035,56.9827,-111.5594,808.1,499.1,182.3,2.7,0.3,22.56,54.36,1.944,374.7957],
    [8208,1532802036,56.9821,-111.5594,805.2,496.2,181.6,2.7,0.5,22.68,54.2,1.9422,375.215],
    [8209,1532802037,56.9815,-111.5594,802.0,493.0,180.7,1.9,0.4,22.37,54.33,1.9428,372.9912],
    [8210,1532802038,56.9809,-111.5593,798.4,486.9,180.9,2.1,-0.1,22.5,54.35,1.9434,372.9912],
    [8211,1532802039,56.9803,-111.5593,794.7,480.8,182.2,2.6,-0.1,22.91,54.36,1.9435,374.1789],
    [8212,1532802040,56.9797,-111.5593,791.6,472.6,182.3,1.7,0.1,22.69,55.08,1.9434,374.4365],
    [8213,1532802041,56.9791,-111.5594,790.1,469.5,182.9,1.7,-0.4,22.72,54.59,1.944,374.4672],
    [8214,1532802042,56.9785,-111.5594,789.5,467.2,183.3,2.0,-0.5,22.71,54.88,1.9436,373.8745],
    [8215,1532802043,56.9779,-111.5594,789.4,466.4,183.2,2.1,-0.3,22.75,54.91,1.9446,374.7327],
    [8216,1532802044,56.9773,-111.5595,790.2,466.2,183.6,2.8,-0.8,22.38,54.77,1.9426,374.3375],
    [8217,1532802045,56.9767,-111.5595,791.7,467.7,182.6,1.9,-0.6,22.78,55.09,1.9451,374.4314],
    [8218,1532802046,56.9761,-111.5595,794.1,470.1,181.6,1.3,0.0,22.66,54.62,1.942,375.0575],
    [8219,1532802047,56.9756,-111.5595,796.3,472.3,181.7,1.4,1.4,22.69,55.02,1.9421,373.3743],
    [8220,1532802048,56.975,-111.5595,797.8,473.8,180.3,-0.3,1.6,22.4,54.66,1.9415,373.3743],
    [8221,1532802049,56.9744,-111.5595,799.1,475.1,179.7,-1.0,1.9,22.57,54.61,1.9412,374.2683],
    [8222,1532802050,56.9738,-111.5595,800.7,476.7,180.3,-0.5,2.0,22.77,55.07,1.9392,373.399],
    [8223,1532802051,56.9732,-111.5595,801.8,477.8,181.0,0.0,3.3,22.74,54.1,1.9403,373.5598],
    [8224,1532802052,56.9726,-111.5596,802.5,478.4,181.5,0.1,2.8,22.83,53.46,1.9368,374.3061],
    [8225,1532802053,56.972,-111.5596,802.7,479.7,181.4,-0.5,3.0,22.79,53.77,1.9371,373.6438],
    [8226,1532802054,56.9715,-111.5596,802.3,480.0,181.7,-0.3,2.9,22.23,53.04,1.9378,372.9015],
    [8227,1532802055,56.9708,-111.5597,801.1,480.2,182.1,0.1,2.5,22.96,52.47,1.9356,373.5221],
    [8228,1532802056,56.9702,-111.5597,800.6,483.0,182.2,0.4,3.1,22.16,52.64,1.9363,374.8357],
    [8229,1532802057,56.9696,-111.5598,800.9,485.2,182.2,0.4,2.5,22.59,52.4,1.9351,373.1699],
    [8230,1532802058,56.969,-111.5598,801.3,487.4,182.5,1.1,1.3,22.87,52.12,1.935,373.3124],
    [8231,1532802059,56.9684,-111.5598,802.3,489.3,183.7,2.4,0.7,22.53,52.07,1.9376,374.1479],
    [8232,1532802060,56.9678,-111.5598,802.3,489.3,182.4,0.9,0.4,23.19,51.51,1.9373,373.8118],
    [8233,1532802061,56.9672,-111.5599,801.3,488.3,182.9,1.6,0.6,22.57,51.9,1.9373,373.7714],
    [8234,1532802062,56.9667,-111.5599,801.0,487.0,184.1,2.3,0.9,22.59,52.39,1.9359,374.2315],
    [8235,1532802063,56.9661,-111.56,801.4,486.4,183.1,1.3,2.1,22.85,52.05,1.9345,375.1776],
    [8236,1532802064,56.9655,-111.56,801.8,485.7,183.6,2.2,2.8,23.15,51.65,1.9333,375.1776],
    [8237,1532802065,56.9649,-111.56,800.9,485.0,184.0,3.1,2.8,22.22,51.35,1.9332,373.974],
    [8238,1532802066,56.9643,-111.56,799.4,482.4,182.9,2.0,2.8,23.36,50.39,1.9348,374.564],
    [8239,1532802067,56.9637,-111.5601,797.1,479.1,182.8,2.4,3.4,23.01,50.07,1.9362,373.8883],
    [8240,1532802068,56.9631,-111.5601,795.8,477.8,184.1,3.8,4.1,23.16,49.7,1.9369,374.4143],
    [8241,1532802069,56.9626,-111.5601,794.7,476.7,183.2,2.9,4.8,23.29,49.94,1.9372,375.1635],
    [8242,1532802070,56.962,-111.5601,794.0,476.0,182.5,2.1,4.4,23.14,50.67,1.9366,376.875],
    [8243,1532802071,56.9614,-111.5601,792.8,474.8,181.6,1.4,3.8,22.83,50.78,1.9359,374.5275],
    [8244,1532802072,56.9608,-111.5601,791.5,473.5,181.7,1.8,3.9,23.12,50.94,1.9374,374.5275],
    [8245,1532802073,56.9602,-111.5601,790.1,470.9,183.2,3.5,4.0,22.72,51.33,1.9379,373.9956],
    [8246,1532802074,56.9596,-111.5602,788.5,470.5,183.3,3.5,4.4,23.2,51.28,1.9371,373.5904],
    [8247,1532802075,56.959,-111.5602,787.0,470.1,183.4,3.5,4.7,22.79,51.0,1.9363,374.8924],
    [8248,1532802076,56.9585,-111.5602,785.6,469.7,183.9,3.9,5.2,23.2,50.98,1.9381,374.0936],
    [8249,1532802077,56.9579,-111.5602,783.1,467.1,183.6,3.6,6.4,23.82,50.66,1.9377,374.0936],
    [8250,1532802078,56.9573,-111.5602,779.0,461.8,183.5,3.6,6.8,22.95,50.89,1.937,375.2532],
    [8251,1532802079,56.9567,-111.5602,773.6,455.0,183.3,3.6,6.3,23.3,50.8,1.9382,374.7138],
    [8252,1532802080,56.9561,-111.5602,768.2,448.9,183.7,4.4,6.0,23.42,51.05,1.939,375.052],
    [8253,1532802081,56.9555,-111.5602,762.8,443.5,184.3,4.8,5.7,23.25,50.28,1.9388,373.9009],
    [8254,1532802082,56.9549,-111.5602,758.1,438.0,184.2,4.6,4.6,23.91,49.8,1.9392,375.3698],
    [8255,1532802083,56.9543,-111.5602,753.8,433.5,184.0,4.2,3.7,24.04,50.09,1.9381,374.6752],
    [8256,1532802084,56.9537,-111.5603,749.7,428.6,183.1,3.2,3.2,23.45,50.94,1.9384,374.6752],
    [8257,1532802085,56.9531,-111.5603,746.0,424.9,182.3,2.2,3.1,22.88,50.35,1.9385,374.4438],
    [8258,1532802086,56.9525,-111.5603,742.7,422.5,181.9,1.9,3.0,23.4,50.74,1.9386,374.0658],
    [8259,1532802087,56.9519,-111.5603,739.3,419.3,182.3,2.1,3.3,23.96,49.94,1.9356,375.1355],
    [8260,1532802088,56.9513,-111.5603,736.3,417.3,182.7,2.1,2.1,23.98,49.75,1.9375,375.0504],
    [8261,1532802089,56.9507,-111.5603,733.2,414.2,183.5,2.8,1.1,23.95,49.87,1.936,375.0504],
    [8262,1532802090,56.9501,-111.5603,729.7,411.0,182.8,2.0,0.3,23.38,51.04,1.9364,374.014],
    [8263,1532802091,56.9495,-111.5604,726.3,408.3,182.5,2.2,-0.6,23.27,50.57,1.9361,373.58],
    [8264,1532802092,56.9489,-111.5604,722.8,405.8,184.0,4.2,0.3,24.15,49.88,1.9363,374.9107],
    [8265,1532802093,56.9483,-111.5604,719.3,403.0,183.5,3.5,-0.4,23.82,49.63,1.9368,374.5752],
    [8266,1532802094,56.9476,-111.5604,716.2,400.2,183.1,3.6,-1.1,23.7,49.73,1.9348,374.2014],
    [8267,1532802095,56.947,-111.5604,712.8,396.8,184.3,4.8,-0.4,23.66,49.49,1.9338,374.0176],
    [8268,1532802096,56.9464,-111.5604,709.7,393.7,183.5,3.9,0.0,23.5,49.71,1.9338,373.7943],
    [8269,1532802097,56.9458,-111.5604,706.6,391.6,183.2,3.4,-0.4,24.21,48.83,1.9339,372.5806],
    [8270,1532802098,56.9452,-111.5604,704.7,389.7,181.2,1.2,0.1,24.25,48.97,1.9345,372.9558],
    [8271,1532802099,56.9445,-111.5604,703.0,388.0,181.9,2.1,1.5,23.41,49.49,1.9334,373.912],
    [8272,1532802100,56.9439,-111.5604,701.0,386.0,182.0,2.2,2.1,24.02,49.17,1.9351,373.3438],
    [8273,1532802101,56.9433,-111.5604,698.9,383.9,181.0,1.5,2.2,24.47,48.53,1.9327,373.6779],
    [8274,1532802102,56.9427,-111.5604,696.7,381.7,181.0,1.7,2.0,24.15,48.48,1.9332,373.6623],
    [8275,1532802103,56.9421,-111.5604,694.6,379.6,181.4,2.2,2.0,24.08,48.41,1.9344,373.0408],
    [8276,1532802104,56.9415,-111.5604,692.2,377.2,182.8,3.6,2.7,24.79,48.01,1.9328,373.5808],
    [8277,1532802105,56.9409,-111.5604,688.8,373.8,183.2,3.9,2.5,24.04,48.11,1.9336,373.6361],
    [8278,1532802106,56.9403,-111.5604,685.5,370.5,183.2,3.5,2.6,24.13,48.14,1.9325,374.9405],
    [8279,1532802107,56.9397,-111.5604,682.1,367.1,184.6,4.6,1.0,24.67,47.46,1.9329,374.7422],
    [8280,1532802108,56.9391,-111.5604,679.5,364.5,184.3,3.9,1.5,23.42,47.95,1.9318,374.7013],
    [8281,1532802109,56.9385,-111.5604,676.8,361.5,183.3,3.2,1.7,24.22,48.04,1.9324,373.8364],
    [8282,1532802110,56.9379,-111.5605,673.6,357.6,184.2,4.5,1.5,24.93,46.86,1.9329,374.1857],
    [8283,1532802111,56.9373,-111.5605,672.0,356.0,182.9,3.4,1.8,24.12,47.47,1.9321,374.0899],
    [8284,1532802112,56.9367,-111.5605,672.5,356.5,181.7,2.4,1.7,23.98,46.78,1.9308,373.9728],
    [8285,1532802113,56.9361,-111.5605,672.6,355.6,181.6,2.8,2.0,24.26,46.27,1.9312,375.2251],
    [8286,1532802114,56.9355,-111.5604,672.9,355.9,181.3,3.1,1.1,24.28,46.69,1.9318,375.2251],
    [8287,1532802115,56.9349,-111.5604,673.3,356.3,181.2,3.2,0.0,24.18,46.17,1.9302,375.1992],
    [8288,1532802116,56.9343,-111.5604,673.6,356.2,180.9,2.8,-0.5,24.42,45.81,1.931,373.0731],
    [8289,1532802117,56.9337,-111.5603,673.6,355.6,181.9,3.8,-1.3,24.27,45.62,1.9315,374.8893],
    [8290,1532802118,56.9331,-111.5603,673.1,355.2,182.0,3.5,-1.3,24.22,46.83,1.933,374.088],
    [8291,1532802119,56.9325,-111.5603,672.1,353.1,181.7,3.0,-1.8,24.6,45.74,1.9327,374.7636],
    [8292,1532802120,56.9319,-111.5603,670.2,350.1,182.7,3.5,-1.8,23.48,46.03,1.9314,374.1752],
    [8293,1532802121,56.9313,-111.5603,668.3,348.3,182.4,2.6,-1.5,24.41,46.11,1.9305,374.4383],
    [8294,1532802122,56.9307,-111.5603,667.4,347.5,182.4,2.2,-0.6,25.27,45.3,1.9354,374.4669],
    [8295,1532802123,56.9301,-111.5603,666.0,345.0,183.5,3.0,-0.9,24.43,46.23,1.9365,374.4185],
    [8296,1532802124,56.9295,-111.5603,664.6,343.6,183.2,2.2,-1.4,25.11,45.58,1.9371,374.4867],
    [8297,1532802125,56.9289,-111.5604,662.7,341.7,183.4,2.2,-1.3,24.57,46.62,1.9364,373.5495],
    [8298,1532802126,56.9283,-111.5604,660.4,338.4,185.0,3.7,-1.7,24.72,46.83,1.9356,373.6142],
    [8299,1532802127,56.9277,-111.5604,658.1,336.1,184.0,2.7,-1.2,24.05,47.55,1.934,374.5679],
    [8300,1532802128,56.9271,-111.5604,656.4,334.4,182.8,2.1,-1.5,24.99,46.97,1.9351,375.1889],
    [8301,1532802129,56.9265,-111.5605,655.7,333.7,182.8,2.6,-1.8,24.0,47.27,1.9351,374.2885],
    [8302,1532802130,56.926,-111.5605,655.0,333.0,181.3,1.5,-1.4,24.56,47.15,1.9342,374.37],
    [8303,1532802131,56.9254,-111.5605,653.8,331.8,181.1,1.6,-0.6,24.46,47.78,1.9326,373.5739],
    [8304,1532802132,56.9248,-111.5605,652.2,330.2,181.9,2.4,-0.6,23.88,47.06,1.9283,374.8662],
    [8305,1532802133,56.9242,-111.5604,650.5,328.5,181.9,2.6,-0.5,24.34,47.0,1.9278,374.9923],
    [8306,1532802134,56.9237,-111.5604,648.6,326.6,180.8,1.9,-0.1,24.46,47.14,1.9285,375.0835],
    [8307,1532802135,56.9231,-111.5604,647.0,324.0,180.1,1.7,0.7,23.9,45.85,1.9296,375.0835],
    [8308,1532802136,56.9225,-111.5604,645.3,321.3,178.7,0.9,0.1,24.56,45.21,1.9279,374.0005],
    [8309,1532802137,56.922,-111.5603,643.6,318.6,178.3,1.6,-0.6,24.49,45.16,1.9298,373.7449],
    [8310,1532802138,56.9214,-111.5603,641.7,315.7,179.3,2.7,-0.5,24.61,45.16,1.9302,374.4417],
    [8311,1532802139,56.9208,-111.5602,639.7,313.7,180.6,3.7,0.5,24.32,45.98,1.9351,373.257],
    [8312,1532802140,56.9203,-111.5602,638.2,312.2,182.1,4.4,0.5,24.89,45.61,1.9357,374.068],
    [8313,1532802141,56.9197,-111.5602,637.7,311.4,182.6,4.2,-0.7,24.05,46.42,1.9361,374.0212],
    [8314,1532802142,56.9191,-111.5601,637.8,310.9,182.4,3.7,-1.3,25.11,46.53,1.9381,374.1931],
    [8315,1532802143,56.9186,-111.5601,638.4,310.4,182.4,3.5,-1.7,24.19,47.52,1.9355,374.2008],
    [8316,1532802144,56.918,-111.5601,638.7,310.7,181.6,2.5,-0.8,24.08,47.76,1.936,373.2246],
    [8317,1532802145,56.9175,-111.5601,639.7,311.7,181.5,2.4,-1.3,24.51,48.05,1.9352,373.9165],
    [8318,1532802146,56.9169,-111.5601,641.0,312.0,182.3,2.9,-2.0,24.61,47.97,1.9357,373.2553],
    [8319,1532802147,56.9163,-111.5601,643.1,314.1,182.7,3.3,-1.9,24.1,48.23,1.9367,373.4897],
    [8320,1532802148,56.9158,-111.5601,644.5,315.5,183.0,3.3,-1.9,24.51,47.94,1.9355,374.3368],
    [8321,1532802149,56.9152,-111.5601,645.1,316.1,183.0,3.0,-2.5,24.13,48.11,1.9358,374.0815],
    [8322,1532802150,56.9147,-111.5601,645.2,315.9,184.3,4.0,-2.3,24.85,47.99,1.9358,373.4923],
    [8323,1532802151,56.9141,-111.5601,645.5,315.5,183.1,3.0,-1.4,23.83,48.43,1.935,374.1791],
    [8324,1532802152,56.9136,-111.5601,646.5,316.5,181.9,2.2,-1.6,24.13,48.56,1.9335,373.5445],
    [8325,1532802153,56.913,-111.5601,647.4,317.4,182.5,3.0,-0.4,24.24,48.95,1.9345,373.6332],
    [8326,1532802154,56.9125,-111.5601,648.5,318.5,182.7,2.6,0.3,24.14,48.01,1.9333,374.3968],
    [8327,1532802155,56.9119,-111.5601,649.7,319.7,183.4,3.0,-0.1,23.91,47.92,1.9346,374.1229],
    [8328,1532802156,56.9114,-111.5601,650.7,320.7,184.3,3.6,-0.2,24.31,47.87,1.9347,372.9645],
    [8329,1532802157,56.9108,-111.5601,651.3,321.3,182.6,2.3,0.6,24.56,47.84,1.9335,373.805],
    [8330,1532802158,56.9103,-111.5601,651.8,321.8,181.3,1.8,1.5,24.03,47.92,1.9337,373.2458],
    [8331,1532802159,56.9098,-111.5601,653.7,323.7,180.6,1.7,1.5,24.56,47.85,1.9336,372.9303],
    [8332,1532802160,56.9092,-111.5601,657.1,327.1,180.1,1.2,1.8,25.04,47.8,1.9359,373.0323],
    [8333,1532802161,56.9087,-111.5601,661.3,331.3,179.8,0.5,2.6,24.49,48.2,1.9361,373.3115],
    [8334,1532802162,56.9082,-111.56,665.9,335.9,178.4,-0.8,3.7,24.01,48.65,1.935,373.8361],
    [8335,1532802163,56.9076,-111.56,670.2,340.2,178.8,-0.1,4.1,24.5,48.68,1.934,373.0756],
    [8336,1532802164,56.9071,-111.56,672.7,341.7,178.6,0.0,4.7,24.46,48.44,1.9334,374.0294],
    [8337,1532802165,56.9066,-111.56,674.3,343.3,178.6,0.4,4.4,24.82,47.82,1.9334,374.5486],
    [8338,1532802166,56.9061,-111.5599,676.7,345.7,176.7,-1.3,5.2,24.5,47.9,1.9329,372.1806],
    [8339,1532802167,56.9056,-111.5599,679.6,348.6,175.5,-2.0,6.2,24.09,47.95,1.9334,373.4808],
    [8340,1532802168,56.905,-111.5598,680.6,348.6,178.6,1.2,7.0,24.47,47.85,1.9329,374.7822],
    [8341,1532802169,56.9045,-111.5598,679.9,347.9,180.1,2.1,7.4,24.29,47.88,1.9335,373.2075],
    [8342,1532802170,56.904,-111.5598,679.1,347.1,179.6,0.9,6.6,24.42,47.98,1.9324,374.7713],
    [8343,1532802171,56.9034,-111.5598,678.7,346.4,180.7,1.7,5.9,24.5,47.9,1.9333,374.2966],
    [8344,1532802172,56.9029,-111.5598,678.3,345.3,181.1,1.9,5.4,24.71,46.85,1.9323,374.2966],
    [8345,1532802173,56.9024,-111.5597,678.8,345.8,180.5,1.8,5.4,24.18,47.7,1.9335,373.4602],
    [8346,1532802174,56.9019,-111.5597,680.0,347.0,180.9,2.5,6.3,24.56,47.7,1.9333,373.2129],
    [8347,1532802175,56.9013,-111.5597,682.1,348.1,180.0,1.8,7.3,24.97,47.1,1.9337,373.6078],
    [8348,1532802176,56.9008,-111.5597,684.2,350.2,179.1,0.9,6.9,24.55,47.26,1.934,372.9675],
    [8349,1532802177,56.9003,-111.5596,685.3,351.3,179.3,1.1,6.8,24.53,47.61,1.9331,373.5817],
    [8350,1532802178,56.8998,-111.5596,685.9,351.9,179.6,1.3,6.4,24.48,47.57,1.9348,373.5817],
    [8351,1532802179,56.8992,-111.5596,685.8,351.8,179.5,0.7,7.2,24.33,48.12,1.9347,372.9041],
    [8352,1532802180,56.8987,-111.5595,685.6,351.6,178.4,-1.0,6.3,24.43,48.12,1.9328,374.93],
    [8353,1532802181,56.8982,-111.5595,685.3,350.3,179.5,0.0,6.0,24.76,47.28,1.9343,373.832],
    [8354,1532802182,56.8976,-111.5595,684.4,349.4,180.8,1.4,5.6,24.76,47.2,1.9345,373.832],
    [8355,1532802183,56.8971,-111.5595,683.7,348.7,180.7,1.6,5.1,24.21,46.98,1.9327,375.0336],
    [8356,1532802184,56.8965,-111.5595,684.2,349.2,180.4,1.5,5.0,24.42,46.99,1.9334,375.0336],
    [8357,1532802185,56.896,-111.5595,684.6,349.6,179.6,0.6,4.4,24.29,47.81,1.9325,373.3461],
    [8358,1532802186,56.8955,-111.5595,684.1,349.1,180.1,1.5,3.6,24.2,47.08,1.9331,373.0987],
    [8359,1532802187,56.8949,-111.5594,683.1,347.0,182.1,3.2,3.5,24.23,47.05,1.9329,374.769],
    [8360,1532802188,56.8943,-111.5594,683.3,348.3,181.3,1.9,3.8,24.3,47.2,1.9342,374.3852],
    [8361,1532802189,56.8938,-111.5594,684.2,349.2,181.1,1.7,3.4,24.25,46.87,1.9337,372.7589],
    [8362,1532802190,56.8933,-111.5594,684.6,349.6,181.5,2.2,3.7,24.46,46.64,1.9325,374.3613],
    [8363,1532802191,56.8927,-111.5594,683.9,348.9,180.6,1.4,3.4,24.44,46.47,1.9322,374.0063],
    [8364,1532802192,56.8921,-111.5594,683.6,348.6,180.8,1.7,2.3,24.89,46.27,1.9317,374.0959],
    [8365,1532802193,56.8916,-111.5594,684.0,348.3,180.8,1.7,2.0,24.69,46.51,1.9312,373.9577],
    [8366,1532802194,56.891,-111.5594,684.4,348.5,181.6,2.6,1.5,24.35,47.25,1.9318,373.255],
    [8367,1532802195,56.8905,-111.5594,685.6,348.6,181.2,2.3,0.9,24.45,46.83,1.9335,373.6824],
    [8368,1532802196,56.8899,-111.5593,687.7,350.7,181.7,3.1,1.1,25.01,46.51,1.9329,373.6824],
    [8369,1532802197,56.8893,-111.5593,689.4,351.6,182.0,3.5,1.8,24.55,47.0,1.933,374.0952],
    [8370,1532802198,56.8888,-111.5593,690.2,352.2,181.6,3.3,2.6,24.02,47.21,1.9335,374.0952],
    [8371,1532802199,56.8882,-111.5593,690.7,352.7,181.4,3.4,2.8,24.36,47.24,1.9332,374.0375],
    [8372,1532802200,56.8877,-111.5592,691.9,353.9,181.3,3.0,3.2,24.17,47.13,1.9327,373.4398],
    [8373,1532802201,56.8871,-111.5592,694.0,355.3,180.8,2.5,3.7,24.44,47.48,1.9332,374.2079],
    [8374,1532802202,56.8866,-111.5592,696.0,357.0,181.1,2.8,3.8,24.47,47.43,1.9325,375.2174],
    [8375,1532802203,56.886,-111.5592,697.0,358.1,181.0,2.5,3.9,24.37,47.43,1.9324,374.1704],
    [8376,1532802204,56.8855,-111.5591,697.6,357.6,180.5,2.4,4.4,24.44,46.75,1.9303,373.4358],
    [8377,1532802205,56.8849,-111.5591,697.2,356.5,181.1,3.1,4.8,23.88,46.96,1.9316,373.5464],
    [8378,1532802206,56.8844,-111.5591,696.4,355.4,180.0,1.8,4.4,24.34,47.15,1.9326,373.5401],
    [8379,1532802207,56.8838,-111.5591,695.2,353.2,179.1,1.2,2.6,24.35,47.04,1.9329,374.2639],
    [8380,1532802208,56.8833,-111.559,693.4,351.5,179.1,1.5,2.0,24.43,47.26,1.9342,374.2845],
    [8381,1532802209,56.8827,-111.559,692.1,349.1,179.3,2.3,2.4,24.21,47.1,1.932,373.2132],
    [8382,1532802210,56.8822,-111.5589,691.1,348.1,180.0,3.0,1.5,24.19,47.51,1.9351,373.2132],
    [8383,1532802211,56.8816,-111.5589,689.8,345.8,180.4,2.8,0.9,24.33,47.47,1.9331,373.7768],
    [8384,1532802212,56.8811,-111.5588,687.4,343.4,181.6,2.7,0.9,24.29,47.77,1.9326,373.7768],
    [8385,1532802213,56.8805,-111.5588,684.8,340.8,182.4,2.1,0.4,24.94,47.21,1.9317,373.507],
    [8386,1532802214,56.88,-111.5589,683.1,338.1,182.8,1.5,0.0,24.92,47.09,1.9298,373.419],
    [8387,1532802215,56.8794,-111.5589,682.8,337.8,182.9,1.5,0.2,23.81,47.14,1.9307,372.8576],
    [8388,1532802216,56.8788,-111.5589,683.5,338.4,183.3,2.0,0.7,24.04,46.98,1.927,373.757],
    [8389,1532802217,56.8783,-111.5589,684.3,340.2,182.3,1.0,0.4,24.54,46.55,1.9283,373.6957],
    [8390,1532802218,56.8777,-111.559,684.4,340.4,182.7,1.9,-0.1,24.78,45.69,1.9283,374.5571],
    [8391,1532802219,56.8771,-111.559,684.1,339.0,182.8,1.9,-0.2,24.12,46.35,1.9288,374.0989],
    [8392,1532802220,56.8766,-111.559,683.9,337.9,181.9,1.2,-0.7,24.27,46.4,1.9285,373.4257],
    [8393,1532802221,56.876,-111.559,683.2,336.2,181.9,1.3,-0.2,24.3,47.09,1.9301,374.6679],
    [8394,1532802222,56.8755,-111.559,682.5,334.5,181.5,1.2,0.7,24.29,46.79,1.9313,374.2323],
    [8395,1532802223,56.8749,-111.559,682.7,333.7,181.2,1.3,1.7,24.18,46.9,1.9309,373.8992],
    [8396,1532802224,56.8744,-111.559,683.3,333.2,181.1,1.7,1.4,24.28,46.91,1.9293,373.8378],
    [8397,1532802225,56.8738,-111.559,684.0,333.7,180.3,1.0,1.4,24.56,46.68,1.9284,373.5723],
    [8398,1532802226,56.8733,-111.559,684.8,333.8,180.5,1.8,0.6,25.16,46.45,1.9287,373.509],
    [8399,1532802227,56.8727,-111.559,686.0,334.5,182.4,3.7,-0.1,24.22,46.81,1.9289,373.5927],
    [8400,1532802228,56.8722,-111.559,687.4,335.4,181.5,2.5,-0.3,24.21,46.99,1.9292,373.5927],
    [8401,1532802229,56.8716,-111.5589,687.8,334.8,181.7,2.8,0.4,24.57,47.15,1.9302,373.0308],
    [8402,1532802230,56.871,-111.5589,687.2,333.1,183.2,3.8,1.0,24.89,46.49,1.9294,372.8363],
    [8403,1532802231,56.8705,-111.5589,687.2,332.9,183.4,3.3,1.1,24.67,46.78,1.9315,373.3202],
    [8404,1532802232,56.87,-111.5589,689.4,334.4,183.2,2.7,1.3,24.64,47.02,1.9308,374.5645],
    [8405,1532802233,56.8694,-111.559,692.0,336.0,183.9,3.5,1.1,24.19,47.03,1.9292,373.138],
    [8406,1532802234,56.8689,-111.559,693.3,337.3,184.5,3.8,0.7,24.58,46.48,1.9277,373.6714],
    [8407,1532802235,56.8683,-111.559,695.2,338.5,184.1,3.4,0.9,24.28,47.39,1.9258,373.5521],
    [8408,1532802236,56.8678,-111.559,697.9,340.9,184.7,4.3,2.1,23.88,46.6,1.926,374.3192],
    [8409,1532802237,56.8672,-111.559,701.0,344.0,184.8,4.3,3.0,24.03,46.59,1.9284,374.1312],
    [8410,1532802238,56.8667,-111.559,704.6,347.2,184.2,3.6,3.7,24.0,46.38,1.9291,373.4306],
    [8411,1532802239,56.8662,-111.5591,708.8,350.8,183.6,2.8,4.6,24.22,46.21,1.9305,373.6439],
    [8412,1532802240,56.8657,-111.5591,712.9,354.9,182.9,2.2,4.6,23.99,46.39,1.9308,374.0958],
    [8413,1532802241,56.8651,-111.5591,715.4,356.9,183.6,3.1,5.3,24.47,47.01,1.9315,373.1322],
    [8414,1532802242,56.8646,-111.5591,717.2,358.2,183.6,2.6,4.7,24.66,46.54,1.9318,373.4255],
    [8415,1532802243,56.8641,-111.5591,718.2,359.2,183.4,2.4,4.6,24.51,47.01,1.9314,373.4255],
    [8416,1532802244,56.8635,-111.5592,718.9,358.9,185.6,4.5,4.0,24.17,47.26,1.9305,374.0393],
    [8417,1532802245,56.863,-111.5592,719.4,359.4,184.7,3.6,4.8,24.32,47.31,1.9291,374.2089],
    [8418,1532802246,56.8624,-111.5592,720.0,360.0,183.3,2.6,5.2,24.42,47.2,1.9294,372.8434],
    [8419,1532802247,56.8619,-111.5592,719.5,359.5,183.0,3.2,5.4,24.17,47.83,1.9302,373.0622],
    [8420,1532802248,56.8614,-111.5592,718.9,358.9,183.7,4.6,7.0,23.96,47.36,1.931,373.9092],
    [8421,1532802249,56.8608,-111.5592,718.6,358.6,182.9,4.3,7.2,24.28,47.51,1.9298,373.6482],
    [8422,1532802250,56.8603,-111.5592,718.8,358.8,181.8,3.4,7.2,24.08,47.88,1.9299,373.6482],
    [8423,1532802251,56.8598,-111.5592,719.0,358.3,181.0,3.1,6.8,24.59,47.42,1.9308,371.4978],
    [8424,1532802252,56.8592,-111.5591,718.3,357.7,181.8,4.1,6.0,24.46,47.63,1.9317,373.5076],
    [8425,1532802253,56.8586,-111.5591,716.5,355.5,182.0,4.0,6.0,24.26,47.19,1.9287,372.87],
    [8426,1532802254,56.8581,-111.5591,714.4,353.4,180.8,2.7,6.4,24.27,47.95,1.929,373.2699],
    [8427,1532802255,56.8575,-111.559,713.1,352.1,180.0,1.9,6.5,24.62,46.61,1.9279,372.3554],
    [8428,1532802256,56.857,-111.559,713.4,352.4,179.3,0.9,6.1,24.25,47.15,1.9272,373.8535],
    [8429,1532802257,56.8564,-111.559,714.1,353.8,179.8,1.3,6.0,24.32,47.07,1.9269,374.1848],
    [8430,1532802258,56.8558,-111.559,713.8,353.5,181.7,2.5,5.6,24.07,46.77,1.9276,373.2236],
    [8431,1532802259,56.8553,-111.559,713.0,352.7,182.5,2.9,4.9,24.42,46.66,1.9285,372.7001],
    [8432,1532802260,56.8547,-111.559,713.7,353.4,182.8,3.1,4.9,24.32,46.62,1.9275,373.8326],
    [8433,1532802261,56.8542,-111.559,714.7,354.4,181.7,2.3,5.7,24.53,46.17,1.9255,373.8787],
    [8434,1532802262,56.8536,-111.559,715.5,355.2,181.0,2.1,5.8,23.87,45.82,1.9295,373.8546],
    [8435,1532802263,56.8531,-111.5589,715.7,354.7,181.7,2.8,4.4,24.08,46.02,1.9283,373.8944],
    [8436,1532802264,56.8525,-111.5589,715.8,354.8,181.9,2.7,3.5,24.22,46.03,1.9297,373.6362],
    [8437,1532802265,56.8519,-111.5589,715.4,354.3,182.5,3.0,2.7,23.98,46.18,1.9272,375.7667],
    [8438,1532802266,56.8513,-111.5589,716.2,355.1,181.5,1.4,2.0,24.0,46.5,1.9276,375.7667],
    [8439,1532802267,56.8508,-111.5589,718.0,357.0,182.7,2.7,2.3,24.1,46.5,1.9271,374.4273],
    [8440,1532802268,56.8502,-111.5589,719.7,358.1,183.2,2.9,2.4,24.26,46.68,1.9256,375.0862],
    [8441,1532802269,56.8496,-111.5589,721.5,359.6,182.8,2.5,2.3,24.14,45.96,1.9245,374.4664],
    [8442,1532802270,56.8491,-111.559,723.5,360.4,184.1,3.4,2.4,24.08,45.69,1.9263,374.3562],
    [8443,1532802271,56.8485,-111.559,724.6,361.2,183.9,3.5,2.3,24.38,45.62,1.9268,374.2859],
    [8444,1532802272,56.8479,-111.559,724.9,361.6,184.6,5.2,2.2,24.03,45.55,1.9278,374.5083],
    [8445,1532802273,56.8474,-111.559,724.5,361.2,183.7,4.5,1.7,24.29,45.41,1.9266,373.2917],
    [8446,1532802274,56.8468,-111.559,723.8,360.5,181.9,3.0,1.9,24.05,45.95,1.9266,374.013],
    [8447,1532802275,56.8462,-111.559,722.7,358.7,182.8,3.7,1.8,24.18,46.04,1.9271,374.1279],
    [8448,1532802276,56.8457,-111.559,721.0,356.1,182.8,3.3,1.6,23.94,46.57,1.9275,375.1523],
    [8449,1532802277,56.8451,-111.559,719.0,352.5,182.7,3.1,2.0,24.28,46.54,1.9293,371.9045],
    [8450,1532802278,56.8445,-111.559,717.2,348.9,183.1,3.2,2.0,24.26,46.64,1.9344,374.4979],
    [8451,1532802279,56.844,-111.559,716.3,346.5,183.4,3.3,2.3,24.24,47.16,1.9359,374.7568],
    [8452,1532802280,56.8434,-111.559,716.4,346.3,184.8,3.4,2.6,24.49,46.76,1.9317,374.7397],
    [8453,1532802281,56.8428,-111.559,717.1,346.1,184.6,2.2,3.7,23.63,47.32,1.9365,373.1699],
    [8454,1532802282,56.8423,-111.5591,717.6,346.5,187.8,5.1,3.1,24.94,47.17,1.9359,373.1699],
    [8455,1532802283,56.8417,-111.5592,717.6,345.7,187.7,5.1,4.5,24.33,47.94,1.9392,373.561],
    [8456,1532802284,56.8411,-111.5592,717.9,344.9,185.0,3.0,5.6,24.81,47.51,1.9379,372.968],
    [8457,1532802285,56.8406,-111.5593,717.4,343.5,185.1,4.1,5.4,24.11,48.78,1.9375,373.1319],
    [8458,1532802286,56.84,-111.5593,716.2,342.1,185.5,5.0,4.5,24.45,48.35,1.9387,373.4158],
    [8459,1532802287,56.8394,-111.5593,714.9,339.7,184.5,4.5,3.5,24.29,49.02,1.9385,373.0891],
    [8460,1532802288,56.8389,-111.5593,714.1,338.1,183.7,4.2,3.2,24.53,48.24,1.9378,373.1387],
    [8461,1532802289,56.8383,-111.5593,714.1,337.1,182.6,5.0,2.6,23.97,48.69,1.9384,373.1324],
    [8462,1532802290,56.8377,-111.5593,714.4,337.2,181.1,6.3,2.7,24.34,48.66,1.9376,373.1835],
    [8463,1532802291,56.8371,-111.5591,714.6,336.6,175.7,4.1,3.8,23.86,48.83,1.938,373.8956],
    [8464,1532802292,56.8366,-111.5589,713.6,335.6,170.7,3.5,3.4,23.98,49.05,1.9376,373.8956],
    [8465,1532802293,56.836,-111.5587,712.1,334.4,166.9,4.3,3.9,23.58,48.79,1.9389,373.1179],
    [8466,1532802294,56.8355,-111.5583,710.1,333.1,161.0,2.7,3.6,24.69,48.75,1.9381,373.2781],
    [8467,1532802295,56.8349,-111.5579,707.2,331.2,154.7,1.2,2.6,23.86,48.59,1.9391,371.5997],
    [8468,1532802296,56.8344,-111.5573,705.1,328.1,150.2,1.3,2.9,24.18,48.36,1.938,371.5997],
    [8469,1532802297,56.8339,-111.5567,705.3,327.6,146.7,1.9,3.8,24.92,47.73,1.9375,372.9981],
    [8470,1532802298,56.8335,-111.556,707.6,329.3,142.2,1.4,2.8,24.72,48.03,1.9366,373.8278],
    [8471,1532802299,56.833,-111.5553,710.0,331.0,138.1,0.7,2.3,24.77,48.01,1.9364,374.1631],
    [8472,1532802300,56.8326,-111.5545,712.6,333.6,134.3,0.2,2.1,24.68,48.19,1.9364,373.5432],
    [8473,1532802301,56.8322,-111.5537,715.4,337.4,131.2,0.5,2.5,24.13,48.21,1.9363,373.2923],
    [8474,1532802302,56.8319,-111.5529,718.7,341.6,130.2,2.0,4.5,24.72,47.75,1.9372,373.1359],
    [8475,1532802303,56.8315,-111.5519,723.0,347.9,126.5,1.4,3.9,23.59,47.92,1.938,373.6691],
    [8476,1532802304,56.8312,-111.551,726.9,354.2,121.9,1.1,2.5,24.67,48.1,1.9368,372.4597],
    [8477,1532802305,56.8309,-111.5501,729.7,360.1,119.6,1.3,3.7,24.81,47.29,1.9357,372.5107],
    [8478,1532802306,56.8307,-111.5491,730.5,362.5,115.7,0.6,3.4,24.23,48.13,1.9363,372.7467],
    [8479,1532802307,56.8305,-111.548,729.0,360.0,111.4,0.2,2.4,24.42,48.03,1.9373,373.0229],
    [8480,1532802308,56.8303,-111.547,726.9,357.9,105.8,-0.9,2.1,24.65,47.9,1.9378,374.1385],
    [8481,1532802309,56.8302,-111.5459,725.7,357.7,101.3,-0.9,2.1,23.98,48.11,1.9375,372.9448],
    [8482,1532802310,56.8301,-111.5448,724.8,357.7,98.9,0.3,2.9,24.16,48.27,1.9377,374.3752],
    [8483,1532802311,56.83,-111.5436,723.5,358.5,96.5,1.4,2.6,23.76,48.27,1.9364,372.791],
    [8484,1532802312,56.83,-111.5424,721.4,358.0,94.6,1.6,2.3,23.97,48.56,1.9368,373.7423],
    [8485,1532802313,56.83,-111.5413,718.9,357.0,93.5,0.1,2.0,24.11,48.43,1.9375,372.9738],
    [8486,1532802314,56.8299,-111.5401,716.7,355.7,91.4,0.9,0.6,23.88,48.59,1.935,372.3546],
    [8487,1532802315,56.8299,-111.539,713.6,353.6,92.4,0.8,2.1,24.14,48.47,1.9346,372.2709],
    [8488,1532802316,56.8299,-111.5378,710.1,352.1,91.6,1.0,1.3,24.09,48.3,1.9354,372.4964],
    [8489,1532802317,56.8299,-111.5367,707.4,349.4,91.3,1.3,1.4,24.8,47.6,1.9348,372.4914],
    [8490,1532802318,56.8299,-111.5355,705.9,348.9,93.0,0.4,3.3,23.79,48.14,1.9339,373.6866],
    [8491,1532802319,56.8299,-111.5343,705.1,348.1,93.1,0.1,3.1,24.24,48.18,1.9344,373.6866],
    [8492,1532802320,56.8299,-111.5332,705.5,348.5,93.3,0.3,3.3,24.45,47.73,1.9364,372.8471],
    [8493,1532802321,56.8299,-111.532,706.4,348.7,93.9,0.6,4.0,25.01,47.19,1.9356,373.056],
    [8494,1532802322,56.8299,-111.5309,707.1,349.4,94.1,0.3,4.1,23.98,47.48,1.9362,373.3371],
    [8495,1532802323,56.8299,-111.5297,707.7,349.9,94.1,0.1,3.7,24.14,47.55,1.9364,372.5149],
    [8496,1532802324,56.8299,-111.5286,707.5,350.5,94.2,0.7,3.8,24.37,47.51,1.9352,373.4107],
    [8497,1532802325,56.8299,-111.5275,707.3,351.2,93.9,1.0,3.4,24.37,47.48,1.9323,373.4107],
    [8498,1532802326,56.8299,-111.5263,707.5,352.5,93.4,0.9,2.8,24.15,47.45,1.9318,373.5484],
    [8499,1532802327,56.8298,-111.5252,707.3,353.2,92.2,1.7,1.9,24.31,47.38,1.933,373.5006],
    [8500,1532802328,56.8298,-111.524,705.9,351.8,93.1,1.9,3.9,23.93,46.89,1.9343,373.5006],
    [8501,1532802329,56.8298,-111.5229,704.5,351.6,91.2,2.3,2.6,24.46,47.24,1.9332,374.2112],
    [8502,1532802330,56.8299,-111.5218,702.2,349.2,89.6,3.0,2.2,23.75,46.9,1.934,372.9687],
    [8503,1532802331,56.8299,-111.5206,700.0,347.3,90.2,3.8,3.5,24.17,47.23,1.9338,374.0776],
    [8504,1532802332,56.8299,-111.5194,699.4,347.4,88.4,4.4,1.9,23.91,47.04,1.9342,373.1985],
    [8505,1532802333,56.83,-111.5183,699.3,347.3,88.9,4.8,3.1,24.46,46.72,1.9337,373.9768],
    [8506,1532802334,56.83,-111.5171,698.6,346.9,90.4,4.8,4.0,24.26,47.24,1.9335,373.176],
    [8507,1532802335,56.83,-111.5159,698.0,346.9,89.9,4.9,3.1,24.23,47.23,1.9347,373.3138],
    [8508,1532802336,56.8301,-111.5148,697.0,346.7,91.8,4.9,4.2,24.3,47.05,1.9361,373.0068],
    [8509,1532802337,56.8301,-111.5136,696.5,346.5,91.4,5.4,2.8,24.78,46.66,1.937,374.1595],
    [8510,1532802338,56.8301,-111.5124,696.0,346.0,92.7,5.0,3.6,24.39,47.87,1.9368,374.1595],
    [8511,1532802339,56.8301,-111.5113,694.4,344.4,93.4,5.9,3.7,24.63,47.46,1.9366,372.1116],
    [8512,1532802340,56.8301,-111.5101,691.8,341.8,92.8,6.0,3.1,24.99,46.96,1.9369,373.2139],
    [8513,1532802341,56.8301,-111.5089,689.5,340.5,92.4,5.7,2.8,24.61,47.28,1.936,373.6669],
    [8514,1532802342,56.8301,-111.5077,688.6,339.6,92.9,6.9,3.4,24.23,47.42,1.9356,373.9708],
    [8515,1532802343,56.8301,-111.5066,689.5,340.4,92.9,7.3,3.3,24.09,47.53,1.935,374.398],
    [8516,1532802344,56.8301,-111.5054,690.2,341.2,92.0,6.7,2.6,24.19,47.48,1.9344,372.4027],
    [8517,1532802345,56.8301,-111.5043,690.2,341.2,92.5,6.4,3.2,24.3,47.93,1.9355,372.4027],
    [8518,1532802346,56.8301,-111.5031,689.8,340.9,92.5,6.3,3.5,24.29,47.8,1.9346,373.1757],
    [8519,1532802347,56.8301,-111.5019,689.2,341.2,93.0,5.3,3.9,23.9,48.32,1.936,372.6093],
    [8520,1532802348,56.8301,-111.5008,688.9,340.8,93.4,4.5,4.0,24.09,47.82,1.9358,373.8685],
    [8521,1532802349,56.8301,-111.4996,688.8,340.7,92.9,3.5,3.2,24.54,47.79,1.9347,372.8123],
    [8522,1532802350,56.8301,-111.4985,688.6,340.7,92.6,3.6,2.9,24.25,47.67,1.934,373.0395],
    [8523,1532802351,56.8301,-111.4974,688.5,340.5,92.7,2.8,3.2,24.2,47.78,1.9361,372.4665],
    [8524,1532802352,56.8301,-111.4962,688.1,340.1,93.1,2.8,3.6,24.01,47.71,1.9368,373.1169],
    [8525,1532802353,56.8301,-111.495,687.4,339.4,94.1,2.6,4.6,24.0,47.75,1.9366,373.1169],
    [8526,1532802354,56.8301,-111.4939,686.2,338.2,94.5,2.4,4.6,24.57,47.34,1.9344,371.681],
    [8527,1532802355,56.8301,-111.4927,685.0,336.0,92.6,2.3,2.8,24.46,47.7,1.9355,371.681],
    [8528,1532802356,56.8301,-111.4916,683.8,334.8,93.7,2.5,4.2,24.3,48.42,1.9341,373.0707],
    [8529,1532802357,56.8301,-111.4905,682.5,333.5,94.1,1.9,4.6,24.28,48.16,1.9343,372.3543],
    [8530,1532802358,56.8301,-111.4894,681.9,333.9,92.8,0.2,3.4,24.33,47.96,1.9338,371.0403],
    [8531,1532802359,56.8301,-111.4883,682.7,334.7,91.6,-1.0,1.9,24.18,47.87,1.9344,371.5131],
    [8532,1532802360,56.8301,-111.4872,684.0,336.7,91.5,-0.1,1.9,24.26,48.61,1.9345,371.9577],
    [8533,1532802361,56.8301,-111.4861,684.9,337.9,92.5,-0.1,2.8,24.21,48.33,1.9346,371.4883],
    [8534,1532802362,56.8301,-111.4849,685.7,338.7,92.4,0.5,2.7,23.7,48.11,1.9343,370.8479],
    [8535,1532802363,56.8301,-111.4838,685.7,338.7,93.1,1.4,3.6,23.74,48.07,1.9337,370.8479],
    [8536,1532802364,56.8301,-111.4827,685.1,338.1,92.5,1.9,3.0,23.94,47.8,1.9328,371.3354],
    [8537,1532802365,56.8301,-111.4816,683.7,336.7,91.9,1.6,2.7,24.0,47.82,1.9347,371.4068],
    [8538,1532802366,56.8301,-111.4805,682.9,335.6,92.3,1.0,2.9,24.77,47.35,1.9351,370.4304],
    [8539,1532802367,56.8301,-111.4793,683.4,335.4,91.8,0.7,2.1,23.91,47.82,1.935,371.1123],
    [8540,1532802368,56.8301,-111.4782,684.9,337.9,91.4,0.6,1.8,24.22,48.01,1.9345,371.5015],
    [8541,1532802369,56.8301,-111.4771,686.3,339.3,92.4,0.6,2.9,23.97,48.17,1.9342,372.5846],
    [8542,1532802370,56.8301,-111.476,686.4,340.4,92.0,0.1,2.1,24.41,48.22,1.9353,372.5846],
    [8543,1532802371,56.8301,-111.4748,686.1,340.1,92.2,-0.2,2.1,24.59,47.87,1.9331,371.6042],
    [8544,1532802372,56.8301,-111.4737,685.6,339.5,93.5,0.0,3.5,24.56,47.85,1.9345,371.6447],
    [8545,1532802373,56.8301,-111.4726,684.8,339.8,95.0,-0.1,4.9,24.0,48.66,1.9351,372.2463],
    [8546,1532802374,56.8301,-111.4715,683.8,338.8,94.9,0.8,4.4,24.35,47.94,1.934,371.8928],
    [8547,1532802375,56.83,-111.4703,683.0,339.0,94.2,1.0,3.6,24.92,47.51,1.9333,372.054],
    [8548,1532802376,56.83,-111.4692,682.3,338.3,94.1,0.6,3.9,25.04,47.32,1.9335,371.4314],
    [8549,1532802377,56.83,-111.4681,681.2,337.2,94.6,0.7,4.5,24.41,48.41,1.9359,372.1209],
    [8550,1532802378,56.83,-111.467,680.2,336.2,94.3,-0.7,4.4,24.09,47.86,1.9348,370.9308],
    [8551,1532802379,56.83,-111.4658,679.1,335.1,93.4,-0.5,3.9,23.73,47.69,1.933,371.9572],
    [8552,1532802380,56.83,-111.4647,677.5,333.5,93.4,-0.3,4.1,24.43,47.69,1.9335,372.0939],
    [8553,1532802381,56.83,-111.4636,675.5,331.5,92.3,-0.5,3.6,24.41,48.24,1.9335,372.7804],
    [8554,1532802382,56.83,-111.4625,672.9,328.9,93.4,-0.3,5.1,24.16,48.21,1.9338,372.47],
    [8555,1532802383,56.83,-111.4614,669.7,325.7,93.6,0.6,4.8,24.05,47.75,1.9342,372.1289],
    [8556,1532802384,56.83,-111.4603,667.4,323.4,93.3,1.5,4.1,25.0,47.31,1.9325,371.2778],
    [8557,1532802385,56.83,-111.4591,666.1,323.1,93.2,1.3,3.8,24.52,47.15,1.9337,371.2831],
    [8558,1532802386,56.83,-111.458,664.7,321.7,93.1,2.8,3.4,23.82,47.76,1.9346,372.5509],
    [8559,1532802387,56.83,-111.4569,662.8,320.8,92.8,3.6,3.1,24.47,48.21,1.9343,371.6798],
    [8560,1532802388,56.83,-111.4557,660.3,318.3,92.9,3.9,3.5,24.45,47.63,1.9333,371.1849],
    [8561,1532802389,56.83,-111.4546,657.8,316.8,92.2,3.6,3.0,24.6,47.06,1.9326,372.5959],
    [8562,1532802390,56.83,-111.4534,655.7,314.9,91.9,3.7,3.1,24.23,47.03,1.934,371.4117],
    [8563,1532802391,56.83,-111.4522,654.0,313.9,94.2,3.2,5.7,23.93,47.16,1.9367,370.9557],
    [8564,1532802392,56.83,-111.4511,652.6,313.8,94.1,3.1,5.5,24.41,47.89,1.9372,370.9204],
    [8565,1532802393,56.8301,-111.4499,651.1,313.8,93.4,4.1,4.5,24.31,48.06,1.9401,371.1535],
    [8566,1532802394,56.8301,-111.4488,649.6,313.6,92.2,3.7,3.3,24.11,48.08,1.938,371.7856],
    [8567,1532802395,56.8301,-111.4477,647.5,312.6,92.8,3.6,3.9,24.5,49.25,1.9366,371.8915],
    [8568,1532802396,56.8301,-111.4465,644.3,311.0,93.6,4.4,4.1,24.38,48.63,1.9354,370.7764],
    [8569,1532802397,56.8301,-111.4454,640.7,309.7,94.0,4.2,4.0,24.02,48.37,1.9333,371.6835],
    [8570,1532802398,56.8301,-111.4442,636.9,311.6,95.3,4.5,4.8,24.56,48.04,1.9328,371.1321],
    [8571,1532802399,56.83,-111.443,633.0,319.3,94.2,4.1,3.4,24.46,47.43,1.9324,372.479],
    [8572,1532802400,56.83,-111.4419,630.6,328.3,94.7,3.7,4.3,24.57,47.89,1.9327,370.8238],
    [8573,1532802401,56.83,-111.4407,629.5,339.6,94.9,3.6,4.4,24.36,47.5,1.9335,372.0273],
    [8574,1532802402,56.83,-111.4396,629.2,352.9,93.3,2.9,3.0,24.58,47.73,1.9332,372.2285],
    [8575,1532802403,56.83,-111.4385,630.1,365.8,94.3,2.6,4.6,24.73,47.12,1.9344,371.9553],
    [8576,1532802404,56.83,-111.4373,630.1,373.6,95.5,3.0,6.0,24.54,47.63,1.9349,372.3964],
    [8577,1532802405,56.83,-111.4362,628.6,377.6,94.5,2.5,5.1,24.53,47.18,1.9338,370.741],
    [8578,1532802406,56.83,-111.4351,626.9,377.9,94.1,3.3,4.9,24.61,47.28,1.9353,372.198],
    [8579,1532802407,56.83,-111.434,625.8,377.8,93.8,3.9,4.8,24.74,47.34,1.9348,372.1894],
    [8580,1532802408,56.83,-111.4329,626.0,378.6,93.4,4.3,4.8,24.74,47.23,1.9365,370.7821],
    [8581,1532802409,56.83,-111.4318,626.5,379.5,92.6,5.4,4.3,24.7,47.18,1.9372,372.3105],
    [8582,1532802410,56.83,-111.4306,627.8,382.0,92.5,6.5,4.5,24.19,48.01,1.9379,372.3105],
    [8583,1532802411,56.8301,-111.4295,629.6,385.6,92.0,6.9,4.1,24.72,47.84,1.9363,371.8184],
    [8584,1532802412,56.8301,-111.4284,631.4,388.7,91.3,7.2,3.9,24.54,48.49,1.9358,370.796],
    [8585,1532802413,56.8301,-111.4273,632.4,391.1,91.9,7.3,4.5,25.04,47.76,1.937,372.2531],
    [8586,1532802414,56.8301,-111.4261,631.8,390.4,91.4,8.4,4.1,24.15,48.1,1.9366,371.3482],
    [8587,1532802415,56.8301,-111.425,630.4,388.3,91.6,8.9,4.2,23.84,48.33,1.9319,372.3317],
    [8588,1532802416,56.8302,-111.4238,629.3,386.9,91.5,10.0,3.9,24.6,48.28,1.9313,372.4124],
    [8589,1532802417,56.8302,-111.4227,628.3,385.3,92.0,10.6,4.0,24.88,47.89,1.9323,371.7957],
    [8590,1532802418,56.8302,-111.4216,627.5,383.5,92.5,10.1,4.4,24.47,48.1,1.935,371.4548],
    [8591,1532802419,56.8302,-111.4205,627.2,383.2,92.5,9.6,3.8,24.43,48.77,1.9365,371.2554],
    [8592,1532802420,56.8302,-111.4194,627.0,384.0,91.8,9.8,3.0,24.4,48.39,1.9367,370.9182],
    [8593,1532802421,56.8302,-111.4182,626.9,385.8,92.2,9.9,3.7,23.89,48.48,1.9347,372.2009],
    [8594,1532802422,56.8303,-111.4171,626.5,387.5,91.0,9.4,2.8,24.55,48.25,1.9349,371.8363],
    [8595,1532802423,56.8303,-111.416,626.9,388.9,89.6,9.3,2.1,24.91,48.19,1.934,371.3433],
    [8596,1532802424,56.8303,-111.4148,628.6,390.6,90.5,9.1,3.2,24.83,47.86,1.9347,371.3844],
    [8597,1532802425,56.8303,-111.4137,632.0,394.0,90.1,8.1,2.6,24.44,49.12,1.9339,371.3844],
    [8598,1532802426,56.8303,-111.4126,637.3,398.2,89.5,7.4,2.1,24.92,47.89,1.9351,371.7344],
    [8599,1532802427,56.8304,-111.4115,642.9,403.9,90.7,6.8,2.7,24.46,48.44,1.936,371.7344],
    [8600,1532802428,56.8304,-111.4105,648.2,408.2,90.2,6.4,1.9,24.23,48.97,1.9397,371.2177],
    [8601,1532802429,56.8304,-111.4094,652.3,403.6,90.9,6.1,2.2,24.1,49.06,1.9384,372.5717],
    [8602,1532802430,56.8304,-111.4083,655.6,391.8,91.6,6.6,2.5,24.26,50.14,1.9393,372.0992],
    [8603,1532802431,56.8304,-111.4072,658.1,375.1,92.2,6.8,2.9,24.54,49.45,1.9394,371.4502],
    [8604,1532802432,56.8304,-111.4062,659.6,366.6,91.3,5.3,2.4,24.41,49.86,1.9363,371.6896],
    [8605,1532802433,56.8304,-111.4052,661.1,358.5,90.8,4.5,2.2,24.37,49.63,1.9367,371.9138],
    [8606,1532802434,56.8304,-111.4042,662.7,352.0,90.9,4.1,2.3,23.69,49.96,1.9368,370.5695],
    [8607,1532802435,56.8305,-111.4032,664.4,348.8,90.5,4.3,2.1,24.11,50.14,1.9349,371.0081],
    [8608,1532802436,56.8305,-111.4021,666.5,343.5,90.4,3.9,2.3,24.06,50.11,1.9342,371.5241],
    [8609,1532802437,56.8305,-111.4011,669.1,339.7,90.6,3.9,2.6,24.32,49.7,1.9346,371.1946],
    [8610,1532802438,56.8305,-111.4001,671.0,337.9,90.5,3.6,2.5,24.24,49.49,1.9339,371.8009],
    [8611,1532802439,56.8305,-111.3991,671.9,334.2,90.8,3.7,3.0,23.95,49.52,1.9335,370.1039],
    [8612,1532802440,56.8305,-111.398,672.9,331.9,91.8,4.1,3.3,23.92,49.37,1.9333,371.4822],
    [8613,1532802441,56.8306,-111.397,675.1,331.1,91.0,4.3,2.3,23.71,49.33,1.9338,372.0484],
    [8614,1532802442,56.8306,-111.396,677.7,330.4,92.6,4.3,3.6,24.54,48.9,1.9335,372.3041],
    [8615,1532802443,56.8306,-111.395,680.8,331.6,93.1,3.0,3.9,23.75,49.07,1.9327,373.1689],
    [8616,1532802444,56.8306,-111.3941,684.0,333.0,92.5,1.6,3.4,23.86,49.22,1.9348,371.6439],
    [8617,1532802445,56.8306,-111.3931,687.4,336.4,91.1,0.2,2.4,24.05,49.14,1.9378,372.4728],
    [8618,1532802446,56.8306,-111.3921,691.2,340.3,91.0,-0.5,2.4,24.4,49.18,1.9377,371.8389],
    [8619,1532802447,56.8306,-111.3911,694.5,343.6,92.2,-0.4,3.3,24.26,49.35,1.9379,371.8389],
    [8620,1532802448,56.8306,-111.3902,697.0,346.2,93.1,-0.3,3.8,23.83,49.83,1.9377,371.9239],
    [8621,1532802449,56.8306,-111.3892,698.0,348.4,93.4,-0.2,3.9,23.78,50.05,1.9377,371.6253],
    [8622,1532802450,56.8306,-111.3882,698.5,349.4,93.7,0.1,4.1,24.04,50.2,1.9369,371.3479],
    [8623,1532802451,56.8306,-111.3873,699.0,350.9,93.5,0.8,3.7,23.91,50.31,1.9362,372.1859],
    [8624,1532802452,56.8306,-111.3863,699.9,352.0,93.5,1.1,3.6,23.81,51.05,1.9363,371.9489],
    [8625,1532802453,56.8306,-111.3853,701.3,353.0,94.0,1.2,4.1,23.68,50.56,1.9368,371.7535],
    [8626,1532802454,56.8306,-111.3843,703.0,353.7,94.0,0.0,4.2,23.67,50.33,1.9375,371.9488],
    [8627,1532802455,56.8306,-111.3834,704.8,354.7,93.3,-0.1,3.7,23.41,50.32,1.9374,371.1761],
    [8628,1532802456,56.8306,-111.3824,705.8,354.6,92.5,-0.1,3.3,23.68,51.02,1.9368,371.216],
    [8629,1532802457,56.8306,-111.3814,706.0,353.8,92.4,-0.3,3.7,23.55,50.42,1.9363,371.7327],
    [8630,1532802458,56.8307,-111.3804,706.0,353.0,91.7,-0.7,3.6,24.08,50.0,1.9367,372.1874],
    [8631,1532802459,56.8307,-111.3795,705.9,352.6,91.1,-0.1,3.5,23.63,50.32,1.9363,372.316],
    [8632,1532802460,56.8307,-111.3785,704.5,351.5,90.8,0.6,3.3,24.19,49.91,1.9368,371.3139],
    [8633,1532802461,56.8307,-111.3775,702.9,349.9,90.3,0.6,2.6,23.53,50.95,1.9375,371.8156],
    [8634,1532802462,56.8307,-111.3764,702.2,351.0,90.4,0.7,1.8,23.55,50.36,1.9371,371.6346],
    [8635,1532802463,56.8308,-111.3755,702.6,352.7,90.3,0.8,1.4,23.69,50.37,1.9361,372.3205],
    [8636,1532802464,56.8308,-111.3744,703.4,353.2,91.3,1.1,1.9,23.93,50.19,1.9344,371.7249],
    [8637,1532802465,56.8308,-111.3734,705.5,354.4,91.0,0.9,1.4,23.64,50.11,1.935,371.553],
    [8638,1532802466,56.8308,-111.3724,708.2,355.9,91.6,1.0,1.8,23.69,49.72,1.9363,371.5471],
    [8639,1532802467,56.8308,-111.3714,710.3,357.1,93.5,1.3,3.3,23.2,49.69,1.9361,372.3415],
    [8640,1532802468,56.8308,-111.3704,711.9,357.5,93.5,0.3,2.5,23.68,50.06,1.9341,372.4956],
    [8641,1532802469,56.8307,-111.3695,713.5,358.2,93.7,-0.1,2.4,22.92,49.91,1.9341,370.9423],
    [8642,1532802470,56.8307,-111.3684,714.6,357.5,95.4,-0.2,3.9,23.38,50.22,1.9355,371.9891],
    [8643,1532802471,56.8307,-111.3674,715.1,357.1,94.8,-0.4,3.0,23.81,49.43,1.9356,372.0537],
    [8644,1532802472,56.8307,-111.3664,715.6,357.6,94.2,-0.9,2.7,23.99,49.51,1.9349,371.4765],
    [8645,1532802473,56.8307,-111.3654,715.0,356.0,94.8,-0.4,3.4,23.73,49.53,1.9329,372.0459],
    [8646,1532802474,56.8307,-111.3643,714.0,355.0,94.2,0.2,2.7,23.33,49.82,1.9338,371.9873],
    [8647,1532802475,56.8306,-111.3633,713.5,354.5,93.7,-0.7,2.6,23.71,49.38,1.9361,371.7889],
    [8648,1532802476,56.8306,-111.3623,714.2,354.5,94.7,-0.6,3.8,24.02,49.37,1.9357,371.7889],
    [8649,1532802477,56.8306,-111.3613,714.4,354.4,94.7,0.1,4.0,23.49,49.49,1.937,371.6664],
    [8650,1532802478,56.8306,-111.3603,714.6,354.6,93.5,0.4,3.1,23.69,49.61,1.9367,372.1065],
    [8651,1532802479,56.8306,-111.3593,714.5,354.5,91.8,0.1,2.4,23.59,49.64,1.9377,372.106],
    [8652,1532802480,56.8306,-111.3582,712.5,351.5,91.4,-1.5,3.1,23.13,49.58,1.9366,372.4253],
    [8653,1532802481,56.8306,-111.3572,709.9,348.9,90.3,-1.2,2.4,23.08,49.98,1.9366,372.9223],
    [8654,1532802482,56.8307,-111.3562,707.8,346.8,89.6,0.4,1.8,23.69,50.04,1.9356,372.0744],
    [8655,1532802483,56.8307,-111.3551,706.6,344.6,90.9,-0.2,2.9,23.68,49.55,1.9364,372.8596],
    [8656,1532802484,56.8307,-111.3541,705.5,343.5,91.6,0.5,3.1,24.01,49.64,1.9364,371.4884],
    [8657,1532802485,56.8307,-111.353,704.8,342.8,91.5,0.6,2.7,23.62,49.91,1.9365,372.1311],
    [8658,1532802486,56.8307,-111.352,703.2,341.2,92.1,0.5,3.1,23.98,49.16,1.937,370.8139],
    [8659,1532802487,56.8307,-111.3509,701.5,338.5,93.5,1.0,3.8,23.01,49.54,1.9366,372.2313],
    [8660,1532802488,56.8307,-111.3499,699.8,336.8,94.2,1.9,3.8,24.1,49.13,1.9373,372.1623],
    [8661,1532802489,56.8307,-111.3488,698.9,335.9,94.5,2.3,3.9,23.73,49.46,1.9365,372.2949],
    [8662,1532802490,56.8307,-111.3478,698.9,335.9,95.2,2.8,4.7,22.93,49.71,1.9383,372.2804],
    [8663,1532802491,56.8307,-111.3467,697.9,334.9,95.6,3.4,4.9,23.39,49.67,1.9376,372.8611],
    [8664,1532802492,56.8307,-111.3457,697.4,334.6,95.0,3.5,4.1,24.12,49.44,1.9367,371.8805],
    [8665,1532802493,56.8307,-111.3446,698.2,336.2,94.6,3.7,3.9,23.77,49.43,1.9357,372.1201],
    [8666,1532802494,56.8307,-111.3436,698.5,336.5,94.5,2.7,3.9,23.28,49.76,1.9371,371.6113],
    [8667,1532802495,56.8306,-111.3425,698.5,336.5,94.0,3.0,3.4,23.6,50.09,1.9362,372.4135],
    [8668,1532802496,56.8306,-111.3415,699.1,336.1,93.4,3.5,2.9,23.85,49.65,1.9356,372.8188],
    [8669,1532802497,56.8306,-111.3404,700.7,337.7,92.8,2.4,2.9,24.32,49.12,1.934,373.4008],
    [8670,1532802498,56.8306,-111.3394,702.8,338.7,92.9,1.4,3.9,23.49,49.47,1.9344,372.1286],
    [8671,1532802499,56.8306,-111.3383,704.1,340.1,92.6,2.5,3.7,22.95,49.29,1.9351,372.6972],
    [8672,1532802500,56.8307,-111.3372,704.3,340.3,91.9,3.8,3.3,23.76,48.85,1.9336,371.4365],
    [8673,1532802501,56.8307,-111.3362,703.9,339.6,93.1,4.3,4.3,23.64,49.2,1.934,372.9128],
    [8674,1532802502,56.8307,-111.3351,704.1,339.1,92.4,3.5,3.4,23.46,49.41,1.9348,371.6871],
    [8675,1532802503,56.8307,-111.3341,704.5,339.5,92.0,3.5,2.9,23.62,49.7,1.9375,372.1098],
    [8676,1532802504,56.8307,-111.333,704.4,339.1,93.6,2.8,4.0,23.54,49.3,1.9381,373.0043],
    [8677,1532802505,56.8307,-111.332,704.1,338.1,94.0,2.4,4.0,22.77,49.64,1.9374,373.0043],
    [8678,1532802506,56.8307,-111.3309,703.5,337.5,93.0,2.7,3.1,23.94,49.89,1.9362,371.5596],
    [8679,1532802507,56.8307,-111.3299,703.0,336.0,92.9,3.1,3.1,23.53,49.7,1.9361,371.9959],
    [8680,1532802508,56.8307,-111.3288,703.1,336.1,93.4,3.9,3.2,23.38,49.96,1.9362,371.6725],
    [8681,1532802509,56.8307,-111.3277,703.6,335.6,94.2,5.1,3.9,23.2,49.7,1.9381,371.904],
    [8682,1532802510,56.8307,-111.3267,704.0,336.0,95.3,4.2,4.5,23.63,50.28,1.9346,372.4916],
    [8683,1532802511,56.8307,-111.3256,704.6,335.6,95.0,3.8,4.1,22.95,49.76,1.9351,372.2562],
    [8684,1532802512,56.8306,-111.3246,705.0,336.0,95.3,4.7,4.1,23.79,49.6,1.9347,371.7776],
    [8685,1532802513,56.8306,-111.3236,705.9,335.9,95.1,4.1,3.9,23.61,50.33,1.9338,372.3324],
    [8686,1532802514,56.8306,-111.3225,707.5,337.5,94.3,3.4,3.1,23.79,49.74,1.9357,370.8186],
    [8687,1532802515,56.8306,-111.3215,709.3,338.3,94.0,4.1,2.8,23.68,50.25,1.9335,372.6371],
    [8688,1532802516,56.8306,-111.3204,711.6,340.6,93.9,4.4,3.0,23.44,49.68,1.93,372.1191],
    [8689,1532802517,56.8306,-111.3194,713.7,341.7,93.7,4.5,2.6,23.65,49.87,1.9311,371.5333],
    [8690,1532802518,56.8306,-111.3184,716.8,343.8,91.2,4.1,0.7,23.7,48.81,1.9327,371.5333],
    [8691,1532802519,56.8306,-111.3173,718.8,345.8,90.9,4.9,1.2,23.22,48.9,1.9323,373.6947],
    [8692,1532802520,56.8306,-111.3163,719.9,345.9,91.5,5.6,2.2,23.07,49.23,1.9315,372.3294],
    [8693,1532802521,56.8306,-111.3153,720.6,345.6,90.3,5.5,1.4,23.93,48.66,1.9341,372.3294],
    [8694,1532802522,56.8306,-111.3142,721.2,345.2,91.0,5.7,2.0,24.12,48.59,1.9342,372.7117],
    [8695,1532802523,56.8306,-111.3132,721.6,343.8,91.7,5.2,2.2,23.18,49.01,1.933,372.0369],
    [8696,1532802524,56.8306,-111.3121,722.1,342.1,91.5,4.5,2.0,23.97,48.43,1.9337,372.7951],
    [8697,1532802525,56.8306,-111.311,722.5,339.1,93.3,4.4,3.7,23.6,49.32,1.9346,372.836],
    [8698,1532802526,56.8306,-111.31,723.4,336.9,92.5,4.1,3.0,23.43,49.61,1.9336,373.0118],
    [8699,1532802527,56.8306,-111.3089,726.0,336.1,91.4,4.5,2.2,23.17,50.09,1.934,372.5595],
    [8700,1532802528,56.8306,-111.3079,728.8,334.8,93.3,4.5,3.7,23.7,49.48,1.9345,372.0524],
    [8701,1532802529,56.8306,-111.3069,732.0,333.6,93.4,3.9,2.9,23.84,49.59,1.932,372.7671],
    [8702,1532802530,56.8306,-111.3058,734.8,333.8,93.0,3.5,2.6,23.46,50.39,1.9301,372.7079],
    [8703,1532802531,56.8306,-111.3048,736.0,332.1,93.8,3.7,3.3,23.51,49.43,1.9306,372.1713],
    [8704,1532802532,56.8306,-111.3038,737.5,331.5,93.2,3.3,2.9,23.22,49.06,1.9272,372.76],
    [8705,1532802533,56.8306,-111.3028,739.1,330.8,93.1,1.1,2.7,23.21,48.44,1.933,372.7577],
    [8706,1532802534,56.8306,-111.3018,740.3,330.3,92.0,0.1,1.6,23.09,49.0,1.9301,371.9181],
    [8707,1532802535,56.8306,-111.3007,741.5,329.5,91.3,0.5,1.3,23.69,48.14,1.9294,370.894],
    [8708,1532802536,56.8306,-111.2997,743.0,330.0,91.6,0.5,1.7,24.04,47.74,1.9292,371.147],
    [8709,1532802537,56.8306,-111.2987,744.4,329.4,92.5,0.6,2.3,22.99,48.42,1.9328,372.8206],
    [8710,1532802538,56.8306,-111.2977,745.9,330.9,93.1,0.3,2.5,23.47,48.59,1.9315,371.8661],
    [8711,1532802539,56.8306,-111.2967,747.3,332.3,92.7,-1.1,1.9,23.96,48.03,1.9324,373.0163],
    [8712,1532802540,56.8306,-111.2957,747.4,332.4,92.4,-0.8,1.5,23.32,48.89,1.9313,372.2799],
    [8713,1532802541,56.8306,-111.2947,747.0,333.0,91.9,-1.3,0.9,23.32,48.75,1.9297,372.641],
    [8714,1532802542,56.8305,-111.2937,746.6,332.6,92.4,-1.8,1.1,23.37,49.45,1.9277,372.5202],
    [8715,1532802543,56.8305,-111.2927,746.3,334.4,92.9,-1.1,1.5,23.86,48.33,1.928,373.0727],
    [8716,1532802544,56.8305,-111.2917,745.5,334.8,94.5,-0.8,2.8,22.9,48.87,1.9299,372.9712],
    [8717,1532802545,56.8305,-111.2907,744.4,337.3,94.6,-1.1,2.7,23.41,48.37,1.9279,373.8133],
    [8718,1532802546,56.8305,-111.2897,743.3,338.3,93.8,-1.3,1.9,23.26,48.59,1.9284,372.578],
    [8719,1532802547,56.8305,-111.2886,742.0,337.0,94.6,-1.0,3.0,22.61,48.38,1.9282,372.9173],
    [8720,1532802548,56.8304,-111.2876,740.7,335.7,96.4,-0.4,4.7,23.21,48.78,1.9287,372.4485],
    [8721,1532802549,56.8304,-111.2866,739.9,333.9,96.0,0.1,3.9,22.55,48.27,1.9271,372.4485],
    [8722,1532802550,56.8304,-111.2855,740.0,334.0,96.0,1.5,3.8,23.32,48.67,1.9291,373.1602],
    [8723,1532802551,56.8304,-111.2845,741.5,334.5,96.3,1.6,4.4,23.29,47.99,1.9316,372.4731],
    [8724,1532802552,56.8303,-111.2835,743.4,335.7,96.3,1.2,4.6,23.03,48.11,1.933,373.3757],
    [8725,1532802553,56.8303,-111.2824,744.3,337.3,95.9,1.7,4.5,24.1,47.48,1.9303,372.2108],
    [8726,1532802554,56.8303,-111.2814,745.5,340.5,95.4,1.2,4.1,23.98,47.55,1.9301,372.88],
    [8727,1532802555,56.8303,-111.2803,747.9,343.9,93.2,1.1,2.1,23.28,49.15,1.9304,372.1676],
    [8728,1532802556,56.8303,-111.2793,749.6,346.3,94.4,1.9,3.3,23.65,48.0,1.9281,372.8728],
    [8729,1532802557,56.8303,-111.2782,749.3,346.3,95.5,1.9,4.5,23.21,48.48,1.9285,372.6187],
    [8730,1532802558,56.8302,-111.2772,748.3,345.3,95.3,2.2,4.4,23.01,48.31,1.928,372.5349],
    [8731,1532802559,56.8302,-111.2761,747.8,343.8,94.7,2.9,4.1,23.0,48.95,1.9276,373.1055],
    [8732,1532802560,56.8302,-111.2751,747.6,343.3,94.9,3.9,4.4,23.59,47.97,1.9274,373.1055],
    [8733,1532802561,56.8302,-111.274,747.6,342.0,94.4,4.5,3.8,23.29,48.29,1.928,374.1868],
    [8734,1532802562,56.8302,-111.2729,747.3,340.3,94.1,4.1,3.5,22.99,48.0,1.9293,374.2588],
    [8735,1532802563,56.8302,-111.2718,745.7,336.7,94.5,4.2,3.8,23.51,48.42,1.9284,372.1272],
    [8736,1532802564,56.8302,-111.2707,744.0,332.3,94.7,5.3,4.0,23.61,47.74,1.9265,373.1496],
    [8737,1532802565,56.8302,-111.2696,743.1,329.2,95.1,5.6,4.1,23.23,48.28,1.9222,373.1496],
    [8738,1532802566,56.8302,-111.2685,743.3,326.2,94.3,6.1,2.8,22.95,47.39,1.9214,374.3225],
    [8739,1532802567,56.8302,-111.2675,743.9,325.0,95.2,6.2,3.4,23.2,46.99,1.9206,374.3225],
    [8740,1532802568,56.8301,-111.2664,745.4,325.5,95.4,5.1,3.0,23.34,46.27,1.9259,373.159],
    [8741,1532802569,56.8301,-111.2653,747.8,326.8,93.8,5.4,1.8,23.69,46.07,1.928,373.8487],
    [8742,1532802570,56.8301,-111.2642,749.1,328.1,94.0,5.7,2.3,22.97,46.29,1.9258,373.9538],
    [8743,1532802571,56.8301,-111.2632,750.1,330.1,93.1,6.3,1.8,22.99,46.54,1.9262,374.5277],
    [8744,1532802572,56.8301,-111.2621,751.5,331.5,94.1,6.5,3.0,23.88,46.23,1.9254,374.5277],
    [8745,1532802573,56.8301,-111.261,752.0,331.0,95.5,6.4,4.0,22.56,46.85,1.9266,373.9614],
    [8746,1532802574,56.83,-111.2599,752.2,330.1,94.1,6.5,2.1,22.92,47.41,1.9269,373.9614],
    [8747,1532802575,56.83,-111.2588,752.7,330.4,93.7,5.9,2.0,23.2,47.02,1.9265,373.9162],
    [8748,1532802576,56.83,-111.2578,753.1,329.8,94.6,4.1,3.0,23.43,47.07,1.9287,372.434],
    [8749,1532802577,56.83,-111.2567,753.5,329.5,94.5,3.9,3.1,22.74,47.37,1.9286,372.7201],
    [8750,1532802578,56.83,-111.2556,753.5,328.5,94.4,4.8,3.2,23.23,47.54,1.9289,372.0565],
    [8751,1532802579,56.83,-111.2545,754.2,328.2,93.0,4.1,2.5,23.41,47.54,1.9274,372.8747],
    [8752,1532802580,56.83,-111.2535,755.6,328.6,93.0,4.9,3.4,22.89,48.04,1.927,372.8408],
    [8753,1532802581,56.83,-111.2524,756.7,328.7,93.8,5.0,4.4,23.4,48.03,1.928,372.6195],
    [8754,1532802582,56.83,-111.2514,757.4,328.5,92.6,4.3,3.6,23.87,47.48,1.9275,373.1424],
    [8755,1532802583,56.83,-111.2503,758.0,328.7,92.0,4.2,3.2,23.43,48.22,1.9272,373.0422],
    [8756,1532802584,56.83,-111.2493,758.6,328.6,92.1,3.4,3.4,23.25,48.34,1.9276,373.0612],
    [8757,1532802585,56.83,-111.2482,759.4,328.5,92.1,4.1,3.3,23.38,48.19,1.9278,372.9134],
    [8758,1532802586,56.83,-111.2471,760.7,328.7,92.2,4.1,3.2,23.03,47.98,1.9284,373.1659],
    [8759,1532802587,56.83,-111.2461,762.1,329.1,93.4,3.4,3.7,23.64,47.64,1.9269,372.353],
    [8760,1532802588,56.83,-111.2451,763.3,329.2,94.1,3.3,3.7,22.95,48.22,1.9254,373.6444],
    [8761,1532802589,56.83,-111.244,764.1,329.7,94.8,3.0,4.0,23.38,48.09,1.9246,373.3899],
    [8762,1532802590,56.83,-111.243,764.8,329.8,94.4,3.2,3.6,23.09,47.59,1.9242,373.7016],
    [8763,1532802591,56.83,-111.2419,765.4,329.4,94.3,3.1,3.6,23.43,47.38,1.9254,373.7119],
    [8764,1532802592,56.83,-111.2409,766.2,329.2,92.9,2.0,2.2,23.26,48.03,1.9259,373.7119],
    [8765,1532802593,56.83,-111.2399,767.0,329.0,91.7,1.1,1.4,23.0,47.37,1.9271,373.8409],
    [8766,1532802594,56.83,-111.2388,767.7,328.7,92.4,1.5,2.4,23.85,47.15,1.9251,373.9755],
    [8767,1532802595,56.83,-111.2378,768.3,328.3,92.3,1.9,2.3,23.76,47.47,1.9267,373.1077],
    [8768,1532802596,56.83,-111.2367,769.4,329.4,91.3,2.0,1.9,23.29,47.58,1.927,372.76],
    [8769,1532802597,56.83,-111.2357,769.3,328.3,92.4,2.7,3.1,23.63,46.74,1.9246,373.6009],
    [8770,1532802598,56.83,-111.2347,768.4,326.4,90.9,3.2,1.7,23.48,47.04,1.9254,373.5554],
    [8771,1532802599,56.83,-111.2336,767.6,325.6,90.0,3.3,1.4,23.31,47.24,1.9233,373.2099],
    [8772,1532802600,56.83,-111.2325,767.6,325.6,90.6,3.9,2.4,23.25,47.74,1.9226,373.2099],
    [8773,1532802601,56.83,-111.2315,768.8,326.0,91.2,4.0,3.1,22.88,47.64,1.9255,374.5773],
    [8774,1532802602,56.83,-111.2304,770.2,327.2,91.1,4.1,2.7,23.15,47.04,1.9271,374.5773],
    [8775,1532802603,56.83,-111.2294,771.8,328.8,90.3,4.9,2.0,23.72,46.79,1.9282,372.7364],
    [8776,1532802604,56.8301,-111.2283,773.4,330.1,91.6,5.3,3.3,23.4,47.42,1.9278,373.7692],
    [8777,1532802605,56.8301,-111.2272,774.6,331.3,93.0,5.2,4.2,23.59,47.24,1.927,373.3266],
    [8778,1532802606,56.8301,-111.2262,774.5,330.5,93.0,5.5,3.8,23.33,47.67,1.9286,373.3266],
    [8779,1532802607,56.8301,-111.2251,774.4,330.4,93.9,6.7,4.3,23.18,48.52,1.9262,373.4316],
    [8780,1532802608,56.8301,-111.224,774.1,330.1,93.1,7.5,3.5,23.06,47.96,1.926,373.7651],
    [8781,1532802609,56.8301,-111.223,774.4,330.4,92.4,7.6,2.8,23.64,47.75,1.9259,373.2841],
    [8782,1532802610,56.8301,-111.2219,775.1,330.8,92.7,6.3,3.4,23.22,48.02,1.9264,374.1823],
    [8783,1532802611,56.8301,-111.2208,775.9,331.6,93.5,5.3,4.2,23.13,48.22,1.9275,374.2993],
    [8784,1532802612,56.8301,-111.2198,777.2,332.1,93.2,4.5,4.0,23.62,47.36,1.9267,373.1412],
    [8785,1532802613,56.8301,-111.2187,778.8,333.7,93.1,4.3,4.6,23.22,48.17,1.9275,373.7714],
    [8786,1532802614,56.8301,-111.2177,780.4,335.3,92.4,4.1,5.7,23.12,48.56,1.9268,373.7734],
    [8787,1532802615,56.8302,-111.2166,781.8,336.7,88.6,3.5,5.0,23.76,47.67,1.9284,371.8033],
    [8788,1532802616,56.8303,-111.2156,782.7,337.7,83.1,2.7,3.4,23.04,48.53,1.928,371.8033],
    [8789,1532802617,56.8304,-111.2145,783.3,338.3,79.3,3.0,4.0,23.58,47.72,1.9271,374.0718],
    [8790,1532802618,56.8305,-111.2134,783.9,338.9,74.4,3.6,3.9,22.95,48.58,1.9267,373.3044],
    [8791,1532802619,56.8308,-111.2124,785.1,340.1,69.5,2.9,3.5,23.48,47.85,1.9283,373.5053],
    [8792,1532802620,56.831,-111.2114,786.6,341.6,64.8,2.2,2.6,23.34,48.18,1.9267,374.0545],
    [8793,1532802621,56.8313,-111.2104,788.8,343.8,60.4,1.7,1.7,22.86,48.34,1.9257,374.3714],
    [8794,1532802622,56.8316,-111.2096,791.1,346.1,58.0,1.4,2.3,23.15,48.62,1.9256,373.792],
    [8795,1532802623,56.8319,-111.2087,793.5,348.5,55.4,-0.2,1.5,23.31,48.0,1.9233,373.9878],
    [8796,1532802624,56.8323,-111.2079,796.4,352.4,51.3,0.2,-0.3,22.83,48.25,1.9243,373.3915],
    [8797,1532802625,56.8326,-111.2071,799.8,355.8,47.7,0.5,-0.8,23.85,47.19,1.9242,373.3915],
    [8798,1532802626,56.833,-111.2063,802.4,358.4,46.2,-1.1,-0.6,23.16,47.94,1.9257,372.8538],
    [8799,1532802627,56.8334,-111.2056,803.5,359.5,42.2,0.2,-0.9,23.66,46.99,1.9271,373.2416],
    [8800,1532802628,56.8338,-111.2049,804.8,360.8,35.6,2.6,-2.2,23.12,47.89,1.9268,373.3688],
    [8801,1532802629,56.8343,-111.2043,804.7,361.2,33.2,1.9,-1.6,23.18,48.24,1.9284,374.0447],
    [8802,1532802630,56.8348,-111.2037,804.4,361.5,31.2,1.3,0.6,23.7,47.5,1.9267,373.5816],
    [8803,1532802631,56.8353,-111.2032,804.6,361.4,27.7,1.6,0.3,23.27,47.73,1.9259,374.3835],
    [8804,1532802632,56.8358,-111.2027,804.4,361.4,24.5,2.7,0.3,23.19,48.36,1.9273,373.8678],
    [8805,1532802633,56.8363,-111.2022,803.7,360.0,22.7,3.0,0.5,23.3,47.53,1.9269,372.265],
    [8806,1532802634,56.8368,-111.2018,803.1,359.2,22.0,2.2,0.9,23.68,47.74,1.9281,373.152],
    [8807,1532802635,56.8374,-111.2014,802.0,357.0,20.5,2.6,1.1,23.15,48.55,1.9282,372.4614],
    [8808,1532802636,56.838,-111.201,799.9,353.9,18.4,3.4,0.4,22.46,48.42,1.9274,373.3173],
    [8809,1532802637,56.8385,-111.2006,796.4,349.4,15.6,3.7,-0.7,23.25,47.91,1.9289,372.887],
    [8810,1532802638,56.8391,-111.2003,792.4,344.8,13.1,3.7,-0.6,22.93,48.07,1.9281,372.8817],
    [8811,1532802639,56.8397,-111.2,788.2,340.2,10.0,4.2,0.1,22.89,48.21,1.9283,373.9684],
    [8812,1532802640,56.8403,-111.1997,784.3,336.3,6.6,5.0,1.9,22.81,48.25,1.9285,372.5803],
    [8813,1532802641,56.8409,-111.1996,780.5,331.5,3.7,5.1,2.8,22.68,48.44,1.9285,372.304],
    [8814,1532802642,56.8415,-111.1994,777.9,327.9,361.9,4.8,3.8,23.17,48.83,1.9269,372.2556],
    [8815,1532802643,56.8421,-111.1994,776.6,326.6,360.4,4.3,4.4,23.32,48.05,1.9275,373.5995],
    [8816,1532802644,56.8427,-111.1993,776.2,326.0,358.7,5.1,4.5,22.71,48.77,1.9283,371.11],
    [8817,1532802645,56.8433,-111.1992,776.4,325.9,356.0,6.4,4.0,23.17,48.14,1.9259,372.9479],
    [8818,1532802646,56.8439,-111.1992,777.7,326.7,357.8,3.9,3.1,23.43,47.63,1.9238,373.3069],
    [8819,1532802647,56.8445,-111.1992,779.1,328.1,357.9,3.9,3.4,23.17,48.01,1.9208,373.7672],
    [8820,1532802648,56.8451,-111.1992,781.0,330.4,356.9,4.1,4.0,23.55,46.96,1.9205,373.1769],
    [8821,1532802649,56.8457,-111.1992,784.0,334.0,357.8,2.5,3.8,23.46,46.67,1.9158,374.4201],
    [8822,1532802650,56.8463,-111.1992,787.0,337.0,356.9,2.7,4.0,23.61,45.97,1.9195,374.5392],
    [8823,1532802651,56.8469,-111.1992,789.6,339.6,356.9,2.3,4.3,23.77,45.05,1.9232,374.349],
    [8824,1532802652,56.8475,-111.1992,790.9,341.2,357.8,1.7,4.0,23.11,45.92,1.9238,373.6335],
    [8825,1532802653,56.8481,-111.1992,791.4,342.4,356.8,3.0,3.4,23.26,45.39,1.9294,374.4051],
    [8826,1532802654,56.8487,-111.1992,791.9,342.9,356.5,3.3,2.9,23.28,45.67,1.9314,373.3514],
    [8827,1532802655,56.8493,-111.1992,793.0,344.0,355.9,3.6,3.0,23.44,46.28,1.9307,374.2354],
    [8828,1532802656,56.8499,-111.1993,795.2,346.2,356.0,2.9,3.0,23.55,47.06,1.9311,374.1796],
    [8829,1532802657,56.8505,-111.1993,798.6,349.6,355.9,3.2,3.1,23.07,48.0,1.9299,374.2579],
    [8830,1532802658,56.8511,-111.1993,800.5,352.2,356.8,2.1,3.1,23.14,48.31,1.9306,373.536],
    [8831,1532802659,56.8517,-111.1993,801.4,353.4,358.5,0.9,3.0,23.16,48.77,1.9309,372.6572],
    [8832,1532802660,56.8524,-111.1993,801.2,353.2,357.8,1.8,3.2,23.16,48.71,1.93,373.633],
    [8833,1532802661,56.853,-111.1994,801.6,353.6,357.1,2.1,2.6,23.06,48.42,1.9286,375.8072],
    [8834,1532802662,56.8536,-111.1994,801.7,353.7,355.7,3.5,2.4,23.72,48.22,1.9273,372.8038],
    [8835,1532802663,56.8542,-111.1994,801.7,353.7,354.6,4.3,2.6,23.17,48.81,1.9271,374.9542],
    [8836,1532802664,56.8548,-111.1994,802.0,354.0,355.5,3.9,1.8,22.67,48.56,1.9259,373.1964],
    [8837,1532802665,56.8554,-111.1995,802.7,354.7,355.2,4.3,1.5,23.11,48.43,1.9244,374.3853],
    [8838,1532802666,56.856,-111.1995,803.4,355.4,356.3,3.6,1.1,23.48,47.11,1.923,375.244],
    [8839,1532802667,56.8566,-111.1995,804.1,356.1,355.5,4.6,0.6,23.75,46.8,1.926,373.4055],
    [8840,1532802668,56.8572,-111.1995,804.7,356.7,355.4,4.7,0.1,22.77,47.31,1.9301,373.7921],
    [8841,1532802669,56.8578,-111.1995,804.8,357.8,355.3,4.9,-0.3,22.46,47.47,1.9312,374.0123],
    [8842,1532802670,56.8584,-111.1995,805.1,358.1,354.9,5.6,-0.4,23.38,47.19,1.9325,372.18],
    [8843,1532802671,56.859,-111.1995,805.1,358.1,355.0,6.0,-0.6,23.14,48.53,1.9304,372.737],
    [8844,1532802672,56.8596,-111.1995,804.7,357.7,356.1,5.2,-0.2,22.72,48.84,1.9303,373.9122],
    [8845,1532802673,56.8602,-111.1995,804.6,357.6,357.2,4.2,0.5,22.7,48.5,1.9292,373.2832],
    [8846,1532802674,56.8608,-111.1995,805.1,359.1,357.5,3.8,1.3,23.43,48.13,1.9279,374.2688],
    [8847,1532802675,56.8614,-111.1995,804.8,357.7,357.0,3.7,1.4,23.65,48.08,1.9272,373.7041],
    [8848,1532802676,56.862,-111.1995,803.5,356.5,356.3,4.0,0.9,22.29,48.31,1.9265,373.8252],
    [8849,1532802677,56.8626,-111.1995,801.6,354.5,354.6,5.2,1.2,22.44,47.92,1.9256,373.564],
    [8850,1532802678,56.8632,-111.1995,799.6,353.6,353.3,5.7,1.5,23.32,47.34,1.9251,373.3124],
    [8851,1532802679,56.8638,-111.1995,796.7,350.7,354.1,4.3,1.8,23.1,47.43,1.926,373.3167],
    [8852,1532802680,56.8644,-111.1996,793.1,347.1,353.5,4.5,2.1,23.42,46.73,1.9252,373.2316],
    [8853,1532802681,56.865,-111.1996,788.9,342.9,353.4,4.2,2.4,23.61,46.97,1.9267,373.2382],
    [8854,1532802682,56.8656,-111.1997,784.3,338.3,352.9,4.5,2.9,23.67,47.03,1.9286,374.1771],
    [8855,1532802683,56.8663,-111.1998,781.1,335.1,352.4,4.8,4.0,23.29,47.0,1.9298,372.9395],
    [8856,1532802684,56.8669,-111.1998,779.8,333.8,353.5,4.1,2.9,23.03,47.56,1.9298,372.4758],
    [8857,1532802685,56.8675,-111.1999,779.0,333.0,353.8,3.9,2.2,22.61,47.62,1.9297,373.2812],
    [8858,1532802686,56.8681,-111.1999,778.2,332.2,355.1,2.6,2.7,22.92,48.4,1.9281,373.8695],
    [8859,1532802687,56.8687,-111.2,777.5,331.5,354.8,3.1,3.4,23.18,47.52,1.9281,375.01],
    [8860,1532802688,56.8694,-111.2,777.3,332.0,355.4,2.6,3.9,22.87,47.39,1.9282,374.002],
    [8861,1532802689,56.87,-111.2001,777.6,332.6,356.3,2.8,4.0,23.46,47.18,1.9277,373.3812],
    [8862,1532802690,56.8706,-111.2001,778.7,333.7,356.4,3.6,3.6,22.47,47.34,1.9296,372.6901],
    [8863,1532802691,56.8712,-111.2001,779.0,334.0,358.8,2.2,3.3,23.08,47.65,1.9285,372.6981],
    [8864,1532802692,56.8718,-111.2,778.8,333.8,359.0,3.3,4.0,23.08,47.67,1.9311,372.1136],
    [8865,1532802693,56.8725,-111.2,777.4,332.4,359.6,3.1,3.8,22.88,47.58,1.9322,372.1136],
    [8866,1532802694,56.8731,-111.2,775.7,330.7,361.1,1.9,4.5,23.21,47.72,1.9304,374.1761],
    [8867,1532802695,56.8737,-111.1999,773.5,328.5,361.0,2.3,5.3,23.08,48.19,1.932,373.91],
    [8868,1532802696,56.8744,-111.1998,771.0,326.0,360.4,2.8,6.4,23.22,48.33,1.9318,372.0862],
    [8869,1532802697,56.875,-111.1998,769.6,325.6,360.5,2.4,6.1,22.91,48.7,1.9306,373.6605],
    [8870,1532802698,56.8756,-111.1998,769.4,326.3,359.5,2.8,6.0,23.05,48.66,1.9301,373.2821],
    [8871,1532802699,56.8763,-111.1997,770.0,326.9,358.6,3.0,6.3,23.15,48.89,1.9309,372.9161],
    [8872,1532802700,56.8769,-111.1997,770.8,329.5,357.8,3.5,6.2,23.1,48.68,1.9301,373.318],
    [8873,1532802701,56.8776,-111.1997,771.6,330.6,357.4,3.5,5.9,23.13,48.63,1.9309,372.5891],
    [8874,1532802702,56.8782,-111.1997,772.5,331.5,358.2,2.3,6.1,23.26,48.77,1.9321,373.597],
    [8875,1532802703,56.8789,-111.1997,773.7,332.7,357.7,2.8,6.2,23.65,48.0,1.9304,373.8096],
    [8876,1532802704,56.8795,-111.1997,774.4,335.4,357.3,2.8,5.7,23.25,48.92,1.9299,373.8912],
    [8877,1532802705,56.8801,-111.1997,775.5,338.2,358.3,1.8,4.9,23.64,47.9,1.9319,374.1082],
    [8878,1532802706,56.8807,-111.1997,776.9,339.9,356.9,3.3,4.7,23.69,48.21,1.9298,373.8108],
    [8879,1532802707,56.8813,-111.1997,777.9,340.9,356.0,4.0,4.4,22.98,48.82,1.932,373.9463],
    [8880,1532802708,56.882,-111.1997,778.3,341.3,356.8,3.0,4.2,22.85,48.76,1.9326,373.4181],
    [8881,1532802709,56.8826,-111.1997,778.4,342.4,356.7,3.2,4.0,23.5,48.11,1.9304,373.7828],
    [8882,1532802710,56.8832,-111.1997,778.8,343.9,356.8,3.2,4.3,23.02,49.11,1.9304,373.9368],
    [8883,1532802711,56.8838,-111.1997,780.6,347.6,356.6,3.2,4.3,23.04,48.96,1.9318,372.9321],
    [8884,1532802712,56.8844,-111.1997,782.6,352.3,356.4,3.0,4.3,22.99,49.23,1.9316,372.2162],
    [8885,1532802713,56.885,-111.1998,784.1,360.2,356.2,3.0,4.6,22.39,49.15,1.9314,373.2809],
    [8886,1532802714,56.8857,-111.1998,785.0,363.9,355.3,3.8,3.9,22.64,49.58,1.9308,373.9938],
    [8887,1532802715,56.8863,-111.1998,786.0,367.3,355.8,3.2,4.4,22.97,49.99,1.9331,372.5503],
    [8888,1532802716,56.8869,-111.1998,786.7,370.6,356.3,2.8,4.2,22.93,49.6,1.9316,372.5503],
    [8889,1532802717,56.8875,-111.1999,787.2,374.5,355.9,3.3,4.7,22.95,50.03,1.9313,373.9047],
    [8890,1532802718,56.8881,-111.1999,787.2,379.3,356.1,3.2,4.2,22.83,50.21,1.9326,373.1396],
    [8891,1532802719,56.8887,-111.1999,787.1,383.3,356.5,3.0,4.2,23.03,49.3,1.9322,374.0651],
    [8892,1532802720,56.8893,-111.1999,786.8,388.4,356.5,3.5,4.7,22.83,49.58,1.9314,373.1708],
    [8893,1532802721,56.8899,-111.1999,786.6,392.4,356.6,3.6,4.3,23.29,49.4,1.9318,373.1708],
    [8894,1532802722,56.8906,-111.1999,786.2,396.4,356.7,3.7,4.2,23.66,49.13,1.9305,372.8789],
    [8895,1532802723,56.8912,-111.1999,786.1,403.3,356.6,3.6,3.5,23.28,49.48,1.9283,373.0669],
    [8896,1532802724,56.8918,-111.1999,785.7,407.2,356.6,3.5,3.2,22.91,49.62,1.9311,373.5352],
    [8897,1532802725,56.8924,-111.1999,785.6,411.6,355.7,4.2,3.2,22.89,49.72,1.9304,373.7982],
    [8898,1532802726,56.893,-111.1999,786.0,416.9,355.0,4.4,2.9,22.83,48.99,1.93,373.8651],
    [8899,1532802727,56.8936,-111.2,786.2,423.8,356.0,3.1,2.5,22.66,48.76,1.931,374.3163],
    [8900,1532802728,56.8942,-111.2,786.6,426.9,355.4,3.6,2.3,22.89,49.32,1.9317,374.0522],
    [8901,1532802729,56.8948,-111.2,787.7,426.6,355.0,3.7,1.9,22.99,49.19,1.9321,373.3532],
    [8902,1532802730,56.8955,-111.2001,789.6,430.0,356.3,2.5,1.8,23.34,48.19,1.9326,374.1225],
    [8903,1532802731,56.8961,-111.2001,790.6,432.1,357.2,1.9,1.9,22.42,48.84,1.9311,373.4283],
    [8904,1532802732,56.8967,-111.2001,791.1,431.6,356.8,2.5,2.6,22.95,49.14,1.9316,373.296],
    [8905,1532802733,56.8973,-111.2001,791.2,427.9,356.9,2.3,2.9,23.46,48.33,1.9322,373.1384],
    [8906,1532802734,56.8979,-111.2001,791.2,421.5,357.5,1.8,1.8,23.34,48.96,1.9311,374.2561],
    [8907,1532802735,56.8985,-111.2002,791.8,413.0,356.6,2.5,1.8,22.94,49.16,1.9315,372.5472],
    [8908,1532802736,56.8991,-111.2002,792.9,404.6,356.2,2.5,1.8,22.74,49.32,1.9315,374.3741],
    [8909,1532802737,56.8997,-111.2002,793.1,394.4,356.0,2.7,2.1,22.84,49.93,1.9324,373.4023],
    [8910,1532802738,56.9004,-111.2003,791.9,388.2,354.7,4.0,1.7,22.43,49.4,1.9317,373.7869],
    [8911,1532802739,56.901,-111.2003,790.4,384.1,355.7,3.2,1.6,23.19,48.31,1.9307,373.6392],
    [8912,1532802740,56.9016,-111.2003,789.1,378.5,355.7,3.6,1.7,22.86,48.8,1.9299,373.6392],
    [8913,1532802741,56.9023,-111.2003,787.7,372.3,355.6,3.7,1.9,23.28,48.47,1.9281,375.1866],
    [8914,1532802742,56.9029,-111.2004,785.6,370.6,355.6,3.7,2.4,22.29,48.9,1.9278,375.1866],
    [8915,1532802743,56.9035,-111.2004,783.8,372.2,355.1,4.1,2.8,22.69,48.48,1.9301,374.7174],
    [8916,1532802744,56.9041,-111.2004,782.5,373.9,355.7,3.5,3.2,22.72,48.15,1.9319,373.3547],
    [8917,1532802745,56.9048,-111.2004,781.4,370.8,356.2,3.0,3.2,22.97,48.04,1.9324,374.8025],
    [8918,1532802746,56.9054,-111.2005,780.7,363.7,356.0,3.2,3.3,23.17,48.1,1.9361,374.4447],
    [8919,1532802747,56.906,-111.2005,780.7,356.5,355.8,3.3,3.4,23.43,47.9,1.9373,373.6931],
    [8920,1532802748,56.9067,-111.2005,781.2,351.5,355.7,3.1,3.9,22.87,48.94,1.9378,374.3572],
    [8921,1532802749,56.9073,-111.2006,782.0,348.9,355.9,2.7,2.9,23.33,49.58,1.9361,374.3572],
    [8922,1532802750,56.9079,-111.2006,783.5,350.8,356.0,2.5,3.1,22.24,50.22,1.9354,374.312],
    [8923,1532802751,56.9085,-111.2006,784.5,351.8,356.2,2.5,3.5,23.22,49.61,1.9354,373.9488],
    [8924,1532802752,56.9092,-111.2007,784.7,351.9,356.2,2.9,4.0,22.14,50.3,1.9347,374.066],
    [8925,1532802753,56.9098,-111.2007,784.8,353.2,356.7,2.7,4.0,23.13,49.86,1.9358,374.1286],
    [8926,1532802754,56.9104,-111.2007,784.8,354.2,356.6,3.3,2.9,22.36,50.04,1.9351,372.8942],
    [8927,1532802755,56.9111,-111.2007,785.0,353.6,356.9,3.2,2.7,22.5,49.94,1.9367,372.8942],
    [8928,1532802756,56.9117,-111.2007,785.4,353.2,357.3,3.0,3.4,22.56,50.58,1.9362,374.2288],
    [8929,1532802757,56.9123,-111.2007,785.5,353.7,356.9,3.2,3.1,22.82,50.6,1.9379,374.9253],
    [8930,1532802758,56.9129,-111.2007,785.3,353.3,357.0,3.3,3.5,22.74,50.66,1.9381,373.7366],
    [8931,1532802759,56.9136,-111.2007,785.4,353.6,356.2,4.0,3.1,22.58,50.45,1.9359,374.5947],
    [8932,1532802760,56.9142,-111.2007,785.6,363.4,356.3,3.9,2.3,22.83,50.81,1.9339,373.7222],
    [8933,1532802761,56.9148,-111.2007,785.7,368.9,356.7,3.2,2.4,22.68,50.49,1.934,373.5248],
    [8934,1532802762,56.9154,-111.2007,785.5,366.9,357.4,2.5,3.0,23.2,50.37,1.9362,374.3954],
    [8935,1532802763,56.9161,-111.2008,785.3,356.8,356.6,3.4,3.2,23.41,50.05,1.9349,374.4845],
    [8936,1532802764,56.9167,-111.2008,785.1,345.8,356.5,3.4,3.6,22.68,50.14,1.9348,374.6209],
    [8937,1532802765,56.9173,-111.2008,785.1,342.7,356.9,3.0,4.1,22.48,50.63,1.9346,374.3141],
    [8938,1532802766,56.9179,-111.2008,785.2,342.2,357.2,2.7,4.5,23.16,50.8,1.9358,372.7155],
    [8939,1532802767,56.9186,-111.2008,785.3,341.3,357.0,3.1,3.9,23.16,50.51,1.936,373.5093],
    [8940,1532802768,56.9192,-111.2008,785.7,340.7,356.6,3.6,4.0,22.97,50.89,1.9353,372.6115],
    [8941,1532802769,56.9198,-111.2008,785.8,340.8,356.9,3.4,3.6,22.19,51.26,1.9353,373.3419],
    [8942,1532802770,56.9204,-111.2008,785.5,340.5,357.1,3.4,4.0,22.99,51.27,1.9355,373.6512],
    [8943,1532802771,56.9211,-111.2008,784.6,339.6,357.1,3.6,4.0,22.47,51.32,1.9356,372.8951],
    [8944,1532802772,56.9217,-111.2008,784.2,338.3,358.0,2.9,3.6,22.78,51.4,1.9349,373.7298],
    [8945,1532802773,56.9223,-111.2008,784.2,338.1,358.5,3.1,4.1,23.01,50.87,1.9351,373.4139],
    [8946,1532802774,56.9229,-111.2007,784.3,339.4,358.6,3.4,4.5,22.92,51.28,1.9351,373.0232],
    [8947,1532802775,56.9236,-111.2007,784.0,339.0,360.1,2.6,4.7,23.32,50.93,1.9346,373.3655],
    [8948,1532802776,56.9242,-111.2007,783.3,339.3,359.3,3.8,3.9,23.02,50.96,1.9329,373.0429],
    [8949,1532802777,56.9248,-111.2006,783.9,339.9,359.7,3.4,3.7,23.13,51.05,1.9341,374.6191],
    [8950,1532802778,56.9254,-111.2006,784.7,340.7,360.7,2.6,3.4,22.64,50.9,1.9333,374.6191],
    [8951,1532802779,56.9261,-111.2005,785.5,341.5,359.6,3.6,3.0,22.77,50.6,1.9317,374.5552],
    [8952,1532802780,56.9267,-111.2004,786.5,342.5,359.9,2.8,2.9,23.55,49.47,1.9327,373.4348],
    [8953,1532802781,56.9273,-111.2004,788.1,344.1,358.8,3.4,3.0,22.22,49.94,1.9334,373.934],
    [8954,1532802782,56.9279,-111.2004,790.2,346.2,358.5,3.1,2.7,22.19,49.94,1.9349,374.2638],
    [8955,1532802783,56.9285,-111.2004,792.6,348.6,358.2,3.0,2.5,22.88,49.63,1.934,372.243],
    [8956,1532802784,56.9291,-111.2003,795.1,351.1,358.4,2.7,2.1,22.07,50.27,1.9348,374.3752],
    [8957,1532802785,56.9298,-111.2003,796.4,351.4,359.7,1.5,1.8,22.62,50.64,1.9353,373.3048],
    [8958,1532802786,56.9304,-111.2003,796.1,350.1,359.5,1.5,2.0,22.74,51.47,1.9354,373.0812],
    [8959,1532802787,56.931,-111.2003,795.8,349.9,358.8,1.7,2.9,22.82,50.96,1.9359,372.477],
    [8960,1532802788,56.9316,-111.2003,795.1,348.1,357.3,2.6,2.2,23.23,50.82,1.9355,374.6845],
    [8961,1532802789,56.9322,-111.2003,794.0,347.0,357.1,2.2,3.4,22.86,51.18,1.9355,373.4195],
    [8962,1532802790,56.9329,-111.2003,793.2,346.2,357.2,1.9,3.3,22.88,51.35,1.9342,373.8434],
    [8963,1532802791,56.9335,-111.2004,792.2,345.2,357.1,2.0,3.0,22.73,51.24,1.9345,373.4475],
    [8964,1532802792,56.9341,-111.2004,791.1,343.8,356.5,2.7,3.0,22.62,51.99,1.937,374.1117],
    [8965,1532802793,56.9347,-111.2004,789.7,341.7,356.6,2.5,4.2,22.44,51.43,1.9346,372.6131],
    [8966,1532802794,56.9353,-111.2004,788.4,341.4,356.5,2.9,5.0,22.68,51.41,1.9353,372.6131],
    [8967,1532802795,56.9359,-111.2004,788.2,341.2,354.7,4.7,4.5,22.69,51.55,1.9358,371.5614],
    [8968,1532802796,56.9365,-111.2005,788.7,341.7,354.7,4.6,4.2,22.55,51.48,1.9362,372.8528],
    [8969,1532802797,56.9371,-111.2005,789.3,341.3,355.6,4.0,3.5,22.58,51.55,1.9341,374.3899],
    [8970,1532802798,56.9378,-111.2005,789.8,340.7,355.9,4.3,3.4,22.7,51.29,1.9335,374.3899],
    [8971,1532802799,56.9384,-111.2005,790.2,341.2,356.3,4.6,4.0,22.76,52.02,1.935,373.5214],
    [8972,1532802800,56.939,-111.2005,789.7,340.7,357.9,3.8,3.7,23.38,51.13,1.9355,374.1058],
    [8973,1532802801,56.9396,-111.2004,788.7,338.7,359.0,3.3,3.9,22.6,51.45,1.9356,372.9126],
    [8974,1532802802,56.9402,-111.2004,788.2,338.2,359.1,3.4,3.5,22.27,51.72,1.9361,373.2665],
    [8975,1532802803,56.9408,-111.2004,789.6,339.6,359.5,3.1,3.2,22.64,52.1,1.9365,373.9229],
    [8976,1532802804,56.9415,-111.2003,792.4,342.4,360.1,2.8,2.2,23.33,50.73,1.9373,373.588],
    [8977,1532802805,56.9421,-111.2003,794.8,344.8,360.4,2.7,1.0,22.62,51.66,1.9378,373.5776],
    [8978,1532802806,56.9427,-111.2002,795.7,344.7,361.0,2.5,1.2,22.69,51.55,1.937,373.4964],
    [8979,1532802807,56.9433,-111.2002,796.3,345.3,360.7,3.0,1.9,22.25,51.46,1.9363,373.1198],
    [8980,1532802808,56.9439,-111.2001,796.3,346.3,360.5,2.9,1.5,23.04,51.68,1.9362,374.2805],
    [8981,1532802809,56.9445,-111.2,796.9,346.9,359.8,3.0,2.2,23.42,51.28,1.9357,372.2343],
    [8982,1532802810,56.9452,-111.2,797.9,347.9,358.1,3.8,3.3,22.55,52.35,1.9354,374.0965],
    [8983,1532802811,56.9458,-111.2,799.0,349.0,358.5,2.5,3.0,22.82,51.32,1.9352,374.1317],
    [8984,1532802812,56.9464,-111.2,799.1,349.1,358.3,2.6,3.4,22.43,51.48,1.9373,374.209],
    [8985,1532802813,56.947,-111.2,799.1,349.1,357.6,3.3,3.0,23.35,50.95,1.9338,373.6982],
    [8986,1532802814,56.9476,-111.2,798.9,349.7,358.4,2.4,3.8,22.8,51.05,1.9351,373.5821],
    [8987,1532802815,56.9483,-111.2,798.3,349.3,359.4,1.9,4.2,22.84,50.87,1.9368,373.5061],
    [8988,1532802816,56.9489,-111.1999,797.7,348.7,359.3,2.6,4.3,22.43,51.39,1.9369,374.3062],
    [8989,1532802817,56.9495,-111.1999,796.6,347.6,359.9,2.5,4.4,22.7,51.13,1.9366,374.1559],
    [8990,1532802818,56.9501,-111.1998,795.2,346.2,360.3,2.8,3.9,22.8,51.17,1.9384,373.2138],
    [8991,1532802819,56.9507,-111.1998,794.4,346.4,359.1,4.3,3.4,22.22,51.71,1.9378,373.9187],
    [8992,1532802820,56.9514,-111.1997,793.4,345.4,359.5,3.3,4.2,22.48,51.89,1.9376,373.4065],
    [8993,1532802821,56.952,-111.1997,792.2,344.2,360.5,2.4,4.4,22.43,52.14,1.9374,373.833],
    [8994,1532802822,56.9526,-111.1997,791.1,343.1,358.6,4.3,4.4,22.58,52.61,1.9364,373.0298],
    [8995,1532802823,56.9532,-111.1996,790.4,342.3,359.3,3.2,4.8,22.28,52.37,1.9377,374.478],
    [8996,1532802824,56.9539,-111.1996,790.6,343.6,361.3,1.4,4.2,22.59,53.08,1.9382,374.3273],
    [8997,1532802825,56.9545,-111.1995,791.7,344.7,361.4,1.7,4.5,22.28,52.56,1.9365,372.5817],
    [8998,1532802826,56.9551,-111.1995,792.9,345.9,361.9,1.3,4.6,22.92,51.82,1.9328,373.7829],
    [8999,1532802827,56.9558,-111.1994,794.4,347.4,2.6,0.4,4.2,22.3,51.69,1.9312,373.5158],
    [9000,1532802828,56.9564,-111.1994,795.7,348.7,361.1,1.6,3.4,22.83,51.13,1.9308,374.2135],
    [9001,1532802829,56.957,-111.1993,796.9,349.9,359.0,2.8,4.1,22.5,50.78,1.9344,374.8489],
    [9002,1532802830,56.9576,-111.1993,798.3,351.3,357.3,4.2,3.3,22.27,50.18,1.9309,375.2785],
    [9003,1532802831,56.9582,-111.1993,800.5,353.5,356.0,4.8,2.8,22.47,49.96,1.9261,373.9475],
    [9004,1532802832,56.9589,-111.1993,803.6,356.6,358.5,1.7,2.6,22.36,49.74,1.9287,373.3863],
    [9005,1532802833,56.9595,-111.1993,806.4,359.4,357.9,2.3,2.3,21.84,49.27,1.9367,373.8698],
    [9006,1532802834,56.9601,-111.1993,807.6,360.6,357.7,2.3,2.4,22.62,49.14,1.9393,373.8698],
    [9007,1532802835,56.9607,-111.1993,807.6,360.6,358.5,1.5,2.6,22.19,49.35,1.94,374.1986],
    [9008,1532802836,56.9613,-111.1993,807.6,360.3,358.5,1.3,2.7,22.71,50.2,1.9371,373.6046],
    [9009,1532802837,56.9619,-111.1993,808.2,360.9,358.2,1.2,2.9,22.26,51.38,1.9351,374.3334],
    [9010,1532802838,56.9625,-111.1993,808.2,361.2,359.3,0.6,2.3,23.27,50.94,1.9333,374.1148],
    [9011,1532802839,56.9631,-111.1993,808.9,361.9,358.5,1.8,2.8,22.23,51.13,1.9359,374.6993],
    [9012,1532802840,56.9637,-111.1993,810.9,363.9,358.2,2.3,2.7,22.34,50.94,1.9384,374.7545],
    [9013,1532802841,56.9644,-111.1993,812.0,364.2,359.1,2.0,3.0,22.77,50.96,1.9388,373.4158],
    [9014,1532802842,56.965,-111.1993,811.9,363.9,360.0,2.1,3.3,22.36,51.19,1.939,374.1908],
    [9015,1532802843,56.9656,-111.1992,811.6,363.7,360.2,3.3,3.7,22.52,52.32,1.9389,372.8464],
    [9016,1532802844,56.9662,-111.1992,811.4,364.4,359.9,4.2,2.3,22.39,52.2,1.9387,372.8464],
    [9017,1532802845,56.9668,-111.1991,811.0,364.0,361.9,1.9,3.0,22.19,52.23,1.9401,373.8561],
    [9018,1532802846,56.9674,-111.199,809.9,362.9,361.4,2.3,3.7,23.23,51.69,1.9374,373.4449],
    [9019,1532802847,56.9681,-111.199,808.8,361.8,359.0,4.1,3.5,22.43,52.02,1.9372,373.8388],
    [9020,1532802848,56.9687,-111.1989,808.0,361.0,358.3,4.1,2.8,22.48,52.1,1.9384,373.498],
    [9021,1532802849,56.9693,-111.1989,807.3,360.3,357.9,4.3,3.2,22.08,52.13,1.9388,373.7495],
    [9022,1532802850,56.9699,-111.1989,806.3,359.3,357.5,4.7,3.9,22.98,51.53,1.9387,374.3751],
    [9023,1532802851,56.9705,-111.1988,805.4,358.4,357.3,4.7,3.2,22.45,52.27,1.9354,374.4822],
    [9024,1532802852,56.9712,-111.1988,804.4,357.4,357.8,4.5,2.8,22.34,52.12,1.9374,371.6951],
    [9025,1532802853,56.9718,-111.1988,803.0,356.0,358.2,4.2,3.2,22.24,52.03,1.9358,372.8643],
    [9026,1532802854,56.9724,-111.1987,801.3,354.3,359.3,3.7,4.3,23.13,51.43,1.934,373.7587],
    [9027,1532802855,56.973,-111.1987,799.2,352.2,359.8,3.5,4.7,22.31,51.74,1.9381,374.8456],
    [9028,1532802856,56.9736,-111.1986,797.1,351.1,360.3,2.9,5.0,22.0,51.96,1.9398,375.3899],
    [9029,1532802857,56.9743,-111.1986,795.7,349.7,359.4,3.6,4.6,22.67,51.58,1.94,372.925],
    [9030,1532802858,56.9749,-111.1985,795.7,349.7,360.5,1.7,5.0,23.02,51.36,1.9404,373.1351],
    [9031,1532802859,56.9755,-111.1985,796.3,350.3,360.8,1.5,3.7,22.49,52.14,1.9399,373.7194],
    [9032,1532802860,56.9761,-111.1985,797.8,352.8,359.6,2.8,4.1,22.5,52.76,1.9411,373.5043],
    [9033,1532802861,56.9767,-111.1984,798.9,354.8,361.0,1.9,5.1,22.9,52.38,1.9401,373.4091],
    [9034,1532802862,56.9774,-111.1984,799.5,356.6,360.6,2.6,4.9,22.66,52.8,1.9414,373.7403],
    [9035,1532802863,56.978,-111.1983,799.4,357.4,360.2,2.7,4.8,22.49,52.86,1.9387,373.8062],
    [9036,1532802864,56.9786,-111.1983,799.1,358.0,359.5,2.9,5.6,22.84,52.18,1.935,374.4906],
    [9037,1532802865,56.9792,-111.1983,798.3,358.3,357.7,3.8,5.9,22.45,52.31,1.9378,374.4906],
    [9038,1532802866,56.9798,-111.1982,797.7,357.7,357.6,3.2,5.5,22.52,52.37,1.9385,374.0261],
    [9039,1532802867,56.9805,-111.1982,797.2,357.6,358.7,1.5,4.8,22.59,52.09,1.9376,374.3685],
    [9040,1532802868,56.9811,-111.1982,796.7,357.0,358.5,1.6,3.6,22.46,52.22,1.9327,374.0455],
    [9041,1532802869,56.9817,-111.1982,796.2,356.5,356.5,3.0,3.6,22.5,51.63,1.9335,374.0397],
    [9042,1532802870,56.9823,-111.1983,795.9,356.2,355.7,3.4,3.4,22.32,51.3,1.9368,374.5067],
    [9043,1532802871,56.9829,-111.1983,796.8,357.2,355.5,3.1,2.5,22.52,51.14,1.9425,374.1835],
    [9044,1532802872,56.9835,-111.1983,797.7,358.7,356.5,2.0,2.0,22.76,51.64,1.9435,374.5236],
    [9045,1532802873,56.9842,-111.1984,798.1,359.1,357.3,1.6,1.1,22.53,51.87,1.9421,373.8186],
    [9046,1532802874,56.9848,-111.1984,798.9,359.9,356.2,2.8,2.5,22.54,52.44,1.9418,373.8186],
    [9047,1532802875,56.9854,-111.1984,801.0,362.0,355.4,3.3,2.0,22.42,53.65,1.9406,374.2098],
    [9048,1532802876,56.986,-111.1985,803.5,365.5,355.4,2.9,2.2,22.41,53.11,1.9423,373.2018],
    [9049,1532802877,56.9866,-111.1985,805.5,367.5,356.2,2.1,1.4,22.53,52.76,1.9406,374.5715],
    [9050,1532802878,56.9872,-111.1985,806.8,368.8,356.4,1.9,1.8,22.34,53.01,1.9398,373.4723],
    [9051,1532802879,56.9878,-111.1986,807.6,370.6,356.5,1.9,2.1,22.17,53.18,1.9382,372.7285],
    [9052,1532802880,56.9884,-111.1986,807.6,370.6,356.1,2.0,2.6,22.32,53.68,1.9359,374.0203],
    [9053,1532802881,56.989,-111.1986,806.2,369.2,354.8,3.2,2.3,21.97,52.53,1.9356,374.208],
    [9054,1532802882,56.9896,-111.1987,804.3,367.3,353.9,3.7,2.7,22.44,52.18,1.9389,373.8588],
    [9055,1532802883,56.9902,-111.1988,802.7,365.7,355.2,1.9,3.2,22.82,52.31,1.9365,374.4271],
    [9056,1532802884,56.9908,-111.1988,800.9,363.6,355.4,1.7,3.7,22.9,51.54,1.9369,374.5479],
    [9057,1532802885,56.9914,-111.1989,799.3,361.3,354.0,3.1,3.6,22.47,52.42,1.9347,373.8619],
    [9058,1532802886,56.992,-111.1989,798.8,360.8,353.5,3.5,4.1,22.28,51.84,1.9356,375.2342],
    [9059,1532802887,56.9927,-111.199,799.2,361.2,353.1,4.2,3.5,23.1,50.79,1.9397,373.5606],
    [9060,1532802888,56.9933,-111.1991,799.9,361.9,353.7,3.8,3.6,22.55,51.23,1.9403,374.7243],
    [9061,1532802889,56.9939,-111.1991,800.6,362.6,354.5,3.0,3.8,22.89,51.23,1.9421,374.3758],
    [9062,1532802890,56.9945,-111.1992,802.0,364.1,355.4,2.5,3.0,22.49,51.96,1.9378,374.612],
    [9063,1532802891,56.9951,-111.1992,803.0,365.0,356.2,2.3,3.3,22.11,52.72,1.9374,374.6947],
    [9064,1532802892,56.9957,-111.1992,804.1,366.2,356.3,2.8,3.3,23.08,52.18,1.9402,374.8134],
    [9065,1532802893,56.9963,-111.1992,803.5,365.5,358.2,1.7,2.0,22.52,52.9,1.9411,374.8951],
    [9066,1532802894,56.9969,-111.1992,801.8,364.4,358.4,2.6,2.1,22.98,52.09,1.9408,374.0736],
    [9067,1532802895,56.9976,-111.1992,800.3,363.0,359.1,2.4,1.8,22.81,51.78,1.9425,374.5812],
    [9068,1532802896,56.9982,-111.1992,799.4,361.3,359.4,2.3,1.9,22.57,51.93,1.9434,374.3751],
    [9069,1532802897,56.9988,-111.1992,799.3,361.1,358.4,3.2,2.6,22.22,51.81,1.9394,374.3751],
    [9070,1532802898,56.9994,-111.1992,799.6,360.8,358.2,2.7,2.7,21.69,51.78,1.9383,375.9123],
    [9071,1532802899,57.0,-111.1991,799.6,360.8,358.5,1.9,3.3,22.49,51.52,1.9374,374.0609],
    [9072,1532802900,57.0006,-111.1991,799.1,360.1,358.1,1.9,3.6,22.2,50.29,1.937,374.3219],
    [9073,1532802901,57.0012,-111.1992,797.6,358.6,358.0,1.9,4.3,22.3,50.34,1.9392,375.528],
    [9074,1532802902,57.0018,-111.1992,795.2,356.1,356.9,2.8,4.3,22.02,50.34,1.9402,375.4681],
    [9075,1532802903,57.0024,-111.1992,792.3,353.2,357.0,2.6,4.3,22.78,50.1,1.9429,375.3845],
    [9076,1532802904,57.003,-111.1992,788.8,349.8,357.3,2.6,4.7,21.97,51.05,1.9434,375.3845],
    [9077,1532802905,57.0036,-111.1992,786.8,347.8,357.5,2.5,4.2,22.79,51.35,1.9442,374.4316],
    [9078,1532802906,57.0043,-111.1992,786.6,347.6,357.9,2.1,4.7,22.5,52.11,1.9452,374.3603],
    [9079,1532802907,57.0049,-111.1992,786.2,347.2,358.3,1.6,5.8,22.63,52.45,1.9441,373.949],
    [9080,1532802908,57.0055,-111.1992,785.3,346.3,358.4,1.7,4.9,22.95,52.12,1.9442,374.0951],
    [9081,1532802909,57.0061,-111.1992,784.5,345.5,358.3,1.6,4.9,22.73,52.85,1.943,373.9013],
    [9082,1532802910,57.0067,-111.1992,783.8,344.8,358.4,1.4,5.3,22.47,53.22,1.9424,373.8581],
    [9083,1532802911,57.0073,-111.1992,783.4,344.4,356.7,2.8,5.4,22.46,53.55,1.9419,373.9984],
    [9084,1532802912,57.0079,-111.1992,782.6,343.6,356.5,2.3,4.9,22.52,53.58,1.9423,374.1591],
    [9085,1532802913,57.0085,-111.1993,781.9,342.9,357.5,1.0,5.0,22.54,53.64,1.9424,373.8673],
    [9086,1532802914,57.0092,-111.1993,781.5,342.5,356.3,2.0,6.1,22.74,52.8,1.943,372.9333],
    [9087,1532802915,57.0098,-111.1993,781.0,342.0,356.2,2.0,6.4,22.54,52.68,1.9435,373.1175],
    [9088,1532802916,57.0104,-111.1994,780.8,341.8,356.8,1.8,6.5,22.73,52.49,1.9443,374.1206],
    [9089,1532802917,57.011,-111.1994,780.7,341.7,355.5,2.9,7.2,22.62,52.4,1.9447,373.6097],
    [9090,1532802918,57.0116,-111.1994,780.4,341.4,355.6,2.6,7.3,22.56,53.4,1.944,374.7223],
    [9091,1532802919,57.0122,-111.1995,779.9,340.9,355.9,2.2,7.3,22.19,52.99,1.9437,374.6978],
    [9092,1532802920,57.0128,-111.1995,778.7,339.7,355.4,2.4,7.8,22.51,52.75,1.9453,374.4868],
    [9093,1532802921,57.0134,-111.1995,777.7,338.7,356.6,1.1,7.7,22.5,53.4,1.9459,374.858],
    [9094,1532802922,57.014,-111.1996,777.2,338.2,357.5,0.6,7.7,22.5,52.89,1.9449,373.4296],
    [9095,1532802923,57.0146,-111.1996,777.5,338.5,358.1,0.3,7.3,22.41,52.95,1.945,373.3365],
    [9096,1532802924,57.0152,-111.1996,778.9,339.9,358.8,0.0,7.3,23.04,52.31,1.9445,373.719],
    [9097,1532802925,57.0158,-111.1996,780.1,341.1,358.0,1.2,7.1,23.15,52.63,1.9448,374.2213],
    [9098,1532802926,57.0164,-111.1997,780.9,341.9,358.0,1.2,7.0,22.5,53.27,1.946,374.5933],
    [9099,1532802927,57.017,-111.1997,781.0,342.0,359.1,0.7,5.7,21.99,53.48,1.947,374.4797],
    [9100,1532802928,57.0177,-111.1997,780.7,341.7,359.6,0.9,5.1,22.98,52.97,1.9467,374.4797],
    [9101,1532802929,57.0183,-111.1997,781.0,342.0,359.9,1.4,5.1,22.92,52.72,1.9434,374.3457],
    [9102,1532802930,57.0189,-111.1996,781.4,342.4,359.7,2.3,4.9,22.96,52.29,1.9436,374.0758],
    [9103,1532802931,57.0195,-111.1996,782.0,343.0,358.8,3.4,4.8,22.51,52.85,1.9444,375.3844],
    [9104,1532802932,57.0201,-111.1996,783.4,344.4,359.4,2.7,4.5,22.79,51.75,1.9469,374.8094],
    [9105,1532802933,57.0207,-111.1995,784.9,345.9,358.6,3.0,3.4,22.51,51.27,1.9507,375.5095],
    [9106,1532802934,57.0212,-111.1995,785.8,346.8,357.5,3.3,3.2,22.37,51.24,1.951,374.9964],
    [9107,1532802935,57.0218,-111.1995,785.8,345.8,357.7,2.4,3.6,22.53,51.38,1.9456,373.7829],
    [9108,1532802936,57.0224,-111.1995,785.4,345.4,357.5,2.1,3.5,22.51,51.47,1.9452,374.6311],
    [9109,1532802937,57.023,-111.1995,784.7,344.7,357.3,2.0,3.9,22.56,52.48,1.947,374.428],
    [9110,1532802938,57.0235,-111.1995,784.7,344.7,357.5,2.2,4.4,23.0,51.86,1.9516,372.9606],
    [9111,1532802939,57.0241,-111.1995,784.9,344.9,357.0,3.0,4.3,21.99,51.86,1.949,372.9606],
    [9112,1532802940,57.0247,-111.1995,784.9,344.9,358.3,2.1,4.4,22.06,52.53,1.9517,374.2605],
    [9113,1532802941,57.0253,-111.1995,784.6,344.6,359.4,1.6,4.4,22.21,52.38,1.9515,374.4476],
    [9114,1532802942,57.0258,-111.1995,784.1,343.1,358.8,2.3,3.3,22.43,52.56,1.9519,374.4171],
    [9115,1532802943,57.0264,-111.1995,783.4,342.4,359.4,1.7,4.0,22.58,52.88,1.9521,374.4884],
    [9116,1532802944,57.027,-111.1995,782.5,341.5,359.5,2.1,4.1,22.3,53.44,1.95,373.7502],
    [9117,1532802945,57.0276,-111.1994,782.2,341.2,358.3,3.2,5.5,23.07,52.85,1.9491,372.7802],
    [9118,1532802946,57.0282,-111.1994,781.9,340.4,359.9,1.7,5.4,23.05,53.15,1.9503,374.5265],
    [9119,1532802947,57.0288,-111.1994,781.1,339.1,359.6,2.3,4.4,22.55,53.57,1.9488,373.7317],
    [9120,1532802948,57.0293,-111.1994,779.9,337.9,358.7,3.0,5.0,22.86,53.62,1.9485,373.5025],
    [9121,1532802949,57.0299,-111.1993,779.1,337.1,360.3,1.2,4.7,22.19,53.69,1.9421,374.1462],
    [9122,1532802950,57.0305,-111.1993,778.5,336.5,359.0,2.5,3.9,22.55,53.3,1.9388,375.6039],
    [9123,1532802951,57.0311,-111.1993,778.3,335.4,356.7,3.8,3.6,22.02,52.27,1.941,375.6039],
    [9124,1532802952,57.0316,-111.1993,778.2,335.2,357.1,3.0,2.5,22.6,51.18,1.945,374.6505],
    [9125,1532802953,57.0322,-111.1993,778.3,335.3,357.0,2.6,2.3,22.48,50.39,1.9524,375.0106],
    [9126,1532802954,57.0328,-111.1993,779.3,336.3,357.3,2.2,2.2,22.48,50.01,1.9548,374.7376],
    [9127,1532802955,57.0333,-111.1993,780.3,337.3,357.1,2.4,2.1,22.88,49.5,1.9574,374.2479],
    [9128,1532802956,57.0339,-111.1993,781.0,338.0,356.4,3.1,2.3,22.52,50.25,1.9598,374.2479],
    [9129,1532802957,57.0345,-111.1993,781.6,338.3,356.2,3.3,2.5,22.67,50.44,1.9626,374.8119],
    [9130,1532802958,57.035,-111.1994,781.9,337.9,356.5,3.2,2.6,22.99,50.1,1.962,375.1411],
    [9131,1532802959,57.0356,-111.1994,782.1,338.1,357.1,2.7,3.1,22.57,51.6,1.9661,377.7293],
    [9132,1532802960,57.0362,-111.1994,782.4,338.4,358.3,1.7,3.2,22.68,51.44,1.9664,374.9853],
    [9133,1532802961,57.0367,-111.1994,783.4,339.4,358.7,1.3,4.0,22.27,51.98,1.9647,374.9853],
    [9134,1532802962,57.0373,-111.1994,785.5,341.5,359.6,0.4,2.3,22.62,52.96,1.9636,374.1126],
    [9135,1532802963,57.0379,-111.1994,787.5,343.5,359.5,0.6,1.5,22.01,53.21,1.9622,374.835],
    [9136,1532802964,57.0384,-111.1994,788.8,344.8,357.3,2.8,2.5,22.1,53.22,1.9605,375.0002],
    [9137,1532802965,57.039,-111.1994,789.4,345.4,356.7,2.8,3.6,22.69,53.16,1.9608,373.7018],
    [9138,1532802966,57.0396,-111.1994,788.6,344.6,358.2,1.7,2.8,22.04,53.67,1.9621,373.8027],
    [9139,1532802967,57.0402,-111.1994,787.5,343.5,357.1,3.0,2.7,22.69,53.4,1.9638,373.8093],
    [9140,1532802968,57.0407,-111.1994,785.9,341.9,357.0,3.3,3.9,22.02,53.31,1.9625,374.1711],
    [9141,1532802969,57.0413,-111.1994,784.4,340.4,356.5,3.6,4.2,22.63,53.77,1.966,375.248],
    [9142,1532802970,57.0419,-111.1994,782.9,338.9,356.2,3.8,3.7,22.4,53.01,1.9675,375.0581],
    [9143,1532802971,57.0425,-111.1994,781.3,337.3,355.7,4.3,4.0,22.69,52.92,1.9646,374.0592],
    [9144,1532802972,57.043,-111.1994,780.2,335.1,355.6,4.3,3.5,23.22,52.27,1.9616,374.3405],
    [9145,1532802973,57.0436,-111.1994,779.4,334.4,356.3,3.6,3.5,22.49,52.76,1.9632,375.0628],
    [9146,1532802974,57.0442,-111.1994,778.7,333.7,356.6,3.4,3.5,22.46,52.72,1.9638,374.6915],
    [9147,1532802975,57.0448,-111.1994,778.3,333.3,356.4,3.6,3.6,21.93,52.85,1.9605,374.83],
    [9148,1532802976,57.0453,-111.1994,777.9,332.6,355.8,3.9,3.0,22.96,52.31,1.9597,374.6497],
    [9149,1532802977,57.0459,-111.1994,777.8,331.8,355.1,4.4,2.5,22.75,52.84,1.9587,374.8568],
    [9150,1532802978,57.0465,-111.1994,777.5,331.5,355.2,3.9,3.3,21.93,53.19,1.9593,375.0273],
    [9151,1532802979,57.047,-111.1995,777.0,331.0,355.7,3.5,4.1,22.61,53.28,1.961,375.3643],
    [9152,1532802980,57.0476,-111.1995,777.2,331.2,355.0,4.6,4.5,21.8,53.08,1.9672,374.4406],
    [9153,1532802981,57.0482,-111.1995,777.8,331.8,355.4,4.0,4.6,22.03,53.19,1.966,375.6851],
    [9154,1532802982,57.0488,-111.1995,778.6,331.6,357.2,2.5,4.4,21.87,53.02,1.9675,374.2491],
    [9155,1532802983,57.0493,-111.1995,779.5,331.8,356.1,3.5,3.7,22.38,53.26,1.9758,375.0368],
    [9156,1532802984,57.0499,-111.1995,781.0,332.7,354.8,4.0,4.2,22.98,53.51,1.9767,375.0368],
    [9157,1532802985,57.0505,-111.1995,782.7,333.7,355.9,2.4,3.5,22.86,53.66,1.9755,374.7067],
    [9158,1532802986,57.051,-111.1996,783.5,332.8,356.5,1.3,4.9,23.2,52.95,1.9735,374.1072],
    [9159,1532802987,57.0516,-111.1996,783.7,331.6,354.1,2.7,4.4,22.68,53.69,1.9732,373.701],
    [9160,1532802988,57.0522,-111.1997,783.5,330.5,351.0,3.7,3.8,21.84,53.8,1.9722,375.385],
    [9161,1532802989,57.0528,-111.1998,783.2,328.2,348.5,3.7,3.4,22.78,53.63,1.9716,375.3117],
    [9162,1532802990,57.0533,-111.2,782.8,327.1,345.9,3.9,3.5,23.01,53.58,1.9725,374.9445],
    [9163,1532802991,57.0539,-111.2002,782.3,326.3,343.3,4.4,2.0,23.39,53.3,1.9732,374.833],
    [9164,1532802992,57.0544,-111.2004,781.8,325.8,341.1,4.2,1.4,22.53,54.21,1.9726,374.7524],
    [9165,1532802993,57.055,-111.2007,781.8,324.6,338.7,4.3,-0.4,22.22,53.63,1.9716,374.7524],
    [9166,1532802994,57.0555,-111.201,782.6,325.5,336.7,3.3,-0.3,23.25,52.48,1.9712,375.4026],
    [9167,1532802995,57.056,-111.2014,784.4,328.8,334.4,3.0,-0.5,22.67,53.11,1.9726,375.2836],
    [9168,1532802996,57.0565,-111.2018,786.3,331.3,332.5,2.8,-1.0,23.22,51.89,1.9722,374.8481],
    [9169,1532802997,57.057,-111.2023,787.5,334.5,330.7,2.7,-1.3,22.42,52.17,1.9705,374.8481],
    [9170,1532802998,57.0575,-111.2028,787.6,335.3,326.8,4.5,-0.5,22.26,51.97,1.9732,375.7592],
    [9171,1532802999,57.0579,-111.2033,787.4,337.5,322.9,5.9,0.4,21.99,51.78,1.9784,376.5072],
    [9172,1532803000,57.0584,-111.2038,788.1,339.1,319.4,7.3,0.6,21.92,51.76,1.9824,375.8783],
    [9173,1532803001,57.0588,-111.2044,789.5,341.2,316.7,7.3,0.6,22.63,52.03,1.9857,375.9737],
    [9174,1532803002,57.0593,-111.2051,791.1,342.3,313.8,7.3,0.5,22.57,51.89,1.9897,375.631],
    [9175,1532803003,57.0596,-111.2057,792.7,343.7,310.6,7.4,0.3,22.57,52.3,1.9897,375.7597],
    [9176,1532803004,57.06,-111.2064,793.9,344.9,308.3,7.0,-0.5,22.93,51.57,1.985,376.1052],
    [9177,1532803005,57.0604,-111.2072,794.4,346.4,304.8,6.4,-0.3,22.59,52.34,1.9907,375.9728],
    [9178,1532803006,57.0607,-111.208,793.9,345.9,299.0,7.2,1.1,22.35,51.6,1.9939,374.2705],
    [9179,1532803007,57.0609,-111.2088,791.9,344.9,294.4,6.9,1.4,22.52,51.53,2.0003,374.5454],
    [9180,1532803008,57.0612,-111.2097,789.1,344.2,289.8,6.1,1.5,22.48,52.22,2.0035,374.5454],
    [9181,1532803009,57.0614,-111.2107,786.0,342.1,284.1,5.8,3.3,22.42,51.58,2.0061,376.5338],
    [9182,1532803010,57.0615,-111.2116,782.8,339.8,278.9,5.9,4.7,22.1,51.98,2.0099,376.5338],
    [9183,1532803011,57.0616,-111.2126,779.5,337.3,275.4,5.7,4.6,22.73,52.11,2.0033,376.0008],
    [9184,1532803012,57.0617,-111.2136,776.0,334.7,272.7,5.3,4.2,22.49,52.61,1.9747,374.1271],
    [9185,1532803013,57.0618,-111.2146,773.4,332.4,269.2,5.5,4.1,23.15,51.81,1.9521,374.5825],
    [9186,1532803014,57.0618,-111.2156,771.3,330.2,265.4,4.9,4.9,22.59,50.63,1.9727,374.4259],
    [9187,1532803015,57.0617,-111.2167,768.6,327.3,261.9,3.7,5.5,23.02,49.6,1.9829,375.2261],
    [9188,1532803016,57.0617,-111.2177,765.8,324.4,259.5,3.6,5.6,23.21,48.59,1.9828,376.5857],
    [9189,1532803017,57.0616,-111.2187,763.4,321.5,257.6,2.8,5.5,23.33,48.37,1.9798,375.1395],
    [9190,1532803018,57.0615,-111.2197,762.3,320.7,256.8,2.1,5.0,22.47,49.39,1.953,374.9229],
    [9191,1532803019,57.0614,-111.2208,762.3,321.6,257.6,2.3,3.9,22.68,49.35,1.9845,375.9654],
    [9192,1532803020,57.0614,-111.2218,763.1,323.1,257.1,2.2,4.8,22.06,48.67,1.9919,375.9549],
    [9193,1532803021,57.0613,-111.2228,764.4,325.4,257.0,1.7,5.0,22.55,49.05,1.9864,374.9181],
    [9194,1532803022,57.0612,-111.2238,765.2,327.2,259.0,1.5,3.4,22.66,49.09,1.9924,376.0182],
    [9195,1532803023,57.0611,-111.2248,765.1,328.2,259.4,1.1,3.5,22.72,50.22,2.0027,376.6804],
    [9196,1532803024,57.061,-111.2259,764.6,328.6,260.0,1.5,3.1,22.54,50.11,2.015,376.4164],
    [9197,1532803025,57.061,-111.2269,764.3,329.7,259.9,1.3,3.4,22.67,50.75,2.0206,376.1955],
    [9198,1532803026,57.0609,-111.2279,764.7,332.7,258.8,1.7,4.2,22.18,51.12,2.0216,376.3484],
    [9199,1532803027,57.0608,-111.2289,764.7,335.9,259.4,2.5,3.6,22.83,51.66,2.0162,376.7913],
    [9200,1532803028,57.0607,-111.2299,764.6,338.9,258.9,3.9,3.8,23.42,51.86,1.9936,376.3902],
    [9201,1532803029,57.0607,-111.231,764.3,343.0,259.0,5.2,3.2,22.32,52.7,1.9682,375.5579],
    [9202,1532803030,57.0606,-111.232,764.4,346.4,259.6,5.8,2.3,22.63,52.44,1.9687,376.8983],
    [9203,1532803031,57.0605,-111.233,764.7,347.7,258.5,6.4,4.0,22.22,51.99,1.9696,376.1714],
    [9204,1532803032,57.0604,-111.234,764.7,348.6,259.4,6.3,3.7,22.05,51.53,1.9872,375.6207],
    [9205,1532803033,57.0603,-111.235,764.6,350.6,261.4,6.2,3.3,22.42,51.24,1.9934,376.6587],
    [9206,1532803034,57.0603,-111.2361,764.6,351.6,262.8,6.4,3.1,23.33,50.97,1.984,376.1967],
    [9207,1532803035,57.0602,-111.2371,764.4,353.1,264.9,6.7,2.2,22.51,51.87,2.002,376.4644],
    [9208,1532803036,57.0602,-111.2381,764.6,354.3,265.5,7.1,3.0,22.41,52.23,1.9934,376.4084],
    [9209,1532803037,57.0602,-111.2391,765.0,355.0,265.8,7.7,3.5,23.23,51.73,1.9756,375.9603],
    [9210,1532803038,57.0602,-111.2402,765.3,356.3,267.2,8.2,2.6,23.06,52.21,1.9751,375.8518],
    [9211,1532803039,57.0602,-111.2412,765.0,356.7,267.6,7.8,2.4,22.5,53.42,1.9818,375.9948],
    [9212,1532803040,57.0601,-111.2422,765.0,357.0,266.9,7.7,3.2,22.44,52.97,1.9899,375.7916],
    [9213,1532803041,57.0601,-111.2432,764.9,357.9,266.4,8.2,3.6,22.74,53.02,2.0032,375.748],
    [9214,1532803042,57.0601,-111.2442,764.8,358.8,266.2,8.5,3.3,22.84,52.19,1.9844,377.7813],
    [9215,1532803043,57.0601,-111.2453,763.6,358.6,265.8,9.1,3.5,23.28,52.03,1.9757,375.9987],
    [9216,1532803044,57.0601,-111.2463,760.9,356.8,265.1,8.1,4.0,23.09,52.14,1.9684,376.3659],
    [9217,1532803045,57.0601,-111.2473,756.8,353.8,264.3,7.3,4.3,22.68,52.14,1.9861,375.5622],
    [9218,1532803046,57.0601,-111.2483,751.9,349.2,263.9,7.2,4.2,22.34,51.85,1.9734,374.6946],
    [9219,1532803047,57.06,-111.2494,747.2,345.1,263.8,7.0,3.7,22.56,51.87,1.9696,374.6946],
    [9220,1532803048,57.06,-111.2504,743.0,342.1,263.2,6.2,4.4,22.84,51.75,1.9595,375.8329],
    [9221,1532803049,57.0599,-111.2515,739.8,338.9,264.3,5.6,3.1,23.05,51.51,1.9616,376.0268],
    [9222,1532803050,57.0599,-111.2526,737.2,337.0,265.7,4.6,2.3,22.98,51.95,1.9656,376.0268],
    [9223,1532803051,57.0599,-111.2536,735.5,335.5,264.9,4.1,3.7,23.46,51.48,1.9751,376.2691],
    [9224,1532803052,57.0599,-111.2547,733.8,333.9,265.5,3.8,3.3,23.4,51.73,1.9853,375.8504],
    [9225,1532803053,57.0599,-111.2558,731.8,332.7,266.9,4.1,2.6,22.66,52.12,1.9761,375.8504],
    [9226,1532803054,57.0598,-111.2569,729.4,330.4,266.6,4.2,3.6,22.88,52.43,1.9736,374.9387],
    [9227,1532803055,57.0598,-111.258,727.0,328.0,267.7,3.8,2.7,23.56,52.35,1.9715,375.5034],
    [9228,1532803056,57.0598,-111.2591,724.5,326.5,268.1,4.6,2.4,22.35,53.3,1.9773,375.9733],
    [9229,1532803057,57.0598,-111.2602,722.0,324.0,267.4,2.9,3.8,22.87,53.61,1.9766,375.1555],
    [9230,1532803058,57.0598,-111.2612,719.6,322.6,265.9,3.6,5.0,22.86,53.15,1.9729,376.069],
    [9231,1532803059,57.0599,-111.2623,717.2,320.2,267.0,2.5,3.9,22.9,53.53,1.9653,376.069],
    [9232,1532803060,57.0599,-111.2634,714.9,318.1,265.2,0.8,5.3,23.26,52.5,1.9622,374.9062],
    [9233,1532803061,57.0598,-111.2645,712.8,316.8,266.8,0.4,3.4,22.87,52.72,1.9671,375.2635],
    [9234,1532803062,57.0598,-111.2657,710.9,315.4,266.8,0.2,4.3,22.71,52.39,1.9651,375.5126],
    [9235,1532803063,57.0599,-111.2668,709.8,314.8,267.0,-0.1,4.2,23.04,52.55,1.9719,374.9978],
    [9236,1532803064,57.0599,-111.2679,709.1,314.1,267.4,-1.2,3.8,23.21,52.28,1.9728,374.9874],
    [9237,1532803065,57.0599,-111.269,707.6,313.6,266.6,-1.6,4.3,22.97,52.77,1.9696,375.7314],
    [9238,1532803066,57.0599,-111.2701,706.3,313.3,267.6,-0.4,3.4,22.87,53.16,1.9691,375.7508],
    [9239,1532803067,57.0599,-111.2712,705.0,313.0,267.9,0.1,3.4,22.68,53.4,1.9701,374.3669],
    [9240,1532803068,57.0599,-111.2723,704.0,313.0,267.7,0.5,3.7,22.9,53.52,1.9718,375.5753],
    [9241,1532803069,57.0599,-111.2734,703.4,313.1,267.7,0.6,3.6,22.87,54.26,1.97,375.7307],
    [9242,1532803070,57.0599,-111.2745,703.1,314.1,267.1,1.8,4.2,22.67,53.59,1.9714,376.4378],
    [9243,1532803071,57.0599,-111.2756,702.6,313.6,267.0,1.7,4.0,22.83,53.66,1.9731,375.8777],
    [9244,1532803072,57.0599,-111.2767,701.9,313.9,267.0,2.7,3.6,22.9,53.86,1.9618,374.6943],
    [9245,1532803073,57.0599,-111.2778,700.8,312.8,267.3,4.3,3.2,22.91,53.7,1.9624,375.7585],
    [9246,1532803074,57.0599,-111.2789,699.8,312.8,266.9,4.4,3.4,23.07,53.04,1.9578,376.2095],
    [9247,1532803075,57.0599,-111.2799,700.5,313.5,266.6,3.8,3.9,23.64,52.09,1.9587,376.0465],
    [9248,1532803076,57.0599,-111.281,702.1,315.2,266.8,3.9,3.4,23.61,51.89,1.9607,375.7926],
    [9249,1532803077,57.0599,-111.2821,704.1,318.1,266.7,4.2,3.6,23.35,51.94,1.9582,375.6566],
    [9250,1532803078,57.0599,-111.2832,704.9,318.9,266.6,3.6,3.6,22.34,52.04,1.9576,376.3437],
    [9251,1532803079,57.0599,-111.2843,705.0,319.9,265.7,2.6,4.4,23.04,52.08,1.9605,375.5368],
    [9252,1532803080,57.0599,-111.2853,704.5,319.5,265.1,3.3,5.2,23.45,51.87,1.9624,375.9746],
    [9253,1532803081,57.0599,-111.2864,703.9,318.9,265.6,2.1,4.1,23.01,52.75,1.9646,376.4752],
    [9254,1532803082,57.0599,-111.2875,703.6,319.6,266.0,2.3,3.8,22.89,52.54,1.9654,376.4902],
    [9255,1532803083,57.0599,-111.2886,703.2,319.9,266.0,1.9,3.9,22.99,52.86,1.9684,376.9026],
    [9256,1532803084,57.0598,-111.2897,702.0,320.0,266.6,0.8,3.5,22.77,53.13,1.9685,376.6497],
    [9257,1532803085,57.0598,-111.2907,701.0,320.0,266.2,-0.3,3.8,23.15,53.21,1.969,375.7198],
    [9258,1532803086,57.0598,-111.2918,699.9,319.9,267.1,0.3,3.0,23.33,53.46,1.9699,375.6297],
    [9259,1532803087,57.0598,-111.2929,699.4,320.4,267.3,-0.4,3.1,23.05,54.08,1.9693,375.582],
    [9260,1532803088,57.0598,-111.294,699.0,320.9,266.1,-0.8,4.3,22.99,54.07,1.9709,375.8163],
    [9261,1532803089,57.0598,-111.2951,699.0,322.4,266.3,0.3,4.0,22.78,54.4,1.9686,375.8386],
    [9262,1532803090,57.0598,-111.2962,697.1,322.1,267.0,1.9,3.3,23.2,53.99,1.9672,374.0635],
    [9263,1532803091,57.0598,-111.2973,695.2,321.2,266.6,1.5,4.0,23.07,54.69,1.9675,375.7848],
    [9264,1532803092,57.0598,-111.2984,694.7,321.6,265.0,1.2,5.6,23.19,54.37,1.9649,375.7848],
    [9265,1532803093,57.0598,-111.2995,694.4,323.1,266.0,2.1,3.9,23.08,53.83,1.9578,376.281],
    [9266,1532803094,57.0598,-111.3006,693.4,323.2,266.7,3.5,3.2,23.3,53.11,1.9568,375.707],
    [9267,1532803095,57.0598,-111.3017,692.0,322.5,264.5,3.3,5.0,22.86,53.12,1.958,376.1081],
    [9268,1532803096,57.0598,-111.3028,690.6,321.6,264.8,3.9,4.1,22.99,52.93,1.9601,376.0876],
    [9269,1532803097,57.0598,-111.3039,689.2,320.2,263.8,3.2,4.7,23.22,52.67,1.9619,375.744],
    [9270,1532803098,57.0597,-111.3049,687.6,318.5,263.8,2.9,4.4,23.4,52.53,1.9614,376.1061],
    [9271,1532803099,57.0597,-111.306,686.5,318.4,264.2,1.4,4.6,23.02,52.83,1.9599,376.5018],
    [9272,1532803100,57.0597,-111.3071,685.4,318.4,265.3,2.8,4.0,23.88,52.4,1.9586,376.8848],
    [9273,1532803101,57.0597,-111.3082,684.9,319.3,266.9,2.5,2.7,22.88,52.73,1.9638,374.1488],
    [9274,1532803102,57.0597,-111.3093,686.2,321.9,267.3,1.2,2.3,23.42,52.48,1.9624,375.6342],
    [9275,1532803103,57.0597,-111.3104,686.1,322.1,267.7,-0.1,2.3,22.82,52.8,1.9648,376.0019],
    [9276,1532803104,57.0597,-111.3115,685.5,322.5,266.4,-1.1,3.9,23.06,53.22,1.9651,376.7865],
    [9277,1532803105,57.0597,-111.3126,685.8,322.8,268.3,-1.4,3.1,22.86,53.37,1.9637,375.2112],
    [9278,1532803106,57.0597,-111.3137,687.2,324.2,269.0,-0.5,3.4,23.15,53.57,1.9649,375.3645],
    [9279,1532803107,57.0597,-111.3148,688.0,325.3,269.9,-1.0,2.9,23.02,53.83,1.9602,376.3966],
    [9280,1532803108,57.0597,-111.3159,688.5,326.5,269.4,-0.7,3.8,23.48,53.2,1.9546,375.2452],
    [9281,1532803109,57.0598,-111.317,687.7,325.7,270.6,-0.2,2.9,23.46,52.89,1.9599,376.5057],
    [9282,1532803110,57.0598,-111.3181,686.7,324.7,270.5,-0.5,3.5,22.84,52.81,1.9554,377.2262],
    [9283,1532803111,57.0598,-111.3192,686.1,324.1,269.9,-0.7,4.1,22.86,53.12,1.9548,376.1395],
    [9284,1532803112,57.0599,-111.3203,685.4,323.4,270.3,-0.5,3.5,23.19,53.36,1.9527,377.2678],
    [9285,1532803113,57.0599,-111.3214,684.9,322.9,270.3,-0.2,3.4,22.78,52.99,1.9518,375.6835],
    [9286,1532803114,57.0599,-111.3225,684.9,323.9,269.5,-0.3,3.7,23.53,51.96,1.954,376.1969],
    [9287,1532803115,57.06,-111.3236,685.8,324.8,269.2,0.8,3.6,23.1,52.52,1.956,376.5177],
    [9288,1532803116,57.06,-111.3247,687.0,327.0,266.9,1.8,4.9,23.73,52.14,1.9527,375.9826],
    [9289,1532803117,57.06,-111.3257,688.6,329.6,265.6,2.4,4.7,23.46,52.18,1.9568,376.6269],
    [9290,1532803118,57.06,-111.3268,690.1,331.0,266.1,3.2,3.2,22.91,53.15,1.9591,375.7129],
    [9291,1532803119,57.06,-111.3279,692.2,334.2,266.1,3.9,2.8,23.68,52.58,1.962,375.7129],
    [9292,1532803120,57.0599,-111.3289,694.9,337.9,265.3,4.2,3.3,22.73,53.2,1.9636,377.2088],
    [9293,1532803121,57.0599,-111.3299,697.2,341.2,264.5,4.8,3.9,23.73,52.53,1.9648,376.3477],
    [9294,1532803122,57.0599,-111.331,699.0,344.0,263.7,5.5,4.8,23.06,53.28,1.9641,376.4362],
    [9295,1532803123,57.0599,-111.332,700.4,345.4,262.1,6.7,6.8,22.89,53.82,1.9651,376.9587],
    [9296,1532803124,57.0598,-111.333,700.4,346.5,263.7,7.4,5.2,23.39,53.34,1.9655,376.8824],
    [9297,1532803125,57.0598,-111.334,699.5,345.5,265.8,7.6,3.4,23.61,53.26,1.9648,375.8872],
    [9298,1532803126,57.0598,-111.3351,697.7,343.7,266.6,7.6,3.4,22.85,53.57,1.9654,376.9473],
    [9299,1532803127,57.0598,-111.3361,695.8,341.8,265.9,7.2,4.3,23.73,53.1,1.9658,376.4868],
    [9300,1532803128,57.0598,-111.3371,694.4,340.4,267.1,7.7,3.0,23.99,53.04,1.963,376.8728],
    [9301,1532803129,57.0598,-111.3382,692.8,338.8,267.2,7.8,3.2,23.59,53.63,1.9607,381.6492],
    [9302,1532803130,57.0598,-111.3392,691.0,337.0,265.9,7.1,4.8,22.95,52.96,1.9583,380.0361],
    [9303,1532803131,57.0598,-111.3402,687.9,333.9,265.2,6.2,5.5,23.08,52.49,1.9562,378.2741],
    [9304,1532803132,57.0598,-111.3413,684.3,330.3,265.1,5.4,5.3,24.08,51.53,1.9579,378.5137],
    [9305,1532803133,57.0598,-111.3423,680.6,326.6,265.2,4.0,5.2,22.77,51.5,1.9612,378.7701],
    [9306,1532803134,57.0598,-111.3434,677.0,323.0,264.8,3.7,5.6,23.15,52.23,1.962,380.1726],
    [9307,1532803135,57.0598,-111.3445,673.1,320.1,264.9,2.4,5.3,23.31,51.61,1.9668,379.8712],
    [9308,1532803136,57.0598,-111.3455,669.4,316.4,265.9,1.7,4.3,22.72,51.59,1.9666,382.0098],
    [9309,1532803137,57.0598,-111.3466,666.4,313.4,266.1,1.0,4.3,23.62,51.51,1.9689,380.7711],
    [9310,1532803138,57.0598,-111.3477,663.6,311.6,266.9,0.8,3.4,23.43,52.39,1.9713,380.7711],
    [9311,1532803139,57.0598,-111.3488,660.4,308.4,267.8,-0.1,2.5,23.23,52.3,1.988,392.1061],
    [9312,1532803140,57.0598,-111.3499,657.5,306.5,266.8,-1.3,3.6,23.59,51.78,1.9857,393.0677],
    [9313,1532803141,57.0598,-111.351,654.6,303.6,266.1,-2.0,4.2,23.5,52.63,1.9796,390.5628],
    [9314,1532803142,57.0598,-111.3521,652.0,301.0,266.4,-2.5,3.9,23.4,52.23,1.9819,385.1179],
    [9315,1532803143,57.0598,-111.3532,649.8,299.8,267.9,-2.6,2.8,23.04,52.51,1.9792,384.4135],
    [9316,1532803144,57.0598,-111.3543,648.5,298.5,267.0,-3.2,3.8,23.53,53.04,1.9741,383.6991],
    [9317,1532803145,57.0598,-111.3554,648.4,299.4,267.3,-3.4,3.7,23.01,52.6,1.9722,378.2413],
    [9318,1532803146,57.0598,-111.3565,649.1,300.1,267.0,-2.8,4.3,23.47,52.82,1.971,378.2413],
    [9319,1532803147,57.0598,-111.3576,651.1,302.1,268.3,-3.2,3.2,23.42,53.05,1.9694,376.6606],
    [9320,1532803148,57.0598,-111.3587,652.9,304.9,268.4,-3.0,3.5,22.99,53.23,1.9701,376.0581],
    [9321,1532803149,57.0598,-111.3599,655.4,307.4,268.4,-1.9,3.7,23.38,53.5,1.9699,375.6903],
    [9322,1532803150,57.0598,-111.3609,658.2,310.9,269.0,-1.1,3.3,23.35,53.53,1.9705,375.5563],
    [9323,1532803151,57.0599,-111.362,661.2,314.2,268.6,-1.3,3.9,23.29,53.53,1.9705,376.7042],
    [9324,1532803152,57.0599,-111.3631,664.1,317.1,268.9,0.3,3.7,23.32,54.05,1.9709,376.5902],
    [9325,1532803153,57.0599,-111.3641,667.0,320.3,269.5,1.7,3.5,23.02,54.16,1.9706,376.8971],
    [9326,1532803154,57.0599,-111.3652,669.8,323.8,269.5,2.2,3.6,23.43,54.43,1.9724,375.1902],
    [9327,1532803155,57.06,-111.3662,672.2,326.2,269.6,2.7,3.6,23.43,53.86,1.9733,376.216],
    [9328,1532803156,57.06,-111.3673,674.5,329.5,269.6,3.2,3.5,23.57,54.19,1.9726,376.216],
    [9329,1532803157,57.06,-111.3683,676.2,331.2,270.5,3.6,2.8,23.47,53.95,1.9757,377.9797],
    [9330,1532803158,57.06,-111.3693,677.4,332.4,270.4,4.2,3.4,23.52,53.93,1.9762,379.2709],
    [9331,1532803159,57.0601,-111.3704,678.3,334.3,270.6,4.6,3.6,23.61,54.24,1.9924,392.0168],
    [9332,1532803160,57.0601,-111.3714,678.6,334.6,271.1,5.6,3.4,23.18,53.34,2.012,394.95],
    [9333,1532803161,57.0602,-111.3724,678.6,335.6,270.5,5.3,4.2,23.51,53.05,2.0051,396.9793],
    [9334,1532803162,57.0602,-111.3734,678.1,335.1,270.5,4.8,3.7,23.77,52.79,1.9929,386.5196],
    [9335,1532803163,57.0602,-111.3744,676.9,333.9,270.6,4.6,3.0,23.82,52.54,1.9859,387.2471],
    [9336,1532803164,57.0603,-111.3754,675.8,331.8,268.3,4.7,4.5,23.4,53.25,1.9838,383.6451],
    [9337,1532803165,57.0603,-111.3765,674.8,330.8,267.7,4.1,4.1,23.36,53.01,1.9819,383.6451],
    [9338,1532803166,57.0603,-111.3775,673.4,329.4,268.0,4.6,3.3,23.39,52.99,1.9877,382.9235],
    [9339,1532803167,57.0603,-111.3785,671.9,328.6,267.1,4.4,3.9,23.08,53.21,1.9836,378.9457],
    [9340,1532803168,57.0603,-111.3796,670.9,327.9,266.7,4.3,3.8,23.75,52.58,1.9864,378.9457],
    [9341,1532803169,57.0603,-111.3806,670.3,327.3,267.2,4.4,3.1,23.19,53.45,1.9901,381.7842],
    [9342,1532803170,57.0603,-111.3817,669.4,326.4,267.5,5.2,2.9,22.93,53.01,2.0038,397.6423],
    [9343,1532803171,57.0603,-111.3827,668.5,326.5,267.4,4.8,3.0,23.77,52.55,2.0013,398.851],
    [9344,1532803172,57.0603,-111.3837,667.8,325.8,267.6,4.3,2.8,23.19,53.15,2.0015,393.8561],
    [9345,1532803173,57.0603,-111.3848,666.9,324.9,267.0,3.5,3.6,23.59,52.93,1.9959,393.8561],
    [9346,1532803174,57.0603,-111.3859,665.9,324.9,266.6,2.9,3.9,23.48,52.93,1.9902,381.504],
    [9347,1532803175,57.0603,-111.3869,664.1,323.1,267.3,2.8,3.0,23.94,52.75,1.9895,382.5337],
    [9348,1532803176,57.0603,-111.388,661.4,320.4,266.9,1.2,3.0,23.51,53.14,1.9936,386.8305],
    [9349,1532803177,57.0603,-111.3891,659.2,318.2,266.7,0.7,2.1,23.89,52.86,1.9969,387.7774],
    [9350,1532803178,57.0603,-111.3901,657.3,316.3,266.4,-0.1,2.1,23.4,53.44,1.9997,393.632],
    [9351,1532803179,57.0602,-111.3912,655.0,314.0,265.7,-0.7,2.3,23.49,53.59,2.0048,404.1475],
    [9352,1532803180,57.0602,-111.3923,653.0,312.0,265.3,-1.0,2.5,23.09,53.84,2.0027,392.3142],
    [9353,1532803181,57.0602,-111.3934,652.1,311.1,264.6,-1.0,2.4,23.14,53.47,2.0005,390.3914],
    [9354,1532803182,57.0601,-111.3945,651.3,310.3,262.5,-0.9,2.3,24.09,52.76,1.9989,387.5426],
    [9355,1532803183,57.0601,-111.3956,650.4,309.4,257.7,-2.1,3.2,23.53,53.33,1.9978,384.9498],
    [9356,1532803184,57.06,-111.3966,648.7,307.7,253.5,-3.1,2.7,23.4,53.71,1.9964,382.0152],
    [9357,1532803185,57.0598,-111.3977,645.8,304.8,250.5,-3.6,1.4,23.49,53.82,1.9944,380.5647],
    [9358,1532803186,57.0596,-111.3987,643.0,302.0,247.2,-3.4,1.4,23.85,53.4,1.9861,375.419],
    [9359,1532803187,57.0594,-111.3997,640.4,299.4,244.4,-3.3,1.0,23.63,53.94,1.9828,376.1906],
    [9360,1532803188,57.0591,-111.4007,638.2,297.2,242.7,-2.7,0.0,23.7,53.99,1.9862,377.3444],
    [9361,1532803189,57.0589,-111.4016,636.7,295.7,239.4,-2.1,0.1,23.64,53.87,1.9917,377.293],
    [9362,1532803190,57.0586,-111.4025,635.9,294.9,235.5,-2.8,-0.1,23.6,53.74,1.9935,376.955],
    [9363,1532803191,57.0582,-111.4034,636.0,295.0,232.8,-1.4,-0.3,24.1,53.34,1.9945,376.3291],
    [9364,1532803192,57.0579,-111.4042,638.0,297.0,229.5,-1.4,-0.4,23.09,54.4,1.9958,377.0096],
    [9365,1532803193,57.0575,-111.405,641.4,300.4,226.8,-0.8,0.9,24.02,54.23,2.0137,392.2459],
    [9366,1532803194,57.0571,-111.4058,645.0,304.0,225.2,-0.7,1.6,23.81,54.11,2.0267,402.0879],
    [9367,1532803195,57.0567,-111.4065,648.4,307.4,224.6,-0.2,1.8,24.34,53.42,2.0315,408.7366],
    [9368,1532803196,57.0563,-111.4072,651.5,310.5,224.9,0.8,2.0,23.47,54.11,2.0193,406.1257],
    [9369,1532803197,57.0559,-111.408,653.4,312.4,225.4,1.6,1.9,23.35,54.23,2.0058,403.2329],
    [9370,1532803198,57.0556,-111.4087,654.7,313.7,226.4,2.1,2.0,23.32,53.56,1.9983,404.9802],
    [9371,1532803199,57.0552,-111.4094,656.3,316.3,227.1,1.7,2.2,23.85,53.08,2.0063,399.577],
    [9372,1532803200,57.0548,-111.4102,657.5,317.5,228.6,2.0,1.8,23.99,52.68,2.0051,397.3606],
    [9373,1532803201,57.0545,-111.411,659.9,320.6,229.2,1.8,2.1,24.27,52.95,2.0054,402.1018],
    [9374,1532803202,57.0541,-111.4117,663.2,324.2,230.3,2.1,2.2,23.68,53.22,2.0067,400.4052],
    [9375,1532803203,57.0538,-111.4125,665.8,326.8,231.2,2.2,2.7,23.72,53.51,2.0148,406.6201],
    [9376,1532803204,57.0534,-111.4133,667.7,328.7,231.2,1.6,2.6,23.55,54.48,2.0136,407.8621],
    [9377,1532803205,57.0531,-111.4141,670.2,331.2,230.6,1.3,3.4,23.42,54.08,2.0023,389.7566],
    [9378,1532803206,57.0528,-111.4149,672.8,333.8,229.2,0.7,4.4,23.76,54.14,2.0046,385.2058],
    [9379,1532803207,57.0524,-111.4157,674.4,335.4,230.6,1.6,3.5,23.74,53.99,2.007,384.7932],
    [9380,1532803208,57.0521,-111.4165,676.3,337.6,230.9,1.7,3.7,23.59,54.59,2.01,388.0102],
    [9381,1532803209,57.0518,-111.4173,679.5,341.5,230.0,0.8,4.3,23.38,54.34,2.0124,381.5704],
    [9382,1532803210,57.0514,-111.418,680.8,342.8,231.0,1.7,3.5,23.52,55.1,2.0153,377.3216],
    [9383,1532803211,57.0511,-111.4188,681.0,343.0,231.6,1.9,2.8,23.6,54.84,2.014,377.3216],
    [9384,1532803212,57.0508,-111.4196,680.8,342.8,231.6,2.6,2.9,24.01,54.39,2.0072,391.798],
    [9385,1532803213,57.0505,-111.4204,681.4,344.4,231.0,2.6,3.6,23.56,55.18,2.007,391.798],
    [9386,1532803214,57.0501,-111.4212,682.6,345.6,230.5,2.2,3.8,23.77,54.79,2.006,383.1611],
    [9387,1532803215,57.0498,-111.4219,683.3,346.3,230.9,2.4,3.5,23.81,54.2,2.008,385.9015],
    [9388,1532803216,57.0495,-111.4227,682.6,345.6,231.3,3.0,3.4,23.18,54.62,2.008,385.223],
    [9389,1532803217,57.0491,-111.4235,680.9,344.9,231.5,3.4,3.4,22.77,54.69,2.0103,395.3251],
    [9390,1532803218,57.0488,-111.4243,679.3,343.3,230.5,3.2,4.2,23.64,54.58,2.0087,396.7841],
    [9391,1532803219,57.0485,-111.4251,677.4,341.4,230.7,3.3,3.5,24.17,54.28,2.0065,393.4918],
    [9392,1532803220,57.0481,-111.4258,675.5,340.4,230.4,3.2,3.4,23.87,54.1,2.0078,390.2809],
    [9393,1532803221,57.0478,-111.4266,673.8,338.8,229.4,1.8,3.1,23.51,54.28,2.0066,387.8539],
    [9394,1532803222,57.0474,-111.4274,672.3,337.5,230.2,2.5,2.4,23.34,54.52,2.0061,389.0144],
    [9395,1532803223,57.0471,-111.4281,671.2,337.2,229.8,1.6,2.2,23.51,54.51,2.0076,382.0233],
    [9396,1532803224,57.0467,-111.4289,670.5,336.5,228.7,2.1,3.8,23.09,54.38,2.0085,382.0233],
    [9397,1532803225,57.0464,-111.4297,669.5,336.5,229.3,2.4,2.9,24.04,53.74,2.0118,383.5189],
    [9398,1532803226,57.046,-111.4304,667.9,335.2,229.3,1.9,2.6,23.91,54.31,2.0104,386.1326],
    [9399,1532803227,57.0457,-111.4312,665.7,333.7,229.4,1.3,2.0,23.98,53.93,2.0098,386.1326],
    [9400,1532803228,57.0453,-111.432,664.6,333.6,229.5,1.4,2.4,23.72,54.13,2.0046,384.3038],
    [9401,1532803229,57.045,-111.4328,663.7,333.4,229.0,0.9,2.2,23.1,54.55,2.004,385.7114],
    [9402,1532803230,57.0446,-111.4335,662.4,332.4,229.0,1.2,1.7,23.34,54.61,2.008,387.4905],
    [9403,1532803231,57.0443,-111.4343,660.9,331.9,229.1,1.8,1.3,23.38,54.69,2.008,386.112],
    [9404,1532803232,57.0439,-111.435,659.1,330.5,228.7,1.2,1.3,23.92,54.16,2.0076,386.5713],
    [9405,1532803233,57.0435,-111.4358,657.9,329.9,227.2,-0.5,2.1,23.34,54.62,2.0075,388.2161],
    [9406,1532803234,57.0432,-111.4366,656.8,328.8,227.8,0.2,2.4,23.74,54.47,2.0064,386.424],
    [9407,1532803235,57.0428,-111.4374,655.7,327.7,229.0,0.3,2.1,23.6,54.59,2.0065,384.8635],
    [9408,1532803236,57.0425,-111.4382,654.6,326.6,230.6,0.7,1.9,23.57,55.06,2.0049,383.646],
    [9409,1532803237,57.0421,-111.439,653.9,326.6,231.7,-0.2,1.2,23.96,54.38,2.0045,382.6498],
    [9410,1532803238,57.0418,-111.4398,654.1,327.1,233.0,0.0,0.7,23.07,54.78,2.0052,387.6806],
    [9411,1532803239,57.0415,-111.4406,655.0,328.0,232.8,0.1,1.8,23.96,54.25,2.0042,388.9804],
    [9412,1532803240,57.0411,-111.4414,656.1,329.1,232.0,-0.4,2.6,23.61,55.12,2.0031,388.9804],
    [9413,1532803241,57.0408,-111.4422,656.1,329.1,233.5,0.6,1.4,23.41,54.85,2.0033,396.162],
    [9414,1532803242,57.0405,-111.4431,655.9,328.9,233.5,0.5,1.1,24.15,54.06,2.007,394.6561],
    [9415,1532803243,57.0402,-111.4439,655.6,328.6,232.4,0.8,1.8,24.28,54.22,1.998,394.1825],
    [9416,1532803244,57.0398,-111.4447,655.7,329.7,232.7,0.6,0.6,23.88,54.51,1.9947,394.4712],
    [9417,1532803245,57.0395,-111.4455,654.9,328.9,231.5,0.5,1.7,23.72,54.77,1.9907,394.8902],
    [9418,1532803246,57.0392,-111.4463,652.9,326.9,229.9,0.1,2.3,23.99,54.58,1.9877,397.3705],
    [9419,1532803247,57.0388,-111.4471,651.0,326.0,230.7,0.6,1.0,23.37,53.94,1.989,397.6637],
    [9420,1532803248,57.0385,-111.4479,649.6,325.6,230.6,-0.1,0.9,23.61,53.79,1.9844,392.1877],
    [9421,1532803249,57.0381,-111.4487,648.8,324.8,230.1,-1.1,1.3,23.31,53.54,1.9838,390.3034],
    [9422,1532803250,57.0378,-111.4495,648.5,325.5,231.9,-0.7,0.2,23.39,53.57,1.9812,389.768],
    [9423,1532803251,57.0374,-111.4503,648.6,325.6,233.5,-0.4,0.2,24.48,53.41,1.9769,389.837],
    [9424,1532803252,57.0371,-111.4511,648.7,326.7,233.5,-0.7,1.1,23.69,53.98,1.9825,388.2643],
    [9425,1532803253,57.0368,-111.452,649.1,328.1,235.7,-0.5,-0.2,23.38,54.1,1.9824,386.8191],
    [9426,1532803254,57.0365,-111.4528,650.0,329.0,236.3,-0.5,-0.1,23.43,54.0,1.9821,382.664],
    [9427,1532803255,57.0362,-111.4537,651.1,330.1,236.6,-0.3,-0.2,23.7,54.45,1.9818,383.9022],
    [9428,1532803256,57.0359,-111.4545,651.3,331.3,236.9,0.2,-0.1,23.08,54.8,1.9985,384.2981],
    [9429,1532803257,57.0356,-111.4554,650.4,330.4,236.6,0.0,0.4,23.22,55.05,2.0385,398.4613],
    [9430,1532803258,57.0353,-111.4562,649.9,330.9,235.4,-0.9,1.3,23.63,54.67,2.0489,394.6607],
    [9431,1532803259,57.035,-111.4571,650.0,332.0,235.0,-1.0,1.6,23.78,54.25,2.0399,393.9804],
    [9432,1532803260,57.0347,-111.4579,650.6,333.6,235.1,-0.7,1.2,23.57,53.71,2.0117,394.3949],
    [9433,1532803261,57.0344,-111.4588,652.0,336.0,235.1,-0.2,1.5,23.66,53.45,1.9988,393.0498],
    [9434,1532803262,57.034,-111.4596,652.4,336.4,234.1,0.2,2.3,23.1,53.44,2.0188,395.3185],
    [9435,1532803263,57.0337,-111.4604,653.6,337.6,232.8,0.6,2.5,23.92,52.77,2.0304,397.6199],
    [9436,1532803264,57.0334,-111.4613,654.8,338.8,232.1,0.5,1.7,23.78,52.92,2.0414,394.8357],
    [9437,1532803265,57.0331,-111.462,655.8,340.8,230.0,-0.2,2.3,24.25,52.32,2.0438,401.6405],
    [9438,1532803266,57.0327,-111.4628,657.9,344.2,227.8,-0.6,3.1,23.57,52.72,2.0386,399.0228],
    [9439,1532803267,57.0324,-111.4636,660.3,348.0,226.9,0.8,4.2,23.75,52.76,2.0427,398.4871],
    [9440,1532803268,57.032,-111.4643,662.2,352.2,227.4,1.7,3.4,23.94,52.64,2.0325,384.8193],
    [9441,1532803269,57.0317,-111.4651,663.8,359.2,227.6,3.4,4.4,23.71,53.0,2.0523,377.6396],
    [9442,1532803270,57.0313,-111.4658,663.6,364.0,228.5,4.1,4.3,23.87,52.9,2.1465,376.4517],
    [9443,1532803271,57.031,-111.4665,663.5,373.3,229.1,4.1,4.4,24.09,52.24,2.0869,376.5364],
    [9444,1532803272,57.0306,-111.4673,663.4,384.1,229.4,4.3,5.2,24.08,52.25,2.0624,385.4677],
    [9445,1532803273,57.0303,-111.468,662.7,390.7,231.1,5.1,4.6,23.71,52.41,2.0159,383.8164],
    [9446,1532803274,57.03,-111.4688,661.4,396.3,232.9,6.5,4.1,23.73,52.89,2.0485,380.1339],
    [9447,1532803275,57.0296,-111.4696,660.1,397.1,233.5,6.6,4.2,23.19,52.57,2.0343,383.4193],
    [9448,1532803276,57.0293,-111.4704,658.6,396.6,234.0,7.0,4.9,23.95,52.43,2.0335,384.3776],
    [9449,1532803277,57.029,-111.4712,656.8,395.1,234.1,5.8,4.4,23.56,52.23,2.0128,387.8618],
    [9450,1532803278,57.0287,-111.472,655.3,394.3,233.7,5.4,4.8,24.07,52.24,2.005,388.0345],
    [9451,1532803279,57.0284,-111.4728,653.9,392.9,232.9,5.2,5.3,23.79,52.29,2.0176,392.248],
    [9452,1532803280,57.0281,-111.4736,653.0,391.9,233.1,5.4,5.1,23.68,52.18,2.0298,385.5146],
    [9453,1532803281,57.0277,-111.4744,652.2,392.8,233.7,5.0,4.0,23.9,53.17,2.0479,384.5822],
    [9454,1532803282,57.0274,-111.4752,650.4,393.1,234.0,4.8,4.0,23.52,52.41,2.0907,376.9684],
    [9455,1532803283,57.0271,-111.476,648.9,393.8,232.2,3.1,4.7,23.18,51.9,2.1063,374.6154],
    [9456,1532803284,57.0268,-111.4768,647.9,396.2,233.0,3.6,3.7,23.48,51.77,2.1067,374.6178],
    [9457,1532803285,57.0265,-111.4776,646.8,398.1,231.6,2.0,3.9,23.38,51.38,2.1511,374.4035],
    [9458,1532803286,57.0261,-111.4784,644.2,398.9,231.4,1.2,2.4,23.95,51.52,2.2826,375.6803],
    [9459,1532803287,57.0258,-111.4792,641.4,401.3,230.5,0.4,2.2,23.42,51.35,2.3725,375.1969],
    [9460,1532803288,57.0254,-111.48,638.6,398.9,229.0,-1.0,1.6,24.24,51.46,2.384,375.0383],
    [9461,1532803289,57.0251,-111.4808,635.4,397.0,229.5,-0.7,0.4,23.6,52.08,2.3957,374.9712],
    [9462,1532803290,57.0247,-111.4815,631.4,393.4,228.3,-1.8,0.5,23.71,51.93,2.4065,374.2911],
    [9463,1532803291,57.0244,-111.4823,627.1,389.1,227.4,-2.9,-0.4,24.54,51.37,2.3697,374.0569],
    [9464,1532803292,57.024,-111.4831,623.3,385.3,228.0,-2.9,-1.4,24.24,51.89,2.2818,374.0569],
    [9465,1532803293,57.0236,-111.4839,619.4,381.4,227.4,-4.1,-1.5,23.87,51.91,2.2439,375.01],
    [9466,1532803294,57.0233,-111.4847,615.9,376.9,228.2,-5.0,-2.3,24.48,51.34,2.0871,375.0464],
    [9467,1532803295,57.0229,-111.4855,612.6,373.6,230.8,-5.3,-3.3,24.27,51.85,2.0321,375.5698],
    [9468,1532803296,57.0225,-111.4863,610.1,371.4,232.8,-5.3,-2.7,23.99,52.07,2.0875,375.0545],
    [9469,1532803297,57.0222,-111.4872,607.1,370.1,234.3,-6.7,-3.0,24.33,52.5,2.2146,374.021],
    [9470,1532803298,57.0219,-111.4881,604.4,368.5,235.4,-7.9,-3.7,23.87,52.41,2.2152,374.333],
    [9471,1532803299,57.0216,-111.489,603.6,368.6,236.3,-8.0,-4.0,24.03,52.43,2.2185,375.1094],
    [9472,1532803300,57.0213,-111.4898,603.9,368.9,235.2,-7.4,-2.7,24.25,52.61,2.1417,374.8971],
    [9473,1532803301,57.021,-111.4907,605.4,370.4,235.2,-7.0,-2.6,24.18,52.47,2.1652,374.8736],
    [9474,1532803302,57.0206,-111.4916,606.5,370.7,235.6,-6.4,-2.6,24.11,52.62,2.1765,373.7211],
    [9475,1532803303,57.0203,-111.4925,607.5,370.5,235.7,-5.4,-2.3,24.16,53.42,2.1574,373.9898],
    [9476,1532803304,57.02,-111.4933,609.4,370.0,235.6,-4.9,-2.3,24.02,52.83,2.1262,373.926],
    [9477,1532803305,57.0197,-111.4941,611.8,368.0,235.1,-4.0,-2.1,23.49,52.81,2.1259,375.8621],
    [9478,1532803306,57.0194,-111.495,614.7,361.2,234.3,-3.2,-1.5,24.2,52.48,2.1796,372.9156],
    [9479,1532803307,57.0191,-111.4958,618.1,357.7,232.1,-3.3,-0.5,23.79,53.18,2.1524,374.0573],
    [9480,1532803308,57.0188,-111.4965,621.7,354.4,230.9,-1.9,0.4,24.09,53.57,2.1846,374.4832],
    [9481,1532803309,57.0185,-111.4973,625.2,353.9,230.4,-1.6,0.5,23.87,53.14,2.2298,374.4832],
    [9482,1532803310,57.0181,-111.498,628.8,356.3,230.4,-1.1,0.9,23.77,53.28,2.1791,375.3351],
    [9483,1532803311,57.0178,-111.4988,631.7,358.7,230.5,-2.2,0.7,23.88,53.33,2.1541,375.4622],
    [9484,1532803312,57.0175,-111.4995,633.6,358.5,231.1,-2.4,0.7,24.13,53.35,2.1336,373.9347],
    [9485,1532803313,57.0172,-111.5003,634.9,354.6,232.2,-1.7,1.4,23.74,53.46,2.0781,373.2741],
    [9486,1532803314,57.0169,-111.501,637.0,351.5,232.4,-1.5,2.3,23.98,53.2,1.9964,373.9678],
    [9487,1532803315,57.0166,-111.5018,639.7,346.7,233.4,-1.4,1.7,24.52,52.43,1.9545,373.2181],
    [9488,1532803316,57.0164,-111.5025,642.4,344.7,234.2,-1.0,1.5,24.21,52.7,1.9482,373.2934],
    [9489,1532803317,57.0161,-111.5033,645.3,348.3,233.6,-1.4,2.2,24.04,52.64,1.9438,373.7838],
    [9490,1532803318,57.0158,-111.504,648.6,351.6,232.9,-1.7,2.6,23.96,52.08,1.941,372.975],
    [9491,1532803319,57.0156,-111.5047,652.5,355.5,232.4,-1.7,2.8,24.12,51.99,1.9398,374.0234],
    [9492,1532803320,57.0153,-111.5055,656.5,359.6,232.8,-1.4,2.1,23.92,51.07,1.9397,373.9915],
    [9493,1532803321,57.015,-111.5062,659.3,362.2,231.7,-1.7,2.3,23.93,51.02,1.9404,372.9182],
    [9494,1532803322,57.0147,-111.5069,660.7,363.7,231.5,-1.3,1.6,23.91,51.0,1.9434,374.2968],
    [9495,1532803323,57.0144,-111.5076,661.6,364.6,231.5,-0.9,0.8,24.15,51.77,1.9439,374.2968],
    [9496,1532803324,57.0142,-111.5083,662.5,365.5,229.7,-0.9,1.5,23.9,51.71,1.9464,374.2282],
    [9497,1532803325,57.0139,-111.509,663.5,366.5,229.3,-0.5,1.7,24.03,52.02,1.944,375.5988],
    [9498,1532803326,57.0136,-111.5097,664.9,367.9,229.2,-0.2,2.2,24.2,51.72,1.942,374.4333],
    [9499,1532803327,57.0133,-111.5103,665.7,368.7,230.7,0.9,2.2,24.27,51.8,1.9415,374.6222],
    [9500,1532803328,57.013,-111.511,666.9,369.9,231.9,1.2,3.0,23.95,51.93,1.9429,375.0992],
    [9501,1532803329,57.0127,-111.5117,668.6,371.6,232.7,1.2,3.8,24.26,51.55,1.944,375.3022],
    [9502,1532803330,57.0124,-111.5125,670.6,373.6,234.7,1.6,3.9,23.51,51.83,1.9435,373.7432],
    [9503,1532803331,57.0122,-111.5132,672.6,375.6,237.8,2.5,2.8,23.61,51.97,1.9433,374.7073],
    [9504,1532803332,57.0119,-111.5139,674.6,367.2,239.1,3.6,2.5,24.12,51.72,1.9415,374.7257],
    [9505,1532803333,57.0117,-111.5147,677.6,363.0,237.1,4.9,4.7,23.66,51.72,1.9414,372.9529],
    [9506,1532803334,57.0114,-111.5154,681.5,364.5,234.3,5.0,5.8,23.93,51.68,1.9419,373.6736],
    [9507,1532803335,57.0112,-111.5161,684.6,366.6,234.4,6.4,4.8,24.35,50.88,1.9441,374.832],
    [9508,1532803336,57.0109,-111.5168,687.1,368.0,232.6,6.1,5.3,24.02,51.88,1.9398,374.832],
    [9509,1532803337,57.0106,-111.5174,689.2,370.2,230.5,6.0,6.6,23.51,51.24,1.9367,373.9641],
    [9510,1532803338,57.0104,-111.5181,689.8,370.8,229.8,6.4,6.7,23.38,50.92,1.9377,373.9515],
    [9511,1532803339,57.0101,-111.5187,689.5,370.6,228.7,6.1,7.1,24.09,49.98,1.9386,374.8277],
    [9512,1532803340,57.0098,-111.5194,689.5,370.3,226.7,5.7,8.7,23.53,50.21,1.9377,374.669],
    [9513,1532803341,57.0095,-111.52,689.6,370.7,226.4,6.0,9.1,24.02,50.08,1.938,372.857],
    [9514,1532803342,57.0092,-111.5206,689.0,369.3,227.4,5.7,7.3,23.79,49.43,1.9402,374.4903],
    [9515,1532803343,57.0089,-111.5213,686.7,367.7,231.1,7.0,4.4,23.64,49.46,1.9418,374.0032],
    [9516,1532803344,57.0086,-111.5219,683.4,363.3,232.3,6.9,3.9,23.87,49.12,1.9439,374.1893],
    [9517,1532803345,57.0083,-111.5226,679.7,360.7,231.1,4.6,4.1,24.05,49.29,1.9428,374.3082],
    [9518,1532803346,57.008,-111.5233,676.8,357.8,231.4,4.4,4.0,24.09,49.98,1.9409,373.9315],
    [9519,1532803347,57.0077,-111.524,674.3,355.3,232.9,5.0,3.3,24.86,49.21,1.9402,373.5551],
    [9520,1532803348,57.0074,-111.5247,671.8,353.5,233.1,4.2,2.8,23.75,50.02,1.9407,374.209],
    [9521,1532803349,57.0071,-111.5254,669.3,351.3,231.8,2.8,3.4,24.03,49.59,1.9418,374.2724],
    [9522,1532803350,57.0068,-111.5261,666.9,348.9,231.9,2.5,3.3,23.92,49.84,1.9467,374.0508],
    [9523,1532803351,57.0065,-111.5268,664.8,346.9,232.8,2.0,2.5,24.77,49.39,1.9461,374.3474],
    [9524,1532803352,57.0063,-111.5275,663.4,345.0,233.6,1.4,2.0,24.0,50.91,1.9433,373.6002],
    [9525,1532803353,57.006,-111.5283,662.1,342.9,235.0,1.4,1.4,23.61,50.88,1.9416,373.2738],
    [9526,1532803354,57.0057,-111.529,660.3,341.2,236.6,2.0,0.8,24.43,50.72,1.937,372.8417],
    [9527,1532803355,57.0054,-111.5298,658.4,339.3,236.7,1.7,0.9,24.62,49.62,1.943,372.8163],
    [9528,1532803356,57.0051,-111.5305,656.9,336.8,235.6,1.5,2.5,24.57,49.49,1.9461,371.7073],
    [9529,1532803357,57.0049,-111.5313,655.7,335.7,235.6,0.4,1.6,23.85,50.24,1.9477,373.4793],
    [9530,1532803358,57.0046,-111.5321,654.5,334.6,236.4,0.6,1.2,24.27,50.18,1.9384,372.6091],
    [9531,1532803359,57.0043,-111.5328,653.2,333.3,235.2,-0.1,2.0,23.81,49.97,1.9386,373.377],
    [9532,1532803360,57.004,-111.5336,652.0,332.1,235.1,-0.2,1.7,24.69,49.53,1.9386,373.6744],
    [9533,1532803361,57.0038,-111.5344,650.6,331.6,236.3,0.1,0.7,24.04,49.96,1.9339,374.3098],
    [9534,1532803362,57.0035,-111.5352,649.4,331.3,236.3,0.0,0.5,23.87,49.15,1.935,373.1497],
    [9535,1532803363,57.0032,-111.5359,648.4,331.1,235.8,0.5,0.8,24.23,48.87,1.9365,373.5077],
    [9536,1532803364,57.0029,-111.5367,647.7,330.2,233.8,0.0,1.5,24.26,48.95,1.9419,374.3901],
    [9537,1532803365,57.0026,-111.5374,647.7,329.4,232.5,-1.1,1.3,24.12,48.35,1.9396,373.3984],
    [9538,1532803366,57.0023,-111.5382,648.2,328.4,233.0,0.1,1.4,24.05,48.38,1.9393,372.2687],
    [9539,1532803367,57.002,-111.5389,649.2,328.4,233.9,0.5,0.9,24.22,48.58,1.9402,373.9496],
    [9540,1532803368,57.0018,-111.5397,651.5,330.5,233.3,0.7,1.2,24.7,48.42,1.9427,373.7928],
    [9541,1532803369,57.0015,-111.5404,654.0,332.3,233.3,0.4,0.9,24.03,48.84,1.9399,374.4597],
    [9542,1532803370,57.0012,-111.5411,657.0,335.0,233.1,-0.1,0.8,23.98,48.77,1.9429,373.5958],
    [9543,1532803371,57.0009,-111.5419,660.2,337.3,233.0,0.5,1.5,23.98,48.95,1.9425,373.2796],
    [9544,1532803372,57.0006,-111.5426,662.2,339.0,232.5,1.2,2.5,23.87,48.92,1.9419,374.3179],
    [9545,1532803373,57.0003,-111.5433,664.3,340.7,233.0,1.5,2.1,24.15,48.83,1.9436,374.056],
    [9546,1532803374,57.0,-111.5441,667.0,342.9,234.2,2.4,2.1,24.15,49.89,1.9411,374.6969],
    [9547,1532803375,56.9997,-111.5448,670.7,346.6,233.5,2.2,3.0,23.56,49.84,1.9398,374.4439],
    [9548,1532803376,56.9994,-111.5455,675.5,351.6,234.1,2.6,2.0,23.85,49.84,1.9396,374.5911],
    [9549,1532803377,56.9992,-111.5462,678.8,354.0,234.7,2.8,1.4,23.94,49.47,1.9412,375.304],
    [9550,1532803378,56.9989,-111.5469,680.0,354.5,233.4,1.7,2.0,24.07,50.29,1.9436,373.7877],
    [9551,1532803379,56.9986,-111.5476,680.8,355.3,233.3,2.3,2.5,24.31,49.72,1.942,373.7877],
    [9552,1532803380,56.9983,-111.5483,682.1,356.7,234.0,3.0,2.6,23.56,49.9,1.9439,374.1886],
    [9553,1532803381,56.9981,-111.549,683.8,358.1,232.4,2.6,4.4,24.05,50.09,1.9432,374.2279],
    [9554,1532803382,56.9978,-111.5498,685.7,360.6,232.7,3.3,4.2,24.12,50.31,1.9424,374.1456],
    [9555,1532803383,56.9975,-111.5505,687.7,362.6,234.1,5.1,2.8,24.23,50.37,1.9417,375.0672],
    [9556,1532803384,56.9972,-111.5511,689.1,364.0,232.0,4.6,3.3,24.68,50.14,1.9421,373.5797],
    [9557,1532803385,56.9969,-111.5518,690.5,365.4,226.9,2.9,5.1,23.94,50.4,1.942,373.0335],
    [9558,1532803386,56.9966,-111.5524,692.2,367.1,223.7,2.8,5.8,23.71,50.59,1.9421,373.1063],
    [9559,1532803387,56.9962,-111.5531,694.7,369.7,221.9,4.2,5.7,24.23,50.78,1.9434,373.9958],
    [9560,1532803388,56.9959,-111.5536,696.8,371.8,220.1,5.1,6.8,23.84,50.43,1.941,374.4543],
    [9561,1532803389,56.9955,-111.5542,697.9,372.9,216.2,3.8,8.3,24.46,50.4,1.9419,373.956],
    [9562,1532803390,56.9952,-111.5547,699.1,374.1,214.8,3.8,7.0,23.57,50.5,1.9414,373.956],
    [9563,1532803391,56.9948,-111.5552,699.4,374.4,215.5,5.4,6.3,23.85,50.46,1.9414,373.5189],
    [9564,1532803392,56.9944,-111.5557,699.2,374.8,214.4,6.6,7.7,24.25,50.07,1.9373,373.7179],
    [9565,1532803393,56.994,-111.5561,698.6,375.6,213.6,7.2,8.0,24.53,49.13,1.9378,373.8658],
    [9566,1532803394,56.9936,-111.5566,697.2,375.3,211.7,6.9,8.3,24.34,49.11,1.9378,373.9279],
    [9567,1532803395,56.9932,-111.557,696.4,375.4,208.1,6.0,8.6,24.29,49.18,1.937,374.0422],
    [9568,1532803396,56.9927,-111.5574,696.3,375.3,205.4,6.2,8.8,23.94,48.91,1.9362,374.2761],
    [9569,1532803397,56.9923,-111.5577,696.8,376.8,203.0,6.3,9.2,24.11,48.37,1.9359,373.0023],
    [9570,1532803398,56.9918,-111.558,696.9,376.9,201.4,6.3,9.0,24.38,47.73,1.9365,374.1387],
    [9571,1532803399,56.9913,-111.5583,696.6,376.6,199.3,5.5,9.1,24.28,47.39,1.9336,374.5127],
    [9572,1532803400,56.9909,-111.5585,696.2,376.2,197.0,4.6,8.9,24.32,46.75,1.9335,375.0049],
    [9573,1532803401,56.9904,-111.5587,695.5,375.5,196.0,5.1,8.7,24.6,46.23,1.9364,375.0049],
    [9574,1532803402,56.9899,-111.5589,695.0,375.0,193.4,4.0,9.0,24.53,46.02,1.9356,373.7561],
    [9575,1532803403,56.9894,-111.5591,694.8,375.4,191.4,3.7,8.8,23.96,46.22,1.9363,375.7295],
    [9576,1532803404,56.9889,-111.5592,694.3,375.3,190.1,4.0,8.0,24.17,46.06,1.9357,375.6004],
    [9577,1532803405,56.9884,-111.5594,693.1,375.1,186.9,2.8,8.1,24.06,46.08,1.9398,375.015],
    [9578,1532803406,56.9879,-111.5594,692.5,375.5,184.0,1.9,8.1,24.41,45.8,1.9395,374.9425],
    [9579,1532803407,56.9874,-111.5594,692.0,376.6,182.1,1.2,8.5,24.7,46.22,1.9387,375.6471],
    [9580,1532803408,56.9868,-111.5595,692.1,379.5,181.1,1.2,6.6,23.64,46.74,1.937,373.9466],
    [9581,1532803409,56.9863,-111.5594,691.5,380.5,181.7,2.5,5.1,23.73,46.69,1.9375,375.3621],
    [9582,1532803410,56.9858,-111.5594,689.9,380.8,180.5,1.8,4.1,24.12,46.68,1.9386,372.6467],
    [9583,1532803411,56.9852,-111.5594,687.8,378.8,179.4,1.4,3.0,24.16,46.53,1.9386,375.5394],
    [9584,1532803412,56.9847,-111.5594,686.4,377.4,179.5,1.3,2.9,24.47,46.44,1.9353,375.5481],
    [9585,1532803413,56.9841,-111.5593,685.9,376.9,180.8,1.9,4.0,24.35,47.26,1.9346,375.0138],
    [9586,1532803414,56.9836,-111.5593,685.7,376.7,183.3,3.3,3.0,24.15,46.08,1.9367,375.1811],
    [9587,1532803415,56.9831,-111.5594,685.3,376.3,184.3,3.6,3.5,24.66,45.84,1.9375,374.8815],
    [9588,1532803416,56.9825,-111.5594,685.2,376.2,184.3,3.1,3.8,24.74,45.69,1.9387,375.2854],
    [9589,1532803417,56.982,-111.5594,685.3,376.3,183.8,2.0,4.0,24.15,45.96,1.9388,374.6185],
    [9590,1532803418,56.9814,-111.5595,684.8,375.8,183.9,2.4,5.3,24.33,45.92,1.9377,375.5129],
    [9591,1532803419,56.9809,-111.5595,683.3,372.1,184.6,3.4,4.6,24.03,46.55,1.9381,375.1545],
    [9592,1532803420,56.9803,-111.5595,682.3,367.3,183.5,2.8,4.3,24.23,46.07,1.9389,374.6355],
    [9593,1532803421,56.9798,-111.5595,680.7,363.1,183.4,3.2,4.3,24.08,45.87,1.9362,374.9261],
    [9594,1532803422,56.9792,-111.5595,678.4,358.0,183.3,3.3,3.8,24.51,46.57,1.9371,375.3945],
    [9595,1532803423,56.9787,-111.5595,676.1,354.1,182.4,2.8,3.3,24.45,46.6,1.9382,373.0541],
    [9596,1532803424,56.9781,-111.5595,674.0,351.0,182.2,3.0,2.9,24.29,45.71,1.9368,374.9672],
    [9597,1532803425,56.9776,-111.5595,672.6,348.6,182.3,2.6,3.2,24.49,45.59,1.9378,374.7249],
    [9598,1532803426,56.977,-111.5595,671.8,347.8,182.5,2.6,2.4,24.9,45.34,1.9367,374.1353],
    [9599,1532803427,56.9764,-111.5595,670.6,346.6,184.0,3.8,1.8,24.65,45.42,1.9362,374.7131],
    [9600,1532803428,56.9759,-111.5595,669.2,345.2,182.8,2.1,1.9,24.84,45.4,1.9379,374.401],
    [9601,1532803429,56.9753,-111.5596,667.8,343.8,182.7,1.9,1.4,24.79,45.49,1.9382,374.9227],
    [9602,1532803430,56.9748,-111.5596,666.2,342.2,183.5,2.6,2.5,23.94,45.67,1.9386,374.9148],
    [9603,1532803431,56.9742,-111.5596,663.7,339.7,183.0,1.9,2.7,25.0,45.55,1.9402,374.8441],
    [9604,1532803432,56.9737,-111.5596,660.6,336.6,183.5,2.3,3.6,24.58,46.16,1.9407,375.0269],
    [9605,1532803433,56.9731,-111.5597,658.2,334.2,183.6,2.3,3.8,24.56,46.34,1.9392,374.7015],
    [9606,1532803434,56.9725,-111.5597,656.8,332.8,183.2,2.1,3.7,24.67,46.42,1.9389,374.7015],
    [9607,1532803435,56.972,-111.5597,655.4,332.4,184.1,3.0,3.0,24.53,45.83,1.9329,373.6331],
    [9608,1532803436,56.9714,-111.5597,653.5,331.2,184.8,3.7,2.5,24.63,46.08,1.93,374.4174],
    [9609,1532803437,56.9708,-111.5598,651.4,331.6,185.2,4.2,1.9,24.61,45.76,1.9306,375.1368],
    [9610,1532803438,56.9703,-111.5598,650.4,333.0,184.9,4.1,2.2,25.14,43.94,1.9299,373.672],
    [9611,1532803439,56.9697,-111.5598,650.5,334.8,184.2,3.3,2.7,25.36,43.16,1.9317,374.9575],
    [9612,1532803440,56.9691,-111.5599,651.2,337.2,183.8,2.9,2.4,24.53,43.51,1.932,375.1294],
    [9613,1532803441,56.9685,-111.5599,652.1,339.1,184.0,3.1,2.0,24.82,44.18,1.9328,375.2069],
    [9614,1532803442,56.968,-111.5599,653.4,340.4,183.9,3.1,2.9,24.59,43.91,1.9343,374.7129],
    [9615,1532803443,56.9674,-111.5599,655.6,342.6,183.3,2.7,3.2,25.39,43.18,1.9305,374.5965],
    [9616,1532803444,56.9668,-111.5599,658.2,344.2,183.4,3.1,3.9,24.67,43.96,1.9298,375.0571],
    [9617,1532803445,56.9663,-111.56,658.8,343.8,182.8,2.7,4.5,24.74,44.64,1.9295,376.0599],
    [9618,1532803446,56.9657,-111.56,659.1,344.3,182.4,2.5,4.8,24.79,43.58,1.9299,375.6536],
    [9619,1532803447,56.9651,-111.56,659.4,343.4,181.7,2.0,4.5,24.1,43.74,1.9319,375.5126],
    [9620,1532803448,56.9646,-111.56,659.6,342.6,181.2,2.2,5.2,25.06,43.17,1.9319,375.4645],
    [9621,1532803449,56.964,-111.5599,659.0,342.0,181.7,3.1,4.9,24.33,43.28,1.9336,375.5556],
    [9622,1532803450,56.9634,-111.5599,657.8,339.8,181.7,3.2,4.6,24.56,43.55,1.9352,375.6414],
    [9623,1532803451,56.9629,-111.5599,657.6,339.6,181.3,2.7,4.4,24.91,44.04,1.9364,376.0015],
    [9624,1532803452,56.9623,-111.5599,658.0,340.0,180.7,2.1,4.3,24.44,44.14,1.9359,374.9655],
    [9625,1532803453,56.9617,-111.5599,658.1,340.1,180.7,2.3,4.8,25.43,43.83,1.9349,374.9793],
    [9626,1532803454,56.9612,-111.5598,657.0,339.0,181.4,2.9,4.4,24.53,44.28,1.9342,375.1917],
    [9627,1532803455,56.9606,-111.5598,655.0,337.0,181.3,2.4,3.5,25.4,43.85,1.932,373.2441],
    [9628,1532803456,56.96,-111.5598,652.5,333.4,181.7,2.7,2.9,25.17,43.44,1.9293,374.3424],
    [9629,1532803457,56.9595,-111.5598,650.6,332.6,181.3,2.1,2.3,25.46,43.14,1.9306,374.3424],
    [9630,1532803458,56.9589,-111.5598,648.9,331.9,181.2,1.9,1.9,24.66,43.76,1.9312,374.4488],
    [9631,1532803459,56.9583,-111.5598,646.5,330.5,182.0,2.5,2.4,25.04,43.03,1.9338,376.0712],
    [9632,1532803460,56.9577,-111.5598,644.1,327.1,182.5,2.7,1.5,25.13,43.59,1.9367,375.6476],
    [9633,1532803461,56.9572,-111.5598,641.5,323.5,183.2,3.3,1.3,24.66,43.43,1.935,375.3681],
    [9634,1532803462,56.9566,-111.5598,638.1,318.7,182.8,2.6,1.4,24.6,43.7,1.9352,375.3681],
    [9635,1532803463,56.956,-111.5598,634.4,314.4,182.3,1.9,0.9,25.02,44.08,1.9355,375.8557],
    [9636,1532803464,56.9554,-111.5598,630.6,310.6,182.6,2.0,-0.3,25.06,44.87,1.9361,375.4872],
    [9637,1532803465,56.9548,-111.5598,626.6,306.8,182.6,2.0,0.5,24.92,44.6,1.9377,374.1027],
    [9638,1532803466,56.9542,-111.5599,623.3,302.2,183.1,2.3,0.0,25.4,44.36,1.938,374.5585],
    [9639,1532803467,56.9537,-111.5599,620.4,299.4,183.4,2.4,1.0,24.46,44.91,1.9386,374.5165],
    [9640,1532803468,56.9531,-111.5599,617.4,296.4,183.6,2.5,1.1,25.36,44.93,1.9383,374.0379],
    [9641,1532803469,56.9525,-111.5599,613.5,292.6,183.3,2.5,2.5,25.21,45.15,1.9372,373.194],
    [9642,1532803470,56.9519,-111.5599,609.4,289.4,183.6,3.4,2.9,25.44,45.11,1.9376,374.1128],
    [9643,1532803471,56.9513,-111.56,606.2,286.2,183.5,3.2,0.6,24.74,45.23,1.9378,374.8239],
    [9644,1532803472,56.9507,-111.56,603.6,283.8,182.7,2.7,1.3,25.25,45.22,1.9374,373.3505],
    [9645,1532803473,56.9502,-111.56,600.6,281.6,183.5,3.7,2.7,25.3,45.68,1.9363,374.5527],
    [9646,1532803474,56.9496,-111.56,597.9,279.9,183.3,3.5,4.0,25.25,45.79,1.9362,373.9854],
    [9647,1532803475,56.949,-111.56,595.5,277.4,182.9,3.3,4.4,25.3,45.68,1.936,373.7208],
    [9648,1532803476,56.9484,-111.56,593.2,276.2,183.1,3.4,4.3,25.0,45.14,1.9367,374.6509],
    [9649,1532803477,56.9478,-111.56,591.2,274.9,182.2,2.2,4.3,25.67,44.43,1.9349,374.1561],
    [9650,1532803478,56.9473,-111.56,589.6,273.6,182.0,2.2,5.1,24.99,44.7,1.9333,374.6572],
    [9651,1532803479,56.9467,-111.56,588.8,272.8,182.0,2.0,5.8,25.34,45.09,1.9314,373.666],
    [9652,1532803480,56.9461,-111.56,589.1,273.1,182.1,2.2,6.0,25.03,44.03,1.9322,373.906],
    [9653,1532803481,56.9455,-111.56,590.0,275.0,182.2,2.5,6.3,25.31,43.91,1.9325,374.0665],
    [9654,1532803482,56.945,-111.56,590.7,275.7,182.7,3.2,6.0,25.67,43.12,1.9326,374.3974],
    [9655,1532803483,56.9444,-111.56,591.1,276.1,181.7,2.0,5.5,24.84,43.55,1.9309,374.8191],
    [9656,1532803484,56.9438,-111.56,591.3,276.3,181.5,1.9,5.3,25.7,42.94,1.9317,374.4185],
    [9657,1532803485,56.9433,-111.56,591.3,276.3,182.5,2.7,5.5,25.43,43.36,1.9335,374.7825],
    [9658,1532803486,56.9427,-111.56,592.6,277.6,180.3,-0.1,5.8,25.54,43.39,1.9343,375.1383],
    [9659,1532803487,56.9421,-111.56,595.1,280.1,179.9,-0.1,5.3,25.48,43.63,1.9336,374.8885],
    [9660,1532803488,56.9415,-111.56,596.4,281.4,180.6,0.4,5.2,25.84,42.89,1.9303,375.1359],
    [9661,1532803489,56.941,-111.56,597.7,282.7,178.6,-0.8,4.3,25.3,43.17,1.931,374.587],
    [9662,1532803490,56.9404,-111.56,598.3,283.3,182.1,4.1,4.0,25.83,42.42,1.929,374.5329],
    [9663,1532803491,56.9398,-111.56,597.5,282.5,182.2,4.0,3.9,25.34,42.9,1.9317,374.5925],
    [9664,1532803492,56.9392,-111.56,598.0,283.0,180.2,2.2,3.7,25.33,42.78,1.9325,373.2385],
    [9665,1532803493,56.9386,-111.5599,598.3,283.0,182.3,4.6,3.4,25.89,42.4,1.9319,373.9473],
    [9666,1532803494,56.938,-111.5599,597.6,281.6,181.6,3.2,2.5,25.12,43.51,1.9318,374.1283],
    [9667,1532803495,56.9374,-111.5599,596.5,280.5,179.9,1.2,3.1,25.88,43.09,1.9311,373.9873],
    [9668,1532803496,56.9368,-111.5599,595.4,279.4,181.2,2.2,3.4,25.49,42.94,1.9295,374.1578],
    [9669,1532803497,56.9362,-111.5599,594.8,278.8,182.1,3.0,2.6,25.09,42.84,1.928,373.6199],
    [9670,1532803498,56.9356,-111.5599,594.2,278.2,182.3,3.0,2.6,25.52,43.08,1.9297,374.4083],
    [9671,1532803499,56.935,-111.5599,593.4,276.3,182.5,3.1,2.5,25.47,42.35,1.9321,376.0094],
    [9672,1532803500,56.9344,-111.5599,592.5,275.5,182.5,2.9,2.5,25.79,41.78,1.9327,374.6563],
    [9673,1532803501,56.9338,-111.5599,591.6,274.7,182.3,2.9,1.6,25.94,42.17,1.9334,375.3117],
    [9674,1532803502,56.9332,-111.5599,590.4,272.3,182.6,3.3,1.3,26.12,42.43,1.9337,375.3117],
    [9675,1532803503,56.9326,-111.5598,588.7,270.4,181.8,2.7,1.1,26.03,42.88,1.9331,375.1412],
    [9676,1532803504,56.9321,-111.5598,587.0,268.0,181.2,2.1,0.2,25.75,42.88,1.9325,373.9472],
    [9677,1532803505,56.9315,-111.5598,585.5,266.3,180.6,1.5,-0.7,26.22,42.65,1.9337,373.7677],
    [9678,1532803506,56.9309,-111.5598,584.1,264.1,180.8,1.7,-0.8,25.4,42.85,1.9315,373.7677],
    [9679,1532803507,56.9303,-111.5598,583.0,263.0,181.0,2.2,-1.6,26.05,42.86,1.9307,374.9327],
    [9680,1532803508,56.9297,-111.5598,582.6,262.5,182.1,3.5,-2.1,26.02,42.88,1.932,374.7165],
    [9681,1532803509,56.9291,-111.5598,581.6,260.6,182.3,3.7,-2.3,25.72,43.05,1.9313,374.9631],
    [9682,1532803510,56.9285,-111.5597,580.2,259.2,181.2,2.7,-2.3,25.74,43.16,1.9314,374.4328],
    [9683,1532803511,56.928,-111.5597,579.0,258.0,181.4,3.3,-3.2,25.87,43.13,1.9311,375.4434],
    [9684,1532803512,56.9274,-111.5597,577.7,256.0,181.5,3.5,-3.6,25.97,42.89,1.9312,374.1074],
    [9685,1532803513,56.9268,-111.5597,576.8,254.8,181.2,3.3,-4.7,26.11,42.6,1.9317,374.5884],
    [9686,1532803514,56.9262,-111.5596,577.4,256.4,180.2,2.1,-5.1,25.39,43.26,1.932,374.6587],
    [9687,1532803515,56.9256,-111.5596,578.4,257.4,180.7,2.2,-5.3,25.75,43.27,1.9325,374.2149],
    [9688,1532803516,56.9251,-111.5596,578.4,257.4,182.8,3.2,-4.0,25.64,44.19,1.9313,374.2384],
    [9689,1532803517,56.9245,-111.5596,578.6,257.6,183.0,2.7,-3.4,26.05,43.71,1.931,374.1576],
    [9690,1532803518,56.9239,-111.5596,578.6,257.6,182.3,2.2,-2.7,25.67,44.38,1.9308,373.6556],
    [9691,1532803519,56.9233,-111.5596,578.9,256.2,183.1,3.5,-2.8,26.19,43.64,1.9293,374.0935],
    [9692,1532803520,56.9227,-111.5596,578.7,254.6,183.7,3.9,-2.8,25.43,44.13,1.9293,373.1874],
    [9693,1532803521,56.9221,-111.5596,578.6,253.6,183.4,3.7,-2.6,25.6,43.86,1.9296,373.8767],
    [9694,1532803522,56.9215,-111.5596,579.8,254.1,184.2,4.3,-2.6,26.11,43.35,1.93,374.1756],
    [9695,1532803523,56.9209,-111.5596,581.8,255.8,183.5,3.2,-3.1,25.02,43.42,1.9303,375.1966],
    [9696,1532803524,56.9203,-111.5596,583.8,257.8,183.1,2.9,-2.0,25.43,43.38,1.9303,372.8321],
    [9697,1532803525,56.9198,-111.5596,585.0,259.0,183.3,3.0,-2.0,25.74,43.23,1.9304,373.4139],
    [9698,1532803526,56.9192,-111.5596,585.9,259.0,183.4,3.2,-1.2,25.41,43.29,1.9299,373.578],
    [9699,1532803527,56.9186,-111.5597,586.3,258.3,183.5,3.2,-1.0,25.71,43.68,1.9298,374.6344],
    [9700,1532803528,56.918,-111.5597,585.9,257.9,183.1,2.8,-1.4,25.33,43.28,1.9295,373.5409],
    [9701,1532803529,56.9175,-111.5597,585.3,257.3,183.2,3.1,-1.3,25.54,43.33,1.9301,373.6078],
    [9702,1532803530,56.9169,-111.5597,585.0,256.0,182.4,2.3,-1.1,24.95,43.42,1.9306,371.6331],
    [9703,1532803531,56.9164,-111.5597,585.3,256.3,181.1,1.6,-0.1,25.76,43.15,1.9312,372.2666],
    [9704,1532803532,56.9158,-111.5597,585.8,256.8,180.6,1.4,-0.1,25.89,43.08,1.9287,374.6631],
    [9705,1532803533,56.9152,-111.5596,587.2,258.2,179.2,0.5,0.6,25.51,43.32,1.9291,375.0396],
    [9706,1532803534,56.9147,-111.5596,589.4,259.4,179.7,1.3,0.6,25.07,43.26,1.9299,375.7088],
    [9707,1532803535,56.9141,-111.5596,591.6,261.6,181.1,2.5,0.7,25.61,43.84,1.9303,373.5851],
    [9708,1532803536,56.9136,-111.5596,594.6,264.6,182.4,3.4,-0.1,25.66,43.58,1.9291,373.169],
    [9709,1532803537,56.913,-111.5596,598.6,268.6,182.4,2.7,-0.6,25.62,43.4,1.9299,374.6259],
    [9710,1532803538,56.9125,-111.5596,601.5,271.5,182.1,2.2,-0.7,25.2,43.15,1.9299,373.3368],
    [9711,1532803539,56.912,-111.5596,603.3,273.3,184.0,3.3,0.2,25.69,43.28,1.929,374.3037],
    [9712,1532803540,56.9114,-111.5596,604.9,274.9,183.0,1.8,0.6,25.61,43.45,1.9289,373.3614],
    [9713,1532803541,56.9109,-111.5596,605.6,275.6,182.2,1.3,-0.4,25.83,43.35,1.9299,373.3614],
    [9714,1532803542,56.9103,-111.5596,606.5,276.5,182.9,2.3,-1.6,25.81,43.32,1.9307,374.3338],
    [9715,1532803543,56.9098,-111.5596,607.6,277.6,182.5,2.2,-1.5,25.79,43.66,1.9289,373.5273],
    [9716,1532803544,56.9093,-111.5596,608.6,278.6,181.6,1.5,-0.6,25.67,43.74,1.9294,373.9575],
    [9717,1532803545,56.9087,-111.5596,609.2,279.2,181.5,1.8,0.3,25.56,44.0,1.929,373.6938],
    [9718,1532803546,56.9082,-111.5596,609.4,279.4,182.1,2.5,-0.8,26.2,43.74,1.929,374.9738],
    [9719,1532803547,56.9077,-111.5596,609.0,279.0,182.5,3.1,-0.8,25.5,44.14,1.9284,373.3645],
    [9720,1532803548,56.9071,-111.5596,608.8,277.8,181.5,2.2,0.9,25.48,44.7,1.9289,372.5704],
    [9721,1532803549,56.9066,-111.5596,608.4,277.4,181.6,2.3,1.3,25.09,44.53,1.9304,373.4815],
    [9722,1532803550,56.9061,-111.5596,607.5,276.5,182.7,3.3,1.5,25.49,44.4,1.9318,373.0654],
    [9723,1532803551,56.9055,-111.5596,606.4,275.4,182.9,3.5,2.4,25.3,44.65,1.9311,373.5151],
    [9724,1532803552,56.905,-111.5596,605.4,273.4,181.5,2.3,1.2,24.91,45.14,1.9304,372.5799],
    [9725,1532803553,56.9044,-111.5596,605.1,273.1,181.1,2.6,1.7,25.22,45.85,1.9302,372.5799],
    [9726,1532803554,56.9039,-111.5595,605.3,273.3,180.8,2.7,1.3,25.94,44.96,1.9298,373.4849],
    [9727,1532803555,56.9034,-111.5595,606.1,273.8,179.7,1.9,2.3,26.23,44.39,1.9278,373.6135],
    [9728,1532803556,56.9029,-111.5595,607.3,274.3,180.3,2.3,3.4,25.12,44.88,1.9286,373.4054],
    [9729,1532803557,56.9023,-111.5594,608.6,275.6,181.0,2.6,2.8,25.47,44.55,1.9264,374.6594],
    [9730,1532803558,56.9018,-111.5594,609.7,276.7,182.0,2.8,2.6,24.92,43.76,1.9278,373.437],
    [9731,1532803559,56.9013,-111.5594,610.8,276.8,182.5,2.5,3.2,25.46,43.99,1.9293,372.9373],
    [9732,1532803560,56.9007,-111.5594,611.6,277.6,183.1,2.6,2.7,25.64,43.59,1.927,373.3767],
    [9733,1532803561,56.9002,-111.5594,612.3,278.3,184.1,3.3,3.2,25.61,43.7,1.9288,374.2723],
    [9734,1532803562,56.8997,-111.5595,613.1,279.1,184.2,3.0,4.1,25.17,43.33,1.9291,374.2758],
    [9735,1532803563,56.8992,-111.5595,614.0,280.0,182.9,1.8,3.8,25.28,43.32,1.9301,374.4432],
    [9736,1532803564,56.8987,-111.5595,615.3,281.3,182.0,1.3,3.9,25.51,43.29,1.9321,374.3669],
    [9737,1532803565,56.8981,-111.5595,616.5,281.5,182.6,2.2,3.2,26.13,42.98,1.9315,374.5136],
    [9738,1532803566,56.8976,-111.5595,618.0,283.0,182.0,1.6,3.7,25.05,43.58,1.9335,374.1699],
    [9739,1532803567,56.8971,-111.5595,619.6,284.6,180.5,0.2,3.1,25.53,44.34,1.9321,373.8842],
    [9740,1532803568,56.8965,-111.5595,621.1,286.1,180.9,0.6,3.2,25.76,43.85,1.9312,374.7183],
    [9741,1532803569,56.896,-111.5596,622.3,287.3,181.3,0.7,3.1,25.32,44.15,1.9312,373.8868],
    [9742,1532803570,56.8955,-111.5596,624.3,289.3,180.6,0.2,2.6,24.91,44.25,1.9325,374.7547],
    [9743,1532803571,56.895,-111.5596,626.9,290.8,181.8,1.6,3.3,25.55,44.75,1.9329,373.6093],
    [9744,1532803572,56.8944,-111.5596,629.4,294.4,181.8,1.9,4.2,25.72,44.5,1.9318,373.6063],
    [9745,1532803573,56.8939,-111.5596,631.9,296.9,180.7,1.0,4.4,25.57,44.71,1.9329,373.4899],
    [9746,1532803574,56.8934,-111.5596,633.7,298.7,180.2,0.8,3.5,25.01,45.62,1.9319,372.5679],
    [9747,1532803575,56.8929,-111.5596,634.1,299.1,181.3,1.9,3.6,25.61,45.44,1.9309,372.6958],
    [9748,1532803576,56.8923,-111.5596,633.7,298.7,181.4,1.7,4.0,25.27,45.38,1.9312,373.5397],
    [9749,1532803577,56.8918,-111.5596,632.8,297.5,181.8,1.7,2.7,25.59,45.59,1.9305,373.1869],
    [9750,1532803578,56.8913,-111.5596,631.7,295.7,183.3,2.7,3.4,25.47,45.45,1.9314,373.4117],
    [9751,1532803579,56.8907,-111.5596,630.4,293.7,185.0,3.4,1.4,25.56,45.83,1.9312,373.2419],
    [9752,1532803580,56.8902,-111.5596,629.0,292.0,185.5,3.1,1.5,25.06,45.57,1.9316,372.815],
    [9753,1532803581,56.8897,-111.5597,626.9,288.9,185.9,2.8,0.6,25.36,45.52,1.9321,372.7727],
    [9754,1532803582,56.8891,-111.5597,624.1,286.1,186.1,2.6,1.3,25.38,46.14,1.93,372.9455],
    [9755,1532803583,56.8886,-111.5598,621.7,283.4,186.2,3.1,3.6,25.33,45.54,1.9273,372.642],
    [9756,1532803584,56.8881,-111.5599,619.8,280.7,185.8,3.3,2.8,25.66,45.22,1.9295,372.2929],
    [9757,1532803585,56.8875,-111.5599,618.8,279.8,183.6,2.1,2.3,25.44,45.15,1.9283,373.2142],
    [9758,1532803586,56.887,-111.5599,618.2,279.2,181.8,1.4,1.8,25.91,44.49,1.9281,373.2142],
    [9759,1532803587,56.8865,-111.5599,618.2,279.2,180.3,1.0,3.2,25.66,44.62,1.9286,373.0065],
    [9760,1532803588,56.8859,-111.5599,618.5,279.2,179.1,0.8,3.4,25.33,45.05,1.927,372.6134],
    [9761,1532803589,56.8854,-111.5599,618.3,278.3,178.3,0.5,2.5,25.54,45.3,1.9269,373.2875],
    [9762,1532803590,56.8849,-111.5598,617.8,276.7,178.3,1.0,2.4,25.69,44.54,1.9278,373.0811],
    [9763,1532803591,56.8843,-111.5598,616.7,275.4,179.5,2.1,2.5,25.55,43.89,1.928,373.0192],
    [9764,1532803592,56.8838,-111.5597,615.2,273.2,178.6,1.0,1.9,25.64,43.32,1.9271,374.8998],
    [9765,1532803593,56.8832,-111.5597,613.4,270.7,179.7,2.2,1.1,26.1,42.96,1.9263,372.6723],
    [9766,1532803594,56.8827,-111.5597,612.2,269.2,181.1,2.9,0.6,25.93,43.0,1.9261,374.9049],
    [9767,1532803595,56.8822,-111.5596,612.6,268.6,180.2,1.9,0.4,25.51,44.04,1.9251,373.2429],
    [9768,1532803596,56.8816,-111.5596,614.4,270.4,179.9,1.7,0.7,25.57,43.39,1.9256,374.8202],
    [9769,1532803597,56.8811,-111.5596,617.1,272.8,180.2,2.1,0.7,26.17,42.4,1.9254,373.5144],
    [9770,1532803598,56.8805,-111.5595,619.0,274.0,181.6,3.1,0.5,25.92,42.65,1.929,373.726],
    [9771,1532803599,56.88,-111.5595,620.3,275.4,181.9,2.6,0.4,25.49,43.51,1.9277,374.3608],
    [9772,1532803600,56.8795,-111.5595,622.6,276.6,181.2,1.6,0.1,25.32,43.47,1.9288,373.2104],
    [9773,1532803601,56.8789,-111.5595,625.1,279.1,180.1,0.3,-0.7,25.46,43.06,1.9293,373.2104],
    [9774,1532803602,56.8784,-111.5595,627.1,282.2,179.6,-0.1,-0.2,25.47,43.29,1.9263,375.3997],
    [9775,1532803603,56.8778,-111.5595,628.1,283.1,182.9,3.1,-0.5,25.3,43.38,1.9278,374.7868],
    [9776,1532803604,56.8773,-111.5595,628.6,283.6,183.9,3.6,-0.6,25.07,43.37,1.93,373.8162],
    [9777,1532803605,56.8768,-111.5595,629.7,283.6,181.4,1.4,-0.8,25.85,43.14,1.9296,374.1531],
    [9778,1532803606,56.8762,-111.5595,632.0,285.0,181.4,1.5,-0.4,25.58,43.18,1.9279,372.4679],
    [9779,1532803607,56.8757,-111.5595,635.6,287.6,181.8,2.0,0.9,25.5,43.43,1.9286,373.632],
    [9780,1532803608,56.8752,-111.5595,639.9,290.9,182.8,3.1,0.5,24.76,43.72,1.929,373.8904],
    [9781,1532803609,56.8746,-111.5595,642.4,292.4,183.0,3.0,-0.5,24.82,43.99,1.9283,373.688],
    [9782,1532803610,56.8741,-111.5595,643.8,293.1,181.2,1.0,-0.5,25.02,44.0,1.9273,373.688],
    [9783,1532803611,56.8736,-111.5595,644.3,292.9,181.1,0.9,0.8,25.54,43.58,1.9292,373.9183],
    [9784,1532803612,56.873,-111.5595,644.7,292.7,181.5,1.6,2.4,25.39,44.72,1.9282,373.7765],
    [9785,1532803613,56.8725,-111.5595,645.7,293.4,180.4,1.0,2.9,25.16,44.24,1.9284,373.0912],
    [9786,1532803614,56.872,-111.5595,647.5,294.5,180.2,1.2,1.7,25.96,43.89,1.9288,373.9891],
    [9787,1532803615,56.8715,-111.5595,649.9,295.9,180.7,1.5,3.9,25.48,44.44,1.9257,373.3208],
    [9788,1532803616,56.871,-111.5595,651.4,297.4,180.2,0.9,3.8,24.91,44.04,1.9271,373.4152],
    [9789,1532803617,56.8705,-111.5595,651.6,296.6,182.0,2.4,2.3,25.69,43.66,1.9278,373.4152],
    [9790,1532803618,56.87,-111.5595,651.2,295.5,182.0,2.3,2.3,26.05,43.18,1.9274,373.5068],
    [9791,1532803619,56.8694,-111.5595,650.3,294.3,181.5,2.0,3.4,25.69,44.2,1.9264,373.3952],
    [9792,1532803620,56.8689,-111.5594,648.3,292.3,182.9,3.3,3.6,25.99,43.15,1.9254,373.5209],
    [9793,1532803621,56.8684,-111.5594,646.0,289.7,183.7,3.8,3.8,25.82,43.54,1.927,373.5209],
    [9794,1532803622,56.8679,-111.5595,644.3,287.3,183.0,2.8,3.0,25.41,44.49,1.9261,372.6939],
    [9795,1532803623,56.8674,-111.5595,643.3,286.4,182.3,2.1,2.3,25.51,43.73,1.9276,373.9664],
    [9796,1532803624,56.8669,-111.5595,642.6,284.6,182.2,2.6,3.1,25.92,43.33,1.9275,373.9664],
    [9797,1532803625,56.8663,-111.5595,642.0,284.0,181.8,2.5,2.6,25.09,44.0,1.9283,372.3672],
    [9798,1532803626,56.8658,-111.5594,641.5,283.5,180.3,1.7,2.9,25.24,43.87,1.9283,373.3312],
    [9799,1532803627,56.8653,-111.5594,641.8,283.1,179.6,1.7,2.0,24.76,43.9,1.927,373.3878],
    [9800,1532803628,56.8648,-111.5594,642.4,283.4,180.3,2.4,1.6,25.9,43.46,1.9268,373.3878],
    [9801,1532803629,56.8643,-111.5593,642.2,283.2,179.9,1.5,1.5,25.11,43.73,1.9286,372.9135],
    [9802,1532803630,56.8638,-111.5593,641.8,281.8,178.6,-0.1,0.9,25.36,43.56,1.9273,373.9482],
    [9803,1532803631,56.8632,-111.5593,641.6,281.6,180.6,1.3,-0.3,25.34,43.72,1.927,374.5153],
    [9804,1532803632,56.8627,-111.5593,641.7,281.7,183.4,3.2,-0.6,25.28,43.5,1.9281,373.3513],
    [9805,1532803633,56.8622,-111.5593,641.5,281.5,185.3,4.3,0.5,25.77,42.94,1.9265,374.619],
    [9806,1532803634,56.8617,-111.5593,642.5,282.5,184.3,2.7,1.4,25.33,44.05,1.925,374.6637],
    [9807,1532803635,56.8611,-111.5594,644.1,284.1,182.4,1.0,2.4,25.57,43.12,1.9254,373.4497],
    [9808,1532803636,56.8606,-111.5594,645.7,285.7,183.2,2.1,2.3,25.86,43.04,1.9238,374.4398],
    [9809,1532803637,56.8601,-111.5594,647.0,286.9,183.6,2.7,1.9,24.89,43.23,1.9239,373.7645],
    [9810,1532803638,56.8596,-111.5594,648.9,287.9,183.3,2.1,1.7,25.42,42.93,1.9255,373.6288],
    [9811,1532803639,56.8591,-111.5594,652.0,291.0,181.8,0.6,2.1,25.4,43.05,1.924,373.4016],
    [9812,1532803640,56.8586,-111.5595,653.9,292.9,182.1,0.7,2.5,25.06,42.98,1.9233,374.6231],
    [9813,1532803641,56.8581,-111.5595,655.7,294.7,182.1,0.9,2.3,25.63,42.28,1.9233,373.7437],
    [9814,1532803642,56.8575,-111.5595,657.1,296.1,182.1,1.3,2.5,25.06,42.9,1.9245,375.0074],
    [9815,1532803643,56.857,-111.5595,657.9,296.9,183.3,2.8,2.6,24.95,42.96,1.9236,374.8281],
    [9816,1532803644,56.8565,-111.5595,657.9,296.9,185.4,4.4,3.0,25.5,42.26,1.9229,374.4374],
    [9817,1532803645,56.856,-111.5596,657.4,296.4,184.1,2.8,3.0,25.39,42.35,1.9246,374.3658],
    [9818,1532803646,56.8555,-111.5596,657.2,296.2,184.0,2.8,3.2,25.12,42.21,1.924,374.3477],
    [9819,1532803647,56.855,-111.5596,656.9,295.9,185.8,4.4,2.8,25.76,41.8,1.9241,372.5296],
    [9820,1532803648,56.8545,-111.5596,656.6,295.6,185.0,3.2,3.1,25.15,42.52,1.9249,375.2692],
    [9821,1532803649,56.8539,-111.5597,656.5,295.5,183.2,1.9,3.6,25.31,42.16,1.9256,375.2692],
    [9822,1532803650,56.8534,-111.5597,656.7,295.7,183.5,2.6,4.0,25.4,42.35,1.9262,374.6456],
    [9823,1532803651,56.8529,-111.5597,657.0,296.0,183.2,2.6,4.0,25.3,42.6,1.9283,375.3896],
    [9824,1532803652,56.8524,-111.5597,657.1,296.1,182.1,1.9,3.7,25.77,42.22,1.924,375.4632],
    [9825,1532803653,56.8519,-111.5597,657.0,296.0,181.4,1.7,3.2,25.09,43.34,1.9268,375.017],
    [9826,1532803654,56.8514,-111.5597,657.4,296.4,181.4,1.8,4.4,24.82,42.8,1.9223,374.4193],
    [9827,1532803655,56.8509,-111.5597,657.8,296.5,180.7,1.3,3.9,25.62,42.19,1.9219,374.2958],
    [9828,1532803656,56.8504,-111.5597,658.3,296.3,180.6,0.8,3.0,25.32,42.48,1.9221,373.0793],
    [9829,1532803657,56.8499,-111.5597,659.3,296.6,180.3,0.6,2.6,24.66,42.45,1.9252,374.0468],
    [9830,1532803658,56.8494,-111.5597,659.7,296.4,181.0,1.3,2.4,25.42,42.24,1.9229,374.0312],
    [9831,1532803659,56.8489,-111.5597,659.1,295.1,181.0,1.2,2.3,25.26,42.82,1.9225,374.0851],
    [9832,1532803660,56.8484,-111.5597,657.8,293.8,180.8,1.2,2.6,24.59,42.34,1.9231,375.1967],
    [9833,1532803661,56.8478,-111.5597,656.1,292.1,181.1,1.7,2.7,24.75,42.95,1.9252,374.3688],
    [9834,1532803662,56.8473,-111.5597,654.6,290.6,181.2,1.7,1.7,25.73,41.58,1.9231,373.7165],
    [9835,1532803663,56.8468,-111.5597,653.5,289.5,181.0,1.4,0.9,25.44,42.35,1.9238,373.7165],
    [9836,1532803664,56.8463,-111.5597,652.5,288.5,181.7,1.7,1.0,25.89,42.11,1.9235,374.6835],
    [9837,1532803665,56.8458,-111.5597,651.7,286.0,182.4,2.0,0.6,25.17,42.48,1.9221,374.7974],
    [9838,1532803666,56.8453,-111.5597,651.1,283.8,182.3,1.8,0.9,25.32,41.99,1.9207,374.7974],
    [9839,1532803667,56.8447,-111.5597,651.0,283.0,182.8,2.3,1.2,25.07,42.07,1.9217,374.7361],
    [9840,1532803668,56.8442,-111.5597,651.2,281.9,183.2,2.6,1.6,25.43,41.54,1.9198,374.0456],
    [9841,1532803669,56.8437,-111.5597,651.8,280.8,182.3,1.5,1.7,24.93,41.41,1.9173,374.1754],
    [9842,1532803670,56.8432,-111.5597,653.2,282.2,182.7,2.0,2.5,25.03,41.07,1.9147,374.7117],
    [9843,1532803671,56.8427,-111.5597,653.8,281.9,184.1,3.3,2.3,25.17,41.38,1.9119,375.8731],
    [9844,1532803672,56.8421,-111.5598,653.9,280.8,185.4,4.4,1.9,25.18,40.13,1.913,375.7831],
    [9845,1532803673,56.8416,-111.5598,654.4,281.3,185.3,4.0,2.4,25.18,39.94,1.9211,373.4325],
    [9846,1532803674,56.8411,-111.5598,655.8,281.7,183.4,2.3,2.6,25.16,40.13,1.9229,375.4897],
    [9847,1532803675,56.8406,-111.5598,657.3,283.1,182.5,1.6,2.8,24.85,39.81,1.9241,375.5259],
    [9848,1532803676,56.8401,-111.5598,658.9,284.0,181.8,1.0,2.7,25.57,40.2,1.9205,374.0723],
    [9849,1532803677,56.8396,-111.5598,660.8,284.7,181.9,1.0,2.2,25.0,40.95,1.9233,374.4129],
    [9850,1532803678,56.8391,-111.5599,662.3,286.2,183.6,2.5,2.0,25.2,40.93,1.9262,374.951],
    [9851,1532803679,56.8386,-111.5599,662.1,285.1,184.3,3.5,2.4,25.02,41.55,1.9239,374.951],
    [9852,1532803680,56.8381,-111.5599,661.0,283.7,181.8,3.0,2.4,25.4,41.26,1.9225,375.677],
    [9853,1532803681,56.8375,-111.5598,660.7,282.7,179.3,3.4,2.5,25.7,41.59,1.9228,374.9699],
    [9854,1532803682,56.837,-111.5597,661.1,283.1,176.1,3.5,2.5,25.01,42.11,1.9233,374.9263],
    [9855,1532803683,56.8365,-111.5596,662.0,284.0,171.1,2.4,3.6,25.14,43.15,1.9255,374.6545],
    [9856,1532803684,56.836,-111.5594,662.9,284.8,166.3,2.2,3.2,25.83,42.18,1.9241,374.2838],
    [9857,1532803685,56.8355,-111.5591,663.1,286.1,163.2,3.2,2.0,25.29,42.7,1.9231,374.7739],
    [9858,1532803686,56.835,-111.5587,662.6,285.6,158.7,2.0,2.2,24.69,42.61,1.9256,374.2911],
    [9859,1532803687,56.8346,-111.5583,661.3,284.3,155.5,1.9,2.1,25.06,43.57,1.9251,374.5069],
    [9860,1532803688,56.8341,-111.5578,659.5,281.8,153.8,2.7,2.2,25.0,43.1,1.924,373.7588],
    [9861,1532803689,56.8336,-111.5573,657.8,279.8,151.8,2.8,2.3,24.85,43.13,1.9264,374.1931],
    [9862,1532803690,56.8332,-111.5568,656.5,277.5,149.2,2.6,2.1,25.07,44.04,1.9275,373.3305],
    [9863,1532803691,56.8328,-111.5562,655.3,276.0,146.6,2.0,3.2,24.5,44.0,1.9288,373.3405],
    [9864,1532803692,56.8323,-111.5556,654.7,275.8,143.9,1.4,4.5,24.91,44.32,1.9311,373.3405],
    [9865,1532803693,56.8319,-111.555,654.8,275.8,140.2,1.1,3.6,24.63,44.57,1.9315,372.5632],
    [9866,1532803694,56.8315,-111.5543,655.1,277.2,136.9,1.5,3.0,24.56,44.91,1.9287,373.5254],
    [9867,1532803695,56.8312,-111.5536,655.4,278.3,133.6,1.3,3.0,25.1,44.72,1.9253,372.8642],
    [9868,1532803696,56.8308,-111.5528,655.8,281.2,129.7,1.5,2.6,25.47,44.14,1.9238,372.8642],
    [9869,1532803697,56.8305,-111.552,656.2,285.2,126.4,2.3,2.2,25.07,44.3,1.9251,372.7017],
    [9870,1532803698,56.8302,-111.5511,656.7,286.7,121.7,0.7,2.8,25.24,43.99,1.926,373.0509],
    [9871,1532803699,56.83,-111.5502,657.1,287.6,117.3,1.7,1.8,25.17,44.08,1.9254,373.0312],
    [9872,1532803700,56.8298,-111.5493,657.0,288.3,113.0,1.5,1.6,25.7,43.52,1.9265,374.2473],
    [9873,1532803701,56.8296,-111.5483,656.6,287.6,109.3,1.1,2.4,25.37,43.7,1.9297,374.3141],
    [9874,1532803702,56.8295,-111.5474,656.2,288.2,105.0,0.3,2.3,25.59,43.82,1.9294,373.7743],
    [9875,1532803703,56.8294,-111.5464,656.1,289.2,100.6,-1.2,2.5,25.68,43.64,1.9307,373.9435],
    [9876,1532803704,56.8293,-111.5453,656.4,289.7,97.6,-0.2,3.0,25.21,44.8,1.9299,374.0783],
    [9877,1532803705,56.8293,-111.5443,656.8,291.9,94.8,-1.9,3.1,25.18,44.73,1.9302,374.5811],
    [9878,1532803706,56.8292,-111.5433,658.0,294.2,91.1,-4.1,1.5,24.41,44.9,1.9331,373.8013],
    [9879,1532803707,56.8293,-111.5423,658.6,295.6,88.4,-3.9,0.7,24.89,44.63,1.9321,373.2561],
    [9880,1532803708,56.8293,-111.5413,659.2,297.3,86.9,-3.5,1.0,25.19,44.43,1.9326,373.6884],
    [9881,1532803709,56.8293,-111.5402,660.1,299.1,85.5,-4.4,0.7,24.92,45.15,1.9332,373.0004],
    [9882,1532803710,56.8294,-111.5392,660.9,300.9,85.1,-4.2,0.7,24.92,44.8,1.9342,373.4745],
    [9883,1532803711,56.8295,-111.5382,660.9,301.9,85.1,-2.9,0.7,24.88,45.16,1.9341,372.9127],
    [9884,1532803712,56.8295,-111.5372,660.9,302.9,86.3,-3.1,2.0,25.14,45.39,1.9336,372.3346],
    [9885,1532803713,56.8296,-111.5361,660.7,303.7,87.6,-1.9,3.0,25.55,45.26,1.9338,371.3572],
    [9886,1532803714,56.8296,-111.5351,661.2,303.2,87.2,-1.7,2.3,25.27,45.5,1.9333,372.1187],
    [9887,1532803715,56.8297,-111.534,661.8,303.8,86.0,-1.4,0.8,25.88,45.24,1.933,372.8691],
    [9888,1532803716,56.8297,-111.533,662.4,304.4,85.4,-2.0,-0.3,25.29,45.86,1.9326,372.4359],
    [9889,1532803717,56.8298,-111.5319,662.2,304.5,86.5,-2.0,0.3,25.47,45.3,1.9334,372.8119],
    [9890,1532803718,56.8298,-111.5309,660.6,302.9,86.7,-1.3,0.2,25.2,46.43,1.9327,372.6345],
    [9891,1532803719,56.8298,-111.5298,658.3,300.5,86.2,-0.9,-0.4,25.26,46.25,1.9331,373.1693],
    [9892,1532803720,56.8299,-111.5288,657.2,300.2,86.1,0.5,-0.5,24.69,45.53,1.9335,373.1693],
    [9893,1532803721,56.8299,-111.5277,657.1,301.1,86.7,2.9,0.4,24.5,45.31,1.9328,371.7235],
    [9894,1532803722,56.8299,-111.5267,657.4,302.4,87.2,4.5,1.0,25.56,44.9,1.9327,373.2245],
    [9895,1532803723,56.83,-111.5256,657.0,302.3,88.2,3.3,2.4,25.01,45.78,1.9324,372.2353],
    [9896,1532803724,56.83,-111.5245,655.7,302.4,90.4,3.3,4.2,25.2,45.32,1.9329,373.1265],
    [9897,1532803725,56.83,-111.5234,654.1,301.1,89.1,3.1,2.2,25.11,45.41,1.9327,372.8328],
    [9898,1532803726,56.8301,-111.5223,652.4,299.4,88.9,3.6,1.9,25.11,45.65,1.9319,372.6766],
    [9899,1532803727,56.8301,-111.5212,651.0,298.7,90.9,3.3,3.8,24.63,45.04,1.9314,373.0891],
    [9900,1532803728,56.8301,-111.5201,650.6,298.6,91.5,3.7,4.0,25.27,45.26,1.9308,373.0891],
    [9901,1532803729,56.8301,-111.519,651.9,299.9,90.7,3.7,3.2,24.75,45.05,1.9322,373.3053],
    [9902,1532803730,56.8302,-111.5179,654.1,302.8,91.6,4.1,4.4,25.27,44.94,1.9336,373.4977],
    [9903,1532803731,56.8302,-111.5168,656.1,305.1,91.5,4.0,4.4,25.08,44.94,1.9331,373.4977],
    [9904,1532803732,56.8302,-111.5158,657.7,306.6,89.8,3.2,2.9,25.19,45.1,1.9344,371.9841],
    [9905,1532803733,56.8302,-111.5147,658.6,308.7,90.4,1.9,3.3,25.21,44.82,1.9334,371.9785],
    [9906,1532803734,56.8303,-111.5136,659.0,309.0,91.1,3.6,3.3,25.64,44.58,1.9342,373.4744],
    [9907,1532803735,56.8303,-111.5125,658.6,308.6,92.1,2.3,3.5,25.16,45.33,1.9329,373.4744],
    [9908,1532803736,56.8303,-111.5114,657.4,307.4,92.4,2.6,3.0,24.62,45.29,1.9346,372.6482],
    [9909,1532803737,56.8303,-111.5103,658.0,308.0,93.4,2.3,3.4,25.2,45.32,1.935,373.4847],
    [9910,1532803738,56.8303,-111.5092,660.3,310.3,94.4,2.0,3.4,24.64,45.52,1.9348,373.913],
    [9911,1532803739,56.8303,-111.5082,662.3,313.3,95.0,1.2,3.5,24.82,46.14,1.9336,372.7778],
    [9912,1532803740,56.8302,-111.5071,663.6,314.6,95.6,2.3,3.5,25.86,45.2,1.9344,372.7748],
    [9913,1532803741,56.8302,-111.506,664.4,315.4,95.3,1.0,3.5,26.01,45.18,1.9335,372.6239],
    [9914,1532803742,56.8302,-111.505,664.4,315.4,95.3,0.0,3.9,25.14,45.96,1.9341,372.5816],
    [9915,1532803743,56.8302,-111.5039,663.9,314.9,94.5,0.7,3.9,24.59,46.05,1.9325,372.5816],
    [9916,1532803744,56.8302,-111.5029,662.2,313.2,94.5,0.6,4.3,25.14,45.63,1.932,371.5522],
    [9917,1532803745,56.8302,-111.5018,659.7,311.6,92.7,0.1,3.2,25.03,45.66,1.9332,371.5522],
    [9918,1532803746,56.8302,-111.5008,656.8,308.7,92.9,1.2,3.8,25.21,45.48,1.9319,373.3292],
    [9919,1532803747,56.8302,-111.4997,653.7,305.6,93.0,2.8,4.0,25.48,45.29,1.9328,373.4276],
    [9920,1532803748,56.8302,-111.4986,651.5,303.4,92.7,2.4,4.3,24.63,45.39,1.9333,372.9726],
    [9921,1532803749,56.8302,-111.4976,650.0,302.0,92.8,1.6,4.9,25.16,45.49,1.9318,372.8018],
    [9922,1532803750,56.8302,-111.4965,648.9,300.9,91.7,2.0,4.0,25.09,45.23,1.9328,372.8049],
    [9923,1532803751,56.8302,-111.4954,648.0,300.0,91.3,1.4,3.8,25.39,45.03,1.9331,374.4092],
    [9924,1532803752,56.8303,-111.4943,646.8,298.8,92.6,1.9,5.1,25.55,44.97,1.931,373.1055],
    [9925,1532803753,56.8303,-111.4933,645.8,297.8,93.1,1.2,5.4,25.44,45.48,1.9312,372.6598],
    [9926,1532803754,56.8303,-111.4924,645.1,296.1,92.5,1.1,4.5,25.1,45.3,1.9312,372.4068],
    [9927,1532803755,56.8303,-111.4914,644.4,296.4,92.8,1.4,4.5,25.42,45.29,1.9318,373.4103],
    [9928,1532803756,56.8303,-111.4903,644.5,296.5,94.8,1.5,6.1,25.73,44.36,1.9325,373.0437],
    [9929,1532803757,56.8303,-111.4892,644.1,296.1,94.2,2.1,5.5,25.71,44.55,1.933,373.3944],
    [9930,1532803758,56.8303,-111.4882,644.5,296.5,93.8,1.7,5.3,25.58,44.77,1.9307,373.5133],
    [9931,1532803759,56.8303,-111.4871,644.7,297.7,93.2,1.4,4.7,25.2,45.44,1.9307,372.7856],
    [9932,1532803760,56.8304,-111.4861,645.5,298.5,94.1,1.8,5.9,24.82,45.41,1.9312,372.8733],
    [9933,1532803761,56.8304,-111.485,646.5,299.5,94.0,1.6,5.0,25.13,44.78,1.929,373.9024],
    [9934,1532803762,56.8304,-111.4839,646.7,299.7,91.4,1.9,2.0,25.1,45.09,1.9274,373.5727],
    [9935,1532803763,56.8304,-111.4829,646.1,300.1,92.7,2.2,3.0,25.82,43.54,1.9284,373.1788],
    [9936,1532803764,56.8304,-111.4819,644.7,297.7,94.2,2.4,3.9,25.37,43.77,1.9306,373.1788],
    [9937,1532803765,56.8304,-111.4808,643.0,296.0,93.8,2.7,2.9,25.58,43.36,1.9329,373.1274],
    [9938,1532803766,56.8304,-111.4797,641.5,293.5,94.2,2.6,3.5,25.49,44.01,1.9331,372.9303],
    [9939,1532803767,56.8303,-111.4787,639.5,292.5,95.4,3.2,4.8,25.91,43.93,1.9318,374.2567],
    [9940,1532803768,56.8303,-111.4776,637.8,290.8,93.6,3.9,2.9,25.58,44.01,1.9311,373.0887],
    [9941,1532803769,56.8303,-111.4765,635.3,288.3,94.1,4.6,3.7,24.85,44.48,1.9312,372.989],
    [9942,1532803770,56.8303,-111.4754,632.5,286.5,94.8,4.6,3.8,25.22,45.31,1.9309,373.2574],
    [9943,1532803771,56.8303,-111.4743,629.5,283.5,93.5,4.2,2.6,24.62,44.53,1.9297,370.9729],
    [9944,1532803772,56.8303,-111.4733,626.8,281.8,97.1,4.7,6.0,25.37,44.16,1.9297,373.4776],
    [9945,1532803773,56.8303,-111.4722,624.4,279.4,97.4,5.2,5.8,26.13,43.63,1.9298,374.0051],
    [9946,1532803774,56.8303,-111.4711,622.0,277.8,95.3,2.9,4.6,25.0,44.25,1.9306,374.2239],
    [9947,1532803775,56.8303,-111.47,620.3,276.3,95.3,2.1,5.2,25.87,43.72,1.9304,373.1734],
    [9948,1532803776,56.8302,-111.4689,618.6,274.6,93.5,0.8,3.9,25.25,44.69,1.9305,372.7355],
    [9949,1532803777,56.8302,-111.4678,616.7,272.7,93.0,-0.4,3.7,25.24,45.07,1.9315,372.3701],
    [9950,1532803778,56.8303,-111.4667,614.9,270.9,91.3,1.0,2.3,25.37,44.51,1.9321,372.8398],
    [9951,1532803779,56.8303,-111.4656,613.1,269.1,90.4,-1.3,2.1,25.4,45.28,1.9318,373.1478],
    [9952,1532803780,56.8303,-111.4646,611.5,267.5,91.5,-2.9,3.6,24.97,45.12,1.9319,371.5652],
    [9953,1532803781,56.8303,-111.4635,610.0,266.0,92.2,-2.0,4.2,24.89,44.98,1.9315,372.2776],
    [9954,1532803782,56.8303,-111.4624,608.9,264.9,92.3,-2.0,3.8,25.22,45.11,1.9287,372.2776],
    [9955,1532803783,56.8303,-111.4613,608.0,264.0,92.9,-3.4,4.1,25.41,44.8,1.9303,370.963],
    [9956,1532803784,56.8303,-111.4603,607.3,263.3,93.9,-2.6,4.5,25.32,44.63,1.9297,372.2741],
    [9957,1532803785,56.8303,-111.4592,606.5,262.8,93.7,-3.4,4.2,25.27,44.26,1.9279,372.2741],
    [9958,1532803786,56.8303,-111.4581,604.8,261.8,93.1,-3.3,3.2,25.15,44.07,1.9272,372.8107],
    [9959,1532803787,56.8303,-111.457,603.1,260.1,92.4,-3.2,2.6,25.76,43.36,1.9269,373.2228],
    [9960,1532803788,56.8303,-111.456,601.7,259.7,93.2,-3.3,3.7,25.08,43.47,1.9279,372.811],
    [9961,1532803789,56.8303,-111.4549,600.9,259.9,92.7,-2.5,3.1,26.06,42.86,1.9298,372.3935],
    [9962,1532803790,56.8303,-111.4538,600.2,259.2,90.7,-3.1,0.9,25.09,43.37,1.93,371.9768],
    [9963,1532803791,56.8303,-111.4527,599.4,259.4,90.3,-3.5,0.9,25.44,44.04,1.9309,372.6515],
    [9964,1532803792,56.8303,-111.4516,597.9,258.9,91.4,-3.5,1.9,25.5,43.16,1.9325,370.4053],
    [9965,1532803793,56.8303,-111.4505,596.0,258.0,91.0,-2.6,1.1,25.4,43.85,1.9328,370.4053],
    [9966,1532803794,56.8303,-111.4495,594.1,257.1,91.3,-2.6,1.4,25.45,44.4,1.9322,371.5577],
    [9967,1532803795,56.8303,-111.4484,591.6,255.6,92.3,-2.9,2.5,25.83,44.38,1.9317,371.404],
    [9968,1532803796,56.8303,-111.4473,590.0,254.9,92.4,-1.7,2.8,25.92,44.53,1.9311,372.9255],
    [9969,1532803797,56.8303,-111.4461,589.0,256.0,93.2,-0.9,3.9,25.14,45.3,1.9294,372.3605],
    [9970,1532803798,56.8303,-111.445,588.7,259.0,93.4,0.1,3.5,25.57,44.49,1.9287,372.5895],
    [9971,1532803799,56.8303,-111.4439,588.5,264.8,92.0,0.7,1.9,25.04,44.35,1.9283,372.1197],
    [9972,1532803800,56.8303,-111.4428,587.9,276.6,93.9,0.1,4.1,25.8,44.02,1.9289,371.1121],
    [9973,1532803801,56.8303,-111.4416,587.8,288.0,93.9,1.5,3.7,25.62,44.1,1.9301,372.9004],
    [9974,1532803802,56.8303,-111.4405,588.3,302.3,92.1,0.9,1.6,25.74,44.5,1.932,372.7125],
    [9975,1532803803,56.8303,-111.4393,588.7,315.5,92.4,2.1,2.5,25.91,43.77,1.9293,373.019],
    [9976,1532803804,56.8303,-111.4382,587.5,325.8,95.1,3.2,5.5,25.48,44.16,1.9283,371.7428],
    [9977,1532803805,56.8303,-111.4371,585.5,331.2,94.4,4.1,4.4,25.47,44.12,1.928,372.7259],
    [9978,1532803806,56.8303,-111.4359,585.2,334.4,94.2,4.9,4.1,25.51,44.06,1.9279,372.2245],
    [9979,1532803807,56.8302,-111.4347,585.2,336.6,96.0,4.5,5.4,26.03,43.45,1.9275,371.9369],
    [9980,1532803808,56.8302,-111.4336,584.3,336.3,95.4,5.2,4.3,25.46,43.82,1.9282,372.2332],
    [9981,1532803809,56.8302,-111.4324,582.7,335.7,96.4,4.7,5.2,25.54,43.53,1.929,373.0628],
    [9982,1532803810,56.8302,-111.4313,581.0,335.0,96.3,4.9,4.8,25.48,43.6,1.9289,371.5329],
    [9983,1532803811,56.8302,-111.4301,578.7,333.6,95.2,5.8,3.8,26.03,43.29,1.9302,370.7824],
    [9984,1532803812,56.8302,-111.429,575.5,332.5,95.1,6.4,3.8,25.63,43.64,1.9292,372.0771],
    [9985,1532803813,56.8301,-111.4278,572.4,330.4,94.6,6.9,3.3,25.58,44.2,1.9293,371.6634],
    [9986,1532803814,56.8301,-111.4266,570.1,329.1,94.0,7.4,2.7,25.3,43.97,1.9287,371.6747],
    [9987,1532803815,56.8301,-111.4255,567.7,326.4,95.0,8.1,3.3,25.31,44.14,1.9286,371.9728],
    [9988,1532803816,56.8301,-111.4243,566.0,324.1,95.4,9.0,3.0,25.64,44.48,1.9279,372.2055],
    [9989,1532803817,56.8301,-111.4231,564.9,321.9,96.7,10.1,4.5,25.12,44.19,1.9289,371.9383],
    [9990,1532803818,56.83,-111.4219,563.4,319.4,97.9,11.6,5.2,25.91,43.66,1.9282,371.8745],
    [9991,1532803819,56.83,-111.4207,563.0,319.0,96.1,12.5,3.8,25.1,44.03,1.9272,372.533],
    [9992,1532803820,56.83,-111.4195,563.6,319.6,96.4,12.8,4.5,25.92,43.68,1.9273,371.9571],
    [9993,1532803821,56.83,-111.4184,563.4,321.7,97.1,13.0,4.9,25.51,44.6,1.9282,373.2007],
    [9994,1532803822,56.8299,-111.4172,562.7,323.7,94.5,12.7,2.5,25.07,43.97,1.928,372.4415],
    [9995,1532803823,56.8299,-111.416,562.0,324.0,94.0,12.6,2.6,25.34,44.0,1.9274,371.9436],
    [9996,1532803824,56.8299,-111.4148,561.9,323.9,94.8,12.6,3.5,25.45,44.08,1.9276,371.3803],
    [9997,1532803825,56.8299,-111.4137,563.7,325.7,94.1,12.1,3.0,25.59,44.37,1.9278,372.4387],
    [9998,1532803826,56.8299,-111.4125,566.8,328.8,93.7,11.5,3.1,25.54,43.89,1.9281,372.5525],
    [9999,1532803827,56.8299,-111.4114,570.0,331.7,93.8,11.0,3.4,25.3,44.66,1.9289,372.6567],
    [10000,1532803828,56.8299,-111.4102,573.4,332.6,93.8,10.7,3.6,25.42,44.29,1.9317,372.235],
    [10001,1532803829,56.8299,-111.4091,576.8,325.4,94.5,9.8,4.3,25.36,44.71,1.9314,372.235],
    [10002,1532803830,56.8299,-111.408,580.3,313.9,94.6,9.4,4.1,25.69,44.83,1.9326,372.1685],
    [10003,1532803831,56.8299,-111.4068,584.4,301.8,94.5,8.2,3.9,25.4,45.4,1.9326,372.2363],
    [10004,1532803832,56.8299,-111.4057,588.2,293.7,95.5,7.4,4.6,25.39,45.68,1.9308,370.8636],
    [10005,1532803833,56.8298,-111.4047,591.6,287.8,95.6,8.1,4.5,25.51,46.1,1.9328,370.9843],
    [10006,1532803834,56.8298,-111.4035,594.8,284.5,95.0,7.1,4.1,25.39,46.39,1.9318,370.6427],
    [10007,1532803835,56.8298,-111.4024,597.5,278.6,94.4,6.6,3.8,24.92,47.16,1.9314,369.6065],
    [10008,1532803836,56.8298,-111.4014,600.9,275.5,94.1,5.9,3.6,25.85,46.54,1.9318,370.8882],
    [10009,1532803837,56.8298,-111.4003,605.4,276.1,93.3,4.5,3.0,25.23,46.74,1.9328,371.5062],
    [10010,1532803838,56.8298,-111.3992,610.6,276.1,93.3,3.2,3.3,24.4,47.17,1.9334,371.1672],
    [10011,1532803839,56.8298,-111.3982,615.7,276.9,93.6,3.5,3.5,25.04,46.83,1.9329,371.187],
    [10012,1532803840,56.8298,-111.3972,621.0,277.7,93.4,2.3,3.3,24.49,47.38,1.9314,368.4311],
    [10013,1532803841,56.8298,-111.3961,625.5,278.5,93.7,0.4,3.8,25.39,47.8,1.9313,370.4384],
    [10014,1532803842,56.8298,-111.3951,628.8,279.2,93.8,0.9,4.0,24.81,48.16,1.9325,371.0782],
    [10015,1532803843,56.8298,-111.3941,631.0,279.9,93.4,0.7,3.8,24.9,48.51,1.9301,371.3005],
    [10016,1532803844,56.8298,-111.3931,632.7,281.7,93.3,0.4,4.0,24.91,48.77,1.9282,371.2102],
    [10017,1532803845,56.8298,-111.3921,634.7,282.7,92.5,-0.2,3.5,24.99,47.5,1.9285,371.1573],
    [10018,1532803846,56.8298,-111.3911,637.1,285.1,92.0,-1.7,3.2,25.06,47.35,1.9297,369.8718],
    [10019,1532803847,56.8298,-111.3901,639.3,287.3,92.5,-2.4,3.9,25.53,46.05,1.9314,372.379],
    [10020,1532803848,56.8298,-111.389,641.4,289.5,92.6,-2.6,3.8,24.65,46.56,1.9302,371.0147],
    [10021,1532803849,56.8298,-111.388,643.5,293.8,92.1,-3.2,3.2,25.57,46.12,1.9311,370.5624],
    [10022,1532803850,56.8298,-111.387,644.9,296.9,92.5,-3.0,3.8,25.69,46.16,1.9309,371.4366],
    [10023,1532803851,56.8299,-111.386,645.3,297.6,92.7,-3.6,4.1,25.14,46.94,1.9306,371.2879],
    [10024,1532803852,56.8299,-111.385,646.5,298.5,91.4,-4.2,3.3,24.42,47.16,1.9301,371.1272],
    [10025,1532803853,56.8299,-111.384,648.0,299.1,90.7,-4.1,3.0,24.66,46.75,1.9296,371.2999],
    [10026,1532803854,56.8299,-111.383,649.8,299.8,89.5,-3.9,1.8,25.6,46.11,1.9304,371.3976],
    [10027,1532803855,56.8299,-111.382,651.6,300.6,89.3,-4.1,1.8,24.95,47.0,1.9311,370.6026],
    [10028,1532803856,56.83,-111.381,652.7,301.7,89.6,-3.8,2.2,24.85,46.36,1.9319,371.4559],
    [10029,1532803857,56.83,-111.38,653.7,301.7,88.8,-4.0,1.7,24.6,46.72,1.9318,369.579],
    [10030,1532803858,56.83,-111.379,653.7,301.2,88.4,-4.1,0.8,24.97,46.73,1.931,370.9671],
    [10031,1532803859,56.83,-111.378,653.4,300.4,89.2,-2.7,1.5,25.53,46.49,1.9319,371.0799],
    [10032,1532803860,56.83,-111.3769,653.1,300.3,93.1,-1.6,4.1,25.52,46.75,1.9328,371.4578],
    [10033,1532803861,56.83,-111.3759,653.5,301.4,93.2,-1.6,3.2,24.79,47.47,1.9313,371.0537],
    [10034,1532803862,56.83,-111.3749,654.1,303.1,93.0,-2.2,3.4,25.71,46.56,1.9306,370.2499],
    [10035,1532803863,56.83,-111.3738,653.5,302.5,92.4,-1.6,3.4,25.06,46.97,1.9311,372.0077],
    [10036,1532803864,56.8301,-111.3728,651.7,300.7,90.6,-0.7,2.7,24.84,47.21,1.9305,370.8715],
    [10037,1532803865,56.8301,-111.3717,649.6,297.7,89.9,0.6,3.3,25.56,46.55,1.9309,371.9507],
    [10038,1532803866,56.8301,-111.3706,648.6,295.2,89.4,1.3,3.4,25.03,47.03,1.9301,371.2357],
    [10039,1532803867,56.8302,-111.3695,648.2,293.2,89.0,0.5,3.2,24.8,48.02,1.9301,372.0032],
    [10040,1532803868,56.8302,-111.3684,647.6,291.4,89.4,-0.2,3.1,25.07,46.84,1.9301,370.2492],
    [10041,1532803869,56.8302,-111.3674,646.8,288.8,89.8,0.1,2.8,24.64,47.13,1.9303,370.9065],
    [10042,1532803870,56.8302,-111.3663,645.8,287.8,90.9,0.3,2.9,24.74,46.94,1.9296,371.4804],
    [10043,1532803871,56.8303,-111.3652,644.7,285.7,92.7,0.8,3.6,24.92,47.55,1.9299,371.4804],
    [10044,1532803872,56.8303,-111.3642,643.8,284.8,93.9,1.3,4.3,25.09,47.22,1.9319,371.9155],
    [10045,1532803873,56.8303,-111.3631,642.7,283.7,94.3,1.4,3.9,24.48,46.84,1.9301,371.4876],
    [10046,1532803874,56.8302,-111.362,641.7,281.7,93.5,1.7,2.8,24.81,46.93,1.9303,370.9855],
    [10047,1532803875,56.8302,-111.3609,640.7,280.7,93.0,1.3,2.6,25.52,46.44,1.9302,372.1428],
    [10048,1532803876,56.8302,-111.3599,639.9,279.9,93.1,0.9,3.2,25.03,46.89,1.9309,371.0886],
    [10049,1532803877,56.8302,-111.3588,639.9,278.9,93.5,2.1,3.7,25.49,46.39,1.9315,371.6069],
    [10050,1532803878,56.8302,-111.3577,639.8,278.8,94.1,0.3,4.2,24.86,46.62,1.9291,370.7199],
    [10051,1532803879,56.8302,-111.3566,639.3,278.3,93.6,1.3,3.5,24.83,46.98,1.9303,370.7171],
    [10052,1532803880,56.8302,-111.3555,639.7,277.7,93.3,1.2,3.6,24.94,46.68,1.9308,370.5845],
    [10053,1532803881,56.8302,-111.3545,639.5,277.5,92.6,0.7,3.3,24.92,47.26,1.9321,370.601],
    [10054,1532803882,56.8302,-111.3534,639.6,277.6,90.8,2.4,1.9,25.32,46.24,1.9328,370.7772],
    [10055,1532803883,56.8302,-111.3523,640.2,278.2,89.9,3.4,1.2,24.88,46.85,1.9319,371.5833],
    [10056,1532803884,56.8302,-111.3512,640.6,277.6,91.0,3.9,2.2,24.83,47.43,1.9322,371.8565],
    [10057,1532803885,56.8302,-111.3501,641.9,278.9,90.8,2.5,1.8,24.94,46.61,1.9314,370.431],
    [10058,1532803886,56.8303,-111.349,643.6,280.6,89.9,3.5,1.2,24.96,46.53,1.9294,371.3878],
    [10059,1532803887,56.8303,-111.348,645.0,282.0,91.5,3.6,2.6,24.85,46.56,1.9293,371.4204],
    [10060,1532803888,56.8303,-111.3469,644.4,281.4,93.1,2.9,3.8,25.13,46.02,1.9311,371.2375],
    [10061,1532803889,56.8303,-111.3458,643.3,280.3,93.5,1.5,3.8,25.11,45.81,1.9306,369.7914],
    [10062,1532803890,56.8303,-111.3447,642.4,280.4,93.6,2.3,3.5,24.53,46.12,1.9318,371.6507],
    [10063,1532803891,56.8303,-111.3436,641.2,279.2,93.0,2.6,2.7,24.88,46.3,1.9311,370.8635],
    [10064,1532803892,56.8303,-111.3425,640.3,278.3,93.6,2.6,3.5,24.9,46.32,1.9293,371.2346],
    [10065,1532803893,56.8303,-111.3414,639.7,276.7,93.7,3.4,3.7,24.23,46.5,1.9292,371.2346],
    [10066,1532803894,56.8303,-111.3402,639.0,276.0,93.4,3.7,3.8,24.61,46.58,1.9304,371.2379],
    [10067,1532803895,56.8303,-111.3391,638.0,275.0,93.0,3.4,3.8,25.01,46.29,1.9298,371.2379],
    [10068,1532803896,56.8303,-111.338,637.1,273.1,91.3,3.5,2.4,24.96,46.31,1.93,369.9906],
    [10069,1532803897,56.8303,-111.3369,636.7,272.7,90.5,3.3,2.1,25.5,45.58,1.9303,370.5323],
    [10070,1532803898,56.8303,-111.3358,636.7,272.7,91.2,4.2,3.0,24.82,46.07,1.9294,370.4616],
    [10071,1532803899,56.8303,-111.3347,637.1,272.1,91.3,3.8,3.2,24.75,46.83,1.9304,370.4616],
    [10072,1532803900,56.8303,-111.3336,637.5,272.5,90.9,3.9,3.1,24.22,46.58,1.9297,369.5602],
    [10073,1532803901,56.8303,-111.3325,638.2,272.5,90.4,3.0,2.7,24.38,46.63,1.9294,372.1084],
    [10074,1532803902,56.8304,-111.3314,639.5,273.5,89.4,3.7,1.6,24.17,46.65,1.9306,371.474],
    [10075,1532803903,56.8304,-111.3303,640.7,274.7,90.7,3.7,2.4,25.04,46.89,1.9313,371.9479],
    [10076,1532803904,56.8304,-111.3292,640.8,273.8,92.8,5.7,3.6,25.64,46.11,1.9316,370.7935],
    [10077,1532803905,56.8304,-111.3281,639.8,272.8,93.3,5.3,3.8,25.03,46.43,1.9297,370.4079],
    [10078,1532803906,56.8304,-111.327,639.0,271.0,93.1,5.8,3.5,24.75,47.35,1.9292,371.2583],
    [10079,1532803907,56.8304,-111.326,639.3,271.0,93.0,6.6,3.1,24.62,46.66,1.9272,370.1929],
    [10080,1532803908,56.8304,-111.3249,640.4,271.4,93.6,7.1,3.0,24.34,46.43,1.9263,371.9103],
    [10081,1532803909,56.8304,-111.3238,642.1,273.1,93.8,7.2,2.2,24.24,45.99,1.9268,371.7737],
    [10082,1532803910,56.8304,-111.3227,643.7,273.7,95.0,6.8,2.6,24.71,45.71,1.9233,371.7007],
    [10083,1532803911,56.8303,-111.3217,645.0,274.7,96.4,7.2,3.3,25.28,44.96,1.9255,372.0172],
    [10084,1532803912,56.8303,-111.3206,645.6,274.6,97.2,6.5,4.0,25.16,44.8,1.9271,372.0172],
    [10085,1532803913,56.8303,-111.3195,645.8,273.8,96.5,6.3,3.5,25.38,44.71,1.9243,372.87],
    [10086,1532803914,56.8302,-111.3184,646.3,274.1,95.9,7.0,3.3,24.69,45.46,1.9246,371.499],
    [10087,1532803915,56.8302,-111.3174,647.5,274.5,95.7,6.7,3.6,25.3,44.33,1.9293,371.2083],
    [10088,1532803916,56.8302,-111.3163,648.6,274.6,94.9,6.2,3.5,24.79,45.07,1.9307,372.1667],
    [10089,1532803917,56.8302,-111.3152,650.1,275.0,93.5,6.5,2.6,24.81,45.42,1.9297,371.8178],
    [10090,1532803918,56.8302,-111.3142,652.0,276.0,92.6,6.5,2.6,24.73,45.9,1.9296,371.4921],
    [10091,1532803919,56.8302,-111.3131,654.9,277.2,92.8,6.2,3.3,25.06,46.23,1.9286,372.2506],
    [10092,1532803920,56.8302,-111.312,657.4,277.4,92.0,5.6,2.2,24.49,47.1,1.9285,372.1235],
    [10093,1532803921,56.8302,-111.311,659.0,275.6,91.9,3.9,2.5,24.38,47.66,1.93,370.1684],
    [10094,1532803922,56.8302,-111.3099,660.0,272.2,94.6,3.5,4.5,24.63,47.48,1.9281,370.739],
    [10095,1532803923,56.8302,-111.3088,661.4,270.1,94.9,3.5,3.7,25.12,46.58,1.9274,370.739],
    [10096,1532803924,56.8302,-111.3078,663.4,269.1,96.1,3.2,4.8,24.66,47.4,1.9274,371.5358],
    [10097,1532803925,56.8302,-111.3067,665.6,267.2,96.5,3.4,4.9,24.25,46.95,1.9268,371.2842],
    [10098,1532803926,56.8301,-111.3057,667.2,265.2,95.4,1.3,4.3,24.78,46.73,1.9272,371.1068],
    [10099,1532803927,56.8301,-111.3047,668.1,263.1,95.4,2.2,4.4,24.79,46.63,1.9293,370.7012],
    [10100,1532803928,56.8301,-111.3037,669.0,263.0,94.1,2.6,3.5,24.46,46.85,1.9291,370.6373],
    [10101,1532803929,56.8301,-111.3026,669.8,261.5,92.5,3.3,3.2,24.63,46.69,1.928,370.2611],
    [10102,1532803930,56.8301,-111.3016,669.9,259.2,91.4,2.1,3.1,24.91,46.26,1.9283,371.1096],
    [10103,1532803931,56.8301,-111.3006,669.7,257.7,89.9,1.6,2.5,24.7,46.66,1.9289,370.7421],
    [10104,1532803932,56.8302,-111.2996,670.1,256.1,89.7,1.3,2.7,24.82,46.43,1.9288,372.0611],
    [10105,1532803933,56.8302,-111.2985,670.6,255.6,90.4,1.1,3.6,24.74,46.56,1.9265,371.775],
    [10106,1532803934,56.8302,-111.2975,671.1,256.1,90.6,1.6,3.1,24.65,47.53,1.9265,372.1666],
    [10107,1532803935,56.8302,-111.2965,672.0,257.0,89.3,1.2,1.6,24.63,46.89,1.9282,371.764],
    [10108,1532803936,56.8303,-111.2955,672.9,257.9,90.2,0.6,2.2,24.09,46.53,1.9278,371.764],
    [10109,1532803937,56.8303,-111.2945,674.4,260.4,90.8,0.8,2.1,24.6,46.26,1.9272,370.9996],
    [10110,1532803938,56.8303,-111.2935,676.6,263.6,91.6,1.4,2.4,24.28,46.42,1.9265,371.588],
    [10111,1532803939,56.8303,-111.2924,678.4,266.3,93.7,1.9,3.7,24.3,46.58,1.9253,372.1978],
    [10112,1532803940,56.8303,-111.2914,679.9,270.6,92.7,2.2,1.5,24.17,46.21,1.9253,372.2802],
    [10113,1532803941,56.8303,-111.2904,681.6,274.2,91.1,1.7,-0.2,24.35,46.6,1.9259,370.9478],
    [10114,1532803942,56.8303,-111.2894,682.8,277.0,93.1,2.3,2.2,25.07,45.14,1.9249,371.8234],
    [10115,1532803943,56.8302,-111.2883,683.2,277.9,95.0,2.9,3.8,24.12,45.84,1.9276,373.7412],
    [10116,1532803944,56.8302,-111.2873,684.9,280.0,93.5,3.0,3.2,24.06,45.24,1.925,372.5065],
    [10117,1532803945,56.8302,-111.2863,687.2,281.2,94.0,3.1,4.1,24.58,45.13,1.925,371.851],
    [10118,1532803946,56.8302,-111.2853,689.8,283.6,93.8,2.0,3.5,24.94,44.92,1.9264,371.8438],
    [10119,1532803947,56.8302,-111.2842,692.1,284.5,92.1,1.5,1.7,24.24,45.3,1.9267,371.7247],
    [10120,1532803948,56.8302,-111.2832,693.1,285.0,92.5,1.8,2.0,24.34,45.56,1.9266,372.2401],
    [10121,1532803949,56.8302,-111.2822,693.0,285.9,93.1,-0.4,2.8,24.21,45.5,1.9265,372.6625],
    [10122,1532803950,56.8302,-111.2811,692.4,286.3,95.0,0.7,4.7,24.48,45.41,1.9282,371.3452],
    [10123,1532803951,56.8302,-111.2801,691.8,287.5,94.6,0.6,4.2,24.8,45.51,1.9287,371.3452],
    [10124,1532803952,56.8302,-111.2791,692.3,289.2,93.4,-0.2,3.2,24.48,45.95,1.9272,372.4277],
    [10125,1532803953,56.8302,-111.278,694.0,291.0,93.3,0.9,2.9,24.42,47.04,1.9283,372.4277],
    [10126,1532803954,56.8302,-111.277,695.7,292.7,93.2,0.6,3.2,24.33,46.27,1.9287,371.5416],
    [10127,1532803955,56.8302,-111.276,696.4,292.4,93.8,0.2,3.7,24.08,46.41,1.9287,372.8565],
    [10128,1532803956,56.8302,-111.2749,697.5,292.5,92.7,-1.5,2.9,24.33,46.46,1.9289,371.1192],
    [10129,1532803957,56.8302,-111.2739,699.3,293.3,92.8,-1.8,3.4,24.44,47.18,1.9276,372.2048],
    [10130,1532803958,56.8302,-111.2728,700.7,293.4,93.1,-1.9,3.7,24.86,45.83,1.9277,371.1475],
    [10131,1532803959,56.8302,-111.2717,702.0,293.0,92.0,-2.1,2.4,24.52,46.28,1.9295,372.5004],
    [10132,1532803960,56.8302,-111.2707,703.2,291.5,91.8,-1.0,2.3,24.63,46.26,1.9283,372.1948],
    [10133,1532803961,56.8302,-111.2697,703.9,290.0,91.9,-1.7,2.8,24.39,46.41,1.9276,372.0659],
    [10134,1532803962,56.8302,-111.2686,704.5,288.6,91.9,-2.2,3.2,24.3,46.51,1.9269,373.5048],
    [10135,1532803963,56.8302,-111.2676,705.0,286.1,92.6,-1.5,4.0,24.19,47.12,1.9257,372.0324],
    [10136,1532803964,56.8302,-111.2666,705.7,285.8,92.0,-2.5,3.4,24.23,46.11,1.9268,371.5738],
    [10137,1532803965,56.8302,-111.2655,706.4,285.4,91.8,-2.8,3.3,24.34,46.43,1.9255,371.7751],
    [10138,1532803966,56.8302,-111.2645,706.9,285.9,91.5,-3.5,3.0,24.03,46.02,1.9261,371.586],
    [10139,1532803967,56.8302,-111.2634,707.0,287.0,91.6,-2.3,3.0,24.47,46.17,1.9254,372.3369],
    [10140,1532803968,56.8303,-111.2624,705.7,285.7,91.8,-1.4,3.1,24.39,45.73,1.9241,372.5656],
    [10141,1532803969,56.8303,-111.2614,704.3,283.3,90.9,-0.9,2.0,24.34,45.68,1.9249,372.2049],
    [10142,1532803970,56.8303,-111.2603,703.7,282.7,90.8,-0.8,2.2,24.46,45.45,1.9242,373.2799],
    [10143,1532803971,56.8303,-111.2592,703.8,281.8,92.2,0.1,3.5,24.33,45.76,1.9243,372.0692],
    [10144,1532803972,56.8303,-111.2582,703.9,280.9,91.8,0.5,3.3,24.6,44.89,1.9277,371.7995],
    [10145,1532803973,56.8303,-111.2571,703.4,279.4,91.8,1.1,3.4,24.29,45.15,1.9259,372.4854],
    [10146,1532803974,56.8303,-111.256,702.3,277.4,91.1,2.3,2.6,24.3,45.06,1.9224,372.2202],
    [10147,1532803975,56.8303,-111.2549,701.3,275.4,90.9,2.2,2.5,24.61,44.59,1.9217,372.1536],
    [10148,1532803976,56.8303,-111.2539,699.5,272.6,90.6,3.0,2.1,23.71,44.8,1.9227,372.7731],
    [10149,1532803977,56.8304,-111.2528,696.5,268.5,91.0,3.8,2.3,24.34,44.81,1.9237,373.2887],
    [10150,1532803978,56.8304,-111.2517,693.6,265.6,92.4,4.8,3.4,23.71,44.28,1.9239,372.8257],
    [10151,1532803979,56.8304,-111.2506,691.1,262.0,92.9,3.8,3.6,24.84,43.91,1.9248,371.946],
    [10152,1532803980,56.8304,-111.2495,688.6,258.5,94.0,5.2,4.5,24.29,44.65,1.9249,372.4775],
    [10153,1532803981,56.8304,-111.2484,685.8,254.8,94.2,5.0,4.8,24.42,44.95,1.923,372.7906],
    [10154,1532803982,56.8304,-111.2473,684.1,252.1,92.5,5.6,3.6,24.34,45.56,1.9235,371.8851],
    [10155,1532803983,56.8304,-111.2461,683.2,250.2,92.7,6.7,4.0,24.66,44.48,1.9239,372.3111],
    [10156,1532803984,56.8304,-111.245,682.1,248.1,91.9,6.6,2.8,24.31,44.95,1.9228,372.4216],
    [10157,1532803985,56.8304,-111.2439,681.4,246.3,92.8,6.3,3.5,24.21,45.68,1.9227,372.0211],
    [10158,1532803986,56.8304,-111.2428,680.8,245.8,94.2,4.8,4.3,24.06,45.14,1.9235,372.0211],
    [10159,1532803987,56.8304,-111.2417,681.6,245.6,95.2,5.9,4.4,24.06,44.99,1.9228,371.9812],
    [10160,1532803988,56.8304,-111.2406,683.6,246.6,95.7,3.6,4.1,24.51,44.98,1.925,373.6892],
    [10161,1532803989,56.8303,-111.2394,686.8,248.5,96.0,4.3,3.8,24.35,45.52,1.9242,372.1261],
    [10162,1532803990,56.8303,-111.2383,689.7,250.7,95.9,3.7,3.6,24.24,45.05,1.925,372.1261],
    [10163,1532803991,56.8303,-111.2372,691.1,251.1,95.3,4.5,3.0,24.82,44.71,1.9246,373.2552],
    [10164,1532803992,56.8303,-111.2361,690.9,249.9,95.0,5.1,2.7,24.39,45.2,1.9248,373.2552],
    [10165,1532803993,56.8302,-111.235,690.9,249.9,95.4,4.2,3.7,24.01,45.04,1.925,372.911],
    [10166,1532803994,56.8302,-111.2338,691.7,249.7,96.0,4.5,4.3,24.22,45.11,1.9243,372.7103],
    [10167,1532803995,56.8302,-111.2327,692.6,250.6,96.0,5.2,4.2,24.19,45.18,1.9243,372.9536],
    [10168,1532803996,56.8302,-111.2316,693.1,250.2,95.5,5.0,3.8,23.86,45.11,1.9247,373.001],
    [10169,1532803997,56.8302,-111.2305,693.3,250.3,95.3,6.7,3.4,24.4,45.23,1.9253,372.3483],
    [10170,1532803998,56.8301,-111.2294,694.0,251.0,95.2,6.7,3.6,23.8,45.22,1.9245,372.5772],
    [10171,1532803999,56.8301,-111.2282,695.4,252.1,94.9,6.9,3.5,24.96,44.56,1.923,372.6576],
    [10172,1532804000,56.8301,-111.2271,697.8,253.7,94.7,6.4,3.8,25.1,44.92,1.9222,373.4249],
    [10173,1532804001,56.8301,-111.226,700.9,256.8,94.7,5.8,3.8,23.98,45.26,1.9227,373.4249],
    [10174,1532804002,56.8301,-111.225,704.7,260.7,92.3,5.2,1.7,25.03,44.66,1.9255,373.5196],
    [10175,1532804003,56.8301,-111.2239,708.5,264.5,92.2,4.5,2.2,24.79,45.03,1.926,372.9294],
    [10176,1532804004,56.8301,-111.2228,711.6,267.5,92.2,3.3,1.9,25.01,44.42,1.9237,373.4196],
    [10177,1532804005,56.8301,-111.2217,714.4,270.0,91.2,3.7,1.2,24.17,45.33,1.9234,373.4288],
    [10178,1532804006,56.8301,-111.2206,716.2,271.9,94.0,3.7,3.9,24.13,46.03,1.9227,373.593],
    [10179,1532804007,56.8301,-111.2195,717.0,272.0,94.2,3.9,3.4,24.19,45.01,1.9212,374.4354],
    [10180,1532804008,56.8301,-111.2184,717.9,272.8,93.9,3.2,2.6,24.69,43.83,1.9241,372.8856],
    [10181,1532804009,56.83,-111.2173,719.0,273.9,96.1,3.6,4.7,24.46,44.14,1.9252,372.9757],
    [10182,1532804010,56.83,-111.2163,720.2,275.2,97.0,4.3,5.8,24.5,44.07,1.9249,373.9773],
    [10183,1532804011,56.83,-111.2152,721.6,276.6,94.7,4.3,5.5,24.77,43.74,1.9253,372.6624],
    [10184,1532804012,56.83,-111.214,723.0,278.0,91.6,5.1,5.4,24.1,44.28,1.9262,372.8431],
    [10185,1532804013,56.8301,-111.2129,724.2,279.2,86.9,4.9,4.7,24.77,44.15,1.9238,373.5461],
    [10186,1532804014,56.8302,-111.2119,725.8,280.5,82.5,5.1,4.8,24.05,44.81,1.924,372.7767],
    [10187,1532804015,56.8303,-111.2108,727.7,281.7,77.4,4.1,3.9,24.06,45.55,1.9259,372.6037],
    [10188,1532804016,56.8305,-111.2098,730.3,284.3,72.3,4.8,3.9,24.18,45.21,1.9256,374.895],
    [10189,1532804017,56.8307,-111.2087,733.2,287.2,67.1,5.3,3.4,23.82,45.18,1.9263,374.895],
    [10190,1532804018,56.831,-111.2078,735.3,289.3,63.4,4.0,3.2,24.48,45.29,1.9261,373.2529],
    [10191,1532804019,56.8313,-111.2068,736.7,291.7,58.7,4.5,2.6,24.55,45.5,1.926,372.8146],
    [10192,1532804020,56.8316,-111.2059,737.2,292.2,54.7,4.3,2.7,24.05,45.93,1.9247,372.7675],
    [10193,1532804021,56.8319,-111.2051,737.2,292.2,51.9,3.6,3.7,23.94,45.81,1.926,372.4939],
    [10194,1532804022,56.8323,-111.2042,736.1,291.1,46.6,4.3,3.1,24.26,45.29,1.9256,372.8159],
    [10195,1532804023,56.8328,-111.2035,733.9,288.9,42.0,3.7,2.6,23.82,45.55,1.9235,373.2027],
    [10196,1532804024,56.8332,-111.2027,731.1,286.1,37.9,3.8,2.5,24.13,45.67,1.9233,372.8222],
    [10197,1532804025,56.8337,-111.2021,728.0,283.0,33.9,3.9,2.9,24.08,45.43,1.9248,373.3865],
    [10198,1532804026,56.8342,-111.2015,724.9,280.7,30.3,3.3,3.8,23.87,45.53,1.926,373.0329],
    [10199,1532804027,56.8347,-111.2009,722.4,278.4,25.3,3.1,4.1,24.07,46.31,1.9263,372.4875],
    [10200,1532804028,56.8353,-111.2005,720.1,276.1,19.5,3.4,3.9,24.57,45.38,1.926,372.6147],
    [10201,1532804029,56.8359,-111.2002,718.0,274.0,13.5,4.1,3.7,24.56,44.93,1.9255,372.7105],
    [10202,1532804030,56.8364,-111.1999,716.7,271.6,9.0,3.9,3.6,24.46,45.0,1.925,372.8827],
    [10203,1532804031,56.837,-111.1997,716.4,270.4,5.2,3.6,3.0,24.52,45.03,1.9243,373.2779],
    [10204,1532804032,56.8376,-111.1996,717.9,271.2,361.6,4.0,3.0,23.9,45.5,1.9256,373.1779],
    [10205,1532804033,56.8382,-111.1995,720.8,273.8,359.1,4.1,2.4,24.96,45.15,1.9256,373.0162],
    [10206,1532804034,56.8388,-111.1995,724.2,276.2,358.1,3.3,1.5,23.85,45.78,1.9245,373.0162],
    [10207,1532804035,56.8394,-111.1995,727.4,279.4,356.9,3.4,1.1,23.66,46.02,1.9182,373.6925],
    [10208,1532804036,56.84,-111.1995,729.5,281.2,356.2,3.6,0.8,23.8,44.85,1.9168,372.6295],
    [10209,1532804037,56.8405,-111.1995,731.2,282.2,355.9,3.9,0.9,24.23,44.18,1.9184,372.6013],
    [10210,1532804038,56.8411,-111.1995,732.7,283.7,354.7,5.1,1.0,24.17,43.78,1.9197,372.7658],
    [10211,1532804039,56.8417,-111.1995,733.3,284.0,355.3,4.6,0.3,24.07,43.14,1.922,374.6572],
    [10212,1532804040,56.8422,-111.1995,732.2,282.2,356.4,3.9,-0.4,23.93,43.06,1.9235,372.6609],
    [10213,1532804041,56.8428,-111.1995,730.0,280.0,356.5,4.0,0.2,24.22,43.55,1.9244,373.6974],
    [10214,1532804042,56.8434,-111.1995,727.6,277.6,357.3,3.4,0.9,24.54,43.0,1.9258,372.8624],
    [10215,1532804043,56.844,-111.1995,725.5,275.5,358.0,2.8,1.1,23.96,43.47,1.9265,373.2776],
    [10216,1532804044,56.8445,-111.1995,724.4,274.4,358.8,1.8,1.0,23.78,44.05,1.9276,373.2352],
    [10217,1532804045,56.8451,-111.1995,725.2,275.2,358.4,2.0,1.1,23.65,44.48,1.9279,372.4369],
    [10218,1532804046,56.8457,-111.1995,727.7,277.7,356.7,3.3,0.3,24.15,45.04,1.9279,373.1645],
    [10219,1532804047,56.8463,-111.1995,730.9,280.9,356.0,3.4,0.0,24.77,44.91,1.929,373.2477],
    [10220,1532804048,56.8469,-111.1995,734.4,284.4,355.0,4.5,-2.1,24.42,45.17,1.9273,373.2477],
    [10221,1532804049,56.8474,-111.1996,736.0,286.4,354.0,5.2,-2.1,24.24,45.72,1.9264,371.8029],
    [10222,1532804050,56.848,-111.1996,736.5,287.5,355.2,3.7,-1.1,24.51,45.32,1.9276,372.5606],
    [10223,1532804051,56.8486,-111.1996,738.2,289.2,356.2,2.4,-0.5,24.15,45.42,1.9266,372.9051],
    [10224,1532804052,56.8492,-111.1997,740.2,291.2,355.8,2.6,0.2,23.97,45.34,1.9263,372.5856],
    [10225,1532804053,56.8498,-111.1997,740.4,291.4,354.7,3.7,-0.9,24.18,45.46,1.9243,372.1596],
    [10226,1532804054,56.8504,-111.1997,739.8,290.8,353.7,4.7,-1.6,23.6,45.49,1.9243,373.4441],
    [10227,1532804055,56.851,-111.1998,738.9,290.9,354.4,4.0,-1.1,24.77,45.12,1.9258,373.1964],
    [10228,1532804056,56.8516,-111.1998,737.7,289.7,354.7,4.0,-1.4,24.75,44.87,1.9266,372.9466],
    [10229,1532804057,56.8522,-111.1999,737.2,289.2,354.6,4.3,-1.5,24.14,45.46,1.9242,372.9497],
    [10230,1532804058,56.8528,-111.1999,737.6,289.6,354.9,4.2,-1.9,24.44,44.09,1.9233,373.0534],
    [10231,1532804059,56.8533,-111.1999,737.6,289.6,354.5,4.8,-0.8,23.81,44.42,1.9206,374.5963],
    [10232,1532804060,56.8539,-111.1999,736.7,288.7,354.9,4.5,-0.8,23.88,44.25,1.9222,375.0987],
    [10233,1532804061,56.8545,-111.2,734.7,286.7,356.0,3.6,-0.3,23.95,43.83,1.9224,374.6738],
    [10234,1532804062,56.8551,-111.2,732.3,284.3,356.5,3.4,0.4,24.54,43.41,1.9223,373.7499],
    [10235,1532804063,56.8557,-111.2,730.9,282.9,356.8,2.9,1.5,24.4,43.32,1.9251,372.8938],
    [10236,1532804064,56.8563,-111.2,730.1,282.1,356.6,3.2,0.9,24.52,43.53,1.9239,373.6351],
    [10237,1532804065,56.8569,-111.2,728.9,281.4,356.3,3.6,0.5,24.14,44.83,1.9231,374.3909],
    [10238,1532804066,56.8575,-111.2,727.5,280.5,356.7,3.5,0.3,24.09,44.55,1.9241,374.4973],
    [10239,1532804067,56.8581,-111.2,726.1,279.1,356.6,4.1,0.1,23.9,43.96,1.9237,373.1094],
    [10240,1532804068,56.8587,-111.2,725.2,278.2,356.6,4.0,0.5,24.54,43.17,1.9258,374.5064],
    [10241,1532804069,56.8593,-111.2,726.0,279.0,358.2,1.8,1.1,24.63,43.42,1.9285,374.043],
    [10242,1532804070,56.8599,-111.2,727.2,281.1,357.7,2.6,0.9,24.59,43.79,1.931,373.2306],
    [10243,1532804071,56.8605,-111.2,729.0,283.0,355.6,4.5,1.5,23.97,45.06,1.9245,372.6233],
    [10244,1532804072,56.8612,-111.2001,731.4,285.4,356.4,2.7,1.5,24.0,44.71,1.9249,373.6674],
    [10245,1532804073,56.8618,-111.2001,732.5,286.5,357.3,1.8,2.1,24.39,44.39,1.9244,374.2328],
    [10246,1532804074,56.8624,-111.2001,732.6,286.6,355.9,3.8,2.5,24.54,44.57,1.9216,373.3299],
    [10247,1532804075,56.863,-111.2001,732.9,286.9,354.4,5.2,3.0,24.05,44.52,1.9246,373.0146],
    [10248,1532804076,56.8636,-111.2001,732.4,286.4,356.5,2.9,2.9,24.01,44.42,1.9275,373.0146],
    [10249,1532804077,56.8642,-111.2002,731.8,285.8,356.3,3.1,3.1,24.1,43.96,1.9304,372.358],
    [10250,1532804078,56.8648,-111.2002,731.0,285.0,355.8,3.1,3.1,24.81,43.98,1.9311,373.3736],
    [10251,1532804079,56.8655,-111.2002,730.1,284.1,355.8,3.0,3.9,24.14,45.06,1.932,373.8741],
    [10252,1532804080,56.8661,-111.2002,729.4,283.4,355.2,3.4,4.9,24.56,45.29,1.932,373.1786],
    [10253,1532804081,56.8667,-111.2003,728.9,282.9,355.6,3.2,5.1,24.11,46.48,1.931,372.4382],
    [10254,1532804082,56.8673,-111.2003,728.6,282.6,355.7,3.4,4.7,23.95,46.76,1.9312,372.214],
    [10255,1532804083,56.8679,-111.2003,728.3,282.3,356.9,2.5,4.9,23.49,46.85,1.9308,372.0943],
    [10256,1532804084,56.8685,-111.2003,728.3,282.2,356.9,2.9,4.8,23.87,46.93,1.9313,372.4987],
    [10257,1532804085,56.8691,-111.2003,728.3,283.3,356.4,3.5,4.4,23.71,46.94,1.9315,372.4987],
    [10258,1532804086,56.8698,-111.2003,727.5,282.5,357.2,2.8,4.5,24.12,47.46,1.9312,373.1075],
    [10259,1532804087,56.8704,-111.2003,726.3,281.3,357.1,3.1,5.3,24.11,47.37,1.9296,371.4421],
    [10260,1532804088,56.871,-111.2003,725.2,280.2,356.6,3.7,5.3,24.1,47.61,1.9304,372.5992],
    [10261,1532804089,56.8716,-111.2003,724.7,279.7,357.2,3.1,5.1,24.14,47.75,1.9319,373.2774],
    [10262,1532804090,56.8722,-111.2003,725.1,280.1,357.4,3.0,4.2,24.11,47.16,1.9313,372.849],
    [10263,1532804091,56.8728,-111.2003,726.0,281.0,357.5,3.2,2.7,24.09,48.42,1.9315,373.009],
    [10264,1532804092,56.8735,-111.2003,727.3,282.3,356.8,3.8,3.0,24.23,47.34,1.9326,372.4504],
    [10265,1532804093,56.8741,-111.2003,728.0,283.0,357.0,3.7,3.3,24.21,47.39,1.932,373.2415],
    [10266,1532804094,56.8747,-111.2003,728.0,283.0,357.4,3.7,2.7,24.11,47.51,1.9312,373.344],
    [10267,1532804095,56.8753,-111.2003,728.1,284.1,357.6,3.6,3.0,23.94,47.49,1.9317,373.4487],
    [10268,1532804096,56.8759,-111.2003,728.2,284.9,357.9,3.2,2.9,24.07,47.29,1.9322,374.0512],
    [10269,1532804097,56.8765,-111.2003,728.1,285.1,358.0,3.3,3.1,23.68,47.14,1.9322,372.8799],
    [10270,1532804098,56.8771,-111.2003,727.8,285.8,358.3,3.2,2.9,24.08,47.16,1.9325,373.1076],
    [10271,1532804099,56.8777,-111.2002,727.6,285.8,358.5,3.1,2.6,24.18,47.07,1.9333,372.9437],
    [10272,1532804100,56.8783,-111.2002,728.2,287.2,358.9,2.4,2.2,24.83,46.71,1.9313,372.8357],
    [10273,1532804101,56.8789,-111.2002,729.8,289.8,359.2,2.0,2.8,24.1,47.18,1.9324,371.9931],
    [10274,1532804102,56.8795,-111.2002,731.3,292.3,358.8,2.3,2.6,24.43,46.84,1.9326,371.9931],
    [10275,1532804103,56.8801,-111.2002,732.0,293.9,357.9,2.9,2.9,24.28,47.0,1.9319,372.7568],
    [10276,1532804104,56.8807,-111.2002,732.3,295.5,357.5,2.7,3.4,23.79,47.56,1.9332,373.239],
    [10277,1532804105,56.8813,-111.2002,732.5,295.6,357.2,2.8,2.7,23.62,47.65,1.9336,373.5017],
    [10278,1532804106,56.8819,-111.2002,731.6,294.6,357.0,2.9,1.5,24.02,48.46,1.9335,373.0056],
    [10279,1532804107,56.8825,-111.2002,730.5,294.5,357.5,2.5,1.4,23.91,47.96,1.9332,373.0056],
    [10280,1532804108,56.8831,-111.2002,729.5,294.5,357.3,2.9,2.0,24.02,48.28,1.932,371.7937],
    [10281,1532804109,56.8837,-111.2002,729.0,296.0,357.0,3.3,1.3,24.02,48.64,1.9325,372.2206],
    [10282,1532804110,56.8843,-111.2002,728.5,299.0,356.7,3.7,1.0,23.99,47.98,1.9312,372.2206],
    [10283,1532804111,56.8849,-111.2002,727.2,302.4,356.9,3.6,2.0,23.99,48.26,1.9315,372.4355],
    [10284,1532804112,56.8855,-111.2002,725.9,304.5,357.5,3.2,1.8,24.84,47.19,1.9273,374.8111],
    [10285,1532804113,56.8861,-111.2002,725.2,307.8,358.0,2.9,3.2,23.93,47.14,1.9247,373.2521],
    [10286,1532804114,56.8868,-111.2002,724.6,309.5,358.7,2.3,3.1,24.11,47.06,1.9252,372.2944],
    [10287,1532804115,56.8874,-111.2002,724.5,311.7,358.8,2.3,3.1,23.7,46.84,1.9241,373.7459],
    [10288,1532804116,56.888,-111.2001,724.3,313.7,358.5,2.5,4.0,24.86,45.5,1.9234,372.6301],
    [10289,1532804117,56.8886,-111.2001,723.3,315.5,357.8,3.3,4.3,23.88,46.49,1.9272,373.2948],
    [10290,1532804118,56.8892,-111.2001,722.3,321.3,357.2,3.7,4.7,23.92,45.24,1.9289,373.3601],
    [10291,1532804119,56.8898,-111.2001,721.0,324.3,357.7,3.3,3.9,23.39,45.28,1.929,373.3057],
    [10292,1532804120,56.8904,-111.2001,719.7,327.4,357.5,3.3,4.0,24.0,45.1,1.9298,373.2462],
    [10293,1532804121,56.891,-111.2001,718.7,330.7,357.5,3.1,4.2,24.1,45.6,1.9335,374.3788],
    [10294,1532804122,56.8916,-111.2001,718.5,335.0,356.8,3.7,3.7,24.27,45.39,1.9344,373.2395],
    [10295,1532804123,56.8922,-111.2001,718.5,339.2,356.4,4.1,4.2,24.27,45.87,1.9355,374.1118],
    [10296,1532804124,56.8928,-111.2001,718.4,344.0,356.6,3.9,4.2,23.5,46.61,1.9341,374.0982],
    [10297,1532804125,56.8934,-111.2001,718.0,351.0,356.9,3.4,4.8,23.31,47.18,1.9298,372.8168],
    [10298,1532804126,56.894,-111.2001,718.4,355.5,357.4,2.4,3.8,24.08,47.4,1.9319,372.863],
    [10299,1532804127,56.8946,-111.2001,718.7,357.4,358.1,2.0,3.6,24.88,46.48,1.9316,373.0259],
    [10300,1532804128,56.8952,-111.2001,718.5,357.8,356.4,3.7,2.3,23.98,47.41,1.9345,371.7823],
    [10301,1532804129,56.8958,-111.2001,718.4,358.8,358.1,1.7,2.9,24.18,46.97,1.9337,372.4654],
    [10302,1532804130,56.8964,-111.2001,718.4,360.1,357.8,2.5,3.9,24.37,47.24,1.9331,373.1918],
    [10303,1532804131,56.897,-111.2001,719.2,357.8,356.3,3.9,2.8,24.63,47.42,1.9349,373.9225],
    [10304,1532804132,56.8976,-111.2001,720.0,354.1,357.9,2.4,3.7,24.13,47.8,1.9353,372.5808],
    [10305,1532804133,56.8982,-111.2001,721.0,347.0,358.4,2.5,2.6,24.09,48.07,1.9344,373.704],
    [10306,1532804134,56.8988,-111.2001,722.0,338.7,358.9,2.1,1.3,23.37,48.34,1.9356,373.3778],
    [10307,1532804135,56.8994,-111.2001,722.6,330.2,358.8,2.3,0.6,23.86,48.31,1.9362,372.2687],
    [10308,1532804136,56.9,-111.2001,723.2,322.0,357.7,3.2,0.8,23.86,48.18,1.9371,371.5969],
    [10309,1532804137,56.9006,-111.2001,723.7,317.3,357.5,2.9,1.5,24.49,48.02,1.9365,371.6847],
    [10310,1532804138,56.9012,-111.2001,723.9,312.2,356.7,3.4,1.4,24.31,48.16,1.9362,372.1637],
    [10311,1532804139,56.9018,-111.2001,724.0,307.6,355.6,3.7,1.5,23.95,48.87,1.9347,373.5587],
    [10312,1532804140,56.9024,-111.2001,724.0,304.9,355.4,3.5,0.9,24.33,48.38,1.93,373.3711],
    [10313,1532804141,56.903,-111.2001,723.8,305.8,354.5,4.2,1.2,23.89,48.22,1.9323,372.7528],
    [10314,1532804142,56.9036,-111.2002,723.7,308.5,354.2,4.6,-2.0,24.03,48.32,1.9335,373.4602],
    [10315,1532804143,56.9042,-111.2002,723.6,312.4,354.1,4.5,-2.3,23.81,48.67,1.9349,373.4396],
    [10316,1532804144,56.9048,-111.2002,723.2,309.8,354.1,4.2,-2.1,24.07,47.79,1.9344,372.8163],
    [10317,1532804145,56.9053,-111.2003,722.4,305.4,354.5,3.8,-1.6,23.88,48.26,1.9335,371.6294],
    [10318,1532804146,56.9059,-111.2003,721.2,296.9,355.2,3.5,-1.0,23.64,48.43,1.9316,373.4343],
    [10319,1532804147,56.9065,-111.2004,720.4,290.7,355.2,4.0,-0.2,23.65,49.01,1.9304,373.5521],
    [10320,1532804148,56.9071,-111.2004,719.0,287.0,355.9,3.6,-1.4,24.48,47.79,1.9355,372.2403],
    [10321,1532804149,56.9077,-111.2004,717.5,283.8,356.5,3.2,-0.5,23.91,48.27,1.934,371.3869],
    [10322,1532804150,56.9083,-111.2004,717.6,283.6,356.9,2.2,0.9,24.28,47.69,1.9343,371.7476],
    [10323,1532804151,56.9089,-111.2004,717.3,283.3,357.6,1.1,1.0,23.58,48.46,1.936,371.8153],
    [10324,1532804152,56.9095,-111.2005,717.5,284.5,356.4,2.0,2.1,23.88,48.84,1.935,371.8153],
    [10325,1532804153,56.9101,-111.2005,717.9,285.6,355.8,2.5,3.1,24.0,49.48,1.9345,371.9893],
    [10326,1532804154,56.9107,-111.2005,717.5,285.5,356.2,2.3,4.0,23.88,49.1,1.9334,371.9015],
    [10327,1532804155,56.9113,-111.2006,717.6,285.6,357.0,2.0,5.0,24.28,48.75,1.9343,372.1159],
    [10328,1532804156,56.912,-111.2006,719.2,287.3,357.5,2.4,4.7,24.12,48.89,1.9351,372.1159],
    [10329,1532804157,56.9126,-111.2006,720.3,288.6,358.7,2.1,3.1,24.48,48.67,1.9338,373.1336],
    [10330,1532804158,56.9132,-111.2006,720.3,287.7,358.7,2.4,4.1,23.92,49.19,1.9325,373.4189],
    [10331,1532804159,56.9138,-111.2006,720.2,290.9,357.4,3.5,4.0,24.12,48.78,1.9322,373.1719],
    [10332,1532804160,56.9144,-111.2006,720.6,294.8,356.8,3.6,3.9,24.58,47.97,1.9325,373.5064],
    [10333,1532804161,56.915,-111.2006,720.7,304.4,356.7,3.5,3.7,23.74,48.87,1.9343,372.8794],
    [10334,1532804162,56.9156,-111.2006,720.6,297.3,355.8,3.9,4.4,23.72,48.64,1.9338,372.5921],
    [10335,1532804163,56.9162,-111.2006,720.5,287.5,355.6,3.9,4.2,23.87,49.11,1.9348,372.6756],
    [10336,1532804164,56.9168,-111.2006,720.2,280.8,355.4,3.7,4.0,24.01,48.96,1.9354,372.6756],
    [10337,1532804165,56.9175,-111.2006,720.3,277.9,355.6,3.4,4.3,23.46,49.0,1.9353,373.2011],
    [10338,1532804166,56.9181,-111.2007,721.4,277.4,355.1,3.8,2.6,24.0,49.0,1.9352,372.724],
    [10339,1532804167,56.9187,-111.2007,722.4,277.7,356.3,2.8,3.0,23.67,49.02,1.9358,372.724],
    [10340,1532804168,56.9193,-111.2007,723.0,278.0,355.5,3.7,3.2,23.95,49.12,1.9348,373.0503],
    [10341,1532804169,56.9199,-111.2007,723.3,278.3,354.7,4.3,2.4,23.21,49.06,1.9335,373.0503],
    [10342,1532804170,56.9205,-111.2008,723.2,278.2,354.5,4.4,1.5,23.59,49.01,1.9329,374.325],
    [10343,1532804171,56.9211,-111.2008,724.9,280.0,353.2,5.7,1.2,23.96,48.44,1.9314,373.2156],
    [10344,1532804172,56.9217,-111.2008,728.6,282.7,353.7,5.5,0.5,24.15,48.16,1.9321,373.673],
    [10345,1532804173,56.9223,-111.2009,732.5,287.2,356.6,2.4,0.0,23.77,48.4,1.9333,374.4072],
    [10346,1532804174,56.923,-111.2009,736.2,291.2,359.0,0.6,-0.8,23.2,48.15,1.9345,373.0364],
    [10347,1532804175,56.9236,-111.2009,739.6,294.5,357.7,2.0,-0.6,23.94,47.47,1.9358,374.2428],
    [10348,1532804176,56.9241,-111.2009,741.8,297.8,357.8,2.0,-0.5,23.77,47.83,1.9361,372.8908],
    [10349,1532804177,56.9248,-111.2009,742.0,298.0,356.6,3.2,0.0,24.17,47.86,1.9383,372.7419],
    [10350,1532804178,56.9254,-111.2009,741.2,297.9,357.5,2.3,0.6,24.3,47.81,1.9376,373.9301],
    [10351,1532804179,56.926,-111.2009,740.7,296.7,357.3,2.7,-0.3,23.63,49.32,1.935,372.0208],
    [10352,1532804180,56.9266,-111.2009,740.6,296.6,355.9,4.0,0.6,23.31,49.11,1.9357,372.7736],
    [10353,1532804181,56.9272,-111.201,741.0,297.0,355.7,4.3,0.5,23.74,49.29,1.9353,372.7736],
    [10354,1532804182,56.9278,-111.201,741.9,297.9,355.5,4.8,-0.2,24.46,48.59,1.9358,371.9196],
    [10355,1532804183,56.9284,-111.201,742.5,298.5,356.7,3.6,-1.7,23.9,48.78,1.9364,372.0074],
    [10356,1532804184,56.929,-111.201,742.3,298.3,358.5,2.1,-2.4,23.98,48.91,1.9363,372.3113],
    [10357,1532804185,56.9296,-111.201,740.5,295.5,357.7,3.3,-2.0,24.45,48.96,1.9356,372.6492],
    [10358,1532804186,56.9302,-111.201,738.4,293.4,357.0,4.0,-0.8,24.11,49.24,1.9352,372.5103],
    [10359,1532804187,56.9308,-111.2009,735.7,289.7,357.7,3.3,1.3,23.67,49.41,1.9351,372.6586],
    [10360,1532804188,56.9314,-111.2009,732.7,285.7,358.1,2.9,1.2,23.97,49.21,1.9352,371.2377],
    [10361,1532804189,56.932,-111.2009,729.2,282.2,358.5,2.7,2.2,24.3,48.72,1.9351,371.6241],
    [10362,1532804190,56.9327,-111.2009,725.6,278.6,357.7,3.8,2.6,23.82,48.98,1.9347,372.8739],
    [10363,1532804191,56.9333,-111.2009,722.6,275.6,358.3,3.4,3.4,23.86,49.83,1.9355,370.1256],
    [10364,1532804192,56.9339,-111.2009,720.0,272.6,358.8,3.3,3.3,23.71,49.5,1.9344,373.0233],
    [10365,1532804193,56.9346,-111.2008,717.7,269.7,358.8,3.5,4.4,23.79,49.06,1.9335,373.8091],
    [10366,1532804194,56.9352,-111.2008,715.7,268.8,359.4,3.1,4.2,23.78,48.65,1.9345,372.9801],
    [10367,1532804195,56.9358,-111.2007,713.6,266.6,358.5,4.1,4.3,24.46,48.35,1.9364,373.2163],
    [10368,1532804196,56.9364,-111.2007,712.0,265.0,359.2,3.4,4.0,23.31,48.74,1.9354,373.2163],
    [10369,1532804197,56.9371,-111.2007,710.9,262.9,359.7,3.1,3.1,23.38,48.67,1.9327,373.2603],
    [10370,1532804198,56.9377,-111.2006,711.0,262.4,359.8,3.3,2.7,23.89,48.35,1.9343,373.5569],
    [10371,1532804199,56.9383,-111.2006,711.5,262.5,359.7,3.9,2.7,23.32,48.94,1.9355,372.651],
    [10372,1532804200,56.939,-111.2005,712.0,263.0,359.9,3.9,3.1,23.7,48.85,1.9371,372.6478],
    [10373,1532804201,56.9396,-111.2004,713.2,263.2,361.5,2.6,3.8,24.28,48.29,1.9369,372.0262],
    [10374,1532804202,56.9402,-111.2004,714.3,264.3,362.0,2.6,2.7,23.74,49.29,1.9355,372.568],
    [10375,1532804203,56.9409,-111.2003,715.3,265.3,362.2,2.8,3.7,23.88,48.97,1.9349,373.1768],
    [10376,1532804204,56.9415,-111.2002,716.1,266.1,362.1,3.0,4.1,24.11,48.66,1.9356,372.9713],
    [10377,1532804205,56.9421,-111.2001,717.7,267.7,361.2,4.0,3.4,23.2,49.1,1.9357,372.9984],
    [10378,1532804206,56.9427,-111.2,720.3,269.3,361.3,3.2,3.2,24.01,49.06,1.9355,372.9984],
    [10379,1532804207,56.9434,-111.1999,723.1,272.1,361.4,2.2,3.3,23.37,49.23,1.9369,372.4528],
    [10380,1532804208,56.944,-111.1999,726.3,275.9,359.8,2.6,2.9,23.78,49.06,1.9373,372.8776],
    [10381,1532804209,56.9446,-111.1999,728.9,278.9,358.3,3.1,2.6,23.94,48.85,1.9384,372.3862],
    [10382,1532804210,56.9452,-111.1999,731.4,281.4,357.4,3.2,2.4,23.88,49.12,1.9392,372.0943],
    [10383,1532804211,56.9459,-111.1999,733.4,283.4,357.2,2.9,1.6,24.47,49.15,1.9388,373.0418],
    [10384,1532804212,56.9465,-111.1999,734.1,284.1,357.7,2.0,1.5,23.51,49.74,1.9395,370.6983],
    [10385,1532804213,56.9471,-111.1999,733.6,283.6,356.7,3.2,1.7,24.44,49.49,1.9405,372.0519],
    [10386,1532804214,56.9477,-111.1999,734.1,284.9,357.1,2.8,1.0,23.74,50.56,1.9398,372.5203],
    [10387,1532804215,56.9484,-111.1999,734.1,285.1,357.4,3.1,1.9,23.84,50.2,1.9394,372.0967],
    [10388,1532804216,56.949,-111.1999,733.4,284.4,357.2,3.6,1.7,23.96,50.05,1.9378,372.5637],
    [10389,1532804217,56.9496,-111.1999,732.3,283.3,358.3,2.7,2.2,23.78,50.28,1.9398,372.439],
    [10390,1532804218,56.9502,-111.1999,730.9,281.9,358.6,2.6,3.0,23.92,50.07,1.9363,372.439],
    [10391,1532804219,56.9508,-111.1999,729.5,281.5,358.0,3.1,2.8,24.34,49.71,1.9359,373.3734],
    [10392,1532804220,56.9515,-111.1998,728.4,280.4,358.0,2.8,2.6,24.2,49.93,1.9346,372.803],
    [10393,1532804221,56.9521,-111.1998,728.1,280.1,358.9,1.7,1.8,24.05,49.45,1.9331,372.8398],
    [10394,1532804222,56.9527,-111.1998,728.2,280.2,358.2,2.7,2.0,23.56,49.21,1.9322,372.8398],
    [10395,1532804223,56.9533,-111.1998,729.6,282.2,356.6,4.2,2.1,23.66,49.23,1.9375,371.2785],
    [10396,1532804224,56.954,-111.1998,730.2,283.2,358.6,2.2,2.2,24.2,48.71,1.9399,371.365],
    [10397,1532804225,56.9546,-111.1998,729.9,282.9,358.3,3.2,1.9,23.89,48.84,1.9418,371.7199],
    [10398,1532804226,56.9552,-111.1998,730.4,283.4,357.9,3.2,3.3,23.75,49.51,1.9387,371.9025],
    [10399,1532804227,56.9558,-111.1998,730.2,283.4,359.4,1.6,3.6,24.13,49.83,1.9393,373.2348],
    [10400,1532804228,56.9564,-111.1998,729.1,283.1,357.6,3.3,4.0,23.61,50.19,1.9404,373.2348],
    [10401,1532804229,56.9571,-111.1998,728.0,282.0,357.8,2.6,4.7,23.74,50.85,1.9382,373.6319],
    [10402,1532804230,56.9577,-111.1998,727.0,281.0,357.7,2.5,3.8,23.7,50.42,1.9374,372.5236],
    [10403,1532804231,56.9583,-111.1998,726.5,280.5,356.7,3.3,4.4,23.39,50.02,1.9378,373.6914],
    [10404,1532804232,56.9589,-111.1998,727.2,281.2,356.4,3.3,3.9,23.77,50.0,1.9388,373.6914],
    [10405,1532804233,56.9596,-111.1998,729.0,282.3,356.9,2.1,4.4,23.46,50.74,1.9379,371.9725],
    [10406,1532804234,56.9602,-111.1998,730.6,283.6,357.3,1.5,3.6,23.03,50.16,1.9389,371.765],
    [10407,1532804235,56.9608,-111.1998,732.0,285.0,355.4,3.4,4.0,23.42,50.32,1.9399,371.3512],
    [10408,1532804236,56.9614,-111.1999,732.9,285.9,355.3,3.1,4.1,23.25,50.34,1.9394,372.9363],
    [10409,1532804237,56.962,-111.1999,733.8,286.8,356.2,2.4,2.3,24.12,50.11,1.9363,373.2889],
    [10410,1532804238,56.9627,-111.1999,734.7,287.7,355.8,2.5,2.9,23.52,50.47,1.9323,373.2889],
    [10411,1532804239,56.9633,-111.2,734.9,287.9,356.6,1.8,2.9,23.61,50.39,1.9324,372.5771],
    [10412,1532804240,56.9639,-111.2,734.9,287.9,355.6,3.2,2.3,23.46,49.34,1.9346,373.0176],
    [10413,1532804241,56.9645,-111.2001,734.9,287.9,355.4,3.5,2.5,22.89,48.86,1.9348,373.6913],
    [10414,1532804242,56.9651,-111.2001,734.3,287.3,356.3,3.0,2.7,23.45,48.53,1.9386,373.8256],
    [10415,1532804243,56.9658,-111.2001,733.7,286.7,356.5,3.4,3.9,23.61,48.63,1.94,373.1635],
    [10416,1532804244,56.9664,-111.2001,734.2,287.9,357.3,3.7,2.2,24.22,48.42,1.9394,373.2917],
    [10417,1532804245,56.967,-111.2001,735.9,289.9,357.9,4.1,0.9,23.38,49.36,1.9387,373.937],
    [10418,1532804246,56.9676,-111.2,739.6,293.6,358.4,4.3,1.2,23.08,49.56,1.9407,373.937],
    [10419,1532804247,56.9682,-111.2,743.3,297.3,359.4,3.5,-0.4,24.21,49.48,1.9415,373.976],
    [10420,1532804248,56.9689,-111.2,746.5,300.5,359.2,3.7,-0.6,24.38,49.52,1.9394,373.7037],
    [10421,1532804249,56.9695,-111.1999,748.8,302.8,359.4,3.0,-1.1,23.08,50.46,1.9396,372.0945],
    [10422,1532804250,56.9701,-111.1999,749.1,303.1,361.0,1.2,-1.1,24.46,49.95,1.9397,373.0222],
    [10423,1532804251,56.9707,-111.1998,748.5,302.5,361.0,1.1,-1.0,24.04,50.25,1.9404,373.64],
    [10424,1532804252,56.9713,-111.1998,748.6,302.6,359.5,2.3,-1.6,23.69,50.53,1.9378,373.64],
    [10425,1532804253,56.9719,-111.1998,749.7,303.7,359.1,2.4,-2.3,23.85,50.3,1.9397,373.9228],
    [10426,1532804254,56.9725,-111.1998,749.9,303.9,359.9,1.3,-1.5,24.21,49.74,1.9405,373.3325],
    [10427,1532804255,56.9731,-111.1997,749.6,303.6,358.7,2.1,-1.1,23.62,50.18,1.9411,373.2988],
    [10428,1532804256,56.9737,-111.1997,748.7,302.7,358.2,1.8,0.2,23.54,50.7,1.9412,372.818],
    [10429,1532804257,56.9743,-111.1998,747.4,301.4,357.5,2.3,1.4,24.2,49.77,1.9417,372.2274],
    [10430,1532804258,56.9749,-111.1998,746.3,300.9,357.1,2.4,1.4,23.94,49.73,1.9419,373.0006],
    [10431,1532804259,56.9756,-111.1998,745.4,300.4,358.2,1.4,1.9,24.05,50.09,1.942,371.0735],
    [10432,1532804260,56.9762,-111.1998,744.8,300.8,356.8,3.3,2.6,23.35,50.47,1.941,372.8616],
    [10433,1532804261,56.9768,-111.1998,744.9,300.9,356.6,3.7,2.1,23.65,50.32,1.9419,372.8616],
    [10434,1532804262,56.9774,-111.1998,745.0,302.0,357.3,3.4,2.3,23.11,50.71,1.941,372.7667],
    [10435,1532804263,56.9781,-111.1998,744.0,302.0,357.0,3.9,2.9,23.67,50.91,1.9425,372.8527],
    [10436,1532804264,56.9787,-111.1998,742.4,302.4,357.6,3.4,2.0,24.02,50.21,1.9408,371.6693],
    [10437,1532804265,56.9793,-111.1998,740.9,301.6,357.1,3.9,2.4,23.54,50.59,1.9406,372.2426],
    [10438,1532804266,56.9799,-111.1998,739.8,301.1,355.6,5.3,3.2,23.73,50.73,1.9397,373.3832],
    [10439,1532804267,56.9805,-111.1998,738.9,300.9,356.6,4.2,1.8,23.49,50.41,1.9403,373.0287],
    [10440,1532804268,56.9812,-111.1998,739.0,301.0,356.9,4.4,2.0,23.37,50.57,1.9404,371.9657],
    [10441,1532804269,56.9818,-111.1997,739.3,301.3,356.5,4.9,1.9,24.06,49.69,1.9403,373.9089],
    [10442,1532804270,56.9824,-111.1997,739.0,301.0,359.4,1.9,2.2,23.68,50.7,1.9393,372.9695],
    [10443,1532804271,56.983,-111.1997,738.2,300.2,359.8,1.8,2.6,23.62,50.88,1.9355,373.402],
    [10444,1532804272,56.9837,-111.1997,737.8,298.8,359.9,1.6,2.3,23.77,49.68,1.9387,372.9821],
    [10445,1532804273,56.9843,-111.1997,737.5,298.5,360.5,0.9,1.4,24.28,49.19,1.9404,372.9596],
    [10446,1532804274,56.9849,-111.1996,737.6,298.6,359.5,2.1,1.7,23.87,48.85,1.9383,374.2836],
    [10447,1532804275,56.9855,-111.1996,737.8,298.8,359.5,1.7,2.4,23.57,49.17,1.9407,374.2836],
    [10448,1532804276,56.9862,-111.1996,738.1,300.1,359.0,2.7,2.6,23.19,49.11,1.9413,373.8656],
    [10449,1532804277,56.9868,-111.1996,739.1,301.1,358.0,3.7,2.8,23.04,49.04,1.9406,374.456],
    [10450,1532804278,56.9874,-111.1995,740.3,302.3,359.0,2.6,1.9,23.36,49.41,1.9421,374.0032],
    [10451,1532804279,56.988,-111.1995,740.8,303.8,358.4,3.0,1.2,23.59,49.48,1.9441,374.0812],
    [10452,1532804280,56.9886,-111.1995,742.6,305.6,357.4,3.2,1.7,24.03,49.19,1.9437,373.2399],
    [10453,1532804281,56.9893,-111.1995,743.4,306.4,357.8,2.4,2.1,23.6,49.85,1.943,372.9732],
    [10454,1532804282,56.9899,-111.1995,743.9,306.9,356.6,3.7,2.1,23.94,49.65,1.9434,372.7854],
    [10455,1532804283,56.9905,-111.1995,743.4,306.4,357.8,2.4,1.3,24.19,49.52,1.9442,372.8559],
    [10456,1532804284,56.9911,-111.1995,742.1,305.1,358.9,1.5,2.4,23.61,50.99,1.9423,373.1024],
    [10457,1532804285,56.9917,-111.1995,740.3,302.3,357.4,3.2,2.9,23.63,51.29,1.9405,373.65],
    [10458,1532804286,56.9924,-111.1995,738.0,300.0,356.2,4.0,3.8,23.76,50.55,1.9397,373.8991],
    [10459,1532804287,56.993,-111.1995,736.0,298.0,357.3,2.7,3.9,23.63,50.44,1.9435,373.6289],
    [10460,1532804288,56.9936,-111.1995,734.1,296.1,357.6,2.7,4.1,23.96,49.71,1.9471,373.4726],
    [10461,1532804289,56.9942,-111.1995,731.8,293.8,357.4,3.2,3.4,23.63,50.02,1.9483,372.7222],
    [10462,1532804290,56.9949,-111.1995,729.4,291.5,358.0,2.9,2.9,23.72,50.46,1.9471,372.3592],
    [10463,1532804291,56.9955,-111.1995,727.7,289.8,358.0,3.5,2.1,23.68,50.44,1.9488,372.3592],
    [10464,1532804292,56.9961,-111.1995,726.2,288.1,358.3,3.6,1.3,23.24,50.52,1.9533,374.8262],
    [10465,1532804293,56.9968,-111.1995,724.8,287.7,359.6,2.3,0.5,23.47,50.48,1.9537,372.577],
    [10466,1532804294,56.9974,-111.1994,723.4,286.2,361.1,1.2,2.7,23.88,49.83,1.953,372.249],
    [10467,1532804295,56.998,-111.1994,721.5,283.3,359.6,3.1,2.7,23.42,50.26,1.9533,373.461],
    [10468,1532804296,56.9986,-111.1993,720.4,282.2,360.0,2.6,2.5,24.11,49.87,1.9552,373.1629],
    [10469,1532804297,56.9993,-111.1993,719.7,281.0,360.8,1.9,2.5,23.63,50.5,1.9596,373.0408],
    [10470,1532804298,56.9999,-111.1993,720.0,281.2,359.8,2.5,2.4,24.02,50.19,1.9564,373.035],
    [10471,1532804299,57.0005,-111.1992,721.6,282.6,359.0,2.5,2.0,23.62,50.39,1.9583,374.4078],
    [10472,1532804300,57.0011,-111.1992,723.8,284.8,359.4,1.3,2.6,23.76,50.18,1.961,373.46],
    [10473,1532804301,57.0018,-111.1992,725.2,286.1,358.3,2.4,2.8,24.17,49.53,1.9601,373.6312],
    [10474,1532804302,57.0024,-111.1992,725.8,286.7,357.0,3.2,3.5,24.2,49.82,1.9519,372.8743],
    [10475,1532804303,57.0031,-111.1992,725.8,286.8,357.3,2.4,3.3,23.9,49.96,1.9471,372.8743],
    [10476,1532804304,57.0037,-111.1992,725.1,286.1,358.2,1.7,2.7,23.74,49.4,1.9453,371.818],
    [10477,1532804305,57.0043,-111.1992,725.1,286.1,357.5,2.0,2.9,24.32,48.53,1.9485,371.818],
    [10478,1532804306,57.0049,-111.1992,725.7,286.7,358.4,0.9,2.8,23.41,49.37,1.9456,373.6142],
    [10479,1532804307,57.0056,-111.1993,725.5,286.5,356.9,2.6,3.9,23.42,48.96,1.941,373.5363],
    [10480,1532804308,57.0062,-111.1993,725.3,286.3,354.6,4.5,4.3,23.51,48.99,1.9397,373.9633],
    [10481,1532804309,57.0068,-111.1993,724.9,285.9,355.3,3.7,4.7,23.81,48.54,1.9399,374.2761],
    [10482,1532804310,57.0074,-111.1993,724.1,285.1,355.2,4.0,4.4,24.38,47.8,1.9512,373.5679],
    [10483,1532804311,57.0081,-111.1994,722.9,283.9,355.2,3.6,3.5,23.77,48.21,1.966,373.9778],
    [10484,1532804312,57.0087,-111.1994,723.0,284.0,356.6,2.6,4.0,23.69,48.03,1.9698,373.46],
    [10485,1532804313,57.0093,-111.1994,723.9,284.9,357.4,2.1,4.0,23.52,47.76,1.9675,373.016],
    [10486,1532804314,57.0099,-111.1994,725.3,286.3,358.3,1.7,4.1,24.11,47.62,1.9664,372.9996],
    [10487,1532804315,57.0106,-111.1994,727.1,288.1,356.9,3.5,4.2,23.67,48.25,1.975,374.2657],
    [10488,1532804316,57.0112,-111.1994,728.7,289.7,358.2,1.9,5.3,23.89,47.99,1.9726,374.2657],
    [10489,1532804317,57.0118,-111.1994,729.0,290.0,358.2,2.0,4.4,23.05,48.42,1.9769,374.6464],
    [10490,1532804318,57.0124,-111.1994,730.1,291.1,357.8,2.4,4.2,23.98,48.53,1.9771,374.6464],
    [10491,1532804319,57.0131,-111.1994,730.5,291.5,358.8,1.2,4.1,23.51,48.98,1.9805,372.4969],
    [10492,1532804320,57.0137,-111.1994,730.3,291.3,357.6,2.3,3.8,23.86,49.58,1.9821,374.1682],
    [10493,1532804321,57.0143,-111.1994,729.8,290.8,357.0,2.1,3.9,23.83,50.39,1.9796,375.0582],
    [10494,1532804322,57.0149,-111.1995,730.0,291.0,357.3,1.7,3.0,23.29,50.04,1.9743,373.9233],
    [10495,1532804323,57.0156,-111.1995,731.0,292.0,355.6,3.1,2.7,23.31,50.11,1.9757,374.8313],
    [10496,1532804324,57.0162,-111.1995,731.8,292.8,355.6,2.7,2.9,24.1,49.57,1.9764,373.9541],
    [10497,1532804325,57.0168,-111.1996,730.9,291.9,355.3,2.9,1.6,23.07,49.91,1.9736,373.6837],
    [10498,1532804326,57.0174,-111.1996,729.5,290.5,355.4,2.8,2.7,23.67,50.03,1.9729,373.4575],
    [10499,1532804327,57.018,-111.1997,728.1,289.1,356.1,2.4,4.4,24.2,49.53,1.9736,374.9891],
    [10500,1532804328,57.0187,-111.1997,727.6,288.6,356.1,2.9,2.7,24.06,49.83,1.9791,373.4219],
    [10501,1532804329,57.0193,-111.1997,727.4,288.4,357.2,2.1,2.8,23.21,50.1,1.9831,373.405],
    [10502,1532804330,57.0199,-111.1997,727.5,288.5,357.8,1.7,2.7,24.31,49.44,1.9712,373.711],
    [10503,1532804331,57.0205,-111.1997,727.7,288.7,357.5,2.3,2.0,24.26,49.82,1.965,374.1523],
    [10504,1532804332,57.0212,-111.1998,728.0,289.0,356.7,3.0,2.7,23.66,49.9,1.9634,373.0633],
    [10505,1532804333,57.0218,-111.1998,728.3,289.3,356.4,3.1,2.4,23.5,49.58,1.9657,373.8061],
    [10506,1532804334,57.0224,-111.1998,728.7,288.9,356.6,2.5,2.1,23.56,49.38,1.9704,374.0172],
    [10507,1532804335,57.023,-111.1998,729.1,289.1,356.4,2.8,1.8,24.26,48.39,1.9719,372.6273],
    [10508,1532804336,57.0236,-111.1998,729.5,289.5,355.5,3.6,2.9,23.78,48.96,1.9722,372.9121],
    [10509,1532804337,57.0242,-111.1999,729.6,289.6,355.7,3.2,2.3,23.66,49.45,1.9721,375.8238],
    [10510,1532804338,57.0248,-111.1999,729.6,289.6,356.1,2.8,2.5,23.6,50.05,1.9697,374.1491],
    [10511,1532804339,57.0255,-111.1999,729.0,289.0,355.1,3.8,2.6,23.7,50.71,1.9643,374.3216],
    [10512,1532804340,57.0261,-111.1999,728.4,287.9,355.5,3.2,3.3,24.28,49.69,1.964,374.4197],
    [10513,1532804341,57.0267,-111.2,727.0,286.0,356.9,2.2,2.9,23.53,49.83,1.9717,373.7233],
    [10514,1532804342,57.0273,-111.2,725.5,284.5,357.0,2.6,3.8,23.38,49.29,1.9665,373.6205],
    [10515,1532804343,57.0279,-111.2,724.0,283.0,357.3,2.8,4.0,23.84,49.13,1.9657,374.368],
    [10516,1532804344,57.0285,-111.2,722.6,281.6,357.9,2.5,4.9,23.79,49.03,1.9668,374.3717],
    [10517,1532804345,57.0291,-111.2,721.2,280.2,358.8,1.7,4.6,23.54,48.39,1.9607,374.6806],
    [10518,1532804346,57.0298,-111.2,720.1,278.1,358.6,2.5,5.0,23.75,47.87,1.9614,374.6806],
    [10519,1532804347,57.0304,-111.2,719.7,277.7,357.4,3.7,6.0,23.85,47.76,1.9683,374.363],
    [10520,1532804348,57.031,-111.2,719.4,277.4,359.0,1.9,5.2,24.23,47.24,1.9683,374.5478],
    [10521,1532804349,57.0316,-111.1999,719.6,277.6,358.6,2.2,7.1,23.37,48.36,1.9664,373.8544],
    [10522,1532804350,57.0323,-111.1999,719.7,276.7,357.0,3.1,7.9,23.92,49.05,1.9655,374.3867],
    [10523,1532804351,57.0329,-111.1999,718.7,275.7,358.1,2.0,6.3,23.72,50.18,1.9652,373.9926],
    [10524,1532804352,57.0336,-111.1999,717.4,274.4,356.8,3.0,8.6,23.15,50.02,1.9653,373.2753],
    [10525,1532804353,57.0342,-111.2,716.6,273.6,357.4,2.0,8.6,23.9,49.66,1.9675,374.3409],
    [10526,1532804354,57.0348,-111.2,715.7,272.7,357.4,2.0,8.4,23.47,49.79,1.9628,375.0154],
    [10527,1532804355,57.0354,-111.2,715.2,272.3,357.4,1.9,8.3,23.94,49.51,1.9632,375.4777],
    [10528,1532804356,57.036,-111.2,714.5,270.5,357.8,1.5,8.3,23.74,50.3,1.9634,374.2428],
    [10529,1532804357,57.0367,-111.2,714.2,270.2,358.0,1.3,7.8,23.94,49.46,1.9652,374.6826],
    [10530,1532804358,57.0373,-111.2,714.6,270.6,357.8,1.7,7.3,23.72,50.13,1.9687,374.5697],
    [10531,1532804359,57.0379,-111.2,716.2,272.2,357.3,2.1,6.8,24.35,49.65,1.9709,374.5634],
    [10532,1532804360,57.0385,-111.2001,718.5,274.5,357.7,1.2,5.2,23.81,50.32,1.9718,374.8042],
    [10533,1532804361,57.0391,-111.2001,719.4,275.4,357.9,0.8,4.7,23.62,50.88,1.9714,374.4915],
    [10534,1532804362,57.0397,-111.2001,719.5,275.5,356.5,2.1,4.8,23.16,50.93,1.9726,375.8224],
    [10535,1532804363,57.0403,-111.2001,719.6,275.6,355.8,2.6,5.0,24.4,49.77,1.9724,374.6262],
    [10536,1532804364,57.041,-111.2002,720.1,276.5,355.3,3.4,3.7,24.17,49.42,1.9772,374.2949],
    [10537,1532804365,57.0416,-111.2002,720.6,277.3,355.2,3.4,3.8,24.18,49.31,1.9623,373.7793],
    [10538,1532804366,57.0422,-111.2002,721.3,277.3,355.7,2.8,4.3,23.77,49.72,1.9673,374.932],
    [10539,1532804367,57.0428,-111.2003,722.6,278.6,355.5,3.0,4.8,24.0,48.35,1.9803,374.932],
    [10540,1532804368,57.0434,-111.2003,724.3,280.3,355.8,2.6,4.9,23.78,49.06,1.9902,374.491],
    [10541,1532804369,57.044,-111.2003,726.1,282.1,355.4,3.0,5.2,23.54,48.31,1.9931,374.2631],
    [10542,1532804370,57.0446,-111.2004,729.0,285.0,354.6,3.1,4.8,23.71,49.83,1.9912,375.2308],
    [10543,1532804371,57.0451,-111.2004,732.1,287.4,354.9,2.8,4.3,23.88,49.87,1.9877,375.4784],
    [10544,1532804372,57.0457,-111.2005,735.4,290.4,354.1,3.2,4.7,23.1,50.7,1.9856,375.009],
    [10545,1532804373,57.0463,-111.2005,738.1,293.1,354.7,2.4,2.4,24.01,50.71,1.987,374.7433],
    [10546,1532804374,57.0469,-111.2006,739.6,294.6,354.7,1.9,1.8,23.01,51.04,1.991,374.022],
    [10547,1532804375,57.0475,-111.2006,741.2,296.2,353.9,2.2,1.8,23.63,51.48,1.9922,373.6039],
    [10548,1532804376,57.048,-111.2007,741.2,295.2,353.3,3.1,1.9,23.26,51.21,1.9908,374.8132],
    [10549,1532804377,57.0486,-111.2008,740.5,294.6,353.2,3.7,2.4,24.31,50.76,1.9938,374.2519],
    [10550,1532804378,57.0492,-111.2008,738.8,291.1,355.2,2.5,1.5,23.61,51.85,1.9945,374.4476],
    [10551,1532804379,57.0498,-111.2009,735.8,287.5,355.6,2.5,1.9,23.5,51.6,1.9983,374.8428],
    [10552,1532804380,57.0503,-111.2009,732.8,283.5,355.4,2.6,2.4,22.97,51.72,1.9959,375.6758],
    [10553,1532804381,57.0509,-111.2009,731.5,280.8,354.8,2.9,3.4,23.4,51.47,1.994,373.6949],
    [10554,1532804382,57.0515,-111.201,731.2,279.2,353.5,3.3,3.8,23.12,51.71,1.9892,373.6998],
    [10555,1532804383,57.0521,-111.2011,731.2,278.2,354.1,1.9,3.3,24.17,51.41,1.9913,373.9695],
    [10556,1532804384,57.0527,-111.2012,730.8,276.8,352.4,1.9,3.6,23.67,51.03,1.9979,373.7978],
    [10557,1532804385,57.0533,-111.2013,730.1,275.0,348.6,2.5,2.5,23.36,51.28,1.9945,374.6355],
    [10558,1532804386,57.0539,-111.2015,729.5,274.5,343.5,2.8,3.0,23.55,51.83,1.99,374.8692],
    [10559,1532804387,57.0544,-111.2018,729.7,274.7,338.1,2.7,3.1,23.57,51.24,2.0001,374.0545],
    [10560,1532804388,57.055,-111.2022,730.5,275.5,332.9,3.2,2.2,22.93,51.69,1.9918,373.8527],
    [10561,1532804389,57.0555,-111.2026,732.2,278.8,327.1,4.1,2.3,23.65,51.31,1.9807,374.6504],
    [10562,1532804390,57.0559,-111.2032,734.2,283.3,323.1,4.1,1.2,23.58,51.34,1.9658,375.6103],
    [10563,1532804391,57.0564,-111.2038,735.9,286.9,320.1,3.8,0.7,24.05,50.39,1.9758,374.5318],
    [10564,1532804392,57.0568,-111.2044,737.3,289.3,315.6,4.8,1.2,23.63,49.86,1.9789,374.3343],
    [10565,1532804393,57.0572,-111.2051,738.1,290.1,311.8,5.0,1.4,23.14,49.0,1.9881,375.0992],
    [10566,1532804394,57.0576,-111.2058,738.0,290.6,309.2,5.1,0.9,23.57,49.13,1.9933,374.4735],
    [10567,1532804395,57.058,-111.2065,737.6,290.6,304.8,5.3,2.3,23.37,49.26,1.9991,375.1967],
    [10568,1532804396,57.0583,-111.2073,737.8,290.6,301.9,4.2,2.5,22.98,49.92,1.999,375.2008],
    [10569,1532804397,57.0586,-111.2082,737.4,289.4,300.6,3.4,2.0,23.54,50.33,1.9988,375.3852],
    [10570,1532804398,57.0589,-111.209,736.2,288.3,297.4,4.0,2.3,22.99,51.01,1.9954,375.6623],
    [10571,1532804399,57.0592,-111.2099,734.7,287.7,294.3,4.2,2.4,23.4,51.07,1.9952,374.1796],
    [10572,1532804400,57.0594,-111.2108,733.4,286.4,289.9,4.1,3.3,23.95,50.79,1.9988,375.0096],
    [10573,1532804401,57.0596,-111.2117,732.2,286.1,287.3,4.0,2.6,23.47,51.98,1.9901,374.5353],
    [10574,1532804402,57.0598,-111.2127,732.0,287.0,283.7,2.9,3.4,23.9,50.92,1.9855,374.8853],
    [10575,1532804403,57.06,-111.2136,732.4,288.4,280.6,2.3,3.8,23.41,51.62,1.9902,374.7356],
    [10576,1532804404,57.0601,-111.2146,733.3,289.3,278.4,1.4,3.8,23.67,50.73,1.9916,374.616],
    [10577,1532804405,57.0602,-111.2156,734.2,291.2,276.0,3.1,3.7,23.8,50.22,1.9907,375.6796],
    [10578,1532804406,57.0603,-111.2166,735.1,292.0,274.0,4.8,3.5,23.76,50.59,1.9849,374.7099],
    [10579,1532804407,57.0603,-111.2175,736.6,293.6,271.3,4.8,3.9,23.51,50.57,1.9626,374.4507],
    [10580,1532804408,57.0604,-111.2185,737.6,294.6,270.0,4.4,3.0,23.63,50.0,1.9666,375.0899],
    [10581,1532804409,57.0604,-111.2195,737.6,294.6,268.8,4.3,2.4,23.06,49.48,1.9955,375.1631],
    [10582,1532804410,57.0604,-111.2205,738.0,296.0,265.7,5.0,3.8,23.05,49.83,1.9927,374.8034],
    [10583,1532804411,57.0604,-111.2215,737.3,296.4,265.0,5.9,3.4,23.12,49.55,1.98,375.4298],
    [10584,1532804412,57.0603,-111.2224,735.5,294.8,264.9,6.4,3.1,23.39,49.9,1.9776,374.1538],
    [10585,1532804413,57.0603,-111.2234,733.9,294.9,263.3,6.1,4.6,24.12,49.93,1.9807,375.3163],
    [10586,1532804414,57.0603,-111.2244,732.3,294.0,264.4,7.3,4.0,23.15,49.74,1.9743,373.6775],
    [10587,1532804415,57.0603,-111.2254,730.9,294.0,265.3,6.4,3.5,23.6,49.52,1.9641,375.3192],
    [10588,1532804416,57.0602,-111.2264,729.9,293.8,265.4,6.4,3.3,23.77,48.78,1.9641,375.8364],
    [10589,1532804417,57.0602,-111.2274,729.1,295.0,265.3,6.0,3.1,24.18,47.91,1.9704,374.8149],
    [10590,1532804418,57.0602,-111.2284,728.3,297.0,264.9,6.7,3.3,23.11,48.53,1.9719,375.9794],
    [10591,1532804419,57.0602,-111.2294,727.3,298.8,264.3,6.9,4.2,24.21,48.1,1.9703,375.9836],
    [10592,1532804420,57.0602,-111.2304,726.4,302.4,263.8,6.2,4.5,23.77,48.96,1.9634,376.3996],
    [10593,1532804421,57.0601,-111.2313,725.0,304.0,265.0,5.4,3.1,23.06,48.83,1.9735,376.4804],
    [10594,1532804422,57.0601,-111.2323,724.4,306.4,265.0,5.5,3.2,23.44,49.04,1.9757,376.6965],
    [10595,1532804423,57.0601,-111.2333,725.3,308.3,265.0,5.7,3.5,23.62,49.19,1.9804,376.6965],
    [10596,1532804424,57.0601,-111.2343,726.7,311.4,265.9,6.5,3.3,24.03,48.91,1.9807,375.7969],
    [10597,1532804425,57.0601,-111.2353,727.7,313.7,267.3,6.6,2.6,23.75,49.81,1.9841,375.0938],
    [10598,1532804426,57.0601,-111.2363,728.3,315.3,267.6,5.8,3.0,23.55,49.96,1.989,374.8512],
    [10599,1532804427,57.0601,-111.2373,728.0,317.0,267.9,6.0,2.8,23.76,50.59,1.9931,375.6489],
    [10600,1532804428,57.0601,-111.2383,726.9,316.6,267.4,5.5,3.0,23.33,50.73,1.9961,374.8714],
    [10601,1532804429,57.0601,-111.2393,725.6,315.5,267.6,5.1,2.2,23.77,51.09,1.9989,375.515],
    [10602,1532804430,57.0601,-111.2403,724.6,315.6,267.8,5.1,1.6,23.86,51.12,1.9986,375.1733],
    [10603,1532804431,57.06,-111.2413,722.5,314.2,266.6,4.4,2.7,23.36,51.61,1.9981,375.1805],
    [10604,1532804432,57.06,-111.2423,719.9,312.1,264.0,3.3,5.3,24.33,51.32,2.0016,375.9706],
    [10605,1532804433,57.06,-111.2433,717.6,310.6,264.0,3.7,5.2,23.67,52.49,2.0035,375.4919],
    [10606,1532804434,57.06,-111.2444,714.2,308.2,266.5,4.0,2.6,23.31,52.02,2.0039,375.593],
    [10607,1532804435,57.06,-111.2454,711.0,306.0,267.6,5.5,2.0,23.95,51.7,1.9947,375.593],
    [10608,1532804436,57.06,-111.2464,708.7,304.8,266.2,4.9,3.8,24.28,51.35,1.9836,376.1038],
    [10609,1532804437,57.06,-111.2474,707.7,304.7,266.4,5.1,3.5,23.09,51.76,1.973,376.1038],
    [10610,1532804438,57.06,-111.2485,706.3,304.3,266.3,5.6,3.7,24.3,51.01,1.9654,373.9187],
    [10611,1532804439,57.06,-111.2495,704.7,303.2,266.0,5.4,3.5,24.0,50.61,1.9533,375.6729],
    [10612,1532804440,57.0599,-111.2505,702.9,302.0,265.0,5.4,4.2,23.33,49.68,1.9454,374.3666],
    [10613,1532804441,57.0599,-111.2516,701.6,300.7,263.9,4.2,4.5,23.51,49.12,1.9514,374.9447],
    [10614,1532804442,57.0599,-111.2526,699.6,299.4,265.8,3.7,2.0,24.63,48.09,1.9548,374.8432],
    [10615,1532804443,57.0599,-111.2537,697.8,297.9,265.6,3.4,2.6,24.1,47.88,1.955,374.7146],
    [10616,1532804444,57.0599,-111.2547,696.6,296.7,264.7,2.8,3.7,24.4,47.68,1.9543,376.3015],
    [10617,1532804445,57.0598,-111.2557,695.4,296.3,266.0,2.8,2.5,24.01,48.74,1.9547,375.2395],
    [10618,1532804446,57.0598,-111.2568,693.8,294.8,266.2,2.9,2.7,24.57,48.61,1.956,375.0078],
    [10619,1532804447,57.0598,-111.2578,692.0,293.0,267.0,3.3,1.9,23.78,49.33,1.957,375.0078],
    [10620,1532804448,57.0598,-111.2588,690.2,292.2,267.5,3.8,1.8,23.06,49.98,1.9593,376.0774],
    [10621,1532804449,57.0598,-111.2599,688.8,290.8,267.2,5.0,2.5,23.88,50.09,1.9637,375.7716],
    [10622,1532804450,57.0598,-111.2609,686.9,289.0,268.0,4.9,2.2,23.78,50.31,1.964,376.0645],
    [10623,1532804451,57.0598,-111.2619,685.0,288.0,267.6,4.2,3.4,23.75,50.6,1.968,375.1928],
    [10624,1532804452,57.0598,-111.263,683.2,286.2,268.6,3.7,2.7,23.76,51.46,1.9594,374.8477],
    [10625,1532804453,57.0598,-111.2641,682.5,286.5,268.5,2.0,3.1,23.62,50.75,1.9655,374.35],
    [10626,1532804454,57.0598,-111.2651,681.9,285.9,268.3,1.5,3.2,23.97,51.03,1.9658,374.7791],
    [10627,1532804455,57.0598,-111.2662,681.1,286.1,269.1,1.0,2.6,23.92,50.38,1.9648,374.7791],
    [10628,1532804456,57.0598,-111.2672,679.0,284.0,267.5,0.8,4.0,23.76,50.9,1.9638,374.4705],
    [10629,1532804457,57.0598,-111.2683,676.9,281.9,267.7,2.4,3.4,24.27,51.14,1.9643,374.8681],
    [10630,1532804458,57.0599,-111.2694,674.9,280.9,268.7,0.9,1.9,23.89,51.12,1.9619,376.3521],
    [10631,1532804459,57.0599,-111.2705,673.9,280.9,267.9,0.7,2.7,23.95,51.08,1.9618,374.1906],
    [10632,1532804460,57.0599,-111.2715,672.9,280.9,268.4,1.0,1.9,24.54,50.4,1.9611,375.026],
    [10633,1532804461,57.0599,-111.2726,672.8,281.8,268.7,1.8,1.8,23.91,51.32,1.9664,374.491],
    [10634,1532804462,57.0599,-111.2737,672.6,282.6,266.8,2.6,3.5,24.64,50.9,1.9656,374.606],
    [10635,1532804463,57.0599,-111.2747,671.7,282.7,267.4,2.0,2.5,23.45,51.85,1.9638,374.6959],
    [10636,1532804464,57.0598,-111.2758,670.1,281.1,267.3,0.8,2.8,24.18,51.57,1.9648,374.6778],
    [10637,1532804465,57.0598,-111.2769,668.7,280.7,266.7,1.9,3.3,23.77,52.02,1.9667,374.0022],
    [10638,1532804466,57.0598,-111.2779,668.2,280.2,267.0,1.2,2.8,24.01,52.94,1.9664,375.1469],
    [10639,1532804467,57.0598,-111.279,667.5,280.5,265.7,-0.1,3.7,23.71,52.59,1.9652,374.1925],
    [10640,1532804468,57.0598,-111.28,666.5,279.5,265.6,1.6,3.4,23.98,52.31,1.9598,374.3162],
    [10641,1532804469,57.0598,-111.2811,664.8,278.8,266.0,1.6,2.9,23.6,51.99,1.9562,375.5044],
    [10642,1532804470,57.0598,-111.2822,663.1,277.1,265.6,1.2,3.3,24.05,51.71,1.9551,375.5044],
    [10643,1532804471,57.0598,-111.2833,661.4,275.4,265.6,1.2,3.4,24.09,51.15,1.9624,374.838],
    [10644,1532804472,57.0598,-111.2843,659.4,274.2,266.6,1.5,3.0,24.35,50.03,1.963,373.4287],
    [10645,1532804473,57.0598,-111.2854,657.6,272.6,266.4,2.2,3.5,24.06,50.81,1.9612,375.179],
    [10646,1532804474,57.0597,-111.2865,656.6,271.6,267.8,1.2,1.9,23.75,50.89,1.9609,375.179],
    [10647,1532804475,57.0597,-111.2876,655.8,271.8,269.0,1.6,1.0,24.18,51.23,1.961,375.134],
    [10648,1532804476,57.0597,-111.2887,654.8,271.8,268.6,1.6,2.0,24.54,50.46,1.9614,375.1722],
    [10649,1532804477,57.0597,-111.2897,654.3,272.3,269.5,1.0,1.3,24.42,50.57,1.9517,375.2302],
    [10650,1532804478,57.0598,-111.2908,653.7,272.7,269.4,0.7,1.8,24.35,50.38,1.9491,375.9973],
    [10651,1532804479,57.0598,-111.2919,653.7,273.7,267.9,1.0,3.3,23.77,50.08,1.9509,375.9973],
    [10652,1532804480,57.0598,-111.293,655.0,276.0,268.9,2.2,2.0,23.91,49.93,1.9539,375.3572],
    [10653,1532804481,57.0598,-111.2941,656.6,278.6,269.8,2.5,1.5,24.03,50.08,1.9496,375.7042],
    [10654,1532804482,57.0598,-111.2951,657.6,281.0,269.0,2.9,2.3,24.16,50.54,1.9509,374.568],
    [10655,1532804483,57.0598,-111.2962,657.5,282.5,270.0,2.8,1.3,23.76,50.22,1.9537,374.7678],
    [10656,1532804484,57.0598,-111.2973,658.2,284.2,268.7,2.3,2.6,23.84,50.11,1.9522,374.8238],
    [10657,1532804485,57.0598,-111.2984,660.7,287.5,269.3,2.0,1.9,24.79,49.59,1.9515,375.2308],
    [10658,1532804486,57.0598,-111.2994,663.2,291.9,270.2,2.2,1.0,24.12,50.4,1.9496,376.2356],
    [10659,1532804487,57.0598,-111.3005,665.0,294.0,270.9,2.0,0.7,24.13,50.79,1.9483,375.5635],
    [10660,1532804488,57.0599,-111.3016,667.1,297.0,269.7,1.2,1.9,24.15,49.83,1.9503,375.1991],
    [10661,1532804489,57.0599,-111.3027,667.5,298.5,269.1,1.2,2.1,23.54,49.89,1.9509,375.4814],
    [10662,1532804490,57.0599,-111.3037,667.5,298.5,267.9,0.5,3.0,24.1,49.68,1.9509,376.0305],
    [10663,1532804491,57.0599,-111.3048,666.8,297.7,266.9,0.0,3.1,24.08,49.87,1.9511,375.9464],
    [10664,1532804492,57.0599,-111.3059,665.6,297.7,267.8,0.5,1.9,23.46,49.9,1.9524,374.9459],
    [10665,1532804493,57.0599,-111.307,665.3,299.3,266.3,0.1,3.1,23.45,49.93,1.9498,375.0196],
    [10666,1532804494,57.0599,-111.308,665.2,299.2,266.0,0.4,2.5,24.31,49.84,1.9501,375.7472],
    [10667,1532804495,57.0598,-111.3092,665.4,300.7,265.8,0.4,2.3,24.04,50.08,1.9524,375.3729],
    [10668,1532804496,57.0598,-111.3103,665.7,301.7,265.6,0.9,2.1,23.83,50.62,1.9533,377.2898],
    [10669,1532804497,57.0598,-111.3113,665.8,302.8,265.3,1.1,2.6,23.96,50.25,1.9526,375.3459],
    [10670,1532804498,57.0598,-111.3124,665.2,302.2,263.3,1.3,4.5,24.07,50.48,1.9535,376.1872],
    [10671,1532804499,57.0597,-111.3135,663.2,300.6,265.8,3.4,2.4,24.56,50.42,1.9574,377.3086],
    [10672,1532804500,57.0597,-111.3145,660.8,297.8,267.2,3.2,2.6,24.68,50.23,1.9556,377.8445],
    [10673,1532804501,57.0597,-111.3156,658.4,296.4,267.2,3.4,3.7,24.07,50.21,1.9537,376.752],
    [10674,1532804502,57.0597,-111.3166,656.3,294.3,268.8,2.8,3.1,24.17,50.74,1.955,375.5557],
    [10675,1532804503,57.0597,-111.3177,654.4,292.4,268.7,2.4,3.8,24.28,50.19,1.9553,375.4736],
    [10676,1532804504,57.0598,-111.3188,652.5,290.5,269.6,4.1,3.1,24.03,50.43,1.9531,375.7312],
    [10677,1532804505,57.0598,-111.3198,651.0,289.0,269.8,3.1,2.5,23.96,50.43,1.9527,374.2531],
    [10678,1532804506,57.0598,-111.3208,650.4,288.4,268.6,3.8,3.2,24.29,50.49,1.9534,375.661],
    [10679,1532804507,57.0598,-111.3219,650.7,288.9,265.9,3.7,5.1,24.24,50.04,1.9477,375.4423],
    [10680,1532804508,57.0598,-111.323,650.1,289.1,266.7,3.1,3.3,24.69,49.27,1.9456,375.0555],
    [10681,1532804509,57.0598,-111.324,648.2,288.2,267.6,2.9,2.3,24.22,49.32,1.9507,375.5522],
    [10682,1532804510,57.0598,-111.3251,646.3,286.3,265.8,0.6,3.8,23.68,49.09,1.952,375.5469],
    [10683,1532804511,57.0598,-111.3262,644.3,285.3,266.6,0.9,2.6,24.38,48.82,1.9542,376.7464],
    [10684,1532804512,57.0598,-111.3272,642.1,284.1,267.4,1.3,2.1,24.73,48.59,1.9583,377.9752],
    [10685,1532804513,57.0598,-111.3282,639.9,282.2,267.0,0.7,2.4,24.39,49.62,1.9577,377.637],
    [10686,1532804514,57.0598,-111.3293,638.2,281.2,266.5,-0.5,2.7,24.37,49.57,1.9552,376.0007],
    [10687,1532804515,57.0597,-111.3303,637.0,281.0,265.8,0.0,3.4,24.46,49.48,1.9536,376.7595],
    [10688,1532804516,57.0597,-111.3314,635.8,280.8,265.7,-0.6,3.4,24.53,50.16,1.9591,376.1345],
    [10689,1532804517,57.0597,-111.3324,634.0,279.0,266.2,-0.2,3.0,24.62,49.75,1.9666,378.2113],
    [10690,1532804518,57.0597,-111.3335,631.8,277.8,266.2,-0.7,3.0,23.75,49.91,1.9656,379.4715],
    [10691,1532804519,57.0597,-111.3345,629.2,275.2,266.6,-1.5,2.8,24.89,49.49,1.9655,379.1255],
    [10692,1532804520,57.0597,-111.3356,626.3,272.3,266.6,-2.0,2.8,24.09,49.98,1.9618,379.5107],
    [10693,1532804521,57.0597,-111.3366,623.1,269.1,266.8,-2.2,2.5,25.01,49.54,1.9717,383.2648],
    [10694,1532804522,57.0597,-111.3377,619.6,265.6,266.9,-2.9,2.2,24.56,49.55,1.9717,379.5374],
    [10695,1532804523,57.0597,-111.3388,616.4,262.4,267.0,-3.8,1.7,24.4,49.71,1.9696,377.7044],
    [10696,1532804524,57.0597,-111.3399,613.9,259.9,265.6,-4.7,2.5,24.21,49.82,1.9631,376.5812],
    [10697,1532804525,57.0596,-111.341,612.3,258.3,265.2,-5.0,2.1,24.33,50.0,1.9616,375.4301],
    [10698,1532804526,57.0596,-111.3421,611.1,257.1,265.9,-5.2,1.5,24.78,49.85,1.9642,374.475],
    [10699,1532804527,57.0596,-111.3431,609.6,255.6,265.4,-5.8,2.1,24.53,50.95,1.9627,375.3814],
    [10700,1532804528,57.0595,-111.3442,609.0,256.0,265.1,-5.0,2.8,25.14,49.9,1.9626,375.0202],
    [10701,1532804529,57.0595,-111.3453,610.3,257.3,266.1,-4.9,2.7,24.57,51.37,1.9627,374.6065],
    [10702,1532804530,57.0595,-111.3463,613.2,260.2,267.2,-3.4,3.1,24.3,50.72,1.961,374.6065],
    [10703,1532804531,57.0595,-111.3474,616.5,264.5,268.5,-3.0,3.2,24.17,50.9,1.9642,375.3343],
    [10704,1532804532,57.0596,-111.3484,619.7,267.7,269.9,-2.9,3.8,24.62,50.92,1.9649,375.4898],
    [10705,1532804533,57.0596,-111.3494,622.0,270.0,270.1,-2.1,4.9,24.44,51.46,1.9671,376.1981],
    [10706,1532804534,57.0596,-111.3505,623.4,272.4,271.2,-0.6,4.4,23.91,51.34,1.9653,376.1193],
    [10707,1532804535,57.0597,-111.3515,623.5,272.5,271.7,0.2,4.1,24.48,51.55,1.9649,376.7201],
    [10708,1532804536,57.0598,-111.3525,624.5,273.8,271.9,-0.4,4.2,25.12,50.56,1.9648,375.9396],
    [10709,1532804537,57.0598,-111.3535,626.2,276.2,270.7,-0.3,5.1,24.29,52.05,1.9645,376.2507],
    [10710,1532804538,57.0599,-111.3545,627.4,277.4,271.0,-0.2,4.5,25.17,50.82,1.9646,374.7969],
    [10711,1532804539,57.0599,-111.3554,627.5,278.5,271.5,-0.1,4.1,24.21,51.38,1.9662,375.4734],
    [10712,1532804540,57.06,-111.3564,626.9,277.9,271.8,-0.7,3.6,24.51,51.33,1.9678,375.4734],
    [10713,1532804541,57.06,-111.3574,626.6,277.6,272.3,-1.3,3.1,24.3,51.63,1.967,375.6698],
    [10714,1532804542,57.0601,-111.3584,627.1,279.1,271.2,0.5,3.7,25.05,51.09,1.9664,374.964],
    [10715,1532804543,57.0601,-111.3594,628.2,280.2,270.3,1.1,3.7,24.66,51.53,1.9669,375.2999],
    [10716,1532804544,57.0601,-111.3603,629.5,281.5,269.7,1.5,3.2,23.72,52.09,1.9672,375.0304],
    [10717,1532804545,57.0601,-111.3613,630.2,283.2,268.9,1.0,2.9,24.76,51.64,1.9677,375.4613],
    [10718,1532804546,57.0602,-111.3622,629.9,282.9,268.2,0.6,2.6,25.19,51.58,1.9663,375.4841],
    [10719,1532804547,57.0602,-111.3632,629.3,282.3,267.4,0.3,2.7,24.81,51.45,1.9658,375.6387],
    [10720,1532804548,57.0602,-111.3641,629.2,282.5,266.3,0.6,3.2,25.09,51.35,1.9643,377.1557],
    [10721,1532804549,57.0601,-111.3651,629.4,283.4,266.1,0.2,2.8,24.07,51.55,1.9646,376.1496],
    [10722,1532804550,57.0601,-111.366,629.6,283.6,265.8,0.9,2.6,24.9,51.1,1.9651,375.9049],
    [10723,1532804551,57.0601,-111.367,629.0,283.0,265.9,1.6,1.9,24.28,51.87,1.9666,376.5384],
    [10724,1532804552,57.0601,-111.3679,628.0,283.0,266.2,1.2,1.4,24.45,51.71,1.9646,375.6585],
    [10725,1532804553,57.0601,-111.3688,628.5,283.5,264.4,1.8,3.0,24.82,50.88,1.9708,376.6918],
    [10726,1532804554,57.06,-111.3698,629.2,284.5,264.2,1.5,2.8,24.2,51.15,1.9781,382.8],
    [10727,1532804555,57.06,-111.3707,628.9,284.9,265.7,1.4,1.6,24.22,50.92,1.973,381.9783],
    [10728,1532804556,57.06,-111.3716,627.8,283.8,265.3,1.1,2.2,24.37,50.56,1.971,379.7861],
    [10729,1532804557,57.06,-111.3726,626.9,283.9,265.4,3.1,2.5,24.27,50.36,1.9759,378.6667],
    [10730,1532804558,57.06,-111.3735,626.0,283.0,266.3,3.6,2.3,25.22,49.55,1.9832,385.5694],
    [10731,1532804559,57.0599,-111.3745,625.6,281.6,266.3,2.4,2.7,24.59,50.11,1.9868,384.9526],
    [10732,1532804560,57.0599,-111.3754,625.1,281.1,266.0,3.1,3.4,25.2,49.58,1.9881,387.2185],
    [10733,1532804561,57.0599,-111.3764,624.3,280.3,266.3,3.6,3.6,24.82,50.32,1.9911,384.1097],
    [10734,1532804562,57.0599,-111.3773,623.4,279.4,266.0,3.6,3.8,24.39,50.68,1.991,383.2282],
    [10735,1532804563,57.0599,-111.3782,622.7,278.7,266.9,5.2,2.4,24.94,50.77,1.9929,383.2282],
    [10736,1532804564,57.0599,-111.3792,621.7,277.7,266.2,5.3,2.6,24.58,51.12,1.9867,377.9248],
    [10737,1532804565,57.0599,-111.3801,621.2,278.2,264.6,3.9,3.5,24.13,51.59,1.9841,377.5919],
    [10738,1532804566,57.0599,-111.381,621.7,278.7,264.3,5.2,3.4,24.0,51.46,1.9855,379.1804],
    [10739,1532804567,57.0598,-111.3819,623.3,280.3,263.8,6.1,3.1,23.85,51.71,1.9857,377.5939],
    [10740,1532804568,57.0598,-111.3829,624.7,282.0,262.7,4.6,3.0,24.55,51.49,1.9854,375.8723],
    [10741,1532804569,57.0598,-111.3838,625.8,283.8,261.0,3.9,3.1,24.49,51.95,1.9873,378.5929],
    [10742,1532804570,57.0597,-111.3847,626.2,284.2,259.5,3.8,3.1,24.49,51.91,1.9896,378.8545],
    [10743,1532804571,57.0596,-111.3856,625.4,283.4,257.4,4.4,4.2,24.51,51.97,1.989,383.6972],
    [10744,1532804572,57.0595,-111.3865,623.6,281.9,256.7,5.1,3.9,24.11,51.98,1.9878,383.6972],
    [10745,1532804573,57.0594,-111.3875,622.9,281.7,255.6,5.3,3.9,24.18,51.45,1.9896,387.6669],
    [10746,1532804574,57.0593,-111.3884,622.8,281.8,254.5,4.6,3.7,23.87,51.23,1.9861,376.0517],
    [10747,1532804575,57.0592,-111.3893,623.3,282.3,253.6,4.7,4.1,24.73,51.15,1.9876,375.9296],
    [10748,1532804576,57.0591,-111.3902,623.8,282.8,252.5,3.3,4.6,24.24,50.99,1.9896,375.9296],
    [10749,1532804577,57.0589,-111.3911,624.4,283.4,251.7,3.0,5.0,24.55,51.36,1.9894,376.0517],
    [10750,1532804578,57.0588,-111.392,625.6,284.6,251.5,2.8,4.9,25.13,50.71,1.9912,383.0904],
    [10751,1532804579,57.0587,-111.3929,627.2,286.2,251.8,3.4,4.5,24.93,51.06,1.9946,386.2547],
    [10752,1532804580,57.0585,-111.3938,626.8,285.8,252.4,3.1,3.5,24.49,51.9,1.9978,386.2547],
    [10753,1532804581,57.0584,-111.3948,625.4,284.4,251.5,2.5,3.6,24.6,51.72,1.9936,381.2879],
    [10754,1532804582,57.0583,-111.3957,624.0,283.0,249.5,2.4,4.6,24.56,51.93,1.9938,376.2483],
    [10755,1532804583,57.0581,-111.3966,623.2,282.2,248.8,1.9,3.3,24.33,51.6,1.9955,376.3949],
    [10756,1532804584,57.0579,-111.3975,622.2,281.2,249.0,2.1,2.1,25.06,51.43,1.9942,377.2762],
    [10757,1532804585,57.0577,-111.3984,620.5,279.5,247.1,1.6,2.7,24.01,51.91,1.9949,376.6024],
    [10758,1532804586,57.0576,-111.3992,618.6,277.6,245.3,1.8,3.0,24.5,52.08,1.9949,374.95],
    [10759,1532804587,57.0573,-111.4001,616.8,275.8,243.9,1.6,2.9,24.09,52.37,1.995,373.9415],
    [10760,1532804588,57.0571,-111.401,616.2,275.2,242.0,1.9,3.6,25.2,51.99,1.9948,374.8977],
    [10761,1532804589,57.0569,-111.4018,615.6,274.6,241.3,2.5,3.5,24.36,52.74,1.9936,375.173],
    [10762,1532804590,57.0566,-111.4027,615.4,274.4,240.1,2.3,3.0,24.49,53.27,1.9953,375.9794],
    [10763,1532804591,57.0564,-111.4035,615.7,274.7,237.8,1.5,3.4,24.01,52.62,1.9965,374.1389],
    [10764,1532804592,57.0561,-111.4044,615.0,274.0,235.6,1.0,3.7,24.51,52.54,1.9977,374.3166],
    [10765,1532804593,57.0558,-111.4052,613.6,272.6,235.4,1.3,2.6,24.96,52.0,1.9973,381.9334],
    [10766,1532804594,57.0555,-111.406,612.1,271.1,234.6,1.5,2.7,24.62,52.84,2.0035,386.986],
    [10767,1532804595,57.0552,-111.4068,610.8,269.8,233.0,1.7,3.2,24.42,52.18,2.023,383.1033],
    [10768,1532804596,57.0549,-111.4076,609.9,268.9,232.5,1.6,2.5,24.67,51.24,2.0112,380.8846],
    [10769,1532804597,57.0546,-111.4084,609.6,268.6,230.1,1.3,4.6,23.83,51.21,2.0091,382.3783],
    [10770,1532804598,57.0543,-111.4092,610.5,269.8,229.6,1.2,4.7,24.5,51.16,2.0082,379.6205],
    [10771,1532804599,57.0539,-111.4099,611.5,271.5,231.0,1.6,3.7,24.55,51.21,2.0074,380.6093],
    [10772,1532804600,57.0536,-111.4107,612.7,272.7,230.6,1.0,4.0,24.67,51.91,2.0184,381.8069],
    [10773,1532804601,57.0533,-111.4115,613.6,273.6,231.3,1.8,3.6,24.18,51.46,2.0302,386.3374],
    [10774,1532804602,57.053,-111.4122,613.6,273.9,232.0,3.3,3.7,24.21,51.51,2.0304,386.3374],
    [10775,1532804603,57.0527,-111.413,613.5,274.5,232.6,3.6,3.2,24.4,52.02,2.0366,387.4988],
    [10776,1532804604,57.0524,-111.4138,613.4,274.4,232.4,3.4,3.7,24.43,52.13,2.0374,390.4195],
    [10777,1532804605,57.052,-111.4146,613.6,274.6,231.2,2.3,4.2,25.2,50.97,2.0383,388.4047],
    [10778,1532804606,57.0517,-111.4153,614.2,275.2,231.3,1.9,3.2,24.21,51.14,2.0283,387.138],
    [10779,1532804607,57.0514,-111.4161,614.7,275.7,232.2,2.6,2.5,24.55,51.4,2.0209,384.6196],
    [10780,1532804608,57.0511,-111.4169,614.5,276.5,232.7,2.6,2.5,24.29,51.17,2.0185,383.7939],
    [10781,1532804609,57.0508,-111.4177,613.7,275.7,231.8,1.6,3.5,24.53,51.22,2.0168,385.1418],
    [10782,1532804610,57.0504,-111.4185,612.8,274.8,231.4,0.8,3.6,24.2,51.55,2.0153,385.5321],
    [10783,1532804611,57.0501,-111.4193,612.7,274.7,231.0,-0.2,3.4,25.26,50.89,2.0156,381.0453],
    [10784,1532804612,57.0498,-111.4201,614.0,277.0,230.1,-0.6,4.4,24.73,51.31,2.0119,381.0453],
    [10785,1532804613,57.0495,-111.4209,615.2,278.2,230.9,0.4,3.8,25.47,51.06,2.0024,378.5687],
    [10786,1532804614,57.0491,-111.4217,616.5,279.5,231.9,1.1,3.1,24.52,51.9,2.0002,375.3436],
    [10787,1532804615,57.0488,-111.4225,618.3,281.3,230.2,0.0,4.1,24.54,51.87,1.9993,377.3156],
    [10788,1532804616,57.0485,-111.4233,620.1,284.1,229.8,0.2,4.5,24.41,51.88,2.005,377.3156],
    [10789,1532804617,57.0482,-111.4241,619.7,283.7,231.7,1.3,3.0,23.91,52.08,2.0168,376.9884],
    [10790,1532804618,57.0478,-111.4249,618.9,282.9,232.2,1.8,3.3,24.05,51.96,2.0308,391.8685],
    [10791,1532804619,57.0475,-111.4257,618.9,283.9,231.6,1.3,3.8,24.97,51.14,2.0274,389.3263],
    [10792,1532804620,57.0472,-111.4265,619.6,284.6,231.3,1.5,4.2,24.75,51.06,2.0155,383.0633],
    [10793,1532804621,57.0469,-111.4273,619.5,285.5,233.0,2.8,2.6,24.76,50.78,2.0035,383.0633],
    [10794,1532804622,57.0466,-111.4281,619.3,285.3,234.7,3.1,1.4,24.28,51.19,2.005,382.8563],
    [10795,1532804623,57.0462,-111.4289,618.8,285.8,232.9,2.2,3.4,24.64,50.87,1.9999,382.8563],
    [10796,1532804624,57.0459,-111.4297,617.9,284.9,233.4,2.1,2.5,24.52,50.96,1.9941,378.3399],
    [10797,1532804625,57.0456,-111.4305,616.4,284.4,233.6,2.1,2.5,25.44,50.48,1.9919,378.3399],
    [10798,1532804626,57.0453,-111.4313,614.9,282.9,232.9,2.1,3.3,24.81,51.26,2.0091,383.9451],
    [10799,1532804627,57.045,-111.4321,613.3,282.3,233.3,2.8,3.0,25.06,50.47,2.0146,384.935],
    [10800,1532804628,57.0447,-111.4329,611.7,281.7,232.7,2.0,2.8,24.37,51.1,2.0145,383.8756],
    [10801,1532804629,57.0443,-111.4337,610.3,281.3,231.4,1.5,3.5,25.31,50.42,2.0171,383.8756],
    [10802,1532804630,57.044,-111.4345,609.2,280.2,230.6,1.2,3.8,24.68,50.95,2.0142,383.4625],
    [10803,1532804631,57.0437,-111.4353,607.8,279.8,231.0,1.5,3.3,24.56,51.04,2.0093,383.1164],
    [10804,1532804632,57.0433,-111.4361,606.5,278.5,231.8,1.4,2.6,25.57,50.74,2.0092,381.5378],
    [10805,1532804633,57.043,-111.4369,605.1,277.1,232.1,1.8,2.9,24.76,51.3,2.0088,381.579],
    [10806,1532804634,57.0427,-111.4377,603.8,275.8,231.7,2.4,3.9,24.73,51.94,2.0081,381.5653],
    [10807,1532804635,57.0424,-111.4385,602.5,274.5,231.5,3.1,4.4,24.35,51.9,2.0106,383.1676],
    [10808,1532804636,57.042,-111.4393,601.5,273.5,231.8,3.2,3.9,24.83,51.43,2.0131,383.9034],
    [10809,1532804637,57.0417,-111.4401,601.4,274.4,230.3,1.9,5.0,24.32,51.7,2.006,383.8588],
    [10810,1532804638,57.0414,-111.4409,601.7,274.7,230.1,2.6,5.7,24.75,51.75,2.0051,383.8588],
    [10811,1532804639,57.041,-111.4417,602.4,275.4,232.2,5.5,5.1,24.81,51.07,2.0215,383.0004],
    [10812,1532804640,57.0407,-111.4425,602.7,275.7,231.7,5.5,6.0,24.77,51.51,2.0199,382.1386],
    [10813,1532804641,57.0404,-111.4433,602.2,275.2,231.0,4.4,6.2,24.91,50.71,2.0049,380.9261],
    [10814,1532804642,57.04,-111.4441,601.1,274.1,232.3,4.7,5.1,24.28,50.76,1.9933,380.9261],
    [10815,1532804643,57.0397,-111.4449,599.7,273.7,233.0,4.0,4.3,24.89,50.63,1.997,378.9163],
    [10816,1532804644,57.0394,-111.4458,598.9,272.9,232.7,3.6,5.2,24.88,50.02,2.0132,379.632],
    [10817,1532804645,57.0391,-111.4466,599.0,274.0,232.8,3.2,5.2,24.56,48.88,2.0193,377.7424],
    [10818,1532804646,57.0387,-111.4474,598.9,273.9,234.3,4.2,4.3,24.65,48.82,2.026,379.3968],
    [10819,1532804647,57.0384,-111.4483,598.7,274.7,234.7,3.1,3.3,24.65,48.97,2.0248,380.0238],
    [10820,1532804648,57.0381,-111.4491,598.8,275.1,233.8,2.8,3.8,24.18,49.19,2.0257,381.3731],
    [10821,1532804649,57.0378,-111.4499,598.8,275.8,233.1,3.4,4.6,25.3,49.3,2.0256,381.3382],
    [10822,1532804650,57.0375,-111.4508,598.6,276.6,232.1,3.7,5.5,25.73,49.23,2.0258,380.6716],
    [10823,1532804651,57.0371,-111.4516,598.4,276.4,232.2,5.3,5.4,25.16,49.8,2.0278,381.0957],
    [10824,1532804652,57.0368,-111.4524,598.1,277.1,233.8,6.4,3.4,25.14,50.57,2.0263,380.1915],
    [10825,1532804653,57.0365,-111.4532,597.6,276.7,232.8,6.7,4.9,25.08,50.17,2.0068,380.5784],
    [10826,1532804654,57.0361,-111.4541,597.3,277.3,231.5,5.3,5.2,24.42,50.31,1.9766,376.2827],
    [10827,1532804655,57.0358,-111.4549,596.0,276.0,232.8,6.1,3.6,25.44,49.24,1.9782,375.9947],
    [10828,1532804656,57.0354,-111.4557,594.9,274.9,231.4,5.6,5.2,25.24,48.76,1.9919,376.4631],
    [10829,1532804657,57.0351,-111.4565,593.6,274.6,230.5,4.9,5.8,24.92,49.09,1.9983,376.8987],
    [10830,1532804658,57.0347,-111.4574,593.2,275.5,232.1,5.5,4.1,25.05,47.81,1.9926,375.1649],
    [10831,1532804659,57.0344,-111.4582,591.6,274.9,231.9,4.9,4.6,25.32,47.02,1.981,374.0444],
    [10832,1532804660,57.034,-111.459,588.7,272.7,230.7,3.8,5.3,24.66,46.78,1.9757,375.3227],
    [10833,1532804661,57.0336,-111.4599,584.4,268.4,233.2,4.8,2.4,25.19,46.41,1.9765,375.8493],
    [10834,1532804662,57.0333,-111.4607,580.6,264.6,233.2,3.2,2.2,25.29,46.71,1.9918,377.5111],
    [10835,1532804663,57.0329,-111.4616,578.0,263.0,231.9,1.6,3.1,25.76,46.04,1.9885,376.2595],
    [10836,1532804664,57.0326,-111.4625,576.4,262.4,232.5,0.9,1.8,25.9,46.59,2.0023,377.2907],
    [10837,1532804665,57.0322,-111.4634,575.5,263.4,232.3,0.7,1.7,25.28,48.06,2.0062,375.4243],
    [10838,1532804666,57.0319,-111.4642,575.6,266.6,233.1,2.6,2.3,24.97,48.27,1.991,376.8493],
    [10839,1532804667,57.0315,-111.4651,575.7,271.1,233.4,1.7,1.3,25.14,48.29,1.9779,376.4609],
    [10840,1532804668,57.0311,-111.466,574.8,277.1,234.6,1.1,-0.5,25.25,48.62,1.9806,375.5015],
    [10841,1532804669,57.0308,-111.4669,573.6,288.9,233.7,0.8,0.8,25.94,47.47,1.9846,375.4822],
    [10842,1532804670,57.0304,-111.4677,573.1,299.4,234.0,0.3,0.9,25.1,48.62,1.981,373.9763],
    [10843,1532804671,57.0301,-111.4686,571.0,305.4,235.0,0.4,0.0,25.67,47.65,1.9776,375.807],
    [10844,1532804672,57.0298,-111.4695,568.1,305.1,236.2,0.0,-1.7,25.53,48.27,1.9747,375.0185],
    [10845,1532804673,57.0294,-111.4705,565.8,303.8,234.8,-2.3,-1.3,25.23,48.03,1.9812,376.9913],
    [10846,1532804674,57.0291,-111.4714,563.2,301.5,234.1,-2.8,-1.5,25.23,48.16,1.9852,375.6824],
    [10847,1532804675,57.0287,-111.4723,560.4,299.4,234.5,-3.3,-2.8,24.91,48.14,1.9854,376.8402],
    [10848,1532804676,57.0284,-111.4732,557.8,296.8,233.6,-4.4,-3.0,25.36,48.67,1.9913,377.1119],
    [10849,1532804677,57.028,-111.4741,555.7,295.7,233.9,-4.8,-3.7,25.36,49.16,1.9916,377.5057],
    [10850,1532804678,57.0276,-111.475,554.0,295.5,234.0,-5.8,-4.3,24.89,49.14,1.9925,377.5057],
    [10851,1532804679,57.0273,-111.4759,551.9,296.6,233.7,-6.8,-4.2,25.58,48.9,1.9924,378.46],
    [10852,1532804680,57.0269,-111.4768,549.6,297.8,233.5,-6.8,-4.2,24.99,50.16,1.9873,377.3144],
    [10853,1532804681,57.0265,-111.4777,547.2,298.5,234.1,-7.7,-5.3,25.36,50.25,1.9923,375.9423],
    [10854,1532804682,57.0262,-111.4787,544.9,299.9,233.4,-9.5,-5.5,25.32,50.17,1.994,376.6997],
    [10855,1532804683,57.0258,-111.4796,542.8,302.8,233.3,-9.8,-5.8,25.61,50.42,1.9908,377.8367],
    [10856,1532804684,57.0255,-111.4805,540.8,301.8,233.5,-9.5,-5.7,25.13,50.2,1.9907,377.1591],
    [10857,1532804685,57.0251,-111.4814,540.0,302.0,233.3,-10.4,-6.3,25.01,50.94,1.9903,377.4846],
    [10858,1532804686,57.0247,-111.4823,540.3,302.8,233.3,-10.4,-6.3,25.29,51.4,1.9906,376.9413],
    [10859,1532804687,57.0244,-111.4832,541.4,303.4,233.1,-10.8,-6.3,25.28,51.81,1.9904,376.8015],
    [10860,1532804688,57.024,-111.4841,542.8,304.8,233.0,-10.6,-6.4,25.22,51.59,1.9961,378.7848],
    [10861,1532804689,57.0237,-111.485,543.9,304.9,233.9,-7.9,-5.6,25.1,51.57,1.9949,378.0059],
    [10862,1532804690,57.0233,-111.4859,544.9,305.9,233.9,-7.3,-6.0,25.33,51.48,1.9856,376.2607],
    [10863,1532804691,57.023,-111.4868,546.3,307.3,233.9,-6.8,-6.3,25.25,51.64,1.9723,375.2868],
    [10864,1532804692,57.0226,-111.4877,547.6,309.5,231.9,-6.8,-4.6,25.05,50.93,1.9591,374.8083],
    [10865,1532804693,57.0222,-111.4885,549.7,313.1,230.3,-6.6,-4.1,25.32,49.86,1.9548,374.7723],
    [10866,1532804694,57.0219,-111.4894,553.6,318.6,230.4,-5.6,-4.5,24.66,49.2,1.9527,374.7194],
    [10867,1532804695,57.0215,-111.4902,558.6,323.6,230.4,-5.1,-4.3,24.96,49.63,1.9536,374.705],
    [10868,1532804696,57.0211,-111.491,564.0,329.0,230.7,-4.7,-3.8,25.17,48.94,1.9553,373.8673],
    [10869,1532804697,57.0208,-111.4918,569.6,333.7,232.0,-4.1,-3.7,25.49,48.97,1.9515,373.838],
    [10870,1532804698,57.0204,-111.4927,574.6,337.6,233.7,-3.3,-3.8,25.26,48.77,1.9439,374.0103],
    [10871,1532804699,57.0201,-111.4935,578.9,338.8,234.3,-2.3,-2.7,25.67,47.97,1.9434,374.795],
    [10872,1532804700,57.0198,-111.4943,583.4,338.5,234.9,-1.7,-2.1,25.03,48.46,1.9445,374.795],
    [10873,1532804701,57.0194,-111.4951,587.7,332.3,234.6,-2.1,-1.7,24.88,48.15,1.948,374.1201],
    [10874,1532804702,57.0191,-111.4959,592.5,330.7,235.4,-0.5,-1.9,25.73,47.34,1.9469,374.6056],
    [10875,1532804703,57.0188,-111.4967,597.2,329.4,235.3,1.0,-0.6,25.09,47.88,1.9457,374.7732],
    [10876,1532804704,57.0185,-111.4975,601.3,330.0,233.7,1.6,1.1,24.88,48.03,1.9476,375.4535],
    [10877,1532804705,57.0182,-111.4983,605.3,332.8,233.3,1.7,1.7,24.59,48.39,1.9488,375.1888],
    [10878,1532804706,57.0179,-111.499,609.2,336.0,231.8,2.2,3.4,24.86,48.09,1.9451,374.7458],
    [10879,1532804707,57.0176,-111.4998,613.2,337.3,232.0,3.5,3.5,25.05,48.04,1.9362,374.6922],
    [10880,1532804708,57.0172,-111.5005,616.7,338.0,232.4,5.0,4.0,24.99,47.5,1.944,376.2233],
    [10881,1532804709,57.0169,-111.5013,619.9,332.5,230.9,4.9,5.8,25.36,46.24,1.9443,376.2233],
    [10882,1532804710,57.0166,-111.502,623.7,329.3,229.9,4.5,5.5,24.99,47.19,1.9456,374.6697],
    [10883,1532804711,57.0163,-111.5028,627.2,329.6,230.8,6.0,4.9,25.54,46.21,1.9425,374.8674],
    [10884,1532804712,57.016,-111.5035,630.8,333.8,230.0,6.2,6.3,25.1,47.2,1.9418,374.5325],
    [10885,1532804713,57.0157,-111.5042,634.6,337.6,230.8,7.2,5.8,24.82,46.83,1.9422,374.5325],
    [10886,1532804714,57.0153,-111.5049,637.8,340.9,233.3,9.0,4.7,25.06,46.51,1.9427,374.3701],
    [10887,1532804715,57.015,-111.5056,640.3,343.3,233.3,8.7,5.4,24.95,46.61,1.945,374.3671],
    [10888,1532804716,57.0147,-111.5064,642.2,345.1,234.3,8.8,4.7,24.87,46.6,1.9439,374.5148],
    [10889,1532804717,57.0144,-111.5071,643.6,346.6,234.6,8.6,4.3,25.03,46.46,1.944,374.884],
    [10890,1532804718,57.0141,-111.5079,644.2,347.2,233.5,7.5,4.3,24.9,46.68,1.9448,374.884],
    [10891,1532804719,57.0138,-111.5086,644.6,347.6,232.5,8.2,5.8,25.43,46.29,1.9459,374.8686],
    [10892,1532804720,57.0135,-111.5093,644.7,347.7,231.3,7.3,6.3,24.85,46.56,1.9431,374.6697],
    [10893,1532804721,57.0132,-111.51,644.5,347.5,231.0,7.1,6.4,24.93,46.95,1.9427,374.1447],
    [10894,1532804722,57.0129,-111.5108,644.0,347.0,230.4,5.9,6.4,24.86,46.36,1.9421,374.1447],
    [10895,1532804723,57.0125,-111.5115,642.9,345.9,229.8,4.9,6.3,25.45,46.65,1.9439,374.7416],
    [10896,1532804724,57.0122,-111.5122,641.1,344.1,230.2,5.4,5.9,25.71,46.12,1.9445,375.3968],
    [10897,1532804725,57.0119,-111.513,640.1,343.1,230.7,5.2,4.9,24.82,46.67,1.9452,375.3968],
    [10898,1532804726,57.0115,-111.5138,639.1,342.1,230.8,4.6,5.0,25.8,46.4,1.9438,374.9349],
    [10899,1532804727,57.0112,-111.5145,638.1,327.1,231.7,5.0,5.0,24.51,47.12,1.9433,374.9349],
    [10900,1532804728,57.0109,-111.5153,638.0,321.3,233.7,5.8,4.4,25.03,46.98,1.9465,374.4326],
    [10901,1532804729,57.0106,-111.5161,637.6,319.6,234.7,5.8,4.0,25.14,47.45,1.9466,376.2595],
    [10902,1532804730,57.0103,-111.517,635.5,316.5,237.3,5.9,1.4,25.11,47.51,1.9499,375.2883],
    [10903,1532804731,57.01,-111.5178,633.8,314.8,237.9,5.7,1.7,25.03,47.52,1.9483,375.2883],
    [10904,1532804732,57.0096,-111.5187,633.0,314.0,237.1,6.0,3.4,25.2,47.52,1.948,374.4158],
    [10905,1532804733,57.0093,-111.5196,632.1,313.1,237.5,5.7,3.1,24.98,48.02,1.9464,374.4154],
    [10906,1532804734,57.009,-111.5204,631.0,312.0,236.0,4.0,4.3,24.41,48.42,1.9451,374.3832],
    [10907,1532804735,57.0087,-111.5213,628.2,309.2,236.4,3.7,3.1,25.07,48.65,1.9466,374.3832],
    [10908,1532804736,57.0084,-111.5221,625.5,305.5,237.5,3.4,1.5,25.26,48.82,1.9451,372.9119],
    [10909,1532804737,57.0081,-111.523,623.0,304.0,235.5,1.6,2.6,25.49,47.9,1.947,373.2731],
    [10910,1532804738,57.0078,-111.5239,619.7,300.7,236.3,1.4,1.5,25.11,48.18,1.945,373.791],
    [10911,1532804739,57.0075,-111.5247,616.3,298.0,237.4,1.7,0.6,24.53,47.76,1.9451,373.791],
    [10912,1532804740,57.0072,-111.5256,613.1,295.1,238.8,2.5,0.0,25.25,47.9,1.9466,372.8563],
    [10913,1532804741,57.0069,-111.5265,610.0,292.0,239.4,1.8,0.3,25.2,47.95,1.9506,373.1345],
    [10914,1532804742,57.0066,-111.5274,607.7,289.7,238.5,0.2,1.4,25.23,48.1,1.9509,372.6278],
    [10915,1532804743,57.0063,-111.5283,606.5,288.4,240.1,0.6,0.1,25.56,48.2,1.9511,373.2135],
    [10916,1532804744,57.006,-111.5293,604.5,285.4,240.3,-0.4,0.1,25.45,48.54,1.9511,374.0875],
    [10917,1532804745,57.0057,-111.5302,602.6,283.5,239.3,-2.3,0.9,24.75,49.18,1.9498,373.1011],
    [10918,1532804746,57.0054,-111.5311,601.7,282.5,239.8,-3.1,0.4,25.74,48.75,1.9504,373.3966],
    [10919,1532804747,57.0052,-111.532,600.5,281.4,240.4,-3.2,-0.3,25.21,49.75,1.9502,374.9173],
    [10920,1532804748,57.0049,-111.533,598.6,278.6,241.1,-4.4,-1.6,25.38,50.52,1.9494,372.2439],
    [10921,1532804749,57.0046,-111.5339,597.8,277.9,240.0,-4.9,-1.1,25.43,50.73,1.9478,372.2439],
    [10922,1532804750,57.0043,-111.5349,596.6,276.9,241.4,-3.7,-2.5,25.69,50.69,1.9508,372.6086],
    [10923,1532804751,57.004,-111.5358,596.0,277.7,241.1,-4.0,-3.0,25.0,50.68,1.9477,371.3608],
    [10924,1532804752,57.0038,-111.5367,596.2,278.9,239.9,-4.2,-3.0,25.13,50.42,1.9468,373.576],
    [10925,1532804753,57.0035,-111.5377,595.6,278.2,239.4,-3.9,-3.0,25.19,50.62,1.9489,372.2859],
    [10926,1532804754,57.0031,-111.5386,594.5,275.1,236.8,-3.8,-0.9,24.79,50.28,1.9498,371.8277],
    [10927,1532804755,57.0028,-111.5395,592.9,272.6,236.8,-3.4,-1.5,25.38,49.94,1.9474,372.7155],
    [10928,1532804756,57.0025,-111.5404,591.5,270.4,238.1,-3.1,-2.9,25.23,50.59,1.9468,372.8975],
    [10929,1532804757,57.0022,-111.5413,592.6,270.7,236.5,-3.3,-1.8,25.09,50.2,1.9463,372.6061],
    [10930,1532804758,57.0019,-111.5422,596.3,274.2,238.0,-2.1,-3.7,25.16,49.59,1.9462,373.1542],
    [10931,1532804759,57.0015,-111.5431,600.1,277.0,237.6,-0.3,-2.7,25.18,49.92,1.9484,373.1542],
    [10932,1532804760,57.0012,-111.544,603.5,280.2,237.0,-0.4,-2.1,25.74,48.95,1.9495,371.8925],
    [10933,1532804761,57.0009,-111.5449,605.2,281.8,238.7,1.2,-2.7,25.25,49.43,1.9468,373.118],
    [10934,1532804762,57.0006,-111.5458,606.4,282.7,239.0,1.9,-1.5,25.49,49.19,1.944,372.9545],
    [10935,1532804763,57.0002,-111.5466,609.3,285.7,238.5,3.1,0.4,25.04,50.09,1.9413,373.1607],
    [10936,1532804764,56.9999,-111.5475,614.8,290.7,239.1,3.8,0.2,25.64,48.73,1.9406,372.8266],
    [10937,1532804765,56.9996,-111.5484,621.3,297.3,238.8,4.9,0.7,25.21,48.34,1.9408,374.3429],
    [10938,1532804766,56.9993,-111.5492,627.4,303.5,238.3,6.5,1.1,25.09,48.01,1.9406,372.9157],
    [10939,1532804767,56.999,-111.5501,633.4,308.8,235.6,6.1,1.8,25.26,47.5,1.9416,372.8023],
    [10940,1532804768,56.9987,-111.5509,638.5,313.8,233.0,6.4,2.0,24.94,47.51,1.9424,374.4486],
    [10941,1532804769,56.9983,-111.5516,643.5,317.7,229.7,6.3,2.4,24.57,47.36,1.9445,374.534],
    [10942,1532804770,56.9979,-111.5523,647.9,322.8,226.3,5.9,2.8,24.72,47.21,1.9456,373.1803],
    [10943,1532804771,56.9976,-111.553,651.3,326.2,223.7,6.2,3.5,24.71,47.62,1.9438,373.6068],
    [10944,1532804772,56.9971,-111.5536,653.9,328.8,220.3,6.2,5.6,25.44,47.72,1.9435,373.2898],
    [10945,1532804773,56.9967,-111.5542,656.3,330.3,217.5,5.5,6.0,24.57,48.13,1.9418,373.2673],
    [10946,1532804774,56.9963,-111.5548,658.8,332.7,215.5,5.6,6.1,25.31,47.65,1.9403,374.0334],
    [10947,1532804775,56.9958,-111.5554,660.6,334.6,213.4,5.1,5.5,24.9,48.02,1.9405,374.2235],
    [10948,1532804776,56.9954,-111.5558,661.8,336.9,210.7,4.7,6.1,25.07,47.3,1.9402,373.5648],
    [10949,1532804777,56.9949,-111.5563,662.9,338.9,207.2,2.7,5.5,24.86,47.28,1.9427,374.5602],
    [10950,1532804778,56.9944,-111.5568,663.6,340.8,204.3,2.0,5.3,24.9,47.09,1.9443,374.3183],
    [10951,1532804779,56.9939,-111.5572,663.9,342.0,203.1,2.9,5.7,24.74,47.56,1.9439,374.0103],
    [10952,1532804780,56.9934,-111.5575,663.7,342.7,201.2,3.0,5.5,24.49,47.24,1.9401,374.1751],
    [10953,1532804781,56.9929,-111.5579,663.0,342.0,198.8,2.7,5.4,25.08,47.17,1.9355,373.5536],
    [10954,1532804782,56.9924,-111.5581,661.2,341.2,196.7,3.1,5.4,25.84,46.14,1.9375,374.5917],
    [10955,1532804783,56.9918,-111.5584,658.8,338.8,195.4,4.0,4.6,24.98,46.17,1.9389,373.4879],
    [10956,1532804784,56.9913,-111.5586,654.8,334.8,193.8,3.9,3.0,25.0,45.54,1.9392,374.1866],
    [10957,1532804785,56.9907,-111.5588,649.1,329.1,191.5,3.5,2.3,25.48,45.44,1.9408,373.9511],
    [10958,1532804786,56.9901,-111.5589,643.7,323.7,188.4,2.4,1.1,25.11,46.02,1.9424,373.992],
    [10959,1532804787,56.9895,-111.559,639.7,319.7,186.0,2.3,0.5,24.97,46.14,1.9404,375.0474],
    [10960,1532804788,56.9889,-111.5591,637.9,318.9,183.9,1.7,0.6,24.75,45.81,1.9391,374.8207],
    [10961,1532804789,56.9883,-111.5591,637.5,319.4,183.5,2.1,-0.1,25.06,46.3,1.9408,372.5062],
    [10962,1532804790,56.9877,-111.5592,638.3,322.1,184.5,3.1,-0.7,25.0,45.98,1.9395,373.7146],
    [10963,1532804791,56.9871,-111.5592,638.1,324.2,184.5,2.9,-0.8,25.08,46.1,1.9408,374.6905],
    [10964,1532804792,56.9865,-111.5592,637.7,325.3,184.2,2.4,-0.4,25.31,45.65,1.94,374.1504],
    [10965,1532804793,56.9859,-111.5593,637.2,327.2,183.8,1.8,-0.6,24.8,46.13,1.9409,373.2654],
    [10966,1532804794,56.9853,-111.5593,636.6,327.6,184.2,1.9,-2.0,24.96,46.13,1.9422,373.5504],
    [10967,1532804795,56.9847,-111.5594,636.2,327.2,185.0,2.7,-1.0,24.9,46.2,1.9419,374.263],
    [10968,1532804796,56.9841,-111.5594,635.7,326.7,185.9,3.3,-1.5,25.71,45.85,1.9407,373.9092],
    [10969,1532804797,56.9835,-111.5595,635.1,326.1,185.8,3.2,-1.6,25.46,46.35,1.9365,373.2979],
    [10970,1532804798,56.9829,-111.5595,634.2,325.2,185.8,3.5,-1.7,24.91,45.92,1.9381,373.5279],
    [10971,1532804799,56.9823,-111.5596,632.9,323.9,186.2,3.8,-1.4,25.25,45.59,1.9372,373.7346],
    [10972,1532804800,56.9817,-111.5596,631.1,322.1,184.9,2.9,-1.9,25.53,45.31,1.9406,373.7395],
    [10973,1532804801,56.9811,-111.5597,629.1,318.1,184.5,3.5,-1.9,25.46,45.5,1.9397,373.7395],
    [10974,1532804802,56.9805,-111.5597,627.3,312.3,183.7,3.4,-1.4,25.4,45.92,1.9397,373.1789],
    [10975,1532804803,56.9799,-111.5597,625.3,307.6,182.8,3.1,-1.7,26.01,45.32,1.9381,373.0345],
    [10976,1532804804,56.9793,-111.5597,623.0,302.6,182.1,2.4,-0.6,25.19,45.97,1.9338,373.5793],
    [10977,1532804805,56.9787,-111.5597,621.0,299.0,180.9,1.4,-0.9,24.83,45.72,1.9324,374.063],
    [10978,1532804806,56.9781,-111.5597,619.8,296.8,182.3,2.8,-0.6,24.84,45.58,1.9317,373.7976],
    [10979,1532804807,56.9775,-111.5597,619.0,295.0,182.4,2.4,0.4,25.12,45.25,1.9316,373.7976],
    [10980,1532804808,56.977,-111.5597,617.8,293.8,182.8,2.5,0.9,26.11,43.46,1.9356,374.1124],
    [10981,1532804809,56.9764,-111.5597,616.1,292.1,184.4,3.6,0.1,25.47,43.74,1.9363,374.3917],
    [10982,1532804810,56.9758,-111.5597,614.8,290.8,185.0,3.9,-0.9,25.39,43.75,1.9362,374.2699],
    [10983,1532804811,56.9752,-111.5598,614.0,290.0,185.5,4.1,-0.3,25.58,43.81,1.9332,373.3551],
    [10984,1532804812,56.9746,-111.5598,613.7,289.7,184.6,3.1,2.1,25.57,44.31,1.9345,373.799],
    [10985,1532804813,56.974,-111.5599,613.1,289.1,184.5,3.2,2.1,25.55,43.94,1.9352,373.8321],
    [10986,1532804814,56.9734,-111.5599,612.2,288.2,185.4,3.9,2.3,25.78,43.37,1.9357,374.1257],
    [10987,1532804815,56.9728,-111.5599,610.9,287.2,184.6,2.9,2.1,25.52,43.58,1.9353,374.1793],
    [10988,1532804816,56.9723,-111.56,609.5,286.5,184.6,2.6,1.7,25.44,43.46,1.9341,374.6581],
    [10989,1532804817,56.9717,-111.56,610.0,287.3,184.8,2.6,1.6,26.13,42.98,1.9324,375.3178],
    [10990,1532804818,56.9711,-111.5601,610.1,289.9,185.9,3.8,1.8,25.23,43.5,1.9336,375.3178],
    [10991,1532804819,56.9705,-111.5601,609.3,291.3,186.4,4.1,2.1,25.5,42.87,1.9315,375.4519],
    [10992,1532804820,56.9699,-111.5602,608.5,292.3,186.2,4.4,2.2,25.75,43.22,1.9307,374.9934],
    [10993,1532804821,56.9693,-111.5602,607.7,293.5,186.8,5.3,2.8,25.73,42.47,1.9309,374.2775],
    [10994,1532804822,56.9688,-111.5603,608.0,294.7,185.1,3.7,3.2,25.48,43.14,1.9329,374.4023],
    [10995,1532804823,56.9682,-111.5603,609.3,296.3,183.5,2.3,2.9,25.8,42.0,1.9308,374.3689],
    [10996,1532804824,56.9676,-111.5603,610.5,297.5,183.3,2.3,3.4,26.08,41.98,1.9308,375.6831],
    [10997,1532804825,56.967,-111.5604,611.8,297.8,183.5,2.7,3.5,25.49,42.49,1.9315,375.2367],
    [10998,1532804826,56.9664,-111.5604,612.4,298.5,183.7,2.8,3.9,25.6,42.03,1.932,373.8569],
    [10999,1532804827,56.9659,-111.5604,612.8,297.8,183.2,2.4,3.5,25.71,41.71,1.9301,375.091],
    [11000,1532804828,56.9653,-111.5604,613.7,297.7,183.4,2.8,3.7,25.63,42.35,1.9287,375.0751],
    [11001,1532804829,56.9647,-111.5605,614.6,297.6,183.2,2.3,3.4,25.7,41.78,1.9273,375.7901],
    [11002,1532804830,56.9641,-111.5605,616.2,299.2,183.1,2.1,3.5,25.78,41.79,1.9277,375.1284],
    [11003,1532804831,56.9635,-111.5605,618.3,300.3,183.1,1.9,3.2,25.88,40.98,1.9313,375.1284],
    [11004,1532804832,56.963,-111.5605,621.0,303.0,182.9,2.2,2.2,26.23,40.34,1.9316,375.519],
    [11005,1532804833,56.9624,-111.5606,622.4,304.4,185.0,4.5,2.5,26.25,40.71,1.9319,373.649],
    [11006,1532804834,56.9618,-111.5606,622.6,304.6,183.7,2.9,2.2,25.67,41.41,1.9325,373.649],
    [11007,1532804835,56.9612,-111.5606,622.3,304.3,182.0,1.9,1.7,25.52,41.57,1.9327,375.5465],
    [11008,1532804836,56.9607,-111.5606,621.4,303.4,183.4,4.1,0.8,25.71,41.51,1.9316,375.9275],
    [11009,1532804837,56.9601,-111.5606,619.8,301.8,183.5,4.9,0.2,25.64,41.49,1.932,375.9088],
    [11010,1532804838,56.9595,-111.5606,618.3,300.3,182.6,4.7,-1.7,25.82,41.7,1.934,375.1476],
    [11011,1532804839,56.9589,-111.5605,617.0,299.6,181.9,4.4,-1.0,25.81,41.51,1.9328,374.9744],
    [11012,1532804840,56.9583,-111.5605,615.2,299.3,181.7,4.2,-0.3,25.69,41.96,1.9338,373.2437],
    [11013,1532804841,56.9578,-111.5604,612.7,296.4,181.1,3.4,-1.3,25.79,42.29,1.9329,376.0646],
    [11014,1532804842,56.9572,-111.5604,609.7,291.7,181.4,3.4,-2.2,25.61,41.79,1.93,376.0646],
    [11015,1532804843,56.9566,-111.5604,605.9,287.2,182.0,3.3,-2.4,25.79,41.53,1.9296,375.0441],
    [11016,1532804844,56.956,-111.5604,602.1,283.1,182.3,2.9,-2.8,26.01,40.63,1.9301,374.9959],
    [11017,1532804845,56.9554,-111.5604,598.9,279.9,183.3,3.5,-2.7,25.52,40.67,1.9272,376.1631],
    [11018,1532804846,56.9548,-111.5604,595.8,276.1,183.6,3.7,-2.8,25.96,40.17,1.9306,376.561],
    [11019,1532804847,56.9542,-111.5604,592.7,272.7,183.0,3.3,-2.7,26.28,39.86,1.9314,374.3315],
    [11020,1532804848,56.9536,-111.5604,589.9,269.9,182.4,3.1,-1.8,25.9,40.4,1.9308,376.122],
    [11021,1532804849,56.9531,-111.5604,587.6,267.7,182.6,3.5,-2.3,25.96,40.46,1.9302,375.1481],
    [11022,1532804850,56.9525,-111.5604,585.8,265.8,182.4,3.5,-1.2,26.5,39.68,1.9328,375.1497],
    [11023,1532804851,56.9519,-111.5603,584.2,264.1,182.5,3.8,-0.8,26.04,41.1,1.9368,373.001],
    [11024,1532804852,56.9513,-111.5603,582.7,263.7,183.0,4.3,-0.1,26.1,41.52,1.9354,374.8415],
    [11025,1532804853,56.9507,-111.5603,582.3,263.3,181.5,3.4,0.3,25.64,41.72,1.934,375.4155],
    [11026,1532804854,56.9501,-111.5603,581.8,263.1,180.8,3.3,0.6,25.98,41.74,1.932,374.0252],
    [11027,1532804855,56.9495,-111.5602,580.5,262.5,181.7,4.2,1.6,25.86,42.36,1.9315,374.0252],
    [11028,1532804856,56.949,-111.5602,579.5,262.0,182.0,4.1,2.2,26.11,42.32,1.9322,374.9752],
    [11029,1532804857,56.9484,-111.5602,579.0,261.9,182.3,4.3,2.8,26.08,41.52,1.9333,373.9065],
    [11030,1532804858,56.9478,-111.5602,577.6,261.3,183.0,4.5,2.1,26.14,41.39,1.9331,373.8332],
    [11031,1532804859,56.9472,-111.5601,576.0,260.0,182.5,3.4,2.1,25.67,41.4,1.9334,373.8332],
    [11032,1532804860,56.9467,-111.5601,573.7,257.7,182.4,3.1,1.9,26.3,41.09,1.931,373.9731],
    [11033,1532804861,56.9461,-111.5601,570.2,254.2,182.5,3.3,2.3,25.99,41.33,1.931,374.0133],
    [11034,1532804862,56.9455,-111.5601,566.5,251.5,181.3,2.4,2.5,26.41,40.92,1.932,374.2517],
    [11035,1532804863,56.945,-111.5601,562.9,247.9,179.4,0.5,2.8,26.47,41.43,1.9298,373.8598],
    [11036,1532804864,56.9444,-111.5601,559.0,244.0,179.9,1.4,2.9,26.09,40.92,1.9275,373.8583],
    [11037,1532804865,56.9438,-111.5601,555.4,240.4,182.0,3.5,1.8,26.14,40.64,1.9282,374.9449],
    [11038,1532804866,56.9432,-111.56,552.9,237.9,181.1,2.6,2.4,26.26,41.03,1.9294,374.897],
    [11039,1532804867,56.9426,-111.56,551.6,236.6,180.4,2.1,2.2,26.32,40.97,1.9306,374.491],
    [11040,1532804868,56.9421,-111.56,550.2,235.2,179.9,1.8,1.7,26.12,40.67,1.9295,375.0819],
    [11041,1532804869,56.9415,-111.56,548.6,233.6,179.5,1.7,1.6,26.59,39.71,1.9298,374.6256],
    [11042,1532804870,56.9409,-111.5599,547.2,232.2,179.5,1.5,1.7,26.68,40.23,1.9324,372.77],
    [11043,1532804871,56.9403,-111.5599,546.1,231.1,179.1,1.2,0.9,26.08,40.93,1.9312,375.3491],
    [11044,1532804872,56.9398,-111.5599,545.4,230.4,179.8,1.9,1.6,26.04,40.11,1.93,374.8533],
    [11045,1532804873,56.9392,-111.5598,545.3,230.3,179.2,1.2,1.4,25.95,40.19,1.9316,374.5958],
    [11046,1532804874,56.9386,-111.5598,545.6,230.3,179.5,1.5,0.7,26.15,40.31,1.9311,375.0929],
    [11047,1532804875,56.938,-111.5598,546.6,230.6,179.9,1.1,-0.3,26.37,40.24,1.9303,375.0929],
    [11048,1532804876,56.9374,-111.5597,547.2,231.2,179.8,0.6,0.7,26.33,40.74,1.9295,374.485],
    [11049,1532804877,56.9368,-111.5597,547.6,231.6,181.8,1.9,0.1,26.59,40.01,1.9288,374.4856],
    [11050,1532804878,56.9363,-111.5597,547.1,231.1,182.0,1.7,-0.2,26.37,39.94,1.925,375.032],
    [11051,1532804879,56.9357,-111.5597,545.9,229.9,181.5,1.0,0.9,26.42,40.17,1.9266,374.2657],
    [11052,1532804880,56.9351,-111.5598,544.4,227.8,182.9,2.5,-0.3,26.55,39.5,1.9262,375.3851],
    [11053,1532804881,56.9345,-111.5598,543.2,226.2,184.8,4.3,-0.7,27.15,38.41,1.9253,374.4688],
    [11054,1532804882,56.9339,-111.5598,541.8,224.9,183.6,2.7,-1.7,26.67,38.55,1.9245,374.656],
    [11055,1532804883,56.9333,-111.5598,541.7,223.7,183.3,2.4,-1.6,27.29,38.36,1.9261,374.8736],
    [11056,1532804884,56.9327,-111.5598,541.8,223.5,182.7,1.8,-1.0,26.04,38.88,1.925,375.2297],
    [11057,1532804885,56.9321,-111.5599,542.0,223.0,183.4,2.8,-1.9,25.75,39.01,1.9274,375.4974],
    [11058,1532804886,56.9316,-111.5599,542.0,222.9,183.8,2.8,-0.9,26.5,39.31,1.9248,373.6576],
    [11059,1532804887,56.931,-111.5599,542.8,222.8,182.5,1.5,0.0,26.66,38.56,1.9245,373.6576],
    [11060,1532804888,56.9304,-111.5599,544.5,224.5,183.1,2.2,-0.3,26.4,38.69,1.9248,375.2374],
    [11061,1532804889,56.9298,-111.5599,547.2,227.1,182.9,2.1,-0.4,27.13,38.06,1.9239,374.6394],
    [11062,1532804890,56.9293,-111.56,548.9,227.9,181.7,1.2,-0.2,26.1,38.65,1.9195,374.2364],
    [11063,1532804891,56.9287,-111.56,548.9,227.9,182.5,2.1,-0.2,26.41,39.02,1.9188,374.6323],
    [11064,1532804892,56.9281,-111.56,547.0,226.0,182.2,1.6,-0.8,27.01,37.76,1.919,374.5232],
    [11065,1532804893,56.9276,-111.56,544.3,222.3,181.5,1.0,-1.6,26.58,37.57,1.9191,374.7791],
    [11066,1532804894,56.927,-111.56,541.4,219.4,183.0,2.3,-1.9,26.86,37.01,1.9189,374.8246],
    [11067,1532804895,56.9264,-111.56,538.9,216.9,182.6,1.9,-2.1,27.1,36.72,1.9196,374.8246],
    [11068,1532804896,56.9258,-111.56,536.5,214.5,181.9,1.4,-1.9,26.46,37.28,1.9194,375.6958],
    [11069,1532804897,56.9253,-111.56,534.6,212.9,183.0,2.4,-2.3,26.41,37.22,1.9201,376.2822],
    [11070,1532804898,56.9247,-111.5601,532.9,211.2,182.7,2.1,-2.3,26.54,37.06,1.9208,374.9505],
    [11071,1532804899,56.9241,-111.5601,531.8,209.8,182.0,1.5,-2.2,26.54,37.8,1.9175,374.9505],
    [11072,1532804900,56.9235,-111.5601,531.1,208.9,182.0,1.6,-2.1,26.23,36.81,1.9189,375.694],
    [11073,1532804901,56.923,-111.5601,530.3,207.4,182.6,2.1,-1.5,26.72,36.49,1.9227,375.3374],
    [11074,1532804902,56.9224,-111.5601,529.4,204.7,182.6,2.2,-1.0,26.65,37.29,1.9253,375.035],
    [11075,1532804903,56.9218,-111.5601,529.8,204.6,182.9,2.8,-0.6,26.63,37.36,1.9269,375.0897],
    [11076,1532804904,56.9213,-111.5601,530.8,204.8,182.6,2.2,-1.2,26.14,37.73,1.9254,375.4259],
    [11077,1532804905,56.9207,-111.5601,532.7,206.7,180.7,1.2,-0.6,26.68,38.7,1.9229,375.2082],
    [11078,1532804906,56.9202,-111.5601,534.5,208.5,181.4,2.4,0.0,26.44,38.26,1.9211,376.0517],
    [11079,1532804907,56.9196,-111.5601,536.3,210.0,180.2,1.5,-0.4,26.46,38.6,1.9239,374.5969],
    [11080,1532804908,56.919,-111.5601,536.9,210.0,180.9,2.6,-0.1,26.65,38.08,1.9256,374.917],
    [11081,1532804909,56.9185,-111.56,537.3,209.3,181.6,3.3,-0.3,26.51,38.61,1.924,375.1101],
    [11082,1532804910,56.9179,-111.56,537.7,209.7,180.4,2.6,0.3,26.19,38.67,1.926,374.7029],
    [11083,1532804911,56.9174,-111.56,537.9,209.9,181.2,3.7,1.2,26.69,38.32,1.9235,375.5031],
    [11084,1532804912,56.9168,-111.5599,537.9,208.9,180.6,3.1,2.8,26.48,38.97,1.9224,375.6129],
    [11085,1532804913,56.9163,-111.5599,537.5,208.5,180.0,2.5,2.6,26.45,38.93,1.9227,373.9614],
    [11086,1532804914,56.9158,-111.5599,537.3,208.3,180.6,2.9,2.4,26.42,38.76,1.9227,373.9614],
    [11087,1532804915,56.9152,-111.5598,537.4,208.4,180.3,2.4,3.2,26.83,37.78,1.9214,374.284],
    [11088,1532804916,56.9147,-111.5598,537.5,207.5,180.4,2.4,3.0,26.41,38.12,1.9202,375.8594],
    [11089,1532804917,56.9141,-111.5598,537.9,207.9,181.1,2.6,2.9,26.32,37.78,1.9205,373.9482],
    [11090,1532804918,56.9136,-111.5597,538.1,208.1,180.7,1.8,3.2,26.87,37.58,1.9213,374.4245],
    [11091,1532804919,56.913,-111.5597,537.9,207.9,181.2,1.9,2.8,26.56,38.22,1.9177,374.0059],
    [11092,1532804920,56.9125,-111.5597,537.3,207.3,182.0,2.5,2.8,27.52,36.88,1.9177,374.8229],
    [11093,1532804921,56.912,-111.5597,536.4,206.4,182.0,2.1,1.8,26.71,36.83,1.9185,374.6875],
    [11094,1532804922,56.9114,-111.5597,535.5,205.5,181.2,1.4,1.5,26.37,37.22,1.9199,375.6611],
    [11095,1532804923,56.9109,-111.5597,534.6,204.6,181.8,2.3,2.7,26.06,37.23,1.9187,374.7993],
    [11096,1532804924,56.9103,-111.5597,534.2,204.2,182.0,2.6,2.8,26.09,36.88,1.9165,375.5812],
    [11097,1532804925,56.9098,-111.5597,534.6,204.6,180.8,1.5,2.4,26.83,36.71,1.9169,376.1642],
    [11098,1532804926,56.9092,-111.5597,535.2,205.2,181.0,2.3,1.2,26.84,36.2,1.9178,375.9261],
    [11099,1532804927,56.9087,-111.5597,536.1,206.1,181.2,2.4,1.0,26.62,36.94,1.9197,375.554],
    [11100,1532804928,56.9082,-111.5596,536.7,206.7,180.3,1.6,1.0,27.28,35.7,1.9193,375.3764],
    [11101,1532804929,56.9076,-111.5596,537.1,207.1,180.2,1.3,1.2,26.6,36.26,1.9204,376.3018],
    [11102,1532804930,56.9071,-111.5596,537.0,206.0,181.5,2.1,0.7,26.61,36.71,1.9191,376.4081],
    [11103,1532804931,56.9065,-111.5596,537.0,206.0,182.3,2.3,0.3,26.66,36.61,1.9186,376.796],
    [11104,1532804932,56.906,-111.5596,536.8,205.8,182.4,2.5,0.1,26.62,36.04,1.9193,374.4546],
    [11105,1532804933,56.9055,-111.5596,536.5,205.5,183.2,3.4,-0.4,26.84,35.87,1.9198,376.8894],
    [11106,1532804934,56.9049,-111.5596,536.2,204.2,182.0,2.4,-0.4,26.49,36.58,1.9192,376.3951],
    [11107,1532804935,56.9044,-111.5596,537.0,205.0,181.2,2.1,-0.5,26.56,36.48,1.9186,376.4631],
    [11108,1532804936,56.9038,-111.5596,538.2,206.2,181.2,2.2,-0.8,26.48,35.94,1.9191,376.164],
    [11109,1532804937,56.9033,-111.5596,539.9,206.9,180.5,1.7,-0.5,26.45,36.01,1.9211,376.2677],
    [11110,1532804938,56.9027,-111.5595,540.8,207.8,181.2,2.4,-0.2,26.56,36.19,1.921,375.5611],
    [11111,1532804939,56.9022,-111.5595,541.6,208.6,181.6,2.7,-0.6,26.98,36.11,1.9205,375.9795],
    [11112,1532804940,56.9016,-111.5595,542.3,209.3,181.4,2.7,-0.5,25.99,36.8,1.9207,375.9795],
    [11113,1532804941,56.9011,-111.5595,542.6,208.6,181.6,3.0,-0.9,26.04,37.42,1.921,376.679],
    [11114,1532804942,56.9005,-111.5595,542.9,208.9,181.6,2.9,-0.2,26.3,37.25,1.9216,375.2584],
    [11115,1532804943,56.9,-111.5595,542.8,208.8,181.5,2.6,0.5,26.44,37.09,1.9197,376.7493],
    [11116,1532804944,56.8995,-111.5594,543.2,209.2,182.1,2.9,0.6,26.59,37.63,1.9196,375.4524],
    [11117,1532804945,56.8989,-111.5594,543.9,209.9,183.3,3.7,0.7,26.42,37.05,1.919,376.3524],
    [11118,1532804946,56.8984,-111.5594,544.8,209.8,183.7,3.7,0.5,26.47,36.9,1.9188,375.8925],
    [11119,1532804947,56.8978,-111.5594,546.6,211.6,184.0,3.8,1.6,26.38,36.79,1.9201,375.4991],
    [11120,1532804948,56.8972,-111.5595,548.7,213.7,183.7,3.4,2.1,26.12,36.87,1.9189,375.6516],
    [11121,1532804949,56.8967,-111.5595,551.4,216.4,183.0,2.9,2.4,26.48,37.33,1.9197,375.7572],
    [11122,1532804950,56.8962,-111.5595,554.9,219.9,183.0,3.1,3.0,26.54,36.88,1.92,375.7014],
    [11123,1532804951,56.8956,-111.5595,558.2,223.2,183.4,3.5,2.3,26.71,37.24,1.9189,375.3145],
    [11124,1532804952,56.8951,-111.5595,560.6,225.3,183.8,4.0,2.9,27.1,36.02,1.9212,374.8894],
    [11125,1532804953,56.8946,-111.5595,562.6,227.6,183.8,4.3,5.4,26.42,37.49,1.9163,375.3097],
    [11126,1532804954,56.8941,-111.5595,563.6,228.6,183.4,4.2,5.6,26.54,37.14,1.911,374.9587],
    [11127,1532804955,56.8935,-111.5595,563.8,228.8,183.4,4.1,5.9,26.64,37.12,1.9154,375.8448],
    [11128,1532804956,56.893,-111.5595,563.5,228.5,182.7,3.4,6.4,27.28,35.87,1.9204,375.6454],
    [11129,1532804957,56.8925,-111.5594,563.1,228.1,182.9,3.6,5.2,26.37,36.27,1.9258,376.1736],
    [11130,1532804958,56.892,-111.5594,563.0,228.0,183.2,3.8,5.5,26.55,36.41,1.9291,374.775],
    [11131,1532804959,56.8914,-111.5594,563.5,227.8,183.1,3.8,6.3,26.83,37.24,1.9297,373.5075],
    [11132,1532804960,56.8909,-111.5594,563.8,227.8,182.6,3.4,6.3,26.19,38.34,1.93,374.5173],
    [11133,1532804961,56.8904,-111.5594,564.7,227.7,182.2,3.4,6.4,26.59,39.34,1.9289,374.3265],
    [11134,1532804962,56.8898,-111.5594,564.9,227.9,182.6,3.7,7.3,26.53,41.04,1.9274,374.9751],
    [11135,1532804963,56.8893,-111.5594,565.0,227.3,182.6,3.7,7.0,26.49,40.76,1.9289,373.1217],
    [11136,1532804964,56.8888,-111.5594,565.8,227.7,182.1,3.3,6.7,26.0,40.68,1.9287,374.6971],
    [11137,1532804965,56.8882,-111.5594,567.0,229.0,180.7,2.4,6.7,27.25,39.96,1.927,373.2225],
    [11138,1532804966,56.8877,-111.5593,568.6,230.6,180.5,2.7,7.0,26.61,41.25,1.9256,373.5436],
    [11139,1532804967,56.8872,-111.5593,568.8,230.1,182.2,4.6,6.4,26.5,41.58,1.9235,373.5436],
    [11140,1532804968,56.8866,-111.5593,567.6,228.6,182.8,4.7,6.0,26.44,40.63,1.9221,373.7513],
    [11141,1532804969,56.8861,-111.5592,566.0,227.0,183.1,4.7,5.8,26.89,39.91,1.9218,373.3279],
    [11142,1532804970,56.8855,-111.5592,564.0,224.0,182.7,3.8,5.1,26.46,40.73,1.9228,373.6858],
    [11143,1532804971,56.885,-111.5592,562.3,222.3,180.8,2.2,4.2,26.16,39.93,1.9232,373.6858],
    [11144,1532804972,56.8845,-111.5592,562.4,221.4,181.7,3.7,3.3,26.72,39.16,1.9238,374.2862],
    [11145,1532804973,56.8839,-111.5592,562.6,220.9,181.2,3.1,2.4,26.81,39.37,1.9238,374.577],
    [11146,1532804974,56.8833,-111.5591,563.5,221.5,181.1,3.1,1.6,26.53,39.41,1.9243,374.577],
    [11147,1532804975,56.8828,-111.5591,564.7,221.7,181.8,3.3,1.1,26.56,40.06,1.9253,374.6021],
    [11148,1532804976,56.8822,-111.5591,566.6,223.6,181.1,2.1,-0.7,26.88,39.14,1.9252,374.0181],
    [11149,1532804977,56.8817,-111.5591,568.1,224.1,181.6,3.3,0.6,26.95,39.5,1.924,373.3808],
    [11150,1532804978,56.8811,-111.559,568.9,224.9,183.2,4.9,0.2,26.52,40.12,1.9243,373.3673],
    [11151,1532804979,56.8805,-111.559,570.0,224.9,181.7,3.4,0.0,26.26,40.37,1.9249,374.5802],
    [11152,1532804980,56.88,-111.559,571.5,226.5,181.9,3.9,-1.1,26.6,41.27,1.926,374.0432],
    [11153,1532804981,56.8794,-111.559,573.2,228.2,180.3,1.8,-1.6,26.58,41.02,1.9256,372.4288],
    [11154,1532804982,56.8788,-111.5589,574.6,229.5,179.1,0.7,0.0,26.28,41.79,1.9254,372.303],
    [11155,1532804983,56.8782,-111.5589,575.2,231.2,180.4,2.3,0.2,26.46,41.52,1.9229,372.2408],
    [11156,1532804984,56.8777,-111.5589,576.3,232.3,180.9,2.8,1.8,26.34,41.34,1.9226,374.2384],
    [11157,1532804985,56.8771,-111.5588,577.5,233.5,179.9,1.9,2.6,26.45,41.18,1.9221,373.9248],
    [11158,1532804986,56.8765,-111.5588,578.1,232.4,181.2,3.2,3.2,26.59,41.31,1.9224,373.9248],
    [11159,1532804987,56.876,-111.5588,579.4,232.3,181.6,2.8,1.8,26.52,41.13,1.9248,373.7684],
    [11160,1532804988,56.8754,-111.5588,580.7,232.7,181.4,2.3,1.8,26.42,40.05,1.9242,372.3076],
    [11161,1532804989,56.8748,-111.5588,582.1,233.1,182.7,3.3,3.5,26.44,40.04,1.9236,373.7879],
    [11162,1532804990,56.8742,-111.5588,583.6,234.3,182.8,3.1,4.0,26.22,40.3,1.9233,375.0803],
    [11163,1532804991,56.8737,-111.5588,584.9,234.9,183.1,3.3,4.1,26.43,40.55,1.9236,375.1859],
    [11164,1532804992,56.8731,-111.5588,586.2,235.5,183.8,3.9,3.8,26.38,40.34,1.9242,373.6321],
    [11165,1532804993,56.8726,-111.5588,587.7,236.7,183.8,4.0,4.5,26.84,39.31,1.9212,374.0113],
    [11166,1532804994,56.872,-111.5588,589.8,237.8,184.5,5.0,4.4,26.88,38.92,1.9227,373.7618],
    [11167,1532804995,56.8714,-111.5588,591.8,239.1,184.6,4.9,5.2,26.19,39.07,1.9228,374.2814],
    [11168,1532804996,56.8709,-111.5588,594.1,240.8,184.1,4.2,4.8,26.33,38.91,1.9244,374.2814],
    [11169,1532804997,56.8703,-111.5588,596.2,242.2,184.5,4.3,4.5,27.02,38.47,1.9234,374.9761],
    [11170,1532804998,56.8698,-111.5588,598.6,243.6,183.7,3.1,4.4,25.83,39.55,1.9229,373.9556],
    [11171,1532804999,56.8692,-111.5589,600.8,244.8,183.3,2.7,3.9,26.85,39.0,1.923,373.9556],
    [11172,1532805000,56.8687,-111.5589,602.6,246.6,184.6,3.6,5.1,26.42,40.41,1.9227,373.5878],
    [11173,1532805001,56.8682,-111.5589,605.1,248.3,182.4,0.5,6.4,26.53,40.01,1.9232,374.5052],
    [11174,1532805002,56.8676,-111.5589,607.9,250.9,180.5,-0.9,7.9,25.94,40.33,1.9226,373.371],
    [11175,1532805003,56.867,-111.559,609.7,252.7,182.7,1.9,8.2,25.77,40.22,1.9222,373.371],
    [11176,1532805004,56.8665,-111.559,611.5,253.5,181.8,0.9,7.9,26.3,39.86,1.9219,374.0973],
    [11177,1532805005,56.8659,-111.559,614.2,256.2,180.4,0.2,7.5,26.36,39.65,1.9208,373.5871],
    [11178,1532805006,56.8654,-111.559,616.0,258.0,182.0,2.4,7.1,26.95,39.09,1.9214,373.5871],
    [11179,1532805007,56.8648,-111.559,616.7,257.7,181.7,2.1,8.0,25.72,39.52,1.9217,373.8666],
    [11180,1532805008,56.8643,-111.559,616.6,257.6,182.3,3.7,6.0,26.33,40.0,1.9216,373.9053],
    [11181,1532805009,56.8637,-111.559,614.5,255.2,185.1,6.3,4.5,26.39,39.74,1.9239,374.6653],
    [11182,1532805010,56.8631,-111.559,612.9,252.9,183.6,4.1,3.8,26.63,39.41,1.9221,374.4353],
    [11183,1532805011,56.8626,-111.559,611.3,251.3,184.5,4.8,3.7,26.11,39.64,1.9222,373.046],
    [11184,1532805012,56.862,-111.559,610.6,250.6,186.1,5.8,2.6,26.58,39.17,1.922,373.046],
    [11185,1532805013,56.8614,-111.559,609.8,249.8,184.8,4.3,2.2,26.61,39.52,1.9236,374.0773],
    [11186,1532805014,56.8608,-111.559,608.3,248.3,185.0,4.5,1.7,26.38,40.11,1.9236,374.1441],
    [11187,1532805015,56.8603,-111.5591,607.2,247.2,185.8,5.3,2.3,26.08,39.7,1.9239,373.866],
    [11188,1532805016,56.8597,-111.5591,605.8,245.5,185.4,5.2,3.1,26.83,39.41,1.9258,372.9617],
    [11189,1532805017,56.8591,-111.5591,603.9,242.9,186.0,5.8,3.0,25.81,40.11,1.9238,373.7203],
    [11190,1532805018,56.8586,-111.5591,601.8,240.8,185.1,4.2,2.8,25.95,40.31,1.9236,374.1564],
    [11191,1532805019,56.858,-111.5592,601.0,240.0,182.9,1.6,3.4,26.38,40.53,1.9246,373.37],
    [11192,1532805020,56.8574,-111.5592,601.8,240.8,184.7,3.6,3.9,25.89,39.88,1.9249,373.37],
    [11193,1532805021,56.8569,-111.5592,602.9,241.9,186.3,5.2,3.8,25.95,39.87,1.9239,373.6985],
    [11194,1532805022,56.8563,-111.5593,603.8,242.8,186.2,5.0,2.1,26.15,39.99,1.9236,374.6385],
    [11195,1532805023,56.8557,-111.5593,604.4,243.4,186.2,4.4,2.0,25.86,40.07,1.9233,374.0024],
    [11196,1532805024,56.8551,-111.5593,604.7,243.7,184.1,1.8,2.4,25.84,40.42,1.9231,374.4807],
    [11197,1532805025,56.8546,-111.5594,604.3,243.3,184.4,2.4,1.4,26.76,39.83,1.9241,374.5328],
    [11198,1532805026,56.854,-111.5594,602.6,241.6,186.3,4.4,0.8,25.8,40.26,1.9241,373.9731],
    [11199,1532805027,56.8534,-111.5595,600.6,239.6,185.3,3.0,0.7,26.0,39.9,1.9223,374.4416],
    [11200,1532805028,56.8528,-111.5595,599.9,238.9,184.2,2.0,0.4,26.98,39.5,1.9234,372.8412],
    [11201,1532805029,56.8523,-111.5596,599.4,238.4,183.9,1.9,0.0,26.77,39.9,1.9238,372.8412],
    [11202,1532805030,56.8517,-111.5596,598.6,237.6,183.6,1.9,0.0,26.4,39.7,1.9228,374.9642],
    [11203,1532805031,56.8511,-111.5596,597.5,236.2,183.1,1.7,-0.7,26.43,39.64,1.9234,373.7498],
    [11204,1532805032,56.8505,-111.5597,596.5,234.5,182.8,1.2,-2.0,26.37,40.53,1.9231,373.8686],
    [11205,1532805033,56.85,-111.5597,595.3,232.7,182.8,1.3,-1.7,26.34,40.4,1.9233,372.9781],
    [11206,1532805034,56.8494,-111.5597,593.6,229.5,184.5,3.3,-1.2,26.33,40.79,1.9227,373.7601],
    [11207,1532805035,56.8488,-111.5598,592.0,227.6,184.1,3.3,-0.5,26.57,39.72,1.9215,373.7601],
    [11208,1532805036,56.8482,-111.5598,591.2,226.1,183.6,3.4,-0.3,26.94,39.41,1.9217,373.486],
    [11209,1532805037,56.8476,-111.5598,591.3,226.4,182.8,2.9,-0.5,26.53,39.39,1.9205,374.5279],
    [11210,1532805038,56.8471,-111.5598,590.7,226.7,183.0,3.5,-0.7,26.31,39.34,1.9205,374.4976],
    [11211,1532805039,56.8465,-111.5598,589.0,224.8,183.8,4.2,-0.8,26.46,39.29,1.9205,374.6656],
    [11212,1532805040,56.8459,-111.5598,588.4,223.3,182.3,2.7,-0.8,26.12,39.02,1.9208,374.2707],
    [11213,1532805041,56.8453,-111.5598,589.3,222.2,180.6,1.1,-0.6,26.08,39.11,1.922,374.2276],
    [11214,1532805042,56.8448,-111.5598,590.2,221.4,180.5,1.3,-0.4,25.97,38.97,1.9227,373.5896],
    [11215,1532805043,56.8442,-111.5597,590.5,220.4,181.5,2.3,-0.4,26.46,38.75,1.922,374.1654],
    [11216,1532805044,56.8436,-111.5597,590.5,219.5,181.2,1.8,-0.7,26.23,39.62,1.9224,373.7606],
    [11217,1532805045,56.8431,-111.5597,591.0,219.2,181.0,1.9,-0.5,26.77,38.45,1.9225,374.9082],
    [11218,1532805046,56.8425,-111.5597,592.3,220.3,181.5,2.7,-0.3,26.92,38.53,1.9226,375.2796],
    [11219,1532805047,56.8419,-111.5597,594.1,221.0,180.3,1.4,-0.1,25.84,39.26,1.9232,373.8752],
    [11220,1532805048,56.8414,-111.5597,594.7,221.7,181.2,2.2,-0.2,26.09,39.25,1.9225,375.1597],
    [11221,1532805049,56.8408,-111.5597,594.9,220.9,183.7,3.8,-0.5,26.81,38.81,1.9232,375.1597],
    [11222,1532805050,56.8402,-111.5597,595.2,220.1,183.3,2.8,0.5,26.29,39.3,1.9227,375.4481],
    [11223,1532805051,56.8397,-111.5597,596.2,221.2,183.5,3.0,1.2,26.71,39.16,1.9232,375.236],
    [11224,1532805052,56.8391,-111.5597,597.8,221.8,183.6,3.5,1.1,26.19,40.06,1.923,375.3818],
    [11225,1532805053,56.8386,-111.5597,600.1,223.1,182.9,4.3,1.2,26.85,38.48,1.9197,376.2133],
    [11226,1532805054,56.838,-111.5597,602.6,225.6,180.4,3.8,2.1,26.31,39.41,1.9202,375.1663],
    [11227,1532805055,56.8375,-111.5596,604.7,226.7,174.9,1.5,3.4,26.01,39.26,1.9202,374.867],
    [11228,1532805056,56.8369,-111.5594,606.7,228.7,170.9,1.7,4.1,26.03,39.83,1.9202,376.5285],
    [11229,1532805057,56.8364,-111.5592,607.9,229.9,167.3,1.9,3.6,25.62,38.96,1.9202,375.5915],
    [11230,1532805058,56.8359,-111.5589,608.3,230.5,161.9,0.9,3.0,26.16,39.12,1.9199,374.7707],
    [11231,1532805059,56.8353,-111.5585,609.2,232.2,157.2,0.9,2.6,25.86,38.9,1.9212,374.3898],
    [11232,1532805060,56.8348,-111.5581,610.5,234.6,154.5,2.5,3.0,25.93,39.6,1.9203,375.0792],
    [11233,1532805061,56.8344,-111.5575,612.8,235.8,150.4,2.2,3.1,25.91,38.8,1.9203,374.457],
    [11234,1532805062,56.8339,-111.557,615.2,237.5,146.0,0.7,4.4,25.74,38.74,1.9241,375.2726],
    [11235,1532805063,56.8335,-111.5563,616.2,237.9,143.7,0.3,6.4,26.74,38.46,1.923,373.8916],
    [11236,1532805064,56.8331,-111.5556,615.8,237.0,140.2,-0.5,6.8,26.33,39.61,1.9214,372.7796],
    [11237,1532805065,56.8327,-111.5549,614.7,235.7,136.3,-0.3,6.0,26.07,39.69,1.9233,374.8469],
    [11238,1532805066,56.8323,-111.5541,613.0,235.0,133.5,0.7,5.9,26.29,39.74,1.9216,373.2185],
    [11239,1532805067,56.832,-111.5533,611.1,234.1,129.6,0.9,5.1,26.21,39.75,1.9207,374.736],
    [11240,1532805068,56.8316,-111.5524,609.8,234.2,126.2,1.1,5.0,26.24,39.57,1.921,374.6414],
    [11241,1532805069,56.8314,-111.5516,608.9,234.8,123.0,0.2,5.3,26.71,39.36,1.9221,373.922],
    [11242,1532805070,56.8311,-111.5506,608.5,237.5,119.6,-0.3,5.2,25.95,39.82,1.924,374.7295],
    [11243,1532805071,56.8308,-111.5496,608.4,239.7,117.1,-0.3,5.4,26.19,39.87,1.9223,374.1794],
    [11244,1532805072,56.8306,-111.5486,607.5,239.5,114.0,-0.6,4.8,26.07,40.56,1.9227,373.9906],
    [11245,1532805073,56.8304,-111.5476,605.9,236.9,111.6,-0.5,4.3,25.95,40.13,1.9212,374.3874],
    [11246,1532805074,56.8303,-111.5466,604.1,236.1,108.7,-1.0,3.5,26.1,40.16,1.9216,373.8311],
    [11247,1532805075,56.8301,-111.5456,601.7,233.9,105.7,-0.7,2.9,26.26,40.24,1.9204,374.2558],
    [11248,1532805076,56.83,-111.5445,599.5,233.5,103.4,-0.9,3.6,26.28,40.99,1.922,373.2837],
    [11249,1532805077,56.8299,-111.5434,597.3,232.2,99.7,-0.9,2.6,26.37,40.23,1.9219,373.2837],
    [11250,1532805078,56.8298,-111.5424,594.9,231.5,96.7,-0.5,2.2,25.83,40.15,1.9223,372.5967],
    [11251,1532805079,56.8298,-111.5412,592.3,230.4,93.4,0.0,1.5,26.65,39.59,1.9214,373.7479],
    [11252,1532805080,56.8298,-111.5401,589.9,228.9,91.3,-0.3,1.8,27.08,39.67,1.9198,373.5547],
    [11253,1532805081,56.8298,-111.539,588.1,228.1,89.2,0.2,1.5,26.64,39.72,1.9198,374.5415],
    [11254,1532805082,56.8298,-111.5379,587.2,229.2,87.5,0.4,0.6,26.31,39.72,1.9202,373.2022],
    [11255,1532805083,56.8299,-111.5368,587.0,229.0,88.1,0.9,1.3,25.89,39.45,1.9206,373.7486],
    [11256,1532805084,56.8299,-111.5357,587.3,230.3,88.3,2.8,1.1,26.88,38.53,1.9205,374.3244],
    [11257,1532805085,56.8299,-111.5345,588.7,231.7,87.9,3.8,0.2,26.21,38.98,1.92,374.2836],
    [11258,1532805086,56.8299,-111.5334,590.2,233.2,89.2,3.7,1.4,26.49,38.99,1.92,373.5848],
    [11259,1532805087,56.83,-111.5323,590.9,233.2,92.0,3.9,3.9,26.5,38.58,1.9196,372.8024],
    [11260,1532805088,56.83,-111.5311,590.0,232.3,93.5,3.8,4.8,27.05,38.7,1.9197,374.5322],
    [11261,1532805089,56.83,-111.53,588.7,231.0,93.5,2.7,4.4,26.02,39.28,1.9204,374.3513],
    [11262,1532805090,56.83,-111.5289,587.5,230.5,93.7,1.9,4.6,26.66,38.54,1.9188,373.5653],
    [11263,1532805091,56.83,-111.5277,585.9,229.9,92.9,2.6,3.4,26.0,39.22,1.9187,374.8738],
    [11264,1532805092,56.83,-111.5266,583.7,228.7,91.3,3.0,2.4,26.29,39.01,1.9213,374.6449],
    [11265,1532805093,56.83,-111.5255,581.6,227.6,92.2,3.9,3.8,26.32,38.75,1.9211,373.8286],
    [11266,1532805094,56.83,-111.5243,579.3,226.0,90.8,3.3,2.6,26.35,39.08,1.9202,374.0642],
    [11267,1532805095,56.83,-111.5232,578.1,225.1,90.0,3.3,2.0,26.23,39.0,1.9193,374.916],
    [11268,1532805096,56.83,-111.522,577.1,224.1,90.1,4.8,2.1,25.95,38.87,1.9186,374.1876],
    [11269,1532805097,56.8301,-111.5209,576.3,224.1,90.2,6.0,2.3,26.69,38.64,1.9192,374.4368],
    [11270,1532805098,56.8301,-111.5197,575.6,223.6,90.0,5.3,2.5,26.34,38.91,1.9201,374.641],
    [11271,1532805099,56.8301,-111.5186,574.1,222.0,89.5,5.3,1.7,26.27,38.38,1.9201,374.1927],
    [11272,1532805100,56.8301,-111.5174,573.6,222.6,88.4,5.6,0.8,26.01,38.76,1.9204,374.1927],
    [11273,1532805101,56.8301,-111.5162,573.2,222.2,91.3,6.0,3.6,25.92,38.88,1.9223,373.7495],
    [11274,1532805102,56.8302,-111.515,573.3,223.0,92.2,6.2,3.8,26.1,38.71,1.9224,374.5976],
    [11275,1532805103,56.8302,-111.5138,574.6,224.6,91.3,5.7,2.3,26.28,38.51,1.9223,374.7592],
    [11276,1532805104,56.8302,-111.5127,575.7,225.7,92.4,5.5,3.2,26.0,39.49,1.9212,374.7897],
    [11277,1532805105,56.8302,-111.5115,576.5,226.5,94.0,5.9,4.2,26.63,38.7,1.922,372.8838],
    [11278,1532805106,56.8302,-111.5104,578.2,228.2,93.0,6.2,3.1,26.26,39.01,1.9211,374.4563],
    [11279,1532805107,56.8302,-111.5092,580.7,231.9,94.4,5.8,4.3,26.07,38.85,1.9202,374.2389],
    [11280,1532805108,56.8302,-111.5081,583.4,234.4,94.4,4.8,3.7,26.21,39.15,1.9213,373.7983],
    [11281,1532805109,56.8302,-111.507,585.8,236.8,93.8,3.6,3.1,25.93,39.35,1.9231,373.7339],
    [11282,1532805110,56.8301,-111.5058,586.8,237.8,96.2,2.6,5.9,27.08,38.54,1.9231,373.0516],
    [11283,1532805111,56.8301,-111.5047,588.1,239.1,95.4,2.6,4.9,26.89,39.31,1.9242,373.8484],
    [11284,1532805112,56.8301,-111.5036,589.2,240.3,92.8,1.5,2.4,26.19,39.57,1.9237,373.8484],
    [11285,1532805113,56.8301,-111.5025,590.3,241.6,92.8,0.4,2.7,26.33,39.71,1.923,374.5968],
    [11286,1532805114,56.8301,-111.5014,590.9,242.8,92.9,-0.1,2.9,26.38,39.58,1.9237,374.5968],
    [11287,1532805115,56.8301,-111.5002,591.0,243.0,92.4,0.7,2.5,26.27,40.11,1.9243,373.9939],
    [11288,1532805116,56.8301,-111.4991,592.3,244.3,92.6,1.2,2.8,25.91,39.55,1.9234,374.1799],
    [11289,1532805117,56.8301,-111.498,592.8,244.8,91.8,1.6,2.1,26.19,40.2,1.9245,374.8951],
    [11290,1532805118,56.8301,-111.4969,592.0,244.0,91.4,1.1,2.2,27.02,38.96,1.9247,373.4837],
    [11291,1532805119,56.8301,-111.4958,590.9,242.9,91.0,0.5,2.6,26.55,39.29,1.9235,374.2261],
    [11292,1532805120,56.8301,-111.4947,590.1,242.1,93.2,1.6,5.2,26.44,39.5,1.9237,373.19],
    [11293,1532805121,56.8301,-111.4936,588.5,240.5,93.3,1.7,5.2,26.59,39.08,1.9247,374.1118],
    [11294,1532805122,56.8301,-111.4925,587.7,238.7,92.4,2.0,4.0,26.84,39.32,1.9258,373.6931],
    [11295,1532805123,56.8302,-111.4914,587.3,238.3,92.3,2.2,3.8,26.14,39.49,1.9229,374.4875],
    [11296,1532805124,56.8302,-111.4903,586.4,238.1,92.6,2.0,3.9,26.51,39.71,1.9232,374.6192],
    [11297,1532805125,56.8302,-111.4892,584.8,236.8,92.9,2.0,4.2,26.94,39.04,1.9206,375.8681],
    [11298,1532805126,56.8302,-111.4881,582.0,234.0,93.0,1.6,4.1,26.38,39.29,1.9166,374.9007],
    [11299,1532805127,56.8302,-111.487,578.9,231.6,90.0,2.2,1.5,26.26,38.58,1.9147,374.9074],
    [11300,1532805128,56.8302,-111.4859,577.6,230.6,87.0,2.9,-0.1,27.08,37.31,1.9157,374.7157],
    [11301,1532805129,56.8302,-111.4847,576.5,229.5,87.8,2.7,1.2,26.32,37.27,1.9221,374.7157],
    [11302,1532805130,56.8303,-111.4836,575.3,229.3,88.1,3.1,1.3,26.47,37.85,1.9243,375.58],
    [11303,1532805131,56.8303,-111.4825,574.5,227.5,90.8,4.0,3.2,26.46,37.21,1.926,374.5542],
    [11304,1532805132,56.8303,-111.4814,573.6,226.6,93.2,4.8,3.9,26.38,38.11,1.9241,374.6806],
    [11305,1532805133,56.8303,-111.4802,572.7,225.7,92.7,4.9,2.3,26.29,38.67,1.922,374.3348],
    [11306,1532805134,56.8303,-111.4791,571.4,224.1,96.1,4.5,5.2,26.43,39.29,1.9223,374.7524],
    [11307,1532805135,56.8303,-111.478,569.0,222.0,97.0,4.0,5.1,26.11,38.54,1.9229,373.8531],
    [11308,1532805136,56.8303,-111.4769,567.5,220.5,95.9,4.3,3.7,26.3,38.46,1.9252,374.4843],
    [11309,1532805137,56.8302,-111.4757,566.5,220.5,96.4,4.8,4.3,27.19,38.1,1.9247,374.7843],
    [11310,1532805138,56.8302,-111.4746,564.8,218.8,95.3,4.7,3.6,26.46,39.37,1.9236,374.3368],
    [11311,1532805139,56.8302,-111.4735,563.1,218.1,94.5,4.9,3.1,26.1,38.87,1.9246,374.7766],
    [11312,1532805140,56.8302,-111.4723,561.6,216.6,92.1,3.8,1.6,26.02,38.73,1.924,374.9819],
    [11313,1532805141,56.8302,-111.4712,558.8,213.8,93.1,2.7,3.7,26.55,38.78,1.923,374.3583],
    [11314,1532805142,56.8302,-111.4701,555.3,211.3,91.9,1.5,3.2,26.8,38.87,1.9243,374.7455],
    [11315,1532805143,56.8302,-111.4689,553.6,209.6,92.3,0.6,4.4,26.26,39.36,1.9251,373.4608],
    [11316,1532805144,56.8302,-111.4678,553.3,209.3,94.2,-0.6,6.4,26.07,39.98,1.927,373.1117],
    [11317,1532805145,56.8302,-111.4666,553.2,209.2,93.1,-1.6,4.7,26.72,39.76,1.9272,373.3455],
    [11318,1532805146,56.8302,-111.4655,553.6,209.6,92.6,-1.2,4.2,26.23,40.28,1.9267,373.2653],
    [11319,1532805147,56.8302,-111.4644,554.5,210.5,94.0,-2.6,5.6,26.36,41.35,1.9261,372.1743],
    [11320,1532805148,56.8302,-111.4632,554.8,210.8,93.3,-4.4,4.5,27.11,40.98,1.9288,373.6968],
    [11321,1532805149,56.8302,-111.4621,554.6,210.6,94.6,-4.4,5.9,26.29,41.63,1.9262,373.8956],
    [11322,1532805150,56.8302,-111.461,554.0,210.0,94.8,-4.3,5.8,26.89,40.85,1.9276,372.5903],
    [11323,1532805151,56.8302,-111.4599,553.7,209.7,93.8,-3.8,4.8,26.83,40.95,1.9305,371.7678],
    [11324,1532805152,56.8302,-111.4588,553.2,210.2,94.2,-3.9,5.6,27.28,40.26,1.9294,371.4371],
    [11325,1532805153,56.8302,-111.4577,552.1,209.1,93.6,-3.3,5.0,26.45,41.43,1.9292,372.5596],
    [11326,1532805154,56.8302,-111.4566,551.1,209.1,92.3,-3.9,3.9,26.7,41.72,1.9262,373.4871],
    [11327,1532805155,56.8302,-111.4555,551.3,209.3,93.0,-3.7,4.8,26.53,41.81,1.9231,373.5486],
    [11328,1532805156,56.8303,-111.4544,552.0,211.0,93.0,-3.2,4.8,26.53,42.07,1.9232,373.5486],
    [11329,1532805157,56.8303,-111.4532,552.4,212.4,92.8,-3.1,4.3,26.41,40.45,1.9233,373.7206],
    [11330,1532805158,56.8303,-111.4522,552.6,213.6,92.8,-3.2,4.2,26.49,40.15,1.9257,373.163],
    [11331,1532805159,56.8303,-111.4511,552.9,215.0,92.2,-4.0,3.8,26.85,39.58,1.9267,373.2948],
    [11332,1532805160,56.8303,-111.4499,552.0,214.7,92.4,-4.3,4.2,26.89,39.87,1.9274,372.4027],
    [11333,1532805161,56.8303,-111.4488,551.3,215.3,92.0,-3.6,4.0,26.58,40.41,1.9292,371.7904],
    [11334,1532805162,56.8303,-111.4477,550.1,215.1,91.7,-2.6,3.9,27.17,40.3,1.9286,371.277],
    [11335,1532805163,56.8303,-111.4466,548.7,215.4,91.8,-1.4,4.2,27.1,40.75,1.9247,372.9281],
    [11336,1532805164,56.8303,-111.4455,545.7,214.7,92.3,-1.4,4.7,27.33,40.77,1.9264,371.1392],
    [11337,1532805165,56.8304,-111.4444,541.4,215.8,92.6,0.2,5.0,26.18,41.55,1.9269,371.1392],
    [11338,1532805166,56.8304,-111.4432,536.2,219.5,93.0,0.9,4.7,26.74,41.73,1.9277,372.1214],
    [11339,1532805167,56.8304,-111.4421,531.6,226.6,92.8,1.7,4.4,26.23,41.21,1.9252,372.3012],
    [11340,1532805168,56.8304,-111.441,527.4,234.3,93.7,2.7,4.8,26.62,41.19,1.9225,372.2955],
    [11341,1532805169,56.8304,-111.4398,524.8,245.8,93.1,4.7,3.7,26.59,40.93,1.9207,372.6321],
    [11342,1532805170,56.8304,-111.4386,522.3,255.3,93.5,5.0,3.9,26.27,40.48,1.921,373.1936],
    [11343,1532805171,56.8304,-111.4375,519.3,263.6,93.4,5.6,3.4,26.53,39.94,1.9222,372.9967],
    [11344,1532805172,56.8304,-111.4363,516.1,265.1,92.9,6.4,2.8,26.59,39.44,1.9181,372.58],
    [11345,1532805173,56.8304,-111.4351,513.8,264.7,93.1,7.7,3.1,26.66,38.68,1.919,373.9501],
    [11346,1532805174,56.8304,-111.434,512.1,264.1,93.3,8.1,3.6,27.23,37.76,1.9215,372.8435],
    [11347,1532805175,56.8304,-111.4328,510.7,263.7,93.1,9.1,2.9,26.63,38.38,1.924,372.8435],
    [11348,1532805176,56.8304,-111.4316,509.8,263.5,92.4,9.6,2.1,26.42,38.59,1.9276,372.9733],
    [11349,1532805177,56.8304,-111.4305,508.3,263.3,93.6,10.0,3.1,27.0,38.86,1.9268,371.9231],
    [11350,1532805178,56.8304,-111.4293,506.2,262.2,94.0,11.2,3.1,26.57,40.15,1.9274,371.7438],
    [11351,1532805179,56.8304,-111.4281,504.0,262.0,94.7,12.0,3.5,26.46,41.36,1.9265,372.1458],
    [11352,1532805180,56.8303,-111.427,501.7,260.7,95.7,12.7,3.8,26.28,40.99,1.9254,372.3876],
    [11353,1532805181,56.8303,-111.4258,499.1,258.1,95.9,12.5,3.4,27.02,41.02,1.9242,372.2034],
    [11354,1532805182,56.8303,-111.4247,496.5,254.5,96.1,12.2,3.1,26.61,41.29,1.9227,372.0511],
    [11355,1532805183,56.8303,-111.4235,493.6,250.4,95.8,13.0,2.9,26.31,41.09,1.9238,373.0263],
    [11356,1532805184,56.8302,-111.4224,490.7,247.5,96.3,13.6,3.9,26.35,41.59,1.9254,372.2704],
    [11357,1532805185,56.8302,-111.4212,488.2,244.2,96.1,14.0,4.6,26.81,40.8,1.9269,370.7606],
    [11358,1532805186,56.8302,-111.42,486.0,242.0,95.2,13.9,4.4,26.66,41.35,1.9286,371.5548],
    [11359,1532805187,56.8302,-111.4189,485.0,242.7,93.4,13.9,3.5,26.3,42.21,1.9275,371.2671],
    [11360,1532805188,56.8302,-111.4178,487.5,247.8,91.5,13.4,2.4,25.9,42.66,1.9266,371.7567],
    [11361,1532805189,56.8302,-111.4166,490.9,252.9,90.5,13.7,1.8,26.33,43.24,1.9264,372.0796],
    [11362,1532805190,56.8302,-111.4155,494.2,256.2,90.7,13.9,2.2,26.03,43.17,1.9263,370.2026],
    [11363,1532805191,56.8303,-111.4143,497.1,259.1,90.8,12.3,2.0,26.42,43.37,1.9254,372.107],
    [11364,1532805192,56.8303,-111.4132,501.1,263.1,91.6,11.4,2.8,26.28,44.0,1.9248,371.1303],
    [11365,1532805193,56.8303,-111.4121,507.0,268.3,92.9,10.2,3.7,27.0,43.04,1.9234,371.8168],
    [11366,1532805194,56.8303,-111.411,513.5,274.5,90.7,9.6,1.4,26.15,43.28,1.9247,371.6977],
    [11367,1532805195,56.8303,-111.4099,520.2,276.9,90.2,8.7,1.1,26.06,43.03,1.9257,372.0805],
    [11368,1532805196,56.8303,-111.4088,527.3,272.3,91.0,7.7,1.7,26.66,42.36,1.9252,372.0805],
    [11369,1532805197,56.8303,-111.4077,534.4,260.3,91.1,6.9,1.6,26.8,41.82,1.9253,372.2043],
    [11370,1532805198,56.8303,-111.4067,540.9,254.1,91.6,6.3,1.8,26.44,42.62,1.9247,372.2043],
    [11371,1532805199,56.8303,-111.4057,547.0,248.7,92.0,5.2,1.9,26.16,42.91,1.9272,371.6565],
    [11372,1532805200,56.8303,-111.4046,553.0,246.0,92.1,3.8,1.9,26.19,43.1,1.9267,370.1752],
    [11373,1532805201,56.8303,-111.4036,559.0,247.0,93.7,2.4,3.2,25.62,43.0,1.9255,371.1342],
    [11374,1532805202,56.8303,-111.4026,564.9,245.6,93.7,1.1,2.7,26.37,43.13,1.9259,372.1765],
    [11375,1532805203,56.8303,-111.4016,570.6,245.3,92.4,0.5,1.3,26.05,44.07,1.9252,372.9735],
    [11376,1532805204,56.8303,-111.4006,575.6,246.3,92.4,-0.4,1.5,25.88,43.66,1.9246,371.8272],
    [11377,1532805205,56.8303,-111.3997,579.3,244.6,92.6,-1.4,1.9,26.49,43.17,1.9252,373.0797],
    [11378,1532805206,56.8302,-111.3987,582.6,244.9,92.0,-1.1,1.6,25.57,44.2,1.9242,372.5154],
    [11379,1532805207,56.8302,-111.3977,585.9,244.6,91.4,-1.9,1.4,25.99,43.34,1.9237,371.6287],
    [11380,1532805208,56.8302,-111.3968,588.9,244.6,91.8,-2.0,2.1,26.58,42.96,1.9254,372.4952],
    [11381,1532805209,56.8303,-111.3958,592.3,243.5,92.2,-1.1,3.1,25.89,43.17,1.9237,372.0857],
    [11382,1532805210,56.8303,-111.3948,595.7,245.7,91.9,-1.9,3.3,25.72,42.94,1.925,372.0857],
    [11383,1532805211,56.8303,-111.3939,597.9,246.9,89.6,-2.1,1.7,25.97,42.34,1.9215,372.8393],
    [11384,1532805212,56.8303,-111.3929,599.9,248.9,88.1,-1.6,1.5,25.89,42.0,1.922,372.8145],
    [11385,1532805213,56.8303,-111.392,601.8,249.8,87.1,-1.3,1.3,26.43,41.57,1.9226,373.0932],
    [11386,1532805214,56.8304,-111.391,604.4,253.5,84.4,-1.3,-1.0,25.94,41.61,1.9238,373.667],
    [11387,1532805215,56.8304,-111.39,607.5,256.5,84.3,-1.4,-0.9,26.11,41.61,1.9241,373.585],
    [11388,1532805216,56.8305,-111.3891,609.7,259.8,86.3,-2.1,0.4,25.99,42.12,1.9242,373.6289],
    [11389,1532805217,56.8305,-111.3881,611.5,262.5,87.0,-3.0,0.7,25.89,41.78,1.9259,372.3787],
    [11390,1532805218,56.8305,-111.3872,612.4,265.4,90.0,-3.1,3.2,26.24,41.18,1.9246,372.7542],
    [11391,1532805219,56.8306,-111.3862,613.2,265.3,91.5,-3.0,3.8,26.15,41.64,1.9261,373.5592],
    [11392,1532805220,56.8306,-111.3852,614.1,265.6,90.6,-3.1,2.6,25.9,42.29,1.9255,373.6297],
    [11393,1532805221,56.8306,-111.3842,614.8,265.4,91.2,-3.5,3.1,25.99,41.52,1.9238,373.6299],
    [11394,1532805222,56.8306,-111.3833,615.1,264.9,91.7,-4.1,3.4,26.79,41.07,1.9253,373.6421],
    [11395,1532805223,56.8306,-111.3823,614.9,263.7,90.9,-3.3,2.4,26.27,41.66,1.9258,373.7124],
    [11396,1532805224,56.8306,-111.3813,613.4,261.1,91.9,-2.4,3.1,26.4,41.87,1.927,373.1694],
    [11397,1532805225,56.8306,-111.3803,612.2,259.2,91.8,-1.9,2.7,25.91,42.49,1.9277,372.0745],
    [11398,1532805226,56.8306,-111.3793,611.2,257.9,91.9,-2.1,2.9,25.52,42.75,1.9276,372.3754],
    [11399,1532805227,56.8307,-111.3783,610.4,257.5,92.5,-1.8,3.9,26.16,42.54,1.927,372.4238],
    [11400,1532805228,56.8307,-111.3772,609.9,257.1,90.9,-0.9,2.7,25.5,42.99,1.9273,373.1252],
    [11401,1532805229,56.8307,-111.3762,609.6,258.6,89.8,-0.9,2.2,25.42,42.96,1.9271,371.5788],
    [11402,1532805230,56.8307,-111.3752,609.9,260.0,90.6,-1.0,3.2,26.42,42.29,1.9268,372.3257],
    [11403,1532805231,56.8307,-111.3741,610.2,259.3,90.8,-0.2,2.9,26.1,42.54,1.9267,372.6092],
    [11404,1532805232,56.8307,-111.3731,611.3,259.2,90.8,-0.9,2.7,26.64,42.54,1.9267,372.5303],
    [11405,1532805233,56.8308,-111.372,612.4,259.3,91.2,-0.5,2.7,25.62,42.8,1.9266,371.4457],
    [11406,1532805234,56.8308,-111.371,613.0,258.9,92.2,-1.1,2.9,25.91,42.94,1.9275,372.948],
    [11407,1532805235,56.8308,-111.3699,613.1,258.1,94.1,-2.7,4.1,25.79,43.21,1.9266,371.3248],
    [11408,1532805236,56.8308,-111.3689,612.8,256.8,95.2,-2.2,4.4,25.83,44.04,1.9264,371.5188],
    [11409,1532805237,56.8307,-111.3678,612.4,255.4,94.8,-1.0,3.3,25.66,43.96,1.9271,371.5188],
    [11410,1532805238,56.8307,-111.3668,610.9,252.9,95.4,0.3,3.8,25.34,43.23,1.9277,372.0436],
    [11411,1532805239,56.8307,-111.3658,607.8,248.8,95.4,0.1,3.7,26.22,43.5,1.927,372.2709],
    [11412,1532805240,56.8307,-111.3647,604.7,245.7,94.3,-1.2,2.9,26.56,42.78,1.929,370.5727],
    [11413,1532805241,56.8307,-111.3636,602.6,243.6,94.7,-1.0,3.5,26.2,43.08,1.9263,370.5727],
    [11414,1532805242,56.8306,-111.3626,601.1,242.1,94.8,-0.7,3.4,25.66,43.55,1.9249,371.7469],
    [11415,1532805243,56.8306,-111.3615,600.4,240.4,94.5,-0.5,3.2,25.48,43.93,1.925,370.7597],
    [11416,1532805244,56.8306,-111.3604,600.1,240.1,94.5,-0.4,3.4,25.85,44.25,1.9253,372.9974],
    [11417,1532805245,56.8306,-111.3594,599.6,239.6,94.2,-0.7,3.2,26.13,43.33,1.9255,370.8354],
    [11418,1532805246,56.8306,-111.3583,598.1,237.1,94.0,-1.7,3.5,25.8,43.91,1.9268,370.1886],
    [11419,1532805247,56.8306,-111.3572,596.1,235.1,94.6,-1.3,4.0,26.06,43.33,1.9271,372.1225],
    [11420,1532805248,56.8305,-111.3561,595.1,234.1,94.0,-0.5,3.3,25.83,43.58,1.9254,372.1225],
    [11421,1532805249,56.8305,-111.3551,595.6,233.6,93.9,0.7,3.2,25.64,43.43,1.9251,371.5071],
    [11422,1532805250,56.8305,-111.354,595.4,233.4,93.4,0.9,2.7,26.0,42.86,1.9255,372.1911],
    [11423,1532805251,56.8305,-111.3529,593.5,231.5,93.2,1.3,2.6,25.45,43.4,1.924,371.2559],
    [11424,1532805252,56.8305,-111.3518,591.1,228.8,94.0,2.0,3.4,25.2,43.15,1.9238,370.962],
    [11425,1532805253,56.8305,-111.3507,589.1,226.1,94.3,2.9,3.4,25.48,42.95,1.9232,371.6509],
    [11426,1532805254,56.8305,-111.3497,587.6,224.6,94.8,3.4,3.9,26.57,42.3,1.925,371.4565],
    [11427,1532805255,56.8305,-111.3486,586.8,223.8,95.5,3.9,4.8,25.8,42.51,1.9244,371.5826],
    [11428,1532805256,56.8305,-111.3475,587.0,224.0,93.9,3.3,3.8,25.74,42.71,1.9249,371.5826],
    [11429,1532805257,56.8305,-111.3464,589.1,226.1,93.7,3.2,4.3,26.06,42.34,1.9249,371.272],
    [11430,1532805258,56.8305,-111.3453,591.9,228.9,91.8,3.0,2.4,25.68,42.85,1.9249,371.272],
    [11431,1532805259,56.8305,-111.3442,594.1,232.1,90.2,3.8,1.3,25.21,42.75,1.9243,372.3093],
    [11432,1532805260,56.8305,-111.3431,595.7,233.7,91.4,4.4,2.7,25.76,42.67,1.9238,372.8198],
    [11433,1532805261,56.8305,-111.3421,596.6,234.6,91.0,5.0,2.5,25.91,42.46,1.9232,372.3877],
    [11434,1532805262,56.8305,-111.3409,596.1,233.1,91.1,5.0,3.3,25.7,42.57,1.924,372.9221],
    [11435,1532805263,56.8305,-111.3398,594.8,231.8,91.0,5.3,3.1,25.57,42.3,1.9225,373.9688],
    [11436,1532805264,56.8305,-111.3388,593.2,229.2,90.4,6.1,2.2,25.58,42.28,1.9228,373.9688],
    [11437,1532805265,56.8306,-111.3377,592.1,228.1,92.1,6.4,2.9,25.81,42.78,1.9239,371.7648],
    [11438,1532805266,56.8306,-111.3366,590.7,226.7,93.4,6.6,3.9,25.74,42.36,1.924,371.9991],
    [11439,1532805267,56.8306,-111.3354,589.5,225.5,94.9,7.1,4.9,25.64,42.2,1.9224,372.4025],
    [11440,1532805268,56.8306,-111.3343,588.5,223.5,94.3,7.2,3.9,26.05,42.01,1.921,370.843],
    [11441,1532805269,56.8305,-111.3332,587.9,222.9,94.6,7.4,3.8,25.5,42.32,1.9194,370.843],
    [11442,1532805270,56.8305,-111.3321,588.1,222.1,94.9,7.8,3.7,25.9,41.9,1.9209,372.0082],
    [11443,1532805271,56.8305,-111.331,588.1,222.1,95.8,8.1,4.5,25.84,41.89,1.9206,371.8418],
    [11444,1532805272,56.8305,-111.3299,587.4,220.4,95.6,7.6,4.1,25.86,41.01,1.9207,372.9273],
    [11445,1532805273,56.8305,-111.3288,587.1,220.1,94.7,6.9,3.5,26.54,40.45,1.922,373.4485],
    [11446,1532805274,56.8305,-111.3277,587.2,219.2,94.5,6.2,3.8,25.75,41.01,1.925,372.2452],
    [11447,1532805275,56.8305,-111.3266,587.3,219.3,93.3,5.4,2.9,26.38,40.7,1.9214,372.3801],
    [11448,1532805276,56.8305,-111.3256,587.0,218.0,92.6,4.6,2.7,26.37,40.29,1.9236,372.7842],
    [11449,1532805277,56.8305,-111.3245,586.8,217.8,93.3,4.1,3.3,25.78,41.21,1.9221,372.9727],
    [11450,1532805278,56.8305,-111.3234,586.2,216.2,93.4,4.1,3.1,25.19,41.27,1.9228,372.9727],
    [11451,1532805279,56.8305,-111.3223,585.3,215.3,93.7,4.0,3.2,25.6,41.34,1.9237,372.8937],
    [11452,1532805280,56.8304,-111.3212,584.4,213.4,93.9,4.1,3.3,25.85,41.08,1.9232,372.9314],
    [11453,1532805281,56.8304,-111.3202,583.7,212.4,93.9,4.2,3.3,25.99,41.25,1.9216,372.763],
    [11454,1532805282,56.8304,-111.3191,584.1,212.1,93.6,3.6,3.1,25.7,40.89,1.9252,373.373],
    [11455,1532805283,56.8304,-111.3181,584.8,211.8,94.1,3.3,3.5,25.36,41.48,1.926,371.7171],
    [11456,1532805284,56.8304,-111.3171,584.9,211.9,93.2,3.2,2.1,25.91,41.47,1.925,372.473],
    [11457,1532805285,56.8304,-111.316,584.1,210.1,93.0,3.1,1.8,26.57,41.56,1.9225,374.4185],
    [11458,1532805286,56.8304,-111.3149,582.5,207.5,94.6,3.1,3.0,26.34,41.63,1.9215,371.6696],
    [11459,1532805287,56.8304,-111.3139,581.0,204.0,94.8,3.1,3.1,25.84,42.7,1.9225,371.8449],
    [11460,1532805288,56.8304,-111.3128,579.8,201.8,94.1,3.5,2.8,26.34,41.29,1.9212,372.8944],
    [11461,1532805289,56.8303,-111.3118,578.7,198.4,93.5,3.6,2.8,25.44,41.36,1.9195,373.2803],
    [11462,1532805290,56.8303,-111.3107,577.9,193.9,93.1,4.2,3.1,26.01,40.63,1.9212,372.8904],
    [11463,1532805291,56.8303,-111.3096,577.2,189.2,92.6,5.2,2.9,25.23,40.84,1.9232,372.0357],
    [11464,1532805292,56.8303,-111.3086,576.7,184.3,92.0,4.3,2.8,26.19,40.88,1.9268,372.1725],
    [11465,1532805293,56.8303,-111.3075,576.4,181.0,91.7,3.8,2.9,26.04,41.2,1.9265,372.1787],
    [11466,1532805294,56.8304,-111.3065,576.1,176.4,90.9,2.1,2.7,25.88,41.37,1.924,370.8114],
    [11467,1532805295,56.8304,-111.3054,575.4,172.4,90.6,3.2,2.8,25.24,42.43,1.9252,372.3363],
    [11468,1532805296,56.8304,-111.3044,574.4,169.0,90.3,4.4,2.7,25.81,42.85,1.9243,371.8557],
    [11469,1532805297,56.8304,-111.3033,573.0,165.3,90.5,3.4,3.1,25.55,42.68,1.9248,371.7133],
    [11470,1532805298,56.8304,-111.3023,572.0,163.1,90.8,1.9,3.4,25.88,42.66,1.9249,370.38],
    [11471,1532805299,56.8305,-111.3012,571.6,160.6,89.7,2.5,2.8,25.93,42.88,1.9257,371.0203],
    [11472,1532805300,56.8305,-111.3001,572.0,159.0,89.9,2.1,3.3,25.61,43.3,1.9249,370.5184],
    [11473,1532805301,56.8305,-111.2991,571.8,157.8,89.6,1.8,2.7,25.35,43.44,1.9236,371.2488],
    [11474,1532805302,56.8306,-111.298,571.2,156.2,89.8,1.9,2.4,26.07,43.14,1.9248,371.4225],
    [11475,1532805303,56.8306,-111.2969,570.5,155.5,91.6,1.7,3.4,25.34,43.22,1.9239,371.4034],
    [11476,1532805304,56.8306,-111.2959,569.6,154.6,91.2,1.5,2.5,26.07,42.92,1.9246,369.8639],
    [11477,1532805305,56.8306,-111.2948,569.2,154.9,91.4,2.1,2.2,25.9,43.61,1.9238,370.3497],
    [11478,1532805306,56.8306,-111.2937,568.9,156.0,91.7,2.9,2.3,25.69,43.12,1.9245,371.0117],
    [11479,1532805307,56.8306,-111.2926,569.3,157.8,92.0,2.9,2.6,25.62,43.11,1.9237,371.7697],
    [11480,1532805308,56.8306,-111.2916,570.5,161.7,91.3,2.8,2.0,25.97,42.74,1.923,371.7391],
    [11481,1532805309,56.8306,-111.2905,571.8,166.1,90.7,1.3,1.6,25.82,43.19,1.9229,371.1639],
    [11482,1532805310,56.8306,-111.2894,572.2,168.3,91.8,2.0,2.4,26.47,42.85,1.9231,371.1742],
    [11483,1532805311,56.8306,-111.2884,572.1,168.3,92.5,2.4,2.4,25.32,42.96,1.9235,370.8471],
    [11484,1532805312,56.8306,-111.2873,572.2,167.2,93.0,2.3,2.2,25.77,43.03,1.9244,371.9947],
    [11485,1532805313,56.8306,-111.2862,572.4,166.4,93.9,2.5,2.5,26.06,42.77,1.9238,370.7408],
    [11486,1532805314,56.8306,-111.2852,573.4,166.3,94.4,2.3,2.8,26.47,42.59,1.9231,371.8968],
    [11487,1532805315,56.8306,-111.2841,575.2,168.3,93.5,2.2,2.0,25.65,42.91,1.9217,372.1433],
    [11488,1532805316,56.8305,-111.2831,578.0,171.0,92.0,3.1,0.7,25.79,42.78,1.9211,372.6119],
    [11489,1532805317,56.8305,-111.282,579.6,173.6,91.9,3.7,0.7,25.48,42.45,1.9197,371.8416],
    [11490,1532805318,56.8305,-111.2809,580.6,175.6,92.0,4.0,1.1,25.6,42.19,1.9213,371.8416],
    [11491,1532805319,56.8305,-111.2799,582.5,179.2,92.3,4.4,1.4,26.02,42.0,1.9224,370.7101],
    [11492,1532805320,56.8305,-111.2788,583.9,180.9,92.9,2.9,2.0,25.95,42.8,1.9236,370.8636],
    [11493,1532805321,56.8305,-111.2778,585.1,182.1,93.3,3.0,2.1,26.18,42.02,1.9234,371.9119],
    [11494,1532805322,56.8305,-111.2767,586.4,183.4,93.0,2.9,1.7,26.1,42.26,1.9224,371.9979],
    [11495,1532805323,56.8305,-111.2757,589.3,185.3,91.5,3.5,0.4,26.27,42.09,1.9215,372.4542],
    [11496,1532805324,56.8305,-111.2746,591.9,186.9,91.6,3.9,1.0,25.36,42.52,1.9197,372.4542],
    [11497,1532805325,56.8305,-111.2735,593.8,187.9,92.1,3.4,2.2,25.77,42.25,1.9196,371.9112],
    [11498,1532805326,56.8305,-111.2725,594.8,187.5,93.8,3.4,4.2,26.01,41.85,1.9182,371.959],
    [11499,1532805327,56.8305,-111.2714,594.6,184.6,93.2,3.8,3.9,25.74,41.69,1.9179,371.9473],
    [11500,1532805328,56.8305,-111.2704,594.1,181.1,92.0,4.1,2.8,25.96,41.0,1.9158,371.7319],
    [11501,1532805329,56.8305,-111.2693,594.6,179.3,92.2,4.3,2.7,26.06,40.35,1.9125,373.5734],
    [11502,1532805330,56.8305,-111.2682,595.3,177.6,94.9,4.9,4.6,25.93,39.96,1.917,373.1264],
    [11503,1532805331,56.8305,-111.2672,595.8,175.8,95.4,5.1,4.4,25.74,39.29,1.9193,373.1264],
    [11504,1532805332,56.8304,-111.2661,596.1,175.1,96.1,5.2,5.1,25.14,39.63,1.9205,372.8498],
    [11505,1532805333,56.8304,-111.2651,595.9,174.9,98.0,4.9,6.3,25.79,40.1,1.9193,373.0327],
    [11506,1532805334,56.8304,-111.264,596.6,176.3,97.2,5.0,5.3,25.77,40.48,1.9212,372.7632],
    [11507,1532805335,56.8304,-111.263,598.2,178.2,96.8,4.5,4.9,25.68,40.5,1.9203,372.7245],
    [11508,1532805336,56.8304,-111.2619,600.7,180.7,95.0,4.7,3.4,25.8,41.34,1.9213,374.2441],
    [11509,1532805337,56.8304,-111.2609,603.5,182.5,92.9,4.8,1.9,25.66,40.86,1.9222,372.9058],
    [11510,1532805338,56.8304,-111.2598,605.5,183.5,92.9,4.6,2.3,25.81,41.08,1.9223,371.5632],
    [11511,1532805339,56.8303,-111.2588,606.7,184.7,93.1,3.8,2.7,25.34,41.34,1.9214,372.7964],
    [11512,1532805340,56.8303,-111.2577,607.7,184.4,92.7,3.4,3.0,25.78,42.21,1.9162,373.3543],
    [11513,1532805341,56.8303,-111.2567,608.1,184.1,91.9,3.3,2.7,25.23,41.36,1.9154,372.959],
    [11514,1532805342,56.8304,-111.2557,608.0,183.0,91.1,3.7,2.2,26.58,40.35,1.9171,372.74],
    [11515,1532805343,56.8304,-111.2546,607.8,181.8,92.0,4.5,3.1,25.69,40.35,1.9201,373.3262],
    [11516,1532805344,56.8304,-111.2536,606.9,179.9,92.6,3.8,3.3,25.16,40.33,1.9197,373.57],
    [11517,1532805345,56.8304,-111.2526,606.3,178.3,93.0,4.2,3.3,25.91,40.27,1.9174,373.0038],
    [11518,1532805346,56.8304,-111.2516,605.9,177.3,93.2,4.8,3.3,25.76,40.06,1.9196,373.3254],
    [11519,1532805347,56.8304,-111.2505,605.5,176.4,93.1,5.2,3.1,25.76,40.43,1.9194,372.9416],
    [11520,1532805348,56.8304,-111.2495,604.1,174.0,94.9,4.6,4.5,24.97,40.41,1.9227,372.9792],
    [11521,1532805349,56.8304,-111.2484,602.1,171.1,94.8,5.0,3.9,25.73,40.92,1.9228,372.2412],
    [11522,1532805350,56.8304,-111.2474,600.4,168.4,93.8,5.7,3.0,25.06,40.88,1.9217,372.9413],
    [11523,1532805351,56.8304,-111.2464,598.6,165.6,94.2,5.2,3.5,25.58,41.61,1.9212,372.9247],
    [11524,1532805352,56.8303,-111.2453,597.1,163.1,94.6,5.6,3.6,26.04,41.57,1.9204,371.3951],
    [11525,1532805353,56.8303,-111.2443,595.5,161.2,94.9,5.7,3.7,25.81,42.05,1.921,373.119],
    [11526,1532805354,56.8303,-111.2432,594.1,159.1,94.6,6.0,3.3,25.24,41.8,1.9209,373.0805],
    [11527,1532805355,56.8303,-111.2422,593.5,157.5,94.1,5.6,2.7,25.87,41.69,1.9196,371.7739],
    [11528,1532805356,56.8303,-111.2412,593.6,156.6,93.9,6.0,2.6,26.34,41.35,1.922,372.0868],
    [11529,1532805357,56.8303,-111.2401,593.8,155.8,94.3,6.7,2.9,25.74,42.39,1.921,372.9481],
    [11530,1532805358,56.8303,-111.2391,593.8,155.1,94.2,6.1,2.7,25.47,42.32,1.9168,372.628],
    [11531,1532805359,56.8303,-111.238,594.1,154.1,93.1,6.7,1.9,25.91,41.53,1.9174,372.7098],
    [11532,1532805360,56.8303,-111.237,594.5,154.5,93.5,6.9,2.6,25.92,41.06,1.9175,372.8762],
    [11533,1532805361,56.8302,-111.236,593.8,152.8,93.0,5.9,2.5,25.59,41.2,1.9202,373.2179],
    [11534,1532805362,56.8302,-111.2349,592.7,151.7,91.7,6.2,2.0,26.34,40.56,1.9208,372.8214],
    [11535,1532805363,56.8303,-111.2339,592.4,150.4,90.5,6.1,1.9,26.14,40.87,1.9193,372.0509],
    [11536,1532805364,56.8303,-111.2329,591.5,149.5,90.5,6.3,2.4,25.52,41.65,1.9197,372.7565],
    [11537,1532805365,56.8303,-111.2318,590.3,148.3,90.8,6.0,2.3,25.64,41.98,1.9199,372.0425],
    [11538,1532805366,56.8303,-111.2308,590.2,147.2,90.6,6.7,1.6,25.54,42.14,1.9189,372.2281],
    [11539,1532805367,56.8303,-111.2297,590.9,147.9,91.5,6.6,2.1,25.6,41.87,1.9199,372.0575],
    [11540,1532805368,56.8303,-111.2287,591.5,148.5,92.0,5.8,2.0,25.5,41.97,1.9202,372.457],
    [11541,1532805369,56.8303,-111.2277,592.4,149.4,91.6,4.9,1.5,25.74,42.42,1.9205,371.7819],
    [11542,1532805370,56.8303,-111.2266,593.0,150.0,92.6,3.7,2.3,25.8,42.36,1.9208,372.8654],
    [11543,1532805371,56.8303,-111.2256,593.5,149.5,91.9,3.4,1.5,26.2,41.44,1.9208,371.9529],
    [11544,1532805372,56.8303,-111.2246,594.1,150.1,90.8,4.0,0.8,25.68,42.55,1.9203,371.9053],
    [11545,1532805373,56.8303,-111.2236,594.5,150.5,91.4,3.8,1.8,26.03,41.81,1.9203,372.5486],
    [11546,1532805374,56.8303,-111.2226,594.8,150.8,91.3,3.1,1.3,26.37,41.8,1.9214,372.5383],
    [11547,1532805375,56.8303,-111.2215,595.6,151.6,90.3,3.9,0.6,25.87,42.11,1.9193,371.9797],
    [11548,1532805376,56.8303,-111.2205,596.7,152.7,91.1,4.5,1.5,26.42,41.73,1.9201,371.0696],
    [11549,1532805377,56.8303,-111.2195,597.5,153.5,91.2,4.6,1.4,25.71,42.25,1.9218,372.4847],
    [11550,1532805378,56.8303,-111.2185,598.7,154.7,90.9,3.4,1.1,25.71,42.04,1.9206,373.0589],
    [11551,1532805379,56.8303,-111.2175,600.5,156.5,91.4,2.8,1.8,25.54,42.69,1.9188,373.0394],
    [11552,1532805380,56.8303,-111.2164,602.3,157.6,90.7,3.0,2.3,25.28,42.02,1.9199,372.7173],
    [11553,1532805381,56.8303,-111.2154,603.1,158.1,89.5,2.2,3.8,25.76,42.3,1.9195,373.2079],
    [11554,1532805382,56.8304,-111.2144,603.5,158.5,84.9,2.1,2.8,25.68,41.79,1.9201,372.982],
    [11555,1532805383,56.8305,-111.2134,604.0,159.0,78.7,2.7,1.3,26.23,41.43,1.9215,373.1904],
    [11556,1532805384,56.8306,-111.2125,604.6,159.6,73.5,2.8,0.8,25.57,41.86,1.9207,371.5843],
    [11557,1532805385,56.8308,-111.2115,605.3,160.3,67.3,3.3,-0.1,25.74,41.91,1.9205,373.3757],
    [11558,1532805386,56.831,-111.2106,605.6,160.6,62.9,2.8,0.5,25.68,41.72,1.9202,372.159],
    [11559,1532805387,56.8313,-111.2097,605.6,160.6,58.1,3.3,-0.2,26.19,41.21,1.9179,373.1285],
    [11560,1532805388,56.8316,-111.2089,606.4,161.4,53.1,3.5,-1.3,25.77,42.0,1.9162,372.6598],
    [11561,1532805389,56.8319,-111.208,607.9,162.9,50.5,2.7,-0.4,26.44,40.51,1.9173,372.7397],
    [11562,1532805390,56.8322,-111.2073,610.0,166.0,46.8,2.4,-0.7,25.68,40.36,1.9191,372.0047],
    [11563,1532805391,56.8326,-111.2065,610.5,166.5,44.1,2.3,-0.5,25.95,40.35,1.9176,373.0867],
    [11564,1532805392,56.833,-111.2058,610.0,166.0,41.2,2.4,-0.1,25.98,40.17,1.9191,372.209],
    [11565,1532805393,56.8334,-111.2052,608.8,164.8,37.2,3.1,0.0,26.18,39.32,1.9204,372.7912],
    [11566,1532805394,56.8339,-111.2046,607.9,163.9,33.1,3.9,-0.2,25.52,39.98,1.9212,373.049],
    [11567,1532805395,56.8343,-111.204,607.3,163.3,29.2,4.1,-0.1,25.41,40.04,1.9221,373.7075],
    [11568,1532805396,56.8348,-111.2035,606.7,162.9,27.4,2.7,0.4,25.7,40.16,1.922,373.6861],
    [11569,1532805397,56.8353,-111.203,606.6,163.3,22.4,4.1,-0.8,25.66,40.57,1.9228,373.6357],
    [11570,1532805398,56.8358,-111.2026,607.2,164.2,19.5,3.8,-1.0,25.71,41.15,1.9214,373.798],
    [11571,1532805399,56.8363,-111.2022,608.0,164.3,17.5,3.8,-1.7,26.04,40.28,1.9214,373.798],
    [11572,1532805400,56.8368,-111.2019,608.2,164.3,15.6,3.9,-2.1,25.77,40.94,1.9209,372.6991],
    [11573,1532805401,56.8373,-111.2016,607.7,162.8,15.4,2.3,-2.9,25.79,41.33,1.9226,372.9567],
    [11574,1532805402,56.8378,-111.2013,607.7,161.7,13.0,2.7,-3.3,25.72,41.51,1.9208,371.6434],
    [11575,1532805403,56.8384,-111.201,608.8,162.6,10.1,2.9,-4.4,25.84,41.87,1.9202,372.9201],
    [11576,1532805404,56.8389,-111.2008,610.5,163.5,8.3,2.4,-3.7,25.97,41.49,1.9194,372.6152],
    [11577,1532805405,56.8394,-111.2006,612.9,165.9,5.1,3.5,-4.0,25.63,41.03,1.9215,372.8011],
    [11578,1532805406,56.84,-111.2005,614.7,166.7,4.4,2.7,-4.4,25.79,40.91,1.9202,372.834],
    [11579,1532805407,56.8405,-111.2004,615.5,167.5,2.8,3.6,-4.4,25.52,40.55,1.9201,373.1589],
    [11580,1532805408,56.8411,-111.2003,616.7,167.7,360.0,5.2,-4.1,25.91,40.35,1.9228,373.3173],
    [11581,1532805409,56.8416,-111.2002,617.8,168.8,361.0,3.1,-3.4,25.37,40.89,1.9235,372.7918],
    [11582,1532805410,56.8421,-111.2001,617.6,168.3,361.3,2.3,-2.7,25.79,40.33,1.9235,372.7179],
    [11583,1532805411,56.8427,-111.2001,616.8,166.8,357.5,5.1,-2.5,25.99,40.19,1.9239,369.1947],
    [11584,1532805412,56.8432,-111.2001,616.1,166.1,355.8,5.7,-1.7,25.46,41.38,1.9229,372.6954],
    [11585,1532805413,56.8438,-111.2,615.0,165.0,356.3,4.7,-0.8,25.79,41.25,1.9215,372.795],
    [11586,1532805414,56.8443,-111.2,614.0,164.0,356.7,3.9,-0.7,25.75,42.08,1.9208,373.0189],
    [11587,1532805415,56.8449,-111.2,613.3,163.3,357.1,3.4,-0.4,25.83,41.5,1.9222,372.6915],
    [11588,1532805416,56.8455,-111.2,612.9,162.9,356.4,4.1,0.2,25.19,41.03,1.923,372.9646],
    [11589,1532805417,56.846,-111.2,612.2,162.2,356.2,3.9,0.8,25.71,40.93,1.9233,372.164],
    [11590,1532805418,56.8466,-111.2,611.4,161.4,356.5,3.4,0.8,25.82,40.9,1.9225,371.8646],
    [11591,1532805419,56.8471,-111.2,610.3,160.3,356.3,3.5,1.3,26.16,40.26,1.9212,373.4258],
    [11592,1532805420,56.8477,-111.2001,608.9,159.9,355.9,4.0,2.2,25.98,40.76,1.9204,373.6777],
    [11593,1532805421,56.8482,-111.2001,607.5,158.5,356.2,3.7,2.8,26.0,40.91,1.9206,373.5106],
    [11594,1532805422,56.8488,-111.2001,605.7,156.7,357.2,3.0,3.1,25.32,40.81,1.9241,372.537],
    [11595,1532805423,56.8494,-111.2001,604.3,155.3,357.1,3.6,2.4,25.89,40.5,1.9255,372.537],
    [11596,1532805424,56.85,-111.2,604.2,155.2,357.0,3.8,3.4,25.2,41.0,1.9256,371.3598],
    [11597,1532805425,56.8505,-111.2,604.8,156.5,357.3,3.6,3.5,25.66,41.43,1.928,372.6503],
    [11598,1532805426,56.8511,-111.2,605.0,157.0,357.7,3.3,3.7,26.01,41.7,1.9274,372.6503],
    [11599,1532805427,56.8517,-111.2,604.4,156.4,359.5,2.0,3.5,25.68,42.37,1.9276,371.705],
    [11600,1532805428,56.8523,-111.2,604.4,156.4,358.0,4.0,4.0,25.94,42.23,1.925,372.1129],
    [11601,1532805429,56.8529,-111.1999,605.8,157.8,358.8,3.2,4.6,25.26,43.09,1.9231,372.8576],
    [11602,1532805430,56.8534,-111.1999,606.5,158.5,359.6,2.7,4.7,25.96,42.21,1.9228,372.5065],
    [11603,1532805431,56.854,-111.1999,605.9,157.9,359.6,2.3,4.5,25.8,42.4,1.9251,371.3879],
    [11604,1532805432,56.8546,-111.1999,604.4,156.4,357.6,3.6,4.2,26.08,42.23,1.9246,372.0421],
    [11605,1532805433,56.8552,-111.1998,602.8,154.8,356.1,4.1,3.3,26.13,41.52,1.9252,372.696],
    [11606,1532805434,56.8558,-111.1999,601.0,153.0,356.8,2.9,0.7,25.92,42.49,1.9247,372.3647],
    [11607,1532805435,56.8564,-111.1999,600.4,152.4,356.3,3.2,0.9,25.81,43.22,1.9257,371.9284],
    [11608,1532805436,56.857,-111.1999,601.3,154.3,356.0,3.4,1.2,25.5,42.84,1.9273,372.0968],
    [11609,1532805437,56.8575,-111.1999,602.8,155.8,356.8,3.0,-0.5,25.75,42.93,1.9267,371.6653],
    [11610,1532805438,56.8581,-111.1999,604.2,157.2,357.0,3.0,-2.3,25.5,43.25,1.9286,372.3151],
    [11611,1532805439,56.8587,-111.1999,605.1,158.1,357.4,2.6,-3.6,25.3,43.32,1.9265,372.029],
    [11612,1532805440,56.8593,-111.1999,606.0,159.0,356.8,3.2,-3.3,25.5,44.02,1.9266,371.4067],
    [11613,1532805441,56.8598,-111.1999,605.9,159.0,356.8,3.0,-2.6,25.73,43.83,1.9261,371.8926],
    [11614,1532805442,56.8604,-111.1999,605.6,159.6,356.0,3.9,-2.7,25.53,43.29,1.9267,372.4742],
    [11615,1532805443,56.861,-111.2,605.5,159.5,355.4,4.3,-1.9,25.06,43.1,1.9263,371.6757],
    [11616,1532805444,56.8615,-111.2,604.8,158.8,356.2,3.4,-2.5,25.63,43.61,1.9258,372.3545],
    [11617,1532805445,56.8621,-111.2,603.8,157.8,356.1,3.5,-2.6,26.03,42.64,1.9257,371.4308],
    [11618,1532805446,56.8627,-111.2,602.5,156.5,356.3,3.2,-2.0,25.62,43.06,1.9254,372.1581],
    [11619,1532805447,56.8632,-111.2,601.0,155.0,356.5,3.2,-1.7,26.58,42.4,1.9249,371.7169],
    [11620,1532805448,56.8638,-111.2,599.7,153.7,356.3,4.0,-1.8,25.95,42.42,1.922,371.4892],
    [11621,1532805449,56.8644,-111.2,599.1,153.1,357.0,3.7,-1.7,26.6,41.6,1.9255,371.4429],
    [11622,1532805450,56.865,-111.2,599.1,153.1,358.4,2.7,-1.2,25.82,42.4,1.924,371.9175],
    [11623,1532805451,56.8656,-111.2,599.0,153.0,359.8,1.6,-0.4,25.49,41.75,1.9254,371.5204],
    [11624,1532805452,56.8662,-111.2,599.5,153.5,359.4,2.0,0.1,26.12,41.37,1.926,373.5789],
    [11625,1532805453,56.8667,-111.2,600.5,154.5,358.2,3.0,0.4,25.97,41.49,1.926,372.5413],
    [11626,1532805454,56.8673,-111.1999,601.9,155.9,357.3,3.9,1.0,26.2,41.15,1.9257,373.1253],
    [11627,1532805455,56.8679,-111.1999,602.9,156.9,356.8,4.0,0.8,25.96,41.79,1.9256,373.1047],
    [11628,1532805456,56.8685,-111.1999,603.5,157.5,357.3,3.1,1.6,25.71,42.68,1.9253,372.5727],
    [11629,1532805457,56.8691,-111.1999,603.5,157.5,357.7,2.6,1.8,25.16,42.15,1.9243,372.6457],
    [11630,1532805458,56.8696,-111.1999,603.7,158.0,356.9,3.2,1.6,25.74,42.66,1.9276,372.2721],
    [11631,1532805459,56.8702,-111.1999,604.1,159.1,355.9,3.7,1.7,26.01,41.56,1.9265,372.3326],
    [11632,1532805460,56.8708,-111.2,604.1,159.1,357.9,1.4,1.9,25.69,42.17,1.9245,372.4861],
    [11633,1532805461,56.8714,-111.2,604.5,159.5,357.0,3.1,2.2,25.66,42.9,1.9236,373.0052],
    [11634,1532805462,56.872,-111.2,604.5,159.5,355.6,4.8,1.9,25.83,41.79,1.9245,373.9091],
    [11635,1532805463,56.8726,-111.2,604.1,159.1,356.7,4.0,2.2,25.99,41.22,1.9259,371.9232],
    [11636,1532805464,56.8733,-111.2,604.8,159.8,357.1,3.0,2.5,25.31,42.12,1.9288,371.8989],
    [11637,1532805465,56.8739,-111.2,606.1,161.1,357.7,2.2,2.5,25.58,41.88,1.9313,373.1936],
    [11638,1532805466,56.8745,-111.2,607.0,162.0,355.4,4.2,2.7,26.01,41.44,1.9306,373.2177],
    [11639,1532805467,56.8751,-111.2,607.9,163.7,354.9,4.2,2.8,25.72,42.19,1.9309,372.8117],
    [11640,1532805468,56.8757,-111.2,608.2,164.3,355.4,3.7,2.7,25.61,42.65,1.9291,373.0089],
    [11641,1532805469,56.8763,-111.2001,608.3,165.3,354.8,4.1,3.0,25.71,43.42,1.9291,371.8036],
    [11642,1532805470,56.8769,-111.2001,607.6,165.6,355.3,3.6,3.6,25.54,43.44,1.9284,371.3331],
    [11643,1532805471,56.8775,-111.2001,606.8,164.8,355.1,4.0,3.4,26.26,42.47,1.9268,371.3331],
    [11644,1532805472,56.8781,-111.2001,605.6,164.6,355.6,3.5,2.8,25.63,42.95,1.926,372.4508],
    [11645,1532805473,56.8787,-111.2002,604.5,163.5,355.9,3.3,1.6,25.74,42.71,1.9273,371.9801],
    [11646,1532805474,56.8793,-111.2002,604.5,164.6,355.7,3.2,2.6,25.9,42.43,1.9298,372.1072],
    [11647,1532805475,56.8799,-111.2002,604.8,166.4,355.7,3.1,2.5,25.7,42.9,1.9294,371.8837],
    [11648,1532805476,56.8805,-111.2002,605.6,167.9,355.3,3.8,3.2,25.6,43.74,1.9283,371.6937],
    [11649,1532805477,56.8811,-111.2003,606.7,169.8,355.3,4.2,3.3,24.99,44.29,1.927,371.9929],
    [11650,1532805478,56.8817,-111.2003,608.1,170.8,355.9,4.1,3.4,25.72,43.92,1.9275,372.4209],
    [11651,1532805479,56.8823,-111.2003,609.4,172.7,356.0,4.5,3.7,25.14,43.82,1.9274,372.4209],
    [11652,1532805480,56.8829,-111.2003,610.3,174.3,356.3,4.4,4.5,25.85,43.44,1.9288,372.6729],
    [11653,1532805481,56.8835,-111.2003,610.0,175.7,357.6,3.6,4.5,25.59,43.49,1.9271,372.6926],
    [11654,1532805482,56.8841,-111.2003,608.9,177.5,357.7,3.9,4.5,25.61,43.53,1.9289,371.9943],
    [11655,1532805483,56.8847,-111.2002,607.7,180.4,358.2,3.4,4.3,26.2,43.25,1.9296,371.9943],
    [11656,1532805484,56.8853,-111.2002,606.1,183.2,357.5,4.0,4.6,26.34,43.06,1.9307,371.6306],
    [11657,1532805485,56.8859,-111.2002,604.5,185.8,357.1,3.6,5.3,26.14,43.48,1.9285,371.7108],
    [11658,1532805486,56.8865,-111.2002,603.2,187.3,357.3,3.2,5.7,25.95,43.41,1.9301,372.9638],
    [11659,1532805487,56.8871,-111.2002,601.5,187.5,356.5,3.7,4.8,25.46,44.28,1.9292,372.9638],
    [11660,1532805488,56.8877,-111.2002,599.9,187.9,356.5,3.6,3.8,25.49,44.28,1.9298,372.8946],
    [11661,1532805489,56.8883,-111.2002,598.6,189.4,356.3,3.4,4.1,26.03,43.63,1.9307,371.6295],
    [11662,1532805490,56.8889,-111.2002,598.3,194.6,356.7,2.7,4.2,25.24,44.61,1.929,371.0048],
    [11663,1532805491,56.8895,-111.2002,598.3,200.0,356.7,2.9,4.2,25.53,44.61,1.9302,371.0048],
    [11664,1532805492,56.8901,-111.2002,598.2,204.4,355.7,4.0,4.0,25.78,44.33,1.9299,371.536],
    [11665,1532805493,56.8907,-111.2002,598.2,208.4,356.7,3.0,4.1,26.12,44.25,1.9312,371.2398],
    [11666,1532805494,56.8913,-111.2003,598.9,213.7,357.2,2.6,3.5,25.46,44.91,1.9302,371.6858],
    [11667,1532805495,56.8919,-111.2003,600.2,219.3,356.8,3.4,1.2,25.86,44.41,1.931,372.5114],
    [11668,1532805496,56.8925,-111.2003,601.1,226.7,356.5,3.7,0.8,25.96,44.59,1.9317,372.2237],
    [11669,1532805497,56.8931,-111.2003,601.6,232.1,357.3,2.7,0.2,25.73,44.79,1.9327,372.2687],
    [11670,1532805498,56.8937,-111.2003,602.3,235.3,357.4,2.7,-0.2,25.89,44.9,1.9311,372.4648],
    [11671,1532805499,56.8943,-111.2003,604.6,239.6,356.7,3.1,-0.2,25.72,44.93,1.9304,371.8505],
    [11672,1532805500,56.8949,-111.2003,608.4,245.4,355.9,3.5,-0.4,25.54,45.11,1.9304,372.881],
    [11673,1532805501,56.8955,-111.2003,612.5,251.5,355.3,3.6,-1.4,25.36,44.98,1.9312,372.8419],
    [11674,1532805502,56.8961,-111.2004,617.3,259.0,356.1,2.6,-0.8,25.7,44.72,1.9315,373.132],
    [11675,1532805503,56.8966,-111.2004,620.6,262.6,356.3,3.3,-1.4,25.18,44.82,1.9326,373.123],
    [11676,1532805504,56.8972,-111.2004,622.9,263.9,356.7,3.5,-1.7,25.41,44.71,1.9314,370.7962],
    [11677,1532805505,56.8978,-111.2004,624.4,256.4,358.2,2.5,-1.6,25.57,44.78,1.9314,370.7962],
    [11678,1532805506,56.8984,-111.2004,625.2,247.6,357.8,3.5,-1.5,26.22,44.32,1.9315,372.4149],
    [11679,1532805507,56.8989,-111.2004,625.5,238.4,357.0,4.1,-1.4,25.51,45.57,1.9321,371.3199],
    [11680,1532805508,56.8995,-111.2004,625.3,231.3,356.7,4.1,-1.6,26.13,44.66,1.9309,372.7069],
    [11681,1532805509,56.9001,-111.2004,624.7,225.3,356.7,3.7,-1.4,25.18,44.66,1.9304,372.5661],
    [11682,1532805510,56.9007,-111.2004,624.1,220.4,356.5,3.5,-1.2,25.35,44.91,1.9292,372.5661],
    [11683,1532805511,56.9012,-111.2004,624.2,215.2,355.6,4.3,-0.8,25.56,44.55,1.9279,372.5395],
    [11684,1532805512,56.9018,-111.2004,624.2,211.6,354.9,5.0,-0.7,25.01,43.78,1.9282,372.049],
    [11685,1532805513,56.9024,-111.2004,623.9,208.5,355.3,4.1,-0.8,25.32,43.89,1.9285,371.8449],
    [11686,1532805514,56.903,-111.2004,623.6,208.6,356.7,3.0,-0.6,25.42,43.93,1.9294,372.403],
    [11687,1532805515,56.9036,-111.2004,624.6,212.9,355.3,4.7,-0.3,25.22,43.94,1.9296,373.2764],
    [11688,1532805516,56.9041,-111.2004,624.6,216.0,356.7,3.3,0.3,25.53,44.38,1.9307,371.5494],
    [11689,1532805517,56.9047,-111.2005,624.4,213.8,358.3,1.8,0.5,25.6,44.56,1.9305,371.9522],
    [11690,1532805518,56.9053,-111.2005,623.6,206.6,357.7,2.3,0.3,25.43,45.51,1.9305,371.9522],
    [11691,1532805519,56.9059,-111.2005,622.2,198.0,356.5,3.1,0.5,25.32,45.27,1.9298,372.6557],
    [11692,1532805520,56.9065,-111.2005,620.3,190.6,355.1,4.2,1.1,25.06,44.69,1.9275,373.5131],
    [11693,1532805521,56.9071,-111.2005,618.3,186.3,355.2,3.6,2.0,24.73,44.59,1.9288,372.8093],
    [11694,1532805522,56.9077,-111.2005,616.2,182.5,356.8,2.1,2.5,25.41,44.77,1.9279,372.8093],
    [11695,1532805523,56.9083,-111.2006,614.7,182.0,357.4,1.6,3.2,25.18,43.87,1.9281,372.7318],
    [11696,1532805524,56.9089,-111.2006,614.3,181.6,357.1,1.9,3.1,24.75,43.52,1.9278,372.7309],
    [11697,1532805525,56.9096,-111.2006,614.6,182.6,357.3,1.6,2.4,25.99,42.81,1.9289,372.1295],
    [11698,1532805526,56.9102,-111.2006,615.5,184.5,355.5,3.5,2.6,24.98,43.33,1.9293,372.1295],
    [11699,1532805527,56.9108,-111.2007,615.8,185.1,354.5,3.8,2.8,25.25,44.36,1.931,372.1082],
    [11700,1532805528,56.9114,-111.2007,615.2,182.4,355.2,3.4,3.2,25.15,43.8,1.9289,372.6044],
    [11701,1532805529,56.912,-111.2007,615.0,183.0,354.2,4.6,3.6,24.96,44.07,1.9297,372.165],
    [11702,1532805530,56.9126,-111.2008,615.2,183.5,356.2,2.9,3.5,25.32,44.2,1.9314,373.3488],
    [11703,1532805531,56.9132,-111.2008,615.1,182.4,356.8,2.9,2.0,25.36,44.95,1.9314,372.8473],
    [11704,1532805532,56.9138,-111.2008,614.8,185.5,356.4,3.6,1.4,25.98,43.96,1.9312,372.8473],
    [11705,1532805533,56.9145,-111.2008,614.5,195.2,357.0,3.1,2.3,25.2,44.49,1.9311,372.2795],
    [11706,1532805534,56.9151,-111.2008,614.2,197.9,357.1,3.2,0.9,24.84,44.64,1.9316,373.1194],
    [11707,1532805535,56.9157,-111.2008,614.4,191.0,356.9,3.5,-0.1,25.59,44.79,1.9338,372.9978],
    [11708,1532805536,56.9163,-111.2008,614.7,181.7,356.9,3.6,0.1,25.79,44.85,1.933,371.2573],
    [11709,1532805537,56.9169,-111.2008,615.5,176.2,356.5,4.3,-0.7,25.27,45.51,1.9338,371.4049],
    [11710,1532805538,56.9175,-111.2008,616.3,173.3,356.5,4.1,0.4,25.29,45.56,1.9337,371.743],
    [11711,1532805539,56.9182,-111.2008,617.4,173.4,356.7,4.2,0.7,25.4,45.62,1.9329,371.4305],
    [11712,1532805540,56.9188,-111.2008,618.5,173.8,357.0,3.6,-0.3,25.94,44.94,1.9313,371.1691],
    [11713,1532805541,56.9194,-111.2008,620.1,175.1,358.4,2.3,-0.4,25.23,45.54,1.9323,370.42],
    [11714,1532805542,56.92,-111.2008,622.8,177.8,357.9,2.8,-0.2,25.15,45.6,1.9333,371.2291],
    [11715,1532805543,56.9206,-111.2008,624.1,179.1,358.5,2.2,-0.6,25.41,45.69,1.9325,371.3795],
    [11716,1532805544,56.9212,-111.2008,624.2,179.3,358.2,2.6,-0.9,26.24,44.97,1.9313,371.3512],
    [11717,1532805545,56.9218,-111.2008,623.8,177.8,358.2,2.7,0.0,25.27,45.29,1.9319,371.6233],
    [11718,1532805546,56.9224,-111.2008,622.9,176.9,358.5,2.6,0.8,25.44,45.96,1.9309,372.1043],
    [11719,1532805547,56.923,-111.2008,623.0,178.1,357.8,3.7,1.9,26.22,44.76,1.9345,372.7515],
    [11720,1532805548,56.9237,-111.2007,623.5,178.4,357.7,3.6,2.1,24.68,45.23,1.9333,372.199],
    [11721,1532805549,56.9243,-111.2007,623.7,179.7,357.7,3.9,2.8,25.46,45.73,1.9335,372.7174],
    [11722,1532805550,56.9249,-111.2007,623.5,179.5,357.5,4.1,2.4,25.49,45.48,1.9338,371.5359],
    [11723,1532805551,56.9255,-111.2007,622.6,178.6,358.4,3.2,2.3,25.44,45.36,1.9334,371.4969],
    [11724,1532805552,56.9261,-111.2007,621.6,177.6,357.8,3.7,1.8,25.11,45.76,1.9323,372.0297],
    [11725,1532805553,56.9267,-111.2007,620.6,176.6,357.8,3.5,1.9,25.39,45.7,1.9333,372.3917],
    [11726,1532805554,56.9273,-111.2006,619.2,175.2,358.5,2.9,2.6,25.52,45.29,1.935,372.6022],
    [11727,1532805555,56.9279,-111.2006,617.4,173.4,359.5,1.9,2.9,24.99,45.39,1.9331,371.824],
    [11728,1532805556,56.9286,-111.2006,615.6,171.6,359.6,2.0,3.5,24.9,45.82,1.9338,371.8588],
    [11729,1532805557,56.9292,-111.2006,614.1,170.1,359.8,1.8,3.5,24.81,45.79,1.9339,372.1133],
    [11730,1532805558,56.9298,-111.2005,612.8,167.9,360.2,1.7,3.7,25.2,45.82,1.9321,371.8031],
    [11731,1532805559,56.9304,-111.2005,611.9,165.9,358.4,3.8,4.0,25.35,45.76,1.934,371.6938],
    [11732,1532805560,56.931,-111.2005,611.4,165.5,358.3,3.2,4.3,25.31,46.09,1.9355,371.7445],
    [11733,1532805561,56.9317,-111.2005,611.8,164.8,359.5,2.0,4.3,25.75,45.75,1.934,370.733],
    [11734,1532805562,56.9323,-111.2004,613.2,166.2,358.6,3.0,4.1,25.0,45.74,1.934,370.733],
    [11735,1532805563,56.9329,-111.2004,614.2,167.2,358.8,2.9,4.3,24.63,45.86,1.9336,371.7004],
    [11736,1532805564,56.9336,-111.2004,615.3,168.3,358.0,3.8,4.5,25.08,45.94,1.9338,372.2686],
    [11737,1532805565,56.9342,-111.2004,616.2,168.1,357.3,4.2,4.1,25.27,46.54,1.9356,372.1893],
    [11738,1532805566,56.9348,-111.2004,616.9,168.9,358.5,2.9,4.2,25.22,46.29,1.9369,371.7265],
    [11739,1532805567,56.9354,-111.2003,618.8,171.8,358.5,2.5,3.1,24.7,46.16,1.9359,372.2182],
    [11740,1532805568,56.9361,-111.2003,620.2,173.2,358.4,2.8,2.8,25.69,46.08,1.9358,371.3568],
    [11741,1532805569,56.9367,-111.2003,622.7,175.0,359.0,2.3,2.2,24.51,46.54,1.9334,372.0531],
    [11742,1532805570,56.9373,-111.2003,624.7,176.4,359.2,2.0,1.9,25.23,47.01,1.9343,370.4069],
    [11743,1532805571,56.938,-111.2003,626.3,177.3,358.8,2.5,2.1,25.25,47.05,1.9345,371.1485],
    [11744,1532805572,56.9386,-111.2003,628.0,179.0,357.8,3.3,2.0,25.39,46.43,1.9325,371.9471],
    [11745,1532805573,56.9392,-111.2002,629.5,179.6,358.1,2.9,1.8,25.23,47.26,1.9346,371.3322],
    [11746,1532805574,56.9398,-111.2002,630.6,180.6,356.9,4.0,1.7,25.22,46.78,1.9329,371.5082],
    [11747,1532805575,56.9405,-111.2002,630.7,180.7,358.3,2.7,2.6,25.22,45.82,1.9332,371.7614],
    [11748,1532805576,56.9411,-111.2002,630.0,180.0,358.7,2.7,2.6,25.26,46.35,1.9349,372.1289],
    [11749,1532805577,56.9417,-111.2002,628.1,178.1,358.6,3.4,2.7,24.68,45.65,1.9333,371.7807],
    [11750,1532805578,56.9423,-111.2002,626.6,176.0,358.1,3.7,2.9,24.97,46.18,1.9336,371.8387],
    [11751,1532805579,56.9429,-111.2001,625.7,174.7,357.2,4.2,1.7,25.0,46.68,1.9323,371.5202],
    [11752,1532805580,56.9435,-111.2001,626.4,175.8,356.3,4.9,0.1,25.26,46.22,1.9309,373.0446],
    [11753,1532805581,56.9442,-111.2001,627.9,177.9,356.2,4.7,0.9,25.84,45.43,1.9308,372.0964],
    [11754,1532805582,56.9448,-111.2001,629.3,179.3,357.0,3.4,1.2,25.58,44.75,1.9317,372.474],
    [11755,1532805583,56.9454,-111.2001,629.6,179.6,356.9,3.5,1.4,24.82,45.26,1.9329,372.2833],
    [11756,1532805584,56.946,-111.2001,629.0,179.0,357.1,3.3,2.0,25.21,45.05,1.9342,372.7092],
    [11757,1532805585,56.9466,-111.2001,627.6,177.6,357.4,3.0,2.4,25.08,45.12,1.9329,372.6142],
    [11758,1532805586,56.9472,-111.2001,626.3,177.1,357.2,3.2,3.0,25.1,45.72,1.9332,372.8148],
    [11759,1532805587,56.9479,-111.2001,625.5,176.5,356.9,3.4,3.0,25.04,45.58,1.9338,372.4126],
    [11760,1532805588,56.9485,-111.2001,625.2,176.2,356.6,3.3,2.7,24.92,46.17,1.9345,372.5396],
    [11761,1532805589,56.9491,-111.2001,624.8,175.8,357.0,3.0,1.5,25.34,45.64,1.9346,373.1678],
    [11762,1532805590,56.9497,-111.2002,624.4,175.4,356.8,3.1,1.2,24.95,45.71,1.9335,372.6374],
    [11763,1532805591,56.9503,-111.2002,624.8,176.8,357.3,2.2,1.6,25.73,45.63,1.9344,370.7879],
    [11764,1532805592,56.9509,-111.2002,624.7,176.7,357.1,2.2,2.8,25.0,46.03,1.9327,371.1652],
    [11765,1532805593,56.9516,-111.2002,624.2,176.2,357.2,1.9,3.8,24.8,45.89,1.934,371.1859],
    [11766,1532805594,56.9522,-111.2002,623.1,175.1,356.7,3.1,3.9,25.0,46.03,1.9346,371.6735],
    [11767,1532805595,56.9528,-111.2002,621.8,174.5,355.8,4.1,3.1,25.82,45.7,1.9348,371.5822],
    [11768,1532805596,56.9534,-111.2002,620.5,173.5,357.5,2.6,3.0,25.86,45.22,1.9328,371.0621],
    [11769,1532805597,56.954,-111.2002,620.0,173.0,357.1,3.3,3.8,24.68,45.94,1.9323,371.3104],
    [11770,1532805598,56.9546,-111.2003,618.4,171.4,357.2,2.8,4.0,25.15,45.89,1.9318,372.5166],
    [11771,1532805599,56.9553,-111.2003,617.1,170.5,357.2,2.6,4.8,25.2,46.09,1.9316,372.5166],
    [11772,1532805600,56.9559,-111.2003,615.6,169.6,356.6,2.8,4.7,25.37,46.38,1.9301,371.121],
    [11773,1532805601,56.9565,-111.2003,614.6,168.6,356.5,2.9,4.3,25.17,45.36,1.9297,371.169],
    [11774,1532805602,56.9571,-111.2003,613.7,167.7,356.4,2.7,4.8,25.24,45.57,1.931,371.169],
    [11775,1532805603,56.9578,-111.2003,612.2,166.2,357.5,1.5,5.0,26.02,44.39,1.9311,372.7209],
    [11776,1532805604,56.9584,-111.2003,612.1,166.1,356.9,2.4,4.7,24.72,45.01,1.9318,372.7209],
    [11777,1532805605,56.959,-111.2004,612.9,166.9,357.2,2.3,4.1,25.5,44.82,1.9295,372.3384],
    [11778,1532805606,56.9597,-111.2004,613.7,167.7,357.9,1.6,4.4,25.42,44.8,1.9302,373.0807],
    [11779,1532805607,56.9603,-111.2004,615.4,169.4,357.8,1.9,4.2,25.24,44.66,1.928,373.4975],
    [11780,1532805608,56.9609,-111.2004,617.5,171.5,357.5,2.3,4.5,25.93,43.52,1.9233,373.2092],
    [11781,1532805609,56.9615,-111.2004,619.4,172.3,355.7,4.0,4.7,25.63,43.49,1.9245,372.4229],
    [11782,1532805610,56.9621,-111.2004,620.1,173.1,355.9,3.0,4.6,24.84,42.98,1.9286,372.0443],
    [11783,1532805611,56.9627,-111.2005,619.9,172.9,356.9,2.1,4.9,24.87,42.27,1.9311,373.3778],
    [11784,1532805612,56.9633,-111.2005,618.9,171.9,355.8,3.7,4.6,25.14,42.97,1.9328,373.8967],
    [11785,1532805613,56.964,-111.2005,618.5,171.5,355.2,4.6,4.5,25.25,42.72,1.9334,373.2859],
    [11786,1532805614,56.9646,-111.2005,619.3,172.3,356.7,3.5,4.6,25.46,42.82,1.9371,373.2247],
    [11787,1532805615,56.9652,-111.2005,620.8,173.8,358.0,2.4,4.7,24.93,43.31,1.9335,373.1735],
    [11788,1532805616,56.9658,-111.2005,621.7,175.0,358.4,2.3,4.5,25.26,43.7,1.9313,374.4505],
    [11789,1532805617,56.9664,-111.2005,622.0,176.0,357.7,2.7,5.7,25.18,44.03,1.9294,372.8225],
    [11790,1532805618,56.967,-111.2005,622.0,176.0,357.2,2.9,7.1,25.31,43.8,1.9282,372.8225],
    [11791,1532805619,56.9676,-111.2005,622.5,176.5,357.8,2.7,7.2,26.04,42.55,1.9255,373.6412],
    [11792,1532805620,56.9683,-111.2005,622.2,176.2,359.9,0.8,7.1,25.4,42.63,1.9332,373.5094],
    [11793,1532805621,56.9689,-111.2005,622.8,176.8,361.3,0.0,6.7,25.26,42.56,1.9385,374.1739],
    [11794,1532805622,56.9695,-111.2004,624.9,178.9,359.4,2.5,6.2,24.58,43.09,1.9392,373.9554],
    [11795,1532805623,56.9701,-111.2004,625.9,179.9,356.0,5.8,6.4,25.33,43.88,1.9386,374.1771],
    [11796,1532805624,56.9708,-111.2004,626.6,180.6,358.5,3.3,4.5,25.29,44.27,1.94,372.7553],
    [11797,1532805625,56.9714,-111.2003,626.8,180.8,360.2,2.0,3.8,26.18,44.46,1.9399,373.0486],
    [11798,1532805626,56.972,-111.2003,626.3,180.3,358.8,3.3,4.2,25.86,44.26,1.9394,372.981],
    [11799,1532805627,56.9726,-111.2003,626.7,180.7,358.8,2.7,4.2,25.14,44.87,1.9414,372.6655],
    [11800,1532805628,56.9732,-111.2003,628.1,182.1,359.0,2.4,4.3,25.33,45.23,1.9443,372.651],
    [11801,1532805629,56.9738,-111.2002,629.9,183.9,358.2,2.8,4.6,25.59,44.63,1.9493,374.3922],
    [11802,1532805630,56.9744,-111.2002,630.6,185.2,359.0,1.9,6.0,25.32,45.29,1.9498,372.5251],
    [11803,1532805631,56.9751,-111.2002,631.3,186.3,358.8,2.0,5.6,25.2,45.38,1.95,373.4296],
    [11804,1532805632,56.9757,-111.2002,631.3,186.3,359.9,0.7,5.4,24.99,45.97,1.9496,373.4296],
    [11805,1532805633,56.9763,-111.2002,630.3,186.3,360.1,0.5,5.6,25.59,45.67,1.9485,373.3893],
    [11806,1532805634,56.9769,-111.2002,628.8,184.8,358.6,1.9,5.4,25.57,45.0,1.9469,373.0922],
    [11807,1532805635,56.9775,-111.2002,628.4,185.4,357.1,3.0,5.3,25.07,45.3,1.9466,373.4886],
    [11808,1532805636,56.978,-111.2002,627.7,185.7,356.2,3.7,5.0,26.03,44.09,1.9459,374.7729],
    [11809,1532805637,56.9786,-111.2002,626.5,185.9,354.9,4.7,4.2,25.27,44.49,1.9656,373.3954],
    [11810,1532805638,56.9793,-111.2002,624.9,185.6,355.4,4.0,3.5,25.26,44.28,1.9688,374.3756],
    [11811,1532805639,56.9798,-111.2002,623.6,184.9,356.5,3.0,3.4,25.66,44.23,1.9689,373.3765],
    [11812,1532805640,56.9804,-111.2003,622.8,184.8,356.9,2.8,3.3,26.1,44.12,1.9693,373.8621],
    [11813,1532805641,56.981,-111.2003,622.8,184.8,357.9,2.0,3.2,25.24,45.53,1.9694,374.1257],
    [11814,1532805642,56.9816,-111.2003,622.6,184.6,358.0,2.1,3.2,24.56,45.82,1.9714,374.3428],
    [11815,1532805643,56.9822,-111.2003,622.7,184.7,357.9,2.5,3.1,25.59,45.53,1.971,373.8091],
    [11816,1532805644,56.9828,-111.2003,622.3,184.3,356.4,4.0,3.6,25.24,45.71,1.9677,373.749],
    [11817,1532805645,56.9834,-111.2003,622.0,184.0,356.0,4.2,3.5,24.97,45.3,1.9642,374.3595],
    [11818,1532805646,56.984,-111.2003,622.4,184.4,355.2,4.4,3.6,25.93,44.49,1.9616,374.2169],
    [11819,1532805647,56.9846,-111.2003,623.9,185.9,353.7,4.9,3.7,25.38,44.86,1.968,373.5603],
    [11820,1532805648,56.9852,-111.2003,624.9,186.9,354.7,3.4,2.9,25.93,44.0,1.9732,373.4855],
    [11821,1532805649,56.9857,-111.2004,624.9,186.9,355.5,2.7,3.9,24.78,45.31,1.9713,374.6658],
    [11822,1532805650,56.9863,-111.2004,624.7,186.7,354.4,3.6,3.7,25.72,44.16,1.9716,373.8861],
    [11823,1532805651,56.9869,-111.2004,623.5,185.5,355.6,2.3,3.7,25.07,46.3,1.969,373.376],
    [11824,1532805652,56.9875,-111.2005,623.1,185.1,355.9,2.5,4.0,24.7,45.79,1.9676,373.8771],
    [11825,1532805653,56.9881,-111.2005,624.6,187.6,355.4,3.4,3.4,25.43,45.61,1.967,373.3922],
    [11826,1532805654,56.9886,-111.2005,626.5,189.5,354.5,4.0,4.2,25.24,46.07,1.9692,372.9428],
    [11827,1532805655,56.9892,-111.2006,629.1,192.1,354.8,3.0,4.4,25.04,46.41,1.9681,372.7819],
    [11828,1532805656,56.9898,-111.2006,631.2,194.2,355.4,2.6,3.3,24.78,46.55,1.9682,372.9175],
    [11829,1532805657,56.9904,-111.2006,632.3,195.3,354.4,3.6,2.3,25.23,46.57,1.9607,372.832],
    [11830,1532805658,56.9909,-111.2007,632.2,195.2,355.2,2.6,2.1,25.28,46.86,1.9558,372.832],
    [11831,1532805659,56.9915,-111.2007,630.1,193.1,355.6,2.2,2.1,25.19,45.41,1.9535,373.1867],
    [11832,1532805660,56.9921,-111.2008,627.5,189.5,355.2,2.7,3.2,25.07,45.19,1.9542,373.6253],
    [11833,1532805661,56.9926,-111.2008,624.9,186.9,354.8,3.5,3.9,25.25,44.69,1.9582,373.2142],
    [11834,1532805662,56.9932,-111.2008,621.7,184.7,354.4,4.2,4.0,25.61,43.03,1.9651,374.0493],
    [11835,1532805663,56.9938,-111.2009,617.9,180.9,355.6,3.2,4.5,24.79,43.7,1.9677,373.178],
    [11836,1532805664,56.9944,-111.2009,613.5,176.9,356.4,2.9,5.1,25.83,43.16,1.9711,370.9346],
    [11837,1532805665,56.995,-111.2009,609.8,173.9,356.7,2.9,5.6,25.57,44.01,1.9788,372.6546],
    [11838,1532805666,56.9956,-111.2009,606.9,171.0,357.1,2.8,5.5,24.79,44.37,1.9854,372.9477],
    [11839,1532805667,56.9962,-111.2009,605.1,169.1,357.4,2.7,5.0,25.32,44.86,1.9854,373.0024],
    [11840,1532805668,56.9968,-111.2009,604.2,168.2,357.5,2.8,4.8,25.33,46.09,1.9788,373.6385],
    [11841,1532805669,56.9974,-111.2009,604.4,168.3,357.2,3.0,5.2,24.78,45.75,1.9731,373.8577],
    [11842,1532805670,56.998,-111.2009,604.8,168.6,357.3,2.8,5.5,25.26,45.37,1.9773,373.5416],
    [11843,1532805671,56.9986,-111.2009,604.4,167.4,357.5,2.4,5.6,24.98,45.06,1.9718,372.2189],
    [11844,1532805672,56.9992,-111.2009,603.6,166.8,358.1,1.7,6.2,24.47,44.93,1.9695,372.9776],
    [11845,1532805673,56.9997,-111.2009,603.2,165.6,357.8,2.0,6.3,25.26,44.62,1.9667,374.2824],
    [11846,1532805674,57.0003,-111.2009,603.3,165.4,357.2,2.1,5.8,24.9,44.65,1.9651,373.367],
    [11847,1532805675,57.0009,-111.2009,604.1,166.1,358.0,1.2,5.1,25.12,45.16,1.9686,373.367],
    [11848,1532805676,57.0015,-111.2009,605.4,167.3,357.4,1.6,4.8,25.16,45.41,1.9735,374.6354],
    [11849,1532805677,57.0021,-111.201,605.6,167.5,356.4,2.3,4.7,24.87,44.74,1.9755,373.4819],
    [11850,1532805678,57.0027,-111.201,605.8,167.7,356.1,2.2,4.3,24.75,45.04,1.9778,374.0229],
    [11851,1532805679,57.0032,-111.201,606.7,168.7,356.4,1.7,3.9,25.01,45.51,1.9832,373.9013],
    [11852,1532805680,57.0038,-111.2011,608.0,170.0,356.7,1.4,3.8,25.23,45.47,1.9881,373.7122],
    [11853,1532805681,57.0044,-111.2011,609.2,171.2,355.3,3.3,2.7,25.43,45.52,1.9931,374.254],
    [11854,1532805682,57.005,-111.2011,610.2,172.1,355.1,3.1,2.8,25.64,45.11,1.9987,373.8445],
    [11855,1532805683,57.0055,-111.2012,609.5,171.5,358.0,0.4,2.5,24.95,45.98,1.9971,373.4899],
    [11856,1532805684,57.0061,-111.2012,607.7,168.7,356.5,2.5,2.5,25.14,45.73,1.9951,374.6913],
    [11857,1532805685,57.0067,-111.2012,606.8,167.8,354.8,4.0,1.7,25.31,45.31,1.9967,372.8247],
    [11858,1532805686,57.0073,-111.2012,606.5,167.5,355.8,2.8,1.3,25.21,45.75,1.9961,372.8247],
    [11859,1532805687,57.0078,-111.2013,606.0,167.0,355.2,3.3,1.5,24.69,45.31,2.0023,373.486],
    [11860,1532805688,57.0084,-111.2013,606.0,167.0,354.3,3.7,1.4,24.97,45.23,2.001,372.3999],
    [11861,1532805689,57.009,-111.2013,605.2,167.2,353.9,3.8,1.4,25.15,45.14,2.0002,373.745],
    [11862,1532805690,57.0095,-111.2014,604.5,166.5,352.3,5.4,1.5,24.81,45.14,2.0039,373.7528],
    [11863,1532805691,57.0101,-111.2014,606.0,168.0,352.1,5.2,1.9,25.1,44.82,1.995,373.505],
    [11864,1532805692,57.0107,-111.2015,608.0,170.0,354.8,2.4,1.4,25.19,45.11,1.9991,372.2291],
    [11865,1532805693,57.0112,-111.2015,608.5,170.5,354.7,2.9,1.8,25.31,44.69,1.9977,372.2291],
    [11866,1532805694,57.0118,-111.2016,608.7,170.7,352.7,4.8,2.1,25.29,44.92,1.9983,372.5178],
    [11867,1532805695,57.0124,-111.2016,608.8,170.8,352.8,4.8,2.8,25.24,44.9,1.9966,373.5525],
    [11868,1532805696,57.0129,-111.2017,609.1,171.1,353.1,4.5,3.6,25.54,44.64,1.9918,372.9679],
    [11869,1532805697,57.0135,-111.2017,609.6,171.6,354.4,3.6,2.5,25.3,45.46,1.9949,372.9679],
    [11870,1532805698,57.0141,-111.2018,610.0,172.0,355.6,3.1,1.2,25.27,45.66,2.0014,372.7485],
    [11871,1532805699,57.0146,-111.2018,610.8,172.8,355.5,3.9,0.2,24.87,45.35,2.0052,373.5484],
    [11872,1532805700,57.0152,-111.2018,611.1,173.1,355.4,4.5,-0.4,24.97,46.15,2.0068,373.7999],
    [11873,1532805701,57.0157,-111.2018,610.8,172.8,355.8,4.2,0.3,25.41,46.58,2.0082,373.695],
    [11874,1532805702,57.0163,-111.2018,610.2,172.2,356.1,4.0,0.3,24.9,46.65,2.0034,373.695],
    [11875,1532805703,57.0169,-111.2018,609.5,171.5,356.3,3.8,1.4,25.03,46.51,1.9861,373.2248],
    [11876,1532805704,57.0174,-111.2018,608.5,170.5,355.9,4.0,2.1,25.44,46.15,1.9856,374.0672],
    [11877,1532805705,57.018,-111.2018,608.4,170.4,355.8,4.1,2.3,24.64,45.96,1.9926,373.8672],
    [11878,1532805706,57.0186,-111.2018,608.7,170.7,355.8,4.2,2.1,25.06,45.6,1.9971,373.8672],
    [11879,1532805707,57.0191,-111.2018,608.7,170.7,356.5,3.5,2.5,25.74,45.0,1.9921,373.5741],
    [11880,1532805708,57.0197,-111.2018,608.0,169.5,357.9,2.3,3.0,25.37,45.02,1.9914,374.1951],
    [11881,1532805709,57.0203,-111.2018,607.5,168.5,357.8,2.7,2.8,25.59,45.26,2.002,373.4994],
    [11882,1532805710,57.0209,-111.2018,608.5,169.5,357.5,2.6,3.4,24.76,45.67,2.0045,373.7799],
    [11883,1532805711,57.0215,-111.2018,609.5,170.5,358.3,1.8,3.3,25.27,46.18,2.0077,373.7799],
    [11884,1532805712,57.022,-111.2018,610.3,171.3,356.7,3.3,2.7,25.35,47.09,2.0089,373.1963],
    [11885,1532805713,57.0226,-111.2018,611.0,172.0,355.2,4.0,1.9,25.15,46.51,2.0095,373.9279],
    [11886,1532805714,57.0232,-111.2019,612.2,173.2,355.6,3.2,1.3,24.74,46.8,2.0094,371.7732],
    [11887,1532805715,57.0238,-111.2019,612.2,173.2,355.5,3.2,1.4,25.38,46.58,2.0052,373.7629],
    [11888,1532805716,57.0243,-111.2019,611.7,172.7,354.7,4.1,2.1,25.09,46.95,2.0006,373.4301],
    [11889,1532805717,57.0249,-111.202,611.1,172.1,354.7,4.0,2.7,24.62,46.73,1.9933,372.5605],
    [11890,1532805718,57.0255,-111.202,610.8,171.8,354.5,4.3,2.4,25.3,46.45,1.9875,374.2231],
    [11891,1532805719,57.0261,-111.202,611.2,172.2,355.0,4.3,1.8,25.31,46.09,1.9923,372.0115],
    [11892,1532805720,57.0266,-111.202,611.9,172.9,356.9,3.4,0.5,25.63,45.38,2.0063,373.9739],
    [11893,1532805721,57.0272,-111.202,613.2,173.2,358.3,3.0,0.5,25.38,45.84,2.0084,373.9739],
    [11894,1532805722,57.0278,-111.202,615.6,175.6,358.1,4.1,0.4,25.78,45.74,2.0047,373.0163],
    [11895,1532805723,57.0284,-111.202,617.4,177.4,357.0,5.0,0.9,25.77,45.99,2.0032,373.4167],
    [11896,1532805724,57.0289,-111.2019,619.0,179.0,358.6,2.8,1.1,24.94,46.3,2.0027,372.6853],
    [11897,1532805725,57.0295,-111.2019,620.4,180.4,359.7,1.6,1.3,25.12,45.87,2.0055,372.6853],
    [11898,1532805726,57.0301,-111.2019,622.4,182.2,359.4,1.6,1.5,25.25,46.1,2.0103,373.5552],
    [11899,1532805727,57.0307,-111.2019,624.4,183.4,359.8,1.0,1.7,25.09,45.79,2.012,373.5552],
    [11900,1532805728,57.0312,-111.2019,626.0,185.0,359.8,1.5,1.2,26.02,45.47,2.0062,373.2066],
    [11901,1532805729,57.0318,-111.2018,627.6,186.6,357.1,4.2,0.6,24.61,46.2,2.0006,374.0575],
    [11902,1532805730,57.0324,-111.2018,628.7,187.7,355.7,4.9,0.9,24.85,46.11,1.9962,373.8642],
    [11903,1532805731,57.033,-111.2018,629.3,188.0,355.5,4.8,1.1,25.73,45.8,1.9926,373.2206],
    [11904,1532805732,57.0335,-111.2018,628.9,186.9,355.2,5.1,1.0,25.08,46.22,1.9912,373.9966],
    [11905,1532805733,57.0341,-111.2018,628.4,186.4,355.6,4.9,1.8,24.85,46.33,1.9905,373.4011],
    [11906,1532805734,57.0347,-111.2018,628.1,186.1,357.0,4.3,2.0,26.01,46.03,1.9903,373.3098],
    [11907,1532805735,57.0353,-111.2018,627.8,185.8,358.9,2.9,1.4,24.83,46.76,1.9914,373.1815],
    [11908,1532805736,57.0359,-111.2018,626.6,184.4,360.4,1.8,-0.5,25.09,46.65,1.9938,374.2557],
    [11909,1532805737,57.0364,-111.2017,625.6,183.1,359.3,2.9,-0.3,25.51,46.56,1.9935,374.1397],
    [11910,1532805738,57.037,-111.2017,625.7,182.6,359.0,2.8,0.3,25.78,46.22,1.9903,374.0576],
    [11911,1532805739,57.0376,-111.2017,626.2,183.9,359.6,2.3,0.4,24.94,46.85,1.9807,374.0583],
    [11912,1532805740,57.0382,-111.2016,626.7,183.7,359.1,2.8,0.0,24.75,46.77,1.9866,374.2594],
    [11913,1532805741,57.0388,-111.2016,627.5,184.5,360.4,1.1,-0.5,25.29,46.44,1.9875,373.7258],
    [11914,1532805742,57.0393,-111.2016,627.8,184.8,361.8,0.1,-0.4,25.29,47.17,1.9842,373.6403],
    [11915,1532805743,57.0399,-111.2015,627.7,184.7,360.0,2.7,0.3,25.66,46.02,1.9738,374.6081],
    [11916,1532805744,57.0405,-111.2015,627.5,184.8,358.7,4.1,1.1,25.44,46.8,1.9736,374.3529],
    [11917,1532805745,57.0411,-111.2015,627.6,184.9,358.1,4.7,1.6,25.64,45.58,1.974,374.1183],
    [11918,1532805746,57.0417,-111.2014,627.8,184.9,359.1,3.3,2.3,25.32,45.37,1.9694,374.767],
    [11919,1532805747,57.0423,-111.2014,627.9,184.9,360.9,1.8,2.8,25.62,45.29,1.965,373.8131],
    [11920,1532805748,57.0429,-111.2013,627.7,184.7,361.4,1.4,3.3,26.25,44.5,1.968,373.886],
    [11921,1532805749,57.0435,-111.2013,627.5,184.5,361.8,1.7,3.8,25.84,44.46,1.9635,373.7306],
    [11922,1532805750,57.0441,-111.2012,627.6,184.3,2.8,0.8,4.1,24.75,44.76,1.9566,374.6474],
    [11923,1532805751,57.0446,-111.2011,626.8,182.8,3.3,0.7,4.4,25.03,44.65,1.9578,373.3608],
    [11924,1532805752,57.0453,-111.2011,625.6,181.6,360.2,3.5,4.8,25.84,43.33,1.9534,374.0037],
    [11925,1532805753,57.0458,-111.201,623.5,179.3,361.6,1.8,5.1,25.17,43.92,1.948,374.0037],
    [11926,1532805754,57.0464,-111.201,621.3,176.3,361.5,1.9,5.1,25.02,43.77,1.9509,375.0964],
    [11927,1532805755,57.047,-111.2009,620.6,175.6,359.7,3.4,4.7,24.58,44.08,1.9483,375.4552],
    [11928,1532805756,57.0476,-111.2009,620.7,175.7,360.5,1.9,4.5,25.28,43.75,1.9552,375.5337],
    [11929,1532805757,57.0482,-111.2008,620.3,174.3,360.2,2.0,5.0,25.49,43.81,1.9646,374.515],
    [11930,1532805758,57.0488,-111.2008,619.7,172.7,358.5,2.8,4.0,25.56,43.77,1.9632,374.1281],
    [11931,1532805759,57.0494,-111.2008,619.7,172.0,360.4,0.3,3.4,25.57,44.44,1.962,374.6556],
    [11932,1532805760,57.05,-111.2008,619.5,170.6,359.9,1.2,3.2,26.14,44.75,1.9645,374.7513],
    [11933,1532805761,57.0506,-111.2008,619.8,169.8,357.6,3.5,4.3,24.92,46.03,1.9669,374.2969],
    [11934,1532805762,57.0512,-111.2007,620.5,169.5,360.6,0.4,5.0,25.99,45.86,1.9692,372.5457],
    [11935,1532805763,57.0518,-111.2007,619.0,166.3,362.2,-1.0,5.4,25.13,47.2,1.9697,373.4005],
    [11936,1532805764,57.0524,-111.2007,617.2,163.1,357.0,1.8,4.2,24.66,47.41,1.9643,373.9177],
    [11937,1532805765,57.053,-111.2008,615.5,160.5,352.5,2.6,2.1,25.45,47.78,1.9637,372.9337],
    [11938,1532805766,57.0536,-111.2009,614.0,159.1,345.9,3.7,0.9,25.19,47.41,1.9639,373.2186],
    [11939,1532805767,57.0541,-111.2012,614.2,158.9,340.3,3.9,1.0,25.62,47.67,1.9618,373.2186],
    [11940,1532805768,57.0547,-111.2015,615.2,159.5,334.9,3.8,2.0,25.46,47.14,1.9601,373.959],
    [11941,1532805769,57.0552,-111.2019,616.2,161.2,330.6,3.8,1.8,25.59,47.0,1.9618,373.8606],
    [11942,1532805770,57.0557,-111.2024,616.3,162.7,326.4,4.1,2.0,26.0,46.33,1.9547,374.4091],
    [11943,1532805771,57.0562,-111.203,616.4,164.4,322.5,4.3,2.7,25.76,46.23,1.9517,373.4585],
    [11944,1532805772,57.0567,-111.2036,616.5,166.3,319.9,4.7,1.3,25.22,45.95,1.9522,374.3818],
    [11945,1532805773,57.0571,-111.2042,617.1,169.1,316.6,5.2,1.1,25.59,44.87,1.9578,373.8556],
    [11946,1532805774,57.0576,-111.2049,617.5,169.5,313.9,5.3,1.1,25.71,44.65,1.9587,372.5444],
    [11947,1532805775,57.058,-111.2056,617.5,169.5,311.3,5.7,1.0,25.34,44.99,1.9626,375.7566],
    [11948,1532805776,57.0583,-111.2063,617.2,169.2,308.7,5.7,0.9,25.14,45.59,1.961,374.1919],
    [11949,1532805777,57.0587,-111.2071,616.5,168.5,305.8,5.3,1.6,25.82,45.52,1.9592,374.5739],
    [11950,1532805778,57.0591,-111.2079,615.4,167.4,302.8,5.2,1.8,25.03,46.05,1.9529,374.122],
    [11951,1532805779,57.0594,-111.2087,613.6,165.6,298.9,5.1,2.7,25.11,45.96,1.9574,374.7612],
    [11952,1532805780,57.0597,-111.2096,611.9,164.9,294.2,5.0,4.0,25.3,46.04,1.9552,374.1129],
    [11953,1532805781,57.0599,-111.2105,610.0,163.0,291.6,4.0,3.4,25.9,45.04,1.9565,374.4627],
    [11954,1532805782,57.0601,-111.2114,608.3,162.2,288.2,3.6,3.7,25.17,45.4,1.958,373.948],
    [11955,1532805783,57.0603,-111.2123,607.5,163.6,284.7,3.8,3.5,24.93,45.75,1.9617,373.8931],
    [11956,1532805784,57.0605,-111.2133,607.3,163.3,281.6,4.2,2.9,25.28,45.8,1.9613,374.2492],
    [11957,1532805785,57.0606,-111.2142,606.1,163.0,277.2,3.6,4.1,25.61,46.02,1.9614,374.2492],
    [11958,1532805786,57.0607,-111.2152,604.6,161.6,272.4,3.0,5.2,25.79,45.95,1.9612,374.5888],
    [11959,1532805787,57.0607,-111.2162,604.4,161.4,269.9,3.4,3.9,25.17,46.7,1.9638,373.7842],
    [11960,1532805788,57.0608,-111.2173,605.5,162.5,268.0,3.1,3.2,24.6,46.87,1.9668,373.8381],
    [11961,1532805789,57.0608,-111.2183,606.1,163.1,267.9,3.1,2.3,25.62,47.15,1.9661,373.1149],
    [11962,1532805790,57.0608,-111.2193,605.3,162.3,267.7,3.3,2.4,24.6,47.42,1.9659,373.1149],
    [11963,1532805791,57.0608,-111.2203,604.4,162.4,268.7,3.7,1.5,25.92,46.87,1.9591,374.4204],
    [11964,1532805792,57.0608,-111.2213,603.5,162.6,267.7,3.8,2.1,25.64,47.4,1.9372,374.3426],
    [11965,1532805793,57.0608,-111.2223,604.0,164.1,266.9,4.6,2.6,25.63,46.69,1.9268,374.1602],
    [11966,1532805794,57.0608,-111.2233,604.6,165.2,266.2,5.4,3.6,25.18,45.53,1.9252,374.1988],
    [11967,1532805795,57.0607,-111.2243,605.3,167.3,265.9,5.3,3.9,25.7,42.67,1.9319,372.4654],
    [11968,1532805796,57.0607,-111.2253,605.0,168.0,267.2,5.2,2.6,25.5,41.76,1.9305,373.5071],
    [11969,1532805797,57.0607,-111.2263,604.0,168.0,268.1,4.5,2.3,25.38,41.08,1.9289,374.0568],
    [11970,1532805798,57.0607,-111.2273,602.9,168.9,266.9,4.5,3.7,24.94,41.33,1.9416,375.3132],
    [11971,1532805799,57.0607,-111.2284,600.9,170.1,266.8,4.1,2.9,25.42,41.23,1.9337,376.3721],
    [11972,1532805800,57.0607,-111.2295,597.6,170.6,267.8,3.9,1.6,25.57,41.1,1.9376,376.4944],
    [11973,1532805801,57.0607,-111.2305,594.9,171.9,265.3,4.1,3.6,25.19,42.05,1.9419,375.5489],
    [11974,1532805802,57.0607,-111.2315,592.4,172.6,265.8,4.3,2.6,25.21,42.27,1.9391,374.654],
    [11975,1532805803,57.0607,-111.2325,589.6,172.7,265.8,4.6,2.4,25.37,42.16,1.9346,374.654],
    [11976,1532805804,57.0606,-111.2335,586.8,170.8,264.6,4.1,3.3,26.23,41.66,1.9403,375.3287],
    [11977,1532805805,57.0606,-111.2346,584.6,169.6,264.1,4.0,3.1,25.49,42.35,1.9365,375.1642],
    [11978,1532805806,57.0606,-111.2356,583.0,169.6,263.7,3.7,2.9,25.95,41.2,1.9268,375.9597],
    [11979,1532805807,57.0605,-111.2366,581.8,169.9,263.0,3.7,3.5,25.48,41.61,1.939,374.9126],
    [11980,1532805808,57.0605,-111.2376,581.1,170.0,262.6,3.0,4.0,25.49,41.1,1.9474,374.9331],
    [11981,1532805809,57.0605,-111.2386,580.4,170.4,263.9,2.3,3.5,24.88,41.24,1.9475,376.9853],
    [11982,1532805810,57.0604,-111.2396,580.1,171.1,263.6,2.0,4.7,25.8,40.87,1.9445,375.022],
    [11983,1532805811,57.0604,-111.2407,580.3,171.6,264.1,2.2,4.8,25.01,42.71,1.9508,376.3231],
    [11984,1532805812,57.0604,-111.2417,580.3,172.3,264.7,2.9,4.4,25.28,43.53,1.9508,375.3155],
    [11985,1532805813,57.0604,-111.2427,580.5,173.5,264.3,4.4,5.0,25.47,44.27,1.9514,374.1624],
    [11986,1532805814,57.0604,-111.2438,580.8,174.8,264.8,3.9,4.4,25.36,44.51,1.952,376.2903],
    [11987,1532805815,57.0604,-111.2448,581.6,176.6,265.3,3.2,4.0,25.33,44.62,1.9531,376.2903],
    [11988,1532805816,57.0603,-111.2458,582.7,177.8,265.1,3.5,4.3,25.7,45.04,1.9583,375.4565],
    [11989,1532805817,57.0603,-111.2469,584.5,180.6,266.4,3.8,3.1,25.66,45.36,1.9555,374.6485],
    [11990,1532805818,57.0603,-111.248,587.5,184.6,267.0,4.5,2.3,26.41,45.11,1.9536,375.1957],
    [11991,1532805819,57.0603,-111.249,588.5,186.4,268.0,5.4,1.5,25.25,46.36,1.9537,375.1957],
    [11992,1532805820,57.0603,-111.25,588.5,187.1,267.3,7.5,2.2,25.67,46.74,1.9497,375.0535],
    [11993,1532805821,57.0603,-111.251,588.1,187.2,267.0,7.5,2.2,25.8,46.01,1.948,375.1796],
    [11994,1532805822,57.0603,-111.2521,588.0,188.0,265.7,7.0,3.3,25.54,45.89,1.9495,374.3895],
    [11995,1532805823,57.0603,-111.2531,587.8,187.8,265.6,6.3,3.1,25.41,45.38,1.9509,375.3036],
    [11996,1532805824,57.0602,-111.2541,587.3,187.3,265.8,6.6,2.8,24.99,45.05,1.9515,374.8274],
    [11997,1532805825,57.0602,-111.2552,586.9,187.6,265.5,6.4,3.1,25.66,45.47,1.9507,374.5012],
    [11998,1532805826,57.0602,-111.2562,586.3,187.3,266.1,6.2,2.7,26.33,44.73,1.9457,375.1239],
    [11999,1532805827,57.0602,-111.2572,585.5,186.5,265.9,5.6,3.0,25.82,44.97,1.9444,376.0441],
    [12000,1532805828,57.0602,-111.2583,584.4,185.7,266.7,5.0,2.3,25.6,44.97,1.9488,376.0441],
    [12001,1532805829,57.0602,-111.2593,583.0,185.0,266.3,4.2,2.5,26.24,43.78,1.9487,374.0776],
    [12002,1532805830,57.0601,-111.2603,581.4,183.4,265.8,3.6,2.6,24.76,44.19,1.9504,376.8944],
    [12003,1532805831,57.0601,-111.2614,580.0,183.0,265.4,3.6,2.7,26.04,44.14,1.9514,376.8944],
    [12004,1532805832,57.0601,-111.2624,577.8,180.8,265.3,3.3,2.4,26.06,43.75,1.9526,376.1626],
    [12005,1532805833,57.0601,-111.2634,575.1,179.0,264.8,2.4,2.9,25.42,44.78,1.9547,373.6929],
    [12006,1532805834,57.06,-111.2645,571.8,175.8,263.9,2.1,3.8,25.03,44.9,1.9538,374.1984],
    [12007,1532805835,57.06,-111.2656,569.8,174.4,264.4,2.2,3.7,26.01,45.09,1.9531,374.1984],
    [12008,1532805836,57.06,-111.2666,568.8,173.8,264.5,2.6,4.1,26.14,45.37,1.9563,375.4382],
    [12009,1532805837,57.06,-111.2677,568.3,173.3,264.8,2.7,4.4,26.32,45.23,1.9558,374.4433],
    [12010,1532805838,57.0599,-111.2687,567.8,173.8,265.3,2.3,4.7,26.04,45.26,1.9557,373.5259],
    [12011,1532805839,57.0599,-111.2698,567.6,173.9,265.7,2.4,5.0,25.0,45.87,1.9539,374.2212],
    [12012,1532805840,57.0599,-111.2708,566.7,173.7,266.8,2.3,4.1,25.82,45.49,1.9533,374.2212],
    [12013,1532805841,57.0599,-111.2719,565.6,173.6,267.3,2.1,3.7,25.93,45.41,1.9561,374.1897],
    [12014,1532805842,57.06,-111.273,564.2,173.2,266.4,2.4,4.9,25.58,45.91,1.9549,374.045],
    [12015,1532805843,57.06,-111.274,562.2,172.2,266.3,1.4,4.8,26.29,45.29,1.9536,373.4223],
    [12016,1532805844,57.06,-111.2751,559.9,170.9,267.4,0.7,3.9,25.62,46.73,1.9536,373.2522],
    [12017,1532805845,57.06,-111.2762,557.9,169.9,267.3,0.7,4.2,26.32,45.88,1.9529,374.4005],
    [12018,1532805846,57.06,-111.2773,556.4,168.4,269.5,0.5,1.9,25.9,45.98,1.954,374.3337],
    [12019,1532805847,57.06,-111.2785,554.7,167.7,269.4,2.1,2.2,25.41,46.44,1.9527,374.0398],
    [12020,1532805848,57.06,-111.2796,554.7,167.7,267.7,2.9,3.3,25.66,46.23,1.9514,374.0523],
    [12021,1532805849,57.06,-111.2807,555.2,168.9,268.1,3.2,2.3,25.82,46.69,1.9501,373.7817],
    [12022,1532805850,57.06,-111.2817,556.1,170.1,266.1,3.5,3.9,25.34,46.25,1.9509,374.912],
    [12023,1532805851,57.06,-111.2828,556.5,170.5,267.1,3.6,2.4,25.76,46.45,1.9519,377.5725],
    [12024,1532805852,57.06,-111.2839,556.7,171.0,266.5,3.5,3.1,26.2,45.46,1.9526,378.8482],
    [12025,1532805853,57.06,-111.285,556.3,171.3,266.6,3.7,2.9,25.73,46.03,1.9553,376.0959],
    [12026,1532805854,57.06,-111.2861,554.8,169.8,267.9,3.7,2.0,25.71,45.42,1.9531,375.8713],
    [12027,1532805855,57.06,-111.2871,552.9,169.0,268.2,3.2,2.1,25.79,45.1,1.9498,377.2816],
    [12028,1532805856,57.06,-111.2882,551.6,167.5,268.8,2.7,2.4,25.94,44.45,1.9506,377.2816],
    [12029,1532805857,57.06,-111.2893,551.0,168.8,268.9,3.5,2.5,25.85,45.07,1.9525,377.2884],
    [12030,1532805858,57.06,-111.2904,549.8,168.8,270.0,3.6,1.6,25.91,45.15,1.9513,374.2355],
    [12031,1532805859,57.06,-111.2914,549.1,169.1,268.5,3.4,3.9,26.15,43.95,1.9518,374.575],
    [12032,1532805860,57.06,-111.2925,549.0,170.1,266.3,3.8,6.3,25.98,45.07,1.9523,374.8941],
    [12033,1532805861,57.06,-111.2936,548.7,170.7,268.3,4.8,4.4,25.92,45.44,1.9533,374.8941],
    [12034,1532805862,57.0601,-111.2947,547.7,170.7,268.8,4.4,4.6,25.91,45.5,1.9496,375.7731],
    [12035,1532805863,57.0601,-111.2958,546.2,170.2,268.0,4.4,5.2,25.87,45.1,1.9496,376.4455],
    [12036,1532805864,57.0601,-111.2968,544.2,169.1,269.5,3.9,3.7,26.52,44.36,1.9498,376.4455],
    [12037,1532805865,57.0602,-111.2979,542.0,168.3,268.9,3.4,4.4,26.42,44.02,1.9507,375.73],
    [12038,1532805866,57.0602,-111.299,540.3,167.9,269.9,3.5,3.3,25.82,44.94,1.9521,375.1227],
    [12039,1532805867,57.0602,-111.3001,540.0,168.8,270.3,3.4,2.7,25.93,44.13,1.9506,375.1914],
    [12040,1532805868,57.0602,-111.3012,540.5,170.6,270.6,4.0,1.8,26.58,44.33,1.9516,375.6635],
    [12041,1532805869,57.0603,-111.3023,540.5,171.0,271.3,3.8,0.6,26.25,44.53,1.9517,375.852],
    [12042,1532805870,57.0603,-111.3034,541.3,172.3,269.5,3.2,2.3,25.49,44.76,1.9578,377.525],
    [12043,1532805871,57.0603,-111.3045,542.1,173.1,268.6,3.8,2.7,26.44,44.56,1.9551,374.7131],
    [12044,1532805872,57.0603,-111.3056,542.7,174.7,268.1,3.7,2.8,25.31,44.69,1.9518,375.2011],
    [12045,1532805873,57.0603,-111.3067,542.7,176.1,267.9,3.5,2.8,26.15,44.47,1.9565,373.6308],
    [12046,1532805874,57.0603,-111.3078,543.6,177.6,268.0,5.0,2.1,25.99,44.63,1.9586,376.6435],
    [12047,1532805875,57.0603,-111.3088,545.1,180.1,268.4,5.3,1.7,26.4,44.7,1.9603,375.1133],
    [12048,1532805876,57.0603,-111.3099,545.3,181.3,268.2,4.2,1.3,25.92,45.16,1.9597,374.4679],
    [12049,1532805877,57.0603,-111.311,544.0,181.0,268.2,4.0,1.7,26.01,45.26,1.9604,375.8952],
    [12050,1532805878,57.0603,-111.3121,541.6,178.6,266.2,4.3,3.5,25.62,45.55,1.9624,376.58],
    [12051,1532805879,57.0603,-111.3132,539.2,177.2,267.7,4.9,1.9,25.85,45.36,1.9651,377.6513],
    [12052,1532805880,57.0603,-111.3143,536.7,174.7,266.7,5.7,3.3,25.87,45.2,1.9737,382.8773],
    [12053,1532805881,57.0602,-111.3154,534.3,172.3,267.5,6.1,2.6,25.48,44.94,1.974,382.8773],
    [12054,1532805882,57.0602,-111.3165,532.6,170.6,267.7,5.9,2.6,26.25,44.9,1.9822,385.5636],
    [12055,1532805883,57.0602,-111.3176,531.3,169.3,268.2,5.3,2.2,25.6,44.8,1.9876,385.2301],
    [12056,1532805884,57.0602,-111.3187,530.9,168.9,269.2,4.7,1.8,26.32,44.25,1.9836,383.6147],
    [12057,1532805885,57.0603,-111.3198,530.8,168.8,269.9,4.2,1.5,25.93,44.05,1.983,383.2771],
    [12058,1532805886,57.0603,-111.3209,530.1,168.1,270.3,3.0,1.6,25.91,43.9,1.99,384.1952],
    [12059,1532805887,57.0603,-111.3221,528.0,167.0,268.5,2.6,3.6,26.51,43.67,1.9912,384.6367],
    [12060,1532805888,57.0603,-111.3232,525.5,164.8,268.7,2.9,3.0,26.23,44.16,1.9913,383.4265],
    [12061,1532805889,57.0603,-111.3243,524.1,164.1,267.7,1.4,3.6,26.02,44.31,1.9831,381.6464],
    [12062,1532805890,57.0603,-111.3254,522.6,163.6,267.0,1.6,3.8,26.2,44.65,1.9782,381.6464],
    [12063,1532805891,57.0603,-111.3265,521.5,162.5,266.5,1.8,4.0,25.88,45.06,1.9825,381.722],
    [12064,1532805892,57.0603,-111.3276,521.2,163.2,264.6,2.4,5.4,26.71,44.3,1.9822,380.897],
    [12065,1532805893,57.0603,-111.3288,520.6,163.6,266.2,2.7,3.2,26.49,44.69,1.978,378.1058],
    [12066,1532805894,57.0603,-111.3299,519.2,163.2,266.9,2.7,3.2,27.11,44.51,1.9752,377.7738],
    [12067,1532805895,57.0603,-111.331,517.8,162.8,265.0,2.6,5.1,26.5,44.82,1.9927,382.8784],
    [12068,1532805896,57.0603,-111.3321,516.3,161.3,266.5,1.4,3.8,26.27,44.99,2.0044,382.8784],
    [12069,1532805897,57.0603,-111.3333,514.3,160.3,265.8,0.6,4.9,26.79,44.11,1.9889,380.05],
    [12070,1532805898,57.0603,-111.3344,512.9,158.9,267.6,0.7,3.1,26.2,44.25,1.9969,382.007],
    [12071,1532805899,57.0603,-111.3355,511.5,157.5,266.7,-0.3,4.1,26.47,44.16,1.9976,381.6492],
    [12072,1532805900,57.0603,-111.3367,510.5,156.5,266.6,0.0,3.7,26.69,44.48,1.9992,381.7055],
    [12073,1532805901,57.0603,-111.3378,509.0,155.0,268.4,-0.4,1.9,26.66,44.53,1.9971,379.8283],
    [12074,1532805902,57.0603,-111.3389,508.2,154.2,267.4,-1.5,3.1,26.36,44.57,1.9845,377.2757],
    [12075,1532805903,57.0603,-111.3401,508.3,154.3,267.5,-0.8,2.8,26.76,44.03,1.9838,377.2692],
    [12076,1532805904,57.0603,-111.3412,507.8,153.8,267.8,-0.4,2.5,26.09,44.55,1.9869,377.9366],
    [12077,1532805905,57.0603,-111.3424,505.5,151.5,267.3,-0.8,3.1,25.91,44.88,1.9895,378.2833],
    [12078,1532805906,57.0603,-111.3435,503.1,149.1,267.3,-1.9,2.9,26.96,44.9,1.9961,380.5515],
    [12079,1532805907,57.0603,-111.3446,500.1,147.1,267.2,-2.3,3.0,25.93,45.07,1.9971,379.1004],
    [12080,1532805908,57.0603,-111.3458,497.5,144.5,267.3,-3.2,2.7,26.28,45.15,1.9893,378.7179],
    [12081,1532805909,57.0602,-111.3469,496.0,143.7,267.7,-3.0,2.6,26.36,45.82,1.9907,379.4214],
    [12082,1532805910,57.0602,-111.3481,495.2,143.2,267.6,-3.2,2.9,25.9,45.4,1.996,379.4214],
    [12083,1532805911,57.0602,-111.3492,495.0,143.0,267.6,-3.2,3.2,26.49,46.06,1.9937,375.1233],
    [12084,1532805912,57.0603,-111.3503,494.9,143.9,268.0,-3.4,3.0,26.66,45.82,1.9942,377.8064],
    [12085,1532805913,57.0603,-111.3515,494.3,143.3,268.7,-3.8,2.8,26.14,45.8,1.9922,376.5802],
    [12086,1532805914,57.0603,-111.3526,493.2,143.2,268.6,-4.4,3.2,26.39,46.22,1.9911,376.5802],
    [12087,1532805915,57.0603,-111.3537,492.2,142.2,268.3,-5.1,3.1,27.21,45.25,1.9911,376.9719],
    [12088,1532805916,57.0603,-111.3549,491.9,141.8,267.1,-5.6,3.0,26.46,46.01,1.9908,377.7085],
    [12089,1532805917,57.0603,-111.356,490.9,141.9,266.6,-5.9,3.2,27.19,45.23,1.9917,375.8079],
    [12090,1532805918,57.0603,-111.3571,489.5,140.5,265.7,-6.6,3.8,26.47,45.8,2.0003,378.4879],
    [12091,1532805919,57.0603,-111.3582,488.5,140.5,266.9,-7.3,2.5,26.4,46.23,2.0025,379.3626],
    [12092,1532805920,57.0603,-111.3594,488.2,140.2,266.9,-7.5,2.8,26.04,46.76,2.0056,380.2375],
    [12093,1532805921,57.0603,-111.3605,488.4,140.4,266.4,-6.6,3.6,25.59,46.46,2.0069,380.2375],
    [12094,1532805922,57.0603,-111.3617,487.9,140.9,266.9,-6.3,3.1,26.2,46.73,2.0029,380.7088],
    [12095,1532805923,57.0603,-111.3628,487.3,140.3,267.7,-7.0,2.7,26.43,46.86,2.0019,378.6616],
    [12096,1532805924,57.0603,-111.3639,487.1,140.4,267.4,-6.0,3.6,26.27,46.02,1.9978,380.775],
    [12097,1532805925,57.0603,-111.365,485.4,139.4,269.9,-4.4,1.5,26.39,45.67,1.9909,379.8163],
    [12098,1532805926,57.0603,-111.3661,483.5,137.5,270.5,-4.0,1.5,26.53,45.01,1.992,379.8163],
    [12099,1532805927,57.0603,-111.3672,481.4,136.4,269.4,-4.7,2.3,26.44,45.51,2.0018,381.416],
    [12100,1532805928,57.0603,-111.3684,479.7,134.7,268.1,-5.1,2.9,26.11,44.36,2.0006,381.3474],
    [12101,1532805929,57.0603,-111.3695,478.7,133.7,266.8,-4.6,3.5,26.81,43.77,2.0006,381.4538],
    [12102,1532805930,57.0603,-111.3705,477.4,133.4,265.6,-4.0,3.8,26.52,44.39,2.0031,380.4149],
    [12103,1532805931,57.0603,-111.3716,477.0,133.0,264.7,-3.9,3.4,26.43,44.67,2.0088,380.81],
    [12104,1532805932,57.0603,-111.3727,477.4,134.4,265.0,-4.1,2.3,26.26,45.16,2.0125,382.2916],
    [12105,1532805933,57.0603,-111.3738,478.0,135.0,264.6,-3.8,2.6,27.1,44.6,2.0175,381.9619],
    [12106,1532805934,57.0602,-111.3749,479.3,135.3,264.8,-3.5,2.7,26.55,46.13,2.0173,382.5343],
    [12107,1532805935,57.0602,-111.3759,481.0,137.0,265.6,-4.0,2.6,26.04,46.12,2.0152,382.0375],
    [12108,1532805936,57.0602,-111.377,483.3,139.3,266.8,-4.1,1.8,26.33,46.06,2.0062,380.9579],
    [12109,1532805937,57.0602,-111.3781,485.0,141.0,268.5,-4.3,0.9,26.02,46.36,2.007,380.4266],
    [12110,1532805938,57.0602,-111.3791,485.6,142.4,267.6,-4.4,2.3,26.37,46.28,2.0148,381.5312],
    [12111,1532805939,57.0602,-111.3801,486.4,143.4,267.6,-3.0,2.3,26.52,45.88,2.0156,380.0764],
    [12112,1532805940,57.0602,-111.3812,487.8,144.8,267.4,-2.1,2.2,26.25,46.14,2.015,377.6518],
    [12113,1532805941,57.0602,-111.3822,489.2,146.2,266.6,-2.0,2.3,26.05,46.32,2.0119,379.1296],
    [12114,1532805942,57.0601,-111.3832,490.1,148.1,265.8,-1.9,2.1,27.05,45.97,2.0076,377.2045],
    [12115,1532805943,57.0601,-111.3842,490.7,148.7,263.4,-1.6,2.9,26.19,46.55,2.0032,378.1476],
    [12116,1532805944,57.0601,-111.3852,492.3,150.3,260.2,-1.0,4.0,26.34,47.49,2.0053,377.323],
    [12117,1532805945,57.06,-111.3862,494.7,153.7,259.2,0.1,3.3,26.22,46.83,2.0048,375.3934],
    [12118,1532805946,57.0599,-111.3872,497.4,156.4,257.4,0.0,3.4,25.8,47.08,2.0019,376.9261],
    [12119,1532805947,57.0598,-111.3882,499.5,158.5,256.3,0.1,3.0,26.17,47.06,2.0022,377.3947],
    [12120,1532805948,57.0597,-111.3891,500.4,159.4,256.4,-0.2,1.9,25.89,47.16,2.0025,376.2971],
    [12121,1532805949,57.0596,-111.3901,500.3,159.3,253.6,-0.3,4.1,26.1,47.1,2.0014,374.383],
    [12122,1532805950,57.0595,-111.391,499.5,158.5,251.3,0.0,5.4,26.85,46.55,2.0003,375.9555],
    [12123,1532805951,57.0594,-111.392,499.0,158.0,252.2,0.4,3.8,26.86,46.98,2.0017,375.9555],
    [12124,1532805952,57.0592,-111.3929,498.7,157.7,253.4,0.5,2.5,26.13,47.58,2.0024,375.7438],
    [12125,1532805953,57.0591,-111.3939,498.3,157.3,252.5,0.6,3.0,26.77,47.18,2.0042,376.7809],
    [12126,1532805954,57.059,-111.3948,498.4,157.4,251.0,0.8,3.6,26.34,47.87,2.005,376.7809],
    [12127,1532805955,57.0588,-111.3957,498.4,157.4,249.3,0.7,3.6,26.4,47.67,2.0033,375.3388],
    [12128,1532805956,57.0586,-111.3966,497.6,156.6,246.5,0.2,4.4,26.38,47.65,2.0018,375.4284],
    [12129,1532805957,57.0585,-111.3975,496.6,155.6,243.5,0.2,4.5,26.41,47.73,1.9961,375.7731],
    [12130,1532805958,57.0582,-111.3984,495.6,154.6,242.1,0.4,3.5,26.3,47.68,1.9938,373.7733],
    [12131,1532805959,57.058,-111.3993,494.7,153.7,240.0,0.5,4.1,26.42,47.2,1.9943,374.6882],
    [12132,1532805960,57.0578,-111.4001,493.7,152.7,237.5,0.7,5.1,26.21,47.56,1.9952,375.0591],
    [12133,1532805961,57.0575,-111.4009,492.3,151.3,238.8,1.0,3.0,26.45,47.31,1.9958,373.9477],
    [12134,1532805962,57.0573,-111.4018,491.0,150.0,238.8,0.9,2.6,27.11,46.74,1.9993,374.5572],
    [12135,1532805963,57.057,-111.4026,489.5,148.5,239.0,1.8,2.3,27.1,47.12,1.9994,374.5572],
    [12136,1532805964,57.0567,-111.4034,488.3,147.3,238.6,1.5,1.9,26.31,47.57,1.9983,374.551],
    [12137,1532805965,57.0565,-111.4042,487.0,146.0,236.7,0.6,3.0,26.13,47.65,1.9992,375.566],
    [12138,1532805966,57.0562,-111.4051,485.9,144.9,235.3,0.7,3.5,26.98,46.9,1.9991,374.1397],
    [12139,1532805967,57.0559,-111.4059,485.5,144.5,235.1,1.2,3.1,26.62,47.85,1.9979,374.968],
    [12140,1532805968,57.0556,-111.4067,485.1,144.1,233.9,1.2,4.0,27.25,47.25,2.0007,376.0669],
    [12141,1532805969,57.0553,-111.4075,485.2,144.2,232.8,1.4,5.0,26.35,47.89,2.0028,378.0165],
    [12142,1532805970,57.055,-111.4083,486.0,145.0,231.9,1.8,5.7,26.37,47.59,2.0064,377.9874],
    [12143,1532805971,57.0547,-111.409,487.0,146.3,232.6,2.8,5.1,26.33,46.94,2.0161,377.8865],
    [12144,1532805972,57.0544,-111.4098,488.0,148.0,232.7,2.6,5.0,26.36,46.46,2.0177,379.4637],
    [12145,1532805973,57.0541,-111.4106,489.1,149.1,232.0,2.2,5.2,27.08,45.93,2.0101,379.6457],
    [12146,1532805974,57.0538,-111.4114,489.8,150.1,233.6,3.9,3.9,26.48,46.24,1.9973,377.0519],
    [12147,1532805975,57.0535,-111.4122,490.5,151.6,233.7,4.6,3.9,26.08,46.07,1.9936,376.8612],
    [12148,1532805976,57.0532,-111.4129,491.5,152.5,231.4,3.9,5.2,26.22,45.89,1.9904,377.6765],
    [12149,1532805977,57.0529,-111.4137,493.6,154.6,230.8,4.0,5.4,26.11,45.47,1.9887,377.3337],
    [12150,1532805978,57.0526,-111.4145,495.6,156.6,230.2,3.6,5.6,26.07,45.1,1.9927,373.7002],
    [12151,1532805979,57.0523,-111.4152,497.8,158.8,230.2,3.1,6.0,26.48,45.38,1.9982,377.7682],
    [12152,1532805980,57.052,-111.416,498.9,159.9,230.2,2.9,6.1,26.1,45.14,1.9995,377.7082],
    [12153,1532805981,57.0516,-111.4167,499.1,161.1,231.8,3.4,4.9,26.92,44.99,2.0047,376.9424],
    [12154,1532805982,57.0513,-111.4175,498.8,160.8,230.1,2.4,6.0,26.86,45.1,2.0149,378.2229],
    [12155,1532805983,57.051,-111.4183,498.0,160.0,229.7,2.3,5.8,26.26,45.52,2.0223,379.7469],
    [12156,1532805984,57.0507,-111.419,496.8,158.8,230.9,2.6,4.4,26.3,45.91,2.0224,377.9198],
    [12157,1532805985,57.0504,-111.4198,496.0,159.0,230.5,1.6,5.0,26.19,46.21,2.021,378.6051],
    [12158,1532805986,57.0501,-111.4206,495.4,158.4,230.4,1.9,5.6,25.85,46.25,2.0194,377.5504],
    [12159,1532805987,57.0498,-111.4214,494.6,157.6,233.1,3.1,4.1,26.18,46.34,2.0122,376.1715],
    [12160,1532805988,57.0495,-111.4222,493.7,156.7,234.4,4.0,4.7,26.53,46.23,1.9876,375.246],
    [12161,1532805989,57.0492,-111.423,492.5,156.6,234.3,4.6,5.2,27.01,45.65,1.9758,375.246],
    [12162,1532805990,57.0489,-111.4238,491.4,155.4,234.9,4.9,4.3,26.52,45.09,1.9648,375.5552],
    [12163,1532805991,57.0486,-111.4246,490.9,154.9,232.7,3.4,5.4,26.88,43.54,1.9709,375.951],
    [12164,1532805992,57.0483,-111.4254,490.2,154.2,232.9,3.3,4.5,26.29,42.68,1.9661,376.7648],
    [12165,1532805993,57.0479,-111.4262,488.9,153.9,233.3,2.6,3.4,26.63,41.86,1.9726,375.2143],
    [12166,1532805994,57.0476,-111.4269,487.7,152.7,231.2,1.3,4.1,26.73,41.23,1.9809,375.9824],
    [12167,1532805995,57.0473,-111.4277,486.6,152.5,232.3,2.0,2.4,26.37,41.73,1.9842,376.7076],
    [12168,1532805996,57.047,-111.4285,484.6,150.6,232.2,2.2,1.8,27.05,41.66,1.9862,376.0413],
    [12169,1532805997,57.0466,-111.4293,483.8,150.7,231.8,1.8,1.5,26.06,42.98,1.9861,377.7503],
    [12170,1532805998,57.0463,-111.4301,484.2,151.2,230.5,1.0,1.9,26.67,43.39,1.9855,377.1257],
    [12171,1532805999,57.0459,-111.4309,485.3,153.3,231.2,1.9,1.1,26.27,43.85,1.9863,375.6099],
    [12172,1532806000,57.0456,-111.4317,485.7,154.1,231.4,2.1,1.6,26.47,44.22,1.9869,376.3836],
    [12173,1532806001,57.0453,-111.4324,485.0,154.0,231.4,1.6,1.4,26.6,44.75,1.9886,376.2351],
    [12174,1532806002,57.0449,-111.4332,483.4,153.4,232.5,1.6,0.4,27.18,43.93,1.9848,376.1816],
    [12175,1532806003,57.0446,-111.434,481.6,151.9,233.8,1.9,-0.3,26.15,44.3,1.9831,375.5605],
    [12176,1532806004,57.0443,-111.4348,480.0,151.0,233.1,1.6,1.0,26.38,44.49,1.9855,375.2472],
    [12177,1532806005,57.0439,-111.4356,478.2,150.0,232.7,1.4,1.5,26.0,44.52,1.9859,375.2472],
    [12178,1532806006,57.0436,-111.4364,477.0,149.0,233.7,2.8,1.2,27.11,44.41,1.989,377.239],
    [12179,1532806007,57.0433,-111.4372,476.2,148.2,234.9,4.3,1.1,26.66,45.52,1.9842,375.6218],
    [12180,1532806008,57.043,-111.438,476.0,148.0,235.0,3.7,1.6,27.1,44.48,1.9796,376.8033],
    [12181,1532806009,57.0426,-111.4388,475.7,147.7,233.2,2.4,3.2,26.44,44.75,1.9709,376.0106],
    [12182,1532806010,57.0423,-111.4396,475.7,147.7,232.3,1.5,3.1,26.11,44.53,1.9682,375.6045],
    [12183,1532806011,57.042,-111.4405,476.4,148.4,232.6,1.3,2.6,26.55,44.73,1.972,375.1131],
    [12184,1532806012,57.0417,-111.4413,476.1,149.1,231.3,0.2,3.2,26.67,43.18,1.978,374.9673],
    [12185,1532806013,57.0414,-111.4421,474.9,147.9,232.0,-0.5,1.5,26.6,43.43,1.9864,374.5574],
    [12186,1532806014,57.041,-111.4429,473.5,146.5,232.1,-1.0,0.9,27.03,43.27,1.9874,375.9848],
    [12187,1532806015,57.0407,-111.4437,474.1,147.1,231.1,-2.1,0.5,26.65,44.42,1.99,376.7639],
    [12188,1532806016,57.0404,-111.4445,474.5,147.5,232.5,-1.7,-0.7,26.18,44.94,1.9916,374.3865],
    [12189,1532806017,57.04,-111.4453,474.1,148.1,232.2,-2.3,-0.4,26.8,45.26,1.9908,375.3354],
    [12190,1532806018,57.0397,-111.4461,474.1,148.1,232.5,-2.1,-0.2,26.97,45.81,1.9836,374.7168],
    [12191,1532806019,57.0394,-111.447,474.3,149.3,232.8,-2.3,-0.5,26.69,46.45,1.9567,374.6006],
    [12192,1532806020,57.039,-111.4478,473.7,149.7,233.5,-2.2,-1.1,26.1,45.22,1.9482,374.5184],
    [12193,1532806021,57.0387,-111.4487,472.9,148.9,234.3,-2.2,-2.0,26.75,44.11,1.946,374.2169],
    [12194,1532806022,57.0384,-111.4495,472.3,149.3,234.5,-2.8,-2.3,27.24,42.61,1.951,374.0796],
    [12195,1532806023,57.038,-111.4503,471.5,148.5,233.4,-3.7,-1.8,26.41,42.58,1.9571,374.2831],
    [12196,1532806024,57.0377,-111.4511,470.9,148.9,233.2,-3.7,-2.1,26.44,42.33,1.9586,374.8578],
    [12197,1532806025,57.0374,-111.4519,470.0,148.7,234.0,-3.1,-2.4,26.8,43.08,1.9642,376.8075],
    [12198,1532806026,57.0371,-111.4527,468.7,147.7,232.8,-3.9,-1.5,26.35,43.1,1.9654,376.665],
    [12199,1532806027,57.0368,-111.4535,468.0,148.0,232.0,-4.2,-0.7,26.42,43.39,1.9712,376.5217],
    [12200,1532806028,57.0364,-111.4543,467.0,147.0,232.7,-3.8,-1.2,26.63,43.74,1.9752,376.656],
    [12201,1532806029,57.0361,-111.4551,466.7,146.7,232.7,-4.0,-1.3,27.41,43.5,1.9747,375.1862],
    [12202,1532806030,57.0358,-111.456,466.2,146.1,231.9,-4.7,-1.2,27.25,44.16,1.9735,375.8779],
    [12203,1532806031,57.0355,-111.4568,465.6,146.6,232.2,-4.5,-2.1,26.79,44.71,1.9664,377.9558],
    [12204,1532806032,57.0351,-111.4576,465.3,147.5,233.0,-4.2,-3.2,26.53,44.61,1.98,377.7267],
    [12205,1532806033,57.0348,-111.4584,464.7,147.6,233.9,-3.4,-3.9,26.63,44.89,1.9564,375.9116],
    [12206,1532806034,57.0345,-111.4592,463.9,147.9,235.0,-3.3,-4.7,25.95,44.42,1.952,374.6182],
    [12207,1532806035,57.0341,-111.46,462.5,146.5,234.2,-3.2,-3.9,26.62,43.43,1.9529,375.996],
    [12208,1532806036,57.0338,-111.4608,461.6,145.6,234.3,-3.1,-3.9,26.31,43.36,1.954,376.1116],
    [12209,1532806037,57.0335,-111.4616,461.4,145.4,233.0,-3.8,-3.1,26.62,42.37,1.954,375.9043],
    [12210,1532806038,57.0332,-111.4624,460.8,145.8,232.0,-4.0,-2.5,26.68,42.67,1.957,376.3921],
    [12211,1532806039,57.0328,-111.4632,460.9,146.9,232.8,-3.5,-2.9,26.39,42.54,1.9615,375.6038],
    [12212,1532806040,57.0325,-111.464,462.5,151.2,232.6,-2.8,-2.1,26.81,42.27,1.9668,375.646],
    [12213,1532806041,57.0322,-111.4648,465.9,157.1,232.9,-1.5,-1.4,26.34,42.56,1.9541,376.2644],
    [12214,1532806042,57.0318,-111.4656,470.5,165.9,233.4,-0.3,-0.6,26.73,42.84,1.961,376.3261],
    [12215,1532806043,57.0315,-111.4663,475.5,176.7,233.8,0.1,-0.2,26.56,43.02,1.9664,375.0043],
    [12216,1532806044,57.0312,-111.4671,480.6,191.6,233.4,0.6,0.9,26.38,43.0,1.9445,375.8697],
    [12217,1532806045,57.0309,-111.4679,485.1,207.2,233.6,1.4,1.2,26.49,42.39,1.9406,375.7887],
    [12218,1532806046,57.0306,-111.4686,487.9,218.5,233.5,1.6,1.7,27.0,41.63,1.9532,375.8487],
    [12219,1532806047,57.0303,-111.4694,490.8,226.4,232.0,1.4,3.1,27.1,41.87,1.9609,375.8487],
    [12220,1532806048,57.03,-111.4701,493.3,231.3,232.3,2.2,2.9,26.27,42.5,1.9645,377.0922],
    [12221,1532806049,57.0297,-111.4708,495.0,234.1,232.9,3.1,2.5,26.86,42.38,1.961,376.3549],
    [12222,1532806050,57.0294,-111.4716,495.5,234.5,232.5,2.9,2.6,26.34,43.63,1.9562,375.3693],
    [12223,1532806051,57.0291,-111.4723,495.5,234.5,231.6,2.2,2.9,26.53,44.3,1.9551,375.6295],
    [12224,1532806052,57.0288,-111.473,495.3,234.3,231.6,2.1,2.4,26.12,44.32,1.9588,376.1206],
    [12225,1532806053,57.0285,-111.4737,495.0,235.0,232.3,1.9,1.5,26.65,44.34,1.9575,375.7131],
    [12226,1532806054,57.0282,-111.4744,495.3,235.4,231.8,1.1,1.3,26.44,44.76,1.9547,373.6808],
    [12227,1532806055,57.0279,-111.4751,496.9,238.9,232.0,0.9,0.9,26.31,45.16,1.9542,375.1658],
    [12228,1532806056,57.0276,-111.4759,498.8,242.9,231.7,-0.1,0.6,26.03,45.4,1.9539,375.1658],
    [12229,1532806057,57.0273,-111.4766,500.7,246.5,232.2,-0.2,0.1,26.78,44.91,1.9569,374.7136],
    [12230,1532806058,57.027,-111.4773,501.8,250.1,232.5,-0.6,-0.2,26.45,46.28,1.9594,374.9376],
    [12231,1532806059,57.0267,-111.478,502.8,253.1,230.9,-1.8,0.4,26.03,46.38,1.9601,373.2134],
    [12232,1532806060,57.0264,-111.4787,503.4,257.0,230.8,-1.8,-0.5,26.59,46.65,1.9614,373.2134],
    [12233,1532806061,57.0261,-111.4794,503.8,261.9,231.4,-1.5,-1.1,26.23,47.04,1.9632,374.3742],
    [12234,1532806062,57.0258,-111.4801,504.6,264.5,229.8,-1.7,-0.1,26.35,47.69,1.9662,374.6202],
    [12235,1532806063,57.0255,-111.4808,505.4,266.4,229.8,-2.4,-1.3,26.93,47.12,1.9669,375.9795],
    [12236,1532806064,57.0252,-111.4815,505.6,267.6,229.5,-2.7,-1.6,26.53,47.57,1.9682,374.6701],
    [12237,1532806065,57.0248,-111.4822,505.0,267.0,228.8,-2.3,-1.0,26.19,47.94,1.9662,375.2404],
    [12238,1532806066,57.0245,-111.4829,503.9,266.9,229.2,-0.7,-0.4,26.34,48.33,1.9577,373.3182],
    [12239,1532806067,57.0242,-111.4836,502.2,264.2,229.8,-0.4,-0.3,25.97,48.06,1.9506,374.4716],
    [12240,1532806068,57.0239,-111.4843,500.0,262.0,230.0,-0.8,-0.3,26.68,47.08,1.9506,374.4716],
    [12241,1532806069,57.0235,-111.4851,498.0,259.0,231.0,-1.7,-1.0,26.07,47.92,1.9475,374.3576],
    [12242,1532806070,57.0232,-111.4858,496.4,257.4,232.5,-1.7,-1.4,26.74,46.65,1.9464,374.698],
    [12243,1532806071,57.0229,-111.4866,494.9,255.9,234.0,-0.7,-1.4,26.15,47.9,1.9426,374.4562],
    [12244,1532806072,57.0226,-111.4873,493.1,255.1,235.5,-0.2,-2.0,26.34,46.92,1.9431,373.0538],
    [12245,1532806073,57.0223,-111.4881,491.2,254.1,235.2,-0.9,-1.8,25.8,46.68,1.9426,374.2198],
    [12246,1532806074,57.022,-111.4889,489.2,253.5,234.3,-1.4,-1.1,26.61,45.85,1.9419,373.9657],
    [12247,1532806075,57.0217,-111.4897,488.8,253.8,234.5,-2.0,-1.8,26.44,45.63,1.9423,373.5335],
    [12248,1532806076,57.0214,-111.4905,489.8,254.8,234.6,-2.5,-2.1,26.36,46.25,1.9427,373.0229],
    [12249,1532806077,57.021,-111.4913,492.6,257.6,233.9,-2.5,-1.5,26.3,45.61,1.9426,373.371],
    [12250,1532806078,57.0207,-111.492,496.4,260.5,233.9,-1.7,-1.1,26.12,45.73,1.9436,373.371],
    [12251,1532806079,57.0204,-111.4928,500.4,262.4,233.7,-1.9,-1.2,26.23,46.71,1.9451,374.8173],
    [12252,1532806080,57.0201,-111.4936,504.4,264.3,233.0,-1.6,-0.6,26.09,46.34,1.9462,375.0951],
    [12253,1532806081,57.0198,-111.4943,508.5,263.7,232.0,-0.6,0.7,25.94,46.19,1.9473,374.579],
    [12254,1532806082,57.0195,-111.4951,513.0,261.5,232.0,0.8,1.4,26.25,46.92,1.9465,374.7339],
    [12255,1532806083,57.0192,-111.4958,518.3,260.2,232.1,1.7,1.6,26.33,46.46,1.9406,373.714],
    [12256,1532806084,57.0189,-111.4966,524.2,260.0,231.8,2.4,2.2,25.6,46.79,1.9403,374.3343],
    [12257,1532806085,57.0186,-111.4973,529.6,258.2,231.4,2.4,2.5,26.32,45.8,1.9416,374.2592],
    [12258,1532806086,57.0183,-111.498,534.5,262.0,230.8,2.2,2.8,25.52,45.78,1.9425,374.2592],
    [12259,1532806087,57.018,-111.4987,539.3,266.3,230.7,1.6,2.5,26.25,45.64,1.9419,374.4073],
    [12260,1532806088,57.0177,-111.4994,544.1,269.4,230.4,1.4,2.6,25.92,45.63,1.9409,374.8153],
    [12261,1532806089,57.0174,-111.5,548.8,270.8,231.1,3.2,3.6,26.1,45.92,1.9441,374.8153],
    [12262,1532806090,57.0171,-111.5007,553.8,272.1,231.8,3.8,4.0,26.16,45.61,1.9462,374.2081],
    [12263,1532806091,57.0168,-111.5014,558.6,269.5,232.4,4.6,3.9,26.2,45.88,1.948,374.0295],
    [12264,1532806092,57.0165,-111.5021,562.5,268.1,233.3,4.9,3.4,25.97,46.33,1.9486,374.0295],
    [12265,1532806093,57.0162,-111.5028,565.7,268.8,231.9,4.5,4.7,26.08,47.26,1.947,374.325],
    [12266,1532806094,57.0159,-111.5035,567.9,270.9,231.2,4.3,5.3,26.46,46.04,1.9447,374.0808],
    [12267,1532806095,57.0157,-111.5042,570.1,273.1,231.1,4.6,5.5,26.45,46.37,1.9449,373.5066],
    [12268,1532806096,57.0154,-111.5049,571.8,274.8,231.4,4.8,5.1,26.01,46.71,1.9456,374.2061],
    [12269,1532806097,57.0151,-111.5056,572.9,275.9,231.3,4.6,5.0,26.26,46.69,1.9445,372.3395],
    [12270,1532806098,57.0148,-111.5064,574.1,277.0,231.5,5.1,4.8,26.01,46.54,1.944,372.6921],
    [12271,1532806099,57.0145,-111.5071,575.3,278.3,230.2,4.5,5.2,25.62,46.48,1.9423,373.0925],
    [12272,1532806100,57.0141,-111.5078,576.7,279.7,230.4,6.5,5.9,26.17,45.94,1.9406,373.5462],
    [12273,1532806101,57.0138,-111.5085,577.4,280.4,231.8,8.4,6.1,25.79,45.69,1.9342,374.3968],
    [12274,1532806102,57.0135,-111.5092,578.4,281.4,232.2,8.2,5.9,26.68,44.63,1.93,374.3968],
    [12275,1532806103,57.0132,-111.5099,579.4,282.4,232.1,7.9,5.6,25.8,44.66,1.9339,374.2841],
    [12276,1532806104,57.0129,-111.5106,580.5,283.5,232.0,7.5,5.1,25.84,43.88,1.9434,374.2383],
    [12277,1532806105,57.0126,-111.5113,582.0,285.0,232.1,7.6,5.0,26.41,43.62,1.9464,373.4622],
    [12278,1532806106,57.0123,-111.512,584.3,287.3,232.3,8.5,5.7,25.92,45.19,1.9446,374.6678],
    [12279,1532806107,57.012,-111.5127,586.5,289.5,233.4,9.5,5.6,25.68,45.23,1.942,374.5719],
    [12280,1532806108,57.0117,-111.5135,588.6,291.6,234.2,8.8,5.0,26.52,44.59,1.9454,374.4668],
    [12281,1532806109,57.0114,-111.5142,591.7,291.6,234.4,8.4,5.4,26.01,46.3,1.9397,373.9681],
    [12282,1532806110,57.0111,-111.5149,594.9,280.4,233.8,8.2,7.3,26.04,45.33,1.9419,374.099],
    [12283,1532806111,57.0108,-111.5156,597.1,279.8,233.8,8.3,8.4,25.94,45.2,1.9455,374.1446],
    [12284,1532806112,57.0106,-111.5164,599.3,281.3,235.0,8.9,8.1,26.09,46.23,1.9479,374.4992],
    [12285,1532806113,57.0103,-111.5171,600.9,281.9,236.1,9.3,7.4,25.78,46.14,1.9494,374.4992],
    [12286,1532806114,57.01,-111.5179,602.0,283.0,236.8,9.3,6.8,26.28,46.73,1.9479,373.9539],
    [12287,1532806115,57.0098,-111.5186,600.6,281.6,235.9,8.5,7.1,26.36,47.21,1.9486,373.9539],
    [12288,1532806116,57.0095,-111.5194,600.4,281.4,234.0,7.4,6.9,25.94,47.38,1.9463,373.4437],
    [12289,1532806117,57.0092,-111.5201,601.7,282.7,233.4,7.5,6.1,25.59,47.18,1.946,373.542],
    [12290,1532806118,57.0089,-111.5208,601.8,282.8,231.8,6.9,6.3,26.03,47.07,1.9455,372.9645],
    [12291,1532806119,57.0086,-111.5216,601.8,282.5,232.0,6.9,4.6,26.53,46.54,1.9451,373.4074],
    [12292,1532806120,57.0083,-111.5223,601.8,282.8,233.3,7.2,3.1,25.65,46.71,1.9473,373.5703],
    [12293,1532806121,57.008,-111.5231,602.5,283.5,231.9,5.7,4.0,26.38,46.67,1.9491,372.7616],
    [12294,1532806122,57.0076,-111.5238,601.6,282.6,232.2,5.1,3.4,26.6,46.08,1.949,373.1385],
    [12295,1532806123,57.0073,-111.5246,599.1,280.8,232.2,4.2,3.7,26.32,46.77,1.9484,372.7348],
    [12296,1532806124,57.007,-111.5254,597.1,279.1,233.5,3.5,2.7,26.65,46.49,1.9488,374.0563],
    [12297,1532806125,57.0067,-111.5262,594.5,276.5,236.5,3.4,0.0,26.01,47.85,1.9468,372.8037],
    [12298,1532806126,57.0063,-111.527,592.6,273.5,237.4,2.9,0.0,26.59,46.82,1.9453,373.5415],
    [12299,1532806127,57.006,-111.5279,591.6,272.4,234.1,0.3,2.5,26.12,47.4,1.9439,374.0585],
    [12300,1532806128,57.0057,-111.5287,589.1,270.0,235.4,0.9,0.8,25.84,47.35,1.9445,373.0868],
    [12301,1532806129,57.0054,-111.5295,585.1,265.9,238.2,0.9,-1.5,26.09,47.41,1.9441,373.0017],
    [12302,1532806130,57.0051,-111.5304,581.9,261.7,236.9,-0.8,-0.7,25.91,47.54,1.9462,372.764],
    [12303,1532806131,57.0048,-111.5312,579.3,259.2,237.5,-0.3,-1.1,25.48,47.6,1.946,372.0413],
    [12304,1532806132,57.0045,-111.5321,576.8,256.9,238.4,0.2,-1.9,25.84,47.89,1.946,372.6578],
    [12305,1532806133,57.0042,-111.5329,574.8,254.9,238.7,0.8,-1.9,26.03,48.01,1.9435,371.5498],
    [12306,1532806134,57.0039,-111.5338,572.7,252.8,239.0,-0.5,-3.3,25.95,48.52,1.9445,372.5226],
    [12307,1532806135,57.0036,-111.5347,570.7,251.5,238.8,-0.9,-3.4,26.31,48.33,1.9427,371.7106],
    [12308,1532806136,57.0033,-111.5355,567.4,249.0,237.4,-1.1,-2.0,26.07,47.53,1.9404,373.1907],
    [12309,1532806137,57.003,-111.5364,563.9,246.5,236.1,-1.7,-1.2,25.83,47.41,1.9407,372.2738],
    [12310,1532806138,57.0026,-111.5372,560.5,242.2,236.2,-1.3,-1.4,25.63,47.69,1.9417,372.2738],
    [12311,1532806139,57.0023,-111.5381,557.1,237.3,235.8,-1.2,-0.7,26.39,46.22,1.9437,372.5407],
    [12312,1532806140,57.002,-111.539,554.5,233.7,236.1,-0.9,-0.9,25.76,46.93,1.9467,372.5407],
    [12313,1532806141,57.0017,-111.5398,552.9,231.8,238.0,-0.1,-2.3,26.03,47.22,1.9476,372.1679],
    [12314,1532806142,57.0014,-111.5407,552.9,231.0,238.2,0.4,-1.5,25.5,47.36,1.9477,372.1679],
    [12315,1532806143,57.0011,-111.5416,554.0,231.7,237.4,0.1,-0.5,25.45,47.79,1.9342,374.1596],
    [12316,1532806144,57.0008,-111.5424,554.4,231.3,239.0,0.6,-2.2,26.2,47.2,1.932,373.8568],
    [12317,1532806145,57.0005,-111.5433,554.7,231.1,239.5,0.7,-2.2,26.48,46.35,1.9408,371.5239],
    [12318,1532806146,57.0002,-111.5442,555.1,231.2,238.6,0.5,-0.8,25.89,45.89,1.947,372.0514],
    [12319,1532806147,56.9999,-111.545,555.8,231.8,239.0,0.5,-0.4,25.87,46.4,1.9461,373.1083],
    [12320,1532806148,56.9996,-111.5459,555.7,231.6,240.5,1.3,-0.5,26.06,46.07,1.9403,373.6124],
    [12321,1532806149,56.9993,-111.5468,555.6,230.7,240.5,1.3,0.4,26.34,46.67,1.9349,373.7668],
    [12322,1532806150,56.999,-111.5477,556.1,231.3,239.6,1.6,1.0,25.9,46.25,1.9301,374.0267],
    [12323,1532806151,56.9987,-111.5486,556.5,231.0,239.3,3.4,0.0,25.51,45.68,1.9296,373.6084],
    [12324,1532806152,56.9984,-111.5495,557.0,231.7,235.8,3.7,1.0,25.94,44.95,1.9302,374.409],
    [12325,1532806153,56.9981,-111.5503,558.6,233.7,230.7,3.8,1.9,25.54,44.03,1.9295,374.409],
    [12326,1532806154,56.9977,-111.551,561.4,236.3,228.5,5.1,1.4,25.47,43.46,1.9315,374.5849],
    [12327,1532806155,56.9973,-111.5517,565.5,240.4,224.1,5.2,3.4,25.58,43.86,1.9345,374.1666],
    [12328,1532806156,56.9969,-111.5524,571.0,245.9,221.0,5.6,4.4,26.22,43.03,1.9355,374.1666],
    [12329,1532806157,56.9965,-111.553,576.0,251.0,217.5,4.9,6.0,26.27,43.4,1.9361,374.2659],
    [12330,1532806158,56.996,-111.5536,580.3,255.3,214.3,4.3,7.2,25.63,43.69,1.9358,374.3428],
    [12331,1532806159,56.9956,-111.5541,583.9,258.9,212.9,4.6,7.2,25.38,43.99,1.936,374.2723],
    [12332,1532806160,56.9951,-111.5547,586.0,261.0,210.2,3.7,8.0,26.24,44.13,1.9364,374.0978],
    [12333,1532806161,56.9947,-111.5551,587.2,262.2,208.1,3.6,7.2,25.84,44.81,1.9359,373.7923],
    [12334,1532806162,56.9942,-111.5556,587.7,263.2,206.5,3.9,6.7,26.28,44.39,1.9351,374.2859],
    [12335,1532806163,56.9937,-111.556,587.2,264.2,203.8,2.9,7.1,26.3,44.67,1.9363,373.1713],
    [12336,1532806164,56.9932,-111.5564,586.1,264.1,202.2,2.6,7.1,26.18,44.36,1.9365,373.4177],
    [12337,1532806165,56.9927,-111.5568,585.3,264.3,201.3,2.5,6.1,25.83,44.42,1.9364,374.7234],
    [12338,1532806166,56.9922,-111.5571,584.5,264.5,200.7,3.0,5.8,25.96,44.58,1.9381,374.2688],
    [12339,1532806167,56.9917,-111.5575,584.1,264.1,200.1,3.5,5.9,26.61,43.69,1.9374,374.4361],
    [12340,1532806168,56.9911,-111.5578,584.6,264.6,200.1,4.4,5.5,26.03,44.53,1.9373,375.2782],
    [12341,1532806169,56.9906,-111.5581,586.2,266.2,199.3,4.4,4.7,26.17,44.37,1.936,374.4915],
    [12342,1532806170,56.9901,-111.5583,586.5,266.5,198.5,4.6,4.5,26.03,45.19,1.9367,373.3352],
    [12343,1532806171,56.9896,-111.5586,585.5,265.5,195.9,3.7,5.3,25.35,44.76,1.9378,374.3147],
    [12344,1532806172,56.989,-111.5588,585.4,266.4,192.5,2.7,6.8,25.99,44.59,1.936,374.308],
    [12345,1532806173,56.9885,-111.559,585.4,267.5,190.5,2.8,6.7,26.18,44.15,1.9379,374.2951],
    [12346,1532806174,56.9879,-111.5592,585.3,268.3,189.4,3.3,5.6,26.16,44.06,1.9358,374.2744],
    [12347,1532806175,56.9874,-111.5593,584.7,269.3,187.0,2.1,4.0,25.9,44.13,1.9379,373.388],
    [12348,1532806176,56.9868,-111.5593,583.5,270.3,185.3,1.9,3.2,26.55,43.95,1.9387,373.4529],
    [12349,1532806177,56.9862,-111.5594,582.5,271.5,185.1,2.9,2.8,26.18,44.18,1.9383,374.0924],
    [12350,1532806178,56.9857,-111.5594,581.1,272.1,184.8,3.2,1.9,26.15,44.43,1.9379,372.9018],
    [12351,1532806179,56.9851,-111.5595,577.7,268.7,184.1,2.9,1.5,26.2,44.65,1.9373,374.3142],
    [12352,1532806180,56.9845,-111.5595,574.4,265.4,183.3,2.7,1.3,26.34,44.03,1.9358,373.6461],
    [12353,1532806181,56.9839,-111.5595,571.7,262.7,181.9,1.6,1.3,25.8,44.33,1.9359,373.7174],
    [12354,1532806182,56.9833,-111.5595,569.7,260.7,181.6,1.3,0.8,26.2,44.02,1.9358,372.9059],
    [12355,1532806183,56.9828,-111.5595,568.3,259.3,181.2,0.9,0.6,27.06,43.7,1.9353,373.5912],
    [12356,1532806184,56.9822,-111.5595,566.3,257.3,182.4,2.1,0.3,25.95,44.0,1.9343,374.0564],
    [12357,1532806185,56.9816,-111.5596,564.1,255.1,182.9,2.0,0.4,25.51,43.9,1.9337,373.9164],
    [12358,1532806186,56.981,-111.5596,562.3,251.1,182.9,1.7,0.6,26.04,43.95,1.934,374.2201],
    [12359,1532806187,56.9804,-111.5596,560.7,245.7,184.4,2.9,-0.1,26.24,44.2,1.9353,374.9893],
    [12360,1532806188,56.9798,-111.5597,559.3,241.7,184.5,2.1,-0.4,26.33,43.3,1.9353,374.1538],
    [12361,1532806189,56.9792,-111.5597,558.5,238.1,183.6,0.9,-0.5,26.28,43.51,1.935,373.7571],
    [12362,1532806190,56.9786,-111.5598,557.2,235.2,185.1,2.3,-0.6,26.64,42.59,1.9364,374.6191],
    [12363,1532806191,56.978,-111.5598,555.6,232.6,184.1,1.6,-0.3,26.19,43.24,1.9367,373.9278],
    [12364,1532806192,56.9774,-111.5599,554.9,230.9,183.4,1.9,0.0,26.31,43.95,1.937,373.4797],
    [12365,1532806193,56.9768,-111.5599,554.2,230.2,183.1,2.6,0.4,26.81,42.58,1.9369,373.8564],
    [12366,1532806194,56.9762,-111.5599,553.5,229.5,182.0,2.3,0.1,26.45,43.86,1.9342,374.1033],
    [12367,1532806195,56.9756,-111.5599,552.7,228.7,181.8,2.4,-0.7,26.32,43.55,1.9336,374.4742],
    [12368,1532806196,56.975,-111.5599,551.9,227.9,182.0,3.0,-1.1,26.42,43.65,1.9364,373.2216],
    [12369,1532806197,56.9744,-111.5599,550.6,226.6,182.7,3.7,-1.4,26.34,43.83,1.938,374.3747],
    [12370,1532806198,56.9738,-111.5599,548.9,224.9,182.1,3.3,-1.2,25.99,43.68,1.9388,373.9434],
    [12371,1532806199,56.9732,-111.5599,546.6,222.6,182.5,3.9,-1.2,26.74,42.72,1.9394,373.5806],
    [12372,1532806200,56.9726,-111.5598,545.5,222.5,181.9,3.3,-1.1,26.34,44.5,1.9375,374.3793],
    [12373,1532806201,56.972,-111.5598,545.9,222.9,181.4,2.7,-0.2,26.35,43.92,1.9366,374.2733],
    [12374,1532806202,56.9714,-111.5598,546.0,223.8,182.6,3.7,1.1,26.01,44.09,1.9358,372.9673],
    [12375,1532806203,56.9708,-111.5598,546.9,227.1,182.3,2.6,1.5,26.08,44.15,1.9269,374.6831],
    [12376,1532806204,56.9702,-111.5598,548.2,230.7,181.6,1.7,1.3,26.49,43.4,1.9251,374.7622],
    [12377,1532806205,56.9696,-111.5598,548.1,232.4,182.4,2.5,1.5,26.52,42.33,1.926,374.5569],
    [12378,1532806206,56.969,-111.5598,547.4,233.5,183.2,3.6,1.5,26.25,41.35,1.9254,374.9122],
    [12379,1532806207,56.9684,-111.5598,546.3,233.3,183.1,2.9,1.1,26.61,40.75,1.9244,373.9149],
    [12380,1532806208,56.9678,-111.5598,545.1,232.1,181.8,1.6,1.0,26.79,39.68,1.9261,376.3767],
    [12381,1532806209,56.9672,-111.5598,543.9,230.9,182.6,2.2,0.8,26.42,40.29,1.9266,375.2527],
    [12382,1532806210,56.9666,-111.5599,542.4,228.5,181.8,1.4,0.8,26.13,39.36,1.9259,374.8918],
    [12383,1532806211,56.966,-111.5599,541.2,226.2,181.3,1.3,0.8,26.56,40.08,1.927,374.2516],
    [12384,1532806212,56.9654,-111.5599,540.3,224.2,180.6,1.1,0.5,26.2,39.47,1.9271,376.2615],
    [12385,1532806213,56.9648,-111.5599,539.8,223.9,179.7,0.8,0.0,26.48,39.32,1.9287,374.1225],
    [12386,1532806214,56.9643,-111.5598,539.3,222.3,179.8,1.2,-0.3,26.89,39.17,1.9281,375.9795],
    [12387,1532806215,56.9637,-111.5598,538.9,220.9,179.2,0.9,-0.1,26.38,39.9,1.9269,375.5084],
    [12388,1532806216,56.9631,-111.5598,538.3,220.3,180.1,1.9,-0.7,26.95,39.02,1.9251,375.7785],
    [12389,1532806217,56.9625,-111.5597,537.8,219.8,180.8,2.3,-0.9,27.01,39.17,1.9228,376.3973],
    [12390,1532806218,56.9619,-111.5597,537.1,219.1,181.2,2.2,-0.8,27.09,38.43,1.925,375.0121],
    [12391,1532806219,56.9613,-111.5597,536.1,218.1,181.9,2.6,-1.2,27.11,38.4,1.9241,374.9318],
    [12392,1532806220,56.9607,-111.5597,535.5,216.8,182.4,3.1,-1.5,26.62,39.13,1.9237,376.6116],
    [12393,1532806221,56.9601,-111.5597,535.4,216.4,182.1,3.1,-1.2,27.07,37.79,1.9253,376.6116],
    [12394,1532806222,56.9595,-111.5597,534.7,216.7,182.6,3.5,-1.1,26.42,38.67,1.9239,376.1335],
    [12395,1532806223,56.9589,-111.5597,534.4,217.4,181.9,2.6,-0.4,27.08,37.9,1.9224,375.4927],
    [12396,1532806224,56.9583,-111.5597,534.5,218.6,181.4,2.1,0.3,26.51,37.99,1.9242,374.7559],
    [12397,1532806225,56.9577,-111.5597,534.5,217.5,181.4,2.3,0.4,27.11,37.51,1.9233,375.943],
    [12398,1532806226,56.9571,-111.5597,534.4,216.4,181.1,2.0,0.3,26.64,38.54,1.9221,376.3976],
    [12399,1532806227,56.9565,-111.5596,534.6,215.0,180.4,1.8,-0.4,26.66,37.81,1.9221,376.3807],
    [12400,1532806228,56.9559,-111.5596,535.2,215.2,178.9,0.2,-0.3,26.47,37.55,1.9218,376.7088],
    [12401,1532806229,56.9553,-111.5596,536.2,216.2,178.0,-0.5,-0.4,26.48,37.42,1.9227,375.8657],
    [12402,1532806230,56.9547,-111.5596,537.0,216.0,183.1,3.8,-0.7,26.66,37.71,1.9232,375.7797],
    [12403,1532806231,56.9541,-111.5596,537.8,216.8,185.2,3.6,-0.7,26.31,37.57,1.9243,375.7797],
    [12404,1532806232,56.9535,-111.5596,538.3,217.3,185.9,2.3,-0.1,26.46,37.42,1.9233,375.5003],
    [12405,1532806233,56.9529,-111.5597,538.4,217.4,188.3,2.8,0.7,26.81,37.01,1.9217,376.9945],
    [12406,1532806234,56.9523,-111.5599,538.5,218.4,190.6,2.9,1.0,27.44,37.04,1.9223,376.5195],
    [12407,1532806235,56.9518,-111.56,539.0,219.0,193.1,3.0,0.2,26.42,37.51,1.92,375.9731],
    [12408,1532806236,56.9512,-111.5603,539.5,219.4,196.0,3.0,0.1,26.52,37.56,1.9204,375.5575],
    [12409,1532806237,56.9507,-111.5605,540.3,221.3,198.2,2.6,1.3,26.65,37.46,1.9211,376.1596],
    [12410,1532806238,56.9502,-111.5608,540.8,222.8,201.7,3.5,2.6,27.04,37.16,1.9208,376.1596],
    [12411,1532806239,56.9496,-111.5612,540.7,223.7,204.2,3.3,3.4,26.38,37.09,1.9212,376.447],
    [12412,1532806240,56.9491,-111.5617,540.3,224.1,207.3,3.6,3.6,26.42,37.13,1.9212,376.447],
    [12413,1532806241,56.9486,-111.5621,540.0,224.0,211.4,4.7,3.3,26.34,37.0,1.9214,375.8962],
    [12414,1532806242,56.9482,-111.5626,540.0,224.8,215.1,5.2,3.4,26.82,37.09,1.9212,376.2732],
    [12415,1532806243,56.9477,-111.5632,540.1,226.1,219.0,5.6,2.2,26.19,36.92,1.9212,374.7564],
    [12416,1532806244,56.9473,-111.5638,540.5,226.5,222.7,5.6,2.3,26.79,37.23,1.9212,376.0802],
    [12417,1532806245,56.9469,-111.5645,541.0,227.0,224.9,4.9,3.3,26.71,37.48,1.9248,375.241],
    [12418,1532806246,56.9465,-111.5653,541.4,228.4,228.8,6.7,3.8,26.17,37.44,1.9234,375.1709],
    [12419,1532806247,56.9461,-111.566,541.4,228.4,232.4,7.8,4.3,27.04,37.16,1.9227,375.8187],
    [12420,1532806248,56.9458,-111.5668,541.7,229.5,234.5,6.6,5.2,26.9,37.16,1.9237,375.5854],
    [12421,1532806249,56.9455,-111.5677,542.1,230.2,238.1,6.4,3.9,27.31,37.48,1.9232,376.1641],
    [12422,1532806250,56.9452,-111.5686,542.0,228.0,241.3,6.0,3.5,26.8,38.6,1.9237,374.0521],
    [12423,1532806251,56.9449,-111.5695,542.3,225.3,243.0,4.8,4.3,26.52,37.92,1.9241,374.7581],
    [12424,1532806252,56.9447,-111.5704,542.6,223.6,246.6,4.5,3.3,27.43,37.34,1.9233,375.9782],
    [12425,1532806253,56.9445,-111.5713,543.3,222.3,248.6,3.3,3.9,26.65,38.28,1.9226,375.6007],
    [12426,1532806254,56.9444,-111.5723,544.2,223.2,251.5,3.0,3.8,27.3,37.44,1.9241,376.9306],
    [12427,1532806255,56.9442,-111.5733,544.6,223.4,254.7,2.8,3.5,26.22,37.91,1.9253,376.9306],
    [12428,1532806256,56.9441,-111.5742,544.5,223.5,257.6,2.6,3.2,26.78,37.85,1.9246,376.7447],
    [12429,1532806257,56.944,-111.5752,544.5,223.5,260.6,2.4,2.8,26.7,38.91,1.9243,375.0695],
    [12430,1532806258,56.944,-111.5763,544.5,223.5,263.4,2.3,2.9,26.64,38.51,1.9196,375.338],
    [12431,1532806259,56.9439,-111.5773,544.9,223.9,265.7,1.5,3.2,27.35,37.91,1.9194,375.9129],
    [12432,1532806260,56.9439,-111.5784,545.2,224.2,269.4,0.4,2.1,26.59,38.28,1.9214,376.178],
    [12433,1532806261,56.944,-111.5795,546.1,225.1,271.0,-0.7,3.3,27.24,37.43,1.9187,375.8785],
    [12434,1532806262,56.944,-111.5805,548.1,227.1,273.2,0.3,3.8,26.61,38.28,1.9207,375.9386],
    [12435,1532806263,56.9441,-111.5816,550.2,229.2,277.1,1.0,2.4,26.53,38.68,1.9234,375.8177],
    [12436,1532806264,56.9442,-111.5827,552.2,231.2,280.6,0.4,1.6,26.54,38.49,1.9252,375.7213],
    [12437,1532806265,56.9444,-111.5838,553.6,232.6,283.3,-0.2,1.9,26.75,38.71,1.9235,374.313],
    [12438,1532806266,56.9445,-111.5848,555.0,234.0,284.9,-0.6,3.3,27.13,38.31,1.924,374.313],
    [12439,1532806267,56.9447,-111.5859,557.3,236.3,287.4,-1.4,3.9,26.37,38.8,1.9186,375.5791],
    [12440,1532806268,56.9449,-111.5869,560.2,239.2,290.5,-1.5,3.6,26.59,38.95,1.9177,375.0806],
    [12441,1532806269,56.9452,-111.5879,563.8,242.8,292.0,-1.2,4.9,26.33,38.99,1.9184,375.2837],
    [12442,1532806270,56.9455,-111.5889,567.9,246.9,294.9,-1.6,4.9,27.26,37.89,1.919,376.4448],
    [12443,1532806271,56.9458,-111.5899,572.6,250.6,298.7,-1.8,4.4,27.0,37.57,1.9177,375.1385],
    [12444,1532806272,56.9461,-111.5908,577.0,255.0,301.3,-1.5,4.2,26.41,38.51,1.9179,376.8856],
    [12445,1532806273,56.9465,-111.5917,580.6,258.6,305.6,-2.2,3.2,26.68,37.5,1.9179,375.7445],
    [12446,1532806274,56.9468,-111.5926,584.6,262.6,307.7,-1.6,4.8,26.19,37.66,1.9167,376.4389],
    [12447,1532806275,56.9472,-111.5934,589.8,267.8,310.7,-1.4,5.2,26.55,37.47,1.916,376.4389],
    [12448,1532806276,56.9477,-111.5942,595.8,273.8,313.6,-0.4,5.4,26.2,37.3,1.9163,376.5455],
    [12449,1532806277,56.9481,-111.595,602.4,281.4,316.9,0.2,4.8,26.42,36.85,1.9178,377.2778],
    [12450,1532806278,56.9486,-111.5956,609.1,288.1,320.7,0.5,4.2,26.32,37.8,1.9176,376.4105],
    [12451,1532806279,56.9491,-111.5963,615.8,295.8,323.4,1.8,3.9,26.16,37.16,1.9187,375.1457],
    [12452,1532806280,56.9496,-111.5968,621.7,302.0,326.3,2.1,3.0,25.68,37.49,1.9247,374.8457],
    [12453,1532806281,56.9501,-111.5974,625.6,306.6,329.5,1.8,2.8,25.81,37.93,1.931,376.2607],
    [12454,1532806282,56.9507,-111.5979,629.3,309.3,331.1,2.7,3.5,26.14,39.59,1.9294,375.2444],
    [12455,1532806283,56.9512,-111.5983,631.9,311.9,333.9,2.3,3.4,26.08,40.97,1.9296,375.0552],
    [12456,1532806284,56.9517,-111.5987,633.6,313.6,336.5,2.6,3.1,26.49,40.77,1.9311,375.8977],
    [12457,1532806285,56.9523,-111.5991,634.8,314.8,339.1,2.6,2.5,25.84,42.49,1.935,373.8991],
    [12458,1532806286,56.9529,-111.5994,635.7,315.0,342.2,1.8,2.2,25.97,43.55,1.9331,373.6708],
    [12459,1532806287,56.9534,-111.5997,636.5,315.5,344.0,2.0,1.2,25.91,43.82,1.9307,373.9094],
    [12460,1532806288,56.954,-111.5999,639.0,317.9,343.9,3.4,0.7,25.71,43.73,1.9308,373.9794],
    [12461,1532806289,56.9546,-111.6001,642.5,320.5,343.2,4.9,1.1,25.66,44.13,1.9303,374.4812],
    [12462,1532806290,56.9552,-111.6004,646.0,324.7,344.7,4.0,0.7,25.8,44.21,1.9285,374.3586],
    [12463,1532806291,56.9557,-111.6006,649.5,328.5,345.8,3.5,0.8,26.08,44.11,1.9261,372.7179],
    [12464,1532806292,56.9563,-111.6008,653.6,332.6,346.1,3.2,1.3,25.25,43.99,1.9271,372.7179],
    [12465,1532806293,56.9569,-111.601,658.3,337.3,347.4,2.1,0.3,25.47,43.98,1.9298,374.6154],
    [12466,1532806294,56.9575,-111.6012,663.7,342.7,347.8,2.1,0.2,25.47,43.79,1.9311,373.3933],
    [12467,1532806295,56.9581,-111.6014,667.8,347.8,345.9,4.0,0.1,26.01,43.49,1.9275,374.2547],
    [12468,1532806296,56.9586,-111.6016,671.1,352.1,346.3,3.6,-0.5,25.27,43.98,1.9273,374.17],
    [12469,1532806297,56.9592,-111.6018,674.5,356.4,346.3,3.7,-0.7,25.93,44.36,1.9271,373.9667],
    [12470,1532806298,56.9598,-111.602,677.6,362.0,345.9,3.7,-0.5,25.76,43.88,1.9266,374.0465],
    [12471,1532806299,56.9604,-111.6022,679.6,365.6,345.1,4.3,-0.7,25.81,43.62,1.929,374.1335],
    [12472,1532806300,56.9609,-111.6024,681.5,368.1,343.4,5.4,-0.4,25.51,44.03,1.9294,374.3875],
    [12473,1532806301,56.9615,-111.6026,684.0,370.0,342.8,5.5,-1.1,25.65,44.08,1.9328,374.3469],
    [12474,1532806302,56.9621,-111.6029,686.8,371.8,342.9,5.4,-1.5,25.49,44.77,1.9326,373.6966],
    [12475,1532806303,56.9626,-111.6031,689.1,373.8,343.3,5.2,-1.9,25.44,44.33,1.9318,373.6966],
    [12476,1532806304,56.9632,-111.6034,691.4,375.3,343.7,5.0,-2.2,25.1,44.28,1.9317,374.5419],
    [12477,1532806305,56.9638,-111.6036,694.2,378.2,343.5,5.4,-1.9,24.78,44.34,1.932,375.0547],
    [12478,1532806306,56.9643,-111.6038,696.7,380.7,343.4,5.3,-1.6,25.38,44.22,1.9322,375.1216],
    [12479,1532806307,56.9649,-111.604,698.4,382.4,343.7,4.9,-1.9,25.28,45.06,1.9309,373.0138],
    [12480,1532806308,56.9655,-111.6043,700.5,385.5,343.3,5.3,-2.6,25.31,44.5,1.9296,375.0522],
    [12481,1532806309,56.966,-111.6045,704.0,389.7,342.9,5.2,-2.5,25.81,44.17,1.9295,375.0202],
    [12482,1532806310,56.9666,-111.6048,707.7,393.6,343.3,4.4,-2.4,25.33,44.77,1.9312,375.2859],
    [12483,1532806311,56.9672,-111.605,711.0,398.0,344.7,2.9,-2.9,25.51,43.65,1.9317,374.2467],
    [12484,1532806312,56.9677,-111.6052,714.0,401.0,345.6,2.2,-3.3,25.39,43.78,1.9316,375.9469],
    [12485,1532806313,56.9683,-111.6055,717.0,405.0,345.1,2.6,-3.1,25.35,44.04,1.9309,375.077],
    [12486,1532806314,56.9688,-111.6057,721.1,409.1,344.1,3.2,-2.0,25.25,44.84,1.934,373.8598],
    [12487,1532806315,56.9694,-111.606,725.5,413.5,342.9,4.1,-1.6,25.06,45.01,1.937,373.8598],
    [12488,1532806316,56.97,-111.6063,729.1,417.1,343.5,3.5,-2.3,24.81,45.16,1.9381,374.7744],
    [12489,1532806317,56.9705,-111.6065,732.4,421.4,343.9,3.0,-2.4,25.06,45.69,1.9371,374.7744],
    [12490,1532806318,56.9711,-111.6068,735.6,424.6,343.3,4.3,-2.8,25.17,45.97,1.937,375.1229],
    [12491,1532806319,56.9716,-111.607,738.8,428.9,342.2,4.9,-1.5,24.88,47.09,1.9329,374.7991],
    [12492,1532806320,56.9722,-111.6073,741.7,431.7,342.9,3.9,-1.3,24.16,46.95,1.9308,374.6134],
    [12493,1532806321,56.9728,-111.6075,744.1,434.1,343.1,3.4,-1.0,24.99,46.86,1.9307,374.331],
    [12494,1532806322,56.9734,-111.6078,746.7,437.7,342.9,3.4,-0.5,24.93,47.04,1.933,374.7628],
    [12495,1532806323,56.9739,-111.6081,749.6,440.6,342.3,4.0,0.1,25.17,45.68,1.9355,375.3778],
    [12496,1532806324,56.9745,-111.6084,752.5,443.5,341.2,4.8,1.5,25.38,45.51,1.9344,374.0392],
    [12497,1532806325,56.9751,-111.6086,754.3,445.3,341.6,4.1,1.5,24.86,46.38,1.9347,373.8681],
    [12498,1532806326,56.9757,-111.6089,755.9,446.9,342.2,3.8,0.5,24.72,47.46,1.9334,373.5236],
    [12499,1532806327,56.9763,-111.6092,758.4,449.4,341.7,4.5,1.2,25.23,46.48,1.9319,374.3306],
    [12500,1532806328,56.9768,-111.6095,760.9,451.9,340.8,5.6,1.8,23.83,46.98,1.9329,374.6646],
    [12501,1532806329,56.9774,-111.6097,763.0,454.0,341.6,5.0,1.5,24.24,46.91,1.9329,374.6646],
    [12502,1532806330,56.978,-111.61,764.8,455.8,342.6,4.3,1.5,24.56,46.75,1.933,374.6638],
    [12503,1532806331,56.9786,-111.6103,767.0,457.0,343.1,4.0,1.2,25.2,45.58,1.9326,373.8022],
    [12504,1532806332,56.9792,-111.6105,770.2,460.2,343.9,3.0,1.2,24.77,45.72,1.9328,375.0506],
    [12505,1532806333,56.9798,-111.6108,773.5,463.4,344.4,2.5,1.3,24.43,46.32,1.9329,375.3315],
    [12506,1532806334,56.9804,-111.611,776.2,467.2,344.3,2.5,1.7,24.54,46.07,1.9321,375.1723],
    [12507,1532806335,56.981,-111.6113,778.9,469.9,344.2,2.6,1.5,24.07,46.42,1.9274,374.5263],
    [12508,1532806336,56.9816,-111.6115,781.7,472.7,343.2,3.4,1.9,24.27,46.75,1.9278,375.8231],
    [12509,1532806337,56.9822,-111.6118,784.5,476.5,343.3,2.6,2.1,24.42,44.92,1.926,373.1815],
    [12510,1532806338,56.9827,-111.6121,787.0,478.9,343.7,2.0,2.0,23.66,44.99,1.9268,375.9459],
    [12511,1532806339,56.9833,-111.6123,789.6,482.6,342.6,2.9,2.3,24.64,45.02,1.9281,375.0193],
    [12512,1532806340,56.9839,-111.6126,792.7,486.7,342.4,2.8,2.1,24.2,45.11,1.927,375.82],
    [12513,1532806341,56.9845,-111.6129,795.6,489.6,342.2,2.9,2.2,24.1,44.84,1.9278,375.6032],
    [12514,1532806342,56.9851,-111.6132,798.2,492.2,341.1,3.9,2.3,24.21,44.57,1.9287,374.4139],
    [12515,1532806343,56.9857,-111.6135,801.5,495.5,341.0,3.5,1.8,23.94,44.58,1.9286,376.7606],
    [12516,1532806344,56.9862,-111.6138,805.0,499.0,341.5,2.9,1.6,24.18,44.8,1.9299,375.7969],
    [12517,1532806345,56.9868,-111.6141,808.0,501.6,340.3,4.4,1.9,24.16,45.12,1.9328,376.2944],
    [12518,1532806346,56.9874,-111.6144,811.2,504.2,340.3,4.4,1.6,23.71,44.67,1.9306,376.9992],
    [12519,1532806347,56.988,-111.6147,813.7,506.7,341.2,3.8,1.2,24.26,44.83,1.931,375.8613],
    [12520,1532806348,56.9886,-111.615,816.1,509.1,340.0,5.0,1.7,24.1,45.54,1.9297,375.8613],
    [12521,1532806349,56.9892,-111.6153,818.0,510.0,340.4,4.3,1.6,24.24,45.41,1.9285,375.3741],
    [12522,1532806350,56.9897,-111.6156,820.1,512.9,340.9,3.9,1.4,24.03,45.33,1.9258,375.9513],
    [12523,1532806351,56.9903,-111.6159,823.0,512.3,341.2,3.3,1.1,23.85,45.16,1.929,377.0332],
    [12524,1532806352,56.9909,-111.6162,825.9,509.6,342.7,1.9,0.3,24.0,44.96,1.9295,375.2387],
    [12525,1532806353,56.9915,-111.6165,828.9,507.3,341.7,3.1,0.4,24.31,44.14,1.9302,376.3255],
    [12526,1532806354,56.9921,-111.6168,832.2,508.2,341.1,3.5,0.4,23.95,44.86,1.9288,376.4177],
    [12527,1532806355,56.9927,-111.6171,834.5,512.2,341.7,2.9,0.2,23.86,44.99,1.924,376.3811],
    [12528,1532806356,56.9933,-111.6174,836.8,518.3,340.8,3.7,0.3,23.2,44.86,1.9241,375.815],
    [12529,1532806357,56.9938,-111.6177,838.8,524.6,340.8,3.4,0.1,23.47,44.62,1.9248,375.5787],
    [12530,1532806358,56.9944,-111.6181,841.2,532.7,340.9,3.3,0.1,23.88,44.9,1.9236,375.5787],
    [12531,1532806359,56.995,-111.6184,844.1,536.7,340.4,3.7,0.0,23.93,43.52,1.9208,376.2842],
    [12532,1532806360,56.9956,-111.6187,847.0,539.9,340.7,3.5,-0.4,24.39,42.69,1.9117,376.5525],
    [12533,1532806361,56.9962,-111.619,849.7,542.8,340.8,3.3,-0.7,23.94,42.0,1.9108,377.2246],
    [12534,1532806362,56.9968,-111.6194,852.0,545.2,340.7,3.0,-0.3,23.75,41.87,1.9119,377.5179],
    [12535,1532806363,56.9974,-111.6197,854.3,547.5,340.9,2.7,0.0,23.79,40.36,1.9165,377.3421],
    [12536,1532806364,56.998,-111.62,856.7,550.0,339.7,4.3,0.2,23.7,39.49,1.9328,376.7535],
    [12537,1532806365,56.9986,-111.6203,859.1,552.5,338.6,5.1,0.4,23.39,40.32,1.9368,376.3198],
    [12538,1532806366,56.9992,-111.6207,861.3,555.3,339.5,4.1,0.5,23.6,41.18,1.9359,376.7828],
    [12539,1532806367,56.9998,-111.621,864.2,559.3,338.5,4.9,1.0,23.65,42.15,1.933,377.2669],
    [12540,1532806368,57.0004,-111.6214,867.3,561.9,338.1,5.0,0.8,23.27,44.11,1.9272,377.1177],
    [12541,1532806369,57.0009,-111.6217,870.0,563.3,338.2,5.0,-0.2,23.45,45.38,1.935,375.7352],
    [12542,1532806370,57.0015,-111.6221,872.5,564.9,338.0,5.2,-0.4,23.32,45.52,1.9346,374.5543],
    [12543,1532806371,57.0021,-111.6224,875.2,566.5,337.3,5.5,0.2,23.15,46.36,1.9358,374.9148],
    [12544,1532806372,57.0027,-111.6228,878.0,569.2,337.4,5.1,0.1,23.55,46.69,1.9342,375.09],
    [12545,1532806373,57.0033,-111.6232,881.1,572.6,337.5,4.8,0.5,23.81,47.32,1.9308,376.5129],
    [12546,1532806374,57.0039,-111.6235,884.1,576.2,337.2,4.9,0.8,23.11,47.78,1.924,376.2372],
    [12547,1532806375,57.0045,-111.6239,886.9,579.9,336.9,5.2,0.5,23.12,47.37,1.9232,374.9678],
    [12548,1532806376,57.0051,-111.6243,889.8,583.0,336.8,5.1,0.4,23.44,46.91,1.926,375.5745],
    [12549,1532806377,57.0057,-111.6247,892.5,585.5,336.4,5.4,0.5,23.44,45.71,1.9206,375.8818],
    [12550,1532806378,57.0062,-111.625,895.3,588.3,336.0,5.5,0.8,23.24,45.27,1.9306,374.553],
    [12551,1532806379,57.0069,-111.6254,898.3,590.6,336.0,5.3,1.1,22.74,45.52,1.9292,376.0442],
    [12552,1532806380,57.0074,-111.6258,901.2,593.0,335.6,5.4,1.4,23.96,45.43,1.927,376.8517],
    [12553,1532806381,57.008,-111.6262,904.2,595.2,335.8,5.1,1.4,23.02,46.2,1.912,376.3071],
    [12554,1532806382,57.0086,-111.6266,907.2,598.2,335.7,5.0,1.4,23.04,46.1,1.902,376.685],
    [12555,1532806383,57.0092,-111.627,910.4,601.4,335.4,5.2,1.6,23.13,44.46,1.8982,377.4429],
    [12556,1532806384,57.0098,-111.6274,913.6,604.6,335.2,5.3,1.6,23.78,41.18,1.9004,376.9086],
    [12557,1532806385,57.0104,-111.6278,916.4,607.4,335.5,4.7,1.6,23.71,38.73,1.9042,376.6192],
    [12558,1532806386,57.011,-111.6282,919.1,610.1,334.9,5.3,2.0,22.86,38.07,1.9083,378.6093],
    [12559,1532806387,57.0116,-111.6286,921.8,612.8,334.6,5.3,2.1,23.16,37.88,1.9253,377.9615],
    [12560,1532806388,57.0122,-111.629,923.7,614.7,335.1,4.7,1.8,22.5,37.97,1.9275,377.9745],
    [12561,1532806389,57.0128,-111.6294,925.9,618.6,334.9,5.2,1.9,23.09,39.47,1.9319,378.0357],
    [12562,1532806390,57.0134,-111.6298,928.2,622.1,335.3,5.5,1.5,22.26,41.77,1.9272,377.3675],
    [12563,1532806391,57.014,-111.6302,930.8,625.8,336.4,5.4,1.3,23.06,42.96,1.9209,377.7073],
    [12564,1532806392,57.0146,-111.6306,933.1,629.1,338.6,4.9,0.7,22.92,43.97,1.9193,377.2308],
    [12565,1532806393,57.0152,-111.631,935.4,631.4,340.4,5.0,0.6,22.98,44.56,1.9154,376.3593],
    [12566,1532806394,57.0158,-111.6313,937.7,633.7,342.5,4.5,1.1,22.35,44.01,1.9211,376.9513],
    [12567,1532806395,57.0165,-111.6315,940.1,635.1,344.9,3.9,1.1,23.21,43.47,1.9272,376.227],
    [12568,1532806396,57.0171,-111.6318,942.7,637.7,346.1,4.4,1.0,22.87,43.69,1.9165,376.3161],
    [12569,1532806397,57.0177,-111.632,946.0,641.0,346.8,4.8,0.7,22.86,43.82,1.9084,377.1953],
    [12570,1532806398,57.0183,-111.6321,949.0,644.0,347.7,4.3,0.4,22.82,43.65,1.9127,377.2132],
    [12571,1532806399,57.019,-111.6323,952.4,648.5,347.7,4.1,0.3,22.67,43.02,1.9089,375.7674],
    [12572,1532806400,57.0196,-111.6325,955.7,651.8,346.9,4.2,0.3,22.96,42.27,1.9088,377.2991],
    [12573,1532806401,57.0203,-111.6327,958.7,653.7,345.6,4.1,0.3,23.01,41.19,1.9144,376.9874],
    [12574,1532806402,57.0209,-111.633,961.0,655.0,343.8,4.0,0.0,23.67,40.32,1.92,377.5845],
    [12575,1532806403,57.0215,-111.6333,962.9,655.9,340.4,4.9,0.2,23.37,41.04,1.9188,377.7078],
    [12576,1532806404,57.0221,-111.6336,965.0,658.0,336.8,5.6,0.6,22.36,42.66,1.9101,376.8533],
    [12577,1532806405,57.0227,-111.634,967.7,660.7,333.3,5.6,1.1,22.7,42.79,1.8987,377.468],
    [12578,1532806406,57.0233,-111.6345,971.0,665.0,329.9,5.7,1.2,22.89,41.51,1.8975,377.763],
    [12579,1532806407,57.0239,-111.635,974.3,668.3,327.7,5.3,0.6,22.55,41.05,1.9282,377.1029],
    [12580,1532806408,57.0244,-111.6356,977.2,671.2,325.8,5.0,0.4,22.14,39.83,1.9294,377.1175],
    [12581,1532806409,57.025,-111.6362,979.6,674.6,322.7,5.8,1.4,22.47,41.24,1.929,376.5816],
    [12582,1532806410,57.0255,-111.6369,982.4,677.4,320.1,5.8,2.5,23.39,43.48,1.9276,375.9651],
    [12583,1532806411,57.026,-111.6376,985.5,681.5,318.3,6.1,2.5,22.63,45.59,1.9298,376.2945],
    [12584,1532806412,57.0265,-111.6383,988.4,684.4,316.8,6.7,2.2,23.24,46.4,1.9267,376.0433],
    [12585,1532806413,57.027,-111.639,990.8,685.8,316.2,6.6,1.8,23.06,47.6,1.9302,376.1994],
    [12586,1532806414,57.0275,-111.6397,993.5,687.5,315.4,6.4,2.2,23.11,47.85,1.9274,375.7233],
    [12587,1532806415,57.028,-111.6405,996.2,690.2,315.3,5.9,2.1,22.25,48.8,1.9241,376.0239],
    [12588,1532806416,57.0285,-111.6412,999.0,693.0,315.1,5.9,2.2,22.66,48.24,1.9243,376.0141],
    [12589,1532806417,57.029,-111.642,1002.0,696.0,315.0,6.1,1.8,22.2,48.33,1.9217,374.504],
    [12590,1532806418,57.0294,-111.6427,1004.8,698.8,315.9,5.1,1.2,23.23,48.14,1.9232,375.1554],
    [12591,1532806419,57.0299,-111.6435,1007.5,700.8,316.2,4.5,1.3,22.67,48.02,1.9229,376.4907],
    [12592,1532806420,57.0304,-111.6442,1010.3,703.3,315.9,4.9,1.5,22.33,48.13,1.9194,376.0023],
    [12593,1532806421,57.0309,-111.645,1013.4,706.3,315.3,5.3,1.9,22.22,47.84,1.9129,376.3608],
    [12594,1532806422,57.0314,-111.6457,1016.3,708.3,315.1,5.3,1.9,22.6,47.05,1.9051,377.2149],
    [12595,1532806423,57.0318,-111.6465,1019.0,710.0,315.3,5.0,1.7,22.03,47.45,1.9011,375.7296],
    [12596,1532806424,57.0323,-111.6473,1021.9,711.7,315.4,4.9,1.8,22.86,44.2,1.9038,378.004],
    [12597,1532806425,57.0328,-111.648,1024.6,714.6,315.0,4.9,2.3,22.88,42.53,1.9076,376.6329],
    [12598,1532806426,57.0333,-111.6488,1027.5,716.5,315.1,4.5,2.5,22.19,42.4,1.907,376.6329],
    [12599,1532806427,57.0338,-111.6496,1030.3,715.3,315.4,4.0,2.6,22.48,40.36,1.8968,377.9585],
    [12600,1532806428,57.0342,-111.6503,1033.0,712.4,315.3,4.1,2.8,22.54,39.51,1.8989,378.3701],
    [12601,1532806429,57.0347,-111.6511,1035.9,711.8,314.9,4.2,3.3,22.15,39.37,1.8971,379.5137],
    [12602,1532806430,57.0352,-111.6519,1038.3,713.3,315.3,3.8,3.1,22.45,36.82,1.9001,380.1445],
    [12603,1532806431,57.0357,-111.6526,1040.7,714.4,315.4,3.6,3.2,21.54,36.83,1.9065,380.1097],
    [12604,1532806432,57.0362,-111.6534,1043.2,715.9,315.1,3.6,3.6,22.09,36.97,1.9034,379.5639],
    [12605,1532806433,57.0367,-111.6542,1045.5,718.5,315.0,3.5,3.8,22.1,36.92,1.9004,380.3571],
    [12606,1532806434,57.0372,-111.6549,1048.2,722.4,314.7,3.9,4.0,22.04,37.55,1.9007,379.9518],
    [12607,1532806435,57.0376,-111.6557,1050.9,729.7,314.9,3.8,3.7,21.61,37.24,1.901,380.8436],
    [12608,1532806436,57.0381,-111.6565,1054.2,737.6,315.3,3.4,3.5,22.28,36.84,1.901,379.5482],
    [12609,1532806437,57.0386,-111.6572,1057.7,743.4,315.9,2.9,3.0,22.4,36.34,1.9003,380.2403],
    [12610,1532806438,57.0391,-111.658,1060.6,747.7,316.0,2.7,3.0,22.56,36.2,1.8997,380.2403],
    [12611,1532806439,57.0396,-111.6588,1062.8,749.8,316.0,2.6,3.2,22.01,36.16,1.8965,379.8286],
    [12612,1532806440,57.0401,-111.6595,1065.0,752.9,316.1,2.5,3.2,22.16,36.08,1.9015,379.798],
    [12613,1532806441,57.0405,-111.6603,1068.1,756.1,315.9,2.6,3.4,22.68,35.32,1.8949,379.7895],
    [12614,1532806442,57.041,-111.6611,1072.1,759.1,316.0,2.3,3.5,22.23,35.07,1.8966,381.147],
    [12615,1532806443,57.0415,-111.6618,1076.5,763.5,315.8,1.9,4.0,21.99,34.89,1.9141,380.013],
    [12616,1532806444,57.042,-111.6626,1079.9,769.6,315.3,1.9,4.5,22.13,35.85,1.9044,378.8343],
    [12617,1532806445,57.0425,-111.6634,1083.0,774.4,314.6,1.8,5.0,21.96,36.89,1.899,380.1575],
    [12618,1532806446,57.0429,-111.6641,1085.7,778.7,314.3,1.6,4.8,21.92,36.51,1.8947,379.8311],
    [12619,1532806447,57.0434,-111.6649,1087.8,781.3,314.4,1.2,4.6,22.06,36.71,1.8962,380.0441],
    [12620,1532806448,57.0439,-111.6657,1089.9,783.8,314.8,0.4,4.7,21.74,36.45,1.8959,380.0441],
    [12621,1532806449,57.0444,-111.6665,1092.0,786.0,314.9,0.3,5.1,22.01,35.21,1.8969,380.7979],
    [12622,1532806450,57.0449,-111.6673,1094.5,788.5,314.7,0.7,5.2,22.18,34.45,1.8958,381.0108],
    [12623,1532806451,57.0453,-111.6681,1097.4,791.4,314.9,0.6,5.4,21.61,34.89,1.896,380.4703],
    [12624,1532806452,57.0458,-111.6689,1100.3,794.3,315.2,0.6,5.6,22.04,34.18,1.896,379.8393],
    [12625,1532806453,57.0463,-111.6697,1103.9,797.9,314.8,1.0,6.1,21.51,34.41,1.8982,381.4472],
    [12626,1532806454,57.0468,-111.6704,1107.7,800.7,315.1,0.7,6.1,21.93,34.29,1.8953,380.4651],
    [12627,1532806455,57.0473,-111.6712,1111.7,804.7,315.7,0.4,5.7,21.16,34.33,1.8971,380.0078],
    [12628,1532806456,57.0477,-111.672,1115.6,808.6,315.5,0.6,5.8,21.51,35.06,1.8974,381.2958],
    [12629,1532806457,57.0482,-111.6727,1119.9,811.8,314.9,1.2,5.9,21.5,35.23,1.8977,380.7867],
    [12630,1532806458,57.0487,-111.6735,1124.2,815.2,314.7,1.4,5.9,21.1,34.26,1.8975,381.7225],
    [12631,1532806459,57.0492,-111.6743,1128.5,818.5,314.3,1.7,6.1,22.09,33.81,1.8971,381.8268],
    [12632,1532806460,57.0497,-111.675,1132.7,821.0,314.5,1.8,5.9,20.92,34.46,1.8965,380.317],
    [12633,1532806461,57.0501,-111.6758,1136.8,823.8,314.9,2.1,5.9,21.4,34.66,1.895,380.6008],
    [12634,1532806462,57.0506,-111.6765,1140.8,826.9,315.5,2.3,6.2,21.58,34.1,1.8949,381.7749],
    [12635,1532806463,57.0511,-111.6772,1144.7,829.7,317.3,2.2,6.2,21.88,33.6,1.8959,381.2063],
    [12636,1532806464,57.0516,-111.6779,1148.4,833.1,319.5,2.2,6.2,21.47,34.07,1.8951,380.6705],
    [12637,1532806465,57.0521,-111.6786,1152.2,835.5,322.1,2.2,6.3,21.83,33.54,1.8981,381.3055],
    [12638,1532806466,57.0527,-111.6792,1155.9,838.9,325.2,2.0,6.2,21.79,33.44,1.9015,381.4271],
    [12639,1532806467,57.0532,-111.6798,1159.5,841.5,328.4,2.3,6.0,21.36,34.61,1.9008,381.4271],
    [12640,1532806468,57.0538,-111.6803,1163.6,845.6,331.5,2.6,6.0,21.3,34.37,1.8969,380.5705],
    [12641,1532806469,57.0544,-111.6807,1168.1,850.1,334.5,3.0,5.9,21.08,34.86,1.8966,381.1264],
    [12642,1532806470,57.055,-111.6811,1172.8,854.8,337.4,3.3,5.7,21.07,35.3,1.8962,381.1264],
    [12643,1532806471,57.0556,-111.6815,1177.2,858.2,340.2,3.4,5.4,20.37,35.08,1.8958,380.9176],
    [12644,1532806472,57.0562,-111.6818,1181.2,862.2,343.2,3.2,5.0,21.02,34.97,1.896,381.3573],
    [12645,1532806473,57.0568,-111.682,1185.0,866.0,345.7,3.4,4.5,20.94,35.0,1.8952,381.3947],
    [12646,1532806474,57.0574,-111.6822,1189.2,869.9,347.3,4.1,4.1,21.58,34.56,1.8963,380.3928],
    [12647,1532806475,57.0581,-111.6823,1193.7,873.7,348.8,4.5,3.9,21.01,35.37,1.8951,379.7379],
    [12648,1532806476,57.0587,-111.6825,1197.8,877.8,351.0,3.7,3.5,21.24,34.74,1.896,379.857],
    [12649,1532806477,57.0593,-111.6826,1202.2,881.8,352.1,4.2,3.2,20.68,34.81,1.8965,381.2469],
    [12650,1532806478,57.06,-111.6826,1206.9,885.9,352.3,4.8,2.8,20.91,34.81,1.8957,380.7608],
    [12651,1532806479,57.0606,-111.6827,1211.1,890.1,353.1,4.5,2.5,20.9,35.75,1.8953,380.7608],
    [12652,1532806480,57.0612,-111.6828,1215.2,894.2,353.4,4.8,2.3,20.81,34.82,1.8952,381.7486],
    [12653,1532806481,57.0618,-111.6828,1219.7,898.7,353.4,5.0,2.0,20.27,34.78,1.8954,381.1191],
    [12654,1532806482,57.0625,-111.6829,1224.4,903.4,353.7,4.9,1.9,21.21,34.48,1.897,381.4453],
    [12655,1532806483,57.0631,-111.6829,1228.8,907.8,353.7,5.0,1.8,20.45,34.54,1.8975,381.1583],
    [12656,1532806484,57.0637,-111.6829,1233.1,912.1,353.9,4.7,1.7,21.46,34.53,1.8968,381.3924],
    [12657,1532806485,57.0643,-111.683,1237.1,917.2,353.9,4.6,1.5,20.75,35.67,1.8959,381.2883],
    [12658,1532806486,57.0649,-111.683,1241.1,921.1,353.7,4.7,1.3,20.66,34.7,1.8964,381.4017],
    [12659,1532806487,57.0656,-111.6831,1245.2,924.2,353.7,4.7,1.2,20.73,34.74,1.8971,380.9513],
    [12660,1532806488,57.0662,-111.6831,1249.3,928.3,353.7,4.5,1.1,21.11,34.36,1.8962,380.229],
    [12661,1532806489,57.0668,-111.6832,1253.6,932.6,353.5,4.6,0.8,20.68,35.83,1.8956,380.5557],
    [12662,1532806490,57.0674,-111.6832,1257.9,936.9,353.5,4.6,0.6,20.53,35.48,1.8978,381.1708],
    [12663,1532806491,57.068,-111.6833,1262.4,941.4,353.2,4.7,0.4,20.62,35.85,1.8971,382.043],
    [12664,1532806492,57.0686,-111.6833,1266.6,945.6,353.1,4.8,0.2,21.11,34.77,1.8973,379.4827],
    [12665,1532806493,57.0693,-111.6834,1270.9,949.9,353.1,4.7,0.1,21.27,34.94,1.8955,379.4827],
    [12666,1532806494,57.0699,-111.6834,1274.9,953.9,352.9,4.9,-0.1,20.39,35.8,1.8961,380.4012],
    [12667,1532806495,57.0705,-111.6835,1279.0,958.0,352.7,5.0,-0.2,19.92,35.44,1.8966,380.9695],
    [12668,1532806496,57.0711,-111.6836,1282.6,962.4,352.7,4.9,-0.2,21.03,34.83,1.8952,382.5592],
    [12669,1532806497,57.0717,-111.6836,1285.8,965.8,352.8,4.8,-0.1,20.74,35.3,1.8944,382.0608],
    [12670,1532806498,57.0723,-111.6837,1288.5,968.5,352.7,4.9,-0.4,20.43,35.21,1.8947,382.1135],
    [12671,1532806499,57.0729,-111.6838,1291.0,971.0,352.7,4.9,-0.3,20.99,34.69,1.8932,380.9196],
    [12672,1532806500,57.0735,-111.6838,1293.4,973.4,352.9,4.8,-0.3,19.69,34.87,1.894,382.1789],
    [12673,1532806501,57.0742,-111.6839,1296.0,976.0,352.6,5.1,-0.1,20.34,34.76,1.8969,382.1797],
    [12674,1532806502,57.0748,-111.684,1298.7,978.7,352.8,4.8,-0.5,20.02,33.84,1.8909,383.7763],
    [12675,1532806503,57.0754,-111.684,1301.5,981.5,352.8,4.9,-0.7,20.11,33.59,1.8908,383.1298],
    [12676,1532806504,57.076,-111.6841,1304.4,984.4,352.7,5.0,-0.6,20.11,33.0,1.8938,383.2501],
    [12677,1532806505,57.0766,-111.6841,1307.2,987.2,353.1,4.6,-0.5,20.75,31.65,1.8951,382.657],
    [12678,1532806506,57.0772,-111.6842,1309.8,989.8,352.9,4.7,-0.6,20.71,31.33,1.8955,384.8647],
    [12679,1532806507,57.0779,-111.6843,1312.6,992.6,352.9,4.7,-0.8,19.94,31.73,1.8957,383.573],
    [12680,1532806508,57.0785,-111.6843,1315.3,995.3,352.8,4.9,-0.8,19.86,30.99,1.8969,384.126],
    [12681,1532806509,57.0791,-111.6844,1318.2,998.2,352.6,5.1,-0.7,19.67,31.29,1.9009,383.859],
    [12682,1532806510,57.0797,-111.6845,1320.9,1000.9,352.6,5.0,-0.7,20.58,30.46,1.9041,384.4465],
    [12683,1532806511,57.0803,-111.6845,1323.6,1003.6,352.7,5.0,-0.6,19.8,31.32,1.9179,382.799],
    [12684,1532806512,57.0809,-111.6846,1326.3,1006.3,352.6,5.1,-0.4,19.79,32.16,1.9231,383.9356],
    [12685,1532806513,57.0816,-111.6847,1328.8,1008.8,353.1,4.6,-0.3,20.12,32.94,1.9273,383.0781],
    [12686,1532806514,57.0822,-111.6847,1331.4,1010.4,353.1,4.6,-0.3,20.03,35.14,1.9191,383.1329],
    [12687,1532806515,57.0828,-111.6848,1334.1,1013.1,352.9,4.9,-0.4,20.46,36.58,1.929,383.358],
    [12688,1532806516,57.0834,-111.6849,1336.9,1015.9,353.0,4.8,-0.7,20.54,38.0,1.9214,382.2019],
    [12689,1532806517,57.0841,-111.6849,1339.7,1018.7,353.0,4.7,-0.6,19.95,40.36,1.9128,382.059],
    [12690,1532806518,57.0847,-111.685,1342.5,1021.5,352.9,4.8,-0.6,20.18,41.01,1.9125,381.2877],
    [12691,1532806519,57.0853,-111.685,1345.2,1024.2,353.2,4.4,-0.7,20.1,41.59,1.905,381.7071],
    [12692,1532806520,57.0859,-111.6851,1348.0,1026.5,353.2,4.4,-0.6,20.43,40.68,1.9063,381.608],
    [12693,1532806521,57.0866,-111.6852,1350.7,1029.0,353.4,4.3,-0.7,19.78,39.76,1.9054,381.9136],
    [12694,1532806522,57.0872,-111.6852,1353.6,1031.9,353.4,4.2,-0.9,20.22,38.38,1.9095,382.4251],
    [12695,1532806523,57.0878,-111.6853,1356.5,1034.5,353.5,4.1,-0.9,19.52,38.29,1.8996,382.6773],
    [12696,1532806524,57.0884,-111.6854,1359.2,1037.2,353.3,4.1,-0.7,19.05,37.47,1.8903,382.9261],
    [12697,1532806525,57.0891,-111.6855,1361.9,1038.8,352.9,4.1,-0.5,20.13,36.31,1.8874,383.3941],
    [12698,1532806526,57.0897,-111.6855,1364.4,1041.4,352.4,3.7,-0.2,19.15,35.32,1.8894,383.738],
    [12699,1532806527,57.0903,-111.6856,1367.1,1043.1,351.3,3.2,0.0,20.01,32.77,1.8909,383.0779],
    [12700,1532806528,57.0909,-111.6858,1369.7,1045.7,349.0,3.6,0.2,20.4,29.27,1.8934,385.5133],
    [12701,1532806529,57.0916,-111.686,1372.1,1048.1,345.8,4.3,0.3,19.66,29.04,1.8935,383.8711],
    [12702,1532806530,57.0922,-111.6862,1374.3,1049.3,342.9,4.2,0.5,19.69,27.44,1.8956,383.2527],
    [12703,1532806531,57.0928,-111.6865,1376.6,1051.6,339.2,4.7,0.9,19.99,26.78,1.894,383.4295],
    [12704,1532806532,57.0934,-111.6869,1379.5,1055.5,336.3,4.5,0.7,19.67,27.16,1.8933,384.9457],
    [12705,1532806533,57.0939,-111.6873,1382.6,1058.6,333.9,4.4,0.7,19.91,26.56,1.8938,383.4921],
    [12706,1532806534,57.0945,-111.6878,1385.8,1062.9,331.8,4.2,0.8,19.43,26.87,1.895,384.5004],
    [12707,1532806535,57.0951,-111.6883,1388.7,1065.4,329.5,4.8,0.9,20.2,26.81,1.8951,384.863],
    [12708,1532806536,57.0956,-111.6888,1391.5,1067.5,328.0,4.8,0.6,19.38,26.89,1.8949,384.147],
    [12709,1532806537,57.0962,-111.6893,1394.2,1070.2,326.7,5.0,0.5,19.78,26.88,1.8939,383.9723],
    [12710,1532806538,57.0967,-111.6899,1396.8,1072.2,325.8,5.1,0.3,19.73,27.72,1.8947,385.4747],
    [12711,1532806539,57.0972,-111.6905,1399.4,1074.4,325.2,5.1,0.1,20.29,26.24,1.8956,383.8087],
    [12712,1532806540,57.0977,-111.6911,1402.1,1077.1,324.8,5.2,0.1,19.74,27.73,1.8953,383.3569],
    [12713,1532806541,57.0983,-111.6917,1404.9,1080.2,324.2,5.6,0.2,19.57,27.19,1.8946,384.5206],
    [12714,1532806542,57.0988,-111.6923,1407.5,1083.5,323.9,6.0,0.0,19.74,27.53,1.8952,383.8434],
    [12715,1532806543,57.0993,-111.6929,1410.0,1086.0,324.0,6.1,-0.3,19.5,26.86,1.8984,384.8617],
    [12716,1532806544,57.0998,-111.6935,1412.8,1088.8,324.3,5.8,-0.5,19.38,26.91,1.8959,384.5603],
    [12717,1532806545,57.1004,-111.6941,1415.7,1091.7,324.4,5.7,-0.5,20.11,26.92,1.9049,384.5923],
    [12718,1532806546,57.1009,-111.6947,1418.7,1094.7,325.0,5.1,-0.9,19.89,27.39,1.8992,384.1272],
    [12719,1532806547,57.1014,-111.6953,1421.7,1098.0,324.9,5.1,-0.6,19.42,28.57,1.8942,384.5334],
    [12720,1532806548,57.1019,-111.6959,1424.6,1100.6,324.8,5.1,-0.4,19.12,29.3,1.896,384.627],
    [12721,1532806549,57.1024,-111.6965,1427.3,1103.3,325.0,4.6,-0.5,19.1,29.91,1.9016,384.6619],
    [12722,1532806550,57.103,-111.6971,1430.0,1106.0,325.0,4.5,-0.2,18.99,29.75,1.8964,385.0174],
    [12723,1532806551,57.1035,-111.6977,1432.9,1108.9,324.7,4.5,0.0,20.15,29.2,1.8947,384.2159],
    [12724,1532806552,57.104,-111.6983,1435.9,1111.7,324.6,4.6,0.0,19.42,29.63,1.8933,384.714],
    [12725,1532806553,57.1045,-111.6989,1438.9,1113.9,325.0,4.1,-0.2,19.12,29.57,1.8943,384.47],
    [12726,1532806554,57.1051,-111.6995,1441.9,1116.9,324.9,4.1,-0.1,19.47,28.83,1.9046,384.5376],
    [12727,1532806555,57.1056,-111.7001,1444.6,1119.6,324.6,4.3,0.0,19.74,28.56,1.9349,383.606],
    [12728,1532806556,57.1061,-111.7007,1446.9,1121.9,325.2,3.6,-0.1,18.89,29.16,1.9459,383.7089],
    [12729,1532806557,57.1066,-111.7014,1449.2,1124.2,325.0,3.6,0.3,20.11,30.26,1.9442,383.1216],
    [12730,1532806558,57.1072,-111.702,1451.7,1126.7,324.5,3.8,0.8,19.19,36.15,1.9429,381.9117],
    [12731,1532806559,57.1077,-111.7026,1454.3,1129.3,324.9,3.1,0.7,19.59,40.52,1.9236,382.3005],
    [12732,1532806560,57.1082,-111.7032,1456.7,1131.7,325.1,2.8,0.8,19.67,44.22,1.9265,382.7756],
    [12733,1532806561,57.1088,-111.7039,1459.2,1134.2,324.9,3.0,0.7,19.09,47.55,1.9373,379.6091],
    [12734,1532806562,57.1093,-111.7045,1461.7,1136.7,325.1,2.9,0.4,19.05,48.48,1.9312,379.6091],
    [12735,1532806563,57.1098,-111.7051,1464.3,1140.2,325.3,2.6,0.4,18.7,49.09,1.928,379.517],
    [12736,1532806564,57.1103,-111.7057,1467.0,1143.0,324.5,3.3,0.7,18.59,50.1,1.9221,379.517],
    [12737,1532806565,57.1109,-111.7063,1469.7,1145.7,324.7,3.0,0.7,18.47,49.86,1.9264,377.9094],
    [12738,1532806566,57.1114,-111.707,1472.2,1148.2,324.9,2.6,1.0,19.75,49.0,1.941,379.1026],
    [12739,1532806567,57.1119,-111.7076,1474.7,1150.7,324.7,2.5,1.4,19.38,49.01,1.9465,378.4428],
    [12740,1532806568,57.1125,-111.7082,1477.7,1153.7,324.8,2.2,1.7,18.28,51.34,1.9413,379.1016],
    [12741,1532806569,57.113,-111.7089,1480.6,1156.6,324.9,1.9,1.8,18.0,53.52,1.9249,378.8311],
    [12742,1532806570,57.1135,-111.7095,1483.2,1160.2,325.0,1.9,1.8,18.87,54.3,1.9043,379.0569],
    [12743,1532806571,57.1141,-111.7101,1485.7,1162.7,324.9,2.5,1.3,18.77,53.46,1.8887,379.9257],
    [12744,1532806572,57.1146,-111.7108,1488.6,1165.6,324.5,3.3,1.1,19.01,50.12,1.886,379.4798],
    [12745,1532806573,57.1151,-111.7114,1491.5,1169.2,324.2,3.5,1.2,18.75,45.53,1.8881,381.1705],
    [12746,1532806574,57.1156,-111.712,1494.2,1172.2,324.5,3.4,0.9,19.27,39.27,1.8917,381.3527],
    [12747,1532806575,57.1162,-111.7126,1496.9,1173.9,324.4,3.6,1.1,19.25,35.65,1.8931,381.3166],
    [12748,1532806576,57.1167,-111.7133,1499.6,1176.6,324.5,3.4,1.3,18.66,33.06,1.8925,381.3166],
    [12749,1532806577,57.1172,-111.7139,1502.0,1179.0,324.8,3.3,1.1,18.55,30.8,1.894,383.3423],
    [12750,1532806578,57.1177,-111.7145,1504.5,1181.5,324.9,3.4,1.0,18.78,29.3,1.8949,383.807],
    [12751,1532806579,57.1183,-111.7151,1507.1,1184.1,325.0,3.4,1.0,18.14,28.94,1.896,383.1852],
    [12752,1532806580,57.1188,-111.7157,1509.8,1186.8,324.9,3.4,1.0,18.37,28.45,1.8969,384.2996],
    [12753,1532806581,57.1193,-111.7163,1512.4,1188.4,325.1,3.1,1.0,18.87,28.33,1.8962,384.2036],
    [12754,1532806582,57.1199,-111.717,1514.9,1189.9,325.2,3.1,0.9,18.36,29.11,1.8964,384.0018],
    [12755,1532806583,57.1204,-111.7176,1517.6,1190.6,325.1,3.2,1.0,18.96,28.11,1.8969,384.372],
    [12756,1532806584,57.1209,-111.7182,1520.0,1192.0,324.9,3.3,1.1,18.33,27.91,1.8975,384.717],
    [12757,1532806585,57.1215,-111.7188,1522.5,1194.5,324.6,3.7,1.3,18.2,27.65,1.8975,384.6908],
    [12758,1532806586,57.122,-111.7194,1525.7,1197.7,325.0,3.4,0.9,18.57,27.97,1.8955,384.97],
    [12759,1532806587,57.1225,-111.7201,1529.0,1201.0,325.4,3.0,0.7,18.51,27.99,1.8971,384.97],
    [12760,1532806588,57.123,-111.7207,1531.5,1203.5,325.2,3.1,0.9,18.51,27.45,1.8973,384.6765],
    [12761,1532806589,57.1236,-111.7213,1533.3,1205.3,325.0,3.2,0.9,17.92,27.33,1.8979,384.9799],
    [12762,1532806590,57.1241,-111.7219,1535.4,1207.4,324.6,3.5,0.8,19.14,26.89,1.8968,384.7852],
    [12763,1532806591,57.1246,-111.7225,1537.9,1209.9,324.4,3.8,0.7,18.89,26.96,1.8959,384.3315],
    [12764,1532806592,57.1252,-111.7232,1540.2,1212.2,324.3,4.0,0.7,18.11,27.11,1.897,384.168],
    [12765,1532806593,57.1257,-111.7238,1542.5,1214.5,324.0,4.4,0.7,18.29,27.6,1.8979,384.7157],
    [12766,1532806594,57.1262,-111.7244,1544.6,1215.6,324.5,4.3,0.3,18.25,27.17,1.8981,385.7121],
    [12767,1532806595,57.1268,-111.725,1547.8,1218.8,324.3,4.9,0.3,17.83,27.29,1.8975,385.1782],
    [12768,1532806596,57.1273,-111.7256,1551.4,1222.4,324.5,4.9,0.2,19.23,26.56,1.897,384.3996],
    [12769,1532806597,57.1278,-111.7263,1554.6,1225.6,325.1,4.6,-0.2,18.81,27.18,1.8985,385.5011],
    [12770,1532806598,57.1284,-111.7269,1557.7,1228.7,325.6,4.1,-0.3,18.66,27.16,1.8972,385.7087],
    [12771,1532806599,57.1289,-111.7275,1560.1,1231.1,326.1,3.8,-0.4,19.02,27.3,1.8979,385.4513],
    [12772,1532806600,57.1294,-111.7281,1562.8,1234.8,325.6,4.4,-0.1,18.71,26.89,1.899,384.2063],
    [12773,1532806601,57.13,-111.7287,1566.0,1238.0,325.7,4.2,-0.4,18.56,26.86,1.8978,384.2063],
    [12774,1532806602,57.1305,-111.7293,1569.0,1241.0,325.8,4.3,-0.8,18.34,27.92,1.8977,385.0756],
    [12775,1532806603,57.131,-111.7299,1571.7,1243.7,325.5,4.6,-0.9,18.03,27.4,1.8978,385.2522],
    [12776,1532806604,57.1316,-111.7305,1574.2,1246.2,325.4,4.5,-0.9,18.53,27.77,1.8983,386.1669],
    [12777,1532806605,57.1321,-111.7311,1576.8,1248.8,325.3,4.7,-1.0,18.51,27.99,1.8995,385.849],
    [12778,1532806606,57.1326,-111.7317,1579.2,1251.2,325.1,4.9,-1.2,18.43,28.12,1.8998,383.6696],
    [12779,1532806607,57.1332,-111.7324,1581.6,1253.6,325.4,4.8,-1.8,18.18,28.05,1.9008,383.3452],
    [12780,1532806608,57.1337,-111.733,1584.0,1257.0,325.4,4.9,-1.9,17.82,28.16,1.9096,383.729],
    [12781,1532806609,57.1342,-111.7336,1586.5,1259.5,325.5,4.7,-2.0,18.65,28.54,1.9039,382.52],
    [12782,1532806610,57.1348,-111.7342,1589.0,1262.0,325.4,4.9,-1.9,17.92,29.33,1.899,382.9665],
    [12783,1532806611,57.1353,-111.7348,1591.8,1264.8,325.1,4.9,-1.7,18.36,30.11,1.8975,384.1932],
    [12784,1532806612,57.1358,-111.7355,1594.6,1267.6,325.0,4.9,-1.6,18.63,30.32,1.8993,382.2619],
    [12785,1532806613,57.1364,-111.7361,1597.2,1271.2,324.9,5.1,-1.6,19.02,29.46,1.8985,381.0069],
    [12786,1532806614,57.1369,-111.7367,1599.9,1273.9,324.9,5.0,-1.6,17.97,29.49,1.8974,383.3475],
    [12787,1532806615,57.1374,-111.7373,1602.5,1276.5,325.0,5.0,-1.6,18.17,29.17,1.8981,384.0756],
    [12788,1532806616,57.138,-111.738,1605.1,1279.1,325.1,4.7,-1.4,19.29,28.88,1.8999,384.307],
    [12789,1532806617,57.1385,-111.7386,1607.5,1281.5,325.3,4.5,-1.3,18.57,29.28,1.8989,383.533],
    [12790,1532806618,57.139,-111.7392,1609.7,1284.2,325.1,4.7,-1.1,18.28,28.99,1.8982,384.6398],
    [12791,1532806619,57.1396,-111.7398,1612.0,1286.3,325.4,4.4,-1.3,18.86,28.66,1.8978,383.6276],
    [12792,1532806620,57.1401,-111.7404,1613.8,1288.1,325.4,4.3,-1.1,18.07,28.9,1.8984,384.0918],
    [12793,1532806621,57.1406,-111.7411,1614.6,1289.5,325.3,4.3,-0.8,19.01,28.17,1.8975,384.3674],
    [12794,1532806622,57.1412,-111.7417,1614.2,1289.1,325.5,4.0,-0.7,18.28,28.85,1.8973,384.4868],
    [12795,1532806623,57.1417,-111.7423,1613.2,1288.6,325.5,3.9,-0.3,18.65,28.76,1.8989,383.3294],
    [12796,1532806624,57.1423,-111.743,1611.8,1287.8,325.8,3.6,-0.4,18.25,28.84,1.8983,383.9869],
    [12797,1532806625,57.1428,-111.7436,1610.5,1287.0,325.8,3.6,-0.3,18.73,28.8,1.8987,384.2867],
    [12798,1532806626,57.1434,-111.7442,1609.3,1291.0,326.1,3.2,-0.3,18.31,28.85,1.8993,384.2867],
    [12799,1532806627,57.1439,-111.7448,1608.3,1291.0,326.3,2.8,-0.2,19.32,28.22,1.8982,383.9947],
    [12800,1532806628,57.1445,-111.7455,1607.7,1289.7,326.2,2.7,0.0,18.58,29.44,1.898,382.8884],
    [12801,1532806629,57.145,-111.7461,1607.1,1290.5,326.0,2.7,0.4,18.72,28.6,1.8978,385.0681],
    [12802,1532806630,57.1456,-111.7468,1606.2,1288.6,326.0,2.5,0.5,18.17,28.88,1.898,384.7335],
    [12803,1532806631,57.1462,-111.7474,1605.1,1287.7,326.0,2.5,0.3,18.56,28.64,1.8975,383.8502],
    [12804,1532806632,57.1467,-111.7481,1604.2,1288.1,326.1,2.5,0.1,18.46,29.76,1.8983,383.5877],
    [12805,1532806633,57.1473,-111.7487,1603.8,1285.1,325.9,2.6,0.2,18.8,28.78,1.8993,383.2083],
    [12806,1532806634,57.1478,-111.7494,1603.7,1282.4,325.9,2.6,0.3,19.02,27.75,1.899,383.652],
    [12807,1532806635,57.1484,-111.75,1603.6,1280.7,326.0,2.4,0.2,18.74,28.23,1.8992,383.6136],
    [12808,1532806636,57.149,-111.7507,1603.5,1279.7,325.8,2.6,0.2,18.8,28.11,1.8996,384.7951],
    [12809,1532806637,57.1495,-111.7513,1603.5,1280.8,325.9,2.6,0.0,18.4,28.89,1.8986,384.952],
    [12810,1532806638,57.1501,-111.752,1603.9,1286.1,325.6,3.1,0.3,19.27,27.43,1.8983,384.9554],
    [12811,1532806639,57.1506,-111.7526,1604.2,1294.7,325.9,2.7,-0.1,18.93,27.35,1.9014,385.0056],
    [12812,1532806640,57.1512,-111.7533,1604.0,1304.9,326.5,2.3,-0.4,19.16,27.28,1.9006,384.7291],
    [12813,1532806641,57.1517,-111.7539,1603.9,1316.4,326.1,2.8,-0.1,18.51,28.1,1.8976,383.7025],
    [12814,1532806642,57.1523,-111.7546,1604.0,1320.4,326.4,2.6,-0.3,18.56,28.0,1.9013,383.8618],
    [12815,1532806643,57.1529,-111.7552,1604.2,1322.7,326.2,2.8,-0.2,18.55,27.77,1.899,384.4656],
    [12816,1532806644,57.1534,-111.7559,1604.4,1323.1,326.2,2.9,-0.3,18.05,28.31,1.8986,384.6673],
    [12817,1532806645,57.154,-111.7565,1604.8,1319.2,326.4,2.7,-0.5,18.26,28.36,1.8997,384.7365],
    [12818,1532806646,57.1546,-111.7572,1605.1,1315.1,326.2,2.8,-0.4,19.1,27.04,1.8993,385.1049],
    [12819,1532806647,57.1551,-111.7578,1605.1,1309.6,326.2,2.5,-0.5,18.44,28.22,1.8994,383.1549],
    [12820,1532806648,57.1557,-111.7585,1605.0,1302.2,325.6,2.5,-0.4,18.61,27.46,1.8985,384.7077],
    [12821,1532806649,57.1563,-111.7592,1604.8,1298.1,324.5,2.6,-0.2,18.16,28.04,1.8979,384.3241],
    [12822,1532806650,57.1568,-111.7599,1604.4,1295.4,323.3,2.7,0.0,18.25,27.57,1.8977,384.4695],
    [12823,1532806651,57.1574,-111.7606,1604.0,1297.3,322.1,2.8,0.4,18.19,27.84,1.898,383.9817],
    [12824,1532806652,57.1579,-111.7613,1603.8,1300.8,321.1,2.9,0.5,17.84,27.49,1.897,383.4812],
    [12825,1532806653,57.1584,-111.7621,1603.9,1308.6,320.6,3.0,0.6,18.19,27.64,1.8974,384.4506],
    [12826,1532806654,57.159,-111.7628,1604.3,1318.7,320.4,3.1,0.4,19.25,26.94,1.8977,385.2071],
    [12827,1532806655,57.1595,-111.7636,1604.8,1325.6,320.6,3.0,0.0,18.58,27.83,1.897,383.6868],
    [12828,1532806656,57.16,-111.7643,1605.2,1329.2,320.6,2.9,0.0,19.07,27.2,1.8967,383.6868],
    [12829,1532806657,57.1605,-111.765,1605.4,1326.9,320.5,2.8,-0.1,18.29,28.39,1.897,384.3036],
    [12830,1532806658,57.1611,-111.7658,1605.5,1320.1,320.2,2.9,-0.1,18.43,28.99,1.8971,383.3436],
    [12831,1532806659,57.1616,-111.7666,1605.5,1305.0,319.6,3.1,0.0,18.22,28.55,1.8973,383.536],
    [12832,1532806660,57.1621,-111.7673,1605.3,1291.7,319.0,3.2,0.2,17.83,28.5,1.897,384.4836],
    [12833,1532806661,57.1626,-111.7681,1605.1,1285.8,318.6,3.1,0.3,18.44,28.51,1.8976,384.7308],
    [12834,1532806662,57.1631,-111.7689,1605.0,1286.4,318.5,2.9,0.2,18.03,28.72,1.8973,382.0646],
    [12835,1532806663,57.1636,-111.7697,1604.9,1287.9,318.4,2.8,0.3,18.6,28.93,1.8965,382.9602],
    [12836,1532806664,57.1641,-111.7704,1604.8,1287.1,318.4,2.7,0.3,18.61,29.09,1.8957,384.1897],
    [12837,1532806665,57.1647,-111.7712,1604.7,1288.7,318.4,2.5,0.4,17.91,29.32,1.8961,382.8572],
    [12838,1532806666,57.1652,-111.772,1604.6,1298.7,318.3,2.4,0.4,18.42,29.71,1.8962,384.1749],
    [12839,1532806667,57.1657,-111.7728,1604.5,1315.4,318.3,2.4,0.5,18.95,29.22,1.896,384.0833],
    [12840,1532806668,57.1662,-111.7736,1604.4,1326.1,318.2,2.3,0.6,18.45,30.73,1.8965,384.6529],
    [12841,1532806669,57.1667,-111.7744,1604.1,1326.8,318.2,2.3,0.6,18.35,30.29,1.8962,384.6529],
    [12842,1532806670,57.1672,-111.7752,1603.8,1322.0,318.1,2.3,0.6,18.25,30.35,1.8973,383.3732],
    [12843,1532806671,57.1677,-111.776,1603.4,1306.5,318.1,2.2,0.7,18.18,30.7,1.8975,383.4464],
    [12844,1532806672,57.1682,-111.7768,1603.0,1291.0,318.1,2.1,0.9,18.53,30.99,1.8969,383.7151],
    [12845,1532806673,57.1687,-111.7776,1602.8,1286.5,318.2,2.2,0.7,18.23,31.2,1.8954,383.7151],
    [12846,1532806674,57.1692,-111.7784,1602.7,1283.3,318.2,2.3,0.6,18.46,32.01,1.8956,381.765],
    [12847,1532806675,57.1698,-111.7792,1602.7,1281.4,318.1,2.7,0.4,18.41,31.78,1.8958,381.765],
    [12848,1532806676,57.1703,-111.78,1602.8,1280.9,318.1,2.7,0.3,18.89,31.09,1.8959,385.077],
    [12849,1532806677,57.1708,-111.7808,1603.0,1280.9,318.1,2.7,0.5,18.43,31.33,1.8957,383.7355],
    [12850,1532806678,57.1713,-111.7816,1603.3,1280.6,318.1,2.6,0.5,18.49,30.82,1.8954,380.1472],
    [12851,1532806679,57.1718,-111.7824,1603.6,1280.1,318.2,2.4,0.8,18.62,29.97,1.8961,384.0766],
    [12852,1532806680,57.1723,-111.7832,1603.9,1279.6,318.2,2.3,1.0,17.91,30.57,1.8956,383.1363],
    [12853,1532806681,57.1728,-111.784,1604.0,1278.0,318.1,2.4,1.1,18.08,29.48,1.8957,383.285],
    [12854,1532806682,57.1734,-111.7848,1603.9,1277.9,318.1,2.4,1.1,18.15,29.1,1.8976,383.6782],
    [12855,1532806683,57.1739,-111.7856,1603.7,1277.7,318.2,2.3,1.1,18.79,29.42,1.8977,383.6782],
    [12856,1532806684,57.1744,-111.7863,1603.3,1277.3,318.2,2.1,1.3,18.37,28.82,1.8996,384.5156],
    [12857,1532806685,57.1749,-111.7872,1603.1,1277.1,318.3,2.0,1.3,18.29,28.72,1.898,385.0751],
    [12858,1532806686,57.1754,-111.788,1602.9,1276.9,318.3,2.0,1.4,18.7,28.55,1.8972,383.8114],
    [12859,1532806687,57.176,-111.7888,1602.8,1276.7,318.3,1.7,1.5,18.45,28.68,1.8965,384.1206],
    [12860,1532806688,57.1765,-111.7896,1602.7,1276.7,318.7,1.5,1.2,18.34,28.94,1.8961,383.258],
    [12861,1532806689,57.177,-111.7904,1602.8,1276.8,318.5,2.0,1.2,18.52,29.15,1.8977,382.9239],
    [12862,1532806690,57.1775,-111.7912,1602.9,1276.9,318.5,2.0,0.9,18.21,29.09,1.8974,384.4491],
    [12863,1532806691,57.178,-111.792,1603.2,1277.2,318.6,2.0,0.8,18.43,29.15,1.8968,384.5726],
    [12864,1532806692,57.1786,-111.7928,1603.5,1277.5,318.6,2.1,0.6,18.4,29.38,1.8953,382.7209],
    [12865,1532806693,57.1791,-111.7936,1603.9,1277.9,318.5,2.2,0.6,18.53,29.98,1.8951,382.5024],
    [12866,1532806694,57.1796,-111.7944,1604.3,1278.3,318.4,2.3,0.6,18.7,30.3,1.8949,384.1284],
    [12867,1532806695,57.1801,-111.7952,1604.6,1277.6,318.3,2.5,0.6,18.67,31.03,1.8942,383.9752],
    [12868,1532806696,57.1806,-111.796,1604.8,1277.8,318.3,2.4,0.7,18.4,31.02,1.8961,384.0266],
    [12869,1532806697,57.1811,-111.7968,1604.8,1276.8,318.4,2.3,0.7,18.81,30.49,1.8964,383.8196],
    [12870,1532806698,57.1817,-111.7976,1604.8,1276.8,318.7,2.0,0.6,18.54,31.32,1.8948,383.7425],
    [12871,1532806699,57.1822,-111.7984,1604.6,1276.6,318.7,2.0,0.8,18.61,31.44,1.895,383.6809],
    [12872,1532806700,57.1827,-111.7992,1604.5,1275.5,318.7,1.8,0.9,18.2,31.89,1.8966,382.8876],
    [12873,1532806701,57.1832,-111.8,1604.5,1275.5,318.7,1.8,1.0,18.02,32.05,1.8961,382.516],
    [12874,1532806702,57.1838,-111.8008,1604.5,1275.5,318.6,1.7,1.0,18.46,33.19,1.8963,383.4791],
    [12875,1532806703,57.1843,-111.8016,1604.4,1274.4,318.7,1.6,1.0,18.48,32.87,1.8939,383.2397],
    [12876,1532806704,57.1848,-111.8024,1604.3,1274.3,318.5,1.8,1.1,18.9,33.19,1.8945,383.3818],
    [12877,1532806705,57.1853,-111.8032,1604.1,1274.1,318.6,1.9,0.8,18.11,34.09,1.8949,383.5509],
    [12878,1532806706,57.1858,-111.804,1604.1,1274.1,318.4,2.1,0.9,18.83,34.32,1.8933,383.8581],
    [12879,1532806707,57.1864,-111.8048,1604.2,1274.2,318.2,2.3,1.1,18.48,35.08,1.893,382.6154],
    [12880,1532806708,57.1869,-111.8056,1604.6,1274.6,318.3,2.2,1.0,19.35,34.51,1.8929,383.7585],
    [12881,1532806709,57.1874,-111.8064,1604.9,1274.9,318.4,1.9,1.4,19.23,34.62,1.8939,383.0393],
    [12882,1532806710,57.1879,-111.8072,1604.9,1275.9,318.5,1.9,1.3,18.07,35.33,1.8998,383.1955],
    [12883,1532806711,57.1884,-111.808,1604.8,1275.8,318.4,2.3,1.2,18.08,35.38,1.9109,382.0951],
    [12884,1532806712,57.189,-111.8088,1604.7,1275.7,318.4,2.2,1.4,18.04,35.12,1.9185,382.1155],
    [12885,1532806713,57.1895,-111.8096,1604.6,1274.6,318.7,2.0,1.2,17.98,35.28,1.9273,382.1155],
    [12886,1532806714,57.19,-111.8104,1604.6,1274.6,318.6,1.7,1.8,18.68,36.03,1.9391,381.8332],
    [12887,1532806715,57.1905,-111.8112,1604.7,1273.7,318.6,1.1,2.4,18.16,39.0,1.9252,380.9117],
    [12888,1532806716,57.1911,-111.812,1604.8,1273.8,318.7,1.0,2.4,18.57,41.04,1.9004,382.3648],
    [12889,1532806717,57.1916,-111.8128,1604.9,1274.9,318.7,1.1,2.3,18.53,43.22,1.8969,382.2281],
    [12890,1532806718,57.1921,-111.8136,1604.8,1274.8,318.6,0.8,2.8,18.32,42.76,1.9184,381.1188],
    [12891,1532806719,57.1926,-111.8144,1604.5,1274.5,318.7,0.6,2.9,18.17,41.71,1.9274,380.5226],
    [12892,1532806720,57.1931,-111.8152,1604.3,1274.3,318.8,0.5,2.8,17.91,40.89,1.9203,379.935],
    [12893,1532806721,57.1937,-111.816,1604.0,1274.0,318.7,0.5,2.9,17.6,41.27,1.8968,381.8203],
    [12894,1532806722,57.1942,-111.8168,1603.7,1273.7,318.8,0.3,3.0,18.27,42.01,1.8917,381.8203],
    [12895,1532806723,57.1947,-111.8176,1603.5,1273.5,318.7,0.2,3.0,18.37,42.4,1.8927,381.5758],
    [12896,1532806724,57.1953,-111.8184,1603.4,1273.4,318.6,0.3,3.1,19.03,40.86,1.892,381.9526],
    [12897,1532806725,57.1958,-111.8192,1603.4,1273.4,318.5,0.4,3.2,17.61,40.26,1.8924,381.8174],
    [12898,1532806726,57.1963,-111.82,1603.4,1273.4,318.4,0.5,3.4,18.14,39.9,1.8929,382.4395],
    [12899,1532806727,57.1968,-111.8208,1603.5,1273.5,318.5,0.5,3.3,17.97,38.78,1.8947,382.5905],
    [12900,1532806728,57.1974,-111.8216,1603.6,1273.6,318.5,0.6,3.3,18.08,38.21,1.8975,382.3443],
    [12901,1532806729,57.1979,-111.8224,1603.8,1273.8,318.4,0.8,3.3,18.06,38.15,1.907,382.5037],
    [12902,1532806730,57.1984,-111.8232,1604.0,1274.0,318.5,0.7,3.3,18.14,38.03,1.9048,382.6652],
    [12903,1532806731,57.199,-111.824,1604.1,1275.1,318.6,0.4,3.5,18.15,37.96,1.9222,381.9151],
    [12904,1532806732,57.1995,-111.8248,1604.3,1275.3,318.7,0.2,3.6,18.06,39.0,1.9267,380.6371],
    [12905,1532806733,57.2,-111.8256,1604.5,1274.5,318.6,0.9,3.0,17.62,40.47,1.902,381.362],
    [12906,1532806734,57.2005,-111.8264,1605.0,1275.0,318.5,1.3,2.7,17.73,42.02,1.8948,381.362],
    [12907,1532806735,57.2011,-111.8272,1605.6,1276.6,318.7,1.2,2.5,17.88,42.84,1.89,382.1607],
    [12908,1532806736,57.2016,-111.828,1606.5,1278.5,319.0,1.0,2.4,17.4,42.95,1.891,380.6532],
    [12909,1532806737,57.2021,-111.8288,1607.4,1280.4,319.1,1.0,2.2,18.47,41.3,1.8917,380.5057],
    [12910,1532806738,57.2027,-111.8296,1608.2,1281.2,319.2,1.1,1.9,17.3,39.87,1.893,380.5057],
    [12911,1532806739,57.2032,-111.8304,1609.0,1283.0,319.0,1.4,1.8,18.58,39.11,1.8922,381.3887],
    [12912,1532806740,57.2037,-111.8312,1609.4,1283.4,319.1,1.4,1.5,17.93,38.16,1.8925,382.1453],
    [12913,1532806741,57.2042,-111.832,1610.0,1284.0,319.1,1.4,1.1,18.47,37.64,1.8927,381.2472],
    [12914,1532806742,57.2047,-111.8328,1611.2,1285.2,319.3,1.5,0.3,17.72,37.73,1.8924,381.2472],
    [12915,1532806743,57.2053,-111.8335,1612.8,1286.8,318.8,2.2,0.1,17.88,36.98,1.8923,382.3476],
    [12916,1532806744,57.2058,-111.8343,1614.7,1288.7,318.5,2.5,0.1,18.05,36.01,1.892,382.3898],
    [12917,1532806745,57.2063,-111.8351,1615.8,1289.8,319.0,2.2,-0.2,18.21,34.99,1.8947,383.2229],
    [12918,1532806746,57.2068,-111.8359,1616.3,1289.6,318.7,2.5,0.1,17.53,34.32,1.8945,382.5749],
    [12919,1532806747,57.2073,-111.8367,1616.8,1289.8,318.3,2.8,0.3,18.52,33.51,1.8951,383.2154],
    [12920,1532806748,57.2078,-111.8375,1617.3,1290.3,319.0,2.2,-0.5,18.76,32.38,1.8946,383.2387],
    [12921,1532806749,57.2083,-111.8383,1617.7,1290.7,319.3,2.1,-0.8,17.41,33.11,1.894,383.5241],
    [12922,1532806750,57.2089,-111.8391,1617.9,1290.9,318.7,2.3,0.0,18.28,32.82,1.8935,383.5241],
    [12923,1532806751,57.2094,-111.8399,1617.7,1290.7,318.2,2.6,0.4,18.09,33.65,1.8949,383.5792],
    [12924,1532806752,57.2099,-111.8406,1617.8,1290.8,318.0,3.1,0.3,17.28,33.1,1.895,384.334],
    [12925,1532806753,57.2104,-111.8414,1618.0,1291.0,317.9,3.3,0.3,18.44,32.76,1.8936,383.3325],
    [12926,1532806754,57.2109,-111.8422,1618.2,1291.2,317.9,3.4,0.2,17.64,33.23,1.8943,382.8467],
    [12927,1532806755,57.2114,-111.843,1618.7,1292.0,318.1,3.6,0.2,17.89,33.55,1.895,383.1264],
    [12928,1532806756,57.2119,-111.8438,1619.3,1293.2,318.3,3.7,-0.1,18.12,33.66,1.8945,383.369],
    [12929,1532806757,57.2124,-111.8446,1619.6,1294.7,318.6,3.5,-0.4,17.72,33.8,1.8934,384.1414],
    [12930,1532806758,57.2129,-111.8454,1619.9,1294.9,318.9,3.2,-0.6,18.79,32.54,1.8931,382.6799],
    [12931,1532806759,57.2135,-111.8462,1620.3,1295.2,318.7,3.4,-0.6,17.78,32.78,1.8935,384.0359],
    [12932,1532806760,57.214,-111.8469,1620.6,1299.0,318.7,3.3,-0.4,18.16,32.06,1.8946,383.6455],
    [12933,1532806761,57.2145,-111.8477,1620.3,1299.3,318.2,3.5,0.4,17.84,30.35,1.895,383.7941],
    [12934,1532806762,57.215,-111.8485,1619.7,1295.1,317.2,3.9,1.3,17.49,30.13,1.8958,383.84],
    [12935,1532806763,57.2155,-111.8493,1619.4,1292.3,318.0,2.7,1.0,18.29,30.18,1.8969,384.7074],
    [12936,1532806764,57.216,-111.8501,1619.9,1292.9,318.9,2.0,0.6,18.09,30.4,1.8959,384.7074],
    [12937,1532806765,57.2165,-111.8509,1620.7,1292.7,319.0,2.2,0.9,18.12,31.4,1.8972,385.3705],
    [12938,1532806766,57.2171,-111.8517,1621.2,1293.2,319.1,2.1,1.0,17.34,32.27,1.897,382.9282],
    [12939,1532806767,57.2176,-111.8525,1621.1,1293.1,319.2,2.0,1.0,18.86,33.15,1.8965,383.3909],
    [12940,1532806768,57.2181,-111.8533,1620.7,1291.7,319.0,2.0,1.1,17.97,34.57,1.8956,383.3909],
    [12941,1532806769,57.2186,-111.8541,1620.5,1291.5,318.9,1.9,1.2,18.26,35.06,1.8943,383.1929],
    [12942,1532806770,57.2192,-111.8548,1620.4,1291.4,318.6,2.1,1.3,17.64,35.72,1.8939,382.5029],
    [12943,1532806771,57.2197,-111.8556,1620.3,1291.0,318.6,1.9,1.2,18.82,35.29,1.8934,383.0461],
    [12944,1532806772,57.2202,-111.8564,1620.2,1290.2,318.5,1.9,1.2,18.59,35.02,1.8942,382.4666],
    [12945,1532806773,57.2207,-111.8573,1620.1,1290.1,318.3,1.9,1.6,18.09,35.29,1.8939,382.5592],
    [12946,1532806774,57.2213,-111.858,1620.1,1290.1,318.3,1.8,1.8,18.59,34.58,1.8935,381.8032],
    [12947,1532806775,57.2218,-111.8588,1620.2,1290.2,318.3,1.6,2.0,18.47,34.83,1.8951,383.2728],
    [12948,1532806776,57.2223,-111.8597,1620.4,1289.4,318.3,1.6,2.0,18.19,35.76,1.8932,384.0856],
    [12949,1532806777,57.2228,-111.8605,1620.3,1289.3,318.4,1.6,1.9,17.87,34.99,1.8918,384.0856],
    [12950,1532806778,57.2234,-111.8613,1620.0,1289.0,318.7,1.4,1.7,18.13,34.68,1.8933,383.9805],
    [12951,1532806779,57.2239,-111.8621,1619.7,1290.7,318.6,1.4,1.9,17.65,34.16,1.9103,382.7871],
    [12952,1532806780,57.2244,-111.8629,1619.8,1293.7,318.4,1.3,2.2,18.44,33.3,1.9066,383.2789],
    [12953,1532806781,57.2249,-111.8637,1619.7,1297.1,318.6,1.3,2.2,18.48,33.5,1.8951,384.1498],
    [12954,1532806782,57.2255,-111.8645,1619.8,1301.8,318.5,1.4,2.1,18.17,34.26,1.8932,382.9863],
    [12955,1532806783,57.226,-111.8653,1619.6,1307.3,318.8,0.9,2.1,18.29,34.13,1.8922,383.1889],
    [12956,1532806784,57.2265,-111.8661,1619.5,1309.6,318.9,0.8,2.0,17.41,33.73,1.8979,382.8749],
    [12957,1532806785,57.227,-111.8669,1619.3,1311.3,319.0,0.6,2.0,18.58,32.45,1.9054,382.8749],
    [12958,1532806786,57.2276,-111.8677,1618.9,1312.6,319.0,0.3,2.3,19.15,31.65,1.9283,384.2992],
    [12959,1532806787,57.2281,-111.8685,1618.8,1313.9,319.1,0.2,2.3,18.12,34.26,1.9149,384.1621],
    [12960,1532806788,57.2286,-111.8693,1618.9,1316.6,319.0,0.4,2.0,18.57,36.13,1.9037,383.8917],
    [12961,1532806789,57.2291,-111.8701,1619.1,1318.1,319.0,0.6,1.6,17.8,37.73,1.9006,384.505],
    [12962,1532806790,57.2297,-111.8709,1619.6,1318.9,318.7,0.8,1.7,18.09,38.93,1.8971,382.6565],
    [12963,1532806791,57.2302,-111.8718,1620.0,1318.4,318.6,0.9,1.6,18.17,36.66,1.8936,382.4134],
    [12964,1532806792,57.2307,-111.8725,1620.1,1313.4,319.0,0.7,1.2,18.35,35.4,1.8931,383.6968],
    [12965,1532806793,57.2312,-111.8734,1620.0,1304.7,318.9,0.8,1.3,18.27,34.99,1.8937,382.9689],
    [12966,1532806794,57.2318,-111.8742,1619.6,1293.5,318.8,0.8,1.5,18.09,33.55,1.8939,382.7556],
    [12967,1532806795,57.2323,-111.875,1619.1,1286.6,318.6,0.9,1.8,18.6,32.42,1.8951,382.5391],
    [12968,1532806796,57.2328,-111.8758,1618.7,1283.7,318.5,1.0,2.0,17.88,32.44,1.8972,382.2874],
    [12969,1532806797,57.2333,-111.8766,1618.4,1283.4,318.4,1.1,2.1,17.78,32.44,1.8967,384.6164],
    [12970,1532806798,57.2339,-111.8774,1618.1,1283.1,318.4,1.1,2.2,18.66,32.86,1.8963,382.2288],
    [12971,1532806799,57.2344,-111.8782,1617.9,1282.9,318.5,1.2,2.0,18.46,33.91,1.8949,383.3901],
    [12972,1532806800,57.2349,-111.879,1617.7,1282.7,318.6,1.4,1.9,18.32,34.49,1.895,383.5187],
    [12973,1532806801,57.2354,-111.8798,1617.5,1282.2,318.8,1.3,1.7,18.15,35.29,1.8956,383.4023],
    [12974,1532806802,57.236,-111.8806,1617.6,1281.6,318.8,1.4,1.6,17.87,36.22,1.8956,382.8148],
    [12975,1532806803,57.2365,-111.8814,1618.0,1282.3,318.7,1.6,1.5,18.29,36.54,1.894,382.8833],
    [12976,1532806804,57.237,-111.8822,1618.5,1282.5,319.0,1.5,1.2,18.0,37.14,1.894,382.5169],
    [12977,1532806805,57.2375,-111.883,1619.0,1283.0,318.8,1.7,1.4,18.09,37.66,1.8939,382.0255],
    [12978,1532806806,57.238,-111.8838,1618.9,1282.9,318.9,1.6,1.3,18.18,38.31,1.8948,380.7895],
    [12979,1532806807,57.2386,-111.8846,1618.5,1282.5,318.9,1.6,1.3,18.7,37.36,1.8949,380.8448],
    [12980,1532806808,57.2391,-111.8854,1618.0,1282.0,318.8,1.9,1.3,17.8,38.37,1.894,383.7425],
    [12981,1532806809,57.2396,-111.8862,1617.7,1281.7,318.6,2.2,1.6,18.59,37.32,1.8944,381.0935],
    [12982,1532806810,57.2401,-111.8869,1618.0,1282.0,318.3,2.6,1.7,18.21,37.6,1.8933,381.0935],
    [12983,1532806811,57.2406,-111.8877,1618.6,1282.6,319.3,1.6,0.8,18.2,37.9,1.8938,382.8068],
    [12984,1532806812,57.2412,-111.8885,1619.1,1283.1,319.3,1.7,0.9,18.29,37.65,1.8938,381.2218],
    [12985,1532806813,57.2417,-111.8893,1619.6,1283.0,319.3,1.5,0.9,18.26,37.59,1.8951,383.2619],
    [12986,1532806814,57.2422,-111.8901,1619.8,1282.8,319.6,1.2,0.7,18.85,37.33,1.8943,383.1906],
    [12987,1532806815,57.2427,-111.8909,1619.7,1282.7,319.3,1.5,1.1,17.9,37.89,1.894,380.6058],
    [12988,1532806816,57.2432,-111.8917,1619.3,1282.3,318.6,2.3,1.8,18.11,38.49,1.8933,382.8302],
    [12989,1532806817,57.2437,-111.8924,1619.0,1281.0,318.5,2.1,1.8,18.79,37.49,1.894,382.1222],
    [12990,1532806818,57.2443,-111.8932,1618.9,1280.9,319.1,1.5,1.4,18.96,37.52,1.8942,383.4182],
    [12991,1532806819,57.2448,-111.894,1619.0,1280.0,319.2,1.5,1.4,18.17,38.03,1.8944,382.1243],
    [12992,1532806820,57.2453,-111.8948,1619.2,1279.2,319.3,1.2,1.4,18.17,38.08,1.8939,383.6756],
    [12993,1532806821,57.2458,-111.8956,1619.5,1278.7,319.6,0.8,1.2,18.07,38.24,1.895,383.5021],
    [12994,1532806822,57.2464,-111.8964,1619.8,1278.8,319.7,0.8,1.2,18.0,38.27,1.8952,383.0736],
    [12995,1532806823,57.2469,-111.8972,1620.1,1279.0,319.6,0.8,1.3,18.76,38.15,1.8945,381.6275],
    [12996,1532806824,57.2474,-111.8979,1620.3,1278.2,319.6,0.8,1.4,17.88,39.18,1.8944,381.3269],
    [12997,1532806825,57.2479,-111.8987,1620.3,1278.2,319.4,0.9,1.4,18.07,38.77,1.8957,382.0588],
    [12998,1532806826,57.2484,-111.8995,1620.0,1277.0,319.4,0.9,1.6,18.7,38.53,1.8944,382.0588],
    [12999,1532806827,57.249,-111.9003,1619.4,1276.1,319.1,1.1,1.9,18.11,39.65,1.8944,381.6242],
    [13000,1532806828,57.2495,-111.9011,1618.7,1274.8,319.2,1.0,2.0,18.0,39.73,1.8939,382.229],
    [13001,1532806829,57.25,-111.9019,1618.1,1274.3,319.0,1.1,2.2,18.71,38.49,1.8941,382.7446],
    [13002,1532806830,57.2505,-111.9027,1617.8,1273.9,319.0,1.0,2.3,18.09,38.86,1.8947,381.731],
    [13003,1532806831,57.2511,-111.9035,1617.5,1273.5,319.2,0.9,2.3,18.31,39.4,1.8935,381.9802],
    [13004,1532806832,57.2516,-111.9043,1617.2,1274.2,319.1,1.0,2.5,18.2,38.64,1.8909,382.5258],
    [13005,1532806833,57.2521,-111.9051,1617.2,1274.3,319.2,0.8,2.5,18.15,38.58,1.8931,382.5258],
    [13006,1532806834,57.2527,-111.9059,1617.3,1274.9,319.3,0.7,2.6,18.18,38.71,1.8927,382.4998],
    [13007,1532806835,57.2532,-111.9067,1617.5,1275.4,319.3,0.6,2.7,17.74,38.46,1.8919,383.0196],
    [13008,1532806836,57.2537,-111.9074,1617.8,1275.8,319.5,0.5,2.7,18.54,37.1,1.893,380.6357],
    [13009,1532806837,57.2542,-111.9082,1618.0,1276.0,319.6,0.5,2.7,18.11,37.69,1.8933,382.4346],
    [13010,1532806838,57.2548,-111.909,1618.1,1276.2,319.7,0.6,2.5,18.04,37.64,1.8936,382.7871],
    [13011,1532806839,57.2553,-111.9098,1618.2,1276.3,319.7,0.6,2.5,18.23,38.1,1.894,382.0908],
    [13012,1532806840,57.2558,-111.9106,1618.3,1276.4,319.6,0.6,2.7,17.92,37.61,1.8924,383.2185],
    [13013,1532806841,57.2564,-111.9114,1618.4,1276.5,319.6,0.6,2.6,18.61,37.71,1.8929,382.917],
    [13014,1532806842,57.2569,-111.9122,1618.6,1277.6,319.6,0.6,2.6,17.74,37.64,1.8932,382.2954],
    [13015,1532806843,57.2574,-111.9129,1618.7,1278.7,319.6,0.6,2.6,17.99,37.47,1.8922,383.1586],
    [13016,1532806844,57.2579,-111.9137,1618.8,1278.8,319.7,0.7,2.4,18.22,37.67,1.8917,382.9958],
    [13017,1532806845,57.2585,-111.9145,1618.8,1278.8,319.6,0.9,2.3,18.51,37.18,1.8936,383.2322],
    [13018,1532806846,57.259,-111.9153,1618.7,1278.7,319.6,0.9,2.3,18.98,36.35,1.8927,383.1829],
    [13019,1532806847,57.2595,-111.9161,1618.7,1277.8,319.6,0.9,2.2,18.37,36.73,1.8935,381.6031],
    [13020,1532806848,57.2601,-111.9168,1618.7,1275.7,319.5,1.1,2.2,18.42,36.88,1.8942,381.7316],
    [13021,1532806849,57.2606,-111.9176,1618.8,1274.0,319.4,1.1,2.4,18.49,37.02,1.8942,383.1061],
    [13022,1532806850,57.2611,-111.9184,1618.8,1273.1,319.5,0.9,2.4,17.45,37.24,1.8931,383.0398],
    [13023,1532806851,57.2616,-111.9192,1618.7,1272.7,319.6,1.0,2.4,17.82,37.55,1.8946,382.0544],
    [13024,1532806852,57.2622,-111.92,1618.5,1272.2,319.7,0.9,2.4,18.84,36.18,1.8937,383.5867],
    [13025,1532806853,57.2627,-111.9207,1618.4,1271.4,319.8,0.8,2.4,18.55,37.08,1.8941,382.4914],
    [13026,1532806854,57.2632,-111.9215,1618.1,1270.1,319.8,0.8,2.5,18.06,37.18,1.8935,381.9053],
    [13027,1532806855,57.2638,-111.9223,1617.7,1268.7,319.7,0.9,2.6,17.8,37.1,1.8935,382.0075],
    [13028,1532806856,57.2643,-111.9231,1617.3,1268.3,319.6,0.9,2.7,17.75,37.58,1.8943,383.6442],
    [13029,1532806857,57.2648,-111.9239,1616.9,1267.9,319.6,0.8,2.7,18.9,36.66,1.8948,381.9368],
    [13030,1532806858,57.2654,-111.9246,1616.7,1268.7,319.5,0.9,2.7,18.43,37.24,1.8934,382.3236],
    [13031,1532806859,57.2659,-111.9254,1616.6,1269.3,319.6,0.9,2.5,18.01,37.33,1.8935,382.7222],
    [13032,1532806860,57.2664,-111.9262,1616.8,1270.9,319.7,0.8,2.5,18.27,37.44,1.8938,382.4999],
    [13033,1532806861,57.2669,-111.927,1617.0,1271.0,319.6,0.9,2.5,18.21,37.81,1.8933,382.8308],
    [13034,1532806862,57.2674,-111.9277,1617.3,1271.1,319.7,0.9,2.4,17.67,37.74,1.895,382.9548],
    [13035,1532806863,57.268,-111.9285,1617.6,1270.7,319.7,0.9,2.3,17.93,37.74,1.8943,382.9548],
    [13036,1532806864,57.2685,-111.9293,1617.9,1270.0,319.8,0.9,2.1,18.36,37.54,1.8939,382.6263],
    [13037,1532806865,57.269,-111.9301,1618.1,1269.1,319.8,1.1,2.0,17.76,37.72,1.8937,382.6263],
    [13038,1532806866,57.2695,-111.9308,1618.2,1268.2,319.8,1.1,2.0,18.3,37.83,1.8933,381.3408],
    [13039,1532806867,57.2701,-111.9316,1618.3,1268.3,319.9,1.1,1.8,18.34,37.93,1.8936,381.9921],
    [13040,1532806868,57.2706,-111.9324,1618.3,1268.1,320.0,0.9,1.9,18.16,38.0,1.8929,383.4947],
    [13041,1532806869,57.2711,-111.9331,1618.4,1267.4,320.0,0.7,2.0,18.24,37.86,1.8928,383.3202],
    [13042,1532806870,57.2716,-111.9339,1618.4,1266.3,320.0,0.8,2.0,18.23,37.97,1.8944,381.5463],
    [13043,1532806871,57.2722,-111.9347,1618.4,1266.4,319.9,0.9,2.0,18.09,37.59,1.8936,382.3206],
    [13044,1532806872,57.2727,-111.9355,1618.2,1265.2,320.0,0.8,1.9,18.37,37.34,1.8937,383.7267],
    [13045,1532806873,57.2732,-111.9362,1618.1,1264.1,319.9,0.8,1.9,18.4,37.32,1.8944,383.1175],
    [13046,1532806874,57.2737,-111.937,1617.9,1263.9,319.7,0.8,2.0,19.05,36.86,1.893,382.301],
    [13047,1532806875,57.2742,-111.9378,1617.6,1264.6,319.6,0.8,2.1,18.15,37.21,1.894,381.884],
    [13048,1532806876,57.2748,-111.9385,1617.4,1265.5,319.6,0.8,2.0,18.23,38.03,1.8933,381.612],
    [13049,1532806877,57.2753,-111.9393,1617.3,1265.3,319.7,0.8,2.1,17.79,37.52,1.8936,382.5412],
    [13050,1532806878,57.2758,-111.9401,1617.3,1264.3,319.7,0.8,2.1,18.2,37.45,1.8951,383.1996],
    [13051,1532806879,57.2763,-111.9409,1617.2,1262.5,319.9,0.8,1.9,18.17,37.84,1.8958,383.1794],
    [13052,1532806880,57.2769,-111.9417,1617.3,1262.3,319.8,0.9,2.1,18.82,37.11,1.8936,382.1891],
    [13053,1532806881,57.2774,-111.9424,1617.3,1261.3,319.7,1.0,2.1,17.67,38.14,1.8936,382.8224],
    [13054,1532806882,57.2779,-111.9432,1617.2,1260.2,319.7,1.2,1.9,17.89,37.92,1.8937,382.8133],
    [13055,1532806883,57.2784,-111.944,1617.3,1259.3,319.5,1.5,1.8,18.17,38.26,1.8932,382.2602],
    [13056,1532806884,57.2789,-111.9447,1617.5,1259.5,319.5,1.5,1.8,18.73,36.9,1.8926,382.4093],
    [13057,1532806885,57.2795,-111.9455,1617.6,1259.6,319.5,1.3,2.0,18.2,37.02,1.8942,379.8954],
    [13058,1532806886,57.28,-111.9463,1617.7,1259.7,319.5,1.2,2.3,18.98,36.05,1.8948,381.9558],
    [13059,1532806887,57.2805,-111.9471,1617.8,1260.8,319.8,0.9,2.2,18.89,36.34,1.8956,382.8156],
    [13060,1532806888,57.281,-111.9478,1617.9,1261.6,319.7,1.0,2.2,18.36,36.55,1.8933,382.1979],
    [13061,1532806889,57.2815,-111.9486,1618.0,1261.6,319.7,1.2,2.2,19.01,36.24,1.894,381.6747],
    [13062,1532806890,57.2821,-111.9494,1618.1,1261.1,319.7,1.2,2.2,18.94,36.36,1.8936,383.41],
    [13063,1532806891,57.2826,-111.9501,1618.1,1261.2,319.6,1.3,2.2,18.45,36.92,1.8933,379.1609],
    [13064,1532806892,57.2831,-111.9509,1618.1,1257.9,319.6,1.3,2.3,18.51,36.99,1.893,381.629],
    [13065,1532806893,57.2836,-111.9516,1618.0,1254.9,319.6,1.3,2.4,18.63,36.64,1.8941,383.9097],
    [13066,1532806894,57.2842,-111.9524,1618.0,1253.9,319.5,1.1,2.5,18.28,36.99,1.8926,383.4745],
    [13067,1532806895,57.2847,-111.9532,1617.9,1253.2,319.6,0.9,2.5,19.03,36.6,1.8939,383.4839],
    [13068,1532806896,57.2852,-111.9539,1617.8,1253.8,319.8,0.8,2.5,18.0,37.84,1.8934,383.3088],
    [13069,1532806897,57.2857,-111.9547,1617.7,1253.7,319.7,0.9,2.6,17.95,37.25,1.8941,383.0269],
    [13070,1532806898,57.2862,-111.9555,1617.7,1252.7,319.7,0.9,2.5,18.62,36.61,1.8938,382.1262],
    [13071,1532806899,57.2868,-111.9562,1617.8,1250.8,319.6,1.1,2.5,18.12,37.44,1.8927,381.846],
    [13072,1532806900,57.2873,-111.957,1617.9,1249.9,319.4,1.2,2.7,17.95,37.21,1.8932,382.887],
    [13073,1532806901,57.2878,-111.9578,1618.0,1250.0,319.2,1.3,2.7,18.83,36.87,1.8934,382.4095],
    [13074,1532806902,57.2883,-111.9585,1618.0,1250.9,319.5,1.1,2.5,18.11,37.18,1.8935,381.9392],
    [13075,1532806903,57.2888,-111.9593,1618.0,1253.7,319.8,1.0,2.3,18.49,36.82,1.894,383.1789],
    [13076,1532806904,57.2894,-111.9601,1618.0,1256.1,319.5,1.3,2.5,18.24,37.69,1.893,382.7649],
    [13077,1532806905,57.2899,-111.9608,1617.9,1255.8,319.7,1.2,2.2,18.25,37.66,1.8931,382.458],
    [13078,1532806906,57.2904,-111.9616,1617.8,1255.8,319.6,1.5,2.2,18.12,37.49,1.8936,381.6209],
    [13079,1532806907,57.2909,-111.9624,1617.7,1256.7,319.6,1.6,2.2,18.52,36.5,1.8951,381.6209],
    [13080,1532806908,57.2914,-111.9631,1617.6,1256.5,319.5,1.7,2.3,18.33,36.97,1.8951,382.0545],
    [13081,1532806909,57.292,-111.9639,1617.4,1254.4,319.5,1.5,2.4,18.39,36.99,1.8942,381.6272],
    [13082,1532806910,57.2925,-111.9646,1617.2,1250.8,319.6,1.3,2.4,18.04,36.8,1.8945,381.7991],
    [13083,1532806911,57.293,-111.9654,1617.0,1246.0,319.5,1.4,2.4,18.15,36.84,1.8933,382.6608],
    [13084,1532806912,57.2935,-111.9662,1617.0,1247.0,319.7,1.3,2.3,18.18,37.68,1.8935,382.6888],
    [13085,1532806913,57.2941,-111.967,1617.1,1250.2,319.8,1.2,2.2,18.46,36.94,1.8926,382.9564],
    [13086,1532806914,57.2946,-111.9677,1617.3,1251.3,320.2,0.9,2.0,18.35,37.06,1.8943,382.4608],
    [13087,1532806915,57.2951,-111.9685,1617.6,1249.9,320.1,1.0,2.1,19.01,36.52,1.895,382.1223],
    [13088,1532806916,57.2956,-111.9692,1618.0,1248.9,319.9,1.2,2.1,18.19,37.38,1.8953,382.6114],
    [13089,1532806917,57.2961,-111.97,1617.9,1247.2,319.8,1.4,2.2,18.06,37.17,1.8961,382.8867],
    [13090,1532806918,57.2967,-111.9708,1617.7,1246.9,319.9,1.7,2.5,18.07,37.21,1.8949,381.9951],
    [13091,1532806919,57.2972,-111.9716,1617.5,1244.1,321.1,1.6,2.3,18.36,37.2,1.8938,382.2885],
    [13092,1532806920,57.2978,-111.9723,1617.2,1241.9,322.8,1.5,2.4,18.54,37.44,1.8942,382.1704],
    [13093,1532806921,57.2983,-111.973,1617.0,1236.4,325.4,1.3,2.1,17.64,37.51,1.8932,382.209],
    [13094,1532806922,57.2989,-111.9736,1617.0,1232.0,328.5,1.1,1.9,18.19,37.72,1.8939,381.7595],
    [13095,1532806923,57.2995,-111.9742,1617.5,1230.5,331.9,1.1,1.6,18.83,37.38,1.8936,381.5818],
    [13096,1532806924,57.3001,-111.9747,1618.4,1230.7,335.2,1.1,1.4,17.9,37.65,1.894,383.1655],
    [13097,1532806925,57.3007,-111.9752,1619.1,1230.1,338.2,1.1,1.2,18.31,37.64,1.8938,383.4301],
    [13098,1532806926,57.3013,-111.9756,1619.3,1229.3,341.1,1.2,1.2,18.09,37.56,1.8928,382.1102],
    [13099,1532806927,57.302,-111.9759,1619.3,1229.3,343.9,1.2,1.2,18.67,36.91,1.8935,382.5582],
    [13100,1532806928,57.3026,-111.9762,1619.1,1229.1,346.7,1.1,1.2,18.75,37.19,1.8924,382.1415],
    [13101,1532806929,57.3033,-111.9764,1619.1,1229.1,349.2,1.0,1.2,18.68,36.72,1.8923,382.3343],
    [13102,1532806930,57.3039,-111.9766,1619.3,1228.3,351.3,1.1,1.2,18.3,37.77,1.8949,382.2648],
    [13103,1532806931,57.3046,-111.9768,1619.6,1228.6,352.7,1.3,1.3,18.27,37.92,1.8939,382.8873],
    [13104,1532806932,57.3052,-111.9769,1619.6,1228.6,354.1,1.1,1.3,18.74,36.85,1.8933,382.0054],
    [13105,1532806933,57.3059,-111.977,1619.4,1227.4,355.1,1.3,1.3,17.97,37.3,1.8935,382.1828],
    [13106,1532806934,57.3066,-111.9771,1619.3,1227.3,356.0,1.2,1.3,17.99,37.27,1.8944,382.2005],
    [13107,1532806935,57.3072,-111.9771,1619.2,1227.2,356.4,1.2,1.2,17.71,37.3,1.8936,381.7263],
    [13108,1532806936,57.3079,-111.9772,1619.2,1227.2,356.6,1.3,1.2,17.85,37.93,1.8947,382.0321],
    [13109,1532806937,57.3086,-111.9772,1619.2,1226.2,356.9,1.1,1.2,18.81,36.85,1.8948,380.6672],
    [13110,1532806938,57.3092,-111.9773,1619.2,1225.0,357.1,1.0,1.2,18.56,36.57,1.8939,382.8341],
    [13111,1532806939,57.3099,-111.9773,1619.2,1224.2,356.9,1.1,1.4,17.98,37.1,1.8936,382.0152],
    [13112,1532806940,57.3106,-111.9773,1619.3,1223.2,356.7,1.3,1.6,18.67,36.24,1.8933,382.5276],
    [13113,1532806941,57.3112,-111.9774,1618.9,1222.6,357.0,1.0,1.6,18.91,36.34,1.8935,381.6152],
    [13114,1532806942,57.3119,-111.9774,1618.5,1221.4,356.9,1.1,1.7,18.45,36.57,1.8951,382.0862],
    [13115,1532806943,57.3126,-111.9775,1618.4,1221.4,356.7,1.3,1.9,18.37,36.75,1.8939,382.0862],
    [13116,1532806944,57.3132,-111.9775,1618.4,1221.5,356.8,1.2,2.0,18.73,36.18,1.8932,382.1205],
    [13117,1532806945,57.3139,-111.9776,1618.2,1220.2,356.6,1.4,2.1,17.85,36.68,1.8926,382.0199],
    [13118,1532806946,57.3146,-111.9776,1618.1,1219.4,356.9,1.3,2.1,18.22,37.64,1.893,381.6388],
    [13119,1532806947,57.3152,-111.9777,1618.0,1218.5,356.9,1.4,2.1,18.17,36.79,1.893,382.0584],
    [13120,1532806948,57.3159,-111.9777,1618.0,1217.6,357.1,1.4,2.3,17.48,37.05,1.894,381.7728],
    [13121,1532806949,57.3166,-111.9777,1618.0,1217.1,357.3,1.4,2.3,18.64,36.19,1.8941,382.5516],
    [13122,1532806950,57.3173,-111.9778,1618.2,1215.8,357.3,1.5,2.2,18.78,35.92,1.8951,381.7877],
    [13123,1532806951,57.3179,-111.9778,1618.2,1215.2,357.4,1.4,2.2,17.79,36.65,1.8939,382.141],
    [13124,1532806952,57.3186,-111.9778,1618.0,1214.4,357.4,1.5,2.3,17.93,37.04,1.8937,381.9245],
    [13125,1532806953,57.3193,-111.9779,1617.8,1213.8,357.4,1.5,2.3,18.73,36.83,1.8927,382.6095],
    [13126,1532806954,57.3199,-111.9779,1617.6,1213.3,357.3,1.6,2.4,18.29,37.33,1.8947,382.8359],
    [13127,1532806955,57.3206,-111.9779,1617.3,1212.3,357.3,1.6,2.4,17.56,37.49,1.8946,382.6613],
    [13128,1532806956,57.3213,-111.978,1617.0,1212.0,357.3,1.6,2.4,18.33,37.26,1.8944,382.9731],
    [13129,1532806957,57.322,-111.978,1616.8,1211.8,357.3,1.7,2.5,18.21,37.79,1.8936,382.867],
    [13130,1532806958,57.3226,-111.978,1616.7,1210.0,357.5,1.7,2.5,18.74,37.15,1.8942,382.9404],
    [13131,1532806959,57.3233,-111.978,1616.7,1209.3,357.5,1.7,2.5,18.39,37.32,1.8948,382.206],
    [13132,1532806960,57.324,-111.9781,1616.7,1208.1,357.7,1.7,2.4,18.73,37.24,1.8931,382.342],
    [13133,1532806961,57.3246,-111.9781,1616.8,1207.7,357.7,1.8,2.4,17.77,37.55,1.8925,382.8185],
    [13134,1532806962,57.3253,-111.9781,1616.9,1208.6,357.8,1.8,2.4,18.77,37.21,1.8935,382.979],
    [13135,1532806963,57.326,-111.9781,1617.0,1209.0,357.8,1.9,2.4,18.09,37.63,1.8942,380.6865],
    [13136,1532806964,57.3266,-111.9781,1617.2,1209.3,357.8,1.8,2.4,18.44,37.89,1.8936,382.194],
    [13137,1532806965,57.3273,-111.9781,1617.4,1208.3,357.8,1.9,2.3,18.96,36.99,1.8939,381.3704],
    [13138,1532806966,57.328,-111.9782,1617.7,1208.7,357.8,1.8,2.2,18.53,37.36,1.8948,381.3704],
    [13139,1532806967,57.3287,-111.9782,1617.9,1207.9,358.0,1.5,2.2,18.15,37.91,1.8934,382.7501],
    [13140,1532806968,57.3293,-111.9782,1618.2,1208.2,358.0,1.6,2.3,18.72,37.43,1.8948,382.1435],
    [13141,1532806969,57.33,-111.9782,1618.4,1207.3,358.1,1.5,2.2,17.99,37.73,1.8959,382.1435],
    [13142,1532806970,57.3306,-111.9782,1618.3,1207.3,358.2,1.4,2.2,17.85,37.95,1.8947,382.1993],
    [13143,1532806971,57.3313,-111.9782,1618.2,1207.9,358.1,1.4,2.2,18.58,37.3,1.8941,381.7841],
    [13144,1532806972,57.332,-111.9783,1618.2,1209.2,358.2,1.2,2.1,18.6,37.4,1.8949,381.8728],
    [13145,1532806973,57.3326,-111.9783,1618.1,1208.1,358.3,1.2,2.0,18.18,37.97,1.8942,382.0277],
    [13146,1532806974,57.3333,-111.9783,1618.0,1206.7,358.1,1.4,2.0,18.27,38.11,1.8931,382.4065],
    [13147,1532806975,57.334,-111.9783,1618.0,1205.1,358.1,1.3,1.9,18.18,37.64,1.8945,381.1215],
    [13148,1532806976,57.3347,-111.9783,1617.9,1203.9,358.2,1.2,1.9,18.66,37.32,1.8927,383.5432],
    [13149,1532806977,57.3353,-111.9783,1617.7,1202.7,357.9,1.4,1.9,17.89,38.29,1.8931,382.1841],
    [13150,1532806978,57.336,-111.9784,1617.6,1202.6,357.8,1.6,1.9,18.71,37.48,1.8937,383.3104],
    [13151,1532806979,57.3367,-111.9784,1617.6,1202.6,357.8,1.5,1.8,17.55,37.66,1.8939,381.5559],
    [13152,1532806980,57.3373,-111.9784,1617.6,1202.6,357.9,1.5,1.8,18.15,37.37,1.8935,382.3323],
    [13153,1532806981,57.338,-111.9784,1617.5,1201.5,357.9,1.6,1.8,18.17,37.53,1.8938,382.3368],
    [13154,1532806982,57.3387,-111.9784,1617.4,1201.4,357.9,1.7,1.7,17.67,37.53,1.8942,381.4792],
    [13155,1532806983,57.3393,-111.9785,1617.3,1201.3,358.0,1.6,1.7,18.06,38.28,1.8943,381.8174],
    [13156,1532806984,57.34,-111.9785,1617.3,1201.3,358.0,1.7,1.7,18.02,37.6,1.894,382.6718],
    [13157,1532806985,57.3407,-111.9785,1617.2,1201.2,358.0,1.7,1.7,18.38,36.98,1.8941,382.6718],
    [13158,1532806986,57.3413,-111.9785,1617.1,1200.4,358.0,1.7,1.7,18.17,37.68,1.8959,382.7168],
    [13159,1532806987,57.342,-111.9785,1617.1,1200.1,358.0,1.7,1.7,18.3,38.05,1.894,383.5687],
    [13160,1532806988,57.3426,-111.9785,1617.0,1200.0,357.9,1.7,1.7,18.73,37.45,1.895,380.4534],
    [13161,1532806989,57.3433,-111.9785,1616.9,1199.9,357.9,1.7,1.6,18.6,37.14,1.8954,382.0912],
    [13162,1532806990,57.344,-111.9786,1616.9,1201.9,357.9,1.7,1.6,17.55,37.6,1.8946,382.0912],
    [13163,1532806991,57.3446,-111.9786,1616.8,1202.8,357.9,1.7,1.6,18.23,37.73,1.8959,381.6634],
    [13164,1532806992,57.3453,-111.9786,1616.8,1201.8,357.9,1.7,1.6,18.08,38.0,1.8928,382.0636],
    [13165,1532806993,57.346,-111.9786,1616.9,1201.2,357.9,1.7,1.6,18.7,37.13,1.8935,381.1566],
    [13166,1532806994,57.3466,-111.9786,1617.0,1201.0,357.9,1.7,1.6,18.65,37.11,1.8955,381.1566],
    [13167,1532806995,57.3473,-111.9786,1617.2,1200.2,357.9,1.6,1.6,18.43,36.93,1.8943,382.7961],
    [13168,1532806996,57.348,-111.9787,1617.3,1200.3,358.0,1.6,1.6,18.64,37.37,1.894,382.5267],
    [13169,1532806997,57.3486,-111.9787,1617.5,1200.5,358.0,1.6,1.6,18.1,37.64,1.8939,382.9957],
    [13170,1532806998,57.3493,-111.9787,1617.7,1200.8,358.0,1.7,1.5,18.31,37.48,1.8922,382.6566],
    [13171,1532806999,57.3499,-111.9787,1617.9,1199.9,357.9,1.7,1.4,18.78,37.08,1.8928,382.106],
    [13172,1532807000,57.3506,-111.9787,1618.0,1200.0,357.9,1.8,1.4,18.6,36.93,1.8931,382.1203],
    [13173,1532807001,57.3513,-111.9787,1618.0,1200.0,358.0,1.7,1.4,18.04,37.59,1.8937,381.6767],
    [13174,1532807002,57.3519,-111.9788,1618.1,1201.1,357.9,1.7,1.4,18.15,37.98,1.8944,383.4115],
    [13175,1532807003,57.3526,-111.9788,1618.1,1201.1,357.8,1.8,1.4,18.41,37.66,1.8949,382.0426],
    [13176,1532807004,57.3533,-111.9788,1618.2,1202.2,357.8,1.9,1.3,18.19,37.93,1.8941,382.6364],
    [13177,1532807005,57.3539,-111.9788,1618.2,1202.2,357.8,1.8,1.4,18.39,38.2,1.8943,382.1667],
    [13178,1532807006,57.3546,-111.9788,1618.2,1201.2,357.8,1.8,1.4,18.7,37.46,1.892,382.3779],
    [13179,1532807007,57.3552,-111.9788,1618.2,1201.2,357.8,1.9,1.5,18.82,36.87,1.8934,382.5868],
    [13180,1532807008,57.3559,-111.9788,1618.2,1200.2,357.8,1.9,1.6,18.08,37.53,1.8931,383.3068],
    [13181,1532807009,57.3566,-111.9789,1618.1,1200.1,357.9,1.8,1.9,18.33,37.58,1.8937,381.525],
    [13182,1532807010,57.3572,-111.9789,1618.0,1200.0,357.9,1.8,2.5,17.96,37.86,1.8933,381.5168],
    [13183,1532807011,57.3579,-111.9789,1617.8,1199.8,357.9,1.8,3.2,18.15,37.58,1.8947,380.1357],
    [13184,1532807012,57.3586,-111.9789,1617.7,1198.7,357.9,1.8,3.9,18.46,37.48,1.8943,382.6242],
    [13185,1532807013,57.3592,-111.9789,1617.6,1199.2,357.9,1.7,4.5,17.39,37.67,1.8952,382.6242],
    [13186,1532807014,57.3599,-111.9789,1617.4,1199.2,357.9,1.8,5.2,17.62,37.69,1.8951,381.7696],
    [13187,1532807015,57.3606,-111.9789,1617.2,1199.2,357.8,1.8,6.1,17.54,37.88,1.8953,382.0636],
    [13188,1532807016,57.3612,-111.979,1617.1,1199.1,357.8,1.7,7.0,18.09,38.19,1.8946,383.283],
    [13189,1532807017,57.3619,-111.979,1617.0,1198.1,357.7,1.7,7.7,17.88,37.93,1.8937,382.1509],
    [13190,1532807018,57.3626,-111.979,1617.0,1198.0,357.7,1.7,8.3,18.55,37.7,1.8941,382.034],
    [13191,1532807019,57.3632,-111.979,1617.0,1197.5,357.6,1.8,8.7,18.6,37.8,1.8931,381.8519],
    [13192,1532807020,57.3639,-111.979,1617.1,1197.1,357.6,1.8,9.0,17.87,38.56,1.8936,381.6559],
    [13193,1532807021,57.3646,-111.979,1617.2,1196.2,357.6,1.8,9.3,18.31,38.39,1.8937,381.6559],
    [13194,1532807022,57.3652,-111.979,1617.4,1195.6,357.7,1.7,9.6,18.61,37.74,1.8934,382.5658],
    [13195,1532807023,57.3659,-111.9791,1617.6,1194.8,357.8,1.7,9.9,18.13,38.77,1.8945,382.5658],
    [13196,1532807024,57.3665,-111.9791,1617.9,1194.6,357.9,1.7,10.1,18.18,37.8,1.8933,382.1955],
    [13197,1532807025,57.3672,-111.9791,1618.1,1194.1,357.9,1.7,10.4,17.75,38.15,1.8939,382.5966],
    [13198,1532807026,57.3679,-111.9791,1618.3,1194.0,358.0,1.7,10.5,18.59,37.8,1.8942,382.4762],
    [13199,1532807027,57.3685,-111.9791,1618.4,1193.3,358.0,1.7,10.7,18.0,39.15,1.8932,382.3378],
    [13200,1532807028,57.3692,-111.9791,1618.4,1193.3,358.0,1.6,11.0,18.0,38.79,1.894,381.3891],
    [13201,1532807029,57.3699,-111.9791,1618.4,1193.6,358.0,1.7,11.2,18.18,39.11,1.893,383.2315],
    [13202,1532807030,57.3705,-111.9791,1618.3,1193.3,358.1,1.6,11.3,17.85,38.68,1.8943,383.1725],
    [13203,1532807031,57.3712,-111.9791,1618.2,1192.1,358.1,1.5,11.6,17.98,38.52,1.8948,382.5496],
    [13204,1532807032,57.3718,-111.9791,1617.9,1191.2,358.0,1.6,11.7,18.08,38.82,1.8934,382.0592],
    [13205,1532807033,57.3725,-111.9792,1617.6,1189.9,358.0,1.6,11.8,18.21,38.4,1.8925,382.2441],
    [13206,1532807034,57.3732,-111.9792,1617.2,1189.2,358.0,1.4,11.7,18.44,38.24,1.8929,382.9977],
    [13207,1532807035,57.3739,-111.9792,1616.9,1188.9,357.8,1.1,11.5,17.85,39.26,1.8931,382.8579],
    [13208,1532807036,57.3745,-111.9792,1616.7,1190.7,356.6,1.1,11.1,18.31,38.46,1.8933,382.8579],
    [13209,1532807037,57.3752,-111.9793,1616.8,1191.6,354.9,1.0,10.8,17.87,38.35,1.8946,382.7081],
    [13210,1532807038,57.3758,-111.9794,1617.1,1192.1,352.8,0.5,10.3,18.28,38.13,1.8953,382.2055],
    [13211,1532807039,57.3765,-111.9795,1618.1,1192.0,349.6,0.4,9.6,18.64,37.55,1.8928,382.2235],
    [13212,1532807040,57.3772,-111.9798,1620.2,1194.2,345.8,0.2,8.7,18.08,38.23,1.8943,382.3645],
    [13213,1532807041,57.3778,-111.98,1623.0,1195.3,342.1,-0.2,7.6,18.23,39.1,1.8933,382.566],
    [13214,1532807042,57.3784,-111.9804,1626.0,1198.0,338.0,-0.2,6.4,17.86,38.3,1.8928,382.4418],
    [13215,1532807043,57.379,-111.9809,1628.6,1199.7,333.5,0.0,5.4,17.84,38.32,1.8933,382.7989],
    [13216,1532807044,57.3795,-111.9814,1630.7,1200.7,328.9,0.3,4.4,18.45,38.16,1.8943,383.7031],
    [13217,1532807045,57.3801,-111.982,1632.6,1201.6,323.8,0.7,3.4,18.8,37.61,1.8946,381.9006],
    [13218,1532807046,57.3806,-111.9827,1634.4,1202.7,318.8,1.3,2.4,18.22,38.0,1.8942,380.6456],
    [13219,1532807047,57.381,-111.9834,1635.4,1202.7,313.7,2.2,1.7,18.16,38.75,1.8932,383.4132],
    [13220,1532807048,57.3814,-111.9842,1635.5,1202.3,308.5,2.8,1.2,18.1,37.91,1.8925,382.2684],
    [13221,1532807049,57.3818,-111.985,1634.7,1200.8,303.4,3.4,1.1,19.0,37.64,1.8924,382.9732],
    [13222,1532807050,57.3821,-111.9859,1633.1,1198.1,297.9,4.0,1.1,18.83,37.63,1.8935,382.4424],
    [13223,1532807051,57.3823,-111.9869,1631.3,1196.3,292.5,4.5,1.2,18.15,37.95,1.8935,381.6456],
    [13224,1532807052,57.3826,-111.9878,1629.3,1193.3,287.3,4.9,1.4,18.05,37.77,1.8933,382.7765],
    [13225,1532807053,57.3827,-111.9888,1627.3,1191.3,282.4,5.1,1.6,18.09,37.85,1.8945,382.2734],
    [13226,1532807054,57.3828,-111.9898,1625.3,1189.4,277.5,5.4,1.9,19.2,37.06,1.894,382.116],
    [13227,1532807055,57.3829,-111.9908,1623.5,1186.5,272.6,5.5,2.3,17.76,37.55,1.8935,383.2456],
    [13228,1532807056,57.3829,-111.9918,1621.9,1184.0,268.0,5.6,2.6,18.17,37.48,1.8934,384.1788],
    [13229,1532807057,57.3829,-111.9929,1620.5,1180.5,263.4,5.7,2.9,18.93,37.08,1.8942,381.0659],
    [13230,1532807058,57.3829,-111.9939,1619.2,1178.3,259.0,5.6,3.2,18.25,37.48,1.8941,382.7717],
    [13231,1532807059,57.3828,-111.9948,1618.0,1176.7,254.9,5.6,3.4,18.51,37.99,1.8935,383.1669],
    [13232,1532807060,57.3826,-111.9958,1616.7,1174.4,250.7,5.6,3.7,18.25,37.42,1.8935,382.9817],
    [13233,1532807061,57.3824,-111.9967,1615.4,1171.7,246.7,5.6,4.0,18.38,37.67,1.8937,382.0695],
    [13234,1532807062,57.3822,-111.9976,1614.0,1170.0,242.7,5.5,4.3,18.62,37.25,1.8953,382.7366],
    [13235,1532807063,57.382,-111.9985,1612.2,1168.2,238.9,5.3,4.4,18.11,37.55,1.8941,381.8517],
    [13236,1532807064,57.3817,-111.9993,1609.8,1164.6,235.0,4.8,4.5,18.22,38.13,1.8946,383.0393],
    [13237,1532807065,57.3814,-112.0001,1606.8,1161.6,231.1,4.6,4.5,17.82,37.37,1.8944,382.9156],
    [13238,1532807066,57.381,-112.0008,1603.4,1157.2,227.3,4.4,4.6,18.01,37.37,1.894,382.743],
    [13239,1532807067,57.3806,-112.0015,1599.7,1153.4,223.4,4.0,4.5,18.4,37.58,1.8944,382.4316],
    [13240,1532807068,57.3802,-112.0022,1595.7,1148.8,219.8,3.6,4.3,18.4,37.7,1.8957,382.2624],
    [13241,1532807069,57.3798,-112.0028,1591.5,1143.5,216.3,3.3,3.9,18.52,37.43,1.8963,383.0905],
    [13242,1532807070,57.3794,-112.0034,1587.2,1139.3,212.8,3.1,3.8,18.43,37.48,1.8981,382.3864],
    [13243,1532807071,57.3789,-112.0039,1582.4,1134.1,209.5,2.9,3.5,17.86,37.76,1.8976,381.8936],
    [13244,1532807072,57.3784,-112.0043,1577.4,1128.4,206.1,2.4,3.2,17.85,37.91,1.8965,382.9029],
    [13245,1532807073,57.3779,-112.0047,1572.4,1123.0,203.1,2.0,2.8,19.18,37.63,1.8971,382.2453],
    [13246,1532807074,57.3774,-112.0051,1567.5,1117.7,200.8,1.8,2.0,19.08,37.99,1.8967,381.4199],
    [13247,1532807075,57.3769,-112.0054,1562.9,1113.9,199.1,2.0,1.0,17.95,38.14,1.8961,381.9407],
    [13248,1532807076,57.3763,-112.0057,1558.3,1109.3,197.2,1.9,0.3,19.1,37.91,1.8964,381.9407],
    [13249,1532807077,57.3758,-112.006,1554.1,1105.2,195.0,1.5,-0.4,18.82,38.1,1.8962,381.4309],
    [13250,1532807078,57.3752,-112.0062,1550.2,1102.2,193.3,1.5,-1.0,18.81,38.45,1.8968,381.2929],
    [13251,1532807079,57.3747,-112.0064,1546.5,1099.6,191.5,1.4,-1.2,18.75,38.98,1.8994,381.5489],
    [13252,1532807080,57.3741,-112.0066,1543.0,1096.9,190.2,1.7,-1.5,19.01,37.99,1.8994,382.4338],
    [13253,1532807081,57.3735,-112.0067,1539.7,1094.8,188.7,2.0,-1.6,18.72,38.97,1.8985,382.5169],
    [13254,1532807082,57.373,-112.0068,1536.8,1092.1,186.8,1.8,-1.6,18.48,38.88,1.8976,381.2305],
    [13255,1532807083,57.3724,-112.0069,1534.0,1090.2,185.1,1.8,-1.7,18.01,38.47,1.8974,381.4815],
    [13256,1532807084,57.3718,-112.007,1531.5,1087.8,183.7,2.0,-1.6,18.59,39.0,1.8993,382.3446],
    [13257,1532807085,57.3712,-112.007,1529.1,1086.1,182.5,2.2,-1.2,18.54,38.4,1.9009,381.8218],
    [13258,1532807086,57.3707,-112.007,1526.9,1084.8,181.2,2.0,-0.8,18.35,38.73,1.9,381.3564],
    [13259,1532807087,57.3701,-112.007,1524.9,1083.8,180.1,1.9,-0.6,19.21,38.68,1.9003,382.4804],
    [13260,1532807088,57.3695,-112.0069,1523.0,1083.0,179.5,2.2,-0.4,19.09,39.36,1.9037,382.4804],
    [13261,1532807089,57.369,-112.0069,1521.2,1081.1,178.7,2.1,-0.3,19.21,38.5,1.9011,381.2583],
    [13262,1532807090,57.3684,-112.0068,1519.2,1079.7,178.0,2.0,-0.3,19.16,39.52,1.8964,381.062],
    [13263,1532807091,57.3678,-112.0067,1517.1,1078.0,177.5,2.0,-0.3,19.62,38.94,1.8932,382.3518],
    [13264,1532807092,57.3672,-112.0067,1515.0,1077.0,177.1,2.0,-0.3,19.17,39.13,1.8937,382.0188],
    [13265,1532807093,57.3667,-112.0066,1512.9,1074.8,176.9,2.1,-0.4,18.62,39.48,1.893,381.529],
    [13266,1532807094,57.3661,-112.0065,1510.8,1073.5,176.6,2.0,-0.5,18.59,38.24,1.8922,381.2628],
    [13267,1532807095,57.3655,-112.0064,1508.7,1071.7,176.3,1.8,-0.5,18.87,37.84,1.8925,381.1062],
    [13268,1532807096,57.365,-112.0063,1506.6,1069.6,176.6,2.2,-0.6,18.61,37.61,1.8928,381.4737],
    [13269,1532807097,57.3644,-112.0062,1504.2,1067.5,177.1,2.5,-0.6,19.03,37.62,1.894,381.3856],
    [13270,1532807098,57.3638,-112.0061,1501.7,1065.7,177.2,2.5,-0.6,18.46,36.92,1.8931,382.7491],
    [13271,1532807099,57.3633,-112.006,1499.2,1063.3,177.2,2.5,-0.5,18.85,36.96,1.8937,381.9527],
    [13272,1532807100,57.3627,-112.0059,1496.6,1061.6,177.3,2.6,-0.4,18.87,36.84,1.8938,382.6449],
    [13273,1532807101,57.3622,-112.0058,1493.9,1059.9,177.5,2.8,-0.3,18.78,36.91,1.8951,381.2946],
    [13274,1532807102,57.3616,-112.0057,1491.4,1058.1,177.6,2.9,-0.1,19.03,37.2,1.894,381.2946],
    [13275,1532807103,57.361,-112.0056,1489.3,1056.2,177.3,2.7,0.1,18.51,36.45,1.8937,382.1788],
    [13276,1532807104,57.3605,-112.0055,1487.5,1055.5,176.9,2.3,0.2,18.91,36.15,1.8939,381.7008],
    [13277,1532807105,57.3599,-112.0054,1486.3,1054.2,176.4,2.0,0.5,18.78,36.02,1.8943,381.6902],
    [13278,1532807106,57.3594,-112.0053,1485.8,1054.8,176.2,2.1,0.9,19.22,35.99,1.8932,381.7642],
    [13279,1532807107,57.3588,-112.0052,1485.9,1055.1,175.9,2.2,1.4,18.92,35.86,1.8939,382.4057],
    [13280,1532807108,57.3583,-112.0051,1486.0,1056.0,175.0,1.7,1.8,19.47,35.56,1.8936,380.999],
    [13281,1532807109,57.3577,-112.005,1485.8,1056.6,174.6,1.7,2.1,19.79,35.24,1.8947,380.999],
    [13282,1532807110,57.3572,-112.0049,1485.1,1056.1,174.5,2.0,2.3,19.45,35.75,1.895,381.6797],
    [13283,1532807111,57.3567,-112.0047,1483.9,1055.9,174.4,2.2,2.5,19.52,35.58,1.8947,381.9498],
    [13284,1532807112,57.3561,-112.0046,1482.1,1054.1,173.8,2.0,2.8,19.58,35.52,1.8952,381.9738],
    [13285,1532807113,57.3556,-112.0044,1479.7,1052.4,173.3,1.8,2.8,19.42,35.37,1.8947,382.1851],
    [13286,1532807114,57.355,-112.0043,1476.7,1049.7,173.0,1.8,2.7,18.98,35.74,1.8933,381.8473],
    [13287,1532807115,57.3545,-112.0041,1473.3,1046.2,172.8,1.9,2.5,18.63,35.69,1.8946,381.856],
    [13288,1532807116,57.354,-112.0039,1469.3,1043.2,172.8,2.2,2.1,19.37,35.95,1.894,382.4421],
    [13289,1532807117,57.3534,-112.0038,1465.2,1039.2,172.4,2.0,1.9,19.45,35.58,1.8936,382.8143],
    [13290,1532807118,57.3528,-112.0036,1461.7,1035.6,172.0,1.9,1.5,20.32,35.04,1.8938,381.5869],
    [13291,1532807119,57.3523,-112.0034,1458.7,1033.6,171.9,2.0,1.3,19.7,35.36,1.8948,381.9079],
    [13292,1532807120,57.3517,-112.0032,1456.4,1031.3,171.6,2.1,1.6,18.96,35.44,1.8949,381.6415],
    [13293,1532807121,57.3512,-112.003,1454.4,1029.4,171.3,1.8,1.7,19.55,35.81,1.896,381.5343],
    [13294,1532807122,57.3506,-112.0028,1453.0,1028.0,171.2,1.7,2.0,19.36,35.4,1.8943,382.4189],
    [13295,1532807123,57.3501,-112.0027,1452.1,1028.1,171.9,1.9,2.4,19.65,35.22,1.895,380.6359],
    [13296,1532807124,57.3495,-112.0025,1451.3,1027.4,172.7,2.0,2.9,20.02,35.22,1.8961,383.4234],
    [13297,1532807125,57.349,-112.0023,1450.2,1026.3,173.7,2.4,3.1,19.23,35.46,1.9003,382.3373],
    [13298,1532807126,57.3485,-112.0022,1448.8,1025.2,174.5,2.6,3.2,18.97,35.82,1.9044,381.5367],
    [13299,1532807127,57.3479,-112.002,1447.2,1023.2,174.6,2.4,3.4,19.45,36.81,1.9037,382.3889],
    [13300,1532807128,57.3474,-112.0019,1445.3,1020.7,174.6,2.4,3.7,20.44,36.02,1.9046,381.6028],
    [13301,1532807129,57.3468,-112.0018,1443.1,1018.0,174.5,2.3,3.9,19.9,37.06,1.9037,382.2457],
    [13302,1532807130,57.3463,-112.0016,1440.6,1015.6,174.2,2.2,3.8,19.67,38.3,1.9053,382.2457],
    [13303,1532807131,57.3458,-112.0015,1437.7,1012.7,173.8,2.2,3.5,19.25,37.95,1.9063,382.5892],
    [13304,1532807132,57.3452,-112.0013,1434.8,1009.8,173.3,2.4,3.3,20.58,37.95,1.9073,382.0896],
    [13305,1532807133,57.3447,-112.0011,1431.9,1006.9,172.6,2.6,3.3,19.49,38.54,1.9098,383.4412],
    [13306,1532807134,57.3442,-112.0009,1429.1,1005.2,170.8,2.5,3.3,19.23,38.98,1.9114,381.6148],
    [13307,1532807135,57.3436,-112.0007,1426.2,1002.2,168.2,2.2,3.2,19.79,39.48,1.909,383.5201],
    [13308,1532807136,57.3431,-112.0004,1423.0,1000.2,165.3,1.9,2.9,19.7,40.56,1.9066,382.9388],
    [13309,1532807137,57.3426,-112.0001,1419.8,996.9,162.1,1.7,2.8,19.27,40.4,1.9073,382.9388],
    [13310,1532807138,57.3421,-111.9997,1416.7,993.9,159.3,1.7,2.8,19.41,40.52,1.9101,380.4502],
    [13311,1532807139,57.3416,-111.9993,1413.8,990.9,156.4,1.7,2.7,19.58,40.89,1.9108,382.2173],
    [13312,1532807140,57.3411,-111.9988,1411.1,988.2,153.2,1.5,2.7,19.77,40.53,1.9086,381.5894],
    [13313,1532807141,57.3406,-111.9983,1408.6,986.0,150.0,1.4,2.8,19.21,40.76,1.9098,382.9172],
    [13314,1532807142,57.3401,-111.9977,1405.8,983.8,146.7,1.3,2.6,19.68,41.04,1.9081,381.3667],
    [13315,1532807143,57.3397,-111.9971,1403.0,981.9,143.6,1.2,2.7,19.19,40.94,1.9061,381.7987],
    [13316,1532807144,57.3393,-111.9964,1400.2,979.5,140.4,1.2,2.7,19.78,41.12,1.9047,381.8372],
    [13317,1532807145,57.3389,-111.9957,1397.5,977.5,137.4,1.2,2.6,19.18,40.61,1.9034,381.4036],
    [13318,1532807146,57.3385,-111.9949,1394.9,976.0,134.4,1.2,2.5,19.26,40.24,1.9091,381.5503],
    [13319,1532807147,57.3381,-111.9942,1392.3,973.3,131.3,1.2,2.3,19.6,40.65,1.9151,381.5718],
    [13320,1532807148,57.3378,-111.9933,1389.6,971.6,128.1,1.1,2.2,19.86,40.33,1.9134,382.2471],
    [13321,1532807149,57.3374,-111.9924,1386.9,968.9,124.9,1.0,2.2,19.89,40.4,1.9137,381.5395],
    [13322,1532807150,57.3371,-111.9915,1384.0,967.0,121.5,0.8,1.9,19.93,41.8,1.9141,382.2727],
    [13323,1532807151,57.3369,-111.9906,1381.3,964.3,118.2,0.7,1.8,20.23,40.84,1.9117,382.2727],
    [13324,1532807152,57.3366,-111.9897,1378.9,961.9,114.9,0.6,1.7,20.1,41.3,1.9132,381.5164],
    [13325,1532807153,57.3364,-111.9887,1376.6,959.6,111.8,0.7,1.8,20.58,41.39,1.9129,381.4154],
    [13326,1532807154,57.3362,-111.9876,1374.3,958.3,108.7,0.6,1.6,19.96,42.04,1.9086,381.9017],
    [13327,1532807155,57.3361,-111.9866,1371.9,956.3,105.5,0.5,1.3,20.45,41.9,1.9074,380.6525],
    [13328,1532807156,57.3359,-111.9856,1369.3,954.2,102.6,0.5,1.4,20.65,41.02,1.9056,380.5403],
    [13329,1532807157,57.3358,-111.9845,1366.4,952.4,99.3,0.5,1.0,19.95,41.15,1.9076,381.3673],
    [13330,1532807158,57.3358,-111.9835,1363.6,948.6,95.9,0.5,0.9,20.08,40.95,1.9042,381.4117],
    [13331,1532807159,57.3357,-111.9824,1360.7,945.8,92.8,0.5,1.0,19.93,40.74,1.9062,381.0781],
    [13332,1532807160,57.3357,-111.9813,1358.0,942.7,89.8,0.6,1.0,20.36,39.51,1.9016,381.3949],
    [13333,1532807161,57.3358,-111.9802,1355.3,940.3,86.7,0.6,1.0,19.89,40.41,1.9037,381.3872],
    [13334,1532807162,57.3358,-111.9792,1352.6,937.6,83.6,0.6,0.9,19.76,39.46,1.9069,381.5592],
    [13335,1532807163,57.3359,-111.9781,1350.0,935.0,80.4,0.5,1.0,20.17,39.22,1.9086,380.7039],
    [13336,1532807164,57.336,-111.977,1347.3,933.3,77.2,0.6,0.8,19.95,39.5,1.9082,381.1563],
    [13337,1532807165,57.3362,-111.976,1344.5,930.5,73.9,0.7,0.6,20.21,39.54,1.9076,381.9021],
    [13338,1532807166,57.3364,-111.975,1341.5,927.5,71.1,0.7,1.0,19.96,39.27,1.9061,381.7463],
    [13339,1532807167,57.3366,-111.9739,1338.5,924.5,68.0,0.8,1.0,20.23,39.25,1.907,381.7463],
    [13340,1532807168,57.3368,-111.9729,1335.6,922.6,64.7,1.1,0.8,20.2,39.26,1.9046,380.0377],
    [13341,1532807169,57.3371,-111.972,1332.9,919.9,61.2,1.4,0.5,20.08,39.1,1.9004,381.8157],
    [13342,1532807170,57.3374,-111.971,1330.1,917.1,57.9,1.7,0.7,21.19,38.24,1.8964,381.7819],
    [13343,1532807171,57.3377,-111.9701,1327.3,914.3,54.9,1.8,1.1,19.83,38.28,1.8968,380.3886],
    [13344,1532807172,57.3381,-111.9692,1324.6,911.6,51.7,1.7,0.9,20.61,37.62,1.8959,380.3886],
    [13345,1532807173,57.3384,-111.9684,1322.0,909.0,48.5,1.8,0.8,20.13,37.14,1.8979,381.7945],
    [13346,1532807174,57.3388,-111.9676,1319.4,906.4,45.3,1.9,0.8,20.45,36.85,1.9021,384.5781],
    [13347,1532807175,57.3393,-111.9668,1316.8,903.8,42.2,1.8,0.7,20.46,36.76,1.9087,381.5464],
    [13348,1532807176,57.3397,-111.9661,1314.1,900.1,39.1,1.7,0.7,20.58,36.35,1.9155,382.348],
    [13349,1532807177,57.3402,-111.9654,1311.5,897.5,36.3,1.4,0.7,20.01,37.38,1.9354,381.7783],
    [13350,1532807178,57.3406,-111.9648,1308.7,894.7,33.2,1.6,0.8,19.9,38.73,1.9368,382.5003],
    [13351,1532807179,57.3411,-111.9642,1305.7,890.7,29.9,2.0,1.3,20.53,41.24,1.9329,382.9188],
    [13352,1532807180,57.3417,-111.9637,1302.6,887.6,26.9,1.8,1.2,20.93,43.36,1.9194,382.3543],
    [13353,1532807181,57.3422,-111.9632,1299.5,884.5,23.4,2.1,1.1,20.37,45.19,1.9145,381.6861],
    [13354,1532807182,57.3427,-111.9628,1296.6,882.7,19.8,2.3,0.8,21.02,45.29,1.917,381.3378],
    [13355,1532807183,57.3433,-111.9624,1293.9,880.2,16.4,2.3,0.5,20.38,44.73,1.9179,379.7525],
    [13356,1532807184,57.3439,-111.9621,1291.3,879.3,12.9,2.4,0.3,20.59,43.78,1.9194,379.6747],
    [13357,1532807185,57.3444,-111.9619,1288.9,879.5,10.1,2.2,0.4,19.89,43.75,1.927,380.4382],
    [13358,1532807186,57.345,-111.9617,1286.4,879.8,7.2,2.1,0.6,20.28,44.17,1.9277,381.0669],
    [13359,1532807187,57.3456,-111.9615,1283.7,877.1,3.6,2.4,0.7,20.27,44.86,1.925,381.0669],
    [13360,1532807188,57.3462,-111.9615,1280.9,873.7,360.3,2.5,0.7,21.14,44.88,1.9216,381.5929],
    [13361,1532807189,57.3468,-111.9614,1278.3,869.2,357.3,2.7,0.6,21.32,44.99,1.9114,379.6024],
    [13362,1532807190,57.3474,-111.9615,1275.8,865.5,354.6,2.9,0.6,20.8,45.15,1.9086,380.6555],
    [13363,1532807191,57.3479,-111.9615,1273.4,862.3,352.3,3.0,0.7,20.33,44.85,1.9049,380.6749],
    [13364,1532807192,57.3485,-111.9617,1271.1,859.2,350.7,2.9,0.8,20.87,43.49,1.908,380.4495],
    [13365,1532807193,57.3491,-111.9618,1268.7,856.7,349.4,3.0,0.7,20.16,42.47,1.9108,379.7205],
    [13366,1532807194,57.3497,-111.9619,1266.2,854.2,348.3,3.0,0.7,20.88,41.61,1.9164,380.1128],
    [13367,1532807195,57.3502,-111.9621,1263.7,852.7,347.6,3.0,0.9,20.76,41.76,1.9188,381.3585],
    [13368,1532807196,57.3508,-111.9623,1261.2,850.5,347.0,3.2,1.0,20.88,42.67,1.9195,379.3489],
    [13369,1532807197,57.3514,-111.9625,1258.7,848.6,346.8,3.2,1.0,21.08,42.39,1.9206,379.8573],
    [13370,1532807198,57.3519,-111.9627,1256.0,847.0,347.1,2.9,0.9,21.09,42.91,1.9222,381.3233],
    [13371,1532807199,57.3525,-111.9629,1253.3,845.0,347.2,2.8,0.9,21.56,43.29,1.9257,381.0658],
    [13372,1532807200,57.3531,-111.9631,1250.6,842.7,347.4,2.7,0.9,21.23,43.85,1.9285,380.6578],
    [13373,1532807201,57.3536,-111.9632,1247.9,838.9,347.7,2.6,0.6,20.89,45.38,1.9282,380.6578],
    [13374,1532807202,57.3542,-111.9634,1245.0,835.0,347.6,2.8,0.6,21.41,45.29,1.9316,381.8101],
    [13375,1532807203,57.3548,-111.9636,1242.1,832.1,347.6,2.7,0.6,20.41,46.35,1.9289,380.8462],
    [13376,1532807204,57.3554,-111.9638,1239.3,829.3,347.9,2.5,0.6,20.76,46.96,1.9242,380.4222],
    [13377,1532807205,57.3559,-111.964,1236.6,827.5,347.5,2.9,0.4,21.08,46.77,1.9218,379.5517],
    [13378,1532807206,57.3565,-111.9642,1234.1,825.1,347.5,3.0,0.1,20.19,46.9,1.9221,379.3317],
    [13379,1532807207,57.3571,-111.9644,1231.4,822.4,347.6,3.0,0.3,20.67,46.44,1.9125,379.2996],
    [13380,1532807208,57.3576,-111.9645,1228.9,819.2,347.5,3.2,0.3,21.24,46.14,1.9087,380.2963],
    [13381,1532807209,57.3582,-111.9647,1226.9,816.6,347.6,3.3,0.3,21.65,43.97,1.9074,380.2647],
    [13382,1532807210,57.3588,-111.9649,1224.7,812.7,347.7,3.5,0.3,21.23,44.25,1.9052,380.0907],
    [13383,1532807211,57.3593,-111.9651,1222.3,809.4,348.3,3.2,0.2,21.22,42.57,1.9026,378.8127],
    [13384,1532807212,57.3599,-111.9652,1219.8,805.8,348.7,3.0,0.1,20.33,41.36,1.9008,380.1639],
    [13385,1532807213,57.3605,-111.9654,1217.4,802.4,348.8,3.1,0.2,21.35,39.82,1.8977,380.3804],
    [13386,1532807214,57.361,-111.9655,1215.1,800.1,348.6,3.3,0.3,21.16,39.48,1.8945,380.3804],
    [13387,1532807215,57.3616,-111.9657,1212.8,798.8,348.4,3.5,0.0,21.44,37.94,1.9033,378.9652],
    [13388,1532807216,57.3622,-111.9659,1210.4,796.4,348.5,3.4,-0.3,21.24,37.22,1.9043,379.8924],
    [13389,1532807217,57.3628,-111.966,1208.1,794.1,348.3,3.5,0.2,20.99,37.04,1.9057,380.4777],
    [13390,1532807218,57.3633,-111.9662,1205.5,790.2,348.1,3.5,0.4,22.18,36.64,1.9102,381.3443],
    [13391,1532807219,57.3639,-111.9663,1202.7,785.7,348.0,3.6,0.1,21.25,37.3,1.9088,381.3443],
    [13392,1532807220,57.3645,-111.9665,1199.7,781.7,348.2,3.4,0.0,21.35,38.0,1.9096,380.2217],
    [13393,1532807221,57.365,-111.9667,1196.9,777.9,348.3,3.4,0.0,21.46,38.74,1.911,381.0978],
    [13394,1532807222,57.3656,-111.9668,1194.3,775.3,348.3,3.4,0.0,21.33,38.69,1.9149,380.3804],
    [13395,1532807223,57.3662,-111.967,1191.8,771.8,348.4,3.5,0.0,21.19,38.83,1.9223,380.835],
    [13396,1532807224,57.3667,-111.9671,1189.3,769.3,348.4,3.5,0.2,22.11,39.1,1.9274,381.5535],
    [13397,1532807225,57.3673,-111.9673,1186.7,766.7,348.4,3.4,0.4,21.55,40.86,1.9341,381.5473],
    [13398,1532807226,57.3679,-111.9675,1184.1,763.8,348.4,3.4,0.7,20.94,42.66,1.9325,381.8616],
    [13399,1532807227,57.3685,-111.9676,1181.5,761.5,348.2,3.2,0.9,21.78,43.33,1.9314,380.4508],
    [13400,1532807228,57.369,-111.9678,1178.9,758.9,347.7,2.9,0.7,21.48,44.71,1.9302,380.1742],
    [13401,1532807229,57.3696,-111.968,1176.2,756.2,346.4,2.9,0.5,21.79,44.92,1.9317,380.5666],
    [13402,1532807230,57.3702,-111.9682,1173.6,753.5,344.3,2.9,0.6,20.91,45.73,1.9338,379.6335],
    [13403,1532807231,57.3707,-111.9685,1170.8,750.8,341.4,3.3,0.8,21.89,45.86,1.9325,381.6841],
    [13404,1532807232,57.3713,-111.9688,1167.8,748.8,338.2,3.2,1.3,22.44,46.17,1.9311,380.2701],
    [13405,1532807233,57.3718,-111.9692,1164.9,746.0,335.1,3.1,1.5,21.69,46.56,1.934,380.2701],
    [13406,1532807234,57.3724,-111.9696,1162.1,743.1,331.9,3.1,1.6,21.71,47.06,1.9324,379.9967],
    [13407,1532807235,57.3729,-111.9701,1159.4,739.4,328.9,2.8,1.8,21.29,47.09,1.9307,379.8543],
    [13408,1532807236,57.3734,-111.9706,1156.7,736.8,325.7,2.8,1.8,21.81,47.49,1.9274,378.8],
    [13409,1532807237,57.3739,-111.9712,1154.1,734.1,322.5,3.1,1.4,21.7,47.36,1.9347,377.5851],
    [13410,1532807238,57.3743,-111.9718,1151.7,730.0,319.8,3.0,1.0,22.36,45.92,1.9344,377.5851],
    [13411,1532807239,57.3748,-111.9724,1149.2,726.1,316.9,2.5,1.4,21.56,47.01,1.9362,378.4389],
    [13412,1532807240,57.3752,-111.9732,1146.4,722.7,313.5,2.4,1.7,22.2,47.15,1.9369,378.4389],
    [13413,1532807241,57.3756,-111.9739,1143.6,717.5,310.3,2.4,1.8,22.23,48.16,1.9369,378.324],
    [13414,1532807242,57.3759,-111.9747,1140.7,714.0,307.2,2.2,1.9,21.26,49.48,1.9363,379.4751],
    [13415,1532807243,57.3763,-111.9755,1137.8,710.8,304.1,1.6,2.2,21.11,49.8,1.9305,378.1641],
    [13416,1532807244,57.3766,-111.9764,1134.8,707.7,301.1,1.2,2.4,21.82,50.42,1.9306,378.9128],
    [13417,1532807245,57.3769,-111.9772,1131.7,705.9,297.9,1.4,2.4,22.27,49.56,1.9322,378.6076],
    [13418,1532807246,57.3772,-111.9782,1128.6,702.6,294.9,1.1,1.9,21.49,49.74,1.9323,377.952],
    [13419,1532807247,57.3774,-111.9791,1125.5,699.1,292.3,1.2,1.3,21.8,48.79,1.9324,378.0241],
    [13420,1532807248,57.3776,-111.9801,1122.5,695.6,289.1,1.6,1.4,22.27,48.18,1.9318,378.1199],
    [13421,1532807249,57.3778,-111.9811,1120.0,692.0,285.0,1.7,2.2,21.82,48.75,1.9319,378.8464],
    [13422,1532807250,57.378,-111.9821,1117.3,689.3,281.9,1.7,2.1,21.4,48.46,1.9324,380.4536],
    [13423,1532807251,57.3781,-111.983,1114.5,685.5,279.3,1.7,1.7,21.82,48.17,1.9323,379.4703],
    [13424,1532807252,57.3782,-111.9841,1111.8,682.8,276.1,1.8,1.8,21.21,48.12,1.9325,378.6703],
    [13425,1532807253,57.3782,-111.9851,1109.1,679.1,272.9,2.0,1.6,21.41,47.96,1.9319,379.0984],
    [13426,1532807254,57.3783,-111.9861,1106.5,675.5,270.1,2.4,1.2,22.36,46.88,1.9319,380.1307],
    [13427,1532807255,57.3783,-111.9871,1103.8,671.8,267.3,2.5,0.9,21.35,47.43,1.9312,380.1307],
    [13428,1532807256,57.3782,-111.9881,1100.9,668.4,264.2,2.6,1.0,22.09,47.01,1.9312,380.0354],
    [13429,1532807257,57.3782,-111.9891,1097.9,664.9,260.7,2.6,1.4,21.7,47.66,1.9317,379.1419],
    [13430,1532807258,57.3781,-111.9901,1094.8,661.8,257.1,2.7,1.7,21.99,47.61,1.9307,379.1976],
    [13431,1532807259,57.3779,-111.9911,1091.9,657.9,254.1,3.1,1.5,22.45,46.41,1.9309,378.8197],
    [13432,1532807260,57.3778,-111.992,1089.2,654.2,250.9,3.2,1.5,22.08,47.41,1.9269,379.4695],
    [13433,1532807261,57.3776,-111.9929,1087.0,651.3,247.4,3.3,1.7,21.8,46.88,1.9257,379.6592],
    [13434,1532807262,57.3774,-111.9938,1084.8,648.5,244.9,3.7,1.4,21.99,46.6,1.9297,379.5316],
    [13435,1532807263,57.3771,-111.9947,1082.4,644.4,241.6,3.8,1.6,22.19,45.8,1.9301,378.6944],
    [13436,1532807264,57.3769,-111.9956,1079.9,641.9,238.2,3.6,1.9,21.86,45.57,1.9297,379.748],
    [13437,1532807265,57.3766,-111.9964,1077.0,638.7,234.8,3.3,2.0,22.57,44.71,1.9295,380.3537],
    [13438,1532807266,57.3762,-111.9972,1074.2,635.2,231.5,3.5,2.1,22.17,45.4,1.9296,379.7844],
    [13439,1532807267,57.3759,-111.9979,1071.7,632.6,228.7,3.9,2.2,22.04,45.33,1.9322,379.2977],
    [13440,1532807268,57.3755,-111.9986,1069.2,630.2,225.4,4.3,2.6,22.54,45.46,1.9356,378.4208],
    [13441,1532807269,57.3751,-111.9993,1066.6,627.7,222.2,4.0,3.0,22.15,46.39,1.9349,378.4208],
    [13442,1532807270,57.3747,-111.9999,1063.9,625.6,218.1,2.9,3.1,22.24,47.19,1.934,377.6548],
    [13443,1532807271,57.3743,-112.0005,1061.2,623.4,215.2,3.0,3.3,22.11,48.95,1.9342,378.375],
    [13444,1532807272,57.3738,-112.0011,1058.5,620.5,211.1,2.4,4.3,22.26,49.39,1.9343,377.2846],
    [13445,1532807273,57.3734,-112.0015,1055.9,617.9,208.1,2.3,4.2,22.22,49.71,1.9345,376.8677],
    [13446,1532807274,57.3729,-112.002,1053.6,615.6,205.6,2.8,4.2,22.27,50.15,1.9343,376.142],
    [13447,1532807275,57.3724,-112.0024,1050.9,612.7,204.6,3.7,3.8,22.54,50.05,1.9335,377.4549],
    [13448,1532807276,57.3719,-112.0027,1047.7,610.3,202.5,3.8,4.0,22.26,51.18,1.9317,376.0185],
    [13449,1532807277,57.3714,-112.0031,1044.9,606.8,200.5,4.0,4.7,22.24,50.42,1.9303,378.2984],
    [13450,1532807278,57.3709,-112.0034,1042.6,605.0,198.3,3.3,4.5,22.34,50.14,1.9291,377.818],
    [13451,1532807279,57.3704,-112.0036,1040.5,602.6,196.8,3.1,4.0,21.88,49.59,1.9313,377.3771],
    [13452,1532807280,57.3699,-112.0039,1038.4,600.5,196.4,3.8,3.7,22.98,48.57,1.9295,378.0882],
    [13453,1532807281,57.3694,-112.0041,1036.0,597.1,195.8,3.7,3.4,22.43,49.11,1.9294,378.0882],
    [13454,1532807282,57.3688,-112.0043,1033.6,594.6,195.0,3.2,3.1,22.17,48.54,1.931,377.7409],
    [13455,1532807283,57.3683,-112.0046,1031.0,593.0,194.8,3.3,2.9,22.03,48.36,1.9321,378.1026],
    [13456,1532807284,57.3678,-112.0048,1028.4,591.4,194.9,3.4,3.0,22.91,47.26,1.9311,377.1461],
    [13457,1532807285,57.3672,-112.005,1025.5,589.4,195.0,3.5,3.3,23.35,47.07,1.9313,378.1573],
    [13458,1532807286,57.3667,-112.0052,1022.8,586.7,195.2,3.5,3.0,22.64,47.24,1.9321,377.0163],
    [13459,1532807287,57.3662,-112.0054,1019.9,583.9,195.0,3.4,2.8,22.01,47.67,1.9323,378.9294],
    [13460,1532807288,57.3656,-112.0057,1016.9,580.9,195.0,3.8,2.8,22.54,47.76,1.9315,378.9294],
    [13461,1532807289,57.3651,-112.0059,1013.9,577.4,194.4,4.1,2.9,23.12,46.56,1.9301,378.19],
    [13462,1532807290,57.3646,-112.006,1011.0,575.1,193.0,4.4,3.6,23.36,46.56,1.9301,377.668],
    [13463,1532807291,57.364,-112.0062,1008.2,572.2,190.7,4.4,4.4,22.48,47.66,1.931,377.5136],
    [13464,1532807292,57.3635,-112.0063,1005.4,569.4,187.9,4.1,3.8,22.64,48.01,1.931,376.9661],
    [13465,1532807293,57.363,-112.0063,1002.2,566.2,185.2,4.3,3.3,22.58,47.76,1.9305,377.4394],
    [13466,1532807294,57.3624,-112.0063,999.2,564.2,181.8,4.0,2.7,23.5,47.28,1.9302,377.4385],
    [13467,1532807295,57.3619,-112.0063,996.6,562.7,178.1,3.6,2.3,22.63,47.9,1.9297,376.2724],
    [13468,1532807296,57.3613,-112.0062,994.1,561.0,174.7,3.3,2.7,23.09,47.57,1.9313,377.6339],
    [13469,1532807297,57.3608,-112.006,991.6,558.8,171.3,3.0,3.0,22.41,47.71,1.9324,380.0],
    [13470,1532807298,57.3602,-112.0057,989.3,557.3,168.3,3.0,3.1,22.6,47.43,1.932,377.2031],
    [13471,1532807299,57.3597,-112.0054,987.1,556.1,164.4,2.1,2.6,22.49,47.04,1.9337,377.9272],
    [13472,1532807300,57.3592,-112.0051,985.0,554.0,161.6,2.4,2.5,23.2,46.15,1.9326,378.8233],
    [13473,1532807301,57.3587,-112.0047,982.4,552.3,159.4,2.9,2.7,22.64,46.7,1.9336,378.7581],
    [13474,1532807302,57.3582,-112.0042,979.8,550.0,156.6,2.8,2.9,22.77,46.6,1.9328,378.1168],
    [13475,1532807303,57.3577,-112.0038,977.1,548.0,154.1,2.8,3.3,22.81,46.81,1.9325,378.3567],
    [13476,1532807304,57.3572,-112.0032,974.4,546.3,150.6,2.4,3.1,22.92,46.28,1.9327,377.9751],
    [13477,1532807305,57.3567,-112.0026,971.7,543.7,147.1,2.4,2.7,22.89,46.3,1.9339,379.1335],
    [13478,1532807306,57.3563,-112.002,968.7,540.8,144.3,2.9,2.8,23.01,46.52,1.9333,378.5604],
    [13479,1532807307,57.3558,-112.0013,966.0,538.9,141.1,2.8,2.6,22.87,46.38,1.9339,379.213],
    [13480,1532807308,57.3554,-112.0005,963.4,536.4,138.6,3.7,2.7,22.76,46.08,1.9339,377.3186],
    [13481,1532807309,57.355,-111.9998,960.9,534.0,136.3,4.3,3.0,22.99,46.38,1.9335,377.3322],
    [13482,1532807310,57.3547,-111.9989,958.7,532.7,133.0,3.9,3.2,22.53,46.48,1.9338,378.7164],
    [13483,1532807311,57.3543,-111.9981,955.9,529.9,130.4,3.8,3.5,22.93,47.44,1.9346,377.5576],
    [13484,1532807312,57.354,-111.9972,952.5,527.4,127.1,3.5,3.3,23.22,46.97,1.932,378.6018],
    [13485,1532807313,57.3537,-111.9963,949.1,524.0,123.7,3.8,3.3,22.79,46.32,1.9331,377.3782],
    [13486,1532807314,57.3534,-111.9953,945.6,521.6,121.0,4.2,3.8,23.13,46.34,1.9326,377.3782],
    [13487,1532807315,57.3532,-111.9944,942.5,518.5,117.0,3.7,3.3,22.92,46.25,1.9334,378.1081],
    [13488,1532807316,57.353,-111.9933,939.9,516.9,113.7,4.1,3.3,22.92,46.42,1.9337,379.7175],
    [13489,1532807317,57.3528,-111.9923,937.8,514.9,110.7,3.7,3.7,22.83,46.21,1.9336,378.2471],
    [13490,1532807318,57.3526,-111.9913,935.6,513.6,107.2,3.0,3.4,22.79,46.7,1.9322,377.4721],
    [13491,1532807319,57.3525,-111.9902,933.1,511.2,103.8,2.7,2.8,23.27,46.67,1.9336,377.7863],
    [13492,1532807320,57.3524,-111.9891,930.6,509.6,99.9,2.9,2.0,23.31,46.21,1.9323,377.8962],
    [13493,1532807321,57.3523,-111.988,928.7,507.7,96.7,3.0,2.3,23.27,46.38,1.9316,378.0859],
    [13494,1532807322,57.3523,-111.9869,927.2,507.2,94.8,2.6,3.6,23.32,46.53,1.9323,376.7006],
    [13495,1532807323,57.3523,-111.9858,924.9,504.9,92.9,3.0,3.9,23.32,47.63,1.9307,376.3553],
    [13496,1532807324,57.3523,-111.9847,922.2,502.2,88.9,3.2,2.8,23.45,47.1,1.9319,375.1844],
    [13497,1532807325,57.3524,-111.9836,919.1,500.1,87.7,3.2,4.8,22.85,47.43,1.9302,376.5534],
    [13498,1532807326,57.3525,-111.9825,915.4,496.4,85.2,3.4,4.8,22.9,48.07,1.9309,376.161],
    [13499,1532807327,57.3526,-111.9814,911.3,493.3,79.1,3.2,2.1,23.44,47.93,1.9302,376.5389],
    [13500,1532807328,57.3527,-111.9803,908.1,490.1,74.9,2.5,1.6,23.61,47.18,1.9311,378.4351],
    [13501,1532807329,57.3529,-111.9792,905.1,488.1,71.9,2.7,1.7,23.87,47.44,1.931,377.9205],
    [13502,1532807330,57.3531,-111.9782,902.5,486.5,68.3,3.6,1.8,23.41,48.06,1.9331,377.9205],
    [13503,1532807331,57.3534,-111.9771,899.9,484.9,65.4,3.7,2.5,23.77,47.0,1.9325,377.8095],
    [13504,1532807332,57.3536,-111.9761,897.5,482.5,63.3,2.9,3.3,23.47,47.15,1.933,377.3574],
    [13505,1532807333,57.3539,-111.9751,894.9,479.9,60.1,2.3,2.6,23.2,46.6,1.9328,377.4625],
    [13506,1532807334,57.3543,-111.9742,891.7,476.7,56.7,2.7,2.0,23.43,47.14,1.9322,376.5525],
    [13507,1532807335,57.3546,-111.9733,888.3,473.3,53.8,2.6,2.7,23.64,46.6,1.9323,377.7645],
    [13508,1532807336,57.355,-111.9724,885.3,470.3,51.2,1.9,3.2,24.01,46.29,1.9325,377.3105],
    [13509,1532807337,57.3554,-111.9715,882.6,467.6,48.0,1.8,2.8,23.78,47.14,1.9322,376.4844],
    [13510,1532807338,57.3558,-111.9707,879.7,464.7,44.2,2.0,2.0,23.27,46.78,1.9357,377.6533],
    [13511,1532807339,57.3562,-111.97,876.7,462.7,41.1,1.8,2.1,23.71,47.06,1.9339,377.6533],
    [13512,1532807340,57.3567,-111.9693,873.8,460.7,38.3,1.3,2.5,24.17,46.8,1.9354,377.766],
    [13513,1532807341,57.3572,-111.9686,871.0,458.0,35.0,1.7,2.5,23.75,46.54,1.9361,378.8196],
    [13514,1532807342,57.3577,-111.968,868.5,456.5,31.7,1.9,2.6,23.93,46.0,1.9344,378.3685],
    [13515,1532807343,57.3582,-111.9674,866.4,454.4,28.5,1.9,2.4,23.96,45.43,1.9351,378.9772],
    [13516,1532807344,57.3588,-111.9669,863.6,450.6,25.9,2.0,2.0,23.8,45.39,1.9341,378.3628],
    [13517,1532807345,57.3593,-111.9664,860.2,446.1,21.8,3.1,1.3,23.84,45.31,1.9354,377.3125],
    [13518,1532807346,57.3599,-111.966,857.3,443.4,18.3,3.3,1.1,23.93,45.01,1.9356,379.4674],
    [13519,1532807347,57.3604,-111.9657,854.6,439.6,15.1,3.5,1.0,23.36,45.31,1.936,378.0458],
    [13520,1532807348,57.361,-111.9653,851.6,436.6,12.2,2.9,1.5,23.82,45.4,1.9353,378.6126],
    [13521,1532807349,57.3616,-111.9651,848.8,434.2,9.8,2.2,2.1,23.45,44.86,1.9341,378.7577],
    [13522,1532807350,57.3622,-111.9649,846.3,432.3,6.8,2.6,2.4,23.98,44.87,1.9343,377.3323],
    [13523,1532807351,57.3628,-111.9648,843.9,429.9,4.1,3.1,2.4,23.41,44.85,1.936,377.4542],
    [13524,1532807352,57.3634,-111.9647,841.1,426.1,361.4,3.8,2.6,24.25,44.61,1.9366,377.6065],
    [13525,1532807353,57.364,-111.9646,838.5,422.2,359.7,3.8,2.4,24.27,45.07,1.9341,378.7926],
    [13526,1532807354,57.3646,-111.9645,836.5,419.5,357.9,3.9,2.2,24.68,45.88,1.9349,377.3959],
    [13527,1532807355,57.3652,-111.9645,834.3,416.3,357.1,3.6,2.3,23.99,46.23,1.9351,377.0727],
    [13528,1532807356,57.3658,-111.9645,831.7,412.6,356.2,3.5,2.4,24.47,45.53,1.9345,377.7656],
    [13529,1532807357,57.3664,-111.9646,829.3,410.3,355.8,3.1,2.8,24.21,46.3,1.9349,378.0411],
    [13530,1532807358,57.367,-111.9646,826.9,406.9,356.0,2.1,3.2,24.13,45.59,1.934,377.8625],
    [13531,1532807359,57.3676,-111.9646,824.6,404.6,355.3,1.7,3.6,24.85,44.75,1.9348,378.6426],
    [13532,1532807360,57.3682,-111.9647,822.3,402.3,353.4,1.8,3.9,23.86,44.92,1.935,377.9698],
    [13533,1532807361,57.3688,-111.9648,819.1,399.1,350.8,2.1,3.9,24.03,44.84,1.9354,377.9247],
    [13534,1532807362,57.3693,-111.965,815.4,395.4,347.3,2.5,4.2,24.48,44.44,1.9351,378.2628],
    [13535,1532807363,57.3699,-111.9652,812.0,393.0,343.4,2.6,4.7,24.45,44.71,1.9347,377.4125],
    [13536,1532807364,57.3705,-111.9655,808.9,389.9,339.9,2.1,5.3,24.66,44.56,1.9346,377.9992],
    [13537,1532807365,57.3711,-111.9658,805.6,387.6,337.3,1.0,5.7,24.46,45.41,1.9351,376.4867],
    [13538,1532807366,57.3716,-111.9663,803.0,385.0,333.8,0.5,6.4,24.69,45.43,1.9365,376.4867],
    [13539,1532807367,57.3722,-111.9667,800.2,381.2,330.6,0.3,6.8,24.49,46.12,1.9352,376.1943],
    [13540,1532807368,57.3727,-111.9672,797.3,377.3,326.4,0.8,6.9,24.35,45.85,1.9362,376.1943],
    [13541,1532807369,57.3732,-111.9678,794.7,373.7,323.7,0.3,6.1,25.05,45.17,1.9341,376.2449],
    [13542,1532807370,57.3737,-111.9684,792.1,370.1,321.4,0.4,5.4,25.15,45.55,1.9337,376.5816],
    [13543,1532807371,57.3742,-111.9691,789.8,367.8,318.2,1.6,5.5,24.5,46.41,1.9366,375.7584],
    [13544,1532807372,57.3746,-111.9698,787.7,364.7,316.8,1.5,5.3,24.91,46.17,1.9351,376.5554],
    [13545,1532807373,57.3751,-111.9704,785.5,362.5,316.2,1.3,5.5,25.37,46.16,1.9343,375.4967],
    [13546,1532807374,57.3755,-111.9711,783.1,360.1,315.6,1.7,5.7,24.37,46.63,1.9342,375.6852],
    [13547,1532807375,57.376,-111.9718,780.5,355.8,316.6,1.5,5.4,24.3,47.49,1.9336,375.8771],
    [13548,1532807376,57.3764,-111.9725,777.5,351.4,318.2,1.3,5.2,24.65,47.37,1.9334,376.09],
    [13549,1532807377,57.3769,-111.9732,774.5,347.5,319.5,1.0,5.7,25.36,46.2,1.9349,376.05],
    [13550,1532807378,57.3774,-111.9738,771.5,343.5,320.9,0.6,6.1,24.61,47.08,1.9342,376.6977],
    [13551,1532807379,57.3778,-111.9744,768.8,340.8,322.1,0.6,6.4,23.87,46.93,1.9341,376.6977],
    [13552,1532807380,57.3783,-111.975,766.4,337.4,322.9,0.2,6.5,24.76,46.8,1.9335,376.3327],
    [13553,1532807381,57.3788,-111.9756,764.0,334.0,323.5,-0.1,6.1,24.5,46.27,1.9331,377.1207],
    [13554,1532807382,57.3793,-111.9762,761.6,331.6,322.5,0.5,6.3,24.76,45.62,1.9333,375.4249],
    [13555,1532807383,57.3798,-111.9768,759.0,328.8,321.3,0.7,6.1,24.76,46.3,1.9331,375.9656],
    [13556,1532807384,57.3803,-111.9774,756.3,325.2,320.1,0.7,5.2,23.94,46.01,1.933,375.4247],
    [13557,1532807385,57.3807,-111.9781,752.8,320.7,317.6,1.3,4.7,24.78,45.78,1.9333,374.957],
    [13558,1532807386,57.3812,-111.9788,749.4,317.4,314.4,1.1,4.9,24.81,46.3,1.9317,375.9124],
    [13559,1532807387,57.3816,-111.9795,746.6,314.6,311.4,0.7,4.9,24.87,45.51,1.933,375.9011],
    [13560,1532807388,57.382,-111.9803,743.7,310.7,307.8,0.9,5.3,25.27,44.92,1.933,375.9345],
    [13561,1532807389,57.3823,-111.9811,740.7,307.4,304.2,0.7,5.7,25.26,44.67,1.933,376.7728],
    [13562,1532807390,57.3827,-111.9819,738.0,304.1,300.8,0.3,5.8,25.2,44.67,1.9327,376.7269],
    [13563,1532807391,57.383,-111.9828,735.5,300.5,297.8,0.2,5.7,25.09,44.7,1.9345,376.4414],
    [13564,1532807392,57.3833,-111.9837,733.4,298.1,294.9,0.1,5.3,25.19,44.38,1.9326,376.299],
    [13565,1532807393,57.3835,-111.9846,731.9,295.9,291.6,-0.2,5.2,25.59,44.29,1.9322,376.7661],
    [13566,1532807394,57.3838,-111.9856,730.5,294.5,287.7,0.0,5.2,24.83,44.99,1.9336,376.934],
    [13567,1532807395,57.384,-111.9865,729.3,291.9,283.6,0.0,4.4,24.79,45.42,1.9333,375.8375],
    [13568,1532807396,57.3841,-111.9875,728.3,290.8,279.3,0.0,4.2,24.99,45.07,1.9326,375.9819],
    [13569,1532807397,57.3842,-111.9885,727.2,288.4,274.6,0.0,4.4,24.98,45.51,1.9321,375.9915],
    [13570,1532807398,57.3843,-111.9894,725.3,285.6,270.5,0.3,4.2,24.75,44.97,1.9319,376.5462],
    [13571,1532807399,57.3843,-111.9904,722.4,281.8,265.0,0.1,5.2,25.07,44.48,1.9319,375.6011],
    [13572,1532807400,57.3843,-111.9914,719.0,276.3,259.8,-0.4,5.5,24.41,44.58,1.9315,376.165],
    [13573,1532807401,57.3842,-111.9924,715.2,271.0,256.7,-1.0,4.2,25.26,44.44,1.9342,376.716],
    [13574,1532807402,57.3841,-111.9933,711.3,266.9,252.4,-1.6,4.0,25.35,44.43,1.9325,376.7148],
    [13575,1532807403,57.384,-111.9943,708.1,263.8,248.2,-1.6,3.6,25.5,44.12,1.932,376.0588],
    [13576,1532807404,57.3838,-111.9952,706.1,262.1,244.2,-1.2,2.8,25.5,44.42,1.9327,377.2018],
    [13577,1532807405,57.3835,-111.996,704.7,261.8,241.5,-0.6,0.9,24.36,44.78,1.9321,377.2018],
    [13578,1532807406,57.3833,-111.9969,703.7,260.0,236.5,-1.0,1.3,25.33,44.3,1.9321,376.5958],
    [13579,1532807407,57.383,-111.9977,703.2,259.2,229.8,-1.9,2.0,24.89,44.81,1.932,377.2236],
    [13580,1532807408,57.3827,-111.9984,702.6,258.1,225.6,-1.6,1.3,25.57,44.01,1.9326,376.8099],
    [13581,1532807409,57.3823,-111.999,702.1,257.0,220.4,-1.5,0.6,24.94,44.43,1.9331,377.466],
    [13582,1532807410,57.3819,-111.9996,701.8,256.6,214.7,-1.5,0.4,24.96,44.58,1.9324,376.3821],
    [13583,1532807411,57.3815,-112.0001,700.8,255.6,210.0,-0.7,0.4,25.88,43.9,1.9317,377.0535],
    [13584,1532807412,57.381,-112.0006,699.2,253.1,204.5,-0.5,0.3,24.89,44.17,1.9311,375.4806],
    [13585,1532807413,57.3806,-112.0009,696.7,250.5,198.9,-0.3,0.3,24.6,44.26,1.931,376.9582],
    [13586,1532807414,57.3801,-112.0012,693.8,247.8,192.3,-0.2,0.4,25.05,44.22,1.9324,377.8723],
    [13587,1532807415,57.3796,-112.0013,691.4,245.4,185.0,-0.8,1.3,25.49,43.55,1.9324,378.3211],
    [13588,1532807416,57.3791,-112.0014,688.7,243.7,179.6,-0.3,2.0,25.49,43.63,1.9326,376.9766],
    [13589,1532807417,57.3786,-112.0013,686.5,241.4,175.9,1.5,2.6,24.71,44.34,1.9312,376.2177],
    [13590,1532807418,57.3781,-112.0012,685.1,240.0,171.4,1.8,3.2,25.23,43.88,1.9304,375.7943],
    [13591,1532807419,57.3776,-112.001,684.2,240.1,166.9,1.4,3.3,25.19,45.02,1.931,375.1794],
    [13592,1532807420,57.3771,-112.0007,683.2,239.1,164.4,2.0,3.4,25.14,44.92,1.9309,376.1594],
    [13593,1532807421,57.3767,-112.0004,682.3,239.3,162.4,2.4,3.6,25.32,45.1,1.9303,376.1594],
    [13594,1532807422,57.3762,-112.0,681.6,239.5,158.7,1.0,4.0,25.08,44.85,1.9313,377.3347],
    [13595,1532807423,57.3758,-111.9997,680.9,241.0,156.4,0.7,4.8,25.69,43.74,1.9304,376.6938],
    [13596,1532807424,57.3753,-111.9992,679.9,241.1,154.9,1.0,5.9,25.24,44.15,1.9311,376.6298],
    [13597,1532807425,57.3749,-111.9988,678.7,240.7,152.7,0.4,6.9,25.32,44.48,1.9317,377.1583],
    [13598,1532807426,57.3745,-111.9983,677.1,240.2,150.0,-0.7,8.0,24.71,43.72,1.9303,376.6195],
    [13599,1532807427,57.3741,-111.9977,675.6,238.7,147.6,-1.4,8.9,24.83,43.57,1.9299,377.2508],
    [13600,1532807428,57.3737,-111.9972,674.1,238.1,145.1,-2.1,9.3,25.75,43.02,1.9295,377.7762],
    [13601,1532807429,57.3733,-111.9966,672.4,236.3,142.6,-2.8,9.5,25.2,43.09,1.9293,377.3603],
    [13602,1532807430,57.3729,-111.996,670.6,235.6,139.8,-3.3,9.1,25.38,42.7,1.9291,376.5139],
    [13603,1532807431,57.3726,-111.9953,668.9,234.2,137.4,-3.5,9.4,25.82,42.08,1.9298,374.9105],
    [13604,1532807432,57.3722,-111.9946,667.0,233.0,135.6,-3.9,10.1,25.31,43.45,1.9304,375.7345],
    [13605,1532807433,57.3719,-111.9939,665.0,231.2,132.7,-5.5,10.2,25.05,43.22,1.9303,378.3869],
    [13606,1532807434,57.3716,-111.9932,663.4,230.4,129.9,-6.6,9.9,25.62,42.62,1.9307,376.1918],
    [13607,1532807435,57.3713,-111.9924,662.0,229.0,128.4,-6.7,10.5,25.57,42.88,1.93,375.9043],
    [13608,1532807436,57.371,-111.9916,661.0,229.0,127.2,-7.0,11.0,25.52,42.46,1.9271,376.7131],
    [13609,1532807437,57.3708,-111.9909,660.1,228.1,125.5,-8.0,10.7,24.99,41.8,1.9274,376.1433],
    [13610,1532807438,57.3705,-111.9901,659.3,228.3,124.5,-8.4,10.8,25.7,41.45,1.9284,377.2974],
    [13611,1532807439,57.3703,-111.9893,658.8,228.1,125.1,-8.0,11.8,25.72,41.59,1.9268,377.2689],
    [13612,1532807440,57.37,-111.9885,658.8,228.8,124.8,-7.8,11.8,25.82,42.03,1.9269,376.689],
    [13613,1532807441,57.3698,-111.9877,658.6,228.9,123.8,-8.5,11.7,26.39,40.98,1.9264,375.9392],
    [13614,1532807442,57.3696,-111.9869,657.8,228.8,122.8,-10.0,12.1,25.37,41.16,1.9265,379.4705],
    [13615,1532807443,57.3694,-111.9861,656.7,227.7,122.9,-9.7,12.4,25.82,41.35,1.9265,375.9279],
    [13616,1532807444,57.3691,-111.9853,655.3,227.3,122.7,-10.1,12.5,26.11,40.99,1.9255,377.1802],
    [13617,1532807445,57.3689,-111.9846,653.8,225.8,122.3,-10.8,12.4,26.43,40.21,1.9257,376.8964],
    [13618,1532807446,57.3687,-111.9838,651.1,223.1,121.5,-11.3,12.0,26.39,40.42,1.9275,376.262],
    [13619,1532807447,57.3685,-111.983,647.4,220.4,120.4,-11.4,11.1,25.47,40.67,1.9274,377.5802],
    [13620,1532807448,57.3683,-111.9821,643.9,217.5,119.7,-11.0,10.0,26.35,39.98,1.9266,375.937],
    [13621,1532807449,57.368,-111.9813,640.9,214.9,119.6,-10.4,9.6,25.59,39.97,1.9255,376.0832],
    [13622,1532807450,57.3678,-111.9804,638.6,213.6,120.1,-9.4,9.4,25.78,39.78,1.9249,375.1638],
    [13623,1532807451,57.3676,-111.9796,637.0,212.0,120.5,-8.6,8.7,26.49,39.22,1.9256,375.1638],
    [13624,1532807452,57.3673,-111.9787,635.9,211.9,121.5,-7.7,9.3,26.04,39.79,1.9251,377.1087],
    [13625,1532807453,57.3671,-111.9779,634.2,210.2,123.4,-6.7,10.2,26.05,39.81,1.9231,374.9428],
    [13626,1532807454,57.3668,-111.977,632.1,209.1,123.0,-7.2,8.8,26.22,40.17,1.922,375.8978],
    [13627,1532807455,57.3666,-111.9762,629.3,207.3,123.6,-6.6,8.6,26.21,39.66,1.923,376.0458],
    [13628,1532807456,57.3663,-111.9753,624.6,202.6,126.5,-5.2,10.2,26.35,39.27,1.9226,376.3164],
    [13629,1532807457,57.366,-111.9745,619.5,198.8,127.2,-5.2,9.5,26.38,39.01,1.9215,375.6986],
    [13630,1532807458,57.3657,-111.9736,614.6,195.7,129.2,-4.1,10.4,25.93,39.42,1.9217,375.8493],
    [13631,1532807459,57.3654,-111.9728,610.3,192.3,130.8,-3.8,10.3,26.68,38.4,1.9228,375.8493],
    [13632,1532807460,57.365,-111.9719,606.8,188.8,130.8,-4.3,9.1,26.62,38.6,1.9212,376.4089],
    [13633,1532807461,57.3647,-111.9711,605.0,187.0,132.8,-3.3,9.6,26.4,38.6,1.9233,377.5188],
    [13634,1532807462,57.3643,-111.9703,602.7,184.7,134.1,-2.9,9.2,26.8,38.15,1.9205,377.1162],
    [13635,1532807463,57.3639,-111.9695,600.7,182.7,134.9,-3.3,7.9,26.41,38.61,1.9221,376.732],
    [13636,1532807464,57.3636,-111.9687,598.3,180.6,138.0,-1.7,8.3,26.59,37.62,1.9217,377.6947],
    [13637,1532807465,57.3632,-111.968,595.5,179.2,141.0,-0.5,8.5,25.69,38.04,1.9228,377.1223],
    [13638,1532807466,57.3627,-111.9673,592.6,177.6,142.6,-0.3,8.4,26.18,37.97,1.9237,377.6591],
    [13639,1532807467,57.3623,-111.9666,590.2,176.2,144.4,0.3,8.7,25.91,37.91,1.9229,376.4647],
    [13640,1532807468,57.3619,-111.9659,588.3,174.3,144.2,-0.5,6.9,26.38,37.87,1.9209,377.0785],
    [13641,1532807469,57.3614,-111.9652,586.4,171.7,145.2,0.4,6.2,26.5,37.64,1.9192,377.2558],
    [13642,1532807470,57.3609,-111.9646,583.8,168.7,147.2,2.5,5.9,26.83,37.32,1.9201,377.4078],
    [13643,1532807471,57.3605,-111.9639,581.1,167.1,147.1,2.7,4.7,27.2,37.1,1.9223,377.5093],
    [13644,1532807472,57.36,-111.9633,578.7,165.5,146.0,1.6,3.1,26.74,37.12,1.9224,377.5093],
    [13645,1532807473,57.3595,-111.9626,577.2,164.2,145.8,1.0,2.1,26.58,37.78,1.9215,378.1015],
    [13646,1532807474,57.359,-111.962,575.6,163.5,149.5,2.4,3.3,26.24,37.66,1.9227,378.1015],
    [13647,1532807475,57.3586,-111.9614,573.9,163.3,152.7,2.8,4.2,27.1,36.5,1.9211,377.2713],
    [13648,1532807476,57.358,-111.9609,572.2,162.9,156.5,3.4,4.4,26.74,36.69,1.9194,377.6252],
    [13649,1532807477,57.3575,-111.9604,570.9,162.0,158.0,2.2,3.5,27.21,35.64,1.9196,377.56],
    [13650,1532807478,57.3569,-111.9599,569.7,161.7,160.9,3.6,3.5,26.94,35.61,1.9205,378.6172],
    [13651,1532807479,57.3564,-111.9595,568.5,161.4,163.1,4.2,3.5,26.14,35.97,1.9207,378.6172],
    [13652,1532807480,57.3558,-111.9591,568.2,162.3,162.1,2.2,3.2,26.01,35.96,1.9217,377.64],
    [13653,1532807481,57.3553,-111.9588,567.8,161.8,161.9,2.0,2.6,26.49,36.23,1.9211,378.6278],
    [13654,1532807482,57.3547,-111.9584,567.1,161.1,162.6,2.1,2.0,26.56,35.97,1.9192,378.2838],
    [13655,1532807483,57.3542,-111.958,566.7,161.7,163.8,1.5,1.5,26.59,36.06,1.923,378.2542],
    [13656,1532807484,57.3536,-111.9577,565.9,159.9,165.3,1.5,1.3,26.48,36.22,1.9221,378.4439],
    [13657,1532807485,57.353,-111.9574,564.6,158.3,167.5,2.4,0.9,26.8,35.89,1.9231,378.1098],
    [13658,1532807486,57.3525,-111.9571,563.0,157.0,168.4,2.6,0.7,26.54,36.33,1.9234,378.5254],
    [13659,1532807487,57.3519,-111.9569,562.1,157.2,167.3,1.0,0.2,26.34,37.19,1.9249,378.1051],
    [13660,1532807488,57.3513,-111.9566,561.3,157.3,167.5,0.7,0.0,26.71,36.65,1.9259,377.9424],
    [13661,1532807489,57.3507,-111.9564,560.3,155.5,170.3,2.2,0.0,26.43,36.72,1.9241,377.7532],
    [13662,1532807490,57.3501,-111.9562,559.1,153.0,171.9,1.9,-0.4,26.08,36.57,1.9247,377.5268],
    [13663,1532807491,57.3496,-111.956,558.7,151.7,173.1,0.6,-1.0,26.66,37.29,1.9249,378.7263],
    [13664,1532807492,57.349,-111.9559,558.6,152.6,175.7,1.6,-0.6,26.63,37.13,1.9216,378.5545],
    [13665,1532807493,57.3484,-111.9558,557.6,152.8,178.7,2.3,-0.3,26.67,37.41,1.9218,378.6662],
    [13666,1532807494,57.3478,-111.9558,556.4,153.5,180.5,2.3,-0.3,26.87,36.47,1.9224,377.6672],
    [13667,1532807495,57.3472,-111.9558,555.1,151.8,182.2,2.1,-0.1,26.6,36.37,1.921,378.8495],
    [13668,1532807496,57.3466,-111.9558,554.2,147.5,183.4,1.8,0.6,26.23,36.55,1.9205,378.6875],
    [13669,1532807497,57.346,-111.9558,553.9,144.5,184.8,1.8,0.9,26.56,35.57,1.9184,378.9895],
    [13670,1532807498,57.3454,-111.9559,554.2,143.5,185.3,1.7,1.4,25.97,35.58,1.9158,378.9895],
    [13671,1532807499,57.3448,-111.956,554.7,143.8,186.0,2.0,1.8,26.32,34.74,1.913,378.9677],
    [13672,1532807500,57.3442,-111.9561,555.6,144.7,186.3,2.2,2.6,27.2,33.86,1.9126,378.5095],
    [13673,1532807501,57.3436,-111.9562,557.1,145.1,186.2,1.8,2.9,26.5,33.67,1.9143,377.8159],
    [13674,1532807502,57.3431,-111.9563,558.6,146.6,186.2,1.6,3.6,26.6,33.46,1.9136,378.9014],
    [13675,1532807503,57.3425,-111.9564,560.2,149.9,186.1,1.6,4.4,27.03,32.45,1.9137,380.0096],
    [13676,1532807504,57.3419,-111.9565,560.3,150.1,186.4,2.1,5.0,27.04,32.64,1.9132,379.6238],
    [13677,1532807505,57.3413,-111.9565,559.7,150.4,186.4,2.0,5.1,26.52,32.56,1.9113,379.2547],
    [13678,1532807506,57.3408,-111.9566,559.0,150.8,185.1,0.9,5.5,26.78,32.83,1.9106,380.2214],
    [13679,1532807507,57.3402,-111.9567,557.7,150.3,185.3,1.7,5.8,26.53,31.89,1.9127,378.7878],
    [13680,1532807508,57.3397,-111.9568,555.9,148.9,185.9,2.1,5.3,26.27,32.03,1.9147,378.0041],
    [13681,1532807509,57.3391,-111.9569,553.7,147.8,185.6,1.5,5.6,26.81,32.33,1.9132,380.8259],
    [13682,1532807510,57.3385,-111.957,551.7,145.7,186.6,2.1,6.2,26.83,32.92,1.9123,379.4855],
    [13683,1532807511,57.338,-111.9571,550.2,145.2,187.1,1.9,6.0,26.79,32.03,1.9126,380.8175],
    [13684,1532807512,57.3374,-111.9572,548.9,144.6,187.7,2.5,5.9,26.84,31.64,1.9139,380.0105],
    [13685,1532807513,57.3369,-111.9573,548.4,144.4,187.1,2.0,6.2,26.84,31.31,1.9174,380.5705],
    [13686,1532807514,57.3363,-111.9574,549.0,144.9,185.7,0.9,6.2,26.36,31.35,1.9179,380.5705],
    [13687,1532807515,57.3358,-111.9575,550.2,147.2,185.0,0.9,5.8,26.76,32.03,1.9171,378.5277],
    [13688,1532807516,57.3352,-111.9576,550.6,147.6,185.5,2.0,6.4,27.11,32.37,1.9167,377.6252],
    [13689,1532807517,57.3346,-111.9576,550.9,147.9,184.3,1.7,7.2,27.15,33.62,1.916,379.2014],
    [13690,1532807518,57.3341,-111.9577,551.1,149.2,183.7,1.9,7.4,27.12,33.57,1.9147,379.3135],
    [13691,1532807519,57.3336,-111.9577,551.7,150.8,183.8,2.4,7.6,26.9,34.43,1.9156,379.7134],
    [13692,1532807520,57.333,-111.9578,552.7,152.8,183.0,2.1,8.4,26.54,33.51,1.9173,378.9819],
    [13693,1532807521,57.3324,-111.9578,554.3,154.2,183.0,2.3,8.5,26.51,32.98,1.9154,377.8007],
    [13694,1532807522,57.3319,-111.9578,555.3,156.6,182.7,2.1,8.2,27.16,32.43,1.9123,379.6168],
    [13695,1532807523,57.3313,-111.9578,556.1,158.1,183.0,2.5,7.9,27.25,31.94,1.9136,379.0957],
    [13696,1532807524,57.3308,-111.9578,556.9,159.8,182.8,2.4,7.8,26.81,32.53,1.9144,378.3335],
    [13697,1532807525,57.3302,-111.9579,557.6,161.6,182.4,2.2,7.1,26.9,32.22,1.9153,377.3674],
    [13698,1532807526,57.3297,-111.9579,557.2,162.2,182.4,2.2,6.8,26.9,32.91,1.9151,378.5646],
    [13699,1532807527,57.3291,-111.9579,555.8,161.5,182.1,1.8,7.2,26.81,32.8,1.9163,377.7102],
    [13700,1532807528,57.3286,-111.9579,554.0,161.4,182.5,2.2,6.8,26.99,33.93,1.9155,377.7102],
    [13701,1532807529,57.328,-111.9579,551.9,159.9,183.1,2.6,6.5,27.75,33.23,1.9122,378.4909],
    [13702,1532807530,57.3274,-111.9579,549.7,159.4,183.3,2.3,5.9,26.9,33.63,1.91,377.8346],
    [13703,1532807531,57.3269,-111.958,547.7,157.6,183.8,2.4,4.8,27.14,32.61,1.9061,379.174],
    [13704,1532807532,57.3263,-111.958,546.0,157.0,184.3,2.6,4.0,26.78,31.89,1.9037,378.7536],
    [13705,1532807533,57.3257,-111.958,545.2,156.9,183.1,1.3,3.2,27.23,30.92,1.9024,378.7653],
    [13706,1532807534,57.3251,-111.9581,544.2,156.2,183.4,1.9,2.6,27.2,30.23,1.9098,379.7522],
    [13707,1532807535,57.3246,-111.9581,542.5,154.4,184.5,2.9,1.8,27.35,29.05,1.9094,379.7824],
    [13708,1532807536,57.324,-111.9581,541.3,154.0,184.1,2.4,1.5,27.7,28.38,1.9095,379.5222],
    [13709,1532807537,57.3234,-111.9582,540.6,153.6,184.2,2.4,0.9,27.07,29.28,1.9115,379.928],
    [13710,1532807538,57.3228,-111.9582,539.9,153.6,183.8,2.0,-0.2,27.79,28.93,1.9159,379.2136],
    [13711,1532807539,57.3223,-111.9583,539.5,153.5,183.9,2.1,-0.8,27.86,29.46,1.9168,379.5187],
    [13712,1532807540,57.3217,-111.9583,538.9,153.9,183.8,1.7,-1.4,27.3,30.61,1.9182,378.554],
    [13713,1532807541,57.3211,-111.9583,538.1,153.2,182.8,1.0,-1.9,27.62,30.75,1.9173,379.0806],
    [13714,1532807542,57.3205,-111.9584,536.8,151.8,183.6,2.2,-2.8,27.01,32.44,1.9155,379.0806],
    [13715,1532807543,57.3199,-111.9584,535.5,151.4,183.3,1.9,-3.2,27.2,32.09,1.9156,378.1396],
    [13716,1532807544,57.3193,-111.9584,534.0,150.0,183.1,2.1,-3.7,27.26,33.17,1.9165,377.6965],
    [13717,1532807545,57.3187,-111.9584,532.5,148.5,183.2,2.3,-4.6,27.26,33.36,1.9142,379.2294],
    [13718,1532807546,57.3181,-111.9585,530.8,147.0,182.6,2.1,-5.3,27.61,33.06,1.9152,379.2294],
    [13719,1532807547,57.3176,-111.9585,529.0,146.1,182.1,1.2,-5.8,27.46,33.15,1.9127,379.0033],
    [13720,1532807548,57.317,-111.9585,527.9,145.0,181.4,0.6,-5.4,27.49,32.87,1.9134,377.1902],
    [13721,1532807549,57.3164,-111.9585,527.1,144.1,182.6,1.8,-5.0,27.88,32.49,1.9154,377.9921],
    [13722,1532807550,57.3158,-111.9585,526.0,143.0,182.8,1.9,-4.8,27.75,32.66,1.9154,378.0624],
    [13723,1532807551,57.3152,-111.9585,525.2,142.2,182.8,2.2,-4.0,27.15,33.84,1.9264,376.8793],
    [13724,1532807552,57.3146,-111.9586,523.8,140.8,183.2,2.8,-3.9,26.99,34.91,1.9307,376.5449],
    [13725,1532807553,57.314,-111.9586,523.0,140.1,183.3,3.2,-3.5,27.96,35.24,1.9259,377.3277],
    [13726,1532807554,57.3134,-111.9586,522.2,140.2,183.4,3.2,-3.1,27.46,37.1,1.9231,378.6141],
    [13727,1532807555,57.3128,-111.9586,522.3,141.4,183.0,3.0,-2.9,27.26,37.01,1.9228,378.6957],
    [13728,1532807556,57.3122,-111.9586,522.1,141.4,182.7,2.9,-2.3,27.3,36.65,1.9234,378.187],
    [13729,1532807557,57.3116,-111.9586,522.1,141.4,182.7,2.6,-1.8,27.83,35.81,1.9248,378.5966],
    [13730,1532807558,57.311,-111.9586,522.6,142.7,180.6,0.3,-1.4,27.24,36.37,1.9234,378.1089],
    [13731,1532807559,57.3104,-111.9586,522.8,142.7,181.7,2.3,-0.8,26.77,36.87,1.9229,378.5455],
    [13732,1532807560,57.3098,-111.9586,522.8,143.7,182.7,4.0,-0.8,27.46,36.21,1.9209,378.5455],
    [13733,1532807561,57.3092,-111.9586,522.0,143.2,180.4,3.6,-0.1,27.22,36.96,1.9233,377.1081],
    [13734,1532807562,57.3086,-111.9585,521.1,143.3,179.0,5.1,0.8,27.19,36.54,1.9247,377.7631],
    [13735,1532807563,57.308,-111.9583,520.6,142.6,174.1,4.0,1.1,26.85,36.62,1.9243,377.1699],
    [13736,1532807564,57.3074,-111.9581,520.1,142.5,169.2,4.1,1.0,27.53,36.55,1.9227,377.1321],
    [13737,1532807565,57.3068,-111.9578,519.4,142.4,164.3,3.9,1.4,26.97,37.02,1.9225,377.2847],
    [13738,1532807566,57.3063,-111.9574,519.6,143.3,157.2,3.0,2.4,27.78,35.73,1.9216,377.6922],
    [13739,1532807567,57.3058,-111.9568,521.3,145.3,152.3,3.0,4.0,26.99,36.74,1.9221,377.0639],
    [13740,1532807568,57.3053,-111.9562,523.3,147.3,147.7,2.6,4.6,27.27,36.49,1.9224,377.597],
    [13741,1532807569,57.3048,-111.9556,525.3,150.3,142.8,1.6,4.5,27.1,36.67,1.9235,377.7591],
    [13742,1532807570,57.3044,-111.9548,527.1,153.1,138.4,0.6,4.7,27.19,36.46,1.9225,377.4785],
    [13743,1532807571,57.304,-111.954,528.8,155.2,135.1,0.5,5.4,27.78,35.82,1.9211,378.6462],
    [13744,1532807572,57.3036,-111.9532,530.6,157.6,131.1,0.1,5.0,27.08,35.87,1.9223,378.6462],
    [13745,1532807573,57.3033,-111.9524,532.6,160.6,126.5,-0.6,4.1,26.44,35.72,1.9228,376.9497],
    [13746,1532807574,57.303,-111.9515,534.5,163.5,123.5,-0.8,4.8,27.16,35.31,1.9235,378.8119],
    [13747,1532807575,57.3027,-111.9505,536.9,166.9,118.7,-1.6,3.7,27.22,34.72,1.9222,378.5816],
    [13748,1532807576,57.3025,-111.9496,540.6,171.6,113.7,-2.4,2.6,27.06,35.68,1.924,378.1267],
    [13749,1532807577,57.3023,-111.9486,543.6,175.7,111.5,-2.4,3.3,26.82,34.78,1.9233,379.0838],
    [13750,1532807578,57.3021,-111.9476,544.4,177.4,109.4,-2.4,3.8,26.72,34.84,1.9195,378.415],
    [13751,1532807579,57.302,-111.9466,544.4,178.4,107.2,-2.7,4.2,27.31,34.19,1.9193,378.5672],
    [13752,1532807580,57.3018,-111.9456,544.6,179.5,103.8,-3.3,3.1,26.98,35.0,1.9177,378.9731],
    [13753,1532807581,57.3017,-111.9446,544.7,180.7,101.1,-3.1,2.9,27.05,33.74,1.9163,378.2435],
    [13754,1532807582,57.3017,-111.9435,545.1,181.1,98.3,-2.2,2.0,27.11,32.52,1.9184,378.7097],
    [13755,1532807583,57.3016,-111.9425,545.2,182.2,95.9,-1.7,1.8,27.55,31.52,1.9198,378.0969],
    [13756,1532807584,57.3016,-111.9414,544.8,181.8,95.6,-1.8,3.0,27.16,31.79,1.9183,379.0688],
    [13757,1532807585,57.3015,-111.9404,542.6,179.6,95.9,-1.0,4.1,27.66,31.26,1.9237,378.6328],
    [13758,1532807586,57.3015,-111.9393,539.5,177.0,95.5,-0.9,4.3,26.67,32.38,1.9253,379.5051],
    [13759,1532807587,57.3015,-111.9382,535.9,173.9,95.5,-0.9,4.6,27.18,32.59,1.9234,378.4923],
    [13760,1532807588,57.3015,-111.9372,533.5,172.5,95.7,-0.8,4.8,26.95,32.78,1.9181,380.6214],
    [13761,1532807589,57.3015,-111.9361,531.4,172.4,94.6,-0.7,3.9,26.87,33.49,1.9158,379.5893],
    [13762,1532807590,57.3015,-111.935,528.2,170.2,94.1,0.3,3.6,27.35,32.76,1.9187,378.5776],
    [13763,1532807591,57.3015,-111.9339,525.0,167.0,94.6,1.3,4.3,27.47,32.71,1.9191,378.5776],
    [13764,1532807592,57.3014,-111.9328,521.9,163.9,94.3,1.4,3.9,26.85,31.98,1.9208,380.3297],
    [13765,1532807593,57.3014,-111.9317,520.0,161.9,93.1,1.7,3.2,27.42,32.16,1.9219,379.0511],
    [13766,1532807594,57.3014,-111.9306,518.9,161.9,93.7,2.0,4.3,26.8,32.31,1.9241,379.5989],
    [13767,1532807595,57.3014,-111.9294,518.2,162.3,93.1,1.5,4.0,27.0,32.95,1.9224,379.5588],
    [13768,1532807596,57.3014,-111.9283,517.4,161.4,92.3,2.3,3.6,27.44,33.76,1.9217,378.8748],
    [13769,1532807597,57.3015,-111.9272,515.3,160.2,92.7,3.5,4.1,27.9,32.66,1.9254,378.1569],
    [13770,1532807598,57.3015,-111.9261,513.1,159.1,92.6,3.8,4.1,27.47,33.7,1.924,378.1569],
    [13771,1532807599,57.3015,-111.925,510.9,157.9,92.3,4.0,3.8,27.19,33.52,1.9228,378.5283],
    [13772,1532807600,57.3015,-111.9238,509.5,158.5,91.0,4.3,2.6,27.72,33.47,1.9234,378.521],
    [13773,1532807601,57.3015,-111.9227,508.2,158.2,91.7,4.4,3.6,27.47,34.0,1.9217,378.8009],
    [13774,1532807602,57.3015,-111.9216,506.9,156.9,92.8,4.6,4.1,27.57,34.01,1.9219,378.2788],
    [13775,1532807603,57.3015,-111.9205,505.3,156.3,91.6,4.6,3.0,27.12,34.13,1.9229,378.1866],
    [13776,1532807604,57.3015,-111.9193,504.2,156.2,93.1,3.8,4.5,26.8,34.26,1.9332,377.7459],
    [13777,1532807605,57.3015,-111.9182,502.9,154.9,92.7,3.1,4.0,27.57,34.21,1.9402,378.0024],
    [13778,1532807606,57.3016,-111.917,501.0,153.0,92.6,2.3,4.0,27.39,35.16,1.9461,377.9941],
    [13779,1532807607,57.3016,-111.9159,498.9,151.7,93.4,1.8,4.7,27.8,35.81,1.9457,378.3803],
    [13780,1532807608,57.3016,-111.9147,496.6,149.6,92.6,1.9,3.6,28.44,36.02,1.9356,377.9969],
    [13781,1532807609,57.3016,-111.9136,494.4,147.4,92.8,1.7,4.0,27.65,37.71,1.9279,377.6306],
    [13782,1532807610,57.3016,-111.9125,493.1,146.1,92.9,2.2,4.0,27.81,36.82,1.9431,375.871],
    [13783,1532807611,57.3016,-111.9114,492.4,146.1,92.5,2.7,3.7,27.57,37.51,1.9496,376.2958],
    [13784,1532807612,57.3016,-111.9102,492.0,146.0,92.6,2.9,4.0,28.26,36.7,1.9436,376.2958],
    [13785,1532807613,57.3016,-111.909,492.1,147.1,92.4,2.8,3.8,27.42,37.52,1.9441,377.0655],
    [13786,1532807614,57.3016,-111.9078,493.0,149.0,91.8,2.2,3.2,27.45,38.39,1.9496,378.1287],
    [13787,1532807615,57.3016,-111.9067,493.8,149.8,92.6,2.4,4.0,27.15,38.71,1.9549,375.7965],
    [13788,1532807616,57.3016,-111.9056,493.6,149.6,93.1,2.2,4.5,27.9,38.73,1.9566,375.6573],
    [13789,1532807617,57.3016,-111.9045,492.8,148.8,93.4,2.2,4.6,27.51,39.55,1.9551,376.0654],
    [13790,1532807618,57.3016,-111.9034,492.5,147.8,92.4,2.5,3.4,27.99,39.74,1.9541,375.6687],
    [13791,1532807619,57.3017,-111.9022,491.9,148.0,92.3,2.1,2.9,27.41,40.7,1.9533,377.1994],
    [13792,1532807620,57.3017,-111.9011,490.8,146.8,92.2,1.7,2.5,27.46,41.8,1.9519,377.1924],
    [13793,1532807621,57.3017,-111.9,490.1,147.1,93.6,1.6,3.5,27.21,40.68,1.9514,376.3927],
    [13794,1532807622,57.3016,-111.8989,489.8,146.8,94.3,1.3,3.7,27.59,40.56,1.9523,376.1941],
    [13795,1532807623,57.3016,-111.8977,489.4,146.4,94.7,1.1,3.6,27.52,40.92,1.9504,376.7008],
    [13796,1532807624,57.3016,-111.8966,488.8,145.8,95.0,1.3,3.8,27.49,40.05,1.9488,377.8623],
    [13797,1532807625,57.3016,-111.8955,488.2,145.2,95.1,0.8,4.0,27.49,40.04,1.9512,376.8016],
    [13798,1532807626,57.3016,-111.8944,488.6,145.6,94.8,0.4,3.3,27.55,40.43,1.9495,376.9177],
    [13799,1532807627,57.3016,-111.8933,489.0,147.0,93.8,0.1,2.3,28.15,39.37,1.9515,376.8735],
    [13800,1532807628,57.3015,-111.8922,488.5,147.5,95.7,0.1,4.3,27.78,39.34,1.9496,375.8465],
    [13801,1532807629,57.3015,-111.8911,488.1,149.1,95.2,-0.3,3.2,27.68,39.25,1.9471,376.2576],
    [13802,1532807630,57.3015,-111.89,489.1,150.9,95.0,-1.1,3.1,27.45,39.62,1.9468,376.3225],
    [13803,1532807631,57.3015,-111.8889,489.3,151.3,95.6,-1.2,3.7,27.52,39.52,1.9504,377.4222],
    [13804,1532807632,57.3014,-111.8878,489.5,151.5,94.2,-1.1,2.3,27.79,39.56,1.9486,376.7861],
    [13805,1532807633,57.3014,-111.8867,490.0,152.0,94.0,-1.0,2.6,28.22,39.17,1.9477,375.6967],
    [13806,1532807634,57.3014,-111.8856,488.8,150.8,95.9,-0.4,4.6,27.52,39.79,1.9486,376.0759],
    [13807,1532807635,57.3014,-111.8845,488.9,151.9,94.3,-0.5,3.2,27.51,40.41,1.9505,374.8808],
    [13808,1532807636,57.3014,-111.8834,489.4,153.5,92.1,-1.2,1.9,27.31,40.6,1.9495,374.6619],
    [13809,1532807637,57.3014,-111.8823,489.1,153.1,92.4,-0.9,3.0,26.8,40.86,1.9511,376.3642],
    [13810,1532807638,57.3014,-111.8812,488.9,152.9,91.3,-0.1,2.1,27.69,40.65,1.9486,374.4024],
    [13811,1532807639,57.3014,-111.8801,488.4,152.4,91.6,0.1,2.6,27.77,40.13,1.9465,376.3508],
    [13812,1532807640,57.3014,-111.879,488.2,152.2,92.1,0.3,3.0,28.01,40.17,1.9477,376.4848],
    [13813,1532807641,57.3014,-111.8779,488.5,152.5,92.4,0.5,2.9,27.43,40.36,1.9447,374.7205],
    [13814,1532807642,57.3014,-111.8768,489.1,153.1,93.4,0.7,3.2,27.39,39.85,1.9421,377.0473],
    [13815,1532807643,57.3014,-111.8757,490.1,155.2,94.9,0.6,3.6,27.49,39.83,1.9399,377.1059],
    [13816,1532807644,57.3013,-111.8745,490.7,154.7,95.8,0.4,3.8,26.83,39.74,1.939,373.7654],
    [13817,1532807645,57.3013,-111.8734,490.4,154.4,96.7,0.8,4.5,27.29,39.83,1.9394,373.7654],
    [13818,1532807646,57.3013,-111.8723,489.9,152.9,96.3,0.3,4.1,27.53,40.06,1.9362,374.1665],
    [13819,1532807647,57.3013,-111.8712,489.3,152.3,94.9,-0.4,2.9,27.38,40.25,1.9349,375.643],
    [13820,1532807648,57.3012,-111.8701,490.6,154.6,93.6,-0.3,1.9,27.54,39.94,1.9371,375.982],
    [13821,1532807649,57.3012,-111.869,492.0,156.0,94.3,-0.3,3.1,27.53,39.7,1.9411,376.739],
    [13822,1532807650,57.3012,-111.8679,492.1,157.1,94.8,-0.5,3.5,27.29,39.07,1.9397,376.8681],
    [13823,1532807651,57.3012,-111.8668,491.7,157.7,93.4,-0.5,2.3,27.18,38.53,1.937,376.3343],
    [13824,1532807652,57.3012,-111.8657,490.9,157.9,93.8,0.0,3.2,27.26,39.07,1.9323,376.1072],
    [13825,1532807653,57.3012,-111.8646,489.4,157.4,94.0,-0.2,3.8,26.85,38.14,1.9308,376.5741],
    [13826,1532807654,57.3012,-111.8635,487.6,155.6,93.9,-0.2,3.9,27.37,37.76,1.9315,376.7569],
    [13827,1532807655,57.3011,-111.8624,484.9,153.9,94.3,0.1,4.1,27.79,37.25,1.932,376.9905],
    [13828,1532807656,57.3011,-111.8612,482.0,151.0,94.3,0.5,3.7,27.41,37.27,1.9382,376.9967],
    [13829,1532807657,57.3011,-111.8601,479.6,148.6,94.3,0.5,3.8,27.62,37.16,1.9389,377.6225],
    [13830,1532807658,57.3011,-111.859,477.3,146.3,95.2,0.4,4.5,27.38,37.22,1.9381,378.2979],
    [13831,1532807659,57.3011,-111.8578,475.0,144.0,94.9,0.5,4.2,27.41,37.7,1.9336,378.4315],
    [13832,1532807660,57.3011,-111.8567,472.5,141.6,95.1,0.7,4.2,27.87,36.6,1.9335,376.8728],
    [13833,1532807661,57.3011,-111.8556,470.0,140.0,94.8,0.9,3.7,27.46,36.7,1.9326,377.2194],
    [13834,1532807662,57.301,-111.8544,467.8,138.3,94.6,1.4,3.5,27.3,36.73,1.9335,376.7996],
    [13835,1532807663,57.301,-111.8533,466.4,137.4,94.4,1.1,3.1,27.33,37.18,1.9314,375.8251],
    [13836,1532807664,57.301,-111.8521,467.5,139.5,93.1,-0.2,2.1,27.2,36.68,1.9319,376.9316],
    [13837,1532807665,57.301,-111.851,470.2,143.2,92.9,-0.3,2.4,27.04,36.58,1.9337,375.7889],
    [13838,1532807666,57.301,-111.8499,473.5,147.5,92.8,0.0,2.6,27.56,36.74,1.9356,376.1767],
    [13839,1532807667,57.301,-111.8488,477.0,152.0,92.8,-0.7,2.9,27.55,37.56,1.9334,376.0247],
    [13840,1532807668,57.301,-111.8476,479.2,154.2,93.1,-0.8,2.8,27.83,37.56,1.9342,376.0247],
    [13841,1532807669,57.301,-111.8465,480.2,156.2,93.0,-0.7,2.7,27.86,37.01,1.9326,376.5766],
    [13842,1532807670,57.301,-111.8454,480.2,156.2,94.7,-1.1,4.3,27.35,37.88,1.9315,374.7537],
    [13843,1532807671,57.3009,-111.8443,480.1,157.1,94.7,-1.7,3.9,27.06,37.65,1.9322,376.6456],
    [13844,1532807672,57.3009,-111.8432,480.8,157.8,94.1,-2.3,3.2,27.66,37.17,1.9325,375.7383],
    [13845,1532807673,57.3009,-111.842,481.8,159.8,94.1,-2.4,3.4,28.2,36.75,1.9327,375.8143],
    [13846,1532807674,57.3009,-111.841,482.6,160.6,94.7,-1.9,3.9,27.89,37.53,1.9325,374.9538],
    [13847,1532807675,57.3009,-111.8399,482.9,161.9,94.4,-1.8,3.4,26.8,37.81,1.9334,376.5776],
    [13848,1532807676,57.3009,-111.8388,482.7,161.7,94.2,-1.7,3.4,27.44,38.32,1.9328,377.3503],
    [13849,1532807677,57.3009,-111.8376,482.8,161.8,94.5,-1.8,3.7,27.44,37.35,1.933,376.1866],
    [13850,1532807678,57.3008,-111.8365,483.4,162.4,93.2,-1.7,2.9,28.05,36.77,1.933,377.3691],
    [13851,1532807679,57.3008,-111.8354,482.5,161.5,94.7,-1.5,4.6,27.05,36.57,1.9302,376.742],
    [13852,1532807680,57.3008,-111.8343,480.7,159.7,94.4,-1.3,4.3,27.42,36.03,1.9283,377.7618],
    [13853,1532807681,57.3008,-111.8332,478.9,157.9,94.0,-1.1,4.2,27.58,35.35,1.9255,377.9053],
    [13854,1532807682,57.3008,-111.8321,477.6,156.5,94.8,-0.9,5.2,27.45,34.92,1.9265,377.789],
    [13855,1532807683,57.3008,-111.831,476.2,156.2,94.6,-0.7,5.2,27.59,34.71,1.927,378.2573],
    [13856,1532807684,57.3008,-111.8299,475.1,155.1,93.6,-0.3,4.4,27.4,33.8,1.9325,376.9572],
    [13857,1532807685,57.3008,-111.8287,474.7,154.7,92.1,-0.4,3.5,27.71,33.71,1.9345,375.46],
    [13858,1532807686,57.3008,-111.8276,474.2,154.2,91.6,-0.9,3.6,28.25,34.24,1.9343,376.33],
    [13859,1532807687,57.3008,-111.8265,473.3,153.3,91.0,-1.0,3.0,27.51,35.62,1.9297,378.3572],
    [13860,1532807688,57.3009,-111.8254,471.3,151.3,91.7,0.2,4.0,27.29,35.7,1.9273,377.1555],
    [13861,1532807689,57.3009,-111.8242,468.5,148.5,93.4,1.3,5.3,27.57,35.51,1.929,376.1987],
    [13862,1532807690,57.3009,-111.8231,466.0,146.0,92.6,1.7,4.3,27.48,36.23,1.9296,375.708],
    [13863,1532807691,57.3009,-111.8219,464.2,144.5,93.1,1.9,4.7,27.59,35.69,1.9271,377.0259],
    [13864,1532807692,57.3009,-111.8208,462.9,143.9,93.4,2.2,4.8,27.56,35.51,1.9238,377.9951],
    [13865,1532807693,57.3009,-111.8197,462.4,144.4,93.0,2.1,4.6,27.37,35.66,1.9248,377.3773],
    [13866,1532807694,57.3009,-111.8185,461.7,143.9,93.0,1.3,4.8,27.49,35.25,1.9275,376.5381],
    [13867,1532807695,57.3009,-111.8174,461.2,144.2,93.1,1.8,4.7,27.26,35.32,1.9299,375.5786],
    [13868,1532807696,57.3009,-111.8162,461.3,145.3,92.3,2.7,3.6,28.09,35.04,1.9298,376.0382],
    [13869,1532807697,57.3009,-111.8151,461.5,146.5,93.6,2.4,4.8,27.85,35.33,1.9286,375.7221],
    [13870,1532807698,57.301,-111.8139,461.4,146.4,94.0,2.2,4.6,28.4,35.41,1.9284,376.5306],
    [13871,1532807699,57.301,-111.8128,460.9,146.9,93.5,1.8,4.1,27.58,35.55,1.9272,377.7054],
    [13872,1532807700,57.301,-111.8116,460.1,146.1,93.8,1.6,4.5,27.0,35.46,1.9272,377.6358],
    [13873,1532807701,57.301,-111.8105,459.9,145.9,93.3,2.3,4.0,27.89,34.6,1.929,377.3006],
    [13874,1532807702,57.301,-111.8093,459.4,144.4,93.5,2.9,4.2,27.96,34.54,1.9293,376.2959],
    [13875,1532807703,57.301,-111.8082,458.5,142.5,93.6,2.9,4.0,27.42,34.8,1.9297,376.6088],
    [13876,1532807704,57.301,-111.807,456.8,140.8,93.8,3.0,4.2,28.04,34.8,1.9291,376.7499],
    [13877,1532807705,57.3009,-111.8058,455.8,139.8,93.9,2.7,4.3,28.02,35.47,1.9306,376.7499],
    [13878,1532807706,57.3009,-111.8047,455.3,140.3,92.5,2.5,2.9,27.88,35.5,1.9287,376.7272],
    [13879,1532807707,57.3009,-111.8035,454.6,139.6,93.0,3.3,3.9,27.64,36.44,1.924,378.0037],
    [13880,1532807708,57.301,-111.8024,453.7,139.4,93.2,3.3,4.0,27.64,36.28,1.924,377.0418],
    [13881,1532807709,57.301,-111.8012,452.5,138.5,92.4,3.2,3.4,27.76,34.94,1.9269,377.2945],
    [13882,1532807710,57.301,-111.8001,451.4,137.4,92.9,3.2,4.1,27.2,34.77,1.9299,377.5843],
    [13883,1532807711,57.301,-111.7989,450.7,137.7,92.7,3.2,4.2,27.23,34.81,1.9318,374.7148],
    [13884,1532807712,57.301,-111.7977,450.4,137.4,91.9,2.8,3.8,27.28,35.15,1.931,374.7148],
    [13885,1532807713,57.301,-111.7966,450.0,137.8,92.0,2.4,4.1,27.73,35.55,1.9316,376.6214],
    [13886,1532807714,57.301,-111.7954,449.6,137.6,92.2,3.6,4.3,27.62,35.95,1.9312,375.474],
    [13887,1532807715,57.301,-111.7942,449.3,137.3,92.3,3.2,4.3,27.33,36.15,1.9306,375.474],
    [13888,1532807716,57.301,-111.7931,449.1,138.1,92.5,2.6,4.3,27.77,36.7,1.9304,375.8912],
    [13889,1532807717,57.3011,-111.7919,449.9,138.9,92.3,2.4,4.0,27.5,37.04,1.9303,375.8521],
    [13890,1532807718,57.3011,-111.7908,451.4,140.4,91.9,2.7,3.5,26.95,36.82,1.9308,377.7678],
    [13891,1532807719,57.3011,-111.7896,452.4,141.4,92.1,2.9,3.5,27.85,36.07,1.9283,377.1625],
    [13892,1532807720,57.3011,-111.7885,452.8,141.8,92.6,2.5,3.7,28.31,35.71,1.9309,375.4254],
    [13893,1532807721,57.3011,-111.7873,453.4,142.4,93.4,1.9,4.1,27.37,35.84,1.9336,375.4254],
    [13894,1532807722,57.3011,-111.7862,454.7,143.7,93.6,2.0,4.0,27.67,36.08,1.9336,376.451],
    [13895,1532807723,57.3011,-111.785,455.7,145.7,93.7,1.3,4.3,28.39,36.21,1.935,376.4858],
    [13896,1532807724,57.3011,-111.7839,455.5,146.4,94.0,0.7,4.6,27.73,37.27,1.9361,375.2952],
    [13897,1532807725,57.3011,-111.7828,455.1,148.1,94.0,0.8,4.7,27.51,37.65,1.9347,375.027],
    [13898,1532807726,57.3011,-111.7816,454.4,148.4,94.1,1.1,4.7,27.52,37.61,1.9323,377.7667],
    [13899,1532807727,57.3011,-111.7805,453.8,147.8,93.5,2.0,4.0,27.65,37.45,1.9306,376.5298],
    [13900,1532807728,57.3011,-111.7793,453.6,148.6,92.6,2.3,3.2,28.15,36.42,1.9353,375.3286],
    [13901,1532807729,57.3011,-111.7782,452.8,147.8,93.7,2.4,4.4,28.03,35.98,1.9389,376.0808],
    [13902,1532807730,57.3011,-111.7771,451.6,146.6,94.5,2.5,5.1,27.62,36.59,1.9396,375.9723],
    [13903,1532807731,57.3011,-111.7759,450.5,146.4,93.3,1.3,4.4,28.25,36.46,1.9405,377.1839],
    [13904,1532807732,57.3011,-111.7748,449.9,145.9,92.8,0.6,4.6,27.16,37.46,1.9387,377.5703],
    [13905,1532807733,57.3011,-111.7736,449.9,145.9,92.2,1.4,4.5,27.21,37.99,1.9391,377.6196],
    [13906,1532807734,57.3011,-111.7725,450.8,146.8,91.7,1.9,3.9,27.06,38.08,1.9377,376.3624],
    [13907,1532807735,57.3011,-111.7713,451.5,146.5,91.7,2.0,4.1,27.8,37.7,1.9363,376.5984],
    [13908,1532807736,57.3011,-111.7702,451.1,146.1,92.2,1.8,4.3,27.83,37.62,1.939,376.743],
    [13909,1532807737,57.3012,-111.769,450.8,145.8,91.7,1.2,3.7,27.67,37.38,1.9425,375.9549],
    [13910,1532807738,57.3012,-111.7679,451.1,145.1,92.6,1.0,4.5,27.59,37.79,1.942,376.4683],
    [13911,1532807739,57.3012,-111.7667,451.7,145.7,92.1,1.0,3.9,27.67,37.53,1.942,377.171],
    [13912,1532807740,57.3012,-111.7656,451.5,146.5,92.3,1.4,4.2,27.28,37.98,1.9412,376.5209],
    [13913,1532807741,57.3012,-111.7644,450.4,146.7,92.7,2.2,4.4,27.7,38.16,1.9421,376.4837],
    [13914,1532807742,57.3012,-111.7633,449.1,146.8,92.2,2.0,3.9,27.27,38.47,1.9426,375.896],
    [13915,1532807743,57.3012,-111.7621,448.0,147.0,92.3,1.8,4.1,28.41,38.07,1.9428,375.9878],
    [13916,1532807744,57.3013,-111.761,447.5,146.5,92.5,1.8,3.9,28.0,38.65,1.943,376.4367],
    [13917,1532807745,57.3013,-111.7599,448.0,147.0,91.8,1.5,3.0,28.34,37.99,1.9419,377.2807],
    [13918,1532807746,57.3013,-111.7587,449.2,147.2,91.8,0.9,2.7,27.5,38.66,1.9445,377.0043],
    [13919,1532807747,57.3013,-111.7576,450.6,148.6,91.1,0.0,1.6,28.43,38.3,1.9476,375.4582],
    [13920,1532807748,57.3013,-111.7564,451.3,149.3,92.2,-0.4,3.0,27.47,39.09,1.9457,375.3069],
    [13921,1532807749,57.3013,-111.7553,450.3,148.3,93.4,0.1,4.2,27.74,39.35,1.9455,374.719],
    [13922,1532807750,57.3013,-111.7542,449.6,147.6,92.9,0.7,4.2,28.31,39.47,1.9436,375.4283],
    [13923,1532807751,57.3013,-111.753,448.8,146.9,93.7,0.6,5.5,26.95,40.55,1.9455,375.4283],
    [13924,1532807752,57.3013,-111.7519,448.6,146.6,92.7,0.1,4.8,27.32,40.48,1.9444,375.9239],
    [13925,1532807753,57.3013,-111.7507,447.8,146.8,92.7,0.0,5.0,27.63,40.46,1.9426,376.486],
    [13926,1532807754,57.3013,-111.7496,447.0,146.0,92.0,0.1,4.0,27.81,39.87,1.9437,376.226],
    [13927,1532807755,57.3013,-111.7484,446.4,145.4,90.6,0.3,2.7,27.66,39.62,1.9461,375.9504],
    [13928,1532807756,57.3014,-111.7473,446.2,145.9,90.1,0.1,2.4,27.62,39.69,1.9477,374.9888],
    [13929,1532807757,57.3014,-111.7461,446.4,146.4,89.1,-0.4,1.8,27.46,39.95,1.9484,374.3146],
    [13930,1532807758,57.3014,-111.745,446.5,146.5,90.4,-0.8,3.3,28.02,39.37,1.9471,375.8681],
    [13931,1532807759,57.3014,-111.7439,446.7,146.0,90.9,-1.0,3.7,28.04,39.49,1.9465,375.1499],
    [13932,1532807760,57.3015,-111.7427,447.0,146.0,90.6,-1.5,3.4,27.4,40.5,1.9487,374.4149],
    [13933,1532807761,57.3015,-111.7416,447.0,146.0,91.0,-2.4,3.6,27.83,40.55,1.9478,374.4318],
    [13934,1532807762,57.3015,-111.7404,447.5,145.8,91.6,-1.9,3.9,28.07,40.73,1.9478,375.3361],
    [13935,1532807763,57.3015,-111.7393,448.7,146.7,90.7,-1.1,3.0,28.2,40.84,1.9483,373.6424],
    [13936,1532807764,57.3015,-111.7381,449.9,146.9,91.4,-1.0,3.8,27.61,41.43,1.9472,375.7224],
    [13937,1532807765,57.3016,-111.737,450.5,147.5,91.9,-1.3,4.0,27.18,41.56,1.9472,374.5119],
    [13938,1532807766,57.3016,-111.7358,450.8,147.8,91.4,-1.4,3.4,27.72,41.29,1.9471,374.0496],
    [13939,1532807767,57.3016,-111.7347,450.3,148.3,92.1,-1.0,4.2,27.17,41.66,1.9473,376.0264],
    [13940,1532807768,57.3016,-111.7335,449.3,147.3,91.9,-0.7,3.9,27.5,41.45,1.9473,374.3893],
    [13941,1532807769,57.3016,-111.7324,448.3,146.3,92.3,-0.9,4.3,28.12,40.19,1.9473,374.6812],
    [13942,1532807770,57.3016,-111.7313,448.1,147.1,93.0,-1.2,4.8,28.36,39.82,1.9467,374.6812],
    [13943,1532807771,57.3016,-111.7301,449.1,149.1,92.4,-1.1,4.2,27.71,40.69,1.9471,374.8552],
    [13944,1532807772,57.3016,-111.729,450.2,151.3,92.4,-0.7,4.1,27.2,40.33,1.947,374.8267],
    [13945,1532807773,57.3017,-111.7278,450.1,152.1,93.1,-0.5,4.5,27.63,40.67,1.9473,375.6158],
    [13946,1532807774,57.3017,-111.7267,448.8,152.3,94.7,-0.1,5.3,27.6,40.45,1.9472,375.7776],
    [13947,1532807775,57.3017,-111.7255,447.6,152.6,94.5,0.3,4.6,27.94,40.08,1.9471,375.4383],
    [13948,1532807776,57.3016,-111.7244,446.7,152.7,93.6,0.6,3.3,27.81,40.04,1.9471,375.4383],
    [13949,1532807777,57.3016,-111.7233,446.1,153.1,93.2,0.9,3.1,26.9,40.35,1.9492,375.887],
    [13950,1532807778,57.3016,-111.7221,445.8,153.8,93.7,1.4,3.5,27.54,40.83,1.9484,375.887],
    [13951,1532807779,57.3016,-111.721,445.3,153.8,93.7,1.5,3.4,27.46,40.08,1.9484,376.1375],
    [13952,1532807780,57.3016,-111.7199,444.9,153.9,94.0,1.2,3.5,27.65,40.28,1.948,376.4359],
    [13953,1532807781,57.3016,-111.7187,445.2,154.2,94.8,1.1,3.8,27.17,40.05,1.9487,376.4489],
    [13954,1532807782,57.3016,-111.7176,446.4,155.4,95.6,1.0,3.8,27.5,40.34,1.9482,376.2744],
    [13955,1532807783,57.3015,-111.7164,447.3,156.6,94.8,0.3,3.0,27.79,39.42,1.9476,375.6254],
    [13956,1532807784,57.3015,-111.7153,446.9,156.9,95.3,0.2,3.8,27.53,39.73,1.9463,374.2997],
    [13957,1532807785,57.3015,-111.7141,444.7,154.7,95.2,0.8,3.9,28.12,39.87,1.9469,373.7757],
    [13958,1532807786,57.3015,-111.713,442.4,152.4,94.4,0.6,3.2,27.95,40.02,1.946,373.0086],
    [13959,1532807787,57.3015,-111.7119,440.2,150.2,95.3,1.3,4.4,27.54,41.13,1.9439,374.7371],
    [13960,1532807788,57.3014,-111.7107,437.7,147.7,95.3,1.4,4.1,27.57,41.73,1.9427,375.0425],
    [13961,1532807789,57.3014,-111.7095,435.4,145.4,94.4,1.6,3.3,28.1,40.62,1.944,374.9641],
    [13962,1532807790,57.3014,-111.7084,433.4,143.4,96.2,2.5,5.1,28.18,40.09,1.9443,374.8951],
    [13963,1532807791,57.3014,-111.7072,431.6,141.6,95.3,3.1,3.7,27.71,39.84,1.9445,375.5647],
    [13964,1532807792,57.3014,-111.706,430.1,141.1,94.5,3.7,2.7,27.53,39.96,1.9453,374.9268],
    [13965,1532807793,57.3013,-111.7049,429.5,140.5,94.7,4.2,2.8,27.82,39.45,1.9452,375.2658],
    [13966,1532807794,57.3013,-111.7037,428.8,140.8,94.7,4.7,2.8,27.95,38.51,1.9435,376.7596],
    [13967,1532807795,57.3013,-111.7025,428.6,140.6,95.4,5.1,3.7,27.85,38.82,1.9429,375.4541],
    [13968,1532807796,57.3013,-111.7014,428.2,142.2,95.4,5.3,3.5,27.95,38.67,1.9451,375.627],
    [13969,1532807797,57.3012,-111.7002,427.4,142.7,95.3,5.8,3.3,27.52,39.49,1.9446,375.1551],
    [13970,1532807798,57.3012,-111.699,426.2,143.2,95.5,6.0,3.2,28.1,38.34,1.9431,375.1551],
    [13971,1532807799,57.3012,-111.6979,425.2,143.2,95.8,6.0,3.3,27.57,39.09,1.9426,376.0876],
    [13972,1532807800,57.3012,-111.6967,424.4,144.3,96.1,5.8,3.5,27.05,38.98,1.944,374.794],
    [13973,1532807801,57.3011,-111.6954,423.8,145.8,96.5,5.9,3.7,27.63,38.89,1.9458,376.0012],
    [13974,1532807802,57.3011,-111.6943,423.7,146.7,96.6,5.7,3.6,27.17,38.86,1.9478,375.7173],
    [13975,1532807803,57.3011,-111.6931,424.2,149.7,96.3,5.4,3.2,28.17,38.74,1.9474,375.7173],
    [13976,1532807804,57.301,-111.692,425.2,154.1,96.6,5.0,3.5,27.61,40.4,1.9491,375.7087],
    [13977,1532807805,57.301,-111.6908,425.8,164.7,96.5,5.4,3.6,27.3,40.13,1.9488,376.6496],
    [13978,1532807806,57.3009,-111.6896,426.1,174.7,96.8,5.4,3.8,28.16,39.88,1.9469,375.3602],
    [13979,1532807807,57.3009,-111.6884,426.6,182.9,96.3,4.6,3.3,27.81,40.14,1.9454,375.3602],
    [13980,1532807808,57.3009,-111.6873,427.3,187.1,96.6,4.4,3.8,27.46,40.47,1.9462,376.5202],
    [13981,1532807809,57.3008,-111.6861,427.7,188.1,96.9,4.0,4.2,27.39,40.39,1.9471,376.4176],
    [13982,1532807810,57.3008,-111.685,428.0,188.3,96.2,3.7,4.1,27.46,40.89,1.9489,375.8116],
    [13983,1532807811,57.3008,-111.6839,428.3,184.6,95.5,3.5,4.2,27.52,40.17,1.9483,376.5096],
    [13984,1532807812,57.3008,-111.6827,428.7,183.8,93.8,3.1,3.6,28.24,39.84,1.9464,376.3337],
    [13985,1532807813,57.3008,-111.6815,428.9,182.2,93.0,3.1,4.1,26.94,40.44,1.9469,376.2929],
    [13986,1532807814,57.3008,-111.6804,428.7,178.1,91.7,3.0,3.8,27.39,40.56,1.9477,376.4939],
    [13987,1532807815,57.3008,-111.6792,428.5,179.2,90.1,3.2,3.4,27.63,39.99,1.9472,376.4939],
    [13988,1532807816,57.3008,-111.6781,428.0,183.5,89.7,3.3,4.4,27.77,39.91,1.9462,375.8959],
    [13989,1532807817,57.3009,-111.6769,427.8,188.6,88.4,3.2,5.1,27.16,41.14,1.9447,376.3754],
    [13990,1532807818,57.301,-111.6758,428.0,191.1,83.8,3.5,4.0,27.33,41.09,1.9459,376.014],
    [13991,1532807819,57.3011,-111.6747,427.5,191.5,79.5,3.7,4.0,27.31,40.28,1.9484,374.915],
    [13992,1532807820,57.3013,-111.6736,426.4,189.4,73.8,4.2,3.9,27.4,40.42,1.9473,375.4958],
    [13993,1532807821,57.3015,-111.6725,426.2,189.2,67.8,4.4,4.4,27.17,40.28,1.9455,375.1307],
    [13994,1532807822,57.3018,-111.6714,426.3,189.3,62.8,4.0,5.4,27.44,40.92,1.9459,375.1307],
    [13995,1532807823,57.3021,-111.6704,426.5,189.5,57.6,3.6,5.5,27.41,40.16,1.9472,376.1034],
    [13996,1532807824,57.3025,-111.6695,426.5,189.5,52.3,3.2,5.3,27.82,39.88,1.9475,376.7901],
    [13997,1532807825,57.3029,-111.6686,426.5,189.5,47.3,2.7,5.4,27.1,40.22,1.9469,375.9637],
    [13998,1532807826,57.3034,-111.6678,427.0,190.0,42.0,2.5,5.4,27.36,40.35,1.9477,376.5453],
    [13999,1532807827,57.3039,-111.6671,428.2,191.2,36.9,2.5,5.4,27.54,40.54,1.9497,375.5447],
    [14000,1532807828,57.3044,-111.6664,429.7,192.2,31.9,2.3,5.2,27.85,39.69,1.95,375.4191],
    [14001,1532807829,57.305,-111.6659,431.3,192.2,26.9,2.1,4.9,27.73,40.75,1.9514,373.9832],
    [14002,1532807830,57.3055,-111.6654,433.1,191.1,22.2,1.5,4.9,27.42,41.42,1.9511,373.9832],
    [14003,1532807831,57.3061,-111.665,434.2,187.5,17.4,1.6,4.8,27.11,41.52,1.9512,374.7693],
    [14004,1532807832,57.3067,-111.6647,434.2,180.6,12.4,2.1,4.4,26.84,41.71,1.9498,375.542],
    [14005,1532807833,57.3074,-111.6645,433.7,178.4,8.3,2.2,4.3,26.78,42.09,1.9499,375.542],
    [14006,1532807834,57.308,-111.6643,433.4,173.7,4.5,2.5,4.8,27.11,42.95,1.9516,375.059],
    [14007,1532807835,57.3086,-111.6642,433.2,172.6,361.6,2.5,4.9,27.12,42.43,1.9502,376.048],
    [14008,1532807836,57.3092,-111.6642,433.9,171.8,359.3,2.2,4.7,26.6,42.6,1.9483,376.048],
    [14009,1532807837,57.3098,-111.6642,436.1,172.5,357.9,1.8,4.4,27.05,42.32,1.9473,376.812],
    [14010,1532807838,57.3104,-111.6642,438.0,173.3,356.9,2.2,4.2,27.24,42.37,1.9485,375.7251],
    [14011,1532807839,57.3111,-111.6642,438.6,174.0,356.7,2.2,4.2,27.15,41.82,1.9483,375.5423],
    [14012,1532807840,57.3117,-111.6643,438.1,174.7,357.5,1.8,4.2,26.96,42.0,1.9494,375.5423],
    [14013,1532807841,57.3123,-111.6643,436.6,173.0,357.6,2.7,4.4,27.33,42.16,1.95,375.7682],
    [14014,1532807842,57.3129,-111.6643,435.3,169.9,358.9,2.3,4.5,27.25,42.0,1.9497,376.3082],
    [14015,1532807843,57.3135,-111.6642,434.0,167.8,361.7,0.4,4.7,27.16,42.39,1.9462,374.7655],
    [14016,1532807844,57.3142,-111.6642,432.7,166.2,2.5,0.4,4.6,26.83,41.78,1.9421,374.7655],
    [14017,1532807845,57.3148,-111.6641,431.9,164.3,362.0,1.0,4.6,26.78,41.58,1.9447,376.7705],
    [14018,1532807846,57.3154,-111.6641,431.6,164.0,2.7,0.5,4.5,26.64,41.19,1.9455,376.7705],
    [14019,1532807847,57.316,-111.664,432.0,163.6,362.2,1.2,4.4,27.09,40.63,1.9477,376.0588],
    [14020,1532807848,57.3166,-111.664,432.8,164.4,361.1,2.1,4.4,27.25,40.83,1.9517,376.0588],
    [14021,1532807849,57.3173,-111.6639,433.8,165.1,361.2,1.7,4.6,27.46,40.99,1.9482,375.7337],
    [14022,1532807850,57.3179,-111.6639,434.4,164.4,360.9,1.7,4.4,27.83,40.72,1.9475,376.1681],
    [14023,1532807851,57.3185,-111.6638,434.8,163.7,360.5,1.7,4.2,27.28,41.2,1.9458,376.1681],
    [14024,1532807852,57.3191,-111.6638,435.0,164.0,360.4,1.3,4.3,27.69,40.52,1.942,376.0142],
    [14025,1532807853,57.3197,-111.6638,435.5,164.5,360.1,1.2,4.2,27.36,40.8,1.941,375.996],
    [14026,1532807854,57.3204,-111.6637,436.2,165.2,359.9,0.9,4.3,27.79,39.46,1.9412,376.048],
    [14027,1532807855,57.321,-111.6637,436.7,165.7,359.3,1.1,4.2,26.87,39.61,1.9397,377.2687],
    [14028,1532807856,57.3216,-111.6637,437.2,167.2,358.8,1.2,4.2,27.15,39.06,1.9405,377.0633],
    [14029,1532807857,57.3222,-111.6637,437.6,168.6,358.2,1.7,4.1,26.79,38.8,1.9408,377.3291],
    [14030,1532807858,57.3228,-111.6637,438.0,169.0,357.5,2.1,4.2,27.17,38.86,1.9421,375.8202],
    [14031,1532807859,57.3235,-111.6638,438.2,170.2,358.2,1.5,3.9,26.87,38.5,1.948,376.3178],
    [14032,1532807860,57.3241,-111.6638,438.8,171.8,357.7,2.0,4.0,27.2,38.95,1.9483,376.9977],
    [14033,1532807861,57.3247,-111.6638,439.6,173.6,358.0,1.8,4.0,26.83,39.39,1.9491,377.0166],
    [14034,1532807862,57.3253,-111.6638,440.1,174.1,358.2,1.8,3.9,27.18,39.27,1.9479,376.8418],
    [14035,1532807863,57.3259,-111.6638,440.6,174.7,358.1,1.9,3.8,27.58,39.3,1.9506,376.3511],
    [14036,1532807864,57.3265,-111.6638,441.0,174.0,358.3,1.6,3.9,27.16,40.48,1.9505,376.4242],
    [14037,1532807865,57.3271,-111.6638,441.4,174.4,358.4,1.2,4.1,27.05,40.71,1.953,376.3577],
    [14038,1532807866,57.3278,-111.6638,441.8,174.7,358.2,1.1,4.5,27.07,40.94,1.9513,376.7175],
    [14039,1532807867,57.3284,-111.6638,442.4,176.4,357.7,1.5,4.7,26.48,41.48,1.9468,374.3646],
    [14040,1532807868,57.329,-111.6638,442.7,177.0,357.6,1.4,4.3,27.13,41.34,1.9413,376.1554],
    [14041,1532807869,57.3296,-111.6639,442.9,177.9,357.7,1.2,4.1,27.33,41.1,1.9404,378.0652],
    [14042,1532807870,57.3302,-111.6639,442.9,181.3,357.6,1.3,4.2,27.69,39.93,1.9447,376.3986],
    [14043,1532807871,57.3308,-111.6639,442.9,181.6,357.6,1.4,4.3,27.38,39.57,1.9487,376.801],
    [14044,1532807872,57.3314,-111.6639,443.1,181.5,357.7,1.3,4.5,27.16,39.35,1.9474,376.3945],
    [14045,1532807873,57.332,-111.664,443.4,181.8,357.7,1.3,4.7,27.81,38.82,1.9468,375.7079],
    [14046,1532807874,57.3327,-111.664,443.5,181.2,358.5,0.7,4.5,27.33,40.3,1.9451,377.2022],
    [14047,1532807875,57.3333,-111.664,443.4,180.6,358.4,1.1,4.1,27.78,39.32,1.9446,377.0166],
    [14048,1532807876,57.3339,-111.664,443.1,179.8,358.4,1.4,3.7,27.21,39.78,1.9484,375.8538],
    [14049,1532807877,57.3345,-111.664,442.9,179.3,358.5,1.4,3.9,27.11,39.81,1.9496,376.3952],
    [14050,1532807878,57.3351,-111.664,442.8,178.5,358.6,1.3,3.5,27.16,39.86,1.9497,375.3358],
    [14051,1532807879,57.3357,-111.664,442.8,178.4,358.6,1.4,3.2,27.49,40.35,1.9499,375.3358],
    [14052,1532807880,57.3363,-111.664,442.8,179.2,358.7,1.1,3.2,27.44,40.73,1.9486,375.608],
    [14053,1532807881,57.337,-111.664,442.9,181.3,359.2,0.5,3.2,27.69,40.77,1.9514,376.7482],
    [14054,1532807882,57.3376,-111.664,443.3,183.5,358.6,1.1,3.1,27.79,40.87,1.9554,375.5659],
    [14055,1532807883,57.3382,-111.664,443.8,185.9,358.0,1.5,2.4,27.43,41.24,1.9509,376.1164],
    [14056,1532807884,57.3388,-111.6641,444.5,188.2,358.3,1.2,1.3,27.21,42.26,1.9435,375.1071],
    [14057,1532807885,57.3394,-111.6641,445.3,190.9,357.9,1.5,1.4,27.38,41.37,1.9479,374.7583],
    [14058,1532807886,57.34,-111.6641,445.9,193.5,357.8,1.7,1.4,27.11,41.44,1.9517,374.3255],
    [14059,1532807887,57.3406,-111.6641,446.2,196.1,357.5,2.0,1.6,27.15,41.36,1.9546,375.644],
    [14060,1532807888,57.3412,-111.6641,446.2,198.3,357.5,1.9,1.5,27.07,41.93,1.952,375.6321],
    [14061,1532807889,57.3418,-111.6641,446.0,200.4,357.6,1.8,0.9,27.14,42.75,1.9501,375.7097],
    [14062,1532807890,57.3425,-111.6642,445.7,202.5,357.4,2.0,1.3,26.62,42.57,1.9475,375.9889],
    [14063,1532807891,57.3431,-111.6642,445.1,205.6,357.2,2.2,1.4,27.07,42.22,1.9488,375.8379],
    [14064,1532807892,57.3437,-111.6642,444.4,206.1,357.2,2.4,1.2,26.83,42.16,1.9485,375.1948],
    [14065,1532807893,57.3443,-111.6642,443.9,206.6,357.0,2.5,1.0,27.21,41.78,1.9514,375.5013],
    [14066,1532807894,57.3449,-111.6642,443.5,207.2,357.3,2.1,0.9,27.28,41.61,1.9489,376.7938],
    [14067,1532807895,57.3455,-111.6642,443.3,207.3,357.5,1.8,1.0,27.65,41.08,1.9459,375.614],
    [14068,1532807896,57.3461,-111.6643,443.3,207.9,357.2,2.0,1.0,27.04,41.74,1.9367,376.0216],
    [14069,1532807897,57.3467,-111.6643,443.4,208.4,356.8,2.2,0.8,26.9,40.89,1.9407,376.3058],
    [14070,1532807898,57.3474,-111.6643,443.5,208.6,356.9,2.1,0.9,27.4,39.65,1.9425,376.6584],
    [14071,1532807899,57.348,-111.6643,443.7,208.7,356.9,1.9,0.8,27.69,39.01,1.9436,377.5439],
    [14072,1532807900,57.3486,-111.6644,443.7,208.7,356.7,2.2,0.6,27.47,38.85,1.9504,375.1383],
    [14073,1532807901,57.3492,-111.6644,443.4,208.4,356.4,2.3,0.6,27.17,39.65,1.9539,375.6589],
    [14074,1532807902,57.3498,-111.6644,443.0,207.7,356.6,2.1,0.7,27.53,39.36,1.953,374.5036],
    [14075,1532807903,57.3504,-111.6645,442.4,206.4,356.6,2.0,1.0,26.83,40.35,1.9523,375.6493],
    [14076,1532807904,57.351,-111.6645,441.9,206.9,356.5,2.1,1.1,27.01,40.96,1.9563,375.8146],
    [14077,1532807905,57.3516,-111.6645,441.8,206.5,356.0,2.5,1.2,27.18,41.59,1.955,375.8146],
    [14078,1532807906,57.3523,-111.6646,442.1,206.1,356.4,2.0,1.0,27.15,41.57,1.9505,375.797],
    [14079,1532807907,57.3529,-111.6646,442.6,206.6,356.4,2.0,1.4,26.99,41.47,1.9468,376.4587],
    [14080,1532807908,57.3535,-111.6646,442.8,207.8,356.2,2.2,1.8,27.25,41.27,1.9456,376.0422],
    [14081,1532807909,57.3541,-111.6647,442.6,207.6,356.8,1.6,2.2,27.02,40.78,1.9462,375.5022],
    [14082,1532807910,57.3547,-111.6647,442.3,208.3,357.1,1.6,2.6,27.57,40.09,1.9493,375.2594],
    [14083,1532807911,57.3553,-111.6647,441.8,207.8,357.3,1.3,2.8,27.09,40.53,1.9504,376.4012],
    [14084,1532807912,57.3559,-111.6648,441.1,207.1,358.1,0.8,2.8,26.63,39.83,1.9528,375.4239],
    [14085,1532807913,57.3566,-111.6648,441.0,208.0,358.3,0.9,2.7,27.28,39.69,1.9501,376.4974],
    [14086,1532807914,57.3572,-111.6648,441.0,208.0,358.2,1.1,2.5,27.29,40.55,1.9533,376.4926],
    [14087,1532807915,57.3578,-111.6648,440.4,207.4,357.8,1.5,2.6,26.76,39.91,1.9521,375.5222],
    [14088,1532807916,57.3584,-111.6648,438.5,205.5,357.8,1.2,2.8,27.01,40.19,1.949,376.0313],
    [14089,1532807917,57.359,-111.6649,436.1,203.1,357.4,1.6,3.2,26.63,40.22,1.9531,376.5557],
    [14090,1532807918,57.3597,-111.6649,434.0,201.3,357.0,1.8,3.4,27.11,40.5,1.9563,374.8763],
    [14091,1532807919,57.3603,-111.6649,432.3,200.3,357.4,1.4,3.6,27.77,40.42,1.9566,374.8763],
    [14092,1532807920,57.3609,-111.6649,430.9,198.9,357.5,1.3,3.9,27.22,41.81,1.957,373.9442],
    [14093,1532807921,57.3616,-111.665,430.1,198.1,358.0,0.8,3.9,27.08,41.71,1.9577,375.9315],
    [14094,1532807922,57.3622,-111.665,429.5,197.5,357.8,1.3,3.8,27.19,42.86,1.96,374.6394],
    [14095,1532807923,57.3628,-111.665,429.0,197.0,357.6,1.7,3.7,27.38,42.88,1.96,375.4449],
    [14096,1532807924,57.3635,-111.665,428.3,196.3,357.8,1.6,3.2,27.41,43.15,1.9619,375.4449],
    [14097,1532807925,57.3641,-111.665,427.5,195.5,358.2,1.2,3.2,27.22,43.59,1.9567,375.8025],
    [14098,1532807926,57.3647,-111.6651,426.5,194.5,358.1,1.2,3.2,27.24,43.92,1.9553,374.248],
    [14099,1532807927,57.3654,-111.6651,425.7,193.7,357.1,2.2,2.9,27.19,43.4,1.9539,374.6973],
    [14100,1532807928,57.366,-111.6651,425.1,193.1,356.7,2.4,3.3,27.07,43.05,1.9561,374.5076],
    [14101,1532807929,57.3666,-111.6651,424.0,192.0,357.0,2.0,3.9,26.91,42.85,1.9574,375.4555],
    [14102,1532807930,57.3673,-111.6652,423.4,191.4,357.3,1.9,3.8,27.66,42.17,1.9579,374.6343],
    [14103,1532807931,57.3679,-111.6652,422.7,190.7,357.3,2.0,3.5,27.03,42.6,1.9551,374.851],
    [14104,1532807932,57.3686,-111.6652,422.2,190.2,357.7,1.7,3.6,27.1,42.75,1.9568,375.7574],
    [14105,1532807933,57.3692,-111.6652,422.0,189.3,357.8,1.4,3.6,27.11,42.79,1.9579,373.8544],
    [14106,1532807934,57.3698,-111.6652,422.0,189.3,357.8,1.4,3.7,27.39,42.39,1.9568,374.6686],
    [14107,1532807935,57.3705,-111.6653,422.1,189.1,357.2,1.8,3.8,27.28,43.78,1.9589,374.7308],
    [14108,1532807936,57.3711,-111.6653,422.6,189.6,357.0,1.5,3.6,26.82,43.73,1.9605,374.5938],
    [14109,1532807937,57.3718,-111.6653,423.1,190.1,357.1,1.2,4.0,26.88,43.74,1.9599,375.846],
    [14110,1532807938,57.3724,-111.6654,424.2,191.2,357.3,1.3,4.4,27.37,43.6,1.9505,375.6501],
    [14111,1532807939,57.373,-111.6654,425.5,192.5,357.1,2.1,4.2,27.47,42.71,1.9487,376.2873],
    [14112,1532807940,57.3737,-111.6654,427.1,193.1,357.3,2.6,3.6,27.62,42.31,1.9538,373.344],
    [14113,1532807941,57.3743,-111.6654,428.5,194.5,358.0,2.2,3.2,27.92,41.5,1.9592,374.3057],
    [14114,1532807942,57.3749,-111.6654,429.4,195.1,358.7,1.8,3.5,27.34,41.87,1.9572,374.3674],
    [14115,1532807943,57.3756,-111.6654,429.6,193.5,358.8,1.7,3.7,26.85,42.17,1.9579,374.3674],
    [14116,1532807944,57.3762,-111.6654,428.9,191.9,358.5,1.9,4.1,26.56,42.63,1.9536,375.5579],
    [14117,1532807945,57.3768,-111.6654,427.7,188.1,358.4,1.6,4.1,27.02,42.66,1.9569,374.5508],
    [14118,1532807946,57.3775,-111.6654,426.6,184.5,358.3,1.6,3.8,27.14,43.28,1.9579,374.7061],
    [14119,1532807947,57.3781,-111.6654,425.7,181.4,358.0,1.6,3.6,27.36,42.51,1.9576,374.5729],
    [14120,1532807948,57.3787,-111.6654,425.5,179.5,357.9,1.4,3.6,27.16,43.63,1.9573,376.3686],
    [14121,1532807949,57.3794,-111.6654,425.4,176.7,358.4,1.0,3.6,27.2,42.58,1.956,375.286],
    [14122,1532807950,57.38,-111.6655,425.2,174.1,358.1,1.4,3.3,27.14,42.57,1.9582,374.9737],
    [14123,1532807951,57.3806,-111.6655,425.0,172.9,358.1,1.4,3.5,26.84,42.62,1.9609,374.357],
    [14124,1532807952,57.3813,-111.6655,424.5,172.5,358.6,1.0,3.8,27.99,42.03,1.9617,373.9952],
    [14125,1532807953,57.3819,-111.6655,423.9,170.9,359.2,0.9,3.6,27.23,43.35,1.9614,373.9944],
    [14126,1532807954,57.3826,-111.6655,423.5,169.5,360.7,0.3,3.9,27.23,44.05,1.9618,373.8803],
    [14127,1532807955,57.3832,-111.6654,423.0,169.0,362.0,0.1,5.3,27.5,43.22,1.9611,375.4482],
    [14128,1532807956,57.3838,-111.6654,422.1,167.1,362.1,0.9,5.8,26.53,43.77,1.9603,374.6631],
    [14129,1532807957,57.3845,-111.6653,421.1,167.1,362.4,1.0,6.5,27.44,43.27,1.9618,374.0083],
    [14130,1532807958,57.3851,-111.6653,420.3,167.6,3.2,0.4,6.8,27.37,43.68,1.9614,374.7437],
    [14131,1532807959,57.3858,-111.6652,419.2,166.6,3.0,0.7,7.1,27.61,43.46,1.9602,374.066],
    [14132,1532807960,57.3864,-111.6651,418.6,164.8,2.5,1.4,7.0,26.86,43.62,1.9594,374.066],
    [14133,1532807961,57.387,-111.6651,418.4,164.4,2.8,1.2,6.4,27.51,44.05,1.9606,375.0767],
    [14134,1532807962,57.3877,-111.665,418.3,164.0,362.1,1.9,6.2,27.36,43.6,1.9549,374.0295],
    [14135,1532807963,57.3883,-111.6649,418.2,162.9,362.1,1.3,6.3,26.67,43.62,1.956,374.6755],
    [14136,1532807964,57.389,-111.6649,417.9,161.7,2.9,0.6,5.9,27.54,42.63,1.9588,374.2763],
    [14137,1532807965,57.3896,-111.6648,417.5,161.2,361.9,1.5,5.7,27.41,42.94,1.9592,374.0822],
    [14138,1532807966,57.3903,-111.6647,417.4,160.1,362.3,0.9,5.6,27.08,43.81,1.9599,373.9831],
    [14139,1532807967,57.3909,-111.6647,417.9,159.9,2.8,0.3,5.0,27.28,43.89,1.9589,374.438],
    [14140,1532807968,57.3915,-111.6646,419.0,160.7,362.4,0.7,5.1,27.29,44.61,1.9497,375.1782],
    [14141,1532807969,57.3922,-111.6646,420.4,161.4,362.2,0.7,5.4,26.64,44.15,1.9473,375.7214],
    [14142,1532807970,57.3928,-111.6645,421.9,160.9,362.2,0.6,4.6,27.01,43.17,1.9456,375.765],
    [14143,1532807971,57.3935,-111.6645,422.7,160.7,362.1,0.8,5.5,27.19,42.68,1.9537,378.6387],
    [14144,1532807972,57.3941,-111.6644,422.5,159.4,361.0,1.9,6.3,27.54,41.01,1.9577,378.6387],
    [14145,1532807973,57.3947,-111.6644,421.8,158.8,360.5,2.1,6.2,26.54,40.17,1.9607,378.3862],
    [14146,1532807974,57.3953,-111.6643,421.7,158.7,361.3,1.0,5.5,26.88,39.8,1.9738,384.5031],
    [14147,1532807975,57.396,-111.6643,421.7,158.7,361.6,0.4,5.3,27.81,39.23,1.9866,385.8572],
    [14148,1532807976,57.3966,-111.6643,422.0,159.0,361.2,0.4,5.4,27.21,39.38,1.9899,385.8572],
    [14149,1532807977,57.3973,-111.6642,422.2,159.1,360.6,1.0,5.4,27.79,38.59,1.9978,386.0107],
    [14150,1532807978,57.3979,-111.6642,422.1,158.1,359.4,2.0,5.4,27.28,38.84,1.997,385.8047],
    [14151,1532807979,57.3985,-111.6642,421.4,157.4,359.6,1.7,5.1,27.22,39.31,2.0361,383.5257],
    [14152,1532807980,57.3992,-111.6642,420.6,157.3,360.1,0.5,5.0,27.21,38.88,2.0598,382.0102],
    [14153,1532807981,57.3998,-111.6642,420.1,157.1,359.9,-0.1,5.6,27.01,38.33,2.0496,381.2157],
    [14154,1532807982,57.4004,-111.6642,419.7,155.6,357.0,1.0,5.8,27.3,37.31,2.0386,382.949],
    [14155,1532807983,57.4011,-111.6642,419.1,155.1,353.4,1.6,5.4,26.91,37.16,2.0573,379.0514],
    [14156,1532807984,57.4017,-111.6644,419.7,154.6,349.7,1.0,5.3,27.3,36.4,2.0561,379.0514],
    [14157,1532807985,57.4023,-111.6646,422.0,156.7,346.0,0.1,5.0,27.34,36.31,2.0584,380.5129],
    [14158,1532807986,57.4029,-111.6649,424.8,158.8,341.7,0.3,4.9,27.79,35.3,2.0513,380.1432],
    [14159,1532807987,57.4035,-111.6653,427.3,160.6,337.7,0.5,4.5,27.24,35.89,2.0393,379.8069],
    [14160,1532807988,57.4041,-111.6657,429.7,162.7,334.2,0.6,3.8,27.22,36.36,2.0314,379.5087],
    [14161,1532807989,57.4047,-111.6662,431.8,163.8,330.2,0.7,3.8,27.18,36.37,2.0259,379.8798],
    [14162,1532807990,57.4052,-111.6668,433.5,165.5,325.8,1.0,4.1,27.3,37.04,2.0235,378.7497],
    [14163,1532807991,57.4057,-111.6674,434.5,166.8,322.1,1.2,3.8,27.23,37.12,2.0208,379.6882],
    [14164,1532807992,57.4062,-111.6681,434.3,172.4,318.4,1.2,3.6,27.02,38.04,2.0164,378.7629],
    [14165,1532807993,57.4067,-111.6688,434.3,179.4,314.7,0.8,3.5,27.22,38.45,2.0071,379.569],
    [14166,1532807994,57.4071,-111.6696,434.0,188.0,311.7,0.1,3.7,27.52,38.22,2.0076,378.8042],
    [14167,1532807995,57.4075,-111.6704,433.1,184.5,309.0,-0.8,4.0,27.21,38.88,2.0076,379.5311],
    [14168,1532807996,57.4079,-111.6713,431.8,172.8,304.2,-0.9,5.5,28.04,38.13,2.0157,380.1022],
    [14169,1532807997,57.4082,-111.6722,430.3,165.9,300.5,-1.5,5.6,27.04,39.22,2.0131,380.1502],
    [14170,1532807998,57.4085,-111.6731,429.3,162.5,296.6,-1.7,5.3,27.2,38.94,2.0092,378.9499],
    [14171,1532807999,57.4088,-111.6741,428.8,161.8,292.9,-2.1,4.8,26.88,39.32,2.008,378.8293],
    [14172,1532808000,57.4091,-111.6751,429.2,161.9,289.4,-3.0,4.0,27.97,38.49,2.0098,378.4555],
    [14173,1532808001,57.4093,-111.6761,430.4,162.4,287.0,-4.0,2.2,27.15,39.65,2.0066,378.614],
    [14174,1532808002,57.4094,-111.6772,432.2,163.2,282.3,-3.1,3.5,27.68,38.86,2.0025,380.503],
    [14175,1532808003,57.4095,-111.6782,433.4,164.1,276.9,-2.8,5.4,27.12,39.13,1.9974,379.0072],
    [14176,1532808004,57.4096,-111.6793,434.7,164.7,274.8,-2.4,3.7,27.72,39.02,1.9957,378.3163],
    [14177,1532808005,57.4097,-111.6804,437.1,166.1,272.5,-2.2,2.9,27.85,38.74,1.9971,378.3163],
    [14178,1532808006,57.4097,-111.6814,438.8,167.3,269.4,-1.8,4.3,27.33,39.26,1.9938,379.0464],
    [14179,1532808007,57.4098,-111.6825,439.6,167.6,267.9,-1.9,4.9,27.42,39.18,1.9925,380.1098],
    [14180,1532808008,57.4098,-111.6835,439.7,166.7,268.5,-1.4,4.0,27.01,39.85,1.997,378.9202],
    [14181,1532808009,57.4098,-111.6846,439.7,166.7,268.9,-1.3,2.9,27.14,39.51,1.998,378.4817],
    [14182,1532808010,57.4098,-111.6857,439.9,165.8,267.8,-1.5,3.2,27.16,40.04,1.9957,378.3703],
    [14183,1532808011,57.4098,-111.6867,440.6,165.7,266.6,-0.8,3.4,27.27,40.34,2.0,378.4338],
    [14184,1532808012,57.4098,-111.6878,441.5,165.5,266.4,0.0,3.1,27.79,39.69,2.0049,378.4871],
    [14185,1532808013,57.4098,-111.6889,442.6,166.3,265.6,-0.1,3.4,27.77,39.69,2.0067,378.8978],
    [14186,1532808014,57.4098,-111.6899,443.8,166.8,264.8,-0.4,4.0,27.71,39.86,2.0075,378.3965],
    [14187,1532808015,57.4098,-111.691,445.3,167.3,264.3,-0.2,4.5,27.36,40.05,2.0011,377.758],
    [14188,1532808016,57.4098,-111.692,447.0,168.7,264.0,0.0,4.9,27.55,40.29,2.005,377.6477],
    [14189,1532808017,57.4097,-111.6931,448.5,169.5,264.2,-0.3,4.6,27.79,39.99,2.0037,376.8979],
    [14190,1532808018,57.4097,-111.6941,450.1,170.2,264.4,-0.7,4.4,27.06,40.54,2.002,377.1869],
    [14191,1532808019,57.4097,-111.6951,451.9,170.2,264.5,-1.1,4.2,27.81,40.21,2.003,378.3729],
    [14192,1532808020,57.4097,-111.6961,453.5,170.5,264.7,-1.4,4.2,27.25,40.68,2.0046,377.581],
    [14193,1532808021,57.4097,-111.6972,455.1,171.1,265.0,-1.2,3.9,27.27,40.9,1.9993,377.4199],
    [14194,1532808022,57.4097,-111.6982,456.4,170.1,265.4,-1.0,3.6,27.13,41.24,1.9972,376.7126],
    [14195,1532808023,57.4097,-111.6992,457.7,169.0,265.2,-0.8,4.0,27.08,40.89,1.9994,376.5427],
    [14196,1532808024,57.4097,-111.7003,458.7,168.7,265.3,-0.8,4.1,27.24,41.2,2.009,376.3156],
    [14197,1532808025,57.4096,-111.7013,459.5,167.5,266.1,-0.4,3.5,27.23,40.89,1.9991,377.6094],
    [14198,1532808026,57.4096,-111.7023,460.9,166.5,266.1,-0.1,3.5,27.14,41.16,2.0015,377.6041],
    [14199,1532808027,57.4096,-111.7033,462.9,165.9,265.7,0.2,3.6,27.25,41.51,2.0017,377.6564],
    [14200,1532808028,57.4096,-111.7043,464.4,164.4,265.3,0.4,3.8,27.13,40.96,2.0032,376.0526],
    [14201,1532808029,57.4096,-111.7053,465.1,162.1,265.3,0.5,3.6,27.53,40.82,2.0011,378.2334],
    [14202,1532808030,57.4096,-111.7063,465.9,160.9,266.5,1.0,2.7,27.08,40.9,1.9949,378.4394],
    [14203,1532808031,57.4096,-111.7073,466.8,159.8,265.6,2.1,3.8,26.91,41.22,1.9906,376.4105],
    [14204,1532808032,57.4096,-111.7083,468.0,161.3,263.9,3.1,5.3,26.84,41.24,1.9925,376.7738],
    [14205,1532808033,57.4096,-111.7093,468.8,163.8,264.6,4.5,4.4,26.56,41.78,1.9977,376.8418],
    [14206,1532808034,57.4096,-111.7103,469.2,164.2,265.3,5.0,3.7,27.26,42.29,2.004,377.0938],
    [14207,1532808035,57.4095,-111.7113,469.4,163.4,264.7,4.2,4.3,27.04,43.28,2.0041,377.0581],
    [14208,1532808036,57.4095,-111.7123,469.2,163.3,263.7,4.5,5.3,26.9,42.66,1.998,377.7984],
    [14209,1532808037,57.4095,-111.7133,469.1,166.5,262.9,4.6,5.7,27.81,41.85,1.9989,377.7625],
    [14210,1532808038,57.4095,-111.7143,469.1,171.6,262.8,4.5,5.3,26.82,41.9,2.0056,377.3288],
    [14211,1532808039,57.4095,-111.7153,469.3,176.9,262.2,4.5,5.8,26.83,41.61,2.0059,377.2918],
    [14212,1532808040,57.4094,-111.7163,469.4,181.8,261.8,4.6,5.9,27.19,41.53,2.0056,378.1784],
    [14213,1532808041,57.4094,-111.7173,469.3,180.6,261.9,5.1,6.2,26.85,42.13,2.0018,378.5535],
    [14214,1532808042,57.4094,-111.7183,468.9,180.0,262.1,4.7,6.1,26.66,42.0,2.0,377.7845],
    [14215,1532808043,57.4093,-111.7193,468.5,176.9,264.8,4.8,3.3,26.76,41.54,2.0033,378.6207],
    [14216,1532808044,57.4093,-111.7203,467.6,168.6,264.9,5.1,3.5,27.05,41.26,2.0036,377.7831],
    [14217,1532808045,57.4093,-111.7213,467.4,165.4,262.9,4.7,5.8,27.51,40.4,2.0032,377.7831],
    [14218,1532808046,57.4093,-111.7224,467.9,163.1,263.9,5.0,4.9,27.19,40.79,2.0059,377.8431],
    [14219,1532808047,57.4093,-111.7234,469.4,163.7,265.8,5.4,3.7,27.44,40.25,2.0114,376.7646],
    [14220,1532808048,57.4092,-111.7244,471.7,165.8,264.9,5.3,5.3,27.14,40.82,2.0141,375.5582],
    [14221,1532808049,57.4092,-111.7254,474.4,167.6,265.4,5.4,4.8,27.24,39.84,2.0158,377.4479],
    [14222,1532808050,57.4092,-111.7264,477.2,170.5,266.5,6.1,3.8,27.9,39.75,2.0148,376.9798],
    [14223,1532808051,57.4092,-111.7274,480.0,173.4,265.6,5.9,4.4,27.41,40.18,2.0163,376.4037],
    [14224,1532808052,57.4092,-111.7284,482.6,175.9,265.8,6.2,4.0,27.45,40.47,2.0163,377.4013],
    [14225,1532808053,57.4092,-111.7294,485.4,179.5,265.6,6.8,4.5,27.19,40.96,2.0194,376.9578],
    [14226,1532808054,57.4092,-111.7304,487.9,182.2,264.4,7.7,5.9,27.16,41.0,2.0217,377.2163],
    [14227,1532808055,57.4092,-111.7314,490.0,185.1,265.6,7.9,4.7,27.22,41.18,2.031,377.1578],
    [14228,1532808056,57.4092,-111.7324,491.3,187.9,265.9,7.9,4.7,27.21,40.74,2.0411,376.7049],
    [14229,1532808057,57.4092,-111.7334,492.3,191.9,265.3,7.4,5.4,27.74,39.29,2.0401,376.8378],
    [14230,1532808058,57.4092,-111.7344,492.6,194.6,265.3,7.1,5.3,27.28,39.95,2.0295,376.4584],
    [14231,1532808059,57.4092,-111.7353,492.1,195.1,265.0,7.3,5.4,26.93,39.3,2.027,377.4531],
    [14232,1532808060,57.4092,-111.7363,492.0,196.1,265.1,7.4,5.4,27.48,38.89,2.0279,377.7898],
    [14233,1532808061,57.4092,-111.7373,491.3,195.3,265.2,7.0,5.3,27.37,39.11,2.0319,376.9655],
    [14234,1532808062,57.4092,-111.7383,489.8,192.8,265.6,6.7,4.9,27.1,39.22,2.0314,377.0442],
    [14235,1532808063,57.4092,-111.7393,487.0,190.0,266.2,5.8,4.5,27.52,39.17,2.0273,376.569],
    [14236,1532808064,57.4092,-111.7403,483.3,185.0,265.7,5.2,5.2,26.66,39.98,2.0093,377.1285],
    [14237,1532808065,57.4092,-111.7414,480.2,180.2,266.3,5.1,4.8,27.07,39.87,2.0097,377.3682],
    [14238,1532808066,57.4092,-111.7424,478.4,175.8,267.1,4.4,4.1,26.69,39.52,2.0474,377.3438],
    [14239,1532808067,57.4092,-111.7434,477.5,172.4,269.1,3.8,1.8,27.33,39.83,2.0356,376.8376],
    [14240,1532808068,57.4092,-111.7445,476.5,170.1,269.7,3.1,1.7,27.51,38.47,2.0252,378.2255],
    [14241,1532808069,57.4092,-111.7455,475.0,166.6,266.9,2.4,4.8,27.33,38.51,2.0376,377.4653],
    [14242,1532808070,57.4092,-111.7466,473.6,163.6,265.7,2.3,5.5,26.8,38.26,2.0258,378.3446],
    [14243,1532808071,57.4092,-111.7477,472.4,161.5,266.4,2.4,4.4,27.86,37.73,2.0156,376.9548],
    [14244,1532808072,57.4092,-111.7487,470.8,159.2,266.4,3.3,4.2,27.55,37.56,2.0122,378.0006],
    [14245,1532808073,57.4092,-111.7498,468.7,157.9,266.6,3.3,4.1,26.86,37.36,1.9979,378.4353],
    [14246,1532808074,57.4092,-111.7509,466.2,156.5,266.3,2.6,4.7,27.31,37.03,1.9794,378.5371],
    [14247,1532808075,57.4092,-111.752,464.3,157.8,266.5,1.8,4.7,27.46,36.81,1.9578,378.8135],
    [14248,1532808076,57.4092,-111.7531,463.0,159.2,266.5,1.6,4.9,27.21,36.66,1.9416,378.8703],
    [14249,1532808077,57.4093,-111.7542,461.9,162.4,267.0,1.4,4.4,27.49,36.61,1.9315,378.0404],
    [14250,1532808078,57.4093,-111.7553,460.8,165.5,267.0,0.9,4.4,27.68,35.21,1.9344,377.8045],
    [14251,1532808079,57.4093,-111.7563,459.8,166.1,266.8,0.7,4.7,27.3,34.96,1.9398,378.6122],
    [14252,1532808080,57.4093,-111.7574,459.1,166.1,266.4,0.1,5.3,27.98,34.66,1.9394,377.832],
    [14253,1532808081,57.4093,-111.7585,458.6,165.6,266.9,-0.5,5.0,27.45,35.13,1.9311,378.8028],
    [14254,1532808082,57.4093,-111.7596,458.5,165.5,267.4,-0.2,4.5,27.99,34.98,1.9297,379.1745],
    [14255,1532808083,57.4093,-111.7607,458.7,165.7,269.6,-0.1,2.4,27.46,35.17,1.9291,378.6898],
    [14256,1532808084,57.4093,-111.7618,458.4,165.2,269.7,-0.8,2.9,27.75,34.99,1.9273,378.303],
    [14257,1532808085,57.4094,-111.7629,458.8,165.5,268.4,-0.9,4.1,27.5,34.9,1.9415,377.0358],
    [14258,1532808086,57.4094,-111.764,461.0,168.0,268.9,-0.3,3.7,27.62,34.94,1.9464,379.0535],
    [14259,1532808087,57.4094,-111.7651,461.6,168.6,269.1,-0.8,3.5,27.9,34.76,1.951,378.6237],
    [14260,1532808088,57.4094,-111.7662,461.5,169.5,268.4,-1.1,3.8,27.85,35.23,1.9505,379.509],
    [14261,1532808089,57.4094,-111.7674,461.7,168.7,268.9,-1.2,2.9,28.19,35.46,1.9511,380.0342],
    [14262,1532808090,57.4095,-111.7684,462.3,169.3,268.7,-0.8,3.1,27.35,35.97,1.9522,378.5219],
    [14263,1532808091,57.4095,-111.7695,462.7,169.7,269.1,-0.3,2.7,27.44,35.77,1.9494,378.0066],
    [14264,1532808092,57.4095,-111.7706,462.2,168.2,269.2,0.0,2.6,27.41,35.92,1.9397,378.2028],
    [14265,1532808093,57.4095,-111.7717,461.2,164.5,268.7,-0.1,3.4,27.6,36.98,1.9452,378.3299],
    [14266,1532808094,57.4095,-111.7728,460.2,161.6,268.4,-0.6,4.0,27.38,36.58,1.9407,378.2759],
    [14267,1532808095,57.4095,-111.7739,459.1,157.1,268.9,-1.1,3.7,27.61,37.09,1.9351,379.3128],
    [14268,1532808096,57.4096,-111.775,458.0,153.9,269.9,-0.6,2.7,27.82,36.98,1.9307,377.8728],
    [14269,1532808097,57.4096,-111.776,458.5,153.5,268.9,-0.2,3.5,27.54,36.85,1.929,377.8728],
    [14270,1532808098,57.4096,-111.7771,460.3,154.3,268.5,0.0,3.0,27.96,35.89,1.9265,379.2977],
    [14271,1532808099,57.4096,-111.7782,461.7,155.7,269.2,0.1,2.3,27.66,35.78,1.9263,378.9403],
    [14272,1532808100,57.4096,-111.7793,462.0,155.0,267.0,0.3,4.6,27.41,35.63,1.9269,378.9134],
    [14273,1532808101,57.4096,-111.7804,462.4,154.4,267.6,0.8,3.8,27.78,35.81,1.9283,378.1681],
    [14274,1532808102,57.4096,-111.7814,462.6,153.5,269.3,1.5,2.6,28.02,34.66,1.9282,378.1117],
    [14275,1532808103,57.4097,-111.7825,462.7,152.6,268.0,1.4,4.0,27.55,35.93,1.9286,379.4879],
    [14276,1532808104,57.4097,-111.7836,463.0,152.0,268.3,0.9,3.3,27.25,35.92,1.9286,377.9655],
    [14277,1532808105,57.4097,-111.7847,463.1,152.1,268.4,0.5,3.2,27.46,36.05,1.9272,377.9126],
    [14278,1532808106,57.4097,-111.7858,464.0,153.0,266.7,0.5,4.8,26.9,35.6,1.9254,379.2071],
    [14279,1532808107,57.4097,-111.7868,465.9,155.0,267.3,0.5,3.7,27.78,34.82,1.9238,379.2005],
    [14280,1532808108,57.4097,-111.7879,467.7,155.7,267.5,0.3,3.4,27.43,34.7,1.922,378.4309],
    [14281,1532808109,57.4097,-111.789,469.5,156.5,265.4,0.1,4.8,27.28,34.29,1.9211,379.2636],
    [14282,1532808110,57.4097,-111.7901,471.5,157.5,265.3,0.5,4.4,27.16,34.11,1.925,379.6827],
    [14283,1532808111,57.4097,-111.7911,472.9,157.9,265.8,0.8,3.8,27.31,34.07,1.9245,379.7018],
    [14284,1532808112,57.4097,-111.7922,473.5,157.5,265.6,1.1,4.0,27.53,34.05,1.9278,379.3405],
    [14285,1532808113,57.4097,-111.7932,474.3,159.3,265.4,0.9,4.3,27.58,34.72,1.9284,379.2902],
    [14286,1532808114,57.4097,-111.7943,475.5,160.5,265.6,0.4,4.0,27.58,34.59,1.9282,378.4135],
    [14287,1532808115,57.4097,-111.7953,476.4,161.4,265.9,0.4,3.9,27.35,34.31,1.9256,379.2694],
    [14288,1532808116,57.4097,-111.7964,477.2,163.2,264.9,0.5,4.6,27.36,34.5,1.9264,379.2694],
    [14289,1532808117,57.4097,-111.7974,478.1,164.1,265.3,0.3,4.1,27.26,34.56,1.9253,379.7724],
    [14290,1532808118,57.4096,-111.7985,478.6,164.6,264.9,0.2,4.6,27.06,34.84,1.9234,379.4736],
    [14291,1532808119,57.4096,-111.7995,479.1,166.1,264.9,0.3,4.6,27.43,34.57,1.9239,379.1256],
    [14292,1532808120,57.4096,-111.8005,480.0,167.0,266.5,0.5,3.3,27.93,34.02,1.922,379.1256],
    [14293,1532808121,57.4096,-111.8015,481.2,168.5,266.5,0.7,3.7,27.42,34.32,1.9196,379.1504],
    [14294,1532808122,57.4096,-111.8026,482.6,170.6,266.0,0.9,4.0,27.42,33.81,1.9194,379.5118],
    [14295,1532808123,57.4096,-111.8036,483.5,171.5,266.4,1.2,3.6,27.67,33.53,1.9206,378.8324],
    [14296,1532808124,57.4096,-111.8046,484.2,172.2,266.0,0.7,3.9,27.31,33.5,1.9239,379.9206],
    [14297,1532808125,57.4096,-111.8056,484.2,172.2,266.4,0.2,3.4,27.37,33.4,1.9246,380.01],
    [14298,1532808126,57.4096,-111.8067,483.4,170.3,266.6,-0.5,3.4,27.87,33.06,1.9244,379.1511],
    [14299,1532808127,57.4096,-111.8077,482.6,167.9,266.4,-0.9,3.3,27.51,33.44,1.9242,379.8147],
    [14300,1532808128,57.4096,-111.8087,482.0,166.0,267.3,-1.9,2.4,26.89,33.69,1.9253,378.8012],
    [14301,1532808129,57.4096,-111.8098,480.8,163.8,265.9,-2.2,3.9,27.91,33.25,1.9259,379.2806],
    [14302,1532808130,57.4096,-111.8108,479.7,162.4,265.6,-2.7,4.1,28.23,33.25,1.9281,378.8946],
    [14303,1532808131,57.4096,-111.8119,478.8,160.8,265.4,-4.1,4.2,27.58,34.37,1.9282,378.8946],
    [14304,1532808132,57.4096,-111.8129,478.1,160.1,265.6,-6.2,3.9,27.97,34.23,1.9289,377.6967],
    [14305,1532808133,57.4096,-111.8139,478.7,160.7,265.2,-7.4,4.0,27.62,34.72,1.9291,378.032],
    [14306,1532808134,57.4096,-111.815,479.2,161.2,265.7,-6.7,3.6,27.62,35.62,1.9301,377.9215],
    [14307,1532808135,57.4096,-111.816,479.8,162.8,265.9,-6.4,3.5,27.81,35.75,1.9356,377.9408],
    [14308,1532808136,57.4096,-111.817,480.6,163.6,266.0,-5.8,2.9,27.82,35.81,1.936,378.1233],
    [14309,1532808137,57.4095,-111.8181,482.2,163.2,267.2,-4.9,2.0,27.11,36.37,1.9433,377.792],
    [14310,1532808138,57.4095,-111.8191,483.2,163.2,266.5,-4.5,3.0,27.51,36.69,1.943,377.8707],
    [14311,1532808139,57.4095,-111.8202,483.8,161.1,266.6,-3.6,3.1,28.01,35.71,1.9439,378.7607],
    [14312,1532808140,57.4095,-111.8212,484.3,160.3,266.0,-2.2,4.3,27.66,36.07,1.9556,377.0686],
    [14313,1532808141,57.4095,-111.8223,484.7,159.8,266.4,-2.0,3.9,26.95,36.45,1.9566,378.0147],
    [14314,1532808142,57.4095,-111.8233,484.8,158.8,266.8,-1.7,3.9,27.65,36.17,1.9548,377.8315],
    [14315,1532808143,57.4095,-111.8243,484.7,158.7,265.9,-1.5,4.8,27.48,36.1,1.9536,378.7262],
    [14316,1532808144,57.4095,-111.8254,484.7,158.7,266.0,-1.4,4.5,26.85,36.18,1.9524,379.9447],
    [14317,1532808145,57.4095,-111.8264,485.2,159.2,266.1,-0.8,4.3,27.29,36.2,1.9551,378.6817],
    [14318,1532808146,57.4096,-111.8274,486.8,160.7,265.5,0.1,4.9,27.75,35.9,1.9479,378.8123],
    [14319,1532808147,57.4096,-111.8284,488.4,162.4,266.1,0.5,4.5,27.31,36.34,1.948,378.4857],
    [14320,1532808148,57.4096,-111.8295,489.9,162.9,266.3,0.1,4.3,27.04,35.82,1.9511,379.2679],
    [14321,1532808149,57.4096,-111.8305,490.7,162.7,266.0,-0.2,4.5,27.03,36.0,1.9525,377.893],
    [14322,1532808150,57.4096,-111.8315,491.4,163.4,265.9,0.4,4.5,27.02,35.51,1.9482,377.893],
    [14323,1532808151,57.4096,-111.8325,492.6,164.6,264.9,0.7,5.2,27.29,35.47,1.9439,379.0723],
    [14324,1532808152,57.4096,-111.8335,494.0,166.0,264.6,1.0,5.1,26.76,35.54,1.9493,377.8312],
    [14325,1532808153,57.4095,-111.8345,494.6,165.6,265.0,1.5,4.5,27.26,36.25,1.964,379.2366],
    [14326,1532808154,57.4095,-111.8355,494.8,165.8,264.6,1.2,4.9,27.79,35.5,1.9588,379.1317],
    [14327,1532808155,57.4095,-111.8365,495.6,164.5,263.7,1.3,5.8,27.29,35.88,1.9548,378.9661],
    [14328,1532808156,57.4095,-111.8375,496.7,164.7,263.8,1.8,5.5,27.11,35.6,1.9538,378.8547],
    [14329,1532808157,57.4095,-111.8386,498.5,165.4,264.2,1.9,4.5,27.41,35.49,1.9564,378.8674],
    [14330,1532808158,57.4095,-111.8395,500.8,166.8,262.6,2.5,4.9,27.5,35.58,1.9655,378.1096],
    [14331,1532808159,57.4094,-111.8405,503.1,169.1,259.5,2.6,5.9,27.68,34.98,1.9631,378.1096],
    [14332,1532808160,57.4094,-111.8415,505.3,171.3,257.1,2.6,5.8,27.18,35.43,1.9545,378.4482],
    [14333,1532808161,57.4093,-111.8425,507.9,173.9,252.9,2.3,6.8,27.11,35.1,1.9472,378.5261],
    [14334,1532808162,57.4092,-111.8434,511.3,177.4,248.1,2.5,7.9,26.75,35.38,1.9452,378.5406],
    [14335,1532808163,57.409,-111.8443,515.7,181.7,244.9,3.0,7.6,27.22,35.34,1.9458,378.6379],
    [14336,1532808164,57.4088,-111.8452,520.7,186.7,242.1,3.7,6.9,27.35,35.06,1.9454,378.6322],
    [14337,1532808165,57.4086,-111.846,526.0,192.0,240.4,5.5,6.2,27.13,36.27,1.9404,378.017],
    [14338,1532808166,57.4084,-111.8468,531.1,197.1,237.2,6.7,7.2,26.73,35.68,1.9362,378.017],
    [14339,1532808167,57.4081,-111.8476,534.8,200.7,233.5,6.0,7.5,27.68,34.88,1.928,379.2756],
    [14340,1532808168,57.4079,-111.8483,536.8,202.8,230.6,5.7,8.0,27.02,35.1,1.9321,378.4155],
    [14341,1532808169,57.4076,-111.849,537.2,203.2,227.3,5.2,8.2,27.23,34.39,1.9308,378.8066],
    [14342,1532808170,57.4072,-111.8497,537.3,203.3,224.2,4.6,8.6,27.08,34.07,1.9309,379.4325],
    [14343,1532808171,57.4069,-111.8503,536.9,202.6,220.7,4.0,8.9,26.64,33.77,1.9363,379.2868],
    [14344,1532808172,57.4065,-111.8509,536.4,201.5,218.8,3.9,8.0,26.87,33.84,1.9379,380.1572],
    [14345,1532808173,57.4061,-111.8515,535.8,199.8,214.8,2.6,8.3,27.22,34.2,1.9335,379.6801],
    [14346,1532808174,57.4057,-111.852,535.1,197.4,213.0,3.5,7.2,27.0,34.2,1.932,378.6158],
    [14347,1532808175,57.4053,-111.8525,535.0,196.3,209.6,3.1,6.5,26.87,34.56,1.9301,378.6158],
    [14348,1532808176,57.4049,-111.853,535.6,196.6,205.6,3.1,6.5,27.91,33.77,1.9281,379.7782],
    [14349,1532808177,57.4044,-111.8533,536.5,197.5,202.8,4.4,7.0,27.38,33.93,1.9274,380.6101],
    [14350,1532808178,57.4039,-111.8536,537.9,198.6,198.5,3.5,7.8,27.04,33.69,1.9251,380.3674],
    [14351,1532808179,57.4034,-111.8539,539.3,200.3,194.3,2.5,7.7,27.2,34.01,1.9242,379.2027],
    [14352,1532808180,57.4029,-111.8541,540.8,202.5,191.1,2.3,6.7,27.7,32.76,1.925,379.5299],
    [14353,1532808181,57.4024,-111.8542,542.1,204.2,188.0,2.1,6.5,27.36,33.44,1.925,380.5475],
    [14354,1532808182,57.4019,-111.8543,543.5,206.1,184.9,1.8,6.1,27.4,32.88,1.9256,379.7741],
    [14355,1532808183,57.4014,-111.8543,545.4,208.5,182.2,1.5,5.7,26.79,33.12,1.9248,379.943],
    [14356,1532808184,57.4009,-111.8543,546.9,210.4,181.4,2.1,5.7,26.92,33.04,1.9278,380.2614],
    [14357,1532808185,57.4004,-111.8543,546.9,210.9,180.2,1.8,4.7,27.6,32.97,1.9328,379.8293],
    [14358,1532808186,57.3999,-111.8543,546.6,211.6,178.3,0.9,4.4,26.91,33.08,1.9359,380.0252],
    [14359,1532808187,57.3994,-111.8542,546.2,211.8,178.7,2.1,4.3,27.03,33.65,1.9336,379.4911],
    [14360,1532808188,57.3989,-111.8542,545.5,211.5,178.9,2.5,3.5,26.86,34.84,1.9292,379.4864],
    [14361,1532808189,57.3984,-111.8541,544.6,210.7,177.5,2.0,3.5,26.54,34.55,1.9328,379.2034],
    [14362,1532808190,57.3978,-111.854,544.0,209.0,177.7,2.8,3.4,27.18,34.95,1.932,379.7805],
    [14363,1532808191,57.3973,-111.8539,543.9,207.9,176.0,1.6,3.2,27.13,34.48,1.9278,379.8484],
    [14364,1532808192,57.3968,-111.8538,543.8,206.8,176.0,2.3,3.5,27.11,34.44,1.9215,379.1491],
    [14365,1532808193,57.3963,-111.8537,543.8,206.8,176.4,2.7,3.5,27.14,34.83,1.9254,379.4851],
    [14366,1532808194,57.3958,-111.8536,544.1,208.1,175.2,1.8,3.5,26.99,34.11,1.9357,380.6318],
    [14367,1532808195,57.3953,-111.8535,544.3,209.3,175.5,2.2,3.2,27.68,33.4,1.9371,379.9019],
    [14368,1532808196,57.3947,-111.8534,544.3,209.3,175.2,1.8,3.0,27.24,33.42,1.9383,379.3703],
    [14369,1532808197,57.3942,-111.8532,545.1,210.2,174.9,1.4,2.6,27.72,33.45,1.9403,379.7395],
    [14370,1532808198,57.3937,-111.8531,545.8,211.8,174.2,0.7,2.5,26.81,34.31,1.929,380.4494],
    [14371,1532808199,57.3931,-111.853,546.2,212.2,174.4,1.3,2.7,26.93,33.97,1.9353,380.1095],
    [14372,1532808200,57.3926,-111.8529,546.1,213.1,176.2,3.2,3.2,26.91,33.82,1.939,380.4406],
    [14373,1532808201,57.3921,-111.8528,546.3,213.3,174.7,1.9,3.2,26.35,34.03,1.9371,379.5657],
    [14374,1532808202,57.3915,-111.8526,547.7,215.4,173.8,1.5,2.9,26.77,34.68,1.9401,380.1943],
    [14375,1532808203,57.391,-111.8525,549.7,217.7,173.7,1.6,2.4,27.45,34.26,1.9348,378.6928],
    [14376,1532808204,57.3905,-111.8523,550.9,219.2,172.9,0.8,2.3,26.61,34.88,1.9276,379.9033],
    [14377,1532808205,57.39,-111.8522,552.0,221.0,172.8,0.9,2.0,26.34,34.93,1.9334,379.7743],
    [14378,1532808206,57.3894,-111.8521,553.1,222.1,172.2,0.5,2.1,27.25,34.42,1.9361,379.8256],
    [14379,1532808207,57.3889,-111.8519,554.3,224.1,171.5,0.2,2.0,26.85,35.27,1.9333,379.4884],
    [14380,1532808208,57.3884,-111.8518,555.9,225.9,173.2,2.1,1.8,26.47,35.34,1.9322,380.2928],
    [14381,1532808209,57.3878,-111.8516,557.1,228.1,175.1,3.1,1.8,26.28,35.27,1.9341,379.6478],
    [14382,1532808210,57.3873,-111.8515,558.6,229.6,174.5,1.7,2.5,26.78,35.75,1.9366,379.0099],
    [14383,1532808211,57.3868,-111.8514,560.3,231.3,174.7,1.7,2.6,27.35,34.71,1.9362,378.8171],
    [14384,1532808212,57.3863,-111.8512,562.2,233.2,176.2,3.0,2.9,26.88,35.75,1.9371,379.8842],
    [14385,1532808213,57.3857,-111.8511,564.3,235.3,176.5,2.8,2.8,26.84,35.68,1.9372,378.5719],
    [14386,1532808214,57.3852,-111.851,566.7,237.7,176.0,2.0,3.1,27.01,35.41,1.9337,379.8026],
    [14387,1532808215,57.3847,-111.8509,568.6,238.9,175.9,1.9,3.1,27.05,35.44,1.9301,378.2092],
    [14388,1532808216,57.3842,-111.8508,570.7,240.7,176.2,2.1,3.2,26.66,35.44,1.9277,379.4169],
    [14389,1532808217,57.3836,-111.8507,573.2,243.2,176.9,2.7,3.7,26.72,35.16,1.927,380.7806],
    [14390,1532808218,57.3831,-111.8506,575.8,245.8,177.0,2.4,3.5,26.8,35.28,1.9331,380.4143],
    [14391,1532808219,57.3826,-111.8505,578.7,248.7,175.4,0.4,4.0,26.77,34.73,1.9427,378.4441],
    [14392,1532808220,57.3821,-111.8504,581.3,251.3,175.1,0.3,4.1,26.88,35.92,1.941,379.8398],
    [14393,1532808221,57.3816,-111.8503,582.8,252.8,176.7,1.8,3.9,26.61,36.33,1.939,379.5912],
    [14394,1532808222,57.3811,-111.8502,583.5,253.5,177.8,2.4,3.7,25.99,36.64,1.9313,379.4651],
    [14395,1532808223,57.3805,-111.8502,585.3,255.3,178.0,2.1,3.3,26.85,36.49,1.9307,379.7736],
    [14396,1532808224,57.38,-111.8501,587.6,257.6,178.3,2.3,3.1,27.44,35.82,1.9325,379.0548],
    [14397,1532808225,57.3795,-111.85,589.2,259.2,179.1,3.2,3.5,26.28,36.35,1.9378,379.5558],
    [14398,1532808226,57.379,-111.85,589.4,259.4,178.3,2.2,3.3,26.59,36.16,1.9405,379.4061],
    [14399,1532808227,57.3785,-111.8499,589.5,259.5,177.4,1.4,4.1,27.13,36.26,1.9438,378.7988],
    [14400,1532808228,57.378,-111.8498,589.6,259.6,177.9,1.8,5.2,26.96,36.43,1.9489,379.2566],
    [14401,1532808229,57.3774,-111.8498,589.6,259.6,177.3,1.3,4.4,26.58,37.69,1.951,378.3118],
    [14402,1532808230,57.3769,-111.8497,590.0,260.0,176.9,1.5,3.7,26.34,37.55,1.9483,379.8232],
    [14403,1532808231,57.3764,-111.8496,590.2,260.2,176.8,1.8,4.0,26.36,37.73,1.9457,379.5826],
    [14404,1532808232,57.3759,-111.8495,590.1,260.1,176.2,1.3,4.4,27.2,37.59,1.9393,378.9606],
    [14405,1532808233,57.3754,-111.8494,590.3,260.3,176.1,1.3,4.3,26.66,38.53,1.9343,378.8832],
    [14406,1532808234,57.3748,-111.8493,590.9,260.9,176.8,2.0,5.0,26.36,38.5,1.9331,377.5478],
    [14407,1532808235,57.3743,-111.8492,592.0,262.0,176.7,1.8,5.6,26.66,38.16,1.9311,377.5032],
    [14408,1532808236,57.3738,-111.8492,593.9,263.9,176.4,1.6,5.2,26.91,38.07,1.9329,377.6459],
    [14409,1532808237,57.3733,-111.8491,596.3,266.3,176.2,1.5,5.1,26.61,38.38,1.9311,378.1445],
    [14410,1532808238,57.3728,-111.849,597.8,267.8,176.5,2.0,5.1,26.08,38.56,1.9319,377.7989],
    [14411,1532808239,57.3723,-111.8489,599.1,269.1,176.2,2.0,5.1,26.89,37.97,1.9349,378.0919],
    [14412,1532808240,57.3717,-111.8488,601.5,270.6,175.3,1.2,5.9,26.36,37.94,1.9474,378.15],
    [14413,1532808241,57.3712,-111.8486,604.3,272.3,175.3,1.4,5.5,26.57,37.83,1.9336,378.3042],
    [14414,1532808242,57.3707,-111.8485,605.5,273.5,176.0,1.7,4.7,26.31,37.84,1.9245,378.7902],
    [14415,1532808243,57.3702,-111.8484,605.8,274.3,175.1,0.6,4.4,26.51,36.97,1.9284,378.0171],
    [14416,1532808244,57.3697,-111.8483,606.8,275.8,175.3,0.8,4.9,26.7,37.54,1.9313,378.1126],
    [14417,1532808245,57.3691,-111.8483,608.1,277.1,176.9,1.9,5.5,26.56,36.99,1.9315,378.0834],
    [14418,1532808246,57.3686,-111.8482,609.6,279.3,176.9,1.4,5.0,26.38,37.08,1.9307,378.0834],
    [14419,1532808247,57.3681,-111.8481,611.0,280.7,176.3,0.7,4.5,26.47,37.7,1.9309,377.8324],
    [14420,1532808248,57.3675,-111.848,611.2,280.2,176.8,1.1,4.4,26.27,37.95,1.9311,377.4394],
    [14421,1532808249,57.367,-111.8479,610.7,278.7,176.4,0.6,4.8,26.56,38.1,1.9313,377.2471],
    [14422,1532808250,57.3665,-111.8479,610.0,278.0,175.7,0.1,4.5,25.86,38.68,1.9305,377.492],
    [14423,1532808251,57.366,-111.8478,609.5,277.5,176.4,1.2,3.5,26.73,38.1,1.9319,376.8297],
    [14424,1532808252,57.3655,-111.8477,609.4,277.4,176.1,1.1,2.6,27.38,37.93,1.9319,377.8663],
    [14425,1532808253,57.365,-111.8476,610.1,277.6,175.7,1.1,2.6,26.39,38.46,1.9317,376.1378],
    [14426,1532808254,57.3644,-111.8475,610.9,278.9,176.6,1.9,2.9,27.05,37.76,1.9302,378.5681],
    [14427,1532808255,57.3639,-111.8474,611.7,279.7,176.4,1.7,3.4,26.06,38.47,1.9324,377.3522],
    [14428,1532808256,57.3634,-111.8473,612.1,280.1,177.0,2.3,2.6,26.58,38.45,1.9318,377.722],
    [14429,1532808257,57.3629,-111.8472,612.2,280.2,177.9,2.9,3.9,26.42,38.48,1.9301,377.9558],
    [14430,1532808258,57.3624,-111.8472,611.7,280.4,177.4,2.3,4.1,26.46,38.66,1.9306,377.816],
    [14431,1532808259,57.3619,-111.8471,611.4,280.7,177.1,2.0,4.0,26.49,38.61,1.9287,377.0061],
    [14432,1532808260,57.3613,-111.847,611.0,282.0,177.6,2.4,3.7,26.4,38.55,1.9289,378.6708],
    [14433,1532808261,57.3608,-111.8469,610.7,283.4,177.7,1.8,4.6,26.6,38.16,1.9289,378.6708],
    [14434,1532808262,57.3603,-111.8468,612.1,285.1,178.4,0.7,6.1,26.61,38.26,1.9282,377.6495],
    [14435,1532808263,57.3598,-111.8468,614.1,288.1,180.9,1.6,6.8,26.3,38.49,1.9268,378.3048],
    [14436,1532808264,57.3592,-111.8468,616.0,290.0,183.8,2.8,6.8,27.01,38.15,1.927,378.8553],
    [14437,1532808265,57.3587,-111.8469,617.7,292.8,185.2,2.5,6.5,26.06,38.25,1.9265,378.4508],
    [14438,1532808266,57.3582,-111.8469,619.2,293.2,187.2,2.7,5.6,26.13,38.34,1.9252,378.3531],
    [14439,1532808267,57.3577,-111.8471,620.0,294.0,188.3,2.4,5.1,26.26,38.47,1.9215,378.2793],
    [14440,1532808268,57.3571,-111.8472,621.0,295.0,189.2,1.9,4.8,25.79,37.65,1.9203,378.0104],
    [14441,1532808269,57.3566,-111.8473,623.0,296.0,189.9,1.6,4.8,25.83,37.26,1.9226,378.7696],
    [14442,1532808270,57.3561,-111.8475,625.3,297.7,191.6,2.5,4.6,26.37,36.96,1.9226,377.0067],
    [14443,1532808271,57.3556,-111.8477,627.4,299.4,192.6,2.7,4.8,25.67,37.04,1.9229,378.1271],
    [14444,1532808272,57.3551,-111.8479,629.5,300.5,192.9,2.5,4.9,26.69,36.63,1.9231,377.7199],
    [14445,1532808273,57.3545,-111.8481,631.3,302.3,193.1,2.1,4.8,26.35,36.76,1.9225,377.7199],
    [14446,1532808274,57.354,-111.8483,633.1,303.9,192.1,0.9,4.9,26.63,36.35,1.9228,378.0107],
    [14447,1532808275,57.3535,-111.8485,635.5,306.8,191.3,0.5,5.8,26.02,36.73,1.925,378.0107],
    [14448,1532808276,57.353,-111.8487,637.9,308.9,192.3,1.6,6.2,26.22,37.77,1.9242,378.8537],
    [14449,1532808277,57.3525,-111.8489,639.8,311.8,192.6,1.9,6.5,26.24,37.77,1.9238,379.1552],
    [14450,1532808278,57.352,-111.8491,641.5,313.2,193.3,2.5,6.8,26.2,36.9,1.9255,378.5339],
    [14451,1532808279,57.3515,-111.8493,642.9,313.9,194.5,3.4,6.9,26.57,36.61,1.9256,379.1821],
    [14452,1532808280,57.351,-111.8495,644.0,314.7,196.0,3.7,6.7,26.02,37.61,1.9251,377.6738],
    [14453,1532808281,57.3505,-111.8498,645.6,315.6,197.7,4.1,7.1,26.9,37.02,1.9242,377.9277],
    [14454,1532808282,57.35,-111.85,647.7,316.9,198.3,3.2,7.0,25.81,37.77,1.9223,379.6131],
    [14455,1532808283,57.3495,-111.8503,650.3,320.3,198.6,2.5,7.3,26.1,37.0,1.9232,378.0126],
    [14456,1532808284,57.349,-111.8506,652.9,322.9,199.1,2.5,8.0,26.54,36.38,1.9238,378.8054],
    [14457,1532808285,57.3486,-111.8509,655.6,326.6,199.8,3.1,7.7,26.18,37.07,1.9231,377.4806],
    [14458,1532808286,57.3481,-111.8512,658.3,329.3,200.0,3.8,8.9,26.34,36.6,1.9228,378.6155],
    [14459,1532808287,57.3476,-111.8516,660.3,331.3,199.4,3.7,9.7,26.66,36.08,1.9216,378.6155],
    [14460,1532808288,57.3471,-111.8519,662.2,334.2,198.4,3.0,10.0,26.24,36.48,1.9226,377.4553],
    [14461,1532808289,57.3467,-111.8522,664.2,336.2,198.2,2.9,9.6,25.75,36.65,1.9227,378.7676],
    [14462,1532808290,57.3462,-111.8525,665.6,337.6,197.8,1.9,9.1,25.83,36.68,1.9234,379.2546],
    [14463,1532808291,57.3457,-111.8528,666.6,338.6,198.1,1.8,8.4,26.58,36.27,1.9233,378.0562],
    [14464,1532808292,57.3452,-111.8531,667.2,339.2,199.3,2.2,7.6,26.4,36.07,1.9227,378.3892],
    [14465,1532808293,57.3447,-111.8534,666.6,338.9,200.3,2.5,7.1,26.19,36.69,1.9224,378.6356],
    [14466,1532808294,57.3442,-111.8538,665.4,338.5,201.5,2.7,6.4,26.12,36.28,1.923,378.7056],
    [14467,1532808295,57.3437,-111.8541,665.0,338.0,202.8,3.4,5.3,26.34,36.21,1.9281,378.9099],
    [14468,1532808296,57.3432,-111.8545,665.1,338.1,203.7,3.7,4.4,26.64,36.03,1.9268,380.1755],
    [14469,1532808297,57.3427,-111.8549,665.4,337.4,203.6,3.7,4.7,26.58,36.42,1.9239,378.2205],
    [14470,1532808298,57.3422,-111.8553,666.5,338.5,203.1,4.0,5.6,26.06,37.62,1.9267,379.4371],
    [14471,1532808299,57.3417,-111.8556,668.8,340.0,202.8,4.1,5.8,26.13,37.24,1.933,378.3233],
    [14472,1532808300,57.3412,-111.856,671.7,342.7,202.3,3.6,5.4,26.26,37.29,1.9365,378.3233],
    [14473,1532808301,57.3407,-111.8563,673.9,344.9,201.6,3.2,5.8,26.64,37.15,1.9362,378.1661],
    [14474,1532808302,57.3402,-111.8567,675.5,347.5,201.9,3.8,6.0,25.8,38.1,1.937,377.3869],
    [14475,1532808303,57.3398,-111.857,676.6,348.6,201.1,3.4,6.9,26.71,37.81,1.9406,377.3869],
    [14476,1532808304,57.3393,-111.8573,676.9,348.9,200.5,3.2,6.7,26.17,39.22,1.9479,376.8913],
    [14477,1532808305,57.3388,-111.8577,676.3,348.3,200.0,3.3,6.7,25.77,39.51,1.9496,377.3517],
    [14478,1532808306,57.3383,-111.858,676.1,347.4,199.0,3.6,7.5,26.25,40.58,1.9487,376.813],
    [14479,1532808307,57.3378,-111.8583,676.6,347.6,198.0,3.7,8.2,26.04,41.48,1.9471,376.0987],
    [14480,1532808308,57.3372,-111.8586,677.0,347.5,197.5,4.1,7.9,26.45,41.64,1.947,376.0013],
    [14481,1532808309,57.3368,-111.8588,677.1,347.1,197.9,5.0,8.0,25.67,42.33,1.9487,376.7534],
    [14482,1532808310,57.3362,-111.8591,677.6,346.6,196.2,3.8,8.2,26.67,42.06,1.9491,377.535],
    [14483,1532808311,57.3357,-111.8593,677.3,345.8,195.0,3.2,8.1,26.03,42.5,1.9459,376.5844],
    [14484,1532808312,57.3352,-111.8596,676.4,344.4,193.8,3.0,8.5,26.68,41.95,1.9463,376.5844],
    [14485,1532808313,57.3347,-111.8598,675.5,343.5,192.2,2.4,8.9,26.35,42.39,1.9494,376.261],
    [14486,1532808314,57.3342,-111.86,674.4,342.4,190.7,1.7,8.4,25.99,42.63,1.9448,376.4977],
    [14487,1532808315,57.3336,-111.8601,672.3,340.3,190.3,2.1,7.9,26.41,42.58,1.9405,375.7512],
    [14488,1532808316,57.3331,-111.8603,669.3,337.3,190.7,3.0,7.0,26.25,42.73,1.9402,376.2095],
    [14489,1532808317,57.3325,-111.8605,666.6,334.6,189.3,1.9,6.3,26.06,42.54,1.9478,375.1498],
    [14490,1532808318,57.332,-111.8606,664.6,332.6,189.6,3.1,6.5,25.98,43.16,1.9458,375.1523],
    [14491,1532808319,57.3315,-111.8607,663.2,331.2,189.6,3.8,7.3,25.78,42.63,1.9447,374.8741],
    [14492,1532808320,57.3309,-111.8608,662.4,330.4,188.7,3.4,6.5,26.03,43.14,1.9426,376.2426],
    [14493,1532808321,57.3304,-111.861,661.4,328.4,188.1,3.2,6.2,25.66,43.04,1.942,374.8479],
    [14494,1532808322,57.3298,-111.8611,660.0,327.0,188.2,4.0,6.6,25.93,43.15,1.9412,375.6368],
    [14495,1532808323,57.3292,-111.8612,658.8,325.8,187.6,3.7,7.2,26.09,43.42,1.9412,375.7966],
    [14496,1532808324,57.3287,-111.8612,658.0,325.0,186.9,3.3,7.1,26.18,42.38,1.9435,376.1944],
    [14497,1532808325,57.3281,-111.8613,657.3,324.3,186.9,3.6,7.3,26.15,42.17,1.9437,376.9622],
    [14498,1532808326,57.3276,-111.8614,656.5,323.5,186.3,3.1,7.7,26.11,42.33,1.9411,376.4187],
    [14499,1532808327,57.327,-111.8615,655.6,322.6,186.7,3.7,7.3,25.97,42.79,1.9321,376.4187],
    [14500,1532808328,57.3265,-111.8615,654.6,321.6,187.2,4.2,7.1,26.06,42.47,1.9356,376.4098],
    [14501,1532808329,57.3259,-111.8616,654.3,321.3,186.6,3.4,7.3,25.92,41.56,1.945,375.1931],
    [14502,1532808330,57.3254,-111.8617,654.9,321.9,186.1,3.1,7.6,25.34,41.87,1.9461,375.9543],
    [14503,1532808331,57.3248,-111.8618,656.2,323.2,184.7,1.7,7.3,25.93,41.83,1.9456,375.9543],
    [14504,1532808332,57.3243,-111.8618,658.1,325.1,184.6,2.3,7.2,26.39,42.15,1.9444,376.823],
    [14505,1532808333,57.3237,-111.8619,659.6,326.6,185.5,3.4,7.7,26.01,42.84,1.9443,376.0318],
    [14506,1532808334,57.3231,-111.8619,660.5,328.5,184.2,2.0,8.2,26.07,43.35,1.9405,375.9234],
    [14507,1532808335,57.3226,-111.862,661.2,329.5,183.5,1.8,7.8,26.01,42.85,1.9388,375.9234],
    [14508,1532808336,57.322,-111.862,661.3,330.3,183.8,2.3,7.3,25.88,42.93,1.9374,376.0162],
    [14509,1532808337,57.3214,-111.8621,661.3,330.3,183.5,2.0,7.2,25.43,42.41,1.9367,375.7799],
    [14510,1532808338,57.3209,-111.8621,661.6,329.5,182.9,1.2,7.3,26.35,41.14,1.9375,376.0065],
    [14511,1532808339,57.3203,-111.8621,661.8,329.8,183.0,1.6,7.6,25.98,41.88,1.9392,376.0565],
    [14512,1532808340,57.3198,-111.8622,661.2,328.2,183.7,2.5,7.0,26.21,41.01,1.9388,376.7497],
    [14513,1532808341,57.3192,-111.8622,660.3,327.3,183.8,2.5,6.8,26.43,40.35,1.94,376.6441],
    [14514,1532808342,57.3186,-111.8622,659.7,327.7,183.9,2.7,5.9,25.81,41.38,1.9378,378.0582],
    [14515,1532808343,57.318,-111.8623,659.4,327.4,183.7,2.5,5.2,25.98,41.25,1.938,378.1277],
    [14516,1532808344,57.3175,-111.8623,659.1,327.1,182.9,1.5,4.9,25.9,41.4,1.9376,377.4344],
    [14517,1532808345,57.3169,-111.8623,658.7,326.7,183.2,1.9,4.8,26.29,40.82,1.9362,376.9309],
    [14518,1532808346,57.3163,-111.8624,658.8,326.8,183.8,2.4,4.8,25.67,40.88,1.9361,377.6743],
    [14519,1532808347,57.3157,-111.8624,659.1,327.1,183.3,1.7,5.3,25.72,41.03,1.9347,375.579],
    [14520,1532808348,57.3151,-111.8624,659.6,327.6,182.3,0.8,5.6,25.86,41.18,1.9335,378.0107],
    [14521,1532808349,57.3145,-111.8625,660.7,328.4,183.2,2.2,5.3,25.31,40.65,1.9298,377.3511],
    [14522,1532808350,57.3139,-111.8625,661.5,328.5,182.8,2.1,4.7,26.0,40.03,1.9283,377.3542],
    [14523,1532808351,57.3134,-111.8625,662.8,329.1,181.2,0.9,4.2,25.89,39.93,1.9311,378.2831],
    [14524,1532808352,57.3128,-111.8625,664.4,330.4,181.2,1.6,3.8,25.93,39.76,1.9331,376.9622],
    [14525,1532808353,57.3122,-111.8625,666.2,332.2,181.0,1.8,4.8,26.19,38.7,1.9336,377.1573],
    [14526,1532808354,57.3116,-111.8625,668.2,334.3,180.9,1.8,5.3,25.62,39.15,1.9339,378.4051],
    [14527,1532808355,57.311,-111.8625,670.0,336.0,180.8,2.0,5.3,25.3,39.44,1.9354,377.3562],
    [14528,1532808356,57.3104,-111.8625,671.2,337.2,181.4,3.0,5.5,26.19,39.38,1.9371,375.9998],
    [14529,1532808357,57.3098,-111.8624,672.4,339.4,181.3,3.0,5.2,25.77,40.65,1.9365,377.0068],
    [14530,1532808358,57.3092,-111.8624,674.3,341.6,180.4,2.3,5.9,25.39,40.21,1.9346,377.9756],
    [14531,1532808359,57.3086,-111.8624,676.0,344.0,180.2,2.1,5.8,25.83,40.27,1.9356,376.9683],
    [14532,1532808360,57.308,-111.8624,677.3,346.4,179.3,1.4,5.9,25.98,39.94,1.9373,377.04],
    [14533,1532808361,57.3074,-111.8623,678.6,347.7,180.3,3.1,5.4,25.67,40.06,1.9405,376.9456],
    [14534,1532808362,57.3069,-111.8623,679.4,348.1,181.3,3.8,5.8,25.53,40.5,1.9349,377.4058],
    [14535,1532808363,57.3063,-111.8622,679.7,348.4,178.9,1.0,5.2,25.73,40.41,1.9334,376.6633],
    [14536,1532808364,57.3057,-111.8622,679.9,348.9,179.5,1.8,4.7,25.68,41.08,1.9336,377.2423],
    [14537,1532808365,57.3051,-111.8622,680.2,349.2,179.8,1.9,5.1,26.49,39.99,1.9332,378.1259],
    [14538,1532808366,57.3045,-111.8621,680.6,349.6,179.0,0.9,4.3,25.8,40.36,1.9326,377.188],
    [14539,1532808367,57.3039,-111.8621,680.9,349.9,179.2,1.3,4.4,26.14,39.56,1.9331,377.83],
    [14540,1532808368,57.3033,-111.862,681.4,350.4,178.8,1.0,4.3,26.38,39.24,1.9352,377.83],
    [14541,1532808369,57.3027,-111.862,682.0,351.0,178.3,0.7,4.0,26.08,39.87,1.9359,376.7133],
    [14542,1532808370,57.3021,-111.862,682.5,351.5,178.6,1.1,3.9,25.69,39.83,1.9371,378.4876],
    [14543,1532808371,57.3015,-111.8619,682.7,351.7,178.5,1.0,3.8,26.18,39.65,1.937,377.8341],
    [14544,1532808372,57.3009,-111.8619,683.0,352.0,178.0,0.8,3.3,26.2,39.87,1.9369,375.9756],
    [14545,1532808373,57.3003,-111.8618,683.6,352.6,178.1,1.1,3.4,26.11,40.23,1.9356,377.5535],
    [14546,1532808374,57.2997,-111.8617,684.4,353.4,178.0,1.1,3.7,25.46,40.31,1.9352,377.2687],
    [14547,1532808375,57.2991,-111.8617,685.3,354.3,178.0,0.9,3.8,26.18,39.88,1.935,377.7741],
    [14548,1532808376,57.2985,-111.8616,685.6,354.6,177.8,0.4,4.0,26.6,39.6,1.9346,377.0385],
    [14549,1532808377,57.2979,-111.8616,685.4,354.4,179.2,1.1,3.9,26.08,40.21,1.9342,377.3838],
    [14550,1532808378,57.2973,-111.8616,684.6,352.5,179.7,1.3,4.0,25.45,40.24,1.9341,377.4832],
    [14551,1532808379,57.2967,-111.8615,682.9,350.9,181.9,3.0,4.1,25.76,40.29,1.9352,377.4739],
    [14552,1532808380,57.2961,-111.8615,681.0,349.0,181.9,2.3,3.8,25.98,40.06,1.9353,377.2884],
    [14553,1532808381,57.2955,-111.8615,678.8,346.8,182.6,3.2,4.2,25.84,40.06,1.9335,376.9234],
    [14554,1532808382,57.295,-111.8615,676.0,344.0,183.7,3.9,4.2,25.62,39.93,1.9338,376.4927],
    [14555,1532808383,57.2944,-111.8615,673.5,341.7,183.0,3.0,4.7,25.95,39.7,1.9329,377.9956],
    [14556,1532808384,57.2938,-111.8616,671.6,340.6,183.7,3.5,5.1,25.97,39.66,1.9309,378.3058],
    [14557,1532808385,57.2932,-111.8616,669.8,338.8,184.1,4.0,5.6,25.95,39.61,1.9296,378.3058],
    [14558,1532808386,57.2926,-111.8616,668.6,337.8,183.8,3.5,6.0,26.03,39.3,1.9335,376.9963],
    [14559,1532808387,57.292,-111.8616,667.9,337.9,182.4,2.0,6.3,25.71,39.39,1.9342,377.5162],
    [14560,1532808388,57.2914,-111.8616,667.1,337.1,183.1,2.6,5.6,25.93,39.44,1.9355,376.5977],
    [14561,1532808389,57.2908,-111.8617,666.1,336.1,183.3,2.4,5.2,25.96,39.74,1.935,376.5977],
    [14562,1532808390,57.2902,-111.8617,665.5,335.5,183.3,2.3,5.1,26.56,39.7,1.9364,376.741],
    [14563,1532808391,57.2896,-111.8617,665.6,335.6,183.0,1.8,5.3,25.7,40.52,1.9307,376.1733],
    [14564,1532808392,57.289,-111.8618,665.4,335.4,183.0,1.9,5.5,25.75,40.58,1.9319,375.699],
    [14565,1532808393,57.2884,-111.8618,664.7,334.7,183.9,2.6,5.3,26.24,40.18,1.9329,376.2289],
    [14566,1532808394,57.2878,-111.8618,663.8,333.8,183.6,2.0,4.6,26.14,40.06,1.9325,377.0135],
    [14567,1532808395,57.2872,-111.8619,663.2,333.2,183.4,1.4,5.1,25.79,40.12,1.9322,376.0283],
    [14568,1532808396,57.2866,-111.8619,662.6,332.6,183.4,1.3,5.7,25.79,39.63,1.9302,376.0283],
    [14569,1532808397,57.286,-111.862,661.0,331.0,184.6,2.4,5.4,25.95,39.43,1.9291,375.6131],
    [14570,1532808398,57.2854,-111.862,660.2,330.2,184.7,2.5,5.4,26.18,38.96,1.9301,376.4309],
    [14571,1532808399,57.2848,-111.8621,660.5,330.5,185.0,2.9,5.5,26.39,39.11,1.9319,376.2795],
    [14572,1532808400,57.2842,-111.8622,660.6,329.6,185.8,3.6,5.5,26.12,39.16,1.9333,376.8067],
    [14573,1532808401,57.2836,-111.8622,660.1,329.1,186.0,3.5,5.2,25.85,39.07,1.933,376.5092],
    [14574,1532808402,57.283,-111.8623,659.8,328.8,185.9,3.2,6.3,26.04,39.71,1.9319,377.9306],
    [14575,1532808403,57.2824,-111.8624,659.2,329.3,186.1,3.3,7.0,26.19,39.1,1.9294,377.5793],
    [14576,1532808404,57.2818,-111.8624,658.1,329.3,186.3,3.2,7.6,26.24,38.96,1.9285,377.7294],
    [14577,1532808405,57.2812,-111.8625,656.6,327.5,186.6,3.2,7.6,26.32,38.44,1.9278,377.7294],
    [14578,1532808406,57.2806,-111.8626,654.8,326.8,187.2,3.4,7.3,25.57,38.37,1.9288,378.1251],
    [14579,1532808407,57.28,-111.8627,652.5,323.5,187.7,3.5,7.1,26.16,38.27,1.9293,378.3013],
    [14580,1532808408,57.2795,-111.8628,649.8,320.8,187.9,3.3,6.7,25.51,38.0,1.9282,378.3013],
    [14581,1532808409,57.2789,-111.8629,646.6,317.6,188.3,3.5,6.1,26.42,37.41,1.9317,379.2233],
    [14582,1532808410,57.2783,-111.8631,643.2,315.2,189.2,4.3,5.9,26.94,37.03,1.9318,377.3269],
    [14583,1532808411,57.2777,-111.8632,640.0,313.0,188.9,3.8,5.8,26.19,37.56,1.9303,376.7355],
    [14584,1532808412,57.2771,-111.8633,638.1,312.1,188.2,2.9,5.3,26.36,37.97,1.9309,376.3685],
    [14585,1532808413,57.2765,-111.8634,637.3,311.3,188.7,3.2,5.6,26.72,37.87,1.9289,376.8475],
    [14586,1532808414,57.2758,-111.8636,636.3,310.3,188.6,2.3,5.3,27.02,38.25,1.9294,377.0072],
    [14587,1532808415,57.2752,-111.8637,634.8,307.8,188.0,1.5,5.2,26.44,39.0,1.9298,378.1168],
    [14588,1532808416,57.2746,-111.8639,633.0,305.0,188.7,2.1,4.2,27.23,38.32,1.9297,376.6857],
    [14589,1532808417,57.2741,-111.864,630.9,301.2,189.3,2.5,4.3,26.42,38.43,1.9296,376.6186],
    [14590,1532808418,57.2734,-111.8642,628.6,298.3,189.4,2.6,4.2,26.59,38.14,1.9309,376.4388],
    [14591,1532808419,57.2728,-111.8643,626.0,295.0,190.2,3.2,3.6,26.95,37.88,1.9343,376.4371],
    [14592,1532808420,57.2722,-111.8645,623.3,292.3,189.9,2.5,3.2,26.47,39.1,1.9319,376.5303],
    [14593,1532808421,57.2716,-111.8647,621.3,290.3,190.1,2.5,2.8,25.98,39.07,1.9309,376.5303],
    [14594,1532808422,57.271,-111.8648,619.9,288.6,190.1,1.7,2.5,27.16,38.59,1.9324,376.3497],
    [14595,1532808423,57.2704,-111.865,618.9,287.2,190.0,0.9,1.9,26.57,38.93,1.9313,376.5566],
    [14596,1532808424,57.2698,-111.8652,617.4,285.4,191.1,1.6,1.6,26.82,38.76,1.9317,375.9531],
    [14597,1532808425,57.2692,-111.8654,615.2,283.2,191.7,1.8,1.5,26.82,39.22,1.9292,377.0185],
    [14598,1532808426,57.2685,-111.8656,612.8,280.8,191.9,2.1,1.4,26.76,39.33,1.9297,377.0185],
    [14599,1532808427,57.2679,-111.8658,610.7,279.4,191.9,2.0,1.3,26.85,38.43,1.9276,377.4929],
    [14600,1532808428,57.2673,-111.866,609.1,278.1,190.8,1.1,1.4,26.61,38.47,1.9283,375.9163],
    [14601,1532808429,57.2667,-111.8662,607.3,276.3,190.6,1.1,0.9,26.11,38.1,1.9296,375.9184],
    [14602,1532808430,57.2661,-111.8664,605.5,274.5,190.6,1.6,0.6,26.24,38.04,1.9303,376.6721],
    [14603,1532808431,57.2655,-111.8666,603.8,272.8,191.0,2.3,0.2,26.67,38.41,1.9301,375.5596],
    [14604,1532808432,57.2648,-111.8668,602.5,272.5,189.9,1.4,-0.2,26.48,39.12,1.93,377.3802],
    [14605,1532808433,57.2642,-111.867,601.5,271.5,189.4,1.4,-0.5,26.38,38.94,1.9302,376.2203],
    [14606,1532808434,57.2636,-111.8671,600.6,270.6,189.2,1.4,-0.2,26.7,38.93,1.9286,375.3923],
    [14607,1532808435,57.263,-111.8673,599.3,269.3,187.9,0.0,-0.6,26.32,39.4,1.9236,375.3483],
    [14608,1532808436,57.2624,-111.8675,597.6,268.6,188.8,1.1,-1.3,27.03,39.05,1.9229,375.3483],
    [14609,1532808437,57.2617,-111.8676,595.8,266.8,189.2,1.3,-0.9,26.65,39.29,1.9239,373.8048],
    [14610,1532808438,57.2611,-111.8678,594.2,265.2,189.1,1.3,-1.1,26.46,39.16,1.9233,374.1511],
    [14611,1532808439,57.2605,-111.8679,592.5,263.5,189.7,2.1,-1.2,26.95,38.39,1.9208,375.731],
    [14612,1532808440,57.2599,-111.8681,591.0,261.0,189.3,2.1,-1.9,27.33,38.42,1.92,375.2869],
    [14613,1532808441,57.2592,-111.8682,589.7,259.7,189.0,2.6,-2.0,26.72,38.22,1.9208,375.0938],
    [14614,1532808442,57.2586,-111.8684,588.5,258.6,188.2,2.6,-1.5,26.74,37.72,1.9207,375.5112],
    [14615,1532808443,57.258,-111.8685,587.4,256.4,187.3,2.5,-1.5,26.75,37.01,1.9184,376.2493],
    [14616,1532808444,57.2574,-111.8686,586.5,254.9,186.1,2.0,-1.2,27.4,36.0,1.918,375.9911],
    [14617,1532808445,57.2567,-111.8686,585.5,253.5,185.4,2.0,-0.9,26.94,35.91,1.9168,377.0744],
    [14618,1532808446,57.2561,-111.8687,584.1,252.2,184.6,1.7,-1.4,27.22,34.89,1.9156,378.5411],
    [14619,1532808447,57.2555,-111.8688,583.1,251.2,183.8,1.3,-2.1,26.77,34.65,1.916,377.8003],
    [14620,1532808448,57.2549,-111.8688,581.6,249.7,183.3,1.6,-2.5,26.74,34.89,1.9161,378.4992],
    [14621,1532808449,57.2542,-111.8688,579.9,249.0,184.4,3.4,-2.6,26.66,34.22,1.9181,377.2265],
    [14622,1532808450,57.2536,-111.8689,578.3,248.1,183.1,2.6,-2.8,27.38,33.16,1.9201,377.5411],
    [14623,1532808451,57.2529,-111.8689,577.1,246.8,182.6,3.2,-2.5,26.59,33.81,1.9188,378.8734],
    [14624,1532808452,57.2523,-111.8689,576.5,246.2,182.3,3.6,-1.8,27.06,33.45,1.9179,378.9845],
    [14625,1532808453,57.2517,-111.8688,576.5,246.4,181.2,3.2,-1.9,26.61,33.82,1.9179,377.4167],
    [14626,1532808454,57.2511,-111.8688,576.8,245.9,179.4,2.1,-2.2,26.99,33.83,1.919,377.2745],
    [14627,1532808455,57.2504,-111.8688,576.8,245.9,179.7,3.6,-1.9,27.19,33.98,1.9208,375.3447],
    [14628,1532808456,57.2498,-111.8687,576.2,245.3,179.1,3.7,-1.5,26.4,34.17,1.9218,376.2938],
    [14629,1532808457,57.2492,-111.8686,575.1,243.3,177.5,3.1,-1.6,27.23,34.28,1.9211,377.794],
    [14630,1532808458,57.2486,-111.8685,574.1,242.2,177.7,4.1,-0.8,26.74,35.58,1.9174,377.859],
    [14631,1532808459,57.248,-111.8684,573.1,241.8,176.8,3.9,-0.8,27.42,35.43,1.9161,376.6888],
    [14632,1532808460,57.2474,-111.8682,572.0,240.9,175.9,3.1,-0.7,26.77,36.02,1.918,376.6888],
    [14633,1532808461,57.2468,-111.8681,570.2,239.2,176.1,3.4,-0.7,26.86,36.18,1.9206,376.1858],
    [14634,1532808462,57.2461,-111.868,568.5,238.5,177.0,3.8,-0.4,26.87,35.23,1.9192,376.1605],
    [14635,1532808463,57.2455,-111.8679,567.4,237.3,176.5,3.0,0.2,27.41,35.0,1.9192,377.6495],
    [14636,1532808464,57.2449,-111.8677,566.3,236.3,176.5,2.8,-0.4,26.99,35.42,1.9176,377.1007],
    [14637,1532808465,57.2443,-111.8676,565.4,235.6,175.7,2.0,-0.4,26.7,34.97,1.9169,377.0488],
    [14638,1532808466,57.2437,-111.8675,564.5,235.6,175.3,2.1,-0.5,26.61,34.54,1.9178,377.0488],
    [14639,1532808467,57.2431,-111.8674,564.7,236.2,175.2,2.5,-0.3,26.85,34.15,1.9178,377.6294],
    [14640,1532808468,57.2425,-111.8672,565.6,242.6,174.2,1.9,0.1,26.8,34.21,1.9198,376.5697],
    [14641,1532808469,57.2418,-111.8671,566.2,250.2,174.6,2.4,0.1,27.0,34.1,1.9192,376.5697],
    [14642,1532808470,57.2412,-111.8669,567.1,257.4,174.5,1.8,0.2,27.02,34.75,1.92,376.5734],
    [14643,1532808471,57.2406,-111.8668,568.0,261.2,174.9,1.7,1.0,27.78,33.85,1.9185,376.5734],
    [14644,1532808472,57.24,-111.8667,568.2,262.7,176.4,2.9,2.4,27.44,34.13,1.918,378.4938],
    [14645,1532808473,57.2394,-111.8666,568.5,263.5,176.3,2.5,2.1,27.24,34.12,1.9151,377.3816],
    [14646,1532808474,57.2388,-111.8664,568.2,264.2,176.1,1.8,2.1,27.11,34.34,1.9152,376.3077],
    [14647,1532808475,57.2382,-111.8663,567.2,265.8,177.3,2.5,2.4,27.12,34.53,1.9136,378.9269],
    [14648,1532808476,57.2376,-111.8663,566.5,267.6,178.1,2.6,3.4,27.08,33.17,1.9117,378.9269],
    [14649,1532808477,57.237,-111.8662,565.9,267.9,178.5,2.4,4.4,27.87,31.63,1.9126,377.6061],
    [14650,1532808478,57.2364,-111.8661,565.6,268.6,179.3,2.9,4.7,27.19,31.82,1.912,378.8241],
    [14651,1532808479,57.2358,-111.8661,564.9,266.8,181.0,4.0,4.8,27.51,30.68,1.9151,379.3941],
    [14652,1532808480,57.2352,-111.866,564.4,265.8,180.6,2.8,4.4,26.92,31.09,1.9161,379.3941],
    [14653,1532808481,57.2346,-111.866,564.2,262.8,180.9,3.0,4.3,27.17,31.18,1.921,377.6042],
    [14654,1532808482,57.234,-111.866,564.0,260.9,181.2,3.0,4.1,27.26,31.81,1.9134,379.6382],
    [14655,1532808483,57.2334,-111.8659,563.0,259.3,181.4,3.0,3.8,26.8,31.77,1.9122,379.4808],
    [14656,1532808484,57.2329,-111.8659,561.9,258.6,182.0,3.5,4.2,27.37,31.54,1.9122,377.7121],
    [14657,1532808485,57.2323,-111.8659,560.5,257.9,182.0,3.2,3.9,28.19,30.61,1.9112,379.5333],
    [14658,1532808486,57.2317,-111.8659,558.6,256.5,182.2,3.1,3.8,27.49,30.48,1.9105,379.7596],
    [14659,1532808487,57.2311,-111.8659,556.3,255.2,182.6,3.3,4.0,27.92,29.46,1.9116,378.8725],
    [14660,1532808488,57.2305,-111.8659,554.0,252.9,182.8,3.0,3.2,27.52,29.76,1.9133,380.2599],
    [14661,1532808489,57.2299,-111.8659,551.3,248.6,182.8,2.4,3.1,27.44,29.85,1.9139,379.1526],
    [14662,1532808490,57.2293,-111.8659,548.3,242.9,182.6,1.6,2.4,27.27,29.73,1.9133,380.1411],
    [14663,1532808491,57.2287,-111.8659,546.0,239.7,183.6,2.5,2.0,26.86,30.12,1.9145,379.2415],
    [14664,1532808492,57.2282,-111.866,544.8,237.9,183.8,2.3,2.2,28.11,29.45,1.9147,380.2003],
    [14665,1532808493,57.2275,-111.866,543.8,235.8,182.9,1.3,2.6,27.57,30.69,1.9139,380.2003],
    [14666,1532808494,57.227,-111.8661,542.1,233.0,183.9,2.5,2.3,27.53,30.86,1.914,379.8749],
    [14667,1532808495,57.2264,-111.8661,539.7,229.7,184.6,3.1,2.5,27.55,30.55,1.9145,379.0288],
    [14668,1532808496,57.2258,-111.8661,537.4,224.8,185.0,3.4,2.7,27.31,30.37,1.9152,378.7764],
    [14669,1532808497,57.2252,-111.8662,535.6,218.9,186.4,4.3,1.6,27.64,30.18,1.9152,377.5864],
    [14670,1532808498,57.2246,-111.8662,534.2,214.2,186.4,3.5,0.8,27.85,29.99,1.9154,378.7115],
    [14671,1532808499,57.224,-111.8663,532.8,210.1,186.8,3.0,0.2,27.36,30.43,1.9156,379.3084],
    [14672,1532808500,57.2234,-111.8664,530.8,205.3,187.0,2.7,0.3,27.68,30.61,1.9125,379.2631],
    [14673,1532808501,57.2228,-111.8665,528.2,200.2,188.3,3.4,0.3,28.31,29.85,1.9109,379.2631],
    [14674,1532808502,57.2222,-111.8666,525.5,194.5,188.9,3.7,0.4,27.68,30.29,1.9084,379.95],
    [14675,1532808503,57.2216,-111.8667,522.9,191.9,189.3,4.0,-0.6,27.76,29.56,1.9106,380.5681],
    [14676,1532808504,57.221,-111.8668,520.7,189.7,188.9,3.4,-0.5,27.77,28.83,1.9013,380.4061],
    [14677,1532808505,57.2204,-111.867,519.3,188.3,189.4,3.5,-0.9,27.93,27.6,1.9019,381.9347],
    [14678,1532808506,57.2198,-111.8671,518.1,186.1,189.8,3.0,-0.7,27.83,26.46,1.9032,381.9347],
    [14679,1532808507,57.2192,-111.8672,518.0,186.1,188.6,1.2,-0.8,27.79,25.53,1.9078,381.836],
    [14680,1532808508,57.2186,-111.8674,518.4,187.4,190.2,3.4,-0.9,27.8,25.1,1.9099,381.7727],
    [14681,1532808509,57.218,-111.8675,516.8,185.8,192.6,5.9,-0.1,28.16,24.31,1.9049,380.8835],
    [14682,1532808510,57.2175,-111.8677,514.3,183.3,191.5,4.2,0.1,27.29,24.84,1.9031,382.6299],
    [14683,1532808511,57.2169,-111.8678,511.7,180.7,192.1,4.1,-0.1,27.68,24.82,1.9111,381.4994],
    [14684,1532808512,57.2163,-111.868,508.3,177.3,193.4,4.4,-1.5,28.58,24.36,1.9098,381.7206],
    [14685,1532808513,57.2157,-111.8682,504.9,173.9,193.7,4.0,-1.1,28.38,24.24,1.9082,381.7405],
    [14686,1532808514,57.2151,-111.8684,503.8,172.0,193.2,2.9,-0.8,28.65,24.25,1.9089,381.8699],
    [14687,1532808515,57.2145,-111.8686,503.9,171.9,192.2,2.6,0.0,28.15,25.17,1.9099,381.2815],
    [14688,1532808516,57.2139,-111.8688,503.1,171.1,193.7,4.7,-0.6,27.98,25.75,1.9081,381.2815],
    [14689,1532808517,57.2133,-111.8689,501.2,169.0,192.6,4.1,0.0,27.44,24.95,1.9076,382.0775],
    [14690,1532808518,57.2127,-111.8691,499.8,168.0,191.0,3.2,-0.4,27.69,25.02,1.9082,383.1174],
    [14691,1532808519,57.2121,-111.8693,498.3,167.3,191.6,3.8,-1.3,27.9,25.06,1.9106,382.0641],
    [14692,1532808520,57.2115,-111.8694,496.7,165.3,192.0,4.2,-2.4,27.81,24.45,1.9097,382.29],
    [14693,1532808521,57.2109,-111.8696,494.8,162.9,192.0,4.1,-2.0,28.12,24.56,1.9093,382.2709],
    [14694,1532808522,57.2104,-111.8697,493.3,160.3,190.6,2.9,-2.3,27.61,24.64,1.916,383.3889],
    [14695,1532808523,57.2098,-111.8699,492.3,159.3,190.7,3.4,-3.2,27.53,25.01,1.9183,381.4356],
    [14696,1532808524,57.2092,-111.87,491.5,158.5,191.6,3.7,-3.5,28.01,25.45,1.919,380.4866],
    [14697,1532808525,57.2086,-111.8702,490.9,159.0,190.7,2.7,-3.0,27.72,26.38,1.9341,381.0578],
    [14698,1532808526,57.208,-111.8703,490.2,159.2,193.2,4.4,-3.9,28.51,26.75,1.936,379.7465],
    [14699,1532808527,57.2074,-111.8705,489.4,158.4,193.2,3.9,-2.2,28.15,28.31,1.939,380.1526],
    [14700,1532808528,57.2068,-111.8707,487.8,156.8,193.9,4.2,-2.5,27.86,30.49,1.9442,378.0317],
    [14701,1532808529,57.2062,-111.8709,486.3,155.3,195.0,4.8,-2.9,28.18,32.46,1.9452,378.9809],
    [14702,1532808530,57.2057,-111.8711,485.4,154.4,194.5,3.4,-1.9,27.99,33.96,1.9427,378.4867],
    [14703,1532808531,57.2051,-111.8713,485.8,154.8,193.3,1.6,-2.2,28.01,34.64,1.9393,377.9241],
    [14704,1532808532,57.2045,-111.8715,485.9,154.9,194.2,2.4,-3.0,28.18,35.59,1.9365,378.5996],
    [14705,1532808533,57.2039,-111.8717,485.9,154.9,195.4,3.9,-2.7,28.08,35.77,1.9347,377.7142],
    [14706,1532808534,57.2034,-111.8719,485.0,154.0,195.3,3.7,-2.4,27.7,35.75,1.9383,377.4522],
    [14707,1532808535,57.2028,-111.8722,484.8,152.8,194.7,3.0,-2.5,28.44,35.17,1.9395,377.8085],
    [14708,1532808536,57.2022,-111.8724,484.9,152.9,195.1,3.4,-2.4,28.44,35.55,1.9402,378.1549],
    [14709,1532808537,57.2017,-111.8726,484.8,152.8,196.2,3.7,-3.1,28.02,36.15,1.9399,376.3712],
    [14710,1532808538,57.2011,-111.8728,484.1,152.1,196.3,3.6,-3.3,28.01,36.55,1.9412,376.1316],
    [14711,1532808539,57.2005,-111.8731,482.7,149.7,196.5,3.9,-3.7,27.96,36.69,1.9389,377.5795],
    [14712,1532808540,57.2,-111.8733,481.3,148.3,195.2,3.1,-4.0,28.05,37.21,1.9396,377.0968],
    [14713,1532808541,57.1994,-111.8735,479.9,146.9,194.7,3.3,-4.6,28.22,37.07,1.9396,377.411],
    [14714,1532808542,57.1989,-111.8737,478.4,144.4,193.4,3.1,-4.4,28.06,38.22,1.9388,377.411],
    [14715,1532808543,57.1983,-111.8738,477.1,143.1,193.2,4.1,-3.6,27.52,37.78,1.9397,376.3599],
    [14716,1532808544,57.1977,-111.874,474.5,140.5,192.0,3.7,-3.6,27.89,37.86,1.9393,376.3039],
    [14717,1532808545,57.1972,-111.8741,472.2,138.2,190.8,3.2,-4.3,28.62,37.22,1.9372,376.3584],
    [14718,1532808546,57.1966,-111.8742,470.8,136.8,189.8,2.9,-4.5,27.35,38.14,1.937,376.6604],
    [14719,1532808547,57.196,-111.8744,468.3,134.3,190.1,4.1,-4.6,27.83,38.16,1.9364,376.321],
    [14720,1532808548,57.1954,-111.8745,465.6,131.6,188.4,3.6,-4.0,28.18,37.75,1.9367,376.3932],
    [14721,1532808549,57.1949,-111.8745,462.5,128.5,186.6,3.7,-3.4,28.13,37.42,1.9376,374.9941],
    [14722,1532808550,57.1943,-111.8746,460.0,127.0,185.5,4.1,-3.8,28.01,38.52,1.9387,374.9941],
    [14723,1532808551,57.1937,-111.8746,458.5,125.5,183.8,4.3,-3.3,28.03,37.81,1.9292,378.0156],
    [14724,1532808552,57.1931,-111.8746,458.0,125.0,183.1,4.9,-3.0,27.16,37.51,1.9294,377.5624],
    [14725,1532808553,57.1926,-111.8745,458.4,125.4,181.9,4.5,-3.3,28.0,37.19,1.9295,377.2192],
    [14726,1532808554,57.192,-111.8745,459.1,126.1,180.8,3.8,-3.0,27.91,36.69,1.9299,377.6303],
    [14727,1532808555,57.1914,-111.8744,459.3,126.6,180.7,4.7,-2.6,28.29,35.15,1.9321,378.0401],
    [14728,1532808556,57.1909,-111.8744,459.5,126.5,180.7,5.2,-2.3,27.43,35.39,1.9306,378.1084],
    [14729,1532808557,57.1903,-111.8743,459.8,126.8,179.2,4.1,-2.4,27.61,35.75,1.9315,377.3782],
    [14730,1532808558,57.1897,-111.8742,461.2,128.2,178.5,3.3,-2.4,27.84,35.87,1.9333,377.6932],
    [14731,1532808559,57.1892,-111.8741,463.1,130.1,178.8,3.3,-2.3,27.61,35.77,1.931,378.0673],
    [14732,1532808560,57.1886,-111.874,465.3,131.3,178.8,2.4,-2.5,27.31,36.12,1.9317,376.4058],
    [14733,1532808561,57.1881,-111.874,467.3,133.3,179.4,2.2,-2.9,28.15,35.74,1.9322,376.8272],
    [14734,1532808562,57.1875,-111.874,468.7,134.7,180.0,2.0,-3.1,27.81,36.8,1.9318,376.8272],
    [14735,1532808563,57.187,-111.8739,470.6,136.6,179.1,0.7,-2.6,27.77,36.91,1.9309,376.8432],
    [14736,1532808564,57.1864,-111.8739,473.0,138.0,179.6,1.4,-2.8,27.74,36.69,1.9318,376.8432],
    [14737,1532808565,57.1859,-111.8739,475.1,140.1,181.5,2.7,-3.8,27.7,37.02,1.931,375.8533],
    [14738,1532808566,57.1853,-111.8739,476.8,141.8,180.3,1.4,-3.7,27.54,36.78,1.9307,376.9689],
    [14739,1532808567,57.1848,-111.8738,478.3,143.3,180.0,1.8,-2.6,27.78,36.67,1.9311,376.9689],
    [14740,1532808568,57.1842,-111.8738,479.1,143.0,179.8,2.1,-1.6,26.97,37.18,1.9324,376.572],
    [14741,1532808569,57.1837,-111.8738,479.4,143.4,177.5,0.5,-1.1,27.49,37.1,1.931,377.6012],
    [14742,1532808570,57.1832,-111.8737,480.3,144.3,177.1,0.7,-0.8,27.75,37.34,1.9308,376.2167],
    [14743,1532808571,57.1826,-111.8736,482.0,146.0,178.1,1.6,-0.8,28.06,36.68,1.9314,376.2167],
    [14744,1532808572,57.1821,-111.8736,484.2,148.2,179.0,2.0,-0.8,27.63,37.78,1.9324,377.4157],
    [14745,1532808573,57.1816,-111.8735,485.1,149.3,179.8,2.4,-0.2,27.58,36.97,1.9306,376.8364],
    [14746,1532808574,57.1811,-111.8735,486.0,151.0,179.6,2.0,0.1,26.92,37.08,1.9319,376.453],
    [14747,1532808575,57.1806,-111.8735,487.0,152.0,179.3,1.8,0.6,27.57,37.35,1.9302,376.4805],
    [14748,1532808576,57.18,-111.8734,487.9,152.9,178.9,0.9,0.3,27.42,36.79,1.9303,376.9221],
    [14749,1532808577,57.1795,-111.8734,489.1,154.1,177.9,0.0,1.1,28.09,36.75,1.9295,376.6822],
    [14750,1532808578,57.179,-111.8734,489.2,154.2,179.4,1.4,0.8,27.39,37.18,1.9291,377.4751],
    [14751,1532808579,57.1785,-111.8733,488.5,153.5,179.8,1.6,0.5,27.88,36.25,1.9291,377.5085],
    [14752,1532808580,57.178,-111.8733,487.4,152.1,179.6,1.6,0.0,27.68,36.88,1.9296,376.2168],
    [14753,1532808581,57.1775,-111.8733,486.4,150.4,179.5,1.4,0.0,27.29,36.57,1.929,377.6228],
    [14754,1532808582,57.177,-111.8732,485.5,149.5,178.5,0.5,-0.2,27.86,36.01,1.9287,378.023],
    [14755,1532808583,57.1765,-111.8732,485.4,149.4,178.8,1.0,-0.5,27.31,36.4,1.9289,378.0497],
    [14756,1532808584,57.1759,-111.8732,486.1,150.1,178.9,0.8,0.7,27.16,35.83,1.9308,376.2118],
    [14757,1532808585,57.1754,-111.8731,486.4,150.4,177.8,0.0,1.2,27.49,36.14,1.9295,378.1932],
    [14758,1532808586,57.1749,-111.8731,485.9,149.2,179.1,1.1,1.5,28.25,34.96,1.9293,378.323],
    [14759,1532808587,57.1744,-111.8731,485.6,148.6,179.1,0.8,1.7,27.65,36.36,1.9292,378.7106],
    [14760,1532808588,57.1739,-111.873,485.5,148.5,178.7,0.4,2.0,27.98,35.44,1.929,377.7367],
    [14761,1532808589,57.1734,-111.873,485.3,148.3,179.2,0.8,1.6,27.04,35.54,1.9295,378.0194],
    [14762,1532808590,57.1729,-111.873,484.9,148.9,179.7,1.2,1.4,27.62,35.97,1.9289,377.7326],
    [14763,1532808591,57.1723,-111.873,484.8,148.8,179.8,1.1,2.1,27.74,35.11,1.9289,378.1486],
    [14764,1532808592,57.1718,-111.8729,485.7,149.7,179.9,1.1,2.7,27.39,35.89,1.9292,377.4393],
    [14765,1532808593,57.1713,-111.8729,486.7,150.7,179.6,0.9,2.7,28.06,35.02,1.9286,377.6346],
    [14766,1532808594,57.1708,-111.8729,487.7,151.7,179.1,0.6,3.0,27.53,35.22,1.9274,377.4236],
    [14767,1532808595,57.1703,-111.8729,489.3,153.3,179.7,1.4,3.7,27.26,35.21,1.9278,377.1866],
    [14768,1532808596,57.1698,-111.8728,490.7,154.0,179.9,1.5,5.2,27.51,35.31,1.9279,377.7339],
    [14769,1532808597,57.1693,-111.8728,491.9,155.2,179.5,0.8,5.9,27.37,35.33,1.9292,378.0022],
    [14770,1532808598,57.1688,-111.8728,493.7,157.7,178.5,0.0,5.9,27.96,34.73,1.9278,377.6982],
    [14771,1532808599,57.1683,-111.8728,495.3,159.3,178.9,0.3,5.0,27.57,35.98,1.9275,378.315],
    [14772,1532808600,57.1678,-111.8727,496.8,161.8,179.5,1.2,4.3,27.7,34.87,1.9275,377.5329],
    [14773,1532808601,57.1673,-111.8727,497.5,162.5,179.7,1.3,3.9,28.21,34.21,1.9295,378.9621],
    [14774,1532808602,57.1669,-111.8727,497.8,162.8,179.0,1.2,3.2,28.36,34.13,1.9292,378.0154],
    [14775,1532808603,57.1664,-111.8726,497.3,161.3,180.1,2.8,3.0,27.97,34.39,1.9302,378.2647],
    [14776,1532808604,57.1659,-111.8726,496.9,160.9,179.5,2.5,3.1,27.51,34.55,1.9301,378.8508],
    [14777,1532808605,57.1654,-111.8725,497.2,161.2,178.1,1.8,2.7,28.07,34.45,1.9286,378.041],
    [14778,1532808606,57.1649,-111.8725,497.5,161.5,178.4,2.7,3.1,27.6,34.76,1.9275,377.4164],
    [14779,1532808607,57.1644,-111.8724,498.4,161.4,177.4,2.5,4.1,27.16,34.93,1.9268,377.3363],
    [14780,1532808608,57.1639,-111.8723,499.6,162.6,175.6,2.0,4.3,27.58,35.56,1.9234,376.4668],
    [14781,1532808609,57.1634,-111.8722,499.8,162.8,175.4,2.5,5.4,27.73,34.94,1.9214,378.5384],
    [14782,1532808610,57.163,-111.8721,499.4,162.4,173.5,1.4,4.9,28.33,34.29,1.9201,377.721],
    [14783,1532808611,57.1625,-111.8719,498.3,161.3,172.6,1.5,4.2,27.42,34.73,1.9198,377.9596],
    [14784,1532808612,57.162,-111.8718,497.3,160.3,172.9,2.0,4.0,27.59,33.91,1.9211,377.6797],
    [14785,1532808613,57.1615,-111.8716,496.6,159.6,172.0,1.0,3.9,27.73,33.17,1.9218,378.1319],
    [14786,1532808614,57.1611,-111.8715,496.4,159.4,173.2,1.6,3.9,27.66,33.33,1.9211,377.0377],
    [14787,1532808615,57.1606,-111.8713,496.4,159.4,174.2,2.4,3.3,27.41,33.64,1.9171,377.2599],
    [14788,1532808616,57.1601,-111.8712,495.5,158.5,174.9,3.2,2.7,27.59,33.55,1.9174,377.1894],
    [14789,1532808617,57.1596,-111.8711,494.1,157.1,174.3,2.9,3.2,27.43,33.79,1.9169,377.9677],
    [14790,1532808618,57.1591,-111.8709,494.0,156.0,172.7,1.5,3.0,27.52,33.44,1.9269,377.8952],
    [14791,1532808619,57.1586,-111.8708,493.7,155.7,172.1,1.7,2.6,27.7,33.36,1.9275,377.8234],
    [14792,1532808620,57.1581,-111.8706,492.6,154.7,173.8,4.0,2.8,27.54,33.69,1.9271,378.676],
    [14793,1532808621,57.1576,-111.8704,491.2,154.5,172.4,3.2,2.7,27.58,34.48,1.9241,378.3418],
    [14794,1532808622,57.1571,-111.8702,489.9,154.9,170.4,2.3,2.0,27.53,34.27,1.924,377.2777],
    [14795,1532808623,57.1566,-111.87,489.6,158.2,170.2,2.6,1.4,27.38,34.7,1.9234,376.893],
    [14796,1532808624,57.1561,-111.8698,489.0,162.3,169.4,2.2,1.0,27.32,34.2,1.923,377.8727],
    [14797,1532808625,57.1556,-111.8696,487.8,162.5,169.4,2.7,0.6,27.62,34.37,1.9178,376.7699],
    [14798,1532808626,57.1551,-111.8694,486.4,161.5,169.4,3.0,0.0,28.13,33.58,1.9188,376.9114],
    [14799,1532808627,57.1546,-111.8692,484.9,158.9,168.7,2.2,0.5,27.37,34.18,1.9184,375.6363],
    [14800,1532808628,57.1541,-111.8689,483.8,156.0,168.7,1.6,0.6,27.65,34.8,1.9191,375.0031],
    [14801,1532808629,57.1536,-111.8687,483.5,154.1,169.1,1.5,0.1,27.03,34.3,1.9177,377.0224],
    [14802,1532808630,57.1531,-111.8685,483.7,153.0,170.9,2.6,0.9,27.56,34.53,1.9196,375.9789],
    [14803,1532808631,57.1526,-111.8683,484.6,151.0,172.3,3.0,1.8,27.55,34.14,1.9183,378.596],
    [14804,1532808632,57.1521,-111.8682,486.1,149.1,173.0,2.9,1.8,26.96,34.3,1.9182,377.6909],
    [14805,1532808633,57.1516,-111.868,487.3,149.3,173.5,2.7,2.9,27.32,33.93,1.919,377.5207],
    [14806,1532808634,57.1511,-111.8679,488.5,150.5,173.7,2.3,4.1,27.94,33.19,1.9161,377.6047],
    [14807,1532808635,57.1506,-111.8677,489.4,151.4,173.9,2.2,4.7,27.64,33.74,1.9136,378.2397],
    [14808,1532808636,57.1501,-111.8676,489.9,150.9,174.5,2.6,4.4,27.65,33.12,1.9117,378.3448],
    [14809,1532808637,57.1496,-111.8674,490.1,150.1,174.8,2.9,5.1,27.98,32.44,1.9118,378.4305],
    [14810,1532808638,57.1491,-111.8673,489.7,149.3,174.9,2.9,5.1,27.55,33.07,1.9133,378.0023],
    [14811,1532808639,57.1486,-111.8672,489.5,148.5,174.0,2.3,5.0,27.42,32.21,1.9127,378.9002],
    [14812,1532808640,57.1481,-111.867,489.5,148.5,172.9,1.9,4.8,27.87,31.45,1.913,379.0457],
    [14813,1532808641,57.1476,-111.8669,489.5,148.5,171.9,1.4,4.7,28.18,30.81,1.913,379.2572],
    [14814,1532808642,57.1471,-111.8667,490.7,149.7,169.3,0.3,4.8,28.04,30.42,1.9162,376.576],
    [14815,1532808643,57.1467,-111.8665,492.3,151.3,168.4,0.7,4.1,27.66,31.49,1.9193,376.6788],
    [14816,1532808644,57.1462,-111.8663,493.8,152.8,167.4,0.7,3.6,27.35,31.88,1.9196,375.779],
    [14817,1532808645,57.1457,-111.866,494.7,153.7,167.2,0.9,3.0,27.38,31.97,1.9176,375.9365],
    [14818,1532808646,57.1452,-111.8658,494.6,154.6,168.0,1.6,3.9,27.59,33.38,1.9163,378.2076],
    [14819,1532808647,57.1447,-111.8656,494.4,154.4,168.8,1.9,3.2,28.28,32.94,1.9163,377.1],
    [14820,1532808648,57.1442,-111.8654,494.4,154.4,169.5,1.9,3.9,27.9,33.11,1.9113,376.613],
    [14821,1532808649,57.1437,-111.8652,494.3,154.3,171.2,3.0,4.2,27.69,33.03,1.912,378.5863],
    [14822,1532808650,57.1432,-111.865,494.6,154.6,170.5,2.1,3.8,27.26,32.41,1.9119,377.3214],
    [14823,1532808651,57.1427,-111.8648,495.8,155.8,169.9,1.8,3.5,27.23,32.22,1.9118,376.5818],
    [14824,1532808652,57.1423,-111.8646,496.0,156.0,171.1,3.2,3.4,27.14,32.22,1.9126,377.3467],
    [14825,1532808653,57.1418,-111.8644,495.7,155.7,171.3,3.3,3.4,27.89,31.92,1.9118,377.2282],
    [14826,1532808654,57.1413,-111.8642,496.0,156.0,170.4,2.6,3.8,28.12,32.03,1.9123,378.7773],
    [14827,1532808655,57.1408,-111.864,496.6,156.6,170.5,2.6,4.2,27.64,31.98,1.9116,378.7773],
    [14828,1532808656,57.1403,-111.8637,497.6,157.6,170.0,2.0,4.1,27.21,31.84,1.9128,378.8525],
    [14829,1532808657,57.1398,-111.8635,498.9,158.9,170.5,2.5,5.0,27.34,31.2,1.9135,378.8638],
    [14830,1532808658,57.1393,-111.8633,500.2,160.2,170.8,2.7,5.1,28.02,30.44,1.916,378.0618],
    [14831,1532808659,57.1388,-111.8631,501.2,161.2,170.6,2.7,4.8,27.71,30.73,1.9159,377.9262],
    [14832,1532808660,57.1383,-111.8629,502.4,161.7,171.7,3.6,5.3,27.82,30.66,1.9175,378.3725],
    [14833,1532808661,57.1378,-111.8627,503.6,162.6,170.3,1.9,5.6,27.6,31.08,1.9163,377.9788],
    [14834,1532808662,57.1373,-111.8625,504.4,163.4,169.0,1.1,4.9,28.04,31.49,1.915,378.6273],
    [14835,1532808663,57.1368,-111.8623,503.9,162.9,169.6,1.9,4.5,27.36,32.67,1.9139,379.4035],
    [14836,1532808664,57.1363,-111.8621,502.8,161.8,168.5,1.5,3.7,28.12,31.45,1.9135,378.7916],
    [14837,1532808665,57.1358,-111.8618,501.3,160.3,169.1,2.8,3.6,27.19,32.08,1.9126,379.2859],
    [14838,1532808666,57.1353,-111.8616,499.3,158.3,169.3,3.2,3.2,27.65,31.69,1.9113,379.1573],
    [14839,1532808667,57.1348,-111.8614,498.5,157.5,167.0,1.0,2.4,27.64,30.93,1.9129,378.8102],
    [14840,1532808668,57.1343,-111.8611,499.2,159.2,166.9,1.4,2.5,27.09,30.77,1.9141,378.8102],
    [14841,1532808669,57.1338,-111.8609,499.5,159.5,169.7,3.4,3.3,27.82,30.58,1.9168,378.8729],
    [14842,1532808670,57.1332,-111.8606,499.8,159.8,169.3,2.5,3.3,28.07,30.49,1.917,379.2926],
    [14843,1532808671,57.1327,-111.8604,499.7,159.7,170.0,3.0,3.1,27.89,30.93,1.918,378.8908],
    [14844,1532808672,57.1322,-111.8602,499.1,159.1,170.3,3.1,3.4,27.0,31.84,1.917,377.5227],
    [14845,1532808673,57.1317,-111.8599,498.3,158.3,169.7,2.8,3.0,27.81,32.07,1.914,378.8324],
    [14846,1532808674,57.1312,-111.8597,497.3,157.3,170.0,3.3,2.6,27.36,32.2,1.9153,378.3031],
    [14847,1532808675,57.1307,-111.8595,496.4,156.4,169.8,3.0,2.8,27.65,32.41,1.9156,377.4275],
    [14848,1532808676,57.1302,-111.8593,496.2,156.2,169.7,2.8,3.8,27.57,32.55,1.9182,378.8576],
    [14849,1532808677,57.1297,-111.859,496.8,156.8,170.4,2.9,4.5,27.59,33.16,1.9185,377.9246],
    [14850,1532808678,57.1292,-111.8588,498.9,158.9,170.3,2.3,4.6,27.28,33.02,1.9175,379.5486],
    [14851,1532808679,57.1287,-111.8586,501.3,161.3,170.1,1.7,4.4,27.4,32.85,1.9187,378.3454],
    [14852,1532808680,57.1281,-111.8584,502.6,162.6,170.3,1.5,4.8,28.17,31.65,1.9175,377.8849],
    [14853,1532808681,57.1276,-111.8582,503.2,163.2,171.9,2.7,5.0,27.24,33.01,1.9166,376.7495],
    [14854,1532808682,57.1271,-111.858,503.4,163.4,173.5,4.0,4.5,28.27,32.36,1.919,376.7441],
    [14855,1532808683,57.1266,-111.8578,503.3,163.3,172.4,2.9,4.1,27.94,33.48,1.917,376.2606],
    [14856,1532808684,57.1261,-111.8577,503.2,163.2,171.9,2.5,4.8,27.57,34.95,1.9175,377.8642],
    [14857,1532808685,57.1256,-111.8575,503.8,163.8,170.9,1.6,5.1,27.19,35.14,1.9155,377.4272],
    [14858,1532808686,57.1251,-111.8573,504.5,164.5,170.3,1.7,5.0,27.57,35.4,1.9144,377.9435],
    [14859,1532808687,57.1246,-111.8571,504.4,164.4,170.7,2.5,4.7,27.85,34.31,1.9154,376.6407],
    [14860,1532808688,57.1241,-111.8569,504.1,164.1,170.3,2.6,4.3,27.58,34.22,1.9137,376.6919],
    [14861,1532808689,57.1236,-111.8566,503.6,163.6,170.9,3.4,4.6,27.54,33.52,1.9153,379.1946],
    [14862,1532808690,57.1231,-111.8564,503.0,163.0,170.6,3.0,4.5,27.7,33.55,1.9152,377.6055],
    [14863,1532808691,57.1226,-111.8562,502.9,162.9,170.0,2.7,4.2,27.73,32.63,1.9147,378.3917],
    [14864,1532808692,57.122,-111.856,503.1,163.1,170.2,3.1,4.1,27.55,32.84,1.9136,378.7083],
    [14865,1532808693,57.1215,-111.8558,503.4,163.4,169.5,2.2,3.7,28.09,31.42,1.9139,379.7798],
    [14866,1532808694,57.121,-111.8555,504.0,165.0,167.9,0.8,3.1,26.93,31.91,1.9145,379.7798],
    [14867,1532808695,57.1205,-111.8553,505.0,166.0,168.7,1.5,3.3,27.68,31.6,1.9145,378.8849],
    [14868,1532808696,57.12,-111.8551,505.8,166.8,169.8,2.3,3.3,27.87,31.24,1.9143,378.8849],
    [14869,1532808697,57.1195,-111.8549,506.9,167.9,170.3,2.6,3.4,27.55,31.52,1.9136,378.5456],
    [14870,1532808698,57.1189,-111.8547,508.3,169.3,171.1,2.9,3.2,27.37,31.45,1.9146,379.2389],
    [14871,1532808699,57.1184,-111.8545,509.7,170.7,171.3,2.9,3.4,27.37,31.44,1.9137,376.7793],
    [14872,1532808700,57.1179,-111.8543,511.2,172.2,171.7,3.3,3.4,27.59,31.57,1.9166,377.194],
    [14873,1532808701,57.1174,-111.8541,512.8,173.8,171.6,3.0,3.7,27.5,31.65,1.9158,378.212],
    [14874,1532808702,57.1169,-111.8539,513.6,174.6,170.5,2.0,3.1,27.03,31.75,1.9171,378.5806],
    [14875,1532808703,57.1163,-111.8537,513.3,174.3,170.1,1.9,2.7,27.52,32.0,1.9154,378.1964],
    [14876,1532808704,57.1158,-111.8535,512.5,173.5,170.4,2.3,2.6,27.55,32.71,1.9161,377.8254],
    [14877,1532808705,57.1153,-111.8532,512.1,173.1,169.9,1.8,2.5,28.18,31.89,1.9161,377.139],
    [14878,1532808706,57.1148,-111.853,512.0,173.0,169.9,2.0,2.5,26.94,33.03,1.915,377.139],
    [14879,1532808707,57.1143,-111.8528,511.7,172.7,170.4,2.3,2.6,27.19,33.57,1.9153,378.3816],
    [14880,1532808708,57.1137,-111.8526,511.1,172.1,170.5,2.5,2.3,27.51,33.38,1.9201,377.2804],
    [14881,1532808709,57.1132,-111.8524,510.2,170.4,170.8,2.7,2.8,27.61,33.44,1.9226,377.1453],
    [14882,1532808710,57.1127,-111.8522,509.0,169.0,170.5,2.7,2.8,27.64,33.49,1.9241,376.5397],
    [14883,1532808711,57.1121,-111.852,508.2,168.2,169.9,2.3,2.8,27.62,34.93,1.9245,376.5397],
    [14884,1532808712,57.1116,-111.8517,507.8,167.8,169.9,2.5,2.6,27.16,35.3,1.9264,375.7397],
    [14885,1532808713,57.1111,-111.8515,507.9,166.9,170.0,2.4,2.5,26.98,35.82,1.9232,374.9471],
    [14886,1532808714,57.1105,-111.8513,508.0,167.0,169.7,1.9,2.4,27.28,36.5,1.922,375.6728],
    [14887,1532808715,57.11,-111.8511,508.1,167.1,169.8,2.2,2.3,27.37,36.62,1.9226,374.5997],
    [14888,1532808716,57.1094,-111.8509,508.5,167.5,169.2,1.7,2.5,27.41,37.22,1.9243,376.2842],
    [14889,1532808717,57.1089,-111.8506,509.0,167.0,168.5,0.9,3.1,27.48,38.17,1.9224,375.3999],
    [14890,1532808718,57.1084,-111.8504,508.7,166.7,168.9,1.6,3.5,27.68,37.51,1.9175,375.24],
    [14891,1532808719,57.1079,-111.8502,507.6,165.6,169.3,2.2,3.6,27.31,37.72,1.9198,377.1444],
    [14892,1532808720,57.1073,-111.8499,506.7,163.7,167.9,1.3,2.7,27.02,37.48,1.9182,377.1444],
    [14893,1532808721,57.1068,-111.8497,506.4,163.4,167.9,1.6,2.9,26.93,37.26,1.9197,376.9586],
    [14894,1532808722,57.1062,-111.8494,506.5,163.5,168.5,2.1,2.9,27.42,36.68,1.9217,376.9201],
    [14895,1532808723,57.1057,-111.8492,506.6,163.6,168.6,2.1,3.2,27.44,36.69,1.9264,379.3848],
    [14896,1532808724,57.1051,-111.849,506.9,163.9,169.0,2.4,3.2,27.47,37.11,1.9292,378.7613],
    [14897,1532808725,57.1046,-111.8487,507.7,163.7,168.7,2.1,2.7,27.53,37.44,1.9287,379.7726],
    [14898,1532808726,57.104,-111.8485,509.1,165.1,168.2,1.9,2.9,27.31,37.97,1.9281,379.6976],
    [14899,1532808727,57.1035,-111.8482,510.6,166.6,168.3,2.1,3.0,26.91,37.81,1.928,380.7071],
    [14900,1532808728,57.103,-111.848,512.2,168.2,168.1,2.0,3.1,27.32,38.08,1.9283,379.4285],
    [14901,1532808729,57.1024,-111.8477,513.7,169.7,168.1,2.3,3.2,27.33,37.9,1.9281,378.9558],
    [14902,1532808730,57.1019,-111.8474,515.3,171.3,167.6,1.8,3.3,27.36,38.19,1.9292,378.621],
    [14903,1532808731,57.1014,-111.8472,516.7,172.7,168.0,2.1,3.9,28.19,37.39,1.9312,378.621],
    [14904,1532808732,57.1008,-111.8469,518.1,174.1,167.8,1.4,4.1,27.3,38.62,1.9287,378.2749],
    [14905,1532808733,57.1003,-111.8467,519.3,175.3,168.3,1.7,4.5,26.99,38.34,1.9299,376.0394],
    [14906,1532808734,57.0997,-111.8464,520.1,176.0,169.0,1.9,4.9,27.43,38.32,1.9286,376.434],
    [14907,1532808735,57.0992,-111.8462,520.9,175.9,168.3,0.9,4.5,27.38,38.94,1.9276,376.434],
    [14908,1532808736,57.0987,-111.846,521.7,176.7,168.5,1.0,4.1,27.3,39.23,1.9299,376.3295],
    [14909,1532808737,57.0981,-111.8458,522.4,177.4,168.8,1.0,4.0,27.25,38.94,1.9285,377.1419],
    [14910,1532808738,57.0976,-111.8455,523.0,178.0,169.4,1.2,3.7,27.06,39.03,1.9283,376.5018],
    [14911,1532808739,57.0971,-111.8453,523.1,178.1,170.4,1.5,3.2,27.37,39.01,1.9291,375.8323],
    [14912,1532808740,57.0965,-111.8451,522.9,177.9,171.2,1.4,3.2,27.43,38.77,1.9289,375.5825],
    [14913,1532808741,57.096,-111.845,523.0,177.0,172.2,1.8,3.0,27.34,39.09,1.9276,376.2562],
    [14914,1532808742,57.0954,-111.8448,523.3,177.3,172.0,1.4,2.6,27.33,39.84,1.9284,376.9632],
    [14915,1532808743,57.0948,-111.8446,523.9,177.9,170.8,0.4,2.1,28.15,38.35,1.9293,373.9207],
    [14916,1532808744,57.0943,-111.8444,524.6,177.6,171.0,0.7,2.4,27.28,39.59,1.9281,376.0534],
    [14917,1532808745,57.0937,-111.8442,525.3,178.3,171.3,1.0,2.3,26.83,38.88,1.9293,377.0206],
    [14918,1532808746,57.0932,-111.8441,526.2,178.4,170.8,0.6,2.1,27.32,38.58,1.9291,375.8087],
    [14919,1532808747,57.0927,-111.8439,527.1,179.1,171.2,0.9,2.8,27.21,39.08,1.9298,375.0845],
    [14920,1532808748,57.0921,-111.8437,527.5,179.5,171.4,1.2,2.5,27.35,39.34,1.9295,376.595],
    [14921,1532808749,57.0915,-111.8435,527.7,178.7,171.3,1.3,2.3,27.29,39.16,1.9281,375.5623],
    [14922,1532808750,57.091,-111.8433,527.9,178.9,171.1,1.3,2.2,27.12,39.05,1.9293,376.1724],
    [14923,1532808751,57.0904,-111.8432,528.4,179.4,170.9,1.2,2.1,27.33,39.0,1.9291,375.4136],
    [14924,1532808752,57.0899,-111.843,529.2,180.2,171.4,1.9,2.4,27.26,39.19,1.9276,375.8326],
    [14925,1532808753,57.0894,-111.8428,529.5,180.5,172.4,2.9,2.5,27.05,38.87,1.9257,376.2186],
    [14926,1532808754,57.0888,-111.8426,529.4,180.4,171.5,2.0,2.3,27.66,38.29,1.9276,375.5856],
    [14927,1532808755,57.0882,-111.8424,528.7,180.1,172.2,3.3,1.7,27.74,37.83,1.9271,375.8104],
    [14928,1532808756,57.0876,-111.8422,527.5,179.5,172.1,3.3,1.0,27.92,37.54,1.9257,376.0719],
    [14929,1532808757,57.0871,-111.842,527.7,179.7,169.9,1.5,1.0,27.38,38.42,1.9262,376.4278],
    [14930,1532808758,57.0865,-111.8418,528.5,180.5,170.3,2.1,1.4,27.43,37.54,1.9271,376.2867],
    [14931,1532808759,57.086,-111.8415,529.2,182.3,170.3,2.5,1.2,27.09,37.66,1.9287,376.8454],
    [14932,1532808760,57.0854,-111.8413,529.5,182.5,170.1,2.5,0.9,26.64,37.7,1.9274,376.2312],
    [14933,1532808761,57.0848,-111.8411,529.9,182.5,169.8,2.3,0.4,27.22,37.9,1.928,376.5157],
    [14934,1532808762,57.0843,-111.8409,530.4,182.4,169.3,1.8,0.6,27.8,37.11,1.9279,376.5157],
    [14935,1532808763,57.0837,-111.8406,530.6,182.6,169.3,1.9,0.7,27.5,37.42,1.9285,376.8366],
    [14936,1532808764,57.0831,-111.8404,530.3,182.3,169.5,2.1,1.1,27.33,37.6,1.9266,376.1986],
    [14937,1532808765,57.0826,-111.8402,529.5,181.5,169.8,2.0,1.3,27.61,37.27,1.9281,376.0581],
    [14938,1532808766,57.082,-111.84,528.9,179.8,169.4,1.0,1.3,27.15,38.66,1.9294,376.6886],
    [14939,1532808767,57.0815,-111.8398,528.3,179.3,169.7,0.9,1.6,27.36,37.86,1.9296,376.4178],
    [14940,1532808768,57.0809,-111.8396,527.6,178.6,170.7,1.2,1.8,26.79,38.64,1.9294,375.7914],
    [14941,1532808769,57.0803,-111.8394,527.9,178.9,170.5,0.4,2.2,27.11,38.89,1.9306,374.6427],
    [14942,1532808770,57.0798,-111.8392,528.4,179.4,170.9,0.6,2.7,27.37,38.58,1.9283,375.3309],
    [14943,1532808771,57.0792,-111.839,528.7,178.7,171.9,1.6,2.9,27.4,38.52,1.9291,376.1851],
    [14944,1532808772,57.0787,-111.8388,528.9,178.9,171.3,1.3,2.2,27.28,39.31,1.9275,375.108],
    [14945,1532808773,57.0781,-111.8386,529.6,179.6,171.2,1.5,2.7,27.09,39.02,1.9259,376.1493],
    [14946,1532808774,57.0776,-111.8384,530.4,180.4,171.3,1.7,3.0,26.53,39.11,1.9268,376.5091],
    [14947,1532808775,57.077,-111.8383,531.4,181.4,170.0,0.5,3.1,27.26,38.45,1.927,376.1494],
    [14948,1532808776,57.0765,-111.8381,532.2,182.1,170.1,0.7,3.6,26.68,38.16,1.9279,375.9687],
    [14949,1532808777,57.0759,-111.8379,533.1,182.1,170.2,0.7,3.7,27.6,38.17,1.9279,375.7782],
    [14950,1532808778,57.0754,-111.8377,534.0,183.0,169.8,0.3,3.6,27.13,37.82,1.9272,375.8347],
    [14951,1532808779,57.0748,-111.8375,534.8,183.8,169.8,0.4,3.7,27.33,38.55,1.927,376.4784],
    [14952,1532808780,57.0743,-111.8373,535.4,184.4,170.0,0.7,3.6,27.08,37.76,1.927,378.2225],
    [14953,1532808781,57.0737,-111.8371,535.6,184.6,169.3,0.2,3.6,27.0,37.79,1.928,376.8042],
    [14954,1532808782,57.0732,-111.8369,535.8,184.8,169.0,0.2,3.3,26.88,37.45,1.9264,375.655],
    [14955,1532808783,57.0726,-111.8367,536.1,185.0,168.6,0.2,3.3,27.22,37.37,1.9267,375.655],
    [14956,1532808784,57.0721,-111.8364,536.1,184.1,168.0,0.1,3.3,26.95,37.55,1.927,376.7081],
    [14957,1532808785,57.0715,-111.8362,536.0,184.0,167.2,-0.4,3.3,27.01,37.54,1.9284,376.0771],
    [14958,1532808786,57.071,-111.836,536.1,184.1,166.4,-0.6,3.0,27.19,37.72,1.9285,377.0693],
    [14959,1532808787,57.0705,-111.8357,536.1,184.1,167.5,1.1,3.2,27.93,37.15,1.9278,377.0693],
    [14960,1532808788,57.0699,-111.8355,536.5,184.5,167.9,1.8,3.7,27.27,38.04,1.9277,377.9402],
    [14961,1532808789,57.0694,-111.8352,536.7,184.7,167.6,1.6,4.4,27.37,37.6,1.9272,376.4673],
    [14962,1532808790,57.0689,-111.835,537.0,184.0,168.5,2.3,5.6,27.58,37.49,1.9252,377.3341],
    [14963,1532808791,57.0683,-111.8347,537.8,184.8,168.1,1.7,5.3,27.59,37.38,1.9247,376.5379],
    [14964,1532808792,57.0678,-111.8345,538.7,185.7,168.1,1.6,5.4,26.79,37.46,1.9238,376.9467],
    [14965,1532808793,57.0672,-111.8342,539.6,186.6,168.5,1.8,5.7,27.04,37.2,1.9254,376.8064],
    [14966,1532808794,57.0667,-111.8339,540.6,186.5,168.1,1.3,5.8,27.93,35.97,1.9267,376.4613],
    [14967,1532808795,57.0662,-111.8337,541.3,187.3,167.9,0.8,6.3,28.02,36.01,1.9277,376.0164],
    [14968,1532808796,57.0657,-111.8335,541.5,187.5,167.5,0.4,5.1,27.4,36.39,1.9261,377.1675],
    [14969,1532808797,57.0651,-111.8332,541.1,186.1,167.7,0.3,5.2,27.22,37.18,1.9262,377.3994],
    [14970,1532808798,57.0646,-111.833,539.9,184.9,168.7,0.6,5.9,27.75,35.79,1.926,377.4037],
    [14971,1532808799,57.064,-111.8328,537.9,182.9,169.8,1.2,5.8,27.35,36.3,1.927,376.2079],
    [14972,1532808800,57.0635,-111.8325,536.1,180.1,171.5,2.5,5.5,27.42,36.37,1.9261,376.2714],
    [14973,1532808801,57.0629,-111.8323,535.1,179.1,171.6,2.4,4.9,27.76,35.32,1.9265,376.7194],
    [14974,1532808802,57.0624,-111.8321,534.1,178.1,171.3,2.0,4.2,26.97,35.8,1.9285,376.3669],
    [14975,1532808803,57.0618,-111.8319,532.9,176.1,170.2,0.9,4.3,27.02,35.73,1.9303,376.3461],
    [14976,1532808804,57.0613,-111.8317,532.1,175.1,169.2,0.7,3.5,27.52,36.04,1.9303,376.5009],
    [14977,1532808805,57.0607,-111.8315,531.5,174.5,170.1,2.0,4.2,27.53,36.38,1.9329,375.3266],
    [14978,1532808806,57.0602,-111.8313,530.1,173.1,170.5,2.5,3.9,27.37,36.52,1.9338,375.3266],
    [14979,1532808807,57.0596,-111.8311,528.7,171.7,169.5,1.5,3.3,27.56,35.86,1.9342,376.3437],
    [14980,1532808808,57.0591,-111.8309,527.6,170.6,169.6,1.7,2.7,27.04,36.04,1.93,376.9939],
    [14981,1532808809,57.0585,-111.8306,526.7,169.7,170.2,2.0,2.7,27.35,36.56,1.9256,376.6362],
    [14982,1532808810,57.058,-111.8304,526.1,170.1,170.2,1.9,2.1,27.73,35.72,1.9271,375.7192],
    [14983,1532808811,57.0574,-111.8302,525.8,169.8,170.3,1.8,1.6,27.34,36.43,1.9276,376.4955],
    [14984,1532808812,57.0568,-111.83,525.0,169.0,170.3,1.4,2.0,27.23,35.72,1.9246,376.8803],
    [14985,1532808813,57.0563,-111.8298,523.8,167.8,171.0,1.5,2.6,27.81,34.93,1.918,377.3333],
    [14986,1532808814,57.0557,-111.8296,523.0,168.0,171.6,1.5,3.0,27.56,35.29,1.9181,377.3333],
    [14987,1532808815,57.0552,-111.8294,522.2,167.2,171.8,1.4,3.0,27.87,34.93,1.9186,378.0439],
    [14988,1532808816,57.0546,-111.8292,521.4,166.4,172.2,2.1,3.0,27.14,35.42,1.9206,377.514],
    [14989,1532808817,57.054,-111.8291,520.3,166.0,171.7,2.2,2.8,27.37,34.66,1.9216,378.1474],
    [14990,1532808818,57.0535,-111.8289,519.4,165.4,170.6,1.7,2.2,27.63,33.94,1.9219,378.1474],
    [14991,1532808819,57.0529,-111.8287,518.8,164.8,169.7,1.5,2.4,27.35,35.04,1.9198,378.4523],
    [14992,1532808820,57.0524,-111.8284,518.1,164.1,169.0,1.1,2.4,26.98,34.25,1.9207,377.7613],
    [14993,1532808821,57.0518,-111.8282,517.5,164.1,167.8,0.7,2.0,27.52,34.14,1.921,378.6607],
    [14994,1532808822,57.0512,-111.828,516.4,163.4,167.8,1.1,1.7,27.49,34.77,1.9222,377.9335],
    [14995,1532808823,57.0507,-111.8277,515.2,162.2,167.3,1.1,1.7,27.23,34.53,1.9232,378.5727],
    [14996,1532808824,57.0501,-111.8274,514.0,161.0,167.1,1.1,1.7,27.88,34.11,1.9222,378.2051],
    [14997,1532808825,57.0495,-111.8272,513.1,160.1,166.8,0.8,1.0,27.24,33.99,1.9228,378.0371],
    [14998,1532808826,57.049,-111.8269,512.3,159.3,166.8,0.7,0.6,28.05,33.66,1.9231,378.0371],
    [14999,1532808827,57.0484,-111.8267,512.0,159.0,167.4,0.8,1.1,27.34,34.39,1.9225,378.566],
    [15000,1532808828,57.0479,-111.8264,512.2,159.2,167.7,0.4,1.0,27.14,34.3,1.9219,378.566],
    [15001,1532808829,57.0473,-111.8262,512.5,159.5,169.1,1.3,1.1,27.61,34.26,1.92,379.4918],
    [15002,1532808830,57.0467,-111.826,512.8,159.8,171.2,1.9,1.7,27.89,33.98,1.9232,379.0986],
    [15003,1532808831,57.0461,-111.8258,513.2,160.2,170.5,0.3,0.8,27.54,34.33,1.9233,378.2619],
    [15004,1532808832,57.0455,-111.8256,513.7,160.7,171.4,0.4,0.5,27.45,34.65,1.9218,378.2619],
    [15005,1532808833,57.045,-111.8254,514.2,161.2,172.1,0.3,1.2,26.84,34.29,1.9223,377.9793],
    [15006,1532808834,57.0444,-111.8253,515.0,162.0,173.2,1.1,1.5,27.27,34.34,1.9229,378.0974],
    [15007,1532808835,57.0438,-111.8251,516.0,163.0,173.9,1.5,2.1,27.08,34.3,1.921,379.2769],
    [15008,1532808836,57.0432,-111.825,517.3,164.3,174.2,1.9,2.5,27.37,34.19,1.9194,378.599],
    [15009,1532808837,57.0427,-111.8249,518.8,165.8,174.7,3.1,2.8,27.39,34.38,1.9228,378.8086],
    [15010,1532808838,57.0421,-111.8247,520.5,166.5,173.3,2.5,2.8,27.34,34.45,1.9241,379.1289],
    [15011,1532808839,57.0415,-111.8245,521.8,166.9,171.8,1.8,2.8,27.38,34.72,1.9229,377.9352],
    [15012,1532808840,57.041,-111.8243,523.6,167.3,170.6,1.0,3.2,26.65,34.31,1.9232,377.8632],
    [15013,1532808841,57.0404,-111.8241,526.0,168.0,170.2,0.7,4.5,27.3,34.33,1.9186,377.7107],
    [15014,1532808842,57.0399,-111.8239,528.2,169.4,171.2,1.8,4.9,27.43,34.46,1.9151,379.0347],
    [15015,1532808843,57.0393,-111.8237,529.9,170.9,172.3,2.8,5.3,26.88,34.03,1.9134,379.0347],
    [15016,1532808844,57.0388,-111.8236,531.8,172.8,172.3,2.2,5.7,27.67,33.22,1.9132,378.4788],
    [15017,1532808845,57.0382,-111.8234,533.4,174.4,171.1,0.9,5.8,27.64,32.98,1.9216,379.3591],
    [15018,1532808846,57.0377,-111.8232,534.0,175.0,171.9,1.8,6.0,27.69,32.61,1.925,379.4748],
    [15019,1532808847,57.0371,-111.823,534.0,175.0,172.5,2.2,5.6,27.71,33.04,1.9237,379.3865],
    [15020,1532808848,57.0365,-111.8228,534.1,175.1,172.7,2.3,5.5,26.83,33.32,1.9229,379.2591],
    [15021,1532808849,57.036,-111.8226,534.6,175.6,172.6,1.9,5.0,27.09,33.58,1.9192,378.3993],
    [15022,1532808850,57.0355,-111.8225,535.3,176.0,172.6,1.9,4.2,27.4,34.0,1.9162,377.7276],
    [15023,1532808851,57.0349,-111.8223,536.0,176.0,173.3,2.5,4.1,27.07,33.72,1.9164,377.7276],
    [15024,1532808852,57.0344,-111.8221,536.5,176.5,173.7,2.7,3.9,27.35,33.57,1.9179,377.0397],
    [15025,1532808853,57.0338,-111.822,536.8,176.8,173.7,2.4,4.1,27.41,33.86,1.9176,377.4856],
    [15026,1532808854,57.0333,-111.8218,537.5,177.5,173.9,2.4,4.8,28.25,32.71,1.9167,378.2947],
    [15027,1532808855,57.0327,-111.8217,538.0,178.0,174.6,2.9,4.8,27.56,32.83,1.9197,378.1832],
    [15028,1532808856,57.0322,-111.8215,538.3,178.3,175.2,3.2,4.6,27.42,34.1,1.9202,378.3159],
    [15029,1532808857,57.0316,-111.8214,538.4,178.4,175.1,2.6,4.5,27.17,33.1,1.9202,378.7805],
    [15030,1532808858,57.0311,-111.8212,538.4,178.4,175.5,2.6,4.1,27.62,32.84,1.9172,378.1186],
    [15031,1532808859,57.0305,-111.8211,537.9,177.9,176.2,3.0,4.1,27.34,33.05,1.917,379.0868],
    [15032,1532808860,57.03,-111.821,537.3,180.5,176.5,3.0,3.8,28.14,32.43,1.918,377.5191],
    [15033,1532808861,57.0294,-111.8209,537.1,183.7,177.2,3.3,3.8,27.94,32.35,1.9179,379.6584],
    [15034,1532808862,57.0289,-111.8208,536.9,187.2,177.2,2.5,3.9,27.39,32.67,1.9201,378.678],
    [15035,1532808863,57.0283,-111.8207,537.1,185.8,178.8,3.4,3.7,27.39,32.38,1.9232,378.8153],
    [15036,1532808864,57.0278,-111.8206,537.3,184.6,179.9,3.3,3.9,27.32,32.75,1.9258,379.0507],
    [15037,1532808865,57.0272,-111.8206,537.5,183.1,179.3,1.9,4.1,27.12,33.31,1.9246,379.1215],
    [15038,1532808866,57.0267,-111.8205,537.6,184.6,180.2,2.5,4.5,27.43,33.48,1.9179,378.3139],
    [15039,1532808867,57.0261,-111.8205,537.1,184.1,181.1,3.0,4.3,27.33,33.09,1.9148,378.6204],
    [15040,1532808868,57.0256,-111.8205,535.9,182.9,180.6,2.2,3.9,27.42,33.46,1.9142,378.782],
    [15041,1532808869,57.025,-111.8205,534.3,180.3,180.7,2.3,2.8,27.72,32.3,1.9143,378.6893],
    [15042,1532808870,57.0245,-111.8204,532.3,178.3,180.8,2.4,2.2,26.75,32.79,1.915,378.679],
    [15043,1532808871,57.0239,-111.8204,530.7,177.2,180.4,2.3,2.4,27.24,32.8,1.9148,378.2747],
    [15044,1532808872,57.0233,-111.8204,529.6,180.6,180.7,2.6,2.6,28.04,32.04,1.9151,378.6833],
    [15045,1532808873,57.0228,-111.8203,529.1,186.1,180.6,2.6,2.1,26.89,32.54,1.9141,378.0675],
    [15046,1532808874,57.0222,-111.8203,528.1,191.4,180.6,2.7,1.6,27.43,32.35,1.9137,378.5312],
    [15047,1532808875,57.0217,-111.8203,526.2,194.7,180.5,2.6,1.4,27.5,32.3,1.9155,379.3751],
    [15048,1532808876,57.0211,-111.8202,524.0,195.6,179.9,2.1,1.2,28.18,31.74,1.9146,378.0792],
    [15049,1532808877,57.0205,-111.8202,521.5,194.6,179.7,2.0,0.9,27.33,32.67,1.915,376.7419],
    [15050,1532808878,57.02,-111.8202,519.4,192.0,179.5,2.1,0.0,27.18,32.36,1.9153,377.5052],
    [15051,1532808879,57.0194,-111.8201,518.2,188.1,179.5,2.3,-1.4,26.93,32.36,1.9146,377.3472],
    [15052,1532808880,57.0188,-111.8201,517.5,181.9,179.9,3.1,-1.2,27.42,32.59,1.9123,378.0398],
    [15053,1532808881,57.0182,-111.82,517.1,172.0,179.9,3.1,-0.4,27.85,32.06,1.9134,378.6159],
    [15054,1532808882,57.0177,-111.82,517.1,163.3,179.5,2.8,-0.5,27.19,33.02,1.9121,378.5742],
    [15055,1532808883,57.0171,-111.8199,517.9,158.6,179.7,2.8,-0.2,26.9,32.64,1.9126,377.5266],
    [15056,1532808884,57.0165,-111.8199,520.0,157.1,178.8,1.2,0.1,27.39,32.49,1.9137,378.4077],
    [15057,1532808885,57.016,-111.8198,522.6,158.6,179.3,1.1,0.6,27.57,32.15,1.9124,378.4077],
    [15058,1532808886,57.0154,-111.8198,525.9,160.9,180.9,2.1,1.8,28.02,31.5,1.9141,378.9241],
    [15059,1532808887,57.0148,-111.8198,528.6,163.6,181.6,2.6,1.8,27.21,32.14,1.914,378.8983],
    [15060,1532808888,57.0143,-111.8198,531.1,166.1,181.1,2.3,2.2,28.0,31.19,1.9088,377.2582],
    [15061,1532808889,57.0137,-111.8198,532.7,167.7,181.7,3.2,2.3,27.71,31.26,1.9074,377.2582],
    [15062,1532808890,57.0132,-111.8197,534.0,169.0,182.0,3.2,2.2,27.31,31.33,1.907,379.5923],
    [15063,1532808891,57.0126,-111.8197,535.3,170.3,181.7,3.0,2.4,27.17,31.36,1.9109,378.5415],
    [15064,1532808892,57.0121,-111.8197,535.9,170.9,182.2,3.2,2.4,27.01,31.2,1.9144,378.3866],
    [15065,1532808893,57.0115,-111.8197,535.7,170.7,182.0,2.9,2.4,27.17,31.22,1.9165,379.4626],
    [15066,1532808894,57.011,-111.8197,535.2,169.9,181.6,2.4,2.4,27.37,32.1,1.9151,378.6079],
    [15067,1532808895,57.0104,-111.8197,534.8,168.8,181.5,2.4,2.1,28.12,30.44,1.9147,378.3446],
    [15068,1532808896,57.0099,-111.8197,534.2,167.5,182.1,3.0,2.0,27.5,30.94,1.9159,379.0728],
    [15069,1532808897,57.0093,-111.8197,532.9,165.9,183.2,4.1,2.0,27.45,31.01,1.9145,379.4117],
    [15070,1532808898,57.0087,-111.8197,531.2,163.2,183.6,4.1,1.5,27.48,31.38,1.9124,380.7791],
    [15071,1532808899,57.0082,-111.8196,530.3,162.3,183.0,3.5,1.6,27.6,29.92,1.9133,379.9567],
    [15072,1532808900,57.0076,-111.8196,529.8,161.8,182.8,3.3,1.6,27.45,30.14,1.9141,379.1415],
    [15073,1532808901,57.007,-111.8196,529.6,161.6,182.7,3.2,1.6,27.45,29.93,1.9112,381.9768],
    [15074,1532808902,57.0065,-111.8196,529.3,161.3,182.6,2.8,1.8,27.39,29.23,1.9124,381.5756],
    [15075,1532808903,57.0059,-111.8196,528.5,160.5,182.4,2.7,1.8,27.47,28.7,1.9142,380.2412],
    [15076,1532808904,57.0054,-111.8196,527.1,159.1,183.1,3.5,1.3,27.23,29.61,1.9145,380.073],
    [15077,1532808905,57.0048,-111.8196,526.2,157.1,182.6,3.3,1.2,27.38,28.98,1.9163,381.5841],
    [15078,1532808906,57.0043,-111.8196,526.5,157.5,183.1,3.9,1.0,27.1,28.68,1.9165,380.7664],
    [15079,1532808907,57.0037,-111.8196,527.6,158.6,182.7,3.5,1.3,27.93,28.63,1.9167,380.0583],
    [15080,1532808908,57.0031,-111.8196,528.2,159.2,182.5,3.4,1.5,27.13,29.48,1.9165,379.6616],
    [15081,1532808909,57.0026,-111.8196,528.8,158.8,183.1,3.9,1.7,27.33,30.19,1.9157,380.3689],
    [15082,1532808910,57.002,-111.8196,530.1,160.1,182.7,3.0,1.9,27.49,29.91,1.9164,380.6935],
    [15083,1532808911,57.0014,-111.8196,531.7,161.7,182.4,2.6,1.2,27.72,30.03,1.9158,379.5108],
    [15084,1532808912,57.0009,-111.8196,532.6,161.5,184.4,4.2,1.4,27.39,30.37,1.9151,379.5108],
    [15085,1532808913,57.0004,-111.8196,533.6,162.6,183.3,3.1,2.1,27.87,30.21,1.914,379.4322],
    [15086,1532808914,56.9998,-111.8196,534.4,163.3,182.5,2.6,1.9,27.77,29.97,1.9121,379.6941],
    [15087,1532808915,56.9992,-111.8196,534.5,163.4,183.4,3.7,1.7,27.37,30.59,1.9131,379.9689],
    [15088,1532808916,56.9987,-111.8196,535.6,163.7,183.1,3.1,1.7,27.28,30.62,1.9122,379.1805],
    [15089,1532808917,56.9982,-111.8196,537.1,165.2,182.3,2.6,1.8,27.41,30.72,1.9115,379.6837],
    [15090,1532808918,56.9976,-111.8196,537.6,165.7,183.4,3.7,1.4,27.03,30.57,1.9121,379.8919],
    [15091,1532808919,56.997,-111.8196,537.7,165.7,183.4,3.5,1.0,27.7,30.11,1.9121,379.7979],
    [15092,1532808920,56.9965,-111.8196,537.3,165.3,184.0,4.1,0.8,27.4,30.18,1.9126,379.696],
    [15093,1532808921,56.9959,-111.8196,537.4,165.4,184.0,3.4,0.7,27.58,30.96,1.914,380.0719],
    [15094,1532808922,56.9954,-111.8197,538.4,166.3,183.5,2.7,1.5,27.76,30.67,1.9115,379.4097],
    [15095,1532808923,56.9948,-111.8197,539.2,167.2,184.3,3.5,2.1,27.59,31.48,1.9113,379.4837],
    [15096,1532808924,56.9943,-111.8197,539.7,167.7,184.6,3.8,3.4,27.69,30.6,1.9095,379.1135],
    [15097,1532808925,56.9937,-111.8197,539.9,167.9,184.6,3.7,3.7,27.4,30.89,1.9076,378.7277],
    [15098,1532808926,56.9931,-111.8198,540.2,168.2,185.1,4.1,3.9,27.02,30.91,1.9106,379.9637],
    [15099,1532808927,56.9926,-111.8198,540.1,168.1,185.6,4.5,5.0,27.39,30.76,1.9131,379.9637],
    [15100,1532808928,56.992,-111.8198,540.5,168.5,185.4,4.2,4.7,27.38,31.04,1.9139,378.2562],
    [15101,1532808929,56.9915,-111.8199,541.2,169.7,185.4,4.1,5.2,28.17,30.62,1.9141,379.2206],
    [15102,1532808930,56.991,-111.8199,542.0,171.0,185.2,4.0,4.8,26.95,31.46,1.9161,378.9321],
    [15103,1532808931,56.9904,-111.8199,541.8,170.8,185.2,4.3,4.8,27.99,31.44,1.9153,378.5888],
    [15104,1532808932,56.9898,-111.82,541.1,170.1,185.0,4.2,5.0,27.73,31.5,1.9169,378.3809],
    [15105,1532808933,56.9893,-111.82,540.7,169.7,184.9,4.2,4.5,27.84,31.46,1.9158,378.0647],
    [15106,1532808934,56.9887,-111.82,540.4,169.4,185.1,4.5,4.1,27.25,32.05,1.916,378.1417],
    [15107,1532808935,56.9882,-111.82,540.0,169.0,185.1,4.4,3.6,27.45,32.66,1.9168,378.9421],
    [15108,1532808936,56.9876,-111.82,539.6,168.6,185.2,4.4,3.6,27.39,32.43,1.916,378.2907],
    [15109,1532808937,56.9871,-111.8201,538.8,167.8,185.8,4.9,3.5,27.47,32.11,1.9159,378.5342],
    [15110,1532808938,56.9865,-111.8201,538.0,166.0,186.2,5.2,3.3,27.52,31.96,1.9162,378.7516],
    [15111,1532808939,56.9859,-111.8201,537.4,165.4,186.4,5.3,2.8,27.58,32.18,1.9173,378.5757],
    [15112,1532808940,56.9854,-111.8202,537.3,165.3,185.0,4.1,2.4,27.37,32.41,1.916,378.6463],
    [15113,1532808941,56.9848,-111.8202,536.9,164.9,184.8,4.3,2.3,27.44,32.3,1.914,380.2966],
    [15114,1532808942,56.9843,-111.8202,536.3,164.3,185.6,5.0,2.0,27.64,32.12,1.9138,378.8684],
    [15115,1532808943,56.9837,-111.8202,535.8,163.8,184.6,4.1,1.9,27.06,32.13,1.9145,378.7456],
    [15116,1532808944,56.9831,-111.8202,535.4,162.7,184.4,4.2,1.9,27.54,31.95,1.9144,378.671],
    [15117,1532808945,56.9825,-111.8203,534.9,161.9,183.9,3.7,2.1,27.01,31.72,1.9129,377.7967],
    [15118,1532808946,56.982,-111.8203,534.5,161.5,183.5,3.6,1.7,27.12,31.95,1.9124,377.3275],
    [15119,1532808947,56.9814,-111.8203,533.5,160.5,184.6,4.6,1.3,28.14,30.74,1.912,379.5199],
    [15120,1532808948,56.9808,-111.8203,532.8,159.5,184.1,4.0,1.2,27.32,31.09,1.9134,378.7044],
    [15121,1532808949,56.9803,-111.8203,532.8,158.8,183.7,3.4,0.9,27.19,31.01,1.9146,378.3952],
    [15122,1532808950,56.9797,-111.8203,533.1,159.1,183.2,2.9,1.0,27.98,30.59,1.9139,378.3952],
    [15123,1532808951,56.9791,-111.8203,533.4,158.4,183.3,2.8,0.6,28.13,30.53,1.9138,377.8102],
    [15124,1532808952,56.9786,-111.8203,533.8,158.8,182.6,2.3,1.4,27.84,30.91,1.9153,378.152],
    [15125,1532808953,56.978,-111.8203,533.7,158.7,182.5,2.4,2.1,28.12,30.53,1.9145,378.152],
    [15126,1532808954,56.9774,-111.8203,533.0,157.0,182.5,2.6,2.3,27.12,31.5,1.9164,378.5969],
    [15127,1532808955,56.9769,-111.8203,532.3,156.3,181.7,2.5,0.7,27.02,31.65,1.9149,378.535],
    [15128,1532808956,56.9763,-111.8203,532.1,155.1,181.1,2.5,-0.2,27.16,31.93,1.9168,376.8388],
    [15129,1532808957,56.9757,-111.8203,532.4,155.4,180.5,1.9,0.1,27.54,32.79,1.9181,378.6639],
    [15130,1532808958,56.9751,-111.8203,533.6,156.6,181.1,2.9,0.1,27.38,32.1,1.918,379.1453],
    [15131,1532808959,56.9746,-111.8203,534.1,156.1,181.1,2.6,0.0,28.33,31.58,1.9171,378.6554],
    [15132,1532808960,56.974,-111.8202,534.7,156.7,180.8,2.4,0.0,28.05,31.85,1.9176,378.0331],
    [15133,1532808961,56.9734,-111.8202,535.6,156.6,181.1,2.0,-1.2,27.6,32.98,1.9172,378.0331],
    [15134,1532808962,56.9728,-111.8202,536.8,157.8,179.6,0.4,-0.5,27.26,32.13,1.9183,378.6907],
    [15135,1532808963,56.9723,-111.8202,537.6,157.6,181.5,2.3,-0.6,27.55,32.29,1.9161,378.7845],
    [15136,1532808964,56.9717,-111.8202,538.0,157.7,181.9,2.2,-0.3,27.61,32.27,1.9169,378.0815],
    [15137,1532808965,56.9711,-111.8202,538.4,156.3,181.6,1.9,-0.1,27.59,32.52,1.9162,378.3261],
    [15138,1532808966,56.9705,-111.8202,538.5,156.5,182.2,2.4,0.2,27.63,32.08,1.9164,377.736],
    [15139,1532808967,56.97,-111.8202,538.3,155.3,182.1,2.3,0.3,27.49,32.87,1.9162,378.8007],
    [15140,1532808968,56.9694,-111.8202,538.5,154.4,181.7,2.1,-0.5,27.27,32.92,1.9168,378.6877],
    [15141,1532808969,56.9688,-111.8202,539.2,154.2,181.7,2.2,-0.5,27.19,32.23,1.918,378.5906],
    [15142,1532808970,56.9682,-111.8202,540.2,154.5,181.9,2.5,-0.7,27.63,31.87,1.9169,378.4031],
    [15143,1532808971,56.9676,-111.8202,541.5,154.4,181.6,2.1,0.2,27.12,32.11,1.9157,379.6271],
    [15144,1532808972,56.967,-111.8202,542.9,154.9,181.5,2.1,1.5,27.67,32.61,1.916,379.0666],
    [15145,1532808973,56.9665,-111.8202,544.0,154.3,182.0,2.5,1.1,27.47,32.37,1.9166,379.543],
    [15146,1532808974,56.9659,-111.8202,544.7,153.6,182.0,2.5,0.9,27.5,32.43,1.915,378.5973],
    [15147,1532808975,56.9653,-111.8201,544.6,152.6,182.2,2.7,0.2,27.54,32.75,1.9138,378.5973],
    [15148,1532808976,56.9648,-111.8201,544.9,151.9,182.0,2.2,0.1,26.91,31.86,1.9143,378.8003],
    [15149,1532808977,56.9642,-111.8201,545.7,151.8,181.6,2.0,-0.1,27.62,32.1,1.9156,377.8939],
    [15150,1532808978,56.9636,-111.8201,546.5,151.5,182.6,3.0,0.0,28.04,30.64,1.9166,377.9474],
    [15151,1532808979,56.9631,-111.8201,547.1,151.1,182.4,2.5,-0.4,27.17,31.24,1.9166,380.1466],
    [15152,1532808980,56.9625,-111.8201,547.6,150.5,182.7,2.6,-0.3,27.26,31.34,1.9171,379.2766],
    [15153,1532808981,56.962,-111.8202,547.8,149.8,182.4,2.2,0.0,26.97,31.63,1.9151,379.0908],
    [15154,1532808982,56.9614,-111.8202,548.0,149.1,182.4,2.3,-0.1,27.44,31.22,1.9161,379.1758],
    [15155,1532808983,56.9608,-111.8202,548.8,148.7,181.9,1.8,0.1,27.44,30.91,1.9172,378.7556],
    [15156,1532808984,56.9603,-111.8202,549.7,148.7,181.8,1.5,1.0,27.4,31.07,1.9161,378.2231],
    [15157,1532808985,56.9597,-111.8202,550.4,148.7,183.3,3.0,1.8,27.36,31.07,1.9142,379.5176],
    [15158,1532808986,56.9592,-111.8202,552.1,150.1,183.6,2.9,1.7,27.52,31.67,1.9113,380.145],
    [15159,1532808987,56.9586,-111.8202,554.3,151.3,182.5,2.2,1.5,26.87,30.81,1.9112,380.145],
    [15160,1532808988,56.958,-111.8202,555.8,152.8,185.3,4.9,0.9,27.4,30.34,1.9113,379.6098],
    [15161,1532808989,56.9574,-111.8202,556.1,153.1,184.7,4.0,0.7,27.34,29.79,1.9115,379.6553],
    [15162,1532808990,56.9569,-111.8203,556.5,153.5,184.1,3.6,0.2,27.52,29.93,1.9126,379.6553],
    [15163,1532808991,56.9563,-111.8203,556.3,152.3,184.7,4.2,-0.5,27.48,29.51,1.9133,379.4636],
    [15164,1532808992,56.9558,-111.8203,556.6,152.6,183.5,3.0,-0.5,27.51,29.42,1.9177,379.7273],
    [15165,1532808993,56.9552,-111.8203,557.0,153.0,183.5,3.2,-0.9,27.01,29.33,1.9191,379.7273],
    [15166,1532808994,56.9546,-111.8203,558.0,154.0,183.4,2.9,-1.2,27.22,29.44,1.9192,380.0506],
    [15167,1532808995,56.9541,-111.8203,559.0,154.0,182.8,2.6,-1.4,27.83,29.93,1.9175,379.0047],
    [15168,1532808996,56.9535,-111.8203,559.5,154.5,184.2,4.0,-1.3,27.49,31.16,1.9173,379.7913],
    [15169,1532808997,56.953,-111.8203,559.7,154.7,184.5,4.2,-0.6,27.8,30.85,1.9164,377.857],
    [15170,1532808998,56.9524,-111.8203,560.4,154.7,184.0,3.9,-0.5,26.79,31.56,1.917,378.3209],
    [15171,1532808999,56.9518,-111.8203,561.3,155.3,183.8,3.8,0.3,27.22,31.29,1.9169,378.7065],
    [15172,1532809000,56.9513,-111.8204,562.1,156.1,184.0,4.2,1.2,27.58,31.74,1.9163,378.1619],
    [15173,1532809001,56.9507,-111.8204,562.5,156.5,183.6,3.8,0.8,27.36,31.55,1.9159,378.8117],
    [15174,1532809002,56.9502,-111.8204,562.2,155.2,182.1,2.6,-0.2,27.34,32.45,1.9167,377.5517],
    [15175,1532809003,56.9496,-111.8203,561.3,154.3,181.3,2.6,0.2,27.72,31.36,1.9161,378.8836],
    [15176,1532809004,56.9491,-111.8203,559.9,152.9,180.8,2.8,-0.7,27.43,31.76,1.9164,378.6107],
    [15177,1532809005,56.9485,-111.8203,559.2,152.2,181.0,3.3,-2.1,27.43,31.64,1.9177,376.9163],
    [15178,1532809006,56.9479,-111.8202,559.8,151.8,182.4,4.5,-2.0,28.36,31.28,1.9196,377.2696],
    [15179,1532809007,56.9474,-111.8202,561.0,153.0,182.5,4.3,-1.4,27.67,31.74,1.9167,378.113],
    [15180,1532809008,56.9469,-111.8202,562.2,153.9,182.6,4.3,-2.0,27.49,33.04,1.9163,378.9742],
    [15181,1532809009,56.9463,-111.8202,563.5,154.5,182.5,4.2,-2.3,27.85,32.23,1.9147,377.7375],
    [15182,1532809010,56.9457,-111.8201,564.8,155.8,182.0,3.7,-1.2,27.63,32.24,1.9157,378.9389],
    [15183,1532809011,56.9452,-111.8201,565.6,155.6,181.8,3.8,-1.1,27.39,32.47,1.917,377.9658],
    [15184,1532809012,56.9446,-111.8201,566.0,156.0,182.3,4.4,-0.6,27.31,32.66,1.9166,377.9658],
    [15185,1532809013,56.9441,-111.82,566.0,155.8,182.2,4.5,0.4,27.55,32.22,1.9167,377.6828],
    [15186,1532809014,56.9435,-111.82,565.7,154.7,182.3,4.9,1.4,27.08,32.64,1.9161,376.6528],
    [15187,1532809015,56.943,-111.82,565.0,154.0,182.4,4.9,1.6,27.36,32.91,1.9172,377.2235],
    [15188,1532809016,56.9424,-111.8199,564.4,152.4,182.4,5.0,1.2,27.13,33.07,1.9181,377.8051],
    [15189,1532809017,56.9419,-111.8199,565.0,153.0,183.0,6.1,1.2,27.38,34.03,1.9187,377.8051],
    [15190,1532809018,56.9413,-111.8198,566.4,153.4,181.0,5.2,2.1,27.42,33.71,1.9175,377.6058],
    [15191,1532809019,56.9408,-111.8198,567.2,154.2,177.8,3.7,2.1,27.33,33.83,1.9181,377.8308],
    [15192,1532809020,56.9402,-111.8196,567.9,153.9,177.5,5.1,2.4,27.38,34.61,1.9158,378.5675],
    [15193,1532809021,56.9396,-111.8195,568.6,154.6,176.3,5.2,3.4,27.47,34.41,1.9164,377.8507],
    [15194,1532809022,56.9391,-111.8193,569.4,154.6,173.5,4.4,3.5,27.27,33.82,1.9168,378.4042],
    [15195,1532809023,56.9385,-111.8191,570.1,155.1,171.1,4.0,4.1,27.54,33.81,1.9175,377.5663],
    [15196,1532809024,56.938,-111.8189,570.7,154.7,168.4,3.5,4.3,26.93,33.25,1.9171,377.3908],
    [15197,1532809025,56.9375,-111.8186,571.2,154.5,165.7,3.1,4.4,27.08,32.89,1.9171,378.7262],
    [15198,1532809026,56.9369,-111.8182,571.3,153.9,162.7,2.3,4.9,27.31,33.66,1.9164,378.8512],
    [15199,1532809027,56.9364,-111.8178,571.4,153.3,160.3,1.9,5.4,27.29,32.48,1.9177,376.1847],
    [15200,1532809028,56.9359,-111.8174,572.1,153.1,157.8,1.5,5.4,26.89,32.85,1.9166,378.2176],
    [15201,1532809029,56.9354,-111.8169,573.6,153.6,155.2,0.9,5.1,27.75,31.77,1.9159,379.2933],
    [15202,1532809030,56.9349,-111.8164,575.1,154.4,153.7,1.2,5.6,27.36,32.28,1.9155,379.2933],
    [15203,1532809031,56.9344,-111.8159,575.4,154.4,151.8,1.2,5.7,27.57,32.57,1.9173,378.9949],
    [15204,1532809032,56.9339,-111.8153,575.6,154.6,148.4,1.3,5.2,27.26,32.22,1.9154,378.9949],
    [15205,1532809033,56.9335,-111.8147,576.2,154.9,144.9,1.2,5.0,27.17,32.04,1.9149,378.4527],
    [15206,1532809034,56.933,-111.814,578.3,156.3,140.0,0.5,4.9,27.86,31.85,1.9147,379.0536],
    [15207,1532809035,56.9326,-111.8132,580.9,159.8,136.9,1.1,5.6,26.9,32.48,1.9154,379.421],
    [15208,1532809036,56.9322,-111.8124,583.3,162.3,132.4,0.0,5.2,27.24,31.99,1.916,379.3244],
    [15209,1532809037,56.9318,-111.8115,585.1,164.1,128.1,-0.9,4.8,27.48,31.76,1.9158,378.295],
    [15210,1532809038,56.9315,-111.8106,587.0,166.0,124.8,-1.0,4.7,26.97,31.59,1.9168,378.7634],
    [15211,1532809039,56.9312,-111.8097,589.6,169.6,119.5,-1.5,2.9,27.24,32.43,1.9175,379.3841],
    [15212,1532809040,56.931,-111.8088,592.1,172.1,116.2,-1.2,2.5,26.99,31.76,1.9167,379.3024],
    [15213,1532809041,56.9307,-111.8078,594.6,175.6,112.5,-1.7,2.2,27.52,31.15,1.918,379.0303],
    [15214,1532809042,56.9306,-111.8068,597.0,178.0,109.0,-2.5,2.1,27.73,31.42,1.9194,378.758],
    [15215,1532809043,56.9304,-111.8058,599.2,181.2,106.1,-2.3,2.0,27.79,31.38,1.916,378.7598],
    [15216,1532809044,56.9303,-111.8047,600.9,182.9,104.1,-2.4,2.2,27.16,32.78,1.9157,379.0979],
    [15217,1532809045,56.9301,-111.8037,602.2,184.2,100.9,-3.3,1.1,27.23,32.26,1.9165,377.6848],
    [15218,1532809046,56.93,-111.8026,603.6,185.6,98.2,-3.2,0.3,26.9,32.25,1.9162,378.9311],
    [15219,1532809047,56.93,-111.8016,604.9,186.9,95.7,-3.0,-0.1,26.74,32.28,1.9168,378.1426],
    [15220,1532809048,56.9299,-111.8005,605.5,188.5,94.2,-2.8,0.2,27.27,33.08,1.9183,378.5085],
    [15221,1532809049,56.9299,-111.7994,606.1,189.4,92.9,-2.0,0.7,26.68,32.68,1.9144,377.3199],
    [15222,1532809050,56.9299,-111.7983,607.4,191.4,92.0,-1.9,1.0,27.66,32.7,1.9142,377.9781],
    [15223,1532809051,56.9299,-111.7972,609.1,194.1,91.7,-1.6,1.2,27.02,32.66,1.916,377.6413],
    [15224,1532809052,56.9299,-111.7961,610.5,196.1,92.0,-0.9,1.7,27.67,32.3,1.9139,378.1178],
    [15225,1532809053,56.9298,-111.795,611.0,197.0,92.2,0.4,1.9,28.11,32.25,1.9133,378.1339],
    [15226,1532809054,56.9298,-111.794,610.3,197.3,92.4,0.5,2.3,27.37,32.92,1.9148,377.1673],
    [15227,1532809055,56.9298,-111.7929,609.2,196.2,92.1,0.4,2.1,27.36,32.83,1.9142,377.1825],
    [15228,1532809056,56.9298,-111.7918,607.0,195.0,91.8,0.8,2.1,27.77,31.89,1.9114,377.3023],
    [15229,1532809057,56.9298,-111.7907,603.4,191.4,92.2,1.5,2.8,27.84,31.86,1.9129,378.63],
    [15230,1532809058,56.9298,-111.7896,599.2,188.2,91.9,2.2,2.5,27.42,32.37,1.9145,378.6961],
    [15231,1532809059,56.9298,-111.7885,595.0,184.0,92.0,2.5,2.7,27.51,31.81,1.911,379.3832],
    [15232,1532809060,56.9298,-111.7874,590.3,180.2,92.5,2.2,3.2,27.6,31.38,1.9093,379.0577],
    [15233,1532809061,56.9299,-111.7863,586.1,176.1,92.4,2.7,3.2,26.92,31.12,1.9078,378.6873],
    [15234,1532809062,56.9299,-111.7851,582.9,172.9,92.3,3.8,2.9,27.62,30.73,1.9086,378.4177],
    [15235,1532809063,56.9299,-111.784,580.4,170.4,91.9,3.9,2.7,27.6,30.59,1.9096,376.8408],
    [15236,1532809064,56.9299,-111.7828,578.5,168.5,92.4,3.5,3.2,27.5,30.66,1.9095,377.5588],
    [15237,1532809065,56.9299,-111.7817,576.7,166.7,93.1,3.7,3.8,27.46,31.43,1.9087,377.941],
    [15238,1532809066,56.9299,-111.7805,575.2,165.2,92.9,4.0,3.2,27.22,30.77,1.9079,378.6892],
    [15239,1532809067,56.9299,-111.7793,573.8,163.8,92.7,3.8,3.1,27.33,30.58,1.9085,378.7503],
    [15240,1532809068,56.9299,-111.7782,572.2,162.2,93.0,3.7,3.4,27.54,30.55,1.9084,378.6805],
    [15241,1532809069,56.9299,-111.777,570.3,160.3,92.5,3.8,2.8,27.37,30.22,1.9079,379.3246],
    [15242,1532809070,56.9299,-111.7758,568.7,159.1,92.5,3.9,3.2,27.47,30.23,1.9097,377.885],
    [15243,1532809071,56.9299,-111.7746,566.8,157.8,92.6,4.0,3.3,27.09,30.14,1.909,379.2952],
    [15244,1532809072,56.9299,-111.7735,564.7,155.7,92.0,4.3,2.6,26.73,30.1,1.909,378.8312],
    [15245,1532809073,56.9299,-111.7723,562.2,153.4,93.4,4.8,4.0,27.56,29.95,1.9084,379.349],
    [15246,1532809074,56.9299,-111.7712,559.4,151.4,93.7,5.6,3.8,27.94,29.26,1.9087,379.349],
    [15247,1532809075,56.9299,-111.77,556.3,148.3,92.4,5.1,2.6,27.93,28.76,1.9087,380.2779],
    [15248,1532809076,56.9299,-111.7689,553.8,146.8,92.7,4.3,3.3,27.45,29.14,1.9088,379.9154],
    [15249,1532809077,56.9299,-111.7677,551.9,144.9,92.4,2.4,3.1,27.49,28.81,1.9083,379.9154],
    [15250,1532809078,56.9299,-111.7666,549.7,142.7,92.4,2.2,3.2,27.54,28.43,1.9061,380.3183],
    [15251,1532809079,56.9299,-111.7654,548.7,142.8,92.2,2.6,3.3,26.91,28.32,1.9066,379.5428],
    [15252,1532809080,56.9299,-111.7643,548.2,142.2,92.0,2.8,3.0,27.45,28.51,1.9031,381.5895],
    [15253,1532809081,56.9299,-111.7631,547.6,141.6,92.2,3.1,3.2,27.74,27.07,1.9034,378.5497],
    [15254,1532809082,56.9299,-111.762,547.1,142.2,92.2,3.3,2.9,27.87,26.89,1.9053,381.0658],
    [15255,1532809083,56.9299,-111.7608,547.3,142.3,92.6,4.0,3.2,27.6,26.89,1.9056,380.1508],
    [15256,1532809084,56.9299,-111.7596,549.2,144.5,92.2,4.4,3.1,27.43,26.62,1.9074,380.3426],
    [15257,1532809085,56.9299,-111.7585,550.8,146.8,91.5,4.2,2.6,27.36,26.67,1.9087,380.3426],
    [15258,1532809086,56.9299,-111.7574,551.5,148.4,92.2,4.2,3.0,27.01,26.94,1.9097,380.1623],
    [15259,1532809087,56.9299,-111.7562,552.0,148.9,93.1,4.1,3.5,27.83,26.54,1.9072,379.9595],
    [15260,1532809088,56.9299,-111.755,552.4,151.1,93.4,4.1,3.4,26.92,27.24,1.9057,380.733],
    [15261,1532809089,56.9299,-111.7538,552.1,152.4,91.7,4.1,1.5,27.39,27.28,1.9055,379.1242],
    [15262,1532809090,56.9299,-111.7527,553.0,155.3,90.6,3.7,0.9,28.13,26.43,1.9065,380.1319],
    [15263,1532809091,56.9299,-111.7516,553.9,158.0,92.6,3.8,3.4,27.22,27.25,1.9068,381.1127],
    [15264,1532809092,56.9299,-111.7504,554.6,160.7,93.5,3.9,4.0,27.6,27.88,1.9075,381.2738],
    [15265,1532809093,56.9299,-111.7493,555.6,162.8,91.6,3.8,2.3,27.64,26.64,1.9087,380.6305],
    [15266,1532809094,56.9299,-111.7482,556.3,164.2,93.0,3.9,3.8,27.59,27.21,1.9102,379.9762],
    [15267,1532809095,56.9299,-111.7471,556.8,166.8,93.1,4.8,3.3,27.65,27.99,1.9077,380.0499],
    [15268,1532809096,56.9299,-111.746,557.4,168.4,91.5,4.3,1.5,28.11,27.06,1.9086,379.8375],
    [15269,1532809097,56.9299,-111.7449,557.6,168.6,91.6,3.7,1.7,28.18,28.07,1.9109,380.0775],
    [15270,1532809098,56.9299,-111.7437,557.8,169.1,91.6,3.2,1.9,27.4,28.31,1.9096,379.8311],
    [15271,1532809099,56.9299,-111.7426,557.2,168.5,91.5,3.4,2.1,27.58,28.81,1.9072,380.1967],
    [15272,1532809100,56.9299,-111.7415,556.9,168.2,91.3,3.5,2.2,27.73,28.26,1.908,380.0137],
    [15273,1532809101,56.9299,-111.7404,556.7,168.0,91.8,3.7,2.8,27.21,28.28,1.9064,380.0432],
    [15274,1532809102,56.9299,-111.7393,556.4,168.4,91.8,3.9,2.5,27.6,28.03,1.9087,379.8937],
    [15275,1532809103,56.9299,-111.7381,556.1,168.1,91.7,4.3,2.3,27.51,27.97,1.9107,378.9974],
    [15276,1532809104,56.9299,-111.737,555.2,167.2,92.6,4.8,3.3,27.91,27.43,1.9138,378.9974],
    [15277,1532809105,56.9299,-111.7359,553.1,165.1,93.7,4.7,4.1,27.43,28.66,1.9144,379.8166],
    [15278,1532809106,56.9299,-111.7348,551.7,163.7,93.4,4.9,3.5,27.1,29.11,1.9158,379.4511],
    [15279,1532809107,56.9299,-111.7336,549.8,161.8,93.7,5.1,3.5,27.65,29.85,1.9188,379.0165],
    [15280,1532809108,56.9299,-111.7325,547.2,159.2,93.4,5.3,3.6,27.98,29.41,1.9129,380.2559],
    [15281,1532809109,56.9299,-111.7314,544.6,156.6,94.4,5.3,4.9,27.71,30.36,1.9099,378.2819],
    [15282,1532809110,56.9299,-111.7302,543.0,155.3,93.0,5.2,3.3,27.65,31.67,1.9111,378.5751],
    [15283,1532809111,56.9299,-111.7291,542.9,156.0,91.9,5.2,2.5,28.09,30.75,1.916,378.2577],
    [15284,1532809112,56.9299,-111.728,543.4,156.7,92.0,5.0,2.8,27.56,30.87,1.9167,378.2154],
    [15285,1532809113,56.9299,-111.7268,543.3,157.3,91.7,4.8,2.6,27.6,30.74,1.9155,378.213],
    [15286,1532809114,56.93,-111.7257,542.5,156.5,91.4,4.1,2.4,28.51,31.02,1.9129,377.5074],
    [15287,1532809115,56.93,-111.7246,541.7,156.7,91.5,4.2,2.6,27.54,32.03,1.9142,377.4934],
    [15288,1532809116,56.93,-111.7235,541.1,156.1,91.2,4.2,2.3,27.65,32.89,1.9146,376.6862],
    [15289,1532809117,56.93,-111.7224,540.9,155.9,91.4,3.4,2.4,27.62,32.47,1.9135,377.9242],
    [15290,1532809118,56.93,-111.7212,541.0,156.3,91.4,3.3,2.2,27.66,32.76,1.913,377.1015],
    [15291,1532809119,56.93,-111.7201,541.2,157.2,91.6,3.0,2.4,27.84,32.09,1.9132,377.9989],
    [15292,1532809120,56.93,-111.719,541.1,157.1,92.1,3.3,2.8,27.4,32.08,1.9136,378.4312],
    [15293,1532809121,56.93,-111.7179,540.9,156.9,91.9,3.3,2.5,27.99,31.84,1.9149,377.2645],
    [15294,1532809122,56.93,-111.7168,540.5,156.5,92.1,3.3,2.7,28.01,31.66,1.9144,377.2346],
    [15295,1532809123,56.93,-111.7157,539.8,156.8,92.1,3.1,2.5,27.88,32.47,1.9144,378.1582],
    [15296,1532809124,56.93,-111.7146,539.2,156.2,92.0,2.8,2.3,27.15,32.04,1.9166,376.2203],
    [15297,1532809125,56.93,-111.7134,538.4,155.4,92.3,2.7,2.6,27.45,32.17,1.9138,378.4121],
    [15298,1532809126,56.93,-111.7123,538.0,155.0,92.1,3.1,2.2,27.42,32.46,1.912,378.0721],
    [15299,1532809127,56.93,-111.7112,538.6,156.6,91.5,3.4,2.0,27.7,32.25,1.9127,377.9763],
    [15300,1532809128,56.93,-111.7101,539.5,157.5,91.2,3.0,1.9,28.04,32.63,1.9148,377.8468],
    [15301,1532809129,56.93,-111.709,540.7,158.7,90.1,1.5,1.2,28.18,31.53,1.9182,375.9848],
    [15302,1532809130,56.93,-111.7078,541.7,160.7,90.2,1.4,1.5,27.61,32.95,1.9194,377.0594],
    [15303,1532809131,56.93,-111.7067,542.5,161.5,90.3,1.8,1.6,27.39,33.92,1.9208,376.8064],
    [15304,1532809132,56.93,-111.7057,543.2,162.6,90.4,1.5,1.6,27.62,33.92,1.9206,377.2081],
    [15305,1532809133,56.9301,-111.7045,543.8,163.8,90.7,2.0,1.9,28.22,33.4,1.9185,376.5862],
    [15306,1532809134,56.9301,-111.7034,544.7,165.6,90.4,1.5,1.9,27.5,34.39,1.9184,376.678],
    [15307,1532809135,56.9301,-111.7023,545.5,166.5,89.9,2.1,1.6,27.58,34.07,1.9161,376.9371],
    [15308,1532809136,56.9301,-111.7012,546.4,168.4,89.3,1.4,1.4,27.26,33.9,1.918,377.5695],
    [15309,1532809137,56.9301,-111.7001,547.2,169.2,89.1,0.5,1.4,27.61,34.66,1.919,377.0803],
    [15310,1532809138,56.9301,-111.699,547.7,170.6,89.1,0.0,1.1,27.63,34.21,1.9187,376.8231],
    [15311,1532809139,56.9302,-111.698,547.6,170.6,90.0,-0.5,1.7,27.26,33.58,1.9195,377.1698],
    [15312,1532809140,56.9302,-111.6969,547.0,171.0,90.9,-0.3,2.0,27.48,34.4,1.9199,377.528],
    [15313,1532809141,56.9302,-111.6958,545.7,170.6,91.5,0.4,1.9,27.42,33.87,1.9194,377.2907],
    [15314,1532809142,56.9302,-111.6947,544.7,170.4,92.1,0.2,2.4,27.53,33.68,1.9184,377.3486],
    [15315,1532809143,56.9302,-111.6936,543.8,169.7,92.6,0.5,2.9,26.84,33.89,1.9191,377.5904],
    [15316,1532809144,56.9302,-111.6925,542.8,169.8,91.9,0.4,2.1,27.47,33.8,1.9175,377.6997],
    [15317,1532809145,56.9302,-111.6914,541.5,169.0,90.9,0.4,1.2,27.49,33.6,1.9176,378.224],
    [15318,1532809146,56.9302,-111.6903,539.9,167.9,90.5,-0.1,1.0,27.3,33.35,1.9175,377.2904],
    [15319,1532809147,56.9302,-111.6892,538.2,166.9,90.7,0.3,1.7,27.67,33.18,1.9167,377.1007],
    [15320,1532809148,56.9302,-111.688,536.5,165.4,90.4,0.6,1.5,27.69,32.95,1.9178,378.3909],
    [15321,1532809149,56.9302,-111.6869,535.2,165.2,89.2,0.8,0.7,27.22,33.67,1.9187,377.4311],
    [15322,1532809150,56.9302,-111.6858,534.4,165.3,89.4,0.6,1.4,27.4,32.8,1.916,377.1739],
    [15323,1532809151,56.9302,-111.6847,533.6,165.3,89.6,0.0,1.7,27.87,32.37,1.9176,377.1614],
    [15324,1532809152,56.9303,-111.6835,533.3,165.2,89.6,0.3,1.9,27.12,33.09,1.9177,377.0389],
    [15325,1532809153,56.9303,-111.6824,533.8,166.8,89.9,0.0,2.2,28.33,32.37,1.9167,377.0389],
    [15326,1532809154,56.9303,-111.6813,536.0,170.0,88.8,-1.2,0.6,27.58,32.98,1.9167,377.8132],
    [15327,1532809155,56.9303,-111.6802,538.9,174.2,88.0,-0.9,-0.5,27.37,32.75,1.9164,377.8163],
    [15328,1532809156,56.9303,-111.679,541.0,177.6,89.3,-1.5,0.6,28.28,32.43,1.914,377.5412],
    [15329,1532809157,56.9303,-111.6779,542.8,180.8,90.2,-1.2,1.0,27.07,32.82,1.9138,376.879],
    [15330,1532809158,56.9304,-111.6768,544.8,183.8,89.4,-0.1,0.0,28.25,32.15,1.9103,377.8244],
    [15331,1532809159,56.9304,-111.6757,545.9,185.9,89.5,0.0,0.2,27.72,32.3,1.9115,378.8452],
    [15332,1532809160,56.9304,-111.6746,546.1,187.1,90.5,-1.0,0.9,27.59,31.4,1.9113,377.9349],
    [15333,1532809161,56.9304,-111.6735,546.1,188.1,90.8,-1.5,1.1,27.87,30.6,1.9119,377.5362],
    [15334,1532809162,56.9304,-111.6724,546.5,189.5,91.0,-1.6,1.0,27.62,30.26,1.913,377.9243],
    [15335,1532809163,56.9304,-111.6712,547.8,190.8,90.1,-2.4,0.1,27.65,30.23,1.9129,378.5203],
    [15336,1532809164,56.9304,-111.6701,549.2,193.2,89.5,-2.1,-0.4,27.34,30.77,1.9136,378.5203],
    [15337,1532809165,56.9304,-111.669,550.2,194.2,89.5,-2.5,-0.2,27.57,30.29,1.9159,378.2863],
    [15338,1532809166,56.9304,-111.6679,550.6,195.6,90.1,-2.7,0.5,28.31,30.05,1.9148,378.6014],
    [15339,1532809167,56.9304,-111.6668,550.3,196.3,91.0,-2.4,1.4,28.17,29.99,1.9134,378.6552],
    [15340,1532809168,56.9304,-111.6657,550.3,196.3,92.1,-1.8,2.4,27.6,30.46,1.9145,379.0294],
    [15341,1532809169,56.9304,-111.6646,550.2,196.2,92.4,-1.8,3.0,27.7,30.41,1.9137,377.1419],
    [15342,1532809170,56.9304,-111.6635,549.2,195.2,92.7,-1.1,3.6,28.33,30.1,1.9146,378.2328],
    [15343,1532809171,56.9304,-111.6623,547.5,194.2,91.7,-0.5,2.7,27.94,30.5,1.9156,379.4411],
    [15344,1532809172,56.9304,-111.6612,546.0,193.0,91.4,-0.6,2.5,27.61,30.42,1.9129,378.4675],
    [15345,1532809173,56.9304,-111.6601,545.2,192.2,91.8,-0.3,3.0,27.6,30.43,1.9115,379.1242],
    [15346,1532809174,56.9304,-111.659,545.1,193.1,91.1,0.4,2.4,27.61,30.85,1.911,379.427],
    [15347,1532809175,56.9304,-111.6578,545.2,193.2,91.0,0.7,2.7,27.54,29.91,1.9099,379.0633],
    [15348,1532809176,56.9304,-111.6567,544.8,192.8,91.3,0.4,2.8,27.84,29.48,1.9101,378.1695],
    [15349,1532809177,56.9304,-111.6556,544.4,193.4,91.0,1.1,2.5,27.46,29.34,1.911,380.9867],
    [15350,1532809178,56.9304,-111.6544,543.4,192.4,91.6,1.4,3.0,27.82,29.54,1.91,378.6556],
    [15351,1532809179,56.9305,-111.6533,541.8,191.5,91.0,1.4,2.1,27.95,28.85,1.9107,378.6556],
    [15352,1532809180,56.9305,-111.6522,540.1,190.1,90.8,1.6,1.8,27.37,28.81,1.9116,380.6889],
    [15353,1532809181,56.9305,-111.651,538.2,188.2,90.6,2.9,1.4,27.93,28.14,1.914,378.6317],
    [15354,1532809182,56.9305,-111.6499,536.2,186.2,91.0,3.5,2.0,27.62,28.78,1.9139,379.4931],
    [15355,1532809183,56.9305,-111.6487,533.8,183.8,90.5,4.0,1.6,27.3,28.86,1.9134,378.7801],
    [15356,1532809184,56.9305,-111.6476,531.8,182.8,90.1,3.6,1.7,27.73,29.09,1.9125,379.4528],
    [15357,1532809185,56.9305,-111.6464,530.3,181.3,90.4,4.0,2.7,28.43,28.39,1.9126,379.8885],
    [15358,1532809186,56.9305,-111.6452,529.3,180.3,89.3,4.6,1.8,26.94,29.3,1.9153,380.2003],
    [15359,1532809187,56.9306,-111.6441,528.6,180.7,89.1,4.3,2.0,27.43,29.51,1.9165,380.2808],
    [15360,1532809188,56.9306,-111.6429,528.2,182.2,89.9,4.4,2.5,27.91,29.38,1.9163,379.8695],
    [15361,1532809189,56.9306,-111.6417,529.1,184.1,89.0,4.3,1.5,27.54,30.16,1.9137,379.2432],
    [15362,1532809190,56.9306,-111.6405,530.9,186.9,89.8,4.7,2.1,27.79,30.11,1.9134,379.5145],
    [15363,1532809191,56.9307,-111.6394,532.4,188.4,89.4,4.7,1.4,28.25,29.91,1.9152,378.931],
    [15364,1532809192,56.9307,-111.6381,532.6,188.6,90.9,4.7,2.9,27.71,30.29,1.9133,378.2199],
    [15365,1532809193,56.9307,-111.6369,532.6,188.6,92.7,5.2,4.2,28.18,29.67,1.9108,379.0536],
    [15366,1532809194,56.9307,-111.6358,533.1,190.1,92.6,5.6,4.0,27.35,30.42,1.9131,378.8926],
    [15367,1532809195,56.9307,-111.6346,534.1,191.1,93.6,6.3,4.4,27.58,30.39,1.9124,378.8926],
    [15368,1532809196,56.9307,-111.6335,536.0,193.5,92.5,6.5,3.3,27.8,30.34,1.9131,379.3252],
    [15369,1532809197,56.9307,-111.6323,537.5,195.5,92.5,6.9,3.5,27.19,30.02,1.916,378.351],
    [15370,1532809198,56.9307,-111.6312,538.0,197.0,92.0,7.1,2.9,28.16,29.31,1.9145,379.5984],
    [15371,1532809199,56.9307,-111.63,538.0,198.0,91.2,7.0,2.0,27.38,29.64,1.9126,380.0849],
    [15372,1532809200,56.9307,-111.6289,537.3,197.3,91.6,7.1,2.1,28.0,29.09,1.9129,379.6043],
    [15373,1532809201,56.9307,-111.6277,536.0,196.0,91.0,7.3,1.3,27.46,29.56,1.9131,380.0305],
    [15374,1532809202,56.9307,-111.6266,535.4,195.4,91.1,7.7,1.1,27.04,29.6,1.9144,379.1986],
    [15375,1532809203,56.9307,-111.6254,534.9,195.9,91.0,7.6,0.7,28.18,29.06,1.9149,379.6316],
    [15376,1532809204,56.9307,-111.6242,535.1,196.1,92.2,7.5,1.3,27.51,29.4,1.9056,379.8657],
    [15377,1532809205,56.9307,-111.6231,536.4,197.4,92.9,7.1,1.5,27.63,29.26,1.9052,380.6672],
    [15378,1532809206,56.9307,-111.622,537.9,198.8,92.6,6.8,1.1,28.47,27.92,1.9084,380.8735],
    [15379,1532809207,56.9307,-111.6209,538.9,200.9,92.4,6.7,1.1,27.74,27.83,1.9096,380.542],
    [15380,1532809208,56.9307,-111.6197,538.8,201.8,92.3,6.7,1.0,28.2,27.19,1.9075,380.1355],
    [15381,1532809209,56.9306,-111.6186,538.5,202.5,92.0,6.1,0.8,27.92,26.86,1.9057,381.1126],
    [15382,1532809210,56.9306,-111.6175,538.6,203.3,91.6,6.0,0.4,27.71,26.72,1.9055,381.3916],
    [15383,1532809211,56.9306,-111.6164,538.7,203.7,91.8,5.7,0.8,27.45,26.54,1.9068,380.1184],
    [15384,1532809212,56.9306,-111.6152,538.9,203.9,92.1,6.1,1.2,27.98,26.34,1.9111,380.8601],
    [15385,1532809213,56.9306,-111.6141,539.0,204.0,91.7,5.8,1.1,27.61,26.72,1.9115,380.74],
    [15386,1532809214,56.9306,-111.613,539.5,205.5,92.6,5.9,1.7,27.62,26.63,1.9102,380.212],
    [15387,1532809215,56.9306,-111.6119,539.9,206.5,91.8,5.9,1.0,27.85,26.93,1.9111,380.577],
    [15388,1532809216,56.9306,-111.6108,538.9,205.9,92.3,5.3,1.6,27.7,27.75,1.9163,379.5128],
    [15389,1532809217,56.9306,-111.6097,536.2,203.2,92.7,5.5,1.8,28.15,27.2,1.9178,379.2647],
    [15390,1532809218,56.9306,-111.6086,534.1,201.2,92.6,5.1,1.6,27.76,28.86,1.9146,379.8527],
    [15391,1532809219,56.9305,-111.6075,533.0,199.0,92.6,5.3,1.4,27.74,28.97,1.9137,380.398],
    [15392,1532809220,56.9305,-111.6064,532.8,198.8,92.8,5.2,1.4,27.65,29.4,1.9111,380.398],
    [15393,1532809221,56.9305,-111.6053,532.8,197.8,92.7,4.8,1.6,27.12,29.14,1.9069,379.9246],
    [15394,1532809222,56.9305,-111.6042,531.9,196.9,91.7,4.6,1.0,27.84,28.85,1.9049,379.4888],
    [15395,1532809223,56.9305,-111.603,529.6,194.6,90.4,5.0,0.3,27.92,29.2,1.9061,379.4888],
    [15396,1532809224,56.9305,-111.6019,527.4,192.4,90.0,4.4,0.6,28.64,27.09,1.9083,379.2631],
    [15397,1532809225,56.9305,-111.6008,525.1,191.1,90.2,3.9,1.0,27.82,27.19,1.9095,379.2631],
    [15398,1532809226,56.9305,-111.5998,523.7,190.8,90.1,3.9,0.7,28.44,26.07,1.906,380.4321],
    [15399,1532809227,56.9305,-111.5987,523.4,191.4,90.2,3.9,0.7,27.21,26.77,1.9075,380.8889],
    [15400,1532809228,56.9305,-111.5976,523.2,192.3,90.7,3.5,0.8,27.79,27.48,1.9112,381.7832],
    [15401,1532809229,56.9305,-111.5965,523.0,193.0,90.7,3.3,0.4,27.93,27.21,1.9113,380.3915],
    [15402,1532809230,56.9305,-111.5954,522.4,194.4,91.2,2.7,0.8,27.83,27.3,1.9115,380.0787],
    [15403,1532809231,56.9305,-111.5943,521.1,196.5,91.7,2.3,1.2,27.19,27.14,1.9133,380.4721],
    [15404,1532809232,56.9305,-111.5932,519.8,194.8,91.3,1.9,0.7,27.77,27.28,1.9113,380.2141],
    [15405,1532809233,56.9305,-111.5921,518.8,190.8,90.7,2.1,0.4,28.54,27.18,1.9105,379.8469],
    [15406,1532809234,56.9305,-111.591,518.1,189.1,90.6,2.3,0.6,28.1,27.94,1.9116,380.8951],
    [15407,1532809235,56.9305,-111.5899,517.5,188.5,90.3,2.6,0.7,27.93,27.75,1.9129,378.8249],
    [15408,1532809236,56.9305,-111.5889,517.1,188.1,89.9,2.1,0.7,27.35,27.81,1.9154,381.1184],
    [15409,1532809237,56.9305,-111.5878,516.7,187.7,89.8,1.3,0.9,27.76,28.16,1.9159,378.4637],
    [15410,1532809238,56.9305,-111.5868,516.6,188.6,89.6,0.9,1.2,27.92,29.4,1.9141,379.1679],
    [15411,1532809239,56.9305,-111.5857,516.6,188.6,89.8,1.1,1.7,27.88,29.99,1.9137,379.3966],
    [15412,1532809240,56.9306,-111.5846,516.4,189.4,89.7,1.5,1.7,27.39,29.59,1.9129,378.8314],
    [15413,1532809241,56.9306,-111.5835,516.2,189.2,89.5,1.3,1.9,28.07,29.39,1.9129,379.54],
    [15414,1532809242,56.9306,-111.5825,516.1,189.3,88.8,2.1,2.1,27.66,29.75,1.9116,378.4763],
    [15415,1532809243,56.9306,-111.5814,516.4,190.4,86.9,1.5,2.1,27.53,29.88,1.9113,377.8399],
    [15416,1532809244,56.9307,-111.5803,516.7,190.7,84.0,1.4,2.1,27.3,29.93,1.9101,378.6749],
    [15417,1532809245,56.9308,-111.5793,516.8,191.8,80.5,1.9,2.3,27.78,29.73,1.9109,377.9581],
    [15418,1532809246,56.9309,-111.5782,516.3,191.3,75.7,1.9,1.1,27.32,30.11,1.9112,378.3046],
    [15419,1532809247,56.9311,-111.5772,515.9,190.9,70.6,2.1,0.3,27.93,29.66,1.9117,379.5259],
    [15420,1532809248,56.9313,-111.5762,515.7,191.7,67.1,2.0,0.2,27.39,29.94,1.9121,378.6443],
    [15421,1532809249,56.9316,-111.5752,514.7,191.3,64.5,1.9,0.6,28.57,29.16,1.9118,378.6443],
    [15422,1532809250,56.9318,-111.5743,513.2,190.2,61.7,2.4,0.8,27.65,29.47,1.9106,379.651],
    [15423,1532809251,56.9321,-111.5733,511.5,189.5,58.2,2.6,0.2,27.63,29.52,1.9122,379.651],
    [15424,1532809252,56.9324,-111.5724,509.8,188.8,55.9,3.0,1.1,28.07,30.04,1.911,378.5879],
    [15425,1532809253,56.9327,-111.5716,508.2,187.2,53.0,3.2,1.0,28.2,29.58,1.9092,378.5879],
    [15426,1532809254,56.9331,-111.5707,506.7,185.7,49.3,3.9,0.8,27.38,29.81,1.9095,378.4427],
    [15427,1532809255,56.9335,-111.5699,505.0,183.0,46.9,4.0,1.1,27.45,29.62,1.9103,379.4141],
    [15428,1532809256,56.9339,-111.5691,503.5,180.5,44.1,4.0,0.9,28.01,29.3,1.9115,380.1461],
    [15429,1532809257,56.9343,-111.5683,501.9,178.9,42.0,3.7,1.7,28.26,29.26,1.9154,378.5765],
    [15430,1532809258,56.9347,-111.5676,501.2,179.2,39.3,3.5,1.8,28.71,28.72,1.9101,379.3988],
    [15431,1532809259,56.9352,-111.5669,500.7,178.7,36.3,3.6,1.6,27.42,29.41,1.911,379.3988],
    [15432,1532809260,56.9357,-111.5663,500.1,178.4,33.7,3.8,2.2,28.36,29.23,1.912,379.5835],
    [15433,1532809261,56.9362,-111.5657,499.4,178.4,30.6,3.7,1.6,28.23,29.01,1.9114,379.2055],
    [15434,1532809262,56.9367,-111.5651,498.5,178.4,28.0,3.8,1.9,28.62,28.27,1.9089,379.8093],
    [15435,1532809263,56.9372,-111.5646,497.2,178.2,25.8,3.8,2.5,28.45,28.64,1.9093,379.8093],
    [15436,1532809264,56.9377,-111.5641,495.6,177.6,22.7,4.2,2.2,28.25,28.26,1.909,379.8343],
    [15437,1532809265,56.9383,-111.5637,494.4,177.4,20.1,4.2,2.3,27.9,28.42,1.9144,380.7001],
    [15438,1532809266,56.9388,-111.5633,493.3,177.3,18.4,3.8,2.8,27.88,28.88,1.9211,378.2283],
    [15439,1532809267,56.9394,-111.5629,492.7,177.4,16.8,3.6,3.0,28.52,28.05,1.918,378.9825],
    [15440,1532809268,56.9399,-111.5625,492.4,177.4,14.3,4.3,3.1,27.89,29.22,1.9164,379.483],
    [15441,1532809269,56.9405,-111.5622,492.0,177.0,12.3,4.0,2.7,27.37,29.49,1.9153,378.147],
    [15442,1532809270,56.9411,-111.562,492.8,177.8,10.6,3.8,2.0,27.48,30.53,1.9161,377.7141],
    [15443,1532809271,56.9416,-111.5617,494.1,179.1,9.0,3.9,2.0,28.08,30.15,1.9156,377.7141],
    [15444,1532809272,56.9422,-111.5615,495.2,180.2,9.5,2.3,1.4,27.63,30.49,1.9156,378.1044],
    [15445,1532809273,56.9428,-111.5613,495.8,180.8,7.9,3.1,1.7,27.1,30.85,1.9175,377.2689],
    [15446,1532809274,56.9433,-111.5612,496.5,182.5,6.2,3.1,1.1,28.27,31.13,1.9191,377.4594],
    [15447,1532809275,56.9439,-111.561,497.2,183.2,5.7,2.4,0.3,27.48,31.71,1.9187,377.4594],
    [15448,1532809276,56.9445,-111.5609,498.1,184.1,4.4,2.0,-0.2,27.87,31.48,1.9171,377.9119],
    [15449,1532809277,56.9451,-111.5608,499.2,184.2,4.8,0.3,-0.7,27.74,31.97,1.9166,378.6612],
    [15450,1532809278,56.9456,-111.5607,500.3,185.3,361.4,2.6,-1.2,28.01,32.35,1.9176,377.2148],
    [15451,1532809279,56.9462,-111.5606,501.4,186.4,358.8,3.7,-1.7,27.63,33.12,1.9165,377.2148],
    [15452,1532809280,56.9468,-111.5606,501.9,186.5,358.3,3.4,-1.6,27.51,32.36,1.918,377.7143],
    [15453,1532809281,56.9474,-111.5606,502.3,186.3,357.4,3.7,-2.3,27.72,32.49,1.9182,377.6676],
    [15454,1532809282,56.9479,-111.5606,503.2,187.2,357.9,2.9,-3.3,27.76,32.5,1.9201,376.8662],
    [15455,1532809283,56.9485,-111.5606,504.4,188.0,357.5,3.3,-4.2,27.68,32.52,1.9216,376.1732],
    [15456,1532809284,56.9491,-111.5606,505.8,188.8,357.9,2.5,-5.4,27.76,33.76,1.9217,376.5138],
    [15457,1532809285,56.9496,-111.5606,507.5,189.5,359.3,0.8,-5.5,27.81,33.91,1.9199,376.3242],
    [15458,1532809286,56.9502,-111.5606,509.6,191.7,357.9,2.4,-6.2,27.64,33.64,1.9173,377.0973],
    [15459,1532809287,56.9508,-111.5606,511.6,192.8,357.1,3.0,-6.4,27.37,33.62,1.9172,377.2139],
    [15460,1532809288,56.9514,-111.5606,512.7,193.7,357.7,2.5,-6.6,27.95,33.76,1.9177,376.9421],
    [15461,1532809289,56.9519,-111.5606,513.1,193.7,356.7,3.5,-6.8,28.09,33.43,1.9176,377.6534],
    [15462,1532809290,56.9525,-111.5606,513.3,193.2,357.2,3.0,-7.2,27.59,33.43,1.9173,376.5117],
    [15463,1532809291,56.9531,-111.5606,512.7,192.7,356.3,4.1,-6.8,27.51,33.84,1.9192,377.5197],
    [15464,1532809292,56.9536,-111.5606,512.5,192.5,356.9,3.4,-6.3,27.69,33.29,1.917,377.0242],
    [15465,1532809293,56.9542,-111.5606,512.1,192.2,357.6,2.9,-6.2,27.46,33.49,1.9185,376.8395],
    [15466,1532809294,56.9548,-111.5606,512.8,193.8,357.1,3.6,-6.1,27.41,33.25,1.9192,376.9766],
    [15467,1532809295,56.9553,-111.5606,514.0,195.3,358.1,2.5,-5.7,27.7,32.94,1.9182,377.9508],
    [15468,1532809296,56.9559,-111.5606,515.4,196.7,358.5,2.3,-5.8,27.64,33.0,1.9175,376.3581],
    [15469,1532809297,56.9565,-111.5606,517.1,199.2,358.0,2.8,-5.6,27.73,33.12,1.9159,377.1826],
    [15470,1532809298,56.957,-111.5606,517.5,200.6,357.7,3.0,-5.1,27.67,33.17,1.9148,377.383],
    [15471,1532809299,56.9576,-111.5606,517.9,201.7,356.9,3.5,-5.0,27.97,32.52,1.9169,376.209],
    [15472,1532809300,56.9582,-111.5606,518.4,202.4,356.7,3.5,-5.1,27.85,33.16,1.9172,378.6291],
    [15473,1532809301,56.9587,-111.5606,519.0,202.0,356.9,3.1,-4.2,27.83,32.85,1.9178,377.3919],
    [15474,1532809302,56.9593,-111.5606,519.5,201.5,357.2,2.8,-4.5,27.77,32.93,1.9163,376.5586],
    [15475,1532809303,56.9599,-111.5606,519.9,201.9,357.5,2.5,-4.3,28.32,32.55,1.9146,378.1672],
    [15476,1532809304,56.9605,-111.5606,519.9,201.9,358.4,1.5,-3.7,28.15,32.59,1.9119,376.0276],
    [15477,1532809305,56.961,-111.5606,519.4,201.4,359.3,0.9,-3.4,28.13,32.66,1.9162,376.4755],
    [15478,1532809306,56.9616,-111.5606,519.3,201.3,358.6,1.6,-3.3,27.53,32.9,1.9207,375.4005],
    [15479,1532809307,56.9622,-111.5606,519.4,201.4,359.0,1.3,-3.0,27.29,32.84,1.9204,376.7516],
    [15480,1532809308,56.9628,-111.5606,518.4,200.4,357.9,2.3,-2.7,28.44,32.62,1.9206,376.2737],
    [15481,1532809309,56.9634,-111.5606,516.7,198.7,357.4,2.6,-1.8,27.68,34.62,1.9205,376.9498],
    [15482,1532809310,56.964,-111.5607,514.4,197.4,357.3,2.3,-1.8,27.37,34.12,1.921,376.9498],
    [15483,1532809311,56.9646,-111.5607,512.7,195.7,356.6,2.8,-1.2,27.64,34.49,1.9258,375.4549],
    [15484,1532809312,56.9652,-111.5607,511.1,195.2,356.2,2.8,-0.6,27.79,35.31,1.9257,375.5973],
    [15485,1532809313,56.9657,-111.5607,509.9,194.2,356.8,2.0,-0.1,27.78,35.75,1.9259,375.5973],
    [15486,1532809314,56.9664,-111.5608,508.9,193.9,356.6,2.3,0.9,27.2,35.78,1.9243,375.2165],
    [15487,1532809315,56.967,-111.5608,507.8,193.8,356.9,2.1,2.0,27.68,36.03,1.9236,376.0419],
    [15488,1532809316,56.9675,-111.5608,506.2,193.1,358.4,0.7,2.3,27.67,36.18,1.9227,375.6586],
    [15489,1532809317,56.9681,-111.5608,504.4,191.4,359.0,0.6,2.6,28.25,35.56,1.9241,374.7153],
    [15490,1532809318,56.9688,-111.5608,502.6,189.6,358.4,1.3,3.1,28.34,35.41,1.9239,374.7153],
    [15491,1532809319,56.9694,-111.5608,500.9,186.8,357.9,2.0,3.4,28.05,36.11,1.9236,375.2044],
    [15492,1532809320,56.97,-111.5608,499.4,184.9,357.4,2.5,4.1,27.69,37.04,1.9231,375.8214],
    [15493,1532809321,56.9706,-111.5608,498.1,180.6,358.1,2.2,4.6,27.56,36.36,1.9231,375.157],
    [15494,1532809322,56.9712,-111.5608,496.7,176.0,357.6,3.2,5.3,27.48,36.54,1.9236,375.5518],
    [15495,1532809323,56.9719,-111.5608,495.8,173.8,357.9,3.0,5.8,27.35,36.46,1.9233,375.0184],
    [15496,1532809324,56.9725,-111.5608,495.1,172.1,359.0,2.3,6.1,27.04,36.7,1.924,375.0184],
    [15497,1532809325,56.9731,-111.5608,494.0,171.0,359.0,2.5,5.9,27.55,37.17,1.923,375.3664],
    [15498,1532809326,56.9737,-111.5608,493.3,170.3,359.4,2.3,6.2,28.25,36.45,1.9229,375.2125],
    [15499,1532809327,56.9743,-111.5607,492.8,169.2,359.4,2.3,6.0,27.64,36.88,1.9237,374.6514],
    [15500,1532809328,56.9749,-111.5607,492.6,168.6,359.6,1.8,6.0,27.55,36.96,1.9234,375.4256],
    [15501,1532809329,56.9756,-111.5607,492.6,168.6,358.0,2.9,5.4,26.96,37.39,1.9257,375.1266],
    [15502,1532809330,56.9762,-111.5607,492.4,168.4,358.1,2.0,5.5,28.11,36.55,1.9252,375.129],
    [15503,1532809331,56.9768,-111.5607,492.2,168.2,358.5,1.5,5.4,27.35,37.25,1.9261,373.7756],
    [15504,1532809332,56.9774,-111.5607,492.2,168.2,358.0,1.9,5.8,27.42,37.78,1.9284,373.8708],
    [15505,1532809333,56.978,-111.5607,492.3,169.3,358.6,1.4,5.3,27.65,38.27,1.9303,374.3763],
    [15506,1532809334,56.9786,-111.5607,492.5,170.5,357.7,2.6,5.5,27.42,39.2,1.9282,374.3763],
    [15507,1532809335,56.9792,-111.5607,492.9,171.9,357.7,2.4,5.8,27.21,39.41,1.9233,374.0242],
    [15508,1532809336,56.9798,-111.5607,493.4,174.7,359.8,0.3,5.7,28.09,38.9,1.9228,374.3328],
    [15509,1532809337,56.9804,-111.5607,494.4,178.1,359.3,1.1,5.5,26.91,39.05,1.9227,375.1265],
    [15510,1532809338,56.981,-111.5607,495.7,182.3,358.7,1.7,4.7,27.1,38.7,1.9224,375.5202],
    [15511,1532809339,56.9816,-111.5607,497.3,186.9,359.3,1.1,4.0,27.51,38.02,1.9272,375.0014],
    [15512,1532809340,56.9822,-111.5607,499.2,190.2,358.2,2.3,4.3,27.67,37.9,1.9227,375.7513],
    [15513,1532809341,56.9828,-111.5607,500.8,191.8,358.4,1.6,4.0,27.16,37.96,1.9222,375.1145],
    [15514,1532809342,56.9834,-111.5607,502.6,193.6,359.1,0.8,2.9,27.17,38.1,1.922,375.1813],
    [15515,1532809343,56.984,-111.5607,504.5,195.5,358.4,1.3,1.9,27.4,38.04,1.9264,375.4963],
    [15516,1532809344,56.9846,-111.5607,506.2,197.2,358.8,0.8,1.4,27.38,38.56,1.9296,375.8423],
    [15517,1532809345,56.9852,-111.5607,508.1,199.1,359.2,0.6,0.9,27.04,38.15,1.9317,374.6003],
    [15518,1532809346,56.9858,-111.5607,510.3,201.3,358.4,1.3,0.9,27.24,38.68,1.9305,374.6589],
    [15519,1532809347,56.9864,-111.5607,512.5,201.5,358.2,1.4,0.4,27.4,39.38,1.9288,374.7155],
    [15520,1532809348,56.987,-111.5607,514.2,201.5,357.7,1.9,-0.5,27.27,40.12,1.93,374.5891],
    [15521,1532809349,56.9876,-111.5607,515.5,201.0,357.2,2.2,-1.2,27.23,39.37,1.9302,374.9928],
    [15522,1532809350,56.9881,-111.5608,517.1,200.9,358.2,1.4,-1.3,27.98,39.01,1.9271,374.8861],
    [15523,1532809351,56.9887,-111.5608,519.2,201.2,358.4,1.3,-1.3,26.56,39.75,1.927,375.697],
    [15524,1532809352,56.9893,-111.5608,521.2,202.2,358.8,1.0,-1.1,26.52,39.67,1.9271,375.3491],
    [15525,1532809353,56.9899,-111.5608,523.5,204.5,359.1,0.9,-1.4,27.13,40.5,1.9289,375.7377],
    [15526,1532809354,56.9904,-111.5608,525.7,206.7,358.3,1.6,-1.4,26.91,39.74,1.9308,375.4621],
    [15527,1532809355,56.991,-111.5608,527.8,208.8,358.8,1.1,-1.7,27.05,39.29,1.9298,374.6294],
    [15528,1532809356,56.9916,-111.5608,529.8,210.8,358.6,1.4,-1.6,27.28,39.7,1.9278,375.0436],
    [15529,1532809357,56.9921,-111.5608,531.2,212.2,358.8,1.3,-2.2,27.19,39.84,1.9271,375.4939],
    [15530,1532809358,56.9927,-111.5608,532.0,212.0,358.3,2.0,-1.9,27.11,39.79,1.9271,375.5419],
    [15531,1532809359,56.9933,-111.5608,532.6,212.6,357.5,2.4,-1.5,26.97,39.74,1.926,375.6309],
    [15532,1532809360,56.9938,-111.5608,533.1,213.1,358.0,1.6,-1.5,27.48,38.83,1.9234,374.13],
    [15533,1532809361,56.9944,-111.5608,533.8,212.8,357.5,2.0,-0.8,27.5,39.01,1.9227,374.8086],
    [15534,1532809362,56.995,-111.5608,534.9,213.9,357.7,1.6,-0.9,26.36,39.27,1.9236,375.2221],
    [15535,1532809363,56.9955,-111.5608,536.3,214.3,358.4,0.9,-0.6,26.77,38.83,1.9245,374.9173],
    [15536,1532809364,56.9961,-111.5609,538.1,216.0,358.6,0.8,-1.0,27.4,38.37,1.9232,375.5465],
    [15537,1532809365,56.9966,-111.5609,539.9,217.0,358.4,1.1,-0.5,26.87,38.26,1.9228,375.7417],
    [15538,1532809366,56.9972,-111.5609,540.8,217.9,358.7,0.7,-0.7,27.18,38.18,1.9223,375.6076],
    [15539,1532809367,56.9977,-111.5609,541.9,218.9,358.7,0.8,-0.4,27.79,37.19,1.9206,375.7972],
    [15540,1532809368,56.9983,-111.5609,543.3,220.1,357.4,2.4,-0.5,27.38,37.36,1.9204,375.5068],
    [15541,1532809369,56.9989,-111.5609,544.3,221.7,357.3,2.6,-0.2,27.05,37.62,1.921,375.3164],
    [15542,1532809370,56.9994,-111.5609,544.3,221.9,358.2,1.9,-0.3,27.23,37.37,1.9258,376.0926],
    [15543,1532809371,57.0,-111.5609,543.2,221.2,358.5,1.8,-0.3,27.28,37.21,1.9265,376.1211],
    [15544,1532809372,57.0006,-111.5609,541.7,220.1,359.9,0.5,-0.3,26.95,37.63,1.9261,376.1211],
    [15545,1532809373,57.0011,-111.5609,540.5,218.7,360.0,0.7,0.0,27.13,37.93,1.9228,376.3526],
    [15546,1532809374,57.0017,-111.5609,539.3,217.2,358.9,1.9,0.2,27.21,38.11,1.9214,377.028],
    [15547,1532809375,57.0023,-111.5609,537.3,215.1,359.4,1.6,-0.3,27.39,37.8,1.9208,377.4351],
    [15548,1532809376,57.0028,-111.5609,535.2,213.0,360.1,1.1,-0.4,27.14,37.88,1.9235,376.4921],
    [15549,1532809377,57.0034,-111.5608,533.2,210.3,361.3,0.0,-0.3,27.51,37.0,1.9236,376.1848],
    [15550,1532809378,57.004,-111.5608,531.4,208.6,361.7,0.0,-0.3,27.15,37.64,1.9202,375.7995],
    [15551,1532809379,57.0046,-111.5608,530.3,207.3,361.1,0.8,0.1,27.27,37.56,1.9207,376.2432],
    [15552,1532809380,57.0051,-111.5607,528.6,206.7,360.6,1.5,0.1,27.02,37.14,1.9205,376.8023],
    [15553,1532809381,57.0057,-111.5607,526.7,204.9,361.1,1.2,0.2,27.04,37.0,1.921,376.5255],
    [15554,1532809382,57.0063,-111.5607,525.4,204.3,2.5,0.1,0.4,27.18,37.09,1.923,376.4353],
    [15555,1532809383,57.0069,-111.5606,524.3,203.3,3.0,0.1,0.3,27.15,36.79,1.9219,376.3983],
    [15556,1532809384,57.0075,-111.5605,523.4,202.4,4.2,-0.7,0.3,27.38,36.36,1.9209,376.3779],
    [15557,1532809385,57.0081,-111.5605,522.9,201.9,4.8,-0.5,0.2,27.75,36.35,1.9215,376.348],
    [15558,1532809386,57.0087,-111.5604,522.7,201.7,4.9,-0.2,0.2,27.15,36.55,1.9217,375.949],
    [15559,1532809387,57.0093,-111.5603,522.9,201.9,5.1,-0.1,-0.3,27.1,36.56,1.9223,375.9355],
    [15560,1532809388,57.0099,-111.5602,522.8,202.5,6.0,-0.8,0.2,27.18,36.99,1.9225,376.39],
    [15561,1532809389,57.0104,-111.5601,522.9,202.9,5.9,-0.5,-0.2,28.02,35.76,1.9217,376.8732],
    [15562,1532809390,57.011,-111.56,522.9,202.9,4.7,0.6,-0.8,27.09,36.3,1.9219,376.0244],
    [15563,1532809391,57.0116,-111.5599,523.0,203.0,4.2,0.9,-1.4,27.65,35.76,1.9212,376.0313],
    [15564,1532809392,57.0122,-111.5598,523.5,203.5,2.8,2.1,-1.6,27.26,36.51,1.9205,377.7012],
    [15565,1532809393,57.0128,-111.5597,524.0,203.0,2.9,1.4,-2.1,27.24,36.57,1.9206,376.7243],
    [15566,1532809394,57.0134,-111.5596,524.3,203.3,4.0,0.1,-3.0,27.51,35.82,1.9205,375.8191],
    [15567,1532809395,57.0139,-111.5595,524.8,204.8,362.4,1.8,-3.5,26.86,36.51,1.923,375.84],
    [15568,1532809396,57.0145,-111.5595,525.5,205.5,362.1,1.8,-2.6,26.99,36.05,1.9236,375.0617],
    [15569,1532809397,57.0151,-111.5594,525.9,205.9,3.0,0.9,-3.9,27.49,35.84,1.9264,376.0745],
    [15570,1532809398,57.0157,-111.5593,526.6,207.6,2.6,1.4,-3.8,28.07,35.63,1.9305,377.1831],
    [15571,1532809399,57.0162,-111.5593,527.7,208.7,362.3,1.5,-4.2,27.89,36.53,1.927,377.2731],
    [15572,1532809400,57.0168,-111.5592,527.9,208.9,362.4,1.2,-3.8,27.19,37.81,1.9206,376.9053],
    [15573,1532809401,57.0174,-111.5591,527.3,208.5,361.2,1.9,-4.1,27.29,37.19,1.9226,376.0993],
    [15574,1532809402,57.018,-111.5591,526.7,208.7,360.5,1.9,-4.1,27.76,36.52,1.9262,376.0345],
    [15575,1532809403,57.0185,-111.559,526.2,208.2,360.2,1.9,-4.1,27.45,37.31,1.9256,376.5666],
    [15576,1532809404,57.0191,-111.559,526.2,208.2,359.7,1.8,-4.1,27.42,36.72,1.9248,375.4952],
    [15577,1532809405,57.0197,-111.559,525.5,207.5,358.8,2.1,-3.6,27.4,37.45,1.9246,375.4291],
    [15578,1532809406,57.0202,-111.559,523.5,205.5,358.1,2.3,-2.5,26.83,37.11,1.9257,375.3505],
    [15579,1532809407,57.0208,-111.559,520.4,202.7,357.0,3.2,-3.1,27.31,36.94,1.9239,377.3147],
    [15580,1532809408,57.0214,-111.559,517.6,200.6,357.2,2.8,-2.7,27.21,36.91,1.9224,375.785],
    [15581,1532809409,57.022,-111.559,514.7,197.7,358.3,1.9,-1.6,27.45,36.88,1.9209,376.6034],
    [15582,1532809410,57.0226,-111.559,512.1,195.1,357.4,2.8,-1.3,27.45,37.38,1.9207,375.6469],
    [15583,1532809411,57.0232,-111.559,510.0,194.0,357.8,2.1,-0.8,27.17,36.53,1.9148,375.7053],
    [15584,1532809412,57.0238,-111.559,507.7,191.7,357.7,2.0,-0.4,27.59,36.49,1.9122,376.8396],
    [15585,1532809413,57.0244,-111.559,505.9,189.9,357.0,2.5,0.1,27.59,35.26,1.9113,377.4978],
    [15586,1532809414,57.025,-111.5591,504.0,189.0,357.1,2.1,0.5,27.28,34.66,1.912,377.4605],
    [15587,1532809415,57.0256,-111.5591,501.8,186.8,356.5,2.6,0.7,27.47,34.15,1.9133,377.1061],
    [15588,1532809416,57.0262,-111.5591,499.9,184.9,357.2,1.8,1.2,27.46,33.6,1.9134,377.1061],
    [15589,1532809417,57.0268,-111.5591,498.2,182.7,356.7,2.5,1.6,28.18,32.57,1.9154,377.076],
    [15590,1532809418,57.0274,-111.5592,496.7,180.7,356.3,2.8,1.9,27.26,33.09,1.9209,377.3186],
    [15591,1532809419,57.028,-111.5592,495.6,179.3,356.6,2.5,2.6,27.08,33.36,1.9175,378.049],
    [15592,1532809420,57.0286,-111.5592,494.4,177.4,356.9,2.2,3.2,27.4,33.58,1.9189,377.4579],
    [15593,1532809421,57.0292,-111.5592,492.8,175.8,356.8,2.4,4.1,27.41,34.09,1.9219,377.6258],
    [15594,1532809422,57.0298,-111.5592,490.8,174.8,356.7,2.3,4.5,27.25,34.88,1.9229,377.1473],
    [15595,1532809423,57.0304,-111.5593,488.1,172.0,357.1,1.8,4.7,27.79,34.58,1.9226,377.1925],
    [15596,1532809424,57.0311,-111.5593,484.9,169.9,357.1,1.7,5.4,27.07,35.28,1.9219,376.8066],
    [15597,1532809425,57.0317,-111.5593,481.2,166.2,357.1,1.7,5.9,28.1,35.07,1.9192,377.1414],
    [15598,1532809426,57.0323,-111.5593,477.6,162.6,357.3,1.6,6.4,28.17,35.28,1.92,377.0307],
    [15599,1532809427,57.0329,-111.5594,474.0,158.0,357.2,1.9,6.5,27.52,36.4,1.9188,376.9011],
    [15600,1532809428,57.0335,-111.5594,471.2,155.2,357.1,1.8,6.2,27.44,37.01,1.9193,376.5854],
    [15601,1532809429,57.0342,-111.5594,469.4,153.4,356.8,2.3,6.2,27.43,35.66,1.9195,376.7418],
    [15602,1532809430,57.0348,-111.5594,467.7,152.0,357.0,1.7,5.8,27.43,35.58,1.9201,376.4639],
    [15603,1532809431,57.0354,-111.5594,466.6,151.6,357.8,1.1,6.3,28.26,35.25,1.9192,376.5844],
    [15604,1532809432,57.036,-111.5595,466.5,152.5,357.1,1.4,6.3,27.8,36.14,1.9221,376.6343],
    [15605,1532809433,57.0367,-111.5595,465.5,152.5,356.6,2.0,6.6,27.68,36.21,1.9242,376.3365],
    [15606,1532809434,57.0373,-111.5595,464.7,152.7,355.3,2.9,7.1,27.3,35.92,1.9242,377.2132],
    [15607,1532809435,57.0379,-111.5596,464.3,152.3,356.6,1.7,7.3,27.82,36.26,1.9239,376.2363],
    [15608,1532809436,57.0385,-111.5596,464.2,153.2,356.6,2.3,7.4,27.18,36.57,1.9238,376.5759],
    [15609,1532809437,57.0392,-111.5596,464.5,153.5,357.3,2.0,6.8,27.06,36.73,1.9231,376.292],
    [15610,1532809438,57.0398,-111.5596,464.7,154.7,358.8,0.9,6.9,27.65,37.24,1.9219,376.7818],
    [15611,1532809439,57.0404,-111.5596,465.4,157.4,359.0,1.0,6.9,27.43,36.82,1.921,376.4634],
    [15612,1532809440,57.041,-111.5596,466.3,160.9,357.9,2.0,7.0,27.24,36.82,1.921,375.4666],
    [15613,1532809441,57.0416,-111.5596,466.1,163.1,358.5,1.1,7.7,27.54,37.11,1.9216,376.1939],
    [15614,1532809442,57.0423,-111.5596,466.2,163.2,358.6,1.3,7.3,27.12,36.79,1.9193,375.8931],
    [15615,1532809443,57.0429,-111.5597,466.3,163.3,357.4,2.3,7.3,27.04,36.74,1.9206,376.1588],
    [15616,1532809444,57.0435,-111.5597,466.1,163.1,358.6,1.3,6.5,27.18,36.66,1.9202,377.584],
    [15617,1532809445,57.0441,-111.5597,465.9,159.4,357.9,2.2,7.2,26.8,36.76,1.9198,376.2844],
    [15618,1532809446,57.0447,-111.5597,465.9,156.7,358.1,2.1,7.0,27.31,36.61,1.9178,377.2715],
    [15619,1532809447,57.0453,-111.5597,465.9,154.9,358.3,2.0,6.4,26.99,36.2,1.917,378.527],
    [15620,1532809448,57.046,-111.5597,466.0,154.0,357.9,2.5,5.9,27.5,36.83,1.9172,379.0042],
    [15621,1532809449,57.0466,-111.5597,466.1,153.1,357.7,2.6,5.5,27.18,35.74,1.9174,377.8797],
    [15622,1532809450,57.0472,-111.5597,466.9,153.9,357.4,2.8,5.0,27.21,36.17,1.9179,378.5072],
    [15623,1532809451,57.0478,-111.5597,468.8,155.8,357.6,2.2,4.7,27.43,35.19,1.9182,377.6999],
    [15624,1532809452,57.0484,-111.5597,471.0,158.0,357.7,2.2,3.9,27.76,35.37,1.9197,378.0853],
    [15625,1532809453,57.049,-111.5597,473.3,160.3,357.0,2.9,2.6,28.01,34.33,1.9182,377.4165],
    [15626,1532809454,57.0496,-111.5597,475.5,162.5,357.3,2.8,2.3,27.73,35.08,1.9183,377.4165],
    [15627,1532809455,57.0502,-111.5597,477.7,164.7,358.4,2.0,0.4,27.91,34.27,1.9205,377.4939],
    [15628,1532809456,57.0508,-111.5597,479.8,166.9,359.4,1.2,0.0,27.35,35.57,1.9191,376.8531],
    [15629,1532809457,57.0514,-111.5597,481.1,167.1,358.6,1.8,0.6,28.25,34.63,1.9189,377.1957],
    [15630,1532809458,57.052,-111.5597,482.0,168.0,358.7,1.3,0.0,27.6,35.08,1.9189,377.1957],
    [15631,1532809459,57.0526,-111.5597,482.8,168.8,357.4,2.3,-1.2,27.17,35.47,1.9184,376.6901],
    [15632,1532809460,57.0531,-111.5597,483.5,169.5,355.7,3.5,-1.2,27.46,36.11,1.9192,375.2688],
    [15633,1532809461,57.0537,-111.5597,483.6,169.6,355.8,3.1,-1.5,26.76,36.06,1.921,375.469],
    [15634,1532809462,57.0543,-111.5598,483.3,169.3,355.0,3.9,-1.5,27.81,35.9,1.922,374.9601],
    [15635,1532809463,57.0549,-111.5598,482.7,168.7,354.9,3.8,-1.1,27.87,35.65,1.9218,376.8306],
    [15636,1532809464,57.0555,-111.5598,481.9,167.9,355.4,3.3,-1.3,27.54,36.93,1.9225,376.0959],
    [15637,1532809465,57.0561,-111.5599,481.5,167.5,355.5,3.2,-1.7,27.31,36.86,1.9255,374.7372],
    [15638,1532809466,57.0567,-111.5599,481.9,167.9,355.9,2.8,-1.9,27.0,37.07,1.9268,373.9531],
    [15639,1532809467,57.0573,-111.5599,482.6,168.6,357.2,1.7,-1.4,27.4,37.38,1.9236,375.7345],
    [15640,1532809468,57.0579,-111.5599,483.1,169.1,356.5,2.7,-1.7,27.6,37.68,1.9227,375.9231],
    [15641,1532809469,57.0585,-111.56,484.1,171.3,355.9,3.3,-3.0,27.51,38.03,1.9233,374.4538],
    [15642,1532809470,57.0591,-111.56,485.6,171.6,356.3,2.8,-3.1,27.48,38.49,1.9231,375.2726],
    [15643,1532809471,57.0597,-111.56,487.7,173.7,356.7,2.7,-2.8,27.56,37.65,1.9239,376.6838],
    [15644,1532809472,57.0602,-111.56,490.0,175.3,356.8,2.6,-3.0,27.63,37.01,1.9235,376.1736],
    [15645,1532809473,57.0608,-111.5601,491.6,176.9,359.3,0.3,-3.4,27.53,37.3,1.9236,375.7346],
    [15646,1532809474,57.0614,-111.5601,492.7,179.6,359.1,0.9,-4.2,27.64,36.95,1.9242,376.404],
    [15647,1532809475,57.062,-111.5601,493.3,180.3,358.9,1.2,-3.6,27.51,36.79,1.9262,376.0516],
    [15648,1532809476,57.0626,-111.5601,493.4,180.5,358.9,1.2,-3.2,27.27,37.09,1.928,376.0231],
    [15649,1532809477,57.0631,-111.5601,493.0,181.0,358.1,2.0,-3.2,27.49,37.2,1.9276,375.984],
    [15650,1532809478,57.0637,-111.5601,492.7,180.7,358.4,1.6,-3.4,27.61,37.08,1.928,376.0314],
    [15651,1532809479,57.0643,-111.5601,491.2,179.2,358.5,1.7,-2.6,27.52,38.05,1.9273,374.9628],
    [15652,1532809480,57.0649,-111.5601,489.0,177.0,357.5,2.7,-2.5,27.92,37.24,1.9258,374.9218],
    [15653,1532809481,57.0655,-111.5601,486.3,174.3,357.8,2.3,-0.9,26.73,38.21,1.9264,374.4115],
    [15654,1532809482,57.0661,-111.5601,483.0,171.0,358.0,2.2,-0.5,27.46,38.23,1.9285,375.3219],
    [15655,1532809483,57.0667,-111.5601,479.4,167.3,358.2,2.0,-0.5,27.03,38.17,1.9285,375.3219],
    [15656,1532809484,57.0673,-111.5601,476.6,165.6,358.1,2.2,0.4,27.35,38.52,1.9285,376.1903],
    [15657,1532809485,57.0679,-111.5601,474.6,164.6,357.3,3.1,0.4,27.52,38.1,1.9277,376.7412],
    [15658,1532809486,57.0685,-111.5601,472.9,163.9,357.6,2.7,1.0,28.29,36.84,1.9287,376.8847],
    [15659,1532809487,57.0691,-111.5601,471.5,163.8,357.6,2.6,1.1,28.26,36.38,1.9324,375.8665],
    [15660,1532809488,57.0697,-111.5601,470.2,165.7,357.2,2.8,1.9,27.76,36.11,1.9331,375.8599],
    [15661,1532809489,57.0704,-111.5601,469.5,167.6,357.7,2.3,2.3,27.41,35.97,1.9343,375.3782],
    [15662,1532809490,57.071,-111.5601,469.1,171.0,358.7,1.5,2.7,27.83,35.44,1.9339,376.8846],
    [15663,1532809491,57.0716,-111.5601,468.5,174.3,358.3,2.2,2.9,28.14,35.1,1.9342,376.2023],
    [15664,1532809492,57.0722,-111.5601,468.2,179.0,358.0,2.4,3.1,27.94,35.28,1.937,376.9171],
    [15665,1532809493,57.0729,-111.5601,468.3,183.3,359.4,0.9,4.0,27.49,36.19,1.9371,377.1397],
    [15666,1532809494,57.0735,-111.5601,468.2,189.1,359.2,1.0,3.3,27.46,35.59,1.9321,376.6118],
    [15667,1532809495,57.0741,-111.5601,468.1,195.9,358.5,1.4,4.2,27.59,35.71,1.9403,375.8987],
    [15668,1532809496,57.0747,-111.5601,467.9,199.6,358.5,1.4,4.9,28.34,34.21,1.9426,375.8987],
    [15669,1532809497,57.0754,-111.5601,467.8,200.4,358.2,2.0,4.9,27.68,35.37,1.9344,376.9137],
    [15670,1532809498,57.076,-111.5601,467.7,203.4,358.3,1.6,4.8,28.5,34.04,1.9332,377.4344],
    [15671,1532809499,57.0766,-111.5601,467.2,207.2,359.5,0.9,4.4,28.3,34.12,1.9457,378.2217],
    [15672,1532809500,57.0772,-111.5601,466.2,212.9,359.5,0.9,4.7,28.18,33.52,1.9473,377.1879],
    [15673,1532809501,57.0779,-111.5601,464.5,214.9,360.2,0.2,5.2,27.43,34.82,1.9412,377.9194],
    [15674,1532809502,57.0785,-111.5601,462.3,215.3,360.2,0.3,5.3,27.62,34.62,1.9349,377.3449],
    [15675,1532809503,57.0791,-111.5601,459.8,215.5,360.4,0.4,5.9,27.59,34.35,1.9323,376.5677],
    [15676,1532809504,57.0798,-111.5601,457.0,216.7,360.5,0.3,5.9,27.5,34.58,1.9394,377.1163],
    [15677,1532809505,57.0804,-111.5601,454.1,216.4,359.7,1.2,6.4,27.61,34.94,1.9382,377.0632],
    [15678,1532809506,57.081,-111.56,451.6,216.4,359.6,1.3,7.1,27.62,34.72,1.9372,377.1566],
    [15679,1532809507,57.0817,-111.56,449.6,215.6,360.3,0.7,7.3,27.19,34.1,1.9704,376.8137],
    [15680,1532809508,57.0823,-111.56,447.8,213.8,360.4,0.6,7.2,27.65,34.1,2.0065,376.4826],
    [15681,1532809509,57.0829,-111.56,446.8,212.8,360.8,0.3,7.7,27.65,34.7,2.0187,376.6577],
    [15682,1532809510,57.0836,-111.56,447.0,213.0,360.1,1.0,6.9,27.27,33.95,2.0235,377.2686],
    [15683,1532809511,57.0842,-111.56,447.1,214.1,360.5,0.2,7.0,27.58,33.81,2.0245,376.6626],
    [15684,1532809512,57.0848,-111.56,447.9,216.0,360.5,0.0,7.1,28.01,33.68,2.0239,377.4448],
    [15685,1532809513,57.0855,-111.5599,449.2,217.2,360.3,-0.3,7.2,26.95,34.14,2.0266,376.861],
    [15686,1532809514,57.0861,-111.5599,450.4,218.4,361.1,-1.1,7.6,27.79,34.51,2.0354,376.8176],
    [15687,1532809515,57.0867,-111.5599,451.4,219.5,359.9,-0.1,6.9,27.04,34.23,2.0261,378.199],
    [15688,1532809516,57.0873,-111.56,452.0,219.6,359.5,-0.1,6.7,27.29,34.24,2.0018,376.31],
    [15689,1532809517,57.0879,-111.56,451.9,219.9,359.5,0.1,7.1,27.69,34.41,2.0165,377.3923],
    [15690,1532809518,57.0886,-111.56,451.0,219.0,358.6,0.9,6.9,27.33,33.72,2.0193,377.7137],
    [15691,1532809519,57.0892,-111.56,449.7,218.7,359.5,0.3,6.7,26.96,33.82,1.9937,377.5367],
    [15692,1532809520,57.0898,-111.56,448.7,217.7,359.2,1.0,6.2,27.31,33.74,1.9748,376.7999],
    [15693,1532809521,57.0904,-111.56,448.4,217.4,358.3,1.9,6.3,27.34,33.8,1.9732,376.0197],
    [15694,1532809522,57.091,-111.56,448.4,216.2,359.3,0.8,6.0,28.11,33.52,1.9735,375.7937],
    [15695,1532809523,57.0917,-111.56,448.4,217.4,359.2,1.0,4.9,27.72,34.55,1.9736,376.518],
    [15696,1532809524,57.0923,-111.56,448.6,218.6,358.9,1.3,4.4,27.42,34.69,1.9871,376.5185],
    [15697,1532809525,57.0929,-111.56,448.9,218.9,358.8,1.3,4.0,26.88,35.27,2.0259,376.1785],
    [15698,1532809526,57.0935,-111.56,448.8,218.8,359.0,1.1,3.6,27.23,35.12,2.017,376.1785],
    [15699,1532809527,57.0941,-111.56,448.9,218.9,358.5,1.5,3.2,27.37,35.08,2.0342,376.4988],
    [15700,1532809528,57.0947,-111.56,449.1,217.4,358.9,0.8,3.9,27.76,34.86,2.0991,376.6441],
    [15701,1532809529,57.0953,-111.56,449.3,212.4,359.8,0.2,3.7,28.33,34.7,2.1103,376.8206],
    [15702,1532809530,57.0959,-111.56,449.6,208.5,359.4,0.8,4.2,27.6,34.81,2.0982,376.3505],
    [15703,1532809531,57.0965,-111.56,449.8,205.5,360.5,0.1,4.3,27.3,35.08,2.0597,376.7765],
    [15704,1532809532,57.0971,-111.56,449.6,203.7,360.2,0.8,4.3,27.19,34.19,2.06,376.0093],
    [15705,1532809533,57.0977,-111.56,449.0,202.1,359.9,0.9,4.1,27.43,34.86,2.0711,377.085],
    [15706,1532809534,57.0983,-111.5599,448.2,200.1,360.1,0.4,3.7,27.48,34.14,1.9889,376.7984],
    [15707,1532809535,57.0989,-111.5599,447.5,199.5,359.4,0.8,3.9,27.92,33.23,2.0129,377.3193],
    [15708,1532809536,57.0995,-111.5599,447.4,199.4,359.3,0.5,3.6,27.36,33.14,2.0128,377.7709],
    [15709,1532809537,57.1002,-111.5599,447.8,199.0,358.9,0.7,3.6,27.52,32.91,2.0158,377.3823],
    [15710,1532809538,57.1008,-111.56,449.0,199.1,358.6,0.8,3.3,27.84,32.48,2.0394,376.2538],
    [15711,1532809539,57.1013,-111.56,450.0,199.1,358.7,0.6,3.0,27.3,32.01,2.0371,378.8051],
    [15712,1532809540,57.102,-111.56,450.9,197.0,358.0,1.3,2.4,27.76,31.9,2.0198,377.1745],
    [15713,1532809541,57.1025,-111.56,451.4,196.5,358.4,0.9,1.9,28.36,31.7,2.0093,378.5403],
    [15714,1532809542,57.1031,-111.56,451.6,195.3,358.3,1.3,1.7,28.17,31.96,2.0075,378.3902],
    [15715,1532809543,57.1037,-111.56,451.2,194.2,358.2,1.6,2.1,27.87,32.44,2.0117,378.3447],
    [15716,1532809544,57.1043,-111.56,450.7,192.8,358.4,1.5,1.6,28.53,31.87,2.0115,377.2276],
    [15717,1532809545,57.1049,-111.56,451.6,192.6,358.1,1.5,2.1,27.47,32.73,1.975,377.9187],
    [15718,1532809546,57.1055,-111.56,453.5,193.5,357.9,1.4,1.5,27.65,32.86,1.9551,377.9187],
    [15719,1532809547,57.1061,-111.5601,455.0,195.1,357.8,1.1,1.4,27.37,32.76,1.9595,377.6621],
    [15720,1532809548,57.1067,-111.5601,456.1,195.1,357.0,1.7,1.8,27.81,33.06,1.9657,376.1628],
    [15721,1532809549,57.1072,-111.5601,457.0,196.0,356.5,1.8,1.0,27.56,33.37,1.9634,378.5043],
    [15722,1532809550,57.1078,-111.5602,457.5,196.5,356.9,1.2,1.2,28.23,33.52,1.954,378.6777],
    [15723,1532809551,57.1084,-111.5602,457.6,196.6,356.6,1.6,1.3,27.9,33.3,1.9399,377.5443],
    [15724,1532809552,57.109,-111.5602,456.9,195.9,356.2,2.0,0.9,27.66,33.29,1.9588,377.235],
    [15725,1532809553,57.1095,-111.5603,456.0,195.0,356.7,1.7,1.1,28.47,33.11,1.9613,375.9916],
    [15726,1532809554,57.1101,-111.5603,455.2,194.2,356.4,2.2,1.8,27.8,33.6,1.9571,376.8642],
    [15727,1532809555,57.1107,-111.5603,454.2,193.2,357.2,1.1,2.0,27.48,34.43,1.9514,378.4479],
    [15728,1532809556,57.1113,-111.5604,452.7,190.7,357.6,0.9,2.3,27.65,33.86,1.9442,376.9045],
    [15729,1532809557,57.1119,-111.5604,450.7,188.7,356.6,1.9,2.0,27.85,33.81,1.9452,376.9045],
    [15730,1532809558,57.1125,-111.5604,448.6,186.6,357.7,1.0,2.6,27.78,33.62,1.9402,376.9706],
    [15731,1532809559,57.113,-111.5604,446.5,184.5,358.0,1.0,3.0,27.65,33.63,1.9293,378.4677],
    [15732,1532809560,57.1136,-111.5605,444.7,182.7,358.5,0.6,3.5,27.82,34.23,1.93,378.2409],
    [15733,1532809561,57.1142,-111.5605,443.5,181.5,359.5,-0.2,4.3,27.72,33.16,1.9373,379.1478],
    [15734,1532809562,57.1148,-111.5605,442.9,180.9,358.3,1.1,3.9,28.02,33.34,1.9578,378.2559],
    [15735,1532809563,57.1154,-111.5605,442.7,180.7,358.4,1.0,4.3,28.18,32.79,1.9567,377.3721],
    [15736,1532809564,57.116,-111.5605,442.5,180.5,357.8,2.0,4.9,27.79,33.7,1.9557,377.717],
    [15737,1532809565,57.1166,-111.5605,441.8,179.5,356.8,2.9,4.1,27.81,34.25,1.9465,377.385],
    [15738,1532809566,57.1172,-111.5605,440.8,177.8,357.5,2.0,4.7,27.55,34.1,1.9393,378.1987],
    [15739,1532809567,57.1178,-111.5605,440.0,177.0,357.3,1.9,4.8,27.94,33.27,1.949,377.1882],
    [15740,1532809568,57.1184,-111.5606,439.2,176.2,356.8,2.0,4.4,28.54,32.78,1.9579,377.205],
    [15741,1532809569,57.119,-111.5606,438.3,175.3,356.8,1.8,4.5,27.78,33.72,1.9609,376.531],
    [15742,1532809570,57.1196,-111.5606,437.2,174.2,355.8,2.6,4.7,28.08,33.41,1.9597,377.2536],
    [15743,1532809571,57.1202,-111.5606,436.3,172.3,356.1,2.0,5.0,27.62,34.26,1.9467,377.1564],
    [15744,1532809572,57.1208,-111.5607,435.5,171.5,356.6,1.6,4.4,27.92,33.55,1.9368,377.5985],
    [15745,1532809573,57.1214,-111.5607,434.9,169.9,356.6,1.6,3.8,27.72,33.88,1.9531,377.7954],
    [15746,1532809574,57.122,-111.5608,435.0,169.0,357.4,1.0,4.2,27.55,33.94,1.9697,376.3167],
    [15747,1532809575,57.1226,-111.5608,435.0,169.0,357.8,1.0,4.6,27.81,33.84,1.9646,376.3167],
    [15748,1532809576,57.1232,-111.5608,434.9,168.9,358.8,0.5,4.1,27.82,34.3,1.9598,376.5073],
    [15749,1532809577,57.1238,-111.5608,435.3,169.3,359.6,0.2,4.0,27.76,34.39,1.9493,377.2228],
    [15750,1532809578,57.1244,-111.5608,435.5,169.5,358.8,1.2,4.1,28.01,33.89,1.9466,377.4849],
    [15751,1532809579,57.1249,-111.5608,435.2,169.2,357.6,2.4,3.6,27.73,34.1,1.9503,377.6628],
    [15752,1532809580,57.1255,-111.5608,434.7,168.7,357.9,2.0,4.1,27.73,33.98,1.9572,376.6075],
    [15753,1532809581,57.1261,-111.5608,434.3,167.6,358.3,1.5,3.8,26.98,34.35,1.9727,374.9337],
    [15754,1532809582,57.1267,-111.5608,433.9,166.9,358.7,1.2,3.6,27.73,33.99,1.9623,375.9114],
    [15755,1532809583,57.1273,-111.5608,433.1,166.1,357.8,2.2,2.6,27.79,35.44,1.95,377.0198],
    [15756,1532809584,57.1279,-111.5608,432.7,165.7,356.9,2.8,3.3,27.95,34.47,1.9512,376.72],
    [15757,1532809585,57.1285,-111.5608,432.4,165.4,358.1,1.6,3.3,27.56,34.51,1.9628,376.3074],
    [15758,1532809586,57.1291,-111.5608,432.8,165.8,357.8,2.3,3.5,27.32,34.54,1.9503,376.4319],
    [15759,1532809587,57.1297,-111.5609,433.3,167.0,358.2,2.0,4.0,27.13,34.41,1.9441,376.6026],
    [15760,1532809588,57.1303,-111.5608,433.3,167.3,359.5,1.0,3.6,27.56,34.33,1.9441,376.2736],
    [15761,1532809589,57.1309,-111.5608,433.3,167.3,358.7,2.2,4.1,27.25,34.3,1.9474,376.2017],
    [15762,1532809590,57.1315,-111.5608,433.3,167.3,358.1,2.7,4.3,27.96,34.11,1.9522,376.1643],
    [15763,1532809591,57.1321,-111.5608,434.0,168.0,359.6,1.7,4.0,27.85,35.13,1.9575,376.2972],
    [15764,1532809592,57.1326,-111.5608,435.2,168.8,360.2,1.9,4.0,28.26,34.75,1.9576,376.7418],
    [15765,1532809593,57.1332,-111.5607,436.4,169.4,359.8,2.9,4.2,27.68,35.14,1.955,375.8443],
    [15766,1532809594,57.1338,-111.5607,437.8,170.8,360.5,2.4,3.8,27.8,35.94,1.9445,376.6267],
    [15767,1532809595,57.1344,-111.5606,439.5,172.5,361.7,1.5,2.4,28.22,35.11,1.9365,376.6097],
    [15768,1532809596,57.135,-111.5606,441.0,173.9,361.6,1.6,2.3,27.91,35.42,1.9332,374.1363],
    [15769,1532809597,57.1355,-111.5605,442.5,174.5,362.0,1.1,2.1,28.55,34.58,1.9321,375.8547],
    [15770,1532809598,57.1361,-111.5605,443.4,175.4,361.7,1.5,2.0,27.55,35.85,1.9312,376.3116],
    [15771,1532809599,57.1367,-111.5604,443.5,175.5,361.3,1.9,2.1,27.41,35.37,1.9311,375.4381],
    [15772,1532809600,57.1373,-111.5604,443.5,175.5,360.7,2.4,2.4,27.5,35.75,1.9286,376.6655],
    [15773,1532809601,57.1378,-111.5603,443.3,175.3,360.7,2.3,1.8,27.9,35.21,1.9291,377.0468],
    [15774,1532809602,57.1384,-111.5603,442.9,174.1,362.0,1.0,2.1,27.66,35.18,1.9289,377.3607],
    [15775,1532809603,57.139,-111.5602,442.5,172.9,361.9,0.9,2.5,27.29,35.22,1.9266,377.6994],
    [15776,1532809604,57.1396,-111.5602,441.4,171.1,361.7,0.7,2.4,27.49,35.23,1.927,377.352],
    [15777,1532809605,57.1402,-111.5601,439.7,167.9,360.8,0.5,2.2,27.8,35.74,1.9284,377.3044],
    [15778,1532809606,57.1407,-111.5601,438.4,166.4,358.3,0.9,2.7,27.7,35.63,1.9277,377.5448],
    [15779,1532809607,57.1413,-111.5602,437.8,164.8,354.0,1.8,2.2,28.1,34.84,1.9231,377.5833],
    [15780,1532809608,57.1419,-111.5603,437.9,164.9,349.6,2.0,2.1,27.8,35.5,1.9239,377.4853],
    [15781,1532809609,57.1424,-111.5605,438.4,165.4,345.2,1.8,2.1,27.42,35.47,1.9227,377.1578],
    [15782,1532809610,57.143,-111.5608,439.1,166.1,342.0,1.4,2.1,27.48,34.53,1.924,379.0732],
    [15783,1532809611,57.1435,-111.5611,438.8,165.8,337.5,2.3,2.2,28.37,33.37,1.922,377.6436],
    [15784,1532809612,57.1441,-111.5615,437.8,164.8,333.8,2.5,2.1,27.67,33.94,1.9263,376.7069],
    [15785,1532809613,57.1446,-111.5619,436.2,162.2,331.2,1.6,1.8,27.66,34.12,1.9285,378.6042],
    [15786,1532809614,57.1451,-111.5624,434.3,160.3,327.7,0.9,1.8,27.63,34.39,1.9284,378.2379],
    [15787,1532809615,57.1456,-111.563,432.8,159.9,323.5,0.7,2.0,27.27,34.59,1.9277,377.289],
    [15788,1532809616,57.146,-111.5636,431.8,159.9,319.1,0.2,2.4,27.66,35.58,1.9291,378.1292],
    [15789,1532809617,57.1464,-111.5643,430.8,157.6,315.8,0.0,2.7,28.72,34.49,1.9306,377.169],
    [15790,1532809618,57.1469,-111.5651,429.6,158.3,311.0,1.2,3.1,28.54,34.52,1.9332,377.2204],
    [15791,1532809619,57.1472,-111.5658,429.9,158.7,307.1,0.9,3.6,27.92,35.47,1.9364,377.5908],
    [15792,1532809620,57.1476,-111.5667,430.5,160.3,303.6,1.0,3.3,27.96,35.56,1.9347,376.5087],
    [15793,1532809621,57.1479,-111.5675,431.0,161.1,300.3,0.6,3.6,27.82,36.85,1.933,377.5125],
    [15794,1532809622,57.1482,-111.5684,431.9,162.4,297.0,1.1,3.6,27.82,36.7,1.9308,377.7078],
    [15795,1532809623,57.1485,-111.5693,433.1,167.9,294.4,1.9,2.9,27.77,36.27,1.9409,376.8093],
    [15796,1532809624,57.1487,-111.5702,434.9,172.9,291.6,2.2,2.4,28.24,36.03,1.9448,376.9252],
    [15797,1532809625,57.1489,-111.5712,436.8,172.9,290.5,1.2,1.3,27.43,36.52,1.9453,377.5475],
    [15798,1532809626,57.1491,-111.5721,438.7,173.0,287.7,0.9,1.8,27.65,36.67,1.9438,377.4562],
    [15799,1532809627,57.1493,-111.5731,440.1,173.6,284.7,0.9,2.5,27.77,37.0,1.9452,376.5141],
    [15800,1532809628,57.1495,-111.5741,440.2,175.2,282.2,1.6,2.9,27.79,37.41,1.9459,375.6653],
    [15801,1532809629,57.1496,-111.5751,439.5,173.6,279.4,1.9,3.3,27.69,37.51,1.9516,375.9872],
    [15802,1532809630,57.1497,-111.576,438.9,170.9,278.6,2.1,2.3,27.94,37.33,1.9506,375.9441],
    [15803,1532809631,57.1498,-111.577,438.0,167.3,277.0,2.5,2.1,27.22,37.8,1.9454,375.9441],
    [15804,1532809632,57.1499,-111.578,437.6,165.6,273.5,3.1,3.2,27.81,38.29,1.9418,377.4499],
    [15805,1532809633,57.1499,-111.579,437.2,165.0,271.7,3.6,2.8,27.72,38.11,1.9437,377.4344],
    [15806,1532809634,57.15,-111.58,436.5,164.2,269.3,3.6,3.7,27.8,38.14,1.9439,376.5319],
    [15807,1532809635,57.15,-111.581,435.3,163.4,267.8,3.6,3.9,28.12,37.58,1.9438,377.2663],
    [15808,1532809636,57.15,-111.582,433.8,161.8,267.7,3.8,3.2,27.6,37.91,1.9459,375.615],
    [15809,1532809637,57.15,-111.583,432.6,160.6,266.7,3.5,3.6,27.83,38.4,1.9456,376.8738],
    [15810,1532809638,57.15,-111.584,431.7,159.7,266.5,3.8,3.3,27.61,37.93,1.9435,376.2787],
    [15811,1532809639,57.15,-111.585,431.0,159.0,266.5,3.8,3.4,27.82,38.39,1.9425,375.7538],
    [15812,1532809640,57.15,-111.586,430.3,158.3,265.7,3.2,4.2,27.86,38.5,1.9409,376.5628],
    [15813,1532809641,57.15,-111.587,429.3,157.3,266.5,2.7,3.6,27.64,38.98,1.942,375.4316],
    [15814,1532809642,57.15,-111.588,428.2,156.3,267.1,2.7,3.1,28.03,37.79,1.9431,375.9897],
    [15815,1532809643,57.15,-111.589,427.2,155.3,266.8,2.3,3.5,27.53,38.47,1.9437,376.1137],
    [15816,1532809644,57.15,-111.5901,426.1,154.9,266.6,1.1,3.5,28.0,37.85,1.9421,376.6185],
    [15817,1532809645,57.15,-111.5911,425.2,155.1,266.5,0.8,3.4,28.49,37.51,1.9423,376.4703],
    [15818,1532809646,57.15,-111.5921,424.8,155.8,266.2,0.7,3.5,27.9,37.95,1.9428,376.5681],
    [15819,1532809647,57.15,-111.5932,425.1,157.0,266.8,0.3,2.8,27.72,38.09,1.9417,375.6059],
    [15820,1532809648,57.15,-111.5942,425.2,158.2,266.5,0.1,2.8,27.39,38.2,1.9438,374.7013],
    [15821,1532809649,57.1499,-111.5952,425.2,158.5,265.6,0.0,3.2,27.78,38.87,1.9453,375.7448],
    [15822,1532809650,57.1499,-111.5962,425.7,157.7,265.4,-0.9,3.1,28.05,37.82,1.9441,375.4434],
    [15823,1532809651,57.1499,-111.5973,426.4,157.4,265.1,0.1,3.1,27.79,39.16,1.9424,376.2738],
    [15824,1532809652,57.1499,-111.5983,427.0,157.0,265.4,0.0,2.5,27.92,38.66,1.9426,375.6961],
    [15825,1532809653,57.1499,-111.5993,427.8,156.8,264.9,-0.7,2.9,27.49,38.7,1.9409,375.2447],
    [15826,1532809654,57.1498,-111.6003,428.9,157.9,264.9,0.0,3.0,27.85,38.8,1.9404,375.7044],
    [15827,1532809655,57.1498,-111.6013,429.9,159.6,264.6,-0.3,3.0,27.89,38.42,1.9406,374.8354],
    [15828,1532809656,57.1498,-111.6023,430.7,162.5,264.6,-0.4,2.8,27.86,38.39,1.9416,375.5595],
    [15829,1532809657,57.1498,-111.6033,431.1,165.1,264.3,-0.8,2.7,27.76,38.78,1.9419,374.6201],
    [15830,1532809658,57.1497,-111.6043,431.4,168.6,264.2,-0.3,2.3,27.79,38.89,1.9439,375.8019],
    [15831,1532809659,57.1497,-111.6053,431.4,174.4,263.5,0.1,2.7,27.93,39.45,1.944,375.3124],
    [15832,1532809660,57.1497,-111.6063,431.4,177.4,262.1,0.3,3.6,27.5,39.48,1.9406,375.9949],
    [15833,1532809661,57.1496,-111.6073,431.4,180.8,262.3,1.0,3.1,27.5,39.31,1.9406,377.2346],
    [15834,1532809662,57.1496,-111.6083,430.9,182.9,262.4,1.6,3.1,28.41,38.83,1.9414,375.1083],
    [15835,1532809663,57.1495,-111.6093,429.8,183.5,261.9,0.9,4.2,27.96,39.91,1.9427,375.3825],
    [15836,1532809664,57.1495,-111.6103,429.1,184.1,262.7,0.7,4.0,27.75,39.18,1.9448,375.5073],
    [15837,1532809665,57.1495,-111.6113,427.5,186.5,265.2,2.6,2.8,28.24,39.1,1.9424,375.1866],
    [15838,1532809666,57.1494,-111.6123,424.9,187.1,265.3,1.1,3.4,27.81,39.66,1.9407,376.0776],
    [15839,1532809667,57.1494,-111.6134,422.4,185.4,265.2,0.8,3.7,27.83,40.04,1.9425,376.3791],
    [15840,1532809668,57.1494,-111.6144,418.7,181.7,265.1,1.6,3.7,27.58,40.04,1.9409,376.5379],
    [15841,1532809669,57.1494,-111.6154,415.1,178.1,264.3,0.8,4.3,28.22,39.27,1.9388,375.7794],
    [15842,1532809670,57.1494,-111.6165,411.3,174.3,264.6,-0.4,3.7,27.22,39.76,1.9382,376.8354],
    [15843,1532809671,57.1494,-111.6175,408.1,172.0,265.2,-0.4,3.3,28.09,39.98,1.9396,377.2935],
    [15844,1532809672,57.1493,-111.6186,405.9,169.9,265.3,-1.0,3.6,28.11,38.86,1.9413,376.0107],
    [15845,1532809673,57.1493,-111.6197,405.5,170.4,266.3,-0.1,3.9,27.79,38.98,1.9444,376.6721],
    [15846,1532809674,57.1493,-111.6207,405.9,171.9,267.6,0.8,3.9,28.34,38.42,1.9465,377.5902],
    [15847,1532809675,57.1494,-111.6217,406.5,172.5,269.4,0.2,3.2,27.83,39.58,1.9465,376.4883],
    [15848,1532809676,57.1494,-111.6228,406.8,172.8,270.8,0.8,2.8,27.6,39.81,1.9451,375.8067],
    [15849,1532809677,57.1494,-111.6239,407.8,173.8,270.8,1.2,3.4,27.7,39.19,1.9447,376.4622],
    [15850,1532809678,57.1495,-111.6249,410.4,174.3,271.1,1.1,3.5,27.9,39.07,1.9441,377.303],
    [15851,1532809679,57.1495,-111.6259,414.0,174.4,271.3,1.1,3.3,27.61,39.39,1.9445,376.3587],
    [15852,1532809680,57.1495,-111.627,418.3,176.3,272.2,1.7,2.4,27.31,38.98,1.9441,376.3217],
    [15853,1532809681,57.1496,-111.628,422.5,178.5,271.9,1.7,2.6,27.74,39.84,1.9434,375.8209],
    [15854,1532809682,57.1496,-111.629,426.2,182.5,271.3,2.2,2.7,27.79,39.29,1.9436,375.5666],
    [15855,1532809683,57.1497,-111.6299,429.5,186.5,270.7,2.6,2.9,27.84,39.3,1.9446,376.4248],
    [15856,1532809684,57.1497,-111.6309,432.8,189.8,269.3,3.1,3.7,27.87,39.36,1.9425,376.0297],
    [15857,1532809685,57.1497,-111.6319,436.0,193.0,269.0,3.6,3.3,28.07,38.8,1.9446,376.6283],
    [15858,1532809686,57.1497,-111.6329,438.9,194.9,268.0,3.9,3.6,27.38,39.65,1.9458,376.2557],
    [15859,1532809687,57.1497,-111.6339,441.5,191.5,266.7,3.6,4.6,27.5,39.5,1.9462,376.1314],
    [15860,1532809688,57.1497,-111.6349,443.2,189.3,265.3,2.7,5.7,27.99,39.18,1.9458,375.8408],
    [15861,1532809689,57.1498,-111.6359,444.7,186.1,265.8,2.9,5.3,28.12,39.57,1.9423,375.9138],
    [15862,1532809690,57.1498,-111.6368,446.5,185.6,266.1,2.6,4.8,27.8,39.5,1.9396,375.432],
    [15863,1532809691,57.1498,-111.6378,448.2,185.2,267.3,1.6,3.5,27.84,40.15,1.9435,376.4959],
    [15864,1532809692,57.1498,-111.6388,449.4,185.5,267.5,1.3,3.1,28.48,38.78,1.9458,376.4769],
    [15865,1532809693,57.1498,-111.6398,450.6,184.5,266.4,1.6,4.0,27.76,40.03,1.9459,376.1994],
    [15866,1532809694,57.1498,-111.6408,451.1,184.0,266.7,1.3,3.4,27.53,39.67,1.9435,374.8193],
    [15867,1532809695,57.1498,-111.6417,451.4,183.4,267.0,0.9,3.1,27.87,40.11,1.9446,375.1973],
    [15868,1532809696,57.1498,-111.6428,452.5,184.5,266.0,0.2,3.2,27.77,40.43,1.9443,375.1973],
    [15869,1532809697,57.1498,-111.6438,453.0,185.0,266.9,-0.7,1.4,27.53,39.85,1.9474,376.3081],
    [15870,1532809698,57.1497,-111.6448,453.0,184.0,265.4,-1.6,2.4,28.3,39.41,1.9479,377.1763],
    [15871,1532809699,57.1497,-111.6458,451.5,181.5,265.9,-2.0,1.6,27.88,39.57,1.9486,377.1763],
    [15872,1532809700,57.1497,-111.6468,449.3,177.6,266.9,-2.7,1.4,27.45,39.76,1.9501,375.2167],
    [15873,1532809701,57.1497,-111.6478,448.1,174.1,265.6,-2.1,3.3,27.46,39.64,1.9508,375.8841],
    [15874,1532809702,57.1497,-111.6489,446.6,170.6,267.7,-2.6,1.8,27.78,39.74,1.9527,376.404],
    [15875,1532809703,57.1497,-111.6499,445.1,165.8,268.0,-2.8,2.3,28.13,40.01,1.953,376.3043],
    [15876,1532809704,57.1497,-111.651,445.0,163.1,266.9,-3.4,3.5,28.39,39.38,1.9523,377.1818],
    [15877,1532809705,57.1497,-111.652,444.8,159.8,268.1,-3.1,2.3,27.73,39.87,1.9537,376.4191],
    [15878,1532809706,57.1497,-111.653,444.7,156.7,268.2,-3.1,2.1,27.54,40.69,1.953,377.7559],
    [15879,1532809707,57.1497,-111.6541,444.6,154.3,268.1,-2.9,2.1,27.68,40.6,1.953,375.7099],
    [15880,1532809708,57.1497,-111.6551,444.6,152.6,268.6,-3.0,1.5,27.66,40.65,1.9517,376.1992],
    [15881,1532809709,57.1497,-111.6562,445.7,152.7,268.1,-3.3,1.8,27.17,40.37,1.9498,376.7877],
    [15882,1532809710,57.1497,-111.6572,447.8,153.8,268.5,-3.1,1.1,27.85,40.79,1.9484,374.9215],
    [15883,1532809711,57.1497,-111.6582,450.1,153.8,269.1,-2.1,1.0,28.33,39.64,1.9476,374.9215],
    [15884,1532809712,57.1497,-111.6592,452.3,154.3,268.2,-1.7,2.2,27.63,40.65,1.9435,375.435],
    [15885,1532809713,57.1497,-111.6603,454.1,155.8,269.0,-0.6,1.4,27.61,40.4,1.9291,375.738],
    [15886,1532809714,57.1497,-111.6613,455.7,157.7,269.1,0.4,1.5,27.57,40.21,1.9295,374.8955],
    [15887,1532809715,57.1497,-111.6623,456.9,158.9,267.9,1.1,2.2,27.98,39.64,1.9307,375.2905],
    [15888,1532809716,57.1497,-111.6633,457.4,159.4,268.9,0.7,1.0,27.54,39.65,1.9336,376.8143],
    [15889,1532809717,57.1497,-111.6643,457.8,158.9,268.4,-0.2,1.5,27.41,39.15,1.9416,376.2766],
    [15890,1532809718,57.1497,-111.6653,458.5,157.5,267.2,-1.0,2.2,27.61,40.07,1.9424,376.0495],
    [15891,1532809719,57.1497,-111.6663,460.4,158.4,267.8,-0.4,1.4,27.67,39.64,1.9428,375.2222],
    [15892,1532809720,57.1497,-111.6673,462.7,157.7,267.8,0.4,1.6,27.75,40.17,1.9369,374.8991],
    [15893,1532809721,57.1497,-111.6683,464.9,157.8,267.3,1.5,1.8,27.25,39.88,1.9374,375.5281],
    [15894,1532809722,57.1496,-111.6693,466.8,157.9,267.4,1.8,1.8,27.32,40.08,1.9372,375.7025],
    [15895,1532809723,57.1496,-111.6703,468.9,157.9,266.7,2.1,2.3,27.61,40.68,1.9385,376.2208],
    [15896,1532809724,57.1496,-111.6713,470.6,159.6,267.1,2.2,1.7,27.41,40.14,1.9423,376.2208],
    [15897,1532809725,57.1496,-111.6723,471.1,160.1,266.4,3.2,2.9,27.56,39.74,1.9321,376.2438],
    [15898,1532809726,57.1496,-111.6733,472.2,160.9,265.8,3.8,4.0,27.57,39.46,1.9282,376.0312],
    [15899,1532809727,57.1496,-111.6743,473.7,160.7,268.3,4.0,2.4,27.62,40.06,1.9233,376.4302],
    [15900,1532809728,57.1496,-111.6753,475.1,162.1,270.1,4.0,1.9,27.49,38.62,1.9225,376.4302],
    [15901,1532809729,57.1496,-111.6763,476.6,162.6,272.0,4.4,1.2,27.35,38.71,1.9225,376.6556],
    [15902,1532809730,57.1497,-111.6772,477.8,163.8,272.3,4.7,1.9,27.85,37.22,1.9218,376.8801],
    [15903,1532809731,57.1497,-111.6782,478.9,163.9,271.3,4.9,3.1,28.17,36.62,1.9201,376.3523],
    [15904,1532809732,57.1498,-111.6792,479.7,164.7,272.7,5.4,1.8,27.58,36.3,1.9196,377.4894],
    [15905,1532809733,57.1498,-111.6802,480.1,165.1,272.5,5.8,2.5,27.31,36.5,1.9212,376.4562],
    [15906,1532809734,57.1499,-111.6812,480.0,165.0,271.8,5.5,2.9,27.54,35.53,1.9193,376.3969],
    [15907,1532809735,57.1499,-111.6822,479.5,164.5,272.0,4.9,2.5,27.79,35.19,1.9212,377.5721],
    [15908,1532809736,57.1499,-111.6832,479.5,163.5,270.6,4.5,3.6,27.74,34.59,1.9229,377.1213],
    [15909,1532809737,57.15,-111.6842,479.8,163.8,270.8,4.7,2.9,27.35,34.8,1.9228,377.1484],
    [15910,1532809738,57.15,-111.6852,480.3,163.5,271.3,4.7,2.0,27.46,35.44,1.9233,377.0618],
    [15911,1532809739,57.15,-111.6861,481.1,164.2,269.7,4.9,3.1,27.3,35.09,1.9235,376.8336],
    [15912,1532809740,57.1501,-111.6871,482.6,164.6,268.7,5.1,3.4,27.86,34.95,1.9205,376.0391],
    [15913,1532809741,57.1501,-111.6881,483.8,164.8,268.2,4.5,3.4,28.1,34.94,1.9218,376.5422],
    [15914,1532809742,57.1501,-111.6891,485.5,166.5,268.0,6.4,3.0,27.71,35.62,1.9214,377.3071],
    [15915,1532809743,57.1501,-111.6901,486.7,167.6,268.1,6.8,2.7,27.3,35.38,1.9184,376.2674],
    [15916,1532809744,57.1501,-111.6911,488.3,168.3,267.4,7.5,3.0,27.42,35.9,1.9181,376.8647],
    [15917,1532809745,57.1501,-111.692,490.0,170.0,267.5,8.2,2.6,28.15,34.72,1.918,375.8486],
    [15918,1532809746,57.1501,-111.693,491.7,171.7,267.1,7.8,2.4,27.56,35.2,1.9175,375.8441],
    [15919,1532809747,57.1501,-111.694,493.8,173.8,268.1,7.0,1.0,27.21,34.45,1.9176,375.647],
    [15920,1532809748,57.1501,-111.695,496.1,175.1,267.4,7.0,1.9,27.73,34.29,1.9183,376.1278],
    [15921,1532809749,57.1501,-111.6959,499.2,178.2,267.1,6.6,2.1,27.53,34.49,1.9198,377.0543],
    [15922,1532809750,57.15,-111.6969,501.7,180.7,267.9,6.3,1.5,27.34,34.63,1.9181,375.846],
    [15923,1532809751,57.15,-111.6979,503.8,181.8,266.5,6.6,3.6,27.33,34.68,1.9182,375.9139],
    [15924,1532809752,57.15,-111.6988,504.9,182.9,264.9,6.7,5.1,27.64,34.69,1.9175,375.464],
    [15925,1532809753,57.15,-111.6998,505.4,183.4,266.6,5.7,3.4,27.61,35.41,1.9183,375.315],
    [15926,1532809754,57.15,-111.7008,505.8,183.8,267.4,4.8,3.1,27.42,35.5,1.9162,375.0813],
    [15927,1532809755,57.15,-111.7018,505.7,183.7,267.2,4.4,3.3,27.58,35.36,1.9155,376.0846],
    [15928,1532809756,57.15,-111.7029,505.0,183.0,268.4,4.2,2.1,28.2,34.99,1.9156,376.292],
    [15929,1532809757,57.15,-111.7039,503.0,181.0,267.8,4.0,2.8,27.8,35.11,1.9162,375.264],
    [15930,1532809758,57.15,-111.7049,500.9,178.6,265.3,3.4,4.8,27.5,35.18,1.9167,376.133],
    [15931,1532809759,57.15,-111.7059,499.1,176.1,266.4,3.1,2.9,27.46,34.73,1.9164,375.8541],
    [15932,1532809760,57.15,-111.7069,497.1,174.1,267.3,3.2,1.7,27.19,34.51,1.9176,375.4257],
    [15933,1532809761,57.15,-111.7079,496.1,173.1,266.4,3.4,2.4,27.62,34.7,1.9172,373.8423],
    [15934,1532809762,57.15,-111.709,496.2,173.2,266.5,1.7,2.3,27.23,34.96,1.9182,374.1978],
    [15935,1532809763,57.15,-111.71,496.9,172.9,266.5,2.1,2.6,27.69,35.14,1.9173,375.2416],
    [15936,1532809764,57.15,-111.711,497.2,173.2,266.1,1.4,2.9,27.43,35.44,1.9176,374.665],
    [15937,1532809765,57.1499,-111.712,496.7,172.7,266.5,1.9,2.5,27.34,35.56,1.9183,374.0741],
    [15938,1532809766,57.1499,-111.713,495.1,170.8,266.8,2.4,2.3,28.05,35.01,1.9179,374.0892],
    [15939,1532809767,57.1499,-111.714,493.8,168.8,266.4,2.6,3.0,27.97,35.37,1.9175,375.1785],
    [15940,1532809768,57.1499,-111.7151,492.7,167.7,266.4,2.6,2.9,27.84,35.69,1.9178,375.9466],
    [15941,1532809769,57.1499,-111.7161,491.8,166.8,266.6,2.1,2.8,27.7,35.51,1.9162,376.2292],
    [15942,1532809770,57.1499,-111.7171,491.6,165.6,266.6,1.1,2.7,27.32,35.06,1.9177,376.2292],
    [15943,1532809771,57.1499,-111.7181,491.0,165.0,267.2,0.3,2.4,27.71,35.32,1.9175,375.1345],
    [15944,1532809772,57.1499,-111.7192,490.1,164.1,266.7,0.3,3.0,28.21,33.68,1.9174,375.9184],
    [15945,1532809773,57.1499,-111.7203,490.9,164.9,267.2,0.0,2.2,28.12,34.16,1.9193,375.8423],
    [15946,1532809774,57.1499,-111.7214,491.2,165.2,269.8,0.6,0.4,28.17,33.91,1.9199,375.5468],
    [15947,1532809775,57.1499,-111.7225,491.5,164.5,269.6,0.0,1.3,27.64,34.97,1.9193,375.5489],
    [15948,1532809776,57.1499,-111.7235,491.5,164.5,271.2,-0.6,0.0,28.25,33.95,1.9178,374.5204],
    [15949,1532809777,57.1499,-111.7246,491.2,164.2,271.4,0.1,0.2,28.12,34.19,1.9191,375.2769],
    [15950,1532809778,57.1499,-111.7256,490.8,163.8,270.2,-0.2,1.5,27.63,34.86,1.9176,374.1914],
    [15951,1532809779,57.1499,-111.7267,489.9,162.9,270.9,0.3,0.7,28.17,34.72,1.917,373.413],
    [15952,1532809780,57.1499,-111.7277,488.4,161.4,271.6,2.2,0.4,27.44,35.77,1.9109,374.5508],
    [15953,1532809781,57.15,-111.7288,487.1,159.1,270.3,2.9,1.4,28.04,35.74,1.9118,377.352],
    [15954,1532809782,57.15,-111.7298,485.9,157.9,270.4,2.0,1.0,28.28,34.75,1.912,375.96],
    [15955,1532809783,57.15,-111.7309,486.2,158.2,268.8,3.2,2.2,27.47,35.25,1.9122,376.5741],
    [15956,1532809784,57.15,-111.7319,487.3,159.3,268.9,4.5,1.5,27.45,33.76,1.915,377.3118],
    [15957,1532809785,57.15,-111.733,489.1,162.1,267.9,5.1,2.1,27.72,33.7,1.9141,377.3118],
    [15958,1532809786,57.15,-111.734,490.1,163.1,268.5,5.7,0.9,27.75,33.35,1.914,377.0247],
    [15959,1532809787,57.15,-111.735,491.4,164.4,268.6,5.5,0.7,27.56,32.99,1.9143,377.3186],
    [15960,1532809788,57.15,-111.7361,493.2,166.2,268.1,6.3,1.4,27.6,32.84,1.9145,377.4749],
    [15961,1532809789,57.15,-111.7371,494.8,168.8,268.9,6.1,1.1,27.3,32.36,1.9133,378.4807],
    [15962,1532809790,57.15,-111.7381,495.2,169.2,269.2,6.3,1.3,27.56,32.47,1.9133,378.4807],
    [15963,1532809791,57.15,-111.7391,494.9,168.9,269.9,5.7,1.0,27.95,31.91,1.9152,378.3648],
    [15964,1532809792,57.15,-111.7401,494.3,168.3,270.4,5.7,0.8,27.75,32.32,1.9158,378.9504],
    [15965,1532809793,57.15,-111.7412,494.8,169.9,270.4,5.9,1.2,27.53,32.28,1.9145,377.6031],
    [15966,1532809794,57.15,-111.7422,496.0,171.0,270.4,5.7,0.8,27.79,32.62,1.9148,378.5216],
    [15967,1532809795,57.15,-111.7432,497.8,172.8,270.4,5.3,0.3,28.45,31.57,1.9154,376.5264],
    [15968,1532809796,57.15,-111.7443,498.8,173.0,269.8,4.7,0.3,28.19,31.78,1.9151,377.6288],
    [15969,1532809797,57.15,-111.7453,499.8,173.8,269.5,4.4,0.2,27.74,31.99,1.9148,378.2442],
    [15970,1532809798,57.15,-111.7463,501.5,175.5,268.8,4.0,1.0,28.05,31.95,1.9162,376.975],
    [15971,1532809799,57.15,-111.7474,502.8,176.8,268.3,5.6,1.4,28.62,31.65,1.915,376.7325],
    [15972,1532809800,57.15,-111.7484,503.5,178.1,268.8,3.8,0.7,28.09,31.45,1.9154,378.4668],
    [15973,1532809801,57.15,-111.7494,504.8,179.7,268.7,4.5,0.9,27.75,32.13,1.9184,377.0007],
    [15974,1532809802,57.15,-111.7505,505.8,182.1,267.8,4.9,1.9,28.37,31.68,1.9176,376.9019],
    [15975,1532809803,57.15,-111.7515,506.4,185.0,268.0,6.0,1.4,27.42,32.08,1.9157,376.9019],
    [15976,1532809804,57.15,-111.7525,507.0,190.4,267.8,4.8,1.5,28.02,32.56,1.9155,378.0658],
    [15977,1532809805,57.15,-111.7536,507.1,195.6,266.9,4.8,2.2,27.52,32.28,1.9157,377.226],
    [15978,1532809806,57.15,-111.7546,506.8,202.1,267.3,4.6,1.7,27.53,32.33,1.914,376.9002],
    [15979,1532809807,57.1499,-111.7556,505.7,207.3,267.5,3.2,1.8,27.88,32.69,1.9141,376.5249],
    [15980,1532809808,57.1499,-111.7566,504.5,208.0,267.4,3.7,2.5,27.83,32.01,1.9132,377.7473],
    [15981,1532809809,57.1499,-111.7576,503.7,210.3,267.8,3.9,2.4,27.92,32.43,1.9136,377.985],
    [15982,1532809810,57.1499,-111.7587,503.2,213.7,269.4,3.0,0.7,27.81,32.37,1.9128,378.1806],
    [15983,1532809811,57.1499,-111.7597,502.6,215.4,270.6,3.0,-0.3,27.89,31.88,1.9137,377.5515],
    [15984,1532809812,57.1499,-111.7608,501.6,214.9,269.4,1.6,0.9,27.79,31.82,1.9147,379.4414],
    [15985,1532809813,57.1499,-111.7618,500.6,209.6,269.3,1.0,0.8,28.32,30.66,1.9138,379.4414],
    [15986,1532809814,57.1499,-111.7629,498.8,209.3,270.5,1.8,-0.4,28.19,30.85,1.9149,378.0313],
    [15987,1532809815,57.1499,-111.764,497.2,212.8,269.9,2.1,0.0,27.93,31.32,1.9139,378.2062],
    [15988,1532809816,57.1499,-111.7651,495.6,215.8,269.6,0.8,0.2,27.84,31.28,1.9137,379.1902],
    [15989,1532809817,57.1499,-111.7661,493.4,212.7,269.7,1.5,-0.1,27.7,30.91,1.9143,378.7023],
    [15990,1532809818,57.1499,-111.7672,490.9,209.3,270.2,0.0,-0.5,27.82,31.11,1.9151,378.2399],
    [15991,1532809819,57.1499,-111.7683,489.0,205.0,269.9,-0.6,0.1,27.91,30.92,1.9151,378.0078],
    [15992,1532809820,57.1499,-111.7694,488.1,202.2,269.2,-0.3,0.7,27.26,31.13,1.9154,377.9835],
    [15993,1532809821,57.1499,-111.7705,487.8,199.9,269.1,1.5,0.9,28.57,30.56,1.915,378.7873],
    [15994,1532809822,57.1499,-111.7716,488.2,197.9,269.1,1.6,1.4,27.93,31.09,1.9138,377.6652],
    [15995,1532809823,57.1499,-111.7726,488.8,197.3,269.6,2.1,1.5,27.96,30.92,1.9128,378.0914],
    [15996,1532809824,57.15,-111.7737,489.5,197.9,270.9,1.1,1.0,28.54,30.31,1.9123,377.7211],
    [15997,1532809825,57.15,-111.7748,489.5,197.8,271.5,1.3,0.9,28.03,31.41,1.9122,378.1563],
    [15998,1532809826,57.15,-111.7759,489.3,197.0,271.9,0.3,1.0,28.14,30.57,1.9128,377.8244],
    [15999,1532809827,57.15,-111.7769,489.4,196.4,271.4,-0.3,1.9,28.27,30.46,1.914,377.8244],
    [16000,1532809828,57.1501,-111.778,489.8,194.2,271.2,-0.1,2.0,28.12,30.2,1.9143,378.6585],
    [16001,1532809829,57.1501,-111.7791,490.5,189.3,270.9,-0.1,2.4,28.32,29.73,1.9133,378.6585],
    [16002,1532809830,57.1501,-111.7802,491.4,183.0,269.2,0.4,3.6,28.57,29.44,1.9118,379.1023],
    [16003,1532809831,57.1501,-111.7813,491.9,176.2,268.6,0.3,3.5,28.06,30.24,1.912,378.7853],
    [16004,1532809832,57.1502,-111.7823,491.8,170.1,269.0,1.8,3.1,27.92,30.89,1.9127,378.9245],
    [16005,1532809833,57.1502,-111.7834,491.6,165.8,268.8,1.6,3.4,28.54,29.66,1.9133,378.767],
    [16006,1532809834,57.1502,-111.7845,491.8,164.8,269.7,1.4,2.7,28.33,29.65,1.9139,379.7163],
    [16007,1532809835,57.1502,-111.7855,492.5,165.5,270.2,1.7,2.2,27.66,29.93,1.9145,378.4919],
    [16008,1532809836,57.1502,-111.7866,492.8,165.5,271.1,2.0,1.5,28.12,30.12,1.9138,379.0703],
    [16009,1532809837,57.1503,-111.7877,493.7,165.7,270.3,1.3,2.4,28.05,29.82,1.9165,379.5687],
    [16010,1532809838,57.1503,-111.7887,495.2,166.2,270.4,1.8,1.7,28.41,29.42,1.9165,380.1445],
    [16011,1532809839,57.1503,-111.7898,497.4,168.4,270.8,1.5,0.6,28.08,29.55,1.9159,379.8129],
    [16012,1532809840,57.1503,-111.7909,499.4,169.4,269.2,1.8,1.8,27.97,29.84,1.9162,379.8129],
    [16013,1532809841,57.1503,-111.7919,501.7,171.7,267.9,2.2,2.6,28.76,29.47,1.9153,378.0483],
    [16014,1532809842,57.1503,-111.793,503.0,173.0,269.3,2.5,0.7,27.86,30.41,1.9154,379.7384],
    [16015,1532809843,57.1503,-111.794,503.2,173.2,269.9,3.0,0.1,28.31,29.46,1.9157,379.2793],
    [16016,1532809844,57.1503,-111.7951,503.5,172.5,269.0,3.6,1.3,28.14,30.3,1.9158,379.2793],
    [16017,1532809845,57.1503,-111.7961,503.5,172.5,267.6,1.5,2.4,27.96,29.61,1.9144,379.6982],
    [16018,1532809846,57.1503,-111.7972,503.6,172.6,267.1,1.0,2.6,27.92,29.57,1.9144,379.5563],
    [16019,1532809847,57.1503,-111.7982,503.2,172.2,268.0,0.9,1.2,28.56,29.21,1.9149,379.309],
    [16020,1532809848,57.1503,-111.7993,501.8,170.8,270.2,1.7,-1.2,27.74,29.56,1.9129,379.1633],
    [16021,1532809849,57.1503,-111.8004,499.9,168.9,269.8,0.9,-0.6,28.11,29.5,1.9121,379.6419],
    [16022,1532809850,57.1503,-111.8014,498.5,167.5,268.8,3.8,0.3,28.7,29.14,1.912,379.8126],
    [16023,1532809851,57.1503,-111.8025,498.2,167.2,269.2,1.5,0.1,27.9,30.3,1.912,378.0999],
    [16024,1532809852,57.1503,-111.8036,499.4,167.4,269.0,0.6,0.8,28.02,29.82,1.9138,377.8171],
    [16025,1532809853,57.1503,-111.8046,501.3,169.3,269.7,0.7,-1.0,28.19,29.36,1.9143,377.7229],
    [16026,1532809854,57.1502,-111.8057,503.5,171.5,269.3,1.2,-2.4,28.1,29.26,1.9137,378.8657],
    [16027,1532809855,57.1502,-111.8067,505.7,173.7,262.0,3.2,2.1,27.97,29.27,1.9133,378.8301],
    [16028,1532809856,57.1501,-111.8078,508.1,176.1,256.6,1.9,2.4,28.2,30.02,1.9125,379.32],
    [16029,1532809857,57.15,-111.8088,510.1,178.1,253.2,2.7,0.8,27.6,29.48,1.9126,379.32],
    [16030,1532809858,57.1498,-111.8098,511.8,179.8,246.3,3.0,2.9,28.16,30.0,1.9144,378.103],
    [16031,1532809859,57.1495,-111.8107,512.6,180.6,242.1,2.9,2.5,27.93,29.53,1.9169,377.436],
    [16032,1532809860,57.1493,-111.8116,513.6,181.6,238.5,2.8,2.2,27.96,29.78,1.9157,378.6707],
    [16033,1532809861,57.149,-111.8124,515.3,183.3,235.7,2.4,1.8,28.91,29.2,1.9129,377.4021],
    [16034,1532809862,57.1486,-111.8133,516.1,184.1,232.4,1.4,1.7,28.51,30.77,1.9138,377.4021],
    [16035,1532809863,57.1483,-111.814,515.9,183.9,229.4,1.5,1.4,27.88,30.59,1.9132,377.9408],
    [16036,1532809864,57.1479,-111.8148,515.0,182.0,225.5,0.4,1.6,27.74,30.91,1.9139,377.6835],
    [16037,1532809865,57.1475,-111.8155,513.1,180.1,223.0,2.7,1.6,28.87,30.36,1.9174,375.3039],
    [16038,1532809866,57.1471,-111.8162,512.9,178.9,220.0,2.3,0.6,28.87,30.39,1.9206,376.2223],
    [16039,1532809867,57.1467,-111.8168,511.7,177.7,216.1,1.8,1.2,28.39,31.29,1.9194,376.1588],
    [16040,1532809868,57.1462,-111.8174,509.4,175.4,213.2,1.8,0.1,28.19,31.81,1.9195,377.3159],
    [16041,1532809869,57.1457,-111.8179,505.7,171.7,210.6,2.9,0.0,27.57,32.41,1.919,377.3159],
    [16042,1532809870,57.1452,-111.8183,501.4,167.4,205.6,2.0,0.9,28.18,32.69,1.9215,375.8815],
    [16043,1532809871,57.1447,-111.8187,497.5,162.5,200.8,1.5,0.4,28.03,32.76,1.9212,376.5573],
    [16044,1532809872,57.1441,-111.819,493.8,158.8,197.8,1.9,-0.8,27.51,33.01,1.9185,376.4892],
    [16045,1532809873,57.1436,-111.8193,490.5,155.5,194.6,2.6,-1.2,28.24,33.13,1.9181,377.362],
    [16046,1532809874,57.143,-111.8195,488.3,153.3,191.1,2.5,-1.1,28.21,33.34,1.9183,377.7558],
    [16047,1532809875,57.1425,-111.8196,486.8,152.8,188.5,3.0,-1.2,28.73,32.74,1.917,379.3954],
    [16048,1532809876,57.1419,-111.8197,486.0,152.0,186.7,3.2,-1.4,28.23,33.5,1.9174,377.7232],
    [16049,1532809877,57.1413,-111.8198,486.3,152.0,184.8,3.0,-1.2,28.32,32.05,1.9184,378.5319],
    [16050,1532809878,57.1407,-111.8198,486.8,152.6,184.7,3.8,-1.3,29.07,31.3,1.9175,378.3871],
    [16051,1532809879,57.1401,-111.8198,486.6,151.6,184.1,4.7,-1.8,27.98,32.46,1.9165,377.9865],
    [16052,1532809880,57.1395,-111.8198,487.0,152.0,182.4,4.1,-1.9,27.55,32.05,1.919,378.8155],
    [16053,1532809881,57.1389,-111.8197,487.3,152.3,180.4,2.7,-2.1,28.59,30.91,1.92,378.4617],
    [16054,1532809882,57.1383,-111.8197,488.0,153.0,179.6,1.7,-2.1,28.11,31.73,1.9207,378.4617],
    [16055,1532809883,57.1378,-111.8197,488.7,153.7,180.4,2.1,-1.7,27.98,31.89,1.9196,378.8462],
    [16056,1532809884,57.1372,-111.8197,489.1,154.1,183.2,3.6,-2.5,28.53,31.41,1.9179,378.5333],
    [16057,1532809885,57.1366,-111.8197,490.2,155.2,184.0,3.3,-1.2,28.13,32.25,1.9184,377.5323],
    [16058,1532809886,57.136,-111.8197,491.3,156.3,184.1,3.2,-0.5,28.74,31.86,1.9203,378.2447],
    [16059,1532809887,57.1354,-111.8197,491.5,156.5,185.9,4.5,-1.0,28.0,32.35,1.9212,376.4848],
    [16060,1532809888,57.1349,-111.8197,491.3,156.3,185.3,3.5,-1.5,27.96,32.99,1.92,377.1747],
    [16061,1532809889,57.1343,-111.8198,491.3,156.3,184.0,2.5,1.1,28.06,33.09,1.9189,376.6574],
    [16062,1532809890,57.1337,-111.8198,491.7,156.7,183.9,2.9,1.7,28.03,32.87,1.9177,377.5821],
    [16063,1532809891,57.1331,-111.8198,492.4,157.4,183.2,2.9,1.9,27.84,32.99,1.9172,376.9732],
    [16064,1532809892,57.1326,-111.8198,493.9,158.9,182.5,3.2,2.0,28.61,32.64,1.9169,378.0342],
    [16065,1532809893,57.132,-111.8198,495.9,160.9,182.1,3.4,1.0,27.5,32.93,1.9174,378.2658],
    [16066,1532809894,57.1315,-111.8198,497.7,162.7,181.2,2.7,0.6,28.13,32.66,1.9172,378.5855],
    [16067,1532809895,57.1309,-111.8198,499.9,164.9,180.3,2.0,0.6,28.08,33.16,1.9196,376.5797],
    [16068,1532809896,57.1303,-111.8197,501.8,166.8,180.3,2.0,1.5,28.18,32.39,1.9199,377.0707],
    [16069,1532809897,57.1298,-111.8197,502.4,167.4,181.3,3.2,1.8,28.18,33.08,1.919,377.9924],
    [16070,1532809898,57.1292,-111.8197,502.4,167.4,182.2,3.3,1.6,28.16,33.04,1.9189,376.6901],
    [16071,1532809899,57.1286,-111.8197,502.0,167.0,181.2,1.3,1.6,28.64,32.79,1.9191,377.3495],
    [16072,1532809900,57.128,-111.8197,502.5,167.5,181.7,1.2,2.0,28.24,33.55,1.9197,376.632],
    [16073,1532809901,57.1275,-111.8197,504.0,169.0,182.6,1.4,2.7,28.76,32.91,1.9184,376.4281],
    [16074,1532809902,57.127,-111.8197,505.6,170.6,182.9,1.6,2.3,27.56,33.63,1.919,376.0517],
    [16075,1532809903,57.1264,-111.8198,506.9,171.9,183.7,2.8,2.6,27.74,33.7,1.9186,375.6943],
    [16076,1532809904,57.1258,-111.8198,507.0,172.0,183.5,2.9,2.8,28.22,33.49,1.919,375.6943],
    [16077,1532809905,57.1253,-111.8198,506.4,172.1,183.2,3.0,1.4,27.99,34.08,1.9188,377.2753],
    [16078,1532809906,57.1247,-111.8198,504.7,170.7,183.6,3.5,1.7,27.92,34.77,1.9178,376.5893],
    [16079,1532809907,57.1242,-111.8198,502.9,168.9,183.6,3.5,1.3,27.88,34.08,1.9203,377.0373],
    [16080,1532809908,57.1236,-111.8198,500.6,166.6,183.9,4.1,1.1,28.24,33.77,1.9206,376.8201],
    [16081,1532809909,57.1231,-111.8198,498.0,164.0,183.7,4.0,1.6,28.56,33.58,1.921,375.8683],
    [16082,1532809910,57.1225,-111.8198,495.7,160.7,182.4,3.1,0.8,28.01,33.76,1.922,376.3588],
    [16083,1532809911,57.1219,-111.8198,494.2,159.2,182.4,3.4,0.5,27.34,34.64,1.9228,375.5327],
    [16084,1532809912,57.1214,-111.8198,493.4,158.4,182.3,3.3,0.1,27.98,34.94,1.9224,374.1614],
    [16085,1532809913,57.1208,-111.8198,492.9,157.9,182.2,3.1,-1.0,27.57,35.55,1.9223,375.9741],
    [16086,1532809914,57.1202,-111.8198,492.6,157.6,182.1,3.1,-0.1,27.29,35.24,1.9221,375.9741],
    [16087,1532809915,57.1197,-111.8198,492.4,158.4,182.3,3.4,0.4,27.41,35.57,1.9194,376.5792],
    [16088,1532809916,57.1191,-111.8197,491.9,158.4,182.2,3.3,1.2,28.17,35.26,1.9188,376.7544],
    [16089,1532809917,57.1186,-111.8197,491.8,158.8,181.0,2.0,2.2,27.6,35.06,1.9193,376.3951],
    [16090,1532809918,57.118,-111.8197,492.3,160.3,181.0,2.0,2.4,27.96,35.59,1.9188,376.3161],
    [16091,1532809919,57.1174,-111.8197,493.3,161.3,180.6,1.5,1.7,28.18,35.22,1.9187,376.3161],
    [16092,1532809920,57.1169,-111.8197,494.8,162.8,180.9,1.8,1.6,27.99,35.53,1.9176,376.9115],
    [16093,1532809921,57.1164,-111.8197,496.5,164.5,181.1,1.6,1.3,27.67,34.71,1.9194,376.1269],
    [16094,1532809922,57.1158,-111.8197,498.2,166.2,181.2,1.2,1.0,27.7,34.81,1.9256,376.9849],
    [16095,1532809923,57.1153,-111.8197,500.2,168.2,181.7,1.3,1.9,28.21,34.7,1.9264,376.6396],
    [16096,1532809924,57.1147,-111.8197,502.7,170.7,182.7,2.2,1.9,28.45,34.98,1.9239,376.6396],
    [16097,1532809925,57.1142,-111.8197,504.0,172.0,183.7,3.2,2.0,27.91,35.43,1.9214,376.568],
    [16098,1532809926,57.1136,-111.8197,504.3,171.2,183.1,2.5,2.2,27.2,35.89,1.9249,376.2878],
    [16099,1532809927,57.1131,-111.8197,504.2,171.2,182.3,1.7,2.5,27.53,36.37,1.9316,375.5268],
    [16100,1532809928,57.1125,-111.8198,504.2,171.2,182.9,1.8,2.7,27.49,36.73,1.9297,374.8553],
    [16101,1532809929,57.1119,-111.8198,504.0,171.0,182.5,1.4,2.5,27.64,36.5,1.9244,375.4185],
    [16102,1532809930,57.1114,-111.8198,503.9,170.9,182.6,1.8,2.1,27.93,37.31,1.9254,375.4185],
    [16103,1532809931,57.1108,-111.8198,503.3,170.3,182.6,2.2,3.2,27.83,37.19,1.9246,374.7384],
    [16104,1532809932,57.1103,-111.8198,502.8,169.2,182.8,2.4,3.0,27.8,37.53,1.9278,375.9267],
    [16105,1532809933,57.1097,-111.8198,502.7,168.7,182.4,2.2,3.9,27.89,37.38,1.9291,375.9267],
    [16106,1532809934,57.1092,-111.8198,503.1,169.1,182.7,2.6,5.6,27.44,37.36,1.9332,374.0133],
    [16107,1532809935,57.1086,-111.8199,503.8,169.8,182.3,2.2,5.0,27.45,37.66,1.9295,374.4579],
    [16108,1532809936,57.108,-111.8199,504.8,170.8,181.4,1.7,5.7,27.52,38.1,1.9311,374.7134],
    [16109,1532809937,57.1075,-111.8199,506.7,172.7,181.1,1.8,6.2,28.21,38.37,1.9298,373.9326],
    [16110,1532809938,57.1069,-111.8198,509.2,174.6,181.6,2.6,5.6,28.54,38.15,1.9299,375.2946],
    [16111,1532809939,57.1064,-111.8198,510.6,175.6,181.8,2.8,6.2,28.42,37.93,1.9278,373.7338],
    [16112,1532809940,57.1058,-111.8198,511.5,176.5,182.0,3.3,6.2,28.11,38.49,1.9269,375.469],
    [16113,1532809941,57.1053,-111.8198,512.2,177.2,181.6,3.2,7.1,27.82,38.92,1.9261,375.3577],
    [16114,1532809942,57.1047,-111.8198,513.0,178.0,181.4,3.5,8.4,27.58,38.69,1.9258,375.6173],
    [16115,1532809943,57.1042,-111.8198,514.2,179.2,180.7,2.3,7.8,27.91,38.57,1.9271,375.6889],
    [16116,1532809944,57.1036,-111.8197,515.9,180.9,179.6,0.9,8.1,27.69,37.65,1.9284,375.2843],
    [16117,1532809945,57.1031,-111.8197,517.1,181.4,181.4,2.7,7.7,28.13,37.3,1.9266,374.8911],
    [16118,1532809946,57.1025,-111.8197,517.4,181.4,181.8,2.7,7.6,27.21,37.79,1.9255,374.8347],
    [16119,1532809947,57.102,-111.8197,516.8,180.8,180.5,1.6,6.9,27.42,37.7,1.9258,375.4815],
    [16120,1532809948,57.1014,-111.8197,515.5,179.5,179.6,1.0,6.2,27.77,37.49,1.9275,374.5356],
    [16121,1532809949,57.1008,-111.8196,513.8,177.8,179.1,1.3,5.5,28.21,37.11,1.9273,375.6751],
    [16122,1532809950,57.1003,-111.8196,512.0,175.0,179.6,2.6,5.3,28.57,36.63,1.929,375.6751],
    [16123,1532809951,57.0997,-111.8195,510.3,173.3,178.5,2.0,4.8,28.08,36.8,1.9265,375.6769],
    [16124,1532809952,57.0991,-111.8195,509.9,172.9,177.3,1.5,4.1,27.57,37.47,1.9269,376.8689],
    [16125,1532809953,57.0986,-111.8194,509.7,172.7,177.6,2.1,3.9,27.88,36.38,1.9257,376.8131],
    [16126,1532809954,57.098,-111.8193,508.6,171.6,177.6,1.7,3.4,27.45,36.62,1.9267,376.7443],
    [16127,1532809955,57.0975,-111.8192,507.5,170.5,176.7,0.7,2.5,27.54,35.95,1.9273,376.6401],
    [16128,1532809956,57.0969,-111.8192,505.8,168.8,178.3,2.0,1.9,27.88,36.32,1.9257,376.3097],
    [16129,1532809957,57.0963,-111.8191,503.9,165.9,179.4,2.2,1.8,27.96,35.56,1.9254,376.6084],
    [16130,1532809958,57.0957,-111.8191,502.5,164.5,179.8,2.0,1.9,27.46,35.49,1.9255,376.1812],
    [16131,1532809959,57.0951,-111.819,502.0,163.9,181.4,2.9,1.4,28.09,34.96,1.9272,377.3698],
    [16132,1532809960,57.0946,-111.819,502.1,163.1,181.6,2.2,0.5,27.68,36.01,1.9283,377.3909],
    [16133,1532809961,57.094,-111.819,502.3,163.3,180.9,1.5,1.0,27.9,36.01,1.9282,377.9488],
    [16134,1532809962,57.0934,-111.819,502.1,162.1,181.9,2.4,1.4,27.98,35.17,1.9257,377.4516],
    [16135,1532809963,57.0928,-111.819,501.9,161.9,181.3,1.2,-0.3,27.71,35.34,1.9271,377.1235],
    [16136,1532809964,57.0922,-111.819,501.6,160.6,180.3,0.5,0.5,27.74,35.68,1.9276,377.103],
    [16137,1532809965,57.0917,-111.819,500.6,159.6,181.9,2.4,-0.3,27.72,35.7,1.9266,376.4322],
    [16138,1532809966,57.0911,-111.819,500.0,159.3,180.4,0.4,-0.3,28.1,36.13,1.9263,376.2206],
    [16139,1532809967,57.0905,-111.819,500.1,160.1,179.5,0.2,-1.0,27.82,36.37,1.9262,376.4632],
    [16140,1532809968,57.0899,-111.819,499.5,159.5,182.0,2.6,-2.4,27.92,36.59,1.9259,375.629],
    [16141,1532809969,57.0893,-111.819,498.8,158.8,180.3,0.7,-1.7,27.8,36.5,1.9254,376.7225],
    [16142,1532809970,57.0887,-111.819,498.5,158.5,180.8,1.5,-0.1,27.61,36.44,1.9261,377.2743],
    [16143,1532809971,57.0881,-111.819,498.4,158.4,181.4,1.8,-0.8,27.31,36.38,1.9254,377.1472],
    [16144,1532809972,57.0875,-111.819,498.1,158.1,180.1,1.0,-1.0,28.23,35.78,1.9259,376.769],
    [16145,1532809973,57.0869,-111.8189,497.8,157.8,180.6,1.7,-1.2,27.7,36.26,1.928,375.2431],
    [16146,1532809974,57.0863,-111.8189,497.2,157.2,178.9,0.1,-2.7,27.75,36.24,1.9287,375.2431],
    [16147,1532809975,57.0857,-111.8189,496.3,155.5,180.4,1.6,-1.3,27.86,36.21,1.9281,376.557],
    [16148,1532809976,57.0851,-111.8189,495.6,154.6,181.5,2.0,-0.7,28.23,35.26,1.9255,377.2671],
    [16149,1532809977,57.0845,-111.8189,496.6,155.6,180.2,0.5,-2.1,28.02,36.6,1.9257,376.8403],
    [16150,1532809978,57.0839,-111.8189,497.5,156.5,180.1,0.5,-1.1,27.86,36.0,1.927,376.5273],
    [16151,1532809979,57.0833,-111.8189,497.8,156.8,179.8,0.3,-0.5,27.58,36.31,1.9267,376.3318],
    [16152,1532809980,57.0828,-111.8189,497.7,156.4,180.9,1.0,-2.7,28.6,35.4,1.9268,376.888],
    [16153,1532809981,57.0822,-111.8189,497.2,155.2,181.9,1.3,-1.4,27.91,36.01,1.9269,375.4746],
    [16154,1532809982,57.0816,-111.8189,497.2,155.2,182.3,1.2,-0.9,27.86,36.23,1.9291,373.8148],
    [16155,1532809983,57.081,-111.8189,497.0,155.0,182.4,1.1,0.1,27.6,36.55,1.928,375.0587],
    [16156,1532809984,57.0804,-111.819,497.1,155.1,182.6,1.1,1.2,27.64,37.42,1.9267,375.3828],
    [16157,1532809985,57.0798,-111.819,498.0,155.8,183.6,2.2,1.7,28.05,36.32,1.9269,375.9038],
    [16158,1532809986,57.0792,-111.819,498.9,155.9,184.0,2.4,1.7,27.24,36.57,1.9285,375.233],
    [16159,1532809987,57.0787,-111.8191,500.2,157.2,183.8,2.2,1.5,28.3,35.85,1.9294,375.1783],
    [16160,1532809988,57.0781,-111.8191,501.7,158.7,184.3,2.8,1.4,28.28,36.49,1.9307,374.4818],
    [16161,1532809989,57.0775,-111.8191,503.1,160.1,183.2,1.8,2.5,27.89,36.97,1.9295,374.6122],
    [16162,1532809990,57.0769,-111.8192,504.2,161.2,181.9,1.0,3.5,27.91,38.06,1.9244,376.9057],
    [16163,1532809991,57.0764,-111.8192,505.2,161.2,181.5,1.0,3.9,27.6,37.15,1.9225,376.4239],
    [16164,1532809992,57.0758,-111.8192,505.9,161.9,181.2,1.1,3.6,27.9,37.07,1.9227,375.6466],
    [16165,1532809993,57.0753,-111.8192,506.2,162.2,181.6,1.5,3.4,27.73,36.63,1.923,375.8597],
    [16166,1532809994,57.0747,-111.8192,506.2,162.2,181.0,0.9,3.2,27.61,35.46,1.9295,376.6435],
    [16167,1532809995,57.0741,-111.8192,505.6,161.6,180.9,1.1,3.2,27.98,35.76,1.923,375.7539],
    [16168,1532809996,57.0736,-111.8192,504.5,160.5,181.3,1.1,3.3,27.91,35.47,1.9203,376.5132],
    [16169,1532809997,57.073,-111.8192,503.7,158.7,180.7,0.3,3.3,27.81,35.21,1.9207,378.6367],
    [16170,1532809998,57.0724,-111.8192,503.8,158.8,180.8,0.3,3.5,27.84,35.16,1.9204,376.8568],
    [16171,1532809999,57.0719,-111.8192,506.2,161.2,180.2,-0.2,3.8,27.86,34.67,1.9208,377.6597],
    [16172,1532810000,57.0713,-111.8192,508.6,163.6,180.2,-0.1,3.8,28.47,33.72,1.92,377.8581],
    [16173,1532810001,57.0708,-111.8192,510.8,165.4,180.9,0.3,3.5,28.07,33.33,1.9199,377.7331],
    [16174,1532810002,57.0702,-111.8192,512.3,166.3,180.6,-0.3,3.1,27.63,33.44,1.923,377.5684],
    [16175,1532810003,57.0696,-111.8193,514.3,168.3,179.7,-1.0,3.3,27.65,33.36,1.9264,377.4525],
    [16176,1532810004,57.0691,-111.8193,515.2,169.2,180.4,0.2,4.0,28.0,33.21,1.9267,378.0988],
    [16177,1532810005,57.0685,-111.8193,515.8,169.6,180.6,0.5,3.6,27.2,33.62,1.9201,378.6439],
    [16178,1532810006,57.0679,-111.8193,516.1,169.1,180.5,0.6,3.3,27.76,34.09,1.9204,377.8022],
    [16179,1532810007,57.0674,-111.8193,516.8,169.8,180.6,0.7,2.6,27.62,33.92,1.9221,377.5594],
    [16180,1532810008,57.0668,-111.8193,517.7,170.5,180.0,0.1,2.6,27.89,34.17,1.9217,378.3864],
    [16181,1532810009,57.0663,-111.8193,517.4,169.4,180.4,0.8,3.0,28.01,33.95,1.9221,377.5488],
    [16182,1532810010,57.0657,-111.8193,518.6,170.6,180.9,1.9,2.8,27.61,33.7,1.9264,377.8013],
    [16183,1532810011,57.0652,-111.8192,519.5,171.5,180.1,1.4,3.9,27.77,33.89,1.9272,377.963],
    [16184,1532810012,57.0646,-111.8192,519.1,171.1,179.1,0.7,4.6,28.33,33.18,1.9208,378.4881],
    [16185,1532810013,57.064,-111.8192,518.7,170.7,179.1,0.1,4.7,28.33,33.21,1.9211,378.7074],
    [16186,1532810014,57.0635,-111.8192,518.5,170.5,179.6,0.3,4.3,27.54,33.47,1.9232,378.7074],
    [16187,1532810015,57.0629,-111.8192,518.1,170.1,181.1,1.4,4.0,27.27,33.13,1.9217,378.7584],
    [16188,1532810016,57.0623,-111.8192,518.0,170.0,181.2,1.1,3.9,27.71,32.89,1.9197,379.5172],
    [16189,1532810017,57.0617,-111.8192,518.0,170.0,180.3,0.3,3.6,27.64,33.51,1.9191,378.3869],
    [16190,1532810018,57.0612,-111.8192,518.0,169.3,181.9,1.6,3.8,27.81,32.49,1.9192,378.3869],
    [16191,1532810019,57.0606,-111.8192,518.6,169.6,181.7,1.1,4.5,27.97,31.98,1.9204,379.6643],
    [16192,1532810020,57.06,-111.8192,519.1,170.1,181.9,1.2,4.4,27.22,32.15,1.9219,379.3035],
    [16193,1532810021,57.0595,-111.8192,519.6,170.6,181.9,1.1,4.0,28.0,31.48,1.9228,379.5138],
    [16194,1532810022,57.0589,-111.8192,520.4,171.4,180.9,0.0,4.0,27.86,31.85,1.9218,379.3554],
    [16195,1532810023,57.0583,-111.8192,520.8,171.0,181.7,0.9,3.9,28.09,31.55,1.922,379.1832],
    [16196,1532810024,57.0578,-111.8193,520.9,170.9,182.9,2.2,4.1,27.93,31.64,1.923,380.4513],
    [16197,1532810025,57.0572,-111.8193,521.3,171.3,182.8,2.3,4.0,28.24,31.07,1.9234,379.7469],
    [16198,1532810026,57.0566,-111.8193,522.2,172.2,182.1,1.8,4.0,27.53,31.94,1.9224,378.9666],
    [16199,1532810027,57.0561,-111.8193,523.7,173.7,181.2,0.9,4.4,27.86,32.59,1.9232,378.9666],
    [16200,1532810028,57.0555,-111.8193,525.2,175.2,180.7,0.3,4.3,28.09,32.07,1.9227,379.3172],
    [16201,1532810029,57.055,-111.8193,526.2,176.2,181.1,1.0,4.0,27.92,32.04,1.9248,379.3172],
    [16202,1532810030,57.0544,-111.8193,526.5,176.5,181.6,1.4,3.7,27.89,32.16,1.9223,379.4132],
    [16203,1532810031,57.0538,-111.8193,526.5,176.5,181.1,1.0,3.5,27.63,33.38,1.9215,380.3959],
    [16204,1532810032,57.0533,-111.8193,526.4,176.4,181.4,1.6,3.6,27.96,32.77,1.9206,379.003],
    [16205,1532810033,57.0527,-111.8193,526.2,176.2,181.1,1.2,3.7,28.1,31.89,1.9197,379.331],
    [16206,1532810034,57.0521,-111.8193,526.5,176.5,181.2,1.5,3.7,28.16,31.55,1.9166,379.0153],
    [16207,1532810035,57.0516,-111.8193,527.3,176.3,181.3,1.4,3.9,27.21,31.43,1.9156,380.236],
    [16208,1532810036,57.051,-111.8193,528.5,177.5,180.6,0.6,4.2,27.89,30.87,1.9174,378.9791],
    [16209,1532810037,57.0504,-111.8193,529.8,178.8,181.1,1.3,3.8,27.53,30.28,1.9177,380.0983],
    [16210,1532810038,57.0499,-111.8193,530.9,179.9,181.3,1.7,2.6,27.28,30.09,1.9221,380.2392],
    [16211,1532810039,57.0493,-111.8193,531.5,180.3,181.1,1.6,1.1,28.47,29.37,1.9206,380.305],
    [16212,1532810040,57.0488,-111.8193,531.9,179.9,181.1,1.8,-0.5,27.45,29.91,1.9184,379.7224],
    [16213,1532810041,57.0482,-111.8193,532.1,180.1,180.9,1.8,-2.4,27.49,30.58,1.9158,380.0222],
    [16214,1532810042,57.0477,-111.8193,531.9,178.9,181.0,2.1,-4.1,27.88,29.34,1.9154,380.1561],
    [16215,1532810043,57.0471,-111.8193,531.7,178.7,180.7,1.8,-5.8,27.29,29.33,1.9156,380.1561],
    [16216,1532810044,57.0466,-111.8193,531.3,178.3,180.3,1.5,-7.1,27.7,28.86,1.9145,381.1184],
    [16217,1532810045,57.046,-111.8192,530.6,177.6,181.3,2.1,-8.9,28.13,28.66,1.9133,380.2406],
    [16218,1532810046,57.0455,-111.8192,529.9,176.9,181.0,1.7,-10.6,27.68,29.16,1.915,380.2406],
    [16219,1532810047,57.0449,-111.8192,529.0,176.2,181.6,2.1,-12.0,27.73,29.32,1.9232,380.0514],
    [16220,1532810048,57.0444,-111.8192,527.9,175.9,182.5,2.5,-13.2,28.15,28.54,1.9239,379.8571],
    [16221,1532810049,57.0438,-111.8192,527.1,175.1,182.1,2.0,-14.3,28.01,29.35,1.9224,380.7711],
    [16222,1532810050,57.0432,-111.8192,526.6,174.6,182.0,2.0,-14.8,27.22,30.45,1.9189,380.2561],
    [16223,1532810051,57.0427,-111.8192,526.3,174.3,181.5,2.0,-14.8,28.22,30.3,1.9164,380.2561],
    [16224,1532810052,57.0421,-111.8192,526.0,174.0,181.8,2.5,-14.9,27.44,31.1,1.9211,380.3136],
    [16225,1532810053,57.0415,-111.8192,526.0,172.3,181.7,2.5,-14.3,27.21,31.07,1.9185,379.2587],
    [16226,1532810054,57.0409,-111.8191,526.8,171.4,181.2,2.3,-14.2,27.45,30.88,1.9174,379.2587],
    [16227,1532810055,57.0404,-111.8191,527.6,171.6,181.1,2.3,-13.2,27.34,30.95,1.9139,380.6737],
    [16228,1532810056,57.0398,-111.8191,528.4,171.4,180.9,2.3,-12.6,27.34,30.99,1.9129,381.9286],
    [16229,1532810057,57.0392,-111.8191,529.3,172.3,181.2,2.6,-12.1,27.23,29.82,1.9144,379.7806],
    [16230,1532810058,57.0387,-111.819,530.2,173.2,181.3,2.3,-11.4,28.15,28.61,1.9166,380.6378],
    [16231,1532810059,57.0381,-111.819,531.2,174.2,182.2,2.2,-10.9,28.07,28.28,1.9166,383.2437],
    [16232,1532810060,57.0375,-111.819,532.3,175.3,183.5,2.4,-9.9,27.23,29.11,1.9169,381.0258],
    [16233,1532810061,57.037,-111.8191,533.5,175.4,184.3,2.4,-9.0,28.0,28.26,1.9158,381.6711],
    [16234,1532810062,57.0364,-111.8191,535.0,177.0,185.1,2.6,-8.4,26.68,28.6,1.9159,382.1058],
    [16235,1532810063,57.0358,-111.8191,536.5,178.5,184.7,2.3,-7.5,27.12,29.33,1.9152,381.1461],
    [16236,1532810064,57.0353,-111.8192,538.1,180.1,183.9,2.1,-6.3,27.62,28.08,1.913,381.1506],
    [16237,1532810065,57.0347,-111.8192,539.5,180.5,183.3,1.9,-5.7,26.73,28.26,1.9135,381.2083],
    [16238,1532810066,57.0342,-111.8192,540.7,181.7,182.6,1.8,-5.4,27.25,28.33,1.9134,382.3271],
    [16239,1532810067,57.0336,-111.8192,541.8,182.8,182.1,1.8,-5.4,26.69,27.73,1.9122,381.7213],
    [16240,1532810068,57.0331,-111.8192,543.2,184.2,182.1,2.0,-4.9,26.95,27.51,1.9178,381.2282],
    [16241,1532810069,57.0325,-111.8192,545.1,186.1,182.1,2.2,-4.8,26.76,27.7,1.9184,382.4424],
    [16242,1532810070,57.032,-111.8192,549.0,190.0,182.2,2.5,-4.7,26.97,28.2,1.92,382.4424],
    [16243,1532810071,57.0314,-111.8192,555.8,197.8,181.7,2.5,-3.7,26.45,28.59,1.9206,382.0855],
    [16244,1532810072,57.0309,-111.8192,565.7,211.9,181.0,2.2,-1.8,27.15,29.27,1.9146,381.6245],
    [16245,1532810073,57.0304,-111.8192,577.0,233.9,180.7,2.0,0.4,26.64,29.47,1.9089,381.8809],
    [16246,1532810074,57.0299,-111.8191,588.4,254.4,180.6,2.1,2.3,26.9,29.53,1.9064,382.2033],
    [16247,1532810075,57.0294,-111.8191,599.1,270.6,180.6,2.2,4.1,27.03,29.36,1.9112,381.5586],
    [16248,1532810076,57.0289,-111.8191,609.8,281.8,179.8,1.6,5.9,27.26,27.76,1.9129,381.4174],
    [16249,1532810077,57.0285,-111.8191,620.0,291.2,179.3,1.3,7.5,27.63,26.48,1.9129,382.5204],
    [16250,1532810078,57.028,-111.819,629.7,298.7,179.3,1.5,9.0,27.18,26.61,1.9129,382.6744],
    [16251,1532810079,57.0276,-111.819,638.6,306.0,178.7,1.1,10.5,26.99,26.53,1.9141,382.4348],
    [16252,1532810080,57.0272,-111.8189,647.2,310.4,178.3,1.1,12.1,26.94,27.18,1.9225,383.1136],
    [16253,1532810081,57.0268,-111.8189,654.7,318.3,178.7,1.7,12.9,26.28,27.29,1.9244,380.0529],
    [16254,1532810082,57.0264,-111.8188,661.0,320.0,179.1,2.1,13.5,27.11,27.78,1.9223,380.0529],
    [16255,1532810083,57.026,-111.8188,665.9,323.2,178.1,1.1,13.7,26.74,29.4,1.9235,380.2922],
    [16256,1532810084,57.0256,-111.8187,669.3,324.0,177.0,0.3,14.9,27.26,30.59,1.9227,379.5172],
    [16257,1532810085,57.0252,-111.8187,670.6,319.8,177.2,0.9,14.1,27.84,30.45,1.9224,379.5229],
    [16258,1532810086,57.0247,-111.8186,670.2,319.2,177.6,1.4,14.1,27.51,31.54,1.9215,379.8037],
    [16259,1532810087,57.0243,-111.8185,669.4,315.8,176.7,0.8,14.0,27.19,31.86,1.9193,379.8037],
    [16260,1532810088,57.0239,-111.8185,668.3,314.6,175.9,0.3,13.3,26.7,32.78,1.9199,379.0088],
    [16261,1532810089,57.0235,-111.8184,666.8,313.1,176.1,0.7,12.7,27.08,32.37,1.9189,380.8074],
    [16262,1532810090,57.0231,-111.8183,665.0,313.7,176.0,0.8,11.4,26.89,32.33,1.9169,381.6486],
    [16263,1532810091,57.0226,-111.8182,663.4,312.0,175.4,0.3,10.7,27.6,31.41,1.9199,381.8993],
    [16264,1532810092,57.0222,-111.8181,661.7,312.3,175.6,0.3,10.9,26.83,31.36,1.9143,381.8993],
    [16265,1532810093,57.0217,-111.8181,659.4,311.7,177.4,1.2,10.4,27.4,30.41,1.9127,380.0402],
    [16266,1532810094,57.0213,-111.818,656.5,314.5,179.3,1.7,9.8,27.17,30.24,1.9112,380.0402],
    [16267,1532810095,57.0208,-111.818,653.7,314.7,181.0,2.1,8.9,26.75,30.35,1.9183,380.8256],
    [16268,1532810096,57.0204,-111.818,651.6,318.6,182.1,2.0,8.9,26.83,30.03,1.9209,380.3626],
    [16269,1532810097,57.0199,-111.818,650.3,323.0,182.8,1.5,8.7,26.78,29.83,1.9219,381.4954],
    [16270,1532810098,57.0195,-111.818,649.7,323.7,184.6,2.4,8.4,26.86,30.42,1.9201,381.4398],
    [16271,1532810099,57.019,-111.8181,649.5,324.6,186.0,2.9,8.3,26.27,30.64,1.9198,380.531],
    [16272,1532810100,57.0185,-111.8181,650.6,322.4,185.9,2.2,8.3,27.29,30.96,1.9199,379.8149],
    [16273,1532810101,57.018,-111.8182,652.3,315.0,185.7,2.0,8.4,26.64,31.4,1.9203,379.457],
    [16274,1532810102,57.0176,-111.8183,654.1,311.2,185.4,1.9,8.9,26.4,31.65,1.9217,378.8508],
    [16275,1532810103,57.0171,-111.8183,655.8,302.5,184.7,1.6,9.1,26.62,32.62,1.9203,380.2463],
    [16276,1532810104,57.0167,-111.8184,657.1,296.8,183.8,1.4,9.1,27.09,31.53,1.9196,380.4007],
    [16277,1532810105,57.0162,-111.8184,658.0,296.0,183.4,1.5,9.3,26.47,31.98,1.9169,380.4989],
    [16278,1532810106,57.0157,-111.8185,658.4,294.9,183.1,1.6,9.4,26.58,32.0,1.9088,380.4319],
    [16279,1532810107,57.0152,-111.8185,658.6,294.6,183.4,1.9,9.1,26.54,31.64,1.91,381.3509],
    [16280,1532810108,57.0148,-111.8185,658.9,294.9,183.1,1.6,9.3,26.7,30.88,1.916,380.1096],
    [16281,1532810109,57.0143,-111.8185,659.3,295.3,183.7,2.1,8.9,26.56,30.62,1.9156,380.8553],
    [16282,1532810110,57.0138,-111.8186,659.6,295.6,184.4,2.5,8.9,26.49,29.33,1.9133,380.7704],
    [16283,1532810111,57.0133,-111.8186,659.7,295.7,184.4,2.4,8.8,26.37,28.95,1.9126,380.9198],
    [16284,1532810112,57.0128,-111.8187,659.8,295.8,185.2,3.1,8.7,26.78,28.59,1.9124,381.3479],
    [16285,1532810113,57.0123,-111.8187,659.7,295.7,185.5,3.2,8.5,26.72,28.08,1.9154,381.7614],
    [16286,1532810114,57.0118,-111.8188,660.4,296.4,184.2,1.6,8.1,26.6,28.04,1.9184,381.6505],
    [16287,1532810115,57.0113,-111.8188,661.4,296.4,184.0,1.7,8.3,26.64,28.11,1.9175,381.0816],
    [16288,1532810116,57.0108,-111.8188,661.9,296.9,184.5,2.6,8.1,27.01,27.88,1.9125,380.8966],
    [16289,1532810117,57.0103,-111.8189,662.4,296.4,184.1,2.7,7.9,26.71,29.12,1.9113,382.7109],
    [16290,1532810118,57.0098,-111.8189,663.0,296.9,183.8,2.7,7.2,26.09,28.27,1.9132,382.3234],
    [16291,1532810119,57.0093,-111.8189,663.6,296.6,183.0,2.3,7.4,26.85,27.53,1.9126,382.2109],
    [16292,1532810120,57.0088,-111.8189,664.0,296.7,183.6,3.1,7.7,26.79,27.99,1.9153,382.2109],
    [16293,1532810121,57.0083,-111.819,664.5,296.5,183.8,3.3,7.7,26.99,26.81,1.9165,380.8653],
    [16294,1532810122,57.0078,-111.819,665.4,297.4,183.6,3.0,7.9,27.43,26.38,1.9142,381.7579],
    [16295,1532810123,57.0073,-111.819,666.3,298.3,183.8,3.2,8.0,26.28,26.97,1.9139,381.5833],
    [16296,1532810124,57.0068,-111.819,666.8,298.8,184.5,3.8,8.2,26.43,26.94,1.9153,381.8218],
    [16297,1532810125,57.0063,-111.819,667.3,299.3,184.2,3.3,8.3,26.47,27.17,1.9166,380.5676],
    [16298,1532810126,57.0058,-111.8191,668.1,300.1,183.8,2.9,8.3,27.33,26.7,1.9175,380.682],
    [16299,1532810127,57.0053,-111.8191,668.7,300.7,184.4,3.4,8.0,26.39,27.96,1.9183,381.4599],
    [16300,1532810128,57.0048,-111.8191,668.7,300.7,184.3,3.3,8.0,27.32,27.78,1.9167,380.7999],
    [16301,1532810129,57.0042,-111.8191,668.3,299.3,184.5,3.7,7.7,26.7,28.64,1.9161,380.9073],
    [16302,1532810130,57.0037,-111.8192,667.6,298.6,185.0,4.2,7.4,26.49,28.78,1.9155,381.8087],
    [16303,1532810131,57.0032,-111.8192,667.0,298.0,184.4,3.7,6.9,27.53,28.31,1.9151,381.4654],
    [16304,1532810132,57.0027,-111.8192,666.9,296.9,184.3,3.9,6.5,26.74,28.69,1.9128,379.9346],
    [16305,1532810133,57.0022,-111.8192,666.8,296.8,183.9,3.7,6.4,26.2,28.51,1.9139,381.5408],
    [16306,1532810134,57.0016,-111.8192,666.4,296.4,183.3,3.4,6.1,26.81,28.29,1.9159,381.6656],
    [16307,1532810135,57.0011,-111.8192,666.1,296.0,183.2,3.5,5.8,26.89,27.84,1.9147,383.0268],
    [16308,1532810136,57.0006,-111.8192,666.1,295.1,183.0,3.4,5.6,27.46,26.98,1.9118,383.0268],
    [16309,1532810137,57.0,-111.8192,666.3,295.2,182.7,3.2,5.4,26.16,27.55,1.9132,382.4294],
    [16310,1532810138,56.9995,-111.8192,666.4,295.2,182.4,3.2,5.2,26.82,27.0,1.9146,382.0656],
    [16311,1532810139,56.999,-111.8192,666.0,295.1,182.5,3.4,4.8,27.39,26.32,1.9177,380.1194],
    [16312,1532810140,56.9984,-111.8192,665.5,293.6,182.7,3.6,4.6,26.78,27.99,1.9158,382.6657],
    [16313,1532810141,56.9979,-111.8192,665.1,293.2,183.1,3.8,4.4,26.01,27.61,1.9146,382.4353],
    [16314,1532810142,56.9974,-111.8192,665.0,293.0,183.0,3.6,4.1,26.68,28.84,1.9205,381.8089],
    [16315,1532810143,56.9968,-111.8192,665.0,293.0,182.9,3.5,3.9,26.72,28.82,1.9199,380.333],
    [16316,1532810144,56.9963,-111.8192,665.1,293.1,183.2,3.6,3.8,26.41,28.81,1.92,380.333],
    [16317,1532810145,56.9957,-111.8192,665.3,293.3,183.1,3.3,3.7,26.69,29.39,1.9168,381.6264],
    [16318,1532810146,56.9952,-111.8192,665.4,293.4,183.8,3.8,3.9,26.87,28.96,1.9175,380.5135],
    [16319,1532810147,56.9946,-111.8192,665.5,293.5,184.1,3.9,4.1,26.68,30.08,1.9187,380.5135],
    [16320,1532810148,56.9941,-111.8192,665.1,293.1,183.8,3.5,4.1,26.45,29.85,1.919,380.4102],
    [16321,1532810149,56.9935,-111.8192,664.5,292.5,183.9,3.5,3.5,26.68,30.19,1.9181,379.1347],
    [16322,1532810150,56.993,-111.8193,664.0,292.0,184.0,3.6,3.5,27.06,30.1,1.9178,380.1713],
    [16323,1532810151,56.9924,-111.8193,663.5,291.5,184.2,3.6,2.8,27.24,29.52,1.9176,379.6915],
    [16324,1532810152,56.9919,-111.8193,662.6,290.6,184.0,3.5,2.5,26.99,30.41,1.9166,381.1007],
    [16325,1532810153,56.9913,-111.8193,661.4,290.4,184.0,3.6,2.3,26.64,30.59,1.9175,380.9257],
    [16326,1532810154,56.9907,-111.8193,660.2,289.2,184.1,3.7,2.1,26.69,30.54,1.9194,380.1386],
    [16327,1532810155,56.9902,-111.8193,658.8,287.8,183.8,3.4,2.0,26.67,31.17,1.9213,379.1461],
    [16328,1532810156,56.9896,-111.8194,657.4,286.4,184.0,3.6,2.0,26.2,31.29,1.9195,379.1461],
    [16329,1532810157,56.989,-111.8194,655.9,284.9,183.7,3.2,1.7,27.15,31.56,1.9197,379.7318],
    [16330,1532810158,56.9884,-111.8194,654.6,283.6,183.0,2.7,1.5,26.41,32.23,1.9194,379.3236],
    [16331,1532810159,56.9879,-111.8194,653.8,282.8,183.4,3.2,0.8,26.85,32.92,1.9196,378.4713],
    [16332,1532810160,56.9873,-111.8194,653.1,282.1,183.4,3.2,0.5,26.54,32.48,1.9195,378.4713],
    [16333,1532810161,56.9867,-111.8194,652.7,281.3,183.5,3.4,0.0,27.36,32.32,1.9197,379.893],
    [16334,1532810162,56.9862,-111.8194,652.6,280.6,183.7,3.6,0.0,27.12,32.18,1.9181,379.456],
    [16335,1532810163,56.9856,-111.8194,653.3,281.3,183.8,3.8,-0.4,26.08,32.86,1.9156,379.0863],
    [16336,1532810164,56.985,-111.8194,654.5,282.5,183.9,3.8,-0.2,26.66,32.8,1.9159,379.0032],
    [16337,1532810165,56.9844,-111.8195,656.0,284.0,183.1,3.1,-0.2,27.22,32.19,1.9168,379.2556],
    [16338,1532810166,56.9838,-111.8195,657.4,285.4,183.4,3.5,0.0,26.49,32.87,1.9177,379.5462],
    [16339,1532810167,56.9833,-111.8195,658.7,285.7,183.2,3.2,-0.4,26.5,32.34,1.9174,378.013],
    [16340,1532810168,56.9827,-111.8195,659.7,286.7,183.3,3.3,-0.5,26.39,32.39,1.9165,378.5612],
    [16341,1532810169,56.9821,-111.8195,660.4,287.4,183.5,3.3,-0.8,26.55,32.74,1.9159,379.777],
    [16342,1532810170,56.9815,-111.8195,661.2,288.2,183.4,3.4,-0.5,26.16,32.59,1.9169,378.8807],
    [16343,1532810171,56.981,-111.8195,662.0,288.0,183.3,3.4,-0.1,27.32,31.84,1.9173,378.8613],
    [16344,1532810172,56.9804,-111.8195,663.0,289.0,183.2,3.5,0.2,26.72,32.52,1.9168,378.4306],
    [16345,1532810173,56.9798,-111.8195,664.0,290.0,183.3,3.6,0.3,26.15,33.0,1.9164,377.5726],
    [16346,1532810174,56.9792,-111.8195,664.9,289.9,183.0,3.3,0.0,26.47,33.99,1.9167,377.914],
    [16347,1532810175,56.9786,-111.8195,665.7,290.7,182.9,3.5,-0.3,26.42,34.22,1.9153,378.0841],
    [16348,1532810176,56.978,-111.8195,666.4,290.4,183.3,3.8,-0.2,26.75,33.27,1.9148,378.738],
    [16349,1532810177,56.9775,-111.8195,666.8,290.8,183.1,3.5,0.4,26.75,34.12,1.9155,378.3687],
    [16350,1532810178,56.9769,-111.8195,666.9,290.6,183.2,3.4,0.0,26.63,33.65,1.916,377.8125],
    [16351,1532810179,56.9763,-111.8195,666.6,289.6,183.0,3.1,0.1,26.31,33.8,1.9161,377.3909],
    [16352,1532810180,56.9757,-111.8195,666.2,289.3,182.9,2.9,0.3,26.78,32.96,1.9173,377.2064],
    [16353,1532810181,56.9752,-111.8195,666.2,288.2,183.0,2.8,-0.9,26.6,33.5,1.9138,378.6931],
    [16354,1532810182,56.9746,-111.8195,666.6,288.6,182.7,2.4,-0.9,26.54,33.7,1.9146,378.7169],
    [16355,1532810183,56.974,-111.8195,667.2,289.3,183.2,3.0,0.2,26.61,33.17,1.9139,379.5157],
    [16356,1532810184,56.9734,-111.8195,667.8,288.8,182.8,2.8,0.5,26.25,33.15,1.9133,378.4956],
    [16357,1532810185,56.9728,-111.8195,668.5,289.5,183.0,3.2,-0.2,26.89,32.17,1.9142,380.113],
    [16358,1532810186,56.9722,-111.8195,669.1,289.0,183.0,3.1,0.3,26.89,31.7,1.9149,380.7356],
    [16359,1532810187,56.9716,-111.8196,669.4,288.3,182.9,3.0,0.9,26.84,31.32,1.9153,379.6919],
    [16360,1532810188,56.971,-111.8196,669.5,287.5,183.7,3.8,1.5,26.15,31.61,1.9146,378.6858],
    [16361,1532810189,56.9704,-111.8196,669.8,287.8,184.4,4.2,1.5,26.26,31.3,1.9158,378.8601],
    [16362,1532810190,56.9699,-111.8196,670.3,287.3,183.6,3.2,1.6,26.45,32.11,1.9176,379.411],
    [16363,1532810191,56.9693,-111.8196,671.2,287.1,183.6,3.4,1.8,26.59,31.11,1.9184,379.0315],
    [16364,1532810192,56.9687,-111.8196,673.0,288.0,183.2,3.1,1.5,26.4,32.02,1.9179,379.0013],
    [16365,1532810193,56.9681,-111.8196,674.5,288.8,183.1,3.4,3.1,26.36,32.13,1.9166,379.0013],
    [16366,1532810194,56.9675,-111.8196,676.1,289.0,183.2,3.5,2.9,26.4,32.59,1.9173,377.6423],
    [16367,1532810195,56.9669,-111.8196,677.8,288.8,182.0,2.4,3.1,26.2,32.38,1.9181,376.5995],
    [16368,1532810196,56.9664,-111.8196,679.5,289.5,181.6,2.3,3.1,27.13,32.14,1.9162,378.7378],
    [16369,1532810197,56.9658,-111.8196,681.3,289.6,181.0,2.0,3.5,26.05,33.46,1.9174,377.791],
    [16370,1532810198,56.9652,-111.8196,683.6,291.3,180.2,1.6,3.6,26.54,33.21,1.9166,378.4399],
    [16371,1532810199,56.9646,-111.8196,686.0,292.0,180.5,2.2,3.9,26.51,33.43,1.9157,377.8414],
    [16372,1532810200,56.9641,-111.8195,688.3,294.4,180.2,1.8,3.8,26.23,33.26,1.9159,377.8414],
    [16373,1532810201,56.9635,-111.8195,690.2,295.2,180.4,1.9,3.7,26.39,32.97,1.9145,380.0386],
    [16374,1532810202,56.9629,-111.8195,691.4,295.4,180.6,1.9,3.5,26.75,31.8,1.9165,379.4569],
    [16375,1532810203,56.9623,-111.8195,692.5,295.5,180.1,1.3,3.6,26.47,32.12,1.9155,379.4186],
    [16376,1532810204,56.9618,-111.8195,693.8,295.7,180.4,1.6,4.4,26.33,32.01,1.9153,380.2726],
    [16377,1532810205,56.9612,-111.8194,694.9,295.9,181.1,2.5,4.7,26.12,31.56,1.9151,380.0128],
    [16378,1532810206,56.9606,-111.8194,696.3,296.4,180.8,1.9,4.5,26.08,31.87,1.9145,379.7592],
    [16379,1532810207,56.96,-111.8194,698.3,297.4,180.2,1.1,4.2,26.81,30.48,1.9134,379.5757],
    [16380,1532810208,56.9595,-111.8194,700.1,299.2,181.0,2.0,4.8,26.0,30.18,1.9144,380.0047],
    [16381,1532810209,56.9589,-111.8194,701.4,299.4,181.9,2.8,5.1,26.24,29.81,1.9154,380.0779],
    [16382,1532810210,56.9583,-111.8194,702.8,299.8,182.6,3.3,5.0,26.37,29.68,1.9178,380.6631],
    [16383,1532810211,56.9578,-111.8194,704.0,301.0,182.3,3.0,4.7,26.07,29.71,1.9177,379.8542],
    [16384,1532810212,56.9572,-111.8194,705.5,302.5,182.1,3.0,4.5,26.22,29.88,1.9171,379.739],
    [16385,1532810213,56.9566,-111.8194,707.7,304.7,181.0,2.1,4.6,26.71,29.53,1.9159,379.7343],
    [16386,1532810214,56.9561,-111.8193,709.7,305.8,180.5,1.9,4.3,26.43,30.21,1.9182,380.3885],
    [16387,1532810215,56.9555,-111.8193,710.9,306.9,181.0,2.5,3.5,26.87,29.69,1.9177,379.7664],
    [16388,1532810216,56.9549,-111.8193,711.0,307.0,181.8,3.6,3.2,25.84,30.8,1.9179,380.5844],
    [16389,1532810217,56.9543,-111.8193,709.3,305.3,181.4,3.0,2.9,25.8,30.63,1.9172,379.4679],
    [16390,1532810218,56.9537,-111.8192,707.9,302.9,179.6,1.2,1.5,26.15,30.86,1.9166,379.5475],
    [16391,1532810219,56.9532,-111.8192,706.2,301.2,180.1,2.1,0.4,26.7,30.41,1.9161,381.257],
    [16392,1532810220,56.9526,-111.8192,705.0,300.0,180.0,2.3,-0.1,26.39,31.71,1.9166,380.1908],
    [16393,1532810221,56.952,-111.8191,704.0,299.0,180.3,2.9,-0.7,25.95,31.03,1.9169,379.4347],
    [16394,1532810222,56.9514,-111.8191,702.6,296.6,180.4,2.8,-1.2,26.47,30.9,1.9166,380.0633],
    [16395,1532810223,56.9508,-111.8191,701.4,295.4,180.3,2.2,-1.7,26.44,31.3,1.9169,381.1476],
    [16396,1532810224,56.9502,-111.819,700.3,294.0,181.1,2.1,-2.2,26.57,31.48,1.9176,380.5107],
    [16397,1532810225,56.9496,-111.819,700.0,293.0,181.7,1.8,-2.6,26.48,31.55,1.9178,379.4162],
    [16398,1532810226,56.949,-111.819,700.5,293.5,183.9,3.4,-2.4,26.42,31.2,1.9177,379.3385],
    [16399,1532810227,56.9484,-111.8191,701.2,293.9,183.9,2.7,-2.5,26.39,31.38,1.9158,380.6719],
    [16400,1532810228,56.9478,-111.8191,702.4,294.4,182.6,1.3,-2.8,26.55,30.93,1.916,380.9675],
    [16401,1532810229,56.9472,-111.8191,703.0,295.0,183.7,2.2,-3.2,26.52,31.69,1.9157,379.8141],
    [16402,1532810230,56.9467,-111.8191,703.1,294.1,183.7,2.2,-3.1,26.63,31.41,1.9147,379.7232],
    [16403,1532810231,56.9461,-111.8192,703.4,294.4,183.2,1.8,-3.0,26.57,31.81,1.9138,380.7874],
    [16404,1532810232,56.9455,-111.8192,703.5,293.5,183.4,2.2,-3.0,26.26,31.25,1.9134,379.8318],
    [16405,1532810233,56.9449,-111.8192,703.2,293.2,183.5,2.4,-3.1,26.35,31.62,1.9123,380.09],
    [16406,1532810234,56.9443,-111.8192,702.9,292.8,183.9,2.8,-3.5,26.06,30.65,1.9138,378.8469],
    [16407,1532810235,56.9437,-111.8193,702.7,291.7,183.8,2.7,-3.4,27.01,30.18,1.9131,380.0828],
    [16408,1532810236,56.9431,-111.8193,702.3,291.3,183.2,2.3,-3.3,26.59,30.08,1.9136,380.0828],
    [16409,1532810237,56.9425,-111.8193,701.6,289.6,183.8,3.0,-3.3,26.36,30.28,1.9127,381.2626],
    [16410,1532810238,56.9419,-111.8193,700.8,288.8,184.4,3.7,-3.2,26.25,30.42,1.9143,379.4422],
    [16411,1532810239,56.9413,-111.8194,700.0,287.0,184.5,3.6,-3.0,26.13,29.98,1.915,380.3298],
    [16412,1532810240,56.9407,-111.8194,699.3,286.3,184.3,3.6,-2.6,26.11,30.1,1.9148,379.9962],
    [16413,1532810241,56.9401,-111.8194,698.9,284.9,184.3,4.1,-2.2,26.27,30.12,1.9143,379.4515],
    [16414,1532810242,56.9396,-111.8194,699.2,285.2,183.8,4.8,-1.9,26.03,31.03,1.9159,379.9669],
    [16415,1532810243,56.939,-111.8194,699.6,284.8,181.2,4.7,-1.2,26.57,30.43,1.9155,379.1377],
    [16416,1532810244,56.9384,-111.8193,700.0,285.0,177.5,4.6,-0.9,25.91,30.8,1.9152,379.361],
    [16417,1532810245,56.9378,-111.8191,700.5,284.6,173.1,4.5,-0.1,27.03,30.45,1.9157,380.1741],
    [16418,1532810246,56.9372,-111.8189,702.2,285.2,167.5,3.4,0.6,25.55,31.26,1.9151,379.4354],
    [16419,1532810247,56.9366,-111.8185,704.9,286.8,163.7,3.8,1.3,26.28,32.2,1.9152,379.3852],
    [16420,1532810248,56.9361,-111.8181,708.2,289.4,159.8,3.6,2.0,26.19,31.75,1.9177,378.6012],
    [16421,1532810249,56.9355,-111.8177,711.7,291.6,156.4,3.6,2.9,27.13,31.22,1.9178,379.2846],
    [16422,1532810250,56.935,-111.8171,715.1,295.1,153.7,3.8,3.1,26.67,31.77,1.9168,379.7064],
    [16423,1532810251,56.9345,-111.8166,718.2,297.2,149.8,2.2,3.5,26.27,33.16,1.9163,379.7064],
    [16424,1532810252,56.934,-111.8159,720.7,299.7,146.8,1.3,4.7,26.1,32.89,1.917,379.59],
    [16425,1532810253,56.9336,-111.8153,722.7,300.7,144.3,0.9,5.6,26.33,33.24,1.9149,379.0236],
    [16426,1532810254,56.9331,-111.8146,724.2,302.1,140.9,0.4,5.5,26.06,33.5,1.9147,378.7679],
    [16427,1532810255,56.9327,-111.8138,725.3,303.2,137.7,0.2,5.5,25.77,33.54,1.915,379.8159],
    [16428,1532810256,56.9323,-111.813,726.1,305.1,134.2,-0.1,5.1,25.94,34.08,1.9159,379.1705],
    [16429,1532810257,56.9319,-111.8122,726.9,305.9,131.0,-0.5,5.1,26.93,33.14,1.9158,379.1705],
    [16430,1532810258,56.9316,-111.8113,727.4,306.4,127.9,-0.6,5.1,26.09,33.29,1.9173,378.4273],
    [16431,1532810259,56.9312,-111.8104,728.0,307.0,124.3,-0.4,4.4,26.11,34.35,1.9204,378.3768],
    [16432,1532810260,56.931,-111.8094,728.4,308.4,121.1,-0.8,4.5,26.23,34.05,1.9181,378.1629],
    [16433,1532810261,56.9307,-111.8085,729.2,309.5,117.4,-1.7,4.5,26.43,33.22,1.9147,377.4607],
    [16434,1532810262,56.9305,-111.8075,730.1,311.1,113.5,-2.0,3.6,26.04,33.39,1.9154,377.6812],
    [16435,1532810263,56.9303,-111.8064,731.0,312.0,109.7,-3.5,3.1,25.95,33.57,1.9166,377.9997],
    [16436,1532810264,56.9301,-111.8054,732.1,313.8,106.6,-2.7,2.6,26.39,33.04,1.917,378.4597],
    [16437,1532810265,56.9299,-111.8043,732.8,314.8,103.8,-2.6,2.1,26.26,33.24,1.9177,378.6622],
    [16438,1532810266,56.9298,-111.8032,733.2,315.2,100.9,-2.9,1.8,26.38,33.14,1.9182,377.427],
    [16439,1532810267,56.9297,-111.8021,733.3,315.3,98.7,-2.4,1.9,25.85,33.34,1.9176,378.2834],
    [16440,1532810268,56.9297,-111.8011,733.2,315.5,96.5,-1.1,1.4,26.57,33.12,1.9181,378.2713],
    [16441,1532810269,56.9296,-111.8,733.1,316.1,94.0,-1.9,0.5,26.39,33.43,1.9172,378.2502],
    [16442,1532810270,56.9296,-111.7989,733.1,317.1,92.6,-2.1,0.3,26.33,33.81,1.9171,377.4348],
    [16443,1532810271,56.9296,-111.7978,732.9,317.2,91.5,-2.0,0.2,26.32,33.72,1.9172,378.3542],
    [16444,1532810272,56.9296,-111.7966,731.4,316.4,90.8,-1.3,0.6,26.88,32.74,1.9181,377.3295],
    [16445,1532810273,56.9296,-111.7955,728.8,314.8,89.1,-1.5,-0.2,26.34,33.5,1.92,377.8615],
    [16446,1532810274,56.9296,-111.7944,726.1,312.1,87.8,0.2,-0.5,26.32,34.14,1.9177,376.5797],
    [16447,1532810275,56.9296,-111.7933,723.5,310.5,87.2,0.5,-0.5,26.29,33.79,1.9186,377.86],
    [16448,1532810276,56.9296,-111.7921,720.8,307.8,86.7,0.9,-0.9,26.32,34.17,1.9171,378.0686],
    [16449,1532810277,56.9297,-111.791,718.1,306.1,87.1,1.1,-0.1,26.52,33.26,1.9176,377.3697],
    [16450,1532810278,56.9297,-111.7898,715.8,304.5,88.2,1.9,1.1,26.19,33.64,1.9181,378.568],
    [16451,1532810279,56.9297,-111.7886,713.8,302.8,88.3,0.8,0.8,26.0,34.01,1.919,378.7077],
    [16452,1532810280,56.9297,-111.7874,712.4,302.3,88.7,0.6,1.1,26.09,33.69,1.9175,378.8042],
    [16453,1532810281,56.9298,-111.7862,711.3,301.3,88.6,0.7,1.0,26.34,34.5,1.9177,378.3136],
    [16454,1532810282,56.9298,-111.7851,709.9,299.9,87.7,0.7,-0.1,26.19,33.7,1.9177,378.3136],
    [16455,1532810283,56.9298,-111.7839,707.7,297.7,87.4,0.6,-0.2,26.62,33.29,1.9167,378.38],
    [16456,1532810284,56.9299,-111.7827,705.2,295.2,87.7,0.2,0.2,26.25,33.63,1.915,378.8461],
    [16457,1532810285,56.9299,-111.7815,702.6,292.6,87.5,1.5,0.1,26.35,33.24,1.916,378.6204],
    [16458,1532810286,56.9299,-111.7803,700.2,290.2,87.4,1.4,-0.1,26.28,33.29,1.9182,378.2167],
    [16459,1532810287,56.9299,-111.7791,699.0,289.0,87.3,2.4,0.0,26.82,32.59,1.9198,378.3305],
    [16460,1532810288,56.93,-111.7779,698.9,288.9,88.1,2.1,1.0,26.68,32.86,1.9182,378.4919],
    [16461,1532810289,56.93,-111.7767,698.8,288.8,88.8,1.9,1.3,26.02,32.97,1.9195,378.9898],
    [16462,1532810290,56.93,-111.7755,699.0,290.0,89.3,2.0,1.5,26.83,32.38,1.9185,377.7669],
    [16463,1532810291,56.93,-111.7743,699.7,290.7,91.7,2.3,3.8,26.21,33.79,1.9178,378.4685],
    [16464,1532810292,56.9301,-111.7731,700.6,291.6,91.1,2.5,2.5,26.24,33.44,1.9182,378.6552],
    [16465,1532810293,56.9301,-111.7719,701.3,293.3,90.1,3.2,1.7,26.76,33.16,1.9169,378.1725],
    [16466,1532810294,56.9301,-111.7707,701.1,293.1,91.0,2.9,2.6,26.37,33.13,1.9172,377.6394],
    [16467,1532810295,56.9301,-111.7696,700.9,293.6,90.1,1.9,1.5,27.2,32.54,1.9173,378.5684],
    [16468,1532810296,56.9301,-111.7684,700.9,293.9,89.9,2.2,1.0,26.35,33.62,1.9163,378.4613],
    [16469,1532810297,56.9301,-111.7672,701.2,294.2,89.4,1.9,0.5,26.07,33.14,1.9163,378.6633],
    [16470,1532810298,56.9301,-111.766,701.6,295.4,89.8,1.6,1.0,27.03,32.38,1.9164,378.4362],
    [16471,1532810299,56.9301,-111.7648,702.2,296.2,90.1,1.3,1.1,26.07,32.91,1.9169,378.3801],
    [16472,1532810300,56.9301,-111.7636,702.5,296.5,90.0,1.3,0.6,26.44,32.7,1.9165,378.8169],
    [16473,1532810301,56.9301,-111.7625,702.4,297.4,90.8,1.2,1.2,26.93,32.31,1.9162,378.1514],
    [16474,1532810302,56.9301,-111.7613,702.5,297.5,91.2,1.9,1.3,26.48,32.93,1.9158,378.1514],
    [16475,1532810303,56.9301,-111.7601,702.5,298.3,91.3,1.8,1.3,26.66,32.24,1.9144,379.284],
    [16476,1532810304,56.9301,-111.7589,702.7,298.7,91.5,2.0,1.4,27.23,31.81,1.9145,379.2945],
    [16477,1532810305,56.9301,-111.7578,703.0,300.0,91.1,2.2,1.1,26.46,32.6,1.9138,379.8983],
    [16478,1532810306,56.9301,-111.7566,703.8,300.8,90.9,2.5,1.0,25.7,31.96,1.9144,379.1195],
    [16479,1532810307,56.9301,-111.7554,704.7,302.7,90.8,2.5,1.2,26.64,31.64,1.9152,379.4208],
    [16480,1532810308,56.9301,-111.7542,705.1,305.0,91.3,2.7,1.8,26.41,31.49,1.9153,378.736],
    [16481,1532810309,56.9301,-111.7531,704.8,306.5,91.4,3.0,1.8,26.52,31.41,1.9137,379.8268],
    [16482,1532810310,56.9301,-111.7519,704.3,308.4,92.2,3.4,2.5,26.76,30.46,1.9123,379.6598],
    [16483,1532810311,56.9301,-111.7507,703.8,309.4,91.9,3.5,2.2,26.57,31.15,1.9117,378.9097],
    [16484,1532810312,56.9301,-111.7495,702.7,309.7,92.2,3.2,2.5,26.44,31.44,1.9113,379.6664],
    [16485,1532810313,56.9301,-111.7483,701.3,309.4,92.1,3.7,2.4,26.15,30.96,1.9111,379.1572],
    [16486,1532810314,56.9301,-111.7471,699.9,309.9,92.3,4.6,2.7,26.03,30.23,1.9109,379.7465],
    [16487,1532810315,56.9301,-111.7459,698.4,309.4,92.0,5.0,2.4,26.04,30.07,1.9119,379.8286],
    [16488,1532810316,56.9301,-111.7448,696.8,308.5,92.4,5.5,3.1,27.08,28.77,1.9132,380.3977],
    [16489,1532810317,56.9301,-111.7436,695.5,307.5,93.5,5.4,3.9,26.15,29.61,1.9122,379.9761],
    [16490,1532810318,56.9301,-111.7423,695.3,307.3,92.9,5.2,3.5,26.28,29.72,1.9122,380.3072],
    [16491,1532810319,56.9301,-111.7411,695.1,307.1,92.6,4.5,3.2,26.43,30.25,1.9126,380.3791],
    [16492,1532810320,56.9301,-111.74,694.0,306.0,91.9,4.1,2.6,27.17,29.0,1.9108,380.8147],
    [16493,1532810321,56.9301,-111.7388,692.9,304.9,92.2,3.7,2.9,26.57,29.62,1.9111,378.842],
    [16494,1532810322,56.9301,-111.7376,691.5,303.5,92.7,4.3,3.2,27.21,29.11,1.912,380.5127],
    [16495,1532810323,56.9301,-111.7364,690.1,302.1,93.0,4.0,3.2,26.0,29.78,1.9113,380.1094],
    [16496,1532810324,56.9301,-111.7352,688.8,300.8,92.7,3.6,2.9,26.48,30.75,1.9109,380.8524],
    [16497,1532810325,56.9301,-111.734,688.1,300.1,93.2,4.0,3.4,26.51,30.65,1.9106,380.3629],
    [16498,1532810326,56.9301,-111.7328,686.6,298.6,92.3,4.2,2.6,26.46,30.78,1.9123,380.0308],
    [16499,1532810327,56.9301,-111.7316,684.4,296.4,91.6,4.4,2.3,25.8,29.64,1.9116,379.6679],
    [16500,1532810328,56.9301,-111.7304,681.8,294.9,91.6,5.4,2.4,26.47,29.63,1.9129,380.5363],
    [16501,1532810329,56.9301,-111.7292,679.6,292.6,91.8,5.6,2.5,26.52,30.12,1.912,379.1549],
    [16502,1532810330,56.9301,-111.728,677.8,291.9,92.0,5.6,2.7,26.03,29.51,1.9124,379.3681],
    [16503,1532810331,56.9301,-111.7268,676.5,290.5,91.9,4.3,2.4,26.94,29.37,1.9126,380.0619],
    [16504,1532810332,56.9301,-111.7256,675.4,290.1,92.0,5.0,2.4,26.39,30.01,1.9129,379.1025],
    [16505,1532810333,56.9301,-111.7244,675.0,290.0,92.0,5.5,2.3,26.47,30.21,1.9116,379.4288],
    [16506,1532810334,56.9301,-111.7232,675.5,290.5,91.7,5.6,2.1,26.58,31.12,1.9111,379.6738],
    [16507,1532810335,56.9301,-111.722,676.5,291.4,91.4,5.3,2.0,26.06,30.42,1.9114,379.4328],
    [16508,1532810336,56.9301,-111.7208,677.5,293.5,91.0,5.2,1.6,26.71,30.21,1.9125,380.5646],
    [16509,1532810337,56.9302,-111.7196,678.6,294.6,91.1,4.3,1.8,27.18,30.05,1.9118,378.6014],
    [16510,1532810338,56.9302,-111.7184,679.5,295.5,91.4,3.9,2.0,26.88,30.17,1.911,379.5011],
    [16511,1532810339,56.9302,-111.7172,680.4,296.4,91.4,3.3,1.8,26.05,30.57,1.9123,379.9439],
    [16512,1532810340,56.9302,-111.7161,681.2,298.2,91.8,2.6,2.2,27.04,29.57,1.912,379.7647],
    [16513,1532810341,56.9302,-111.7149,681.6,298.6,92.1,3.1,2.5,26.48,30.91,1.9131,379.3339],
    [16514,1532810342,56.9302,-111.7137,681.9,298.9,91.9,3.4,2.3,27.37,29.47,1.9106,379.83],
    [16515,1532810343,56.9302,-111.7126,682.2,299.2,91.4,3.0,1.8,26.53,30.21,1.9103,380.0725],
    [16516,1532810344,56.9302,-111.7114,682.4,300.4,91.0,2.3,1.6,27.37,29.63,1.9109,379.9299],
    [16517,1532810345,56.9302,-111.7102,682.5,300.5,91.6,1.8,2.2,26.39,30.04,1.9111,378.6943],
    [16518,1532810346,56.9302,-111.709,683.1,301.1,91.6,1.9,1.9,26.62,30.6,1.9118,378.6943],
    [16519,1532810347,56.9302,-111.7079,683.6,302.6,91.4,1.6,1.8,27.32,30.02,1.9116,380.396],
    [16520,1532810348,56.9302,-111.7067,683.6,302.6,92.0,1.6,2.5,27.2,29.86,1.9114,379.4274],
    [16521,1532810349,56.9302,-111.7055,683.2,303.2,91.7,1.6,2.2,26.53,30.8,1.9131,379.059],
    [16522,1532810350,56.9302,-111.7044,682.8,302.8,91.7,1.8,2.0,26.93,30.69,1.9127,377.3934],
    [16523,1532810351,56.9302,-111.7032,681.9,302.9,91.6,2.4,1.7,26.64,30.78,1.9117,378.62],
    [16524,1532810352,56.9302,-111.702,680.9,301.9,91.9,2.2,1.8,26.65,31.52,1.9113,379.0771],
    [16525,1532810353,56.9302,-111.7009,679.6,301.6,92.2,2.3,1.9,26.6,30.97,1.9109,378.5964],
    [16526,1532810354,56.9302,-111.6997,678.2,300.2,91.9,2.7,1.6,26.74,31.16,1.9123,378.6074],
    [16527,1532810355,56.9301,-111.6985,676.6,299.6,92.3,3.1,2.1,26.23,31.28,1.9149,379.3827],
    [16528,1532810356,56.9301,-111.6974,674.9,298.4,91.6,3.3,1.8,26.36,31.35,1.9141,378.1129],
    [16529,1532810357,56.9301,-111.6962,673.6,297.6,91.4,3.4,2.0,26.97,31.25,1.9143,377.6548],
    [16530,1532810358,56.9301,-111.695,672.5,297.5,91.0,2.9,1.6,26.69,31.7,1.9147,378.1451],
    [16531,1532810359,56.9302,-111.6939,671.9,297.9,90.5,3.4,1.5,26.4,31.87,1.9142,377.9791],
    [16532,1532810360,56.9302,-111.6927,671.3,298.4,91.2,3.4,2.7,26.64,31.83,1.9139,378.6947],
    [16533,1532810361,56.9302,-111.6915,670.9,298.4,90.9,3.7,2.8,26.15,32.25,1.9142,378.8692],
    [16534,1532810362,56.9302,-111.6903,670.1,298.1,90.2,3.7,2.3,26.56,32.04,1.9144,377.5245],
    [16535,1532810363,56.9302,-111.6892,669.0,298.0,89.7,3.2,2.1,27.44,31.57,1.9145,378.2739],
    [16536,1532810364,56.9302,-111.688,667.9,296.8,89.2,3.1,2.1,26.69,32.2,1.9146,377.7885],
    [16537,1532810365,56.9303,-111.6868,666.5,296.5,89.2,3.0,2.6,26.96,32.8,1.9125,378.0673],
    [16538,1532810366,56.9303,-111.6857,665.1,296.1,88.4,2.5,1.7,26.86,32.25,1.9117,378.3747],
    [16539,1532810367,56.9303,-111.6845,663.9,295.9,88.4,2.1,1.6,27.46,31.74,1.9125,378.5523],
    [16540,1532810368,56.9304,-111.6833,662.5,295.6,88.6,2.3,1.7,26.86,32.44,1.9131,377.3634],
    [16541,1532810369,56.9304,-111.6822,661.0,295.0,88.4,2.2,1.4,26.23,32.25,1.9121,378.5605],
    [16542,1532810370,56.9304,-111.681,659.5,294.6,88.9,1.9,1.5,26.45,31.99,1.9116,378.756],
    [16543,1532810371,56.9304,-111.6799,658.6,294.6,88.9,2.3,0.9,26.62,32.45,1.9112,378.756],
    [16544,1532810372,56.9305,-111.6787,658.0,295.0,89.5,2.0,0.9,26.64,31.84,1.9109,378.6206],
    [16545,1532810373,56.9305,-111.6775,657.7,295.7,90.1,2.7,0.9,25.95,31.97,1.9121,378.1572],
    [16546,1532810374,56.9305,-111.6764,657.2,296.2,90.6,2.3,1.2,26.36,31.84,1.913,379.0535],
    [16547,1532810375,56.9305,-111.6752,656.8,297.8,90.2,2.2,0.6,27.12,31.61,1.9123,378.8682],
    [16548,1532810376,56.9305,-111.674,656.2,298.3,89.8,3.2,0.3,27.15,31.08,1.9119,376.5668],
    [16549,1532810377,56.9305,-111.6728,655.3,298.3,90.5,2.6,1.0,27.46,31.58,1.9137,378.3491],
    [16550,1532810378,56.9305,-111.6717,654.0,297.0,90.4,3.3,0.8,26.79,32.25,1.9118,377.9148],
    [16551,1532810379,56.9305,-111.6705,653.0,297.0,90.3,3.3,0.8,26.8,32.02,1.9135,377.7258],
    [16552,1532810380,56.9305,-111.6693,652.1,296.1,90.7,4.0,1.4,26.09,32.22,1.9141,377.8932],
    [16553,1532810381,56.9305,-111.6681,651.3,296.3,90.8,4.2,1.5,27.01,32.38,1.9125,377.8932],
    [16554,1532810382,56.9305,-111.667,650.6,296.6,91.0,3.1,1.9,26.92,31.99,1.9126,378.1978],
    [16555,1532810383,56.9305,-111.6658,649.9,295.9,91.5,3.2,2.3,26.72,32.48,1.913,378.1978],
    [16556,1532810384,56.9305,-111.6646,649.7,295.7,90.4,3.1,1.0,26.85,32.38,1.914,377.5571],
    [16557,1532810385,56.9305,-111.6634,649.3,295.3,90.3,3.2,0.9,26.85,32.53,1.9113,377.8279],
    [16558,1532810386,56.9305,-111.6622,648.9,295.9,91.0,1.7,1.4,26.8,32.59,1.9126,378.0275],
    [16559,1532810387,56.9305,-111.661,648.5,295.5,90.8,0.8,1.4,26.88,32.37,1.911,377.2067],
    [16560,1532810388,56.9305,-111.6598,648.2,295.2,91.2,1.4,1.8,27.21,31.88,1.9109,378.105],
    [16561,1532810389,56.9305,-111.6587,647.9,295.9,91.1,1.3,1.7,26.84,32.52,1.9105,377.4948],
    [16562,1532810390,56.9305,-111.6575,647.5,295.5,91.3,1.2,1.6,26.96,31.72,1.9096,378.173],
    [16563,1532810391,56.9305,-111.6563,647.1,296.1,91.6,1.7,1.4,27.02,31.45,1.9102,379.3497],
    [16564,1532810392,56.9305,-111.6551,646.9,295.9,92.0,1.8,1.3,26.53,31.8,1.9115,378.6558],
    [16565,1532810393,56.9305,-111.654,646.3,295.3,92.7,2.5,1.8,26.82,31.36,1.9111,378.8031],
    [16566,1532810394,56.9305,-111.6528,645.6,295.6,92.7,2.9,1.6,27.22,30.77,1.9141,378.9303],
    [16567,1532810395,56.9305,-111.6516,645.1,295.1,92.5,3.5,1.3,26.94,31.19,1.9142,378.5158],
    [16568,1532810396,56.9305,-111.6504,644.1,294.1,93.2,2.8,1.7,26.72,32.41,1.9132,378.5158],
    [16569,1532810397,56.9304,-111.6492,643.0,293.0,93.6,2.9,1.9,26.62,31.72,1.9133,378.3366],
    [16570,1532810398,56.9304,-111.6481,641.7,291.7,93.9,2.8,1.8,26.9,31.64,1.9123,377.1301],
    [16571,1532810399,56.9304,-111.6469,640.4,291.4,93.6,3.0,1.3,26.72,31.71,1.9128,378.2974],
    [16572,1532810400,56.9304,-111.6457,639.4,290.4,93.6,3.4,1.3,26.74,32.25,1.9134,378.4374],
    [16573,1532810401,56.9303,-111.6445,638.2,290.2,93.2,4.1,0.9,27.24,31.58,1.9161,378.0533],
    [16574,1532810402,56.9303,-111.6433,637.1,290.0,93.2,3.9,1.1,26.86,32.12,1.9157,378.14],
    [16575,1532810403,56.9303,-111.6421,636.5,291.5,92.1,3.8,0.2,26.96,32.1,1.9153,378.14],
    [16576,1532810404,56.9303,-111.641,636.0,290.9,92.2,3.9,0.6,27.23,31.92,1.9177,377.4944],
    [16577,1532810405,56.9303,-111.6398,635.4,291.1,92.8,4.6,1.2,26.45,32.7,1.9139,378.1484],
    [16578,1532810406,56.9302,-111.6386,635.1,291.1,92.5,4.9,0.5,27.37,32.51,1.9154,378.0718],
    [16579,1532810407,56.9302,-111.6374,635.2,291.2,92.7,4.7,0.8,26.92,33.51,1.9166,377.1431],
    [16580,1532810408,56.9302,-111.6362,635.2,292.2,93.9,4.9,1.9,26.87,33.16,1.9171,377.5365],
    [16581,1532810409,56.9302,-111.635,635.2,292.2,92.1,4.2,0.3,26.57,33.01,1.9143,378.0783],
    [16582,1532810410,56.9302,-111.6338,635.3,292.3,91.9,2.5,0.6,26.89,33.17,1.9142,377.2393],
    [16583,1532810411,56.9301,-111.6327,635.5,293.5,91.3,3.2,0.2,26.85,34.15,1.915,377.7161],
    [16584,1532810412,56.9301,-111.6315,635.2,293.2,91.6,4.0,1.0,26.39,33.12,1.9137,378.4372],
    [16585,1532810413,56.9301,-111.6303,634.8,293.8,92.4,4.0,1.8,27.23,32.49,1.9152,377.5582],
    [16586,1532810414,56.9301,-111.6291,634.1,294.1,91.9,4.3,1.4,27.31,32.06,1.9172,378.8824],
    [16587,1532810415,56.9301,-111.6279,633.2,293.2,92.4,4.7,1.8,27.07,32.34,1.9176,379.0846],
    [16588,1532810416,56.9301,-111.6267,632.3,292.3,91.4,4.9,0.7,27.29,32.09,1.9183,377.2552],
    [16589,1532810417,56.9301,-111.6255,631.3,291.3,90.9,5.4,0.5,26.78,32.47,1.9194,377.8349],
    [16590,1532810418,56.9301,-111.6243,630.5,291.5,91.0,5.4,0.7,26.15,32.58,1.9184,379.2985],
    [16591,1532810419,56.9301,-111.6231,629.6,290.6,90.4,6.1,0.1,27.03,33.34,1.9181,377.8751],
    [16592,1532810420,56.9301,-111.6219,629.1,291.1,90.5,5.8,0.2,27.27,32.37,1.9161,378.9766],
    [16593,1532810421,56.9301,-111.6207,628.6,291.5,89.4,5.4,-1.0,26.8,32.73,1.9142,376.6355],
    [16594,1532810422,56.9301,-111.6195,628.3,291.6,89.0,5.0,-1.0,26.27,32.5,1.9127,377.5736],
    [16595,1532810423,56.9301,-111.6183,628.1,293.0,89.6,4.6,-0.2,27.69,32.06,1.9139,377.5736],
    [16596,1532810424,56.9301,-111.6171,627.8,292.8,89.5,5.0,-0.1,26.42,32.43,1.9128,377.7341],
    [16597,1532810425,56.9301,-111.6159,627.6,292.6,90.2,5.2,0.2,26.74,33.27,1.9125,378.5074],
    [16598,1532810426,56.9301,-111.6147,627.1,292.4,90.0,4.3,-0.5,26.78,32.72,1.9123,378.0268],
    [16599,1532810427,56.9301,-111.6136,626.7,292.8,91.2,5.6,0.2,26.7,32.33,1.9124,377.7718],
    [16600,1532810428,56.9301,-111.6123,626.6,293.6,91.6,4.7,0.3,27.01,32.67,1.9129,378.6549],
    [16601,1532810429,56.93,-111.6112,626.0,294.1,91.3,4.0,0.2,27.76,31.54,1.9124,377.4771],
    [16602,1532810430,56.93,-111.61,625.4,292.6,91.9,3.9,0.8,27.03,32.06,1.9126,379.4517],
    [16603,1532810431,56.93,-111.6087,625.1,292.1,91.6,4.4,0.4,26.78,31.8,1.9126,379.6414],
    [16604,1532810432,56.93,-111.6075,624.7,291.8,91.4,4.4,0.5,26.68,31.41,1.9137,378.8387],
    [16605,1532810433,56.93,-111.6063,624.1,290.0,91.6,4.6,0.8,26.57,31.33,1.9149,378.2636],
    [16606,1532810434,56.93,-111.6052,623.4,289.3,90.3,4.9,-0.5,26.82,31.24,1.9144,378.9313],
    [16607,1532810435,56.93,-111.604,622.8,287.8,89.4,5.8,-1.2,27.08,31.11,1.9142,378.6194],
    [16608,1532810436,56.93,-111.6028,621.6,286.6,90.7,5.0,0.2,27.08,30.99,1.915,379.0197],
    [16609,1532810437,56.93,-111.6016,620.3,286.0,91.2,4.4,0.7,26.42,31.52,1.9145,379.0197],
    [16610,1532810438,56.93,-111.6004,619.7,285.7,90.8,4.2,0.0,26.41,31.13,1.9137,378.6974],
    [16611,1532810439,56.93,-111.5993,619.0,285.9,89.6,3.3,-1.0,27.13,31.82,1.9157,379.2171],
    [16612,1532810440,56.93,-111.5981,618.2,286.7,91.0,3.9,0.6,27.55,30.28,1.9152,379.3424],
    [16613,1532810441,56.9299,-111.5969,617.5,287.6,90.8,3.5,0.1,26.4,31.44,1.9139,379.8385],
    [16614,1532810442,56.9299,-111.5957,616.5,288.4,90.4,3.3,-0.1,27.88,30.82,1.9142,378.7342],
    [16615,1532810443,56.9299,-111.5946,616.6,290.6,90.8,2.2,0.7,26.97,31.37,1.9124,378.462],
    [16616,1532810444,56.9299,-111.5934,617.6,291.9,91.2,2.8,1.3,26.86,31.3,1.9133,378.148],
    [16617,1532810445,56.9299,-111.5922,618.5,289.7,91.5,1.7,1.6,27.11,31.19,1.9126,378.2359],
    [16618,1532810446,56.9299,-111.591,618.9,288.9,91.6,1.8,1.6,27.48,31.24,1.9141,377.953],
    [16619,1532810447,56.9299,-111.5899,619.7,289.7,91.7,0.8,1.5,27.16,31.87,1.9139,378.9605],
    [16620,1532810448,56.9299,-111.5887,620.6,291.6,91.5,0.6,1.5,27.4,31.22,1.9134,378.3316],
    [16621,1532810449,56.9299,-111.5876,620.9,291.9,92.6,0.2,2.9,26.37,31.22,1.9134,378.3316],
    [16622,1532810450,56.9299,-111.5864,620.8,292.0,92.3,-0.2,2.7,26.5,31.23,1.9131,378.2384],
    [16623,1532810451,56.9299,-111.5852,620.6,292.6,91.8,-0.3,2.3,26.9,31.02,1.9122,378.8375],
    [16624,1532810452,56.9299,-111.5841,620.5,292.5,91.3,0.7,1.8,27.23,30.47,1.9131,378.8342],
    [16625,1532810453,56.9299,-111.5829,621.0,294.0,91.3,0.7,2.1,26.93,30.52,1.9149,378.8342],
    [16626,1532810454,56.9299,-111.5818,621.8,294.8,91.3,0.3,1.9,27.04,31.06,1.9142,379.1797],
    [16627,1532810455,56.9299,-111.5806,622.6,296.5,89.3,0.4,-0.1,27.6,29.61,1.9125,378.854],
    [16628,1532810456,56.9299,-111.5795,623.1,297.1,89.6,0.5,1.6,27.03,30.77,1.9108,378.854],
    [16629,1532810457,56.93,-111.5783,623.2,297.5,89.7,1.4,2.9,27.08,30.62,1.9126,379.6064],
    [16630,1532810458,56.93,-111.5772,622.7,297.7,85.0,2.3,0.6,27.2,30.18,1.9133,379.129],
    [16631,1532810459,56.9301,-111.576,622.9,297.9,83.3,2.4,2.8,26.74,30.19,1.914,379.1039],
    [16632,1532810460,56.9302,-111.5749,623.8,299.8,80.8,1.7,3.2,26.85,30.5,1.9131,378.7321],
    [16633,1532810461,56.9303,-111.5738,625.6,302.6,76.4,1.1,1.8,27.08,30.95,1.9129,379.5428],
    [16634,1532810462,56.9305,-111.5727,627.4,305.4,72.0,1.1,0.9,26.93,31.03,1.9125,379.0662],
    [16635,1532810463,56.9307,-111.5716,629.9,307.9,68.0,0.4,0.9,26.62,30.47,1.9129,379.7519],
    [16636,1532810464,56.931,-111.5706,632.4,310.2,63.7,-0.1,1.2,26.82,30.5,1.9134,379.098],
    [16637,1532810465,56.9313,-111.5696,634.7,311.7,59.1,-0.4,0.2,26.69,30.48,1.9147,379.098],
    [16638,1532810466,56.9316,-111.5687,636.5,313.5,54.0,-0.3,-0.7,27.19,30.7,1.9145,377.9809],
    [16639,1532810467,56.932,-111.5678,638.2,315.2,49.9,-0.4,-0.6,26.6,30.49,1.914,378.7347],
    [16640,1532810468,56.9324,-111.5669,639.0,316.0,46.1,-0.7,-0.4,27.2,31.22,1.9148,378.4641],
    [16641,1532810469,56.9329,-111.5661,638.4,315.4,42.6,-0.5,0.3,26.43,30.6,1.9145,379.3761],
    [16642,1532810470,56.9334,-111.5654,637.2,315.2,37.8,0.0,-0.4,27.36,30.48,1.9158,377.9243],
    [16643,1532810471,56.9339,-111.5647,635.4,313.4,32.9,0.4,-1.7,26.92,30.78,1.9195,378.39],
    [16644,1532810472,56.9344,-111.5642,633.1,312.1,30.2,0.3,-0.6,26.94,31.19,1.9262,377.1075],
    [16645,1532810473,56.9349,-111.5636,630.6,310.6,26.0,2.0,0.5,26.94,31.53,1.926,377.1075],
    [16646,1532810474,56.9355,-111.5631,628.5,309.2,22.7,2.5,0.1,27.05,32.42,1.9229,378.1155],
    [16647,1532810475,56.936,-111.5627,626.7,307.8,20.8,2.3,0.5,27.16,32.28,1.9209,378.2247],
    [16648,1532810476,56.9366,-111.5622,625.5,307.5,19.4,1.6,0.7,27.94,32.15,1.9208,377.3382],
    [16649,1532810477,56.9372,-111.5619,624.9,307.9,17.7,1.6,0.1,27.08,33.46,1.9224,376.7914],
    [16650,1532810478,56.9378,-111.5615,623.8,307.8,16.0,1.9,1.1,26.55,32.95,1.9229,377.4524],
    [16651,1532810479,56.9384,-111.5612,622.0,306.0,13.9,2.3,0.9,27.82,32.54,1.9236,377.4524],
    [16652,1532810480,56.939,-111.5609,619.7,304.7,12.1,2.0,1.5,26.91,33.25,1.921,377.0926],
    [16653,1532810481,56.9396,-111.5607,617.1,302.1,10.7,1.1,1.6,27.1,34.19,1.9179,377.9362],
    [16654,1532810482,56.9402,-111.5605,615.3,300.3,7.6,2.0,1.5,26.71,33.82,1.917,377.2373],
    [16655,1532810483,56.9409,-111.5603,613.7,298.7,6.5,1.2,1.5,27.07,33.35,1.9174,378.0058],
    [16656,1532810484,56.9415,-111.5602,612.0,297.0,5.2,1.3,2.0,27.41,33.06,1.917,377.3561],
    [16657,1532810485,56.9421,-111.56,610.7,295.7,2.7,2.7,1.7,26.77,33.29,1.9163,377.3234],
    [16658,1532810486,56.9427,-111.56,610.1,295.1,361.6,2.2,0.3,27.57,32.38,1.9176,376.8255],
    [16659,1532810487,56.9434,-111.5599,609.9,294.9,361.1,1.8,0.0,27.12,33.91,1.9183,376.8533],
    [16660,1532810488,56.944,-111.5599,610.2,295.2,359.0,2.9,0.0,26.82,33.13,1.917,377.5926],
    [16661,1532810489,56.9446,-111.5599,610.4,295.4,358.8,2.3,0.4,26.77,33.15,1.9125,378.1469],
    [16662,1532810490,56.9452,-111.5598,610.3,295.3,358.2,2.4,0.6,27.1,32.81,1.9164,377.3593],
    [16663,1532810491,56.9459,-111.5598,610.0,294.0,358.1,2.2,0.3,26.4,32.85,1.9178,377.5469],
    [16664,1532810492,56.9465,-111.5599,609.6,293.6,358.6,1.3,0.4,26.84,32.66,1.9196,377.4622],
    [16665,1532810493,56.9471,-111.5599,609.6,293.6,358.3,1.6,-0.1,27.98,32.14,1.919,377.0469],
    [16666,1532810494,56.9477,-111.5599,609.8,293.3,357.9,1.9,-1.2,27.5,32.27,1.9171,377.5018],
    [16667,1532810495,56.9483,-111.5599,609.9,292.9,357.7,2.3,-1.8,27.2,33.02,1.9156,377.0296],
    [16668,1532810496,56.949,-111.5599,610.5,292.3,357.4,2.6,-1.4,26.9,32.71,1.9165,377.8762],
    [16669,1532810497,56.9496,-111.5599,611.1,293.1,358.1,2.1,-1.2,26.66,32.54,1.9168,377.5942],
    [16670,1532810498,56.9502,-111.5599,612.0,293.0,357.9,2.4,-0.7,27.17,33.33,1.9174,376.7629],
    [16671,1532810499,56.9508,-111.5599,612.7,292.9,358.6,1.7,-1.6,27.14,33.42,1.9181,375.9884],
    [16672,1532810500,56.9514,-111.5599,612.8,292.8,358.8,1.6,-2.1,26.64,33.37,1.9198,376.9081],
    [16673,1532810501,56.952,-111.5599,612.7,292.7,358.6,1.7,-1.8,27.07,33.44,1.9212,377.058],
    [16674,1532810502,56.9526,-111.5599,612.6,291.7,358.7,1.5,-1.9,27.04,33.47,1.9191,376.8338],
    [16675,1532810503,56.9533,-111.5599,612.2,291.2,358.7,1.6,-2.0,26.81,33.99,1.9175,375.9654],
    [16676,1532810504,56.9539,-111.5599,611.6,290.6,357.9,2.3,-1.4,26.98,34.39,1.9153,377.53],
    [16677,1532810505,56.9545,-111.5599,612.5,291.8,358.8,1.3,-1.0,27.05,34.02,1.9154,377.28],
    [16678,1532810506,56.9551,-111.5599,613.5,293.5,359.3,1.1,-1.0,27.48,33.49,1.9181,376.4506],
    [16679,1532810507,56.9557,-111.5599,613.7,293.6,360.3,0.5,-1.3,27.09,33.43,1.9211,375.3457],
    [16680,1532810508,56.9563,-111.5599,613.3,293.2,360.9,0.2,-1.4,26.86,33.45,1.9213,376.2642],
    [16681,1532810509,56.9569,-111.5599,612.7,293.6,360.4,0.8,-2.1,26.47,33.71,1.9217,375.7572],
    [16682,1532810510,56.9575,-111.5598,612.3,295.3,360.3,0.6,-1.7,26.9,34.06,1.9201,376.1497],
    [16683,1532810511,56.9581,-111.5598,611.6,295.6,360.6,0.2,-1.7,27.03,34.33,1.9184,376.4377],
    [16684,1532810512,56.9587,-111.5598,610.2,293.2,360.2,0.5,-0.9,26.67,34.42,1.9157,376.1394],
    [16685,1532810513,56.9593,-111.5598,608.6,290.9,359.3,1.3,0.0,26.58,34.28,1.9151,377.6102],
    [16686,1532810514,56.96,-111.5598,606.8,288.5,359.0,1.1,-0.3,27.43,33.73,1.9146,376.9446],
    [16687,1532810515,56.9606,-111.5598,604.5,286.5,359.8,-0.1,-0.2,28.0,33.33,1.9179,376.3154],
    [16688,1532810516,56.9612,-111.5598,601.9,283.9,359.0,0.7,0.7,27.02,34.76,1.9178,377.2285],
    [16689,1532810517,56.9618,-111.5598,599.9,281.9,358.6,0.9,0.4,26.83,33.87,1.9178,375.5592],
    [16690,1532810518,56.9624,-111.5598,598.2,280.2,358.7,1.1,1.1,27.25,33.87,1.9207,374.9267],
    [16691,1532810519,56.963,-111.5598,596.7,278.7,357.8,2.5,1.1,27.18,34.13,1.9243,375.5054],
    [16692,1532810520,56.9637,-111.5598,595.3,277.3,358.3,2.4,0.9,27.06,34.4,1.9248,375.5054],
    [16693,1532810521,56.9643,-111.5598,593.6,276.6,358.6,2.5,1.3,26.61,34.95,1.9202,376.1459],
    [16694,1532810522,56.9649,-111.5598,591.4,275.5,358.4,2.7,2.0,26.87,35.37,1.9216,375.0137],
    [16695,1532810523,56.9655,-111.5598,589.1,273.1,358.4,2.4,2.8,27.64,35.01,1.9235,376.0465],
    [16696,1532810524,56.9662,-111.5598,587.7,272.7,357.8,2.7,2.7,27.08,35.78,1.9229,375.9932],
    [16697,1532810525,56.9668,-111.5598,586.9,272.9,357.3,3.0,2.5,26.97,35.86,1.9192,375.8011],
    [16698,1532810526,56.9674,-111.5598,586.5,273.5,356.7,3.3,2.7,27.28,35.83,1.92,375.8011],
    [16699,1532810527,56.968,-111.5598,586.0,273.0,358.0,2.0,3.1,27.21,35.75,1.9204,375.6588],
    [16700,1532810528,56.9687,-111.5598,586.4,272.3,358.6,1.5,3.4,26.76,36.03,1.9223,375.8872],
    [16701,1532810529,56.9693,-111.5598,586.7,272.1,359.6,0.6,3.7,26.96,36.0,1.9211,375.1509],
    [16702,1532810530,56.9699,-111.5598,587.1,270.8,359.1,1.0,3.4,27.1,36.54,1.9219,375.1509],
    [16703,1532810531,56.9706,-111.5598,586.9,267.1,359.0,0.5,4.0,27.18,36.06,1.9212,376.3681],
    [16704,1532810532,56.9712,-111.5598,586.6,264.9,358.2,1.0,4.0,26.85,36.66,1.9211,375.6225],
    [16705,1532810533,56.9718,-111.5599,586.9,264.0,357.4,1.5,4.1,26.54,36.3,1.9203,375.4185],
    [16706,1532810534,56.9724,-111.5599,587.6,264.6,357.9,1.2,4.5,26.83,36.37,1.9223,375.443],
    [16707,1532810535,56.973,-111.5599,587.9,264.2,357.7,1.6,4.9,26.99,36.66,1.9238,375.443],
    [16708,1532810536,56.9737,-111.5599,588.3,264.3,358.2,1.2,5.0,27.33,36.15,1.9217,376.5845],
    [16709,1532810537,56.9743,-111.5599,588.3,264.3,358.4,1.5,5.1,26.68,36.78,1.9211,376.1144],
    [16710,1532810538,56.9749,-111.5599,588.0,264.0,357.8,2.2,5.1,26.92,36.61,1.9212,375.5799],
    [16711,1532810539,56.9755,-111.5599,587.7,263.7,358.6,1.2,4.8,27.27,36.6,1.9232,375.5799],
    [16712,1532810540,56.9761,-111.5599,586.9,262.9,359.0,1.2,5.1,26.67,37.05,1.9229,372.5997],
    [16713,1532810541,56.9768,-111.5599,587.0,263.0,358.0,2.2,6.3,26.27,37.54,1.9234,373.8688],
    [16714,1532810542,56.9774,-111.5599,587.1,263.1,359.2,1.1,6.7,26.6,38.02,1.9221,374.6258],
    [16715,1532810543,56.978,-111.5599,587.7,264.7,358.8,1.7,6.9,27.29,37.78,1.9209,374.4545],
    [16716,1532810544,56.9786,-111.5599,588.6,266.6,358.9,1.6,7.5,26.69,38.48,1.9208,374.2896],
    [16717,1532810545,56.9792,-111.5599,589.2,268.9,359.6,1.0,7.5,26.83,39.24,1.9209,374.2896],
    [16718,1532810546,56.9799,-111.5599,589.6,271.6,359.1,1.6,7.1,26.62,38.85,1.9174,375.4586],
    [16719,1532810547,56.9805,-111.5599,589.9,275.0,358.7,1.8,7.2,27.22,38.0,1.9185,375.1675],
    [16720,1532810548,56.9811,-111.5599,590.7,278.2,359.0,1.2,7.4,26.96,38.12,1.9196,375.4609],
    [16721,1532810549,56.9817,-111.5599,591.2,282.2,359.1,0.8,7.5,26.21,37.92,1.9204,375.441],
    [16722,1532810550,56.9823,-111.5599,591.5,282.5,357.6,2.0,7.1,26.49,38.22,1.9233,375.6711],
    [16723,1532810551,56.9829,-111.5599,592.1,283.1,355.8,3.1,7.2,26.43,37.75,1.9245,375.4748],
    [16724,1532810552,56.9835,-111.5599,593.0,284.0,356.4,1.9,6.6,27.13,37.71,1.9225,374.9483],
    [16725,1532810553,56.9841,-111.56,593.5,284.5,357.9,0.5,5.8,26.73,38.59,1.9237,375.3823],
    [16726,1532810554,56.9848,-111.56,593.5,284.5,357.9,0.7,5.6,27.01,38.8,1.9251,375.3354],
    [16727,1532810555,56.9854,-111.56,593.5,284.5,357.6,1.0,5.7,26.58,39.32,1.9215,375.0968],
    [16728,1532810556,56.986,-111.56,594.0,285.0,356.4,2.2,5.4,25.86,38.82,1.9217,375.047],
    [16729,1532810557,56.9866,-111.5601,595.5,284.1,355.8,2.6,5.1,25.89,38.81,1.9205,376.2274],
    [16730,1532810558,56.9872,-111.5601,597.5,284.2,356.5,2.2,4.5,26.3,38.63,1.9207,376.2509],
    [16731,1532810559,56.9878,-111.5601,600.0,284.2,356.5,2.6,3.4,27.27,37.97,1.9191,376.4657],
    [16732,1532810560,56.9884,-111.5601,602.5,284.8,357.0,2.4,2.8,26.95,37.89,1.9202,376.4657],
    [16733,1532810561,56.989,-111.5602,605.2,286.2,357.3,2.3,2.1,27.25,37.69,1.9215,376.5264],
    [16734,1532810562,56.9895,-111.5602,607.5,288.5,357.2,2.5,1.5,26.95,37.83,1.9219,375.6717],
    [16735,1532810563,56.9901,-111.5602,609.6,290.6,357.0,2.7,0.7,26.44,38.01,1.9205,375.6579],
    [16736,1532810564,56.9907,-111.5602,611.4,292.4,357.4,2.3,-0.1,26.58,37.71,1.9208,376.3149],
    [16737,1532810565,56.9913,-111.5602,612.9,293.9,357.4,2.5,-0.7,26.78,37.69,1.9213,374.9585],
    [16738,1532810566,56.9919,-111.5602,614.3,295.3,357.2,2.7,-0.7,26.5,38.02,1.9216,376.0913],
    [16739,1532810567,56.9925,-111.5602,615.8,295.8,357.6,2.2,-0.9,25.83,38.41,1.9225,375.3765],
    [16740,1532810568,56.993,-111.5602,617.7,297.7,357.5,2.2,-1.0,26.06,38.45,1.9214,376.0603],
    [16741,1532810569,56.9936,-111.5602,620.0,299.7,357.7,1.6,-1.4,26.02,38.39,1.9214,375.5841],
    [16742,1532810570,56.9942,-111.5603,621.9,300.9,357.4,1.9,-1.8,26.25,38.32,1.923,375.5086],
    [16743,1532810571,56.9948,-111.5603,623.6,302.5,356.8,2.3,-1.9,26.17,38.3,1.9217,375.3934],
    [16744,1532810572,56.9953,-111.5603,625.1,303.1,356.9,2.0,-2.4,26.77,37.85,1.9201,375.4562],
    [16745,1532810573,56.9959,-111.5603,627.4,304.8,356.2,2.4,-3.1,25.8,38.51,1.9195,375.0327],
    [16746,1532810574,56.9965,-111.5604,630.6,307.7,356.2,1.9,-3.2,26.34,38.74,1.9196,376.0647],
    [16747,1532810575,56.997,-111.5604,633.9,311.0,356.3,1.9,-3.6,25.84,38.09,1.9199,376.6211],
    [16748,1532810576,56.9976,-111.5604,636.7,313.6,356.0,2.6,-3.8,26.54,37.98,1.9203,376.1506],
    [16749,1532810577,56.9981,-111.5605,638.5,315.4,356.7,2.5,-4.8,26.45,37.83,1.922,375.8426],
    [16750,1532810578,56.9987,-111.5605,639.5,316.3,357.3,2.5,-4.8,26.42,38.22,1.9212,376.578],
    [16751,1532810579,56.9992,-111.5605,640.1,316.9,357.5,2.5,-5.1,26.65,37.43,1.9217,376.2674],
    [16752,1532810580,56.9998,-111.5605,640.6,318.0,357.6,2.5,-5.0,25.95,37.72,1.9237,375.4853],
    [16753,1532810581,57.0003,-111.5605,640.9,319.3,357.1,3.0,-5.3,27.36,37.58,1.9207,375.4305],
    [16754,1532810582,57.0009,-111.5605,641.0,319.2,357.3,2.6,-5.2,26.54,38.04,1.9215,376.5717],
    [16755,1532810583,57.0015,-111.5605,640.9,318.9,357.4,2.5,-5.6,25.96,38.89,1.9232,377.217],
    [16756,1532810584,57.002,-111.5605,641.1,318.0,356.8,3.0,-4.8,27.2,38.06,1.9242,377.217],
    [16757,1532810585,57.0026,-111.5605,641.2,318.0,356.4,3.2,-4.9,26.43,38.74,1.9229,375.2588],
    [16758,1532810586,57.0031,-111.5606,641.0,318.0,356.9,2.6,-4.8,25.97,39.0,1.9243,375.2588],
    [16759,1532810587,57.0037,-111.5606,640.7,317.8,356.5,2.9,-4.7,26.92,38.61,1.9203,375.3012],
    [16760,1532810588,57.0042,-111.5606,640.7,317.8,356.1,3.1,-4.8,27.01,38.28,1.9209,376.2364],
    [16761,1532810589,57.0048,-111.5606,640.2,318.2,356.4,2.6,-4.9,26.25,38.57,1.922,375.3392],
    [16762,1532810590,57.0054,-111.5607,638.9,317.0,356.0,3.1,-4.8,25.99,38.32,1.9251,375.795],
    [16763,1532810591,57.006,-111.5607,637.3,316.2,355.3,3.8,-4.7,27.2,37.42,1.9263,376.2449],
    [16764,1532810592,57.0065,-111.5607,636.0,315.0,355.8,3.2,-4.6,26.39,37.87,1.9263,376.0471],
    [16765,1532810593,57.0071,-111.5607,634.8,313.8,356.5,2.7,-3.7,26.29,38.45,1.9275,375.5722],
    [16766,1532810594,57.0077,-111.5608,633.5,312.5,356.2,2.9,-4.2,26.32,39.21,1.9255,375.5722],
    [16767,1532810595,57.0083,-111.5608,631.7,310.7,357.4,1.8,-4.2,26.22,38.8,1.9219,376.4365],
    [16768,1532810596,57.0088,-111.5608,629.5,308.8,357.4,2.0,-4.1,26.35,38.72,1.9175,376.7343],
    [16769,1532810597,57.0094,-111.5608,627.4,307.4,357.4,2.2,-4.1,26.14,38.23,1.9183,376.3842],
    [16770,1532810598,57.01,-111.5608,626.0,306.0,358.3,1.3,-3.6,26.17,38.29,1.919,376.377],
    [16771,1532810599,57.0106,-111.5609,624.8,304.8,358.3,1.5,-3.4,26.74,37.36,1.9194,376.204],
    [16772,1532810600,57.0112,-111.5609,623.5,303.5,357.5,2.4,-2.9,26.76,36.83,1.9207,376.6341],
    [16773,1532810601,57.0118,-111.5609,621.8,301.8,357.4,2.5,-2.5,25.92,36.9,1.9196,376.1992],
    [16774,1532810602,57.0124,-111.5609,619.5,299.5,357.3,2.5,-2.9,27.26,36.19,1.9181,376.1977],
    [16775,1532810603,57.013,-111.5609,617.1,297.1,357.4,2.5,-3.1,26.93,36.22,1.9178,376.4079],
    [16776,1532810604,57.0136,-111.5609,615.5,295.9,357.7,2.5,-3.3,26.88,36.88,1.9172,376.6892],
    [16777,1532810605,57.0142,-111.5609,614.2,295.2,358.3,2.2,-3.1,26.23,36.17,1.9168,376.8672],
    [16778,1532810606,57.0148,-111.5609,613.0,294.0,358.8,2.1,-3.1,26.23,36.09,1.9165,377.218],
    [16779,1532810607,57.0154,-111.5609,612.0,293.0,359.4,1.5,-3.1,25.96,35.99,1.9183,377.5548],
    [16780,1532810608,57.016,-111.5609,611.1,292.1,359.7,1.2,-2.3,26.12,35.8,1.9225,376.2157],
    [16781,1532810609,57.0166,-111.5609,609.8,290.8,358.9,2.1,-2.2,26.68,35.69,1.9223,377.5692],
    [16782,1532810610,57.0172,-111.5609,608.3,289.3,358.9,2.1,-2.9,26.65,35.92,1.9274,377.1723],
    [16783,1532810611,57.0178,-111.5608,607.1,288.1,359.0,2.1,-3.5,26.82,35.73,1.9289,377.61],
    [16784,1532810612,57.0184,-111.5608,607.1,289.1,359.4,1.8,-3.3,26.48,36.18,1.9293,376.7189],
    [16785,1532810613,57.019,-111.5608,607.4,289.4,359.5,1.8,-2.8,26.54,37.27,1.9298,377.5365],
    [16786,1532810614,57.0196,-111.5608,607.4,289.4,359.6,1.6,-2.1,27.04,36.28,1.9302,377.3697],
    [16787,1532810615,57.0202,-111.5608,607.4,289.4,360.1,1.0,-1.6,26.13,36.91,1.9266,377.684],
    [16788,1532810616,57.0208,-111.5607,607.4,290.1,359.9,1.4,-2.0,26.33,36.89,1.9279,376.5285],
    [16789,1532810617,57.0215,-111.5607,607.4,290.4,358.8,2.5,-2.1,27.2,36.69,1.9288,378.0602],
    [16790,1532810618,57.0221,-111.5607,607.0,290.0,358.4,2.6,-2.0,26.6,36.9,1.9243,377.3704],
    [16791,1532810619,57.0227,-111.5607,606.1,289.1,357.8,2.7,-1.5,26.4,37.5,1.9249,376.3805],
    [16792,1532810620,57.0233,-111.5607,604.7,287.7,357.6,2.5,-1.5,26.39,37.26,1.923,376.3805],
    [16793,1532810621,57.0239,-111.5607,602.8,286.8,357.5,2.4,-0.6,26.35,37.21,1.9229,376.9119],
    [16794,1532810622,57.0245,-111.5607,600.6,284.6,358.1,1.7,-0.5,26.98,37.16,1.9222,378.2007],
    [16795,1532810623,57.0251,-111.5607,598.5,282.5,357.8,2.1,-0.1,26.78,37.11,1.9217,376.8466],
    [16796,1532810624,57.0257,-111.5607,596.9,280.9,358.0,1.9,0.2,26.81,36.71,1.919,376.8475],
    [16797,1532810625,57.0264,-111.5607,595.4,279.4,359.1,1.1,0.7,26.91,36.3,1.9187,377.0264],
    [16798,1532810626,57.027,-111.5607,593.2,277.2,359.5,1.0,1.3,26.73,36.48,1.9188,376.829],
    [16799,1532810627,57.0276,-111.5607,590.4,274.4,359.4,1.3,2.0,26.33,36.25,1.9192,376.6428],
    [16800,1532810628,57.0283,-111.5607,587.5,271.5,358.9,1.7,2.4,26.56,36.33,1.9188,375.785],
    [16801,1532810629,57.0289,-111.5607,585.0,269.0,358.6,2.2,2.6,26.72,37.08,1.9168,376.391],
    [16802,1532810630,57.0295,-111.5607,583.1,267.1,358.6,2.2,2.4,26.5,36.37,1.917,377.0804],
    [16803,1532810631,57.0302,-111.5607,581.5,266.5,358.9,2.0,2.9,26.16,35.49,1.9169,377.4377],
    [16804,1532810632,57.0308,-111.5607,579.6,264.6,359.3,1.8,2.8,26.77,35.37,1.916,376.9401],
    [16805,1532810633,57.0314,-111.5607,577.4,262.4,359.3,2.0,3.4,26.87,35.78,1.9152,377.5265],
    [16806,1532810634,57.0321,-111.5606,575.4,260.4,358.7,2.6,4.1,26.85,35.46,1.9164,376.5369],
    [16807,1532810635,57.0327,-111.5606,573.3,258.3,358.8,2.3,4.9,26.36,35.12,1.9175,377.0529],
    [16808,1532810636,57.0333,-111.5606,571.4,255.4,358.6,2.2,5.3,26.68,36.01,1.9169,377.5966],
    [16809,1532810637,57.034,-111.5606,569.7,253.7,358.2,2.5,5.9,26.78,35.37,1.915,376.6412],
    [16810,1532810638,57.0346,-111.5606,568.0,252.0,358.4,1.9,6.3,26.8,35.74,1.9143,377.5641],
    [16811,1532810639,57.0353,-111.5606,567.0,252.0,358.1,1.8,6.4,27.07,34.59,1.9156,377.4283],
    [16812,1532810640,57.0359,-111.5606,566.1,252.1,358.1,1.6,6.1,26.7,35.68,1.9143,377.2285],
    [16813,1532810641,57.0365,-111.5606,565.3,252.3,358.0,1.8,6.2,27.01,34.51,1.9124,378.021],
    [16814,1532810642,57.0372,-111.5606,565.1,253.1,358.4,1.6,6.4,26.57,34.44,1.9123,378.2567],
    [16815,1532810643,57.0378,-111.5606,564.9,252.9,357.4,2.8,6.8,26.68,34.92,1.9154,377.2083],
    [16816,1532810644,57.0385,-111.5606,564.9,253.6,358.6,1.5,6.7,26.85,34.59,1.9146,377.2083],
    [16817,1532810645,57.0391,-111.5606,565.4,253.4,358.6,1.5,6.8,26.86,33.84,1.914,377.7533],
    [16818,1532810646,57.0398,-111.5606,566.5,255.8,358.2,1.4,7.0,26.98,33.62,1.9129,376.9551],
    [16819,1532810647,57.0404,-111.5607,567.3,258.3,358.6,1.0,6.7,26.71,33.53,1.9113,378.564],
    [16820,1532810648,57.041,-111.5607,567.5,260.0,357.7,2.0,6.7,27.12,32.59,1.9123,377.208],
    [16821,1532810649,57.0417,-111.5607,567.4,264.2,357.8,2.0,7.0,26.95,32.74,1.9118,377.208],
    [16822,1532810650,57.0423,-111.5607,567.8,264.8,358.1,2.0,6.7,27.61,32.09,1.9101,379.3896],
    [16823,1532810651,57.0429,-111.5607,568.2,265.2,358.8,1.2,6.6,27.12,31.53,1.9088,379.4204],
    [16824,1532810652,57.0436,-111.5607,568.9,265.9,359.3,0.9,6.6,27.0,31.54,1.9092,380.4347],
    [16825,1532810653,57.0442,-111.5607,569.3,263.7,358.8,1.2,6.5,26.93,31.25,1.9106,378.4389],
    [16826,1532810654,57.0449,-111.5607,569.3,261.0,358.6,1.5,6.1,26.59,31.21,1.9132,379.1614],
    [16827,1532810655,57.0455,-111.5607,569.1,259.2,357.0,2.8,5.9,26.7,31.33,1.9157,380.7351],
    [16828,1532810656,57.0461,-111.5607,569.0,257.0,357.8,1.8,6.1,26.93,31.57,1.9185,380.2078],
    [16829,1532810657,57.0468,-111.5607,568.7,255.7,357.8,2.0,5.7,26.42,31.96,1.9174,381.5143],
    [16830,1532810658,57.0474,-111.5607,568.6,255.6,357.8,1.9,5.5,26.52,32.39,1.9184,382.5015],
    [16831,1532810659,57.048,-111.5607,568.9,255.9,358.7,1.2,4.9,27.08,33.1,1.9166,385.6091],
    [16832,1532810660,57.0487,-111.5607,569.7,256.7,358.3,1.6,4.3,27.43,33.08,1.9165,390.6414],
    [16833,1532810661,57.0493,-111.5607,570.8,256.8,358.8,1.0,4.4,26.73,34.37,1.9234,396.3476],
    [16834,1532810662,57.0499,-111.5607,571.8,257.8,358.2,1.9,4.4,26.74,34.06,1.922,396.1076],
    [16835,1532810663,57.0506,-111.5608,572.7,258.7,357.1,2.6,3.8,26.54,34.22,1.921,388.1619],
    [16836,1532810664,57.0512,-111.5608,573.5,259.5,357.3,2.1,3.3,26.88,34.46,1.921,397.9092],
    [16837,1532810665,57.0518,-111.5608,574.2,260.2,356.6,2.8,2.9,27.04,34.04,1.9234,399.0783],
    [16838,1532810666,57.0524,-111.5608,574.9,260.9,356.8,2.5,2.1,26.28,34.78,1.9241,382.0891],
    [16839,1532810667,57.0531,-111.5608,575.9,261.9,356.8,2.6,1.5,26.96,35.36,1.9234,379.5197],
    [16840,1532810668,57.0537,-111.5609,577.0,263.0,356.4,2.8,0.4,27.26,34.99,1.9227,379.4331],
    [16841,1532810669,57.0543,-111.5609,578.1,264.1,356.6,2.7,0.3,27.03,35.72,1.9232,379.5667],
    [16842,1532810670,57.0549,-111.5609,579.1,265.1,355.9,3.4,1.3,26.76,36.67,1.9207,380.3435],
    [16843,1532810671,57.0555,-111.5609,579.7,265.7,355.6,3.5,1.3,26.94,37.28,1.9192,380.7811],
    [16844,1532810672,57.0561,-111.561,579.9,265.9,355.4,3.7,1.4,26.28,36.78,1.9169,382.2954],
    [16845,1532810673,57.0568,-111.561,579.8,265.8,355.6,3.7,1.1,26.36,36.64,1.9171,382.1648],
    [16846,1532810674,57.0574,-111.561,579.9,266.7,355.7,3.9,0.8,27.73,35.96,1.9177,381.9192],
    [16847,1532810675,57.058,-111.561,579.9,266.9,356.0,3.9,0.7,26.98,36.46,1.9183,381.1782],
    [16848,1532810676,57.0586,-111.561,579.9,266.4,356.9,3.4,0.9,26.82,36.65,1.9211,378.9962],
    [16849,1532810677,57.0592,-111.561,579.6,265.6,357.1,3.5,0.3,26.85,35.5,1.9276,378.2382],
    [16850,1532810678,57.0598,-111.561,579.2,265.2,357.2,3.7,-0.6,26.95,35.75,1.927,377.1513],
    [16851,1532810679,57.0604,-111.561,579.0,265.0,357.4,3.8,-0.4,27.12,35.39,1.9264,377.7214],
    [16852,1532810680,57.061,-111.561,578.9,264.9,357.9,3.4,-1.2,26.95,35.72,1.9265,377.5026],
    [16853,1532810681,57.0617,-111.561,578.8,265.3,358.1,3.2,-0.9,26.47,36.33,1.9196,377.7002],
    [16854,1532810682,57.0623,-111.561,578.8,265.8,358.1,3.4,-1.2,27.54,35.84,1.9171,375.414],
    [16855,1532810683,57.0629,-111.561,578.6,265.6,358.3,3.0,-1.2,27.12,35.98,1.9181,377.2118],
    [16856,1532810684,57.0635,-111.5609,578.3,265.3,358.8,2.7,-1.6,26.86,36.45,1.92,377.0454],
    [16857,1532810685,57.0641,-111.5609,578.2,265.2,358.5,3.2,-0.9,26.72,36.64,1.9195,375.4752],
    [16858,1532810686,57.0648,-111.5609,578.1,266.1,358.7,3.0,-1.4,26.47,36.29,1.9201,376.8564],
    [16859,1532810687,57.0654,-111.5609,577.8,265.8,358.8,2.9,-1.3,27.03,35.91,1.9204,376.7095],
    [16860,1532810688,57.066,-111.5609,577.7,265.3,358.6,2.8,-1.2,26.85,37.31,1.9206,377.2287],
    [16861,1532810689,57.0666,-111.5608,577.6,265.6,358.9,2.4,-1.6,26.8,36.46,1.919,377.0167],
    [16862,1532810690,57.0672,-111.5608,577.5,266.6,358.4,2.7,-2.2,26.58,35.99,1.9179,378.177],
    [16863,1532810691,57.0679,-111.5608,577.2,267.2,358.1,2.7,-2.1,26.73,35.69,1.9163,376.8451],
    [16864,1532810692,57.0685,-111.5608,576.8,267.8,357.7,2.9,-2.0,26.92,35.33,1.9165,377.1182],
    [16865,1532810693,57.0691,-111.5608,576.2,268.2,357.4,2.8,-2.5,26.99,35.13,1.9163,377.9446],
    [16866,1532810694,57.0697,-111.5608,575.3,268.2,357.8,2.1,-2.1,26.63,34.55,1.9204,376.8607],
    [16867,1532810695,57.0703,-111.5608,574.2,270.9,357.3,2.8,-3.0,26.89,34.42,1.9214,376.3397],
    [16868,1532810696,57.071,-111.5608,574.0,273.4,356.5,3.5,-2.4,27.08,34.84,1.9212,378.235],
    [16869,1532810697,57.0716,-111.5609,573.7,277.3,358.2,1.9,-2.3,26.82,34.01,1.9238,377.5547],
    [16870,1532810698,57.0723,-111.5609,573.4,282.9,358.3,2.4,-2.0,26.92,34.23,1.9366,377.7673],
    [16871,1532810699,57.0729,-111.5608,572.9,287.0,358.6,2.1,-1.9,26.86,34.22,1.9323,377.9394],
    [16872,1532810700,57.0735,-111.5608,572.9,293.0,360.3,0.4,-1.2,26.93,34.14,1.9376,377.2789],
    [16873,1532810701,57.0742,-111.5608,573.5,299.7,360.1,0.5,-1.2,26.65,34.03,1.9684,377.1921],
    [16874,1532810702,57.0748,-111.5608,573.5,302.1,361.0,-0.3,-0.7,27.72,33.54,1.9886,376.2357],
    [16875,1532810703,57.0754,-111.5608,573.4,303.1,360.7,0.9,-1.1,26.93,34.56,1.9781,376.573],
    [16876,1532810704,57.076,-111.5608,574.1,306.8,360.0,2.1,-0.2,27.07,34.75,1.9724,376.4122],
    [16877,1532810705,57.0767,-111.5607,574.2,311.5,361.5,0.8,-0.4,26.89,34.11,1.9644,376.4122],
    [16878,1532810706,57.0773,-111.5607,573.9,318.2,361.3,1.2,0.2,26.78,34.2,1.9342,376.475],
    [16879,1532810707,57.078,-111.5606,573.3,321.2,360.7,1.8,0.7,26.92,34.65,1.9301,376.475],
    [16880,1532810708,57.0786,-111.5606,572.3,322.9,361.0,1.3,1.0,27.07,34.92,1.9322,376.7277],
    [16881,1532810709,57.0792,-111.5605,571.0,326.7,360.8,1.8,1.5,27.67,34.16,1.9317,377.0016],
    [16882,1532810710,57.0798,-111.5605,570.4,328.8,360.4,2.2,2.4,27.75,33.94,1.934,377.8024],
    [16883,1532810711,57.0805,-111.5604,570.0,332.0,361.3,1.5,3.3,26.66,35.08,1.934,377.2235],
    [16884,1532810712,57.0811,-111.5604,569.2,333.1,360.4,2.3,2.9,27.41,34.73,1.9322,376.0795],
    [16885,1532810713,57.0817,-111.5604,567.3,333.4,360.8,1.1,3.5,27.12,34.89,1.934,376.2554],
    [16886,1532810714,57.0824,-111.5603,565.0,331.0,361.0,0.4,3.2,27.62,34.77,1.9362,375.7831],
    [16887,1532810715,57.083,-111.5603,562.5,328.5,359.9,1.2,4.0,27.09,35.8,1.9384,377.234],
    [16888,1532810716,57.0836,-111.5603,560.4,326.4,359.2,1.7,5.1,27.45,34.58,1.9427,377.234],
    [16889,1532810717,57.0843,-111.5603,558.1,325.1,359.5,1.4,5.6,26.87,35.13,1.9385,377.1904],
    [16890,1532810718,57.0849,-111.5603,554.9,322.9,359.2,2.0,6.1,27.15,34.91,1.9414,376.904],
    [16891,1532810719,57.0856,-111.5602,551.7,320.5,358.8,2.6,6.1,27.07,34.99,2.0116,375.6732],
    [16892,1532810720,57.0863,-111.5602,549.1,317.1,358.0,3.2,6.3,27.01,34.85,2.0454,377.902],
    [16893,1532810721,57.087,-111.5602,546.3,314.3,358.1,2.6,6.6,27.41,34.99,2.0639,376.8932],
    [16894,1532810722,57.0876,-111.5602,543.9,311.9,357.9,2.6,7.4,27.25,34.45,2.0436,377.2678],
    [16895,1532810723,57.0883,-111.5602,541.4,309.4,357.4,3.0,7.5,27.07,34.49,2.1255,375.7791],
    [16896,1532810724,57.089,-111.5602,539.3,307.4,358.0,2.4,7.2,27.7,34.49,2.1331,375.7791],
    [16897,1532810725,57.0897,-111.5602,537.7,306.8,358.4,2.2,6.6,27.82,34.49,2.0944,377.7178],
    [16898,1532810726,57.0904,-111.5602,537.2,305.5,359.0,1.7,6.6,27.53,34.69,2.009,377.6388],
    [16899,1532810727,57.0911,-111.5602,537.7,305.7,359.3,1.4,6.3,26.82,35.72,1.9774,375.6354],
    [16900,1532810728,57.0917,-111.5602,538.1,307.1,358.8,1.9,6.0,27.39,35.42,1.9811,375.6354],
    [16901,1532810729,57.0924,-111.5602,538.4,308.4,358.4,1.9,5.8,27.02,36.22,2.0,376.0784],
    [16902,1532810730,57.0931,-111.5602,539.0,309.0,358.8,1.0,6.0,27.47,35.71,2.0141,376.4535],
    [16903,1532810731,57.0938,-111.5602,539.3,309.3,358.1,1.8,5.2,27.03,37.08,1.9961,376.1439],
    [16904,1532810732,57.0945,-111.5602,539.3,308.4,357.4,2.5,4.9,27.59,36.31,1.9725,376.6789],
    [16905,1532810733,57.0952,-111.5602,539.3,304.8,357.8,2.2,4.7,27.12,36.3,1.9657,375.3634],
    [16906,1532810734,57.0959,-111.5602,539.2,299.3,357.6,2.6,4.0,27.09,36.76,1.9599,375.9986],
    [16907,1532810735,57.0965,-111.5602,539.6,295.8,357.3,2.6,3.9,27.3,36.62,1.957,375.9986],
    [16908,1532810736,57.0972,-111.5602,540.2,294.1,357.5,2.1,3.4,27.49,36.7,1.9459,376.3063],
    [16909,1532810737,57.0978,-111.5603,541.3,294.3,357.0,2.5,3.1,26.92,36.95,1.9497,376.5291],
    [16910,1532810738,57.0984,-111.5603,544.2,296.9,357.0,2.2,2.7,26.87,37.06,1.9548,377.0573],
    [16911,1532810739,57.0991,-111.5603,547.6,300.3,357.7,1.4,2.7,26.65,37.03,1.967,376.5965],
    [16912,1532810740,57.0997,-111.5603,551.0,303.0,357.3,1.9,2.2,27.44,36.49,1.9836,375.7702],
    [16913,1532810741,57.1004,-111.5603,554.2,305.2,357.7,1.5,1.4,26.78,37.25,2.0231,375.7702],
    [16914,1532810742,57.101,-111.5604,557.3,307.3,357.3,2.2,0.6,27.45,36.66,2.0952,374.8891],
    [16915,1532810743,57.1016,-111.5604,560.3,309.0,357.1,2.1,0.1,27.12,36.87,2.1013,376.1474],
    [16916,1532810744,57.1023,-111.5604,563.0,309.0,358.1,0.9,-0.6,26.99,37.96,2.096,376.1474],
    [16917,1532810745,57.1029,-111.5604,565.7,310.7,357.6,1.3,-0.6,27.18,37.36,2.1219,375.6075],
    [16918,1532810746,57.1035,-111.5605,568.3,311.6,357.8,1.3,-0.7,26.89,37.42,2.1329,375.5994],
    [16919,1532810747,57.1042,-111.5605,570.8,313.5,358.2,1.1,-0.9,26.62,37.54,2.1232,375.5565],
    [16920,1532810748,57.1048,-111.5605,572.7,313.7,357.9,1.8,-0.4,27.67,36.89,2.1026,374.9316],
    [16921,1532810749,57.1054,-111.5605,574.0,314.0,358.1,1.8,-0.9,26.97,37.81,2.0873,376.5911],
    [16922,1532810750,57.106,-111.5605,575.3,315.4,358.0,1.9,-0.8,26.96,37.34,2.0658,376.391],
    [16923,1532810751,57.1066,-111.5605,575.5,314.5,357.5,2.2,-0.6,27.18,36.86,2.0743,376.6201],
    [16924,1532810752,57.1072,-111.5605,575.1,314.1,356.9,2.5,-0.5,26.92,37.4,2.003,376.8741],
    [16925,1532810753,57.1079,-111.5606,574.7,313.7,357.1,1.9,0.2,27.38,36.18,1.9852,376.2953],
    [16926,1532810754,57.1085,-111.5606,574.2,313.2,357.0,2.0,0.0,27.66,35.44,1.9614,378.2344],
    [16927,1532810755,57.1091,-111.5606,573.1,312.1,356.7,2.3,0.3,27.16,36.23,1.9621,377.3434],
    [16928,1532810756,57.1097,-111.5606,571.5,310.5,356.4,2.5,0.7,26.92,36.58,2.0703,377.1244],
    [16929,1532810757,57.1103,-111.5607,569.5,308.5,357.1,1.8,1.2,26.97,35.96,2.094,376.8366],
    [16930,1532810758,57.111,-111.5607,567.0,305.3,356.9,2.4,1.6,26.99,35.77,2.0969,375.8597],
    [16931,1532810759,57.1116,-111.5607,564.5,302.5,357.3,2.4,2.4,27.04,36.05,2.094,376.225],
    [16932,1532810760,57.1122,-111.5607,562.8,300.8,358.4,1.6,3.0,26.71,36.2,2.0227,376.9419],
    [16933,1532810761,57.1129,-111.5607,561.3,299.3,359.0,1.3,3.4,26.53,36.21,2.01,377.4236],
    [16934,1532810762,57.1135,-111.5607,558.8,296.8,358.4,2.1,4.2,27.03,36.64,2.014,375.7831],
    [16935,1532810763,57.1142,-111.5607,556.4,294.4,358.7,2.0,4.9,27.54,35.7,1.986,376.5251],
    [16936,1532810764,57.1148,-111.5607,554.0,292.0,359.4,1.4,5.2,27.68,35.55,1.9833,377.785],
    [16937,1532810765,57.1155,-111.5607,552.0,290.0,359.9,1.0,5.4,27.13,36.45,1.9782,377.785],
    [16938,1532810766,57.1161,-111.5607,550.6,288.6,360.0,1.1,4.5,27.32,35.77,1.9571,375.7657],
    [16939,1532810767,57.1168,-111.5607,550.3,287.3,360.2,0.9,4.7,27.48,35.33,1.9467,374.9401],
    [16940,1532810768,57.1174,-111.5606,550.9,287.9,360.6,0.4,5.3,26.75,36.37,1.9407,377.7207],
    [16941,1532810769,57.1181,-111.5606,551.6,288.6,361.0,-0.2,5.6,26.86,36.09,1.9415,376.565],
    [16942,1532810770,57.1187,-111.5606,552.3,289.3,361.4,-0.9,4.4,26.8,36.88,1.9411,377.0382],
    [16943,1532810771,57.1194,-111.5606,552.6,289.6,360.7,-0.4,3.8,26.91,36.56,1.9383,378.0748],
    [16944,1532810772,57.12,-111.5606,552.4,288.4,360.6,-0.6,4.0,26.96,36.08,1.938,377.696],
    [16945,1532810773,57.1206,-111.5606,551.7,287.7,360.1,0.0,4.6,26.96,37.19,1.9381,376.5251],
    [16946,1532810774,57.1213,-111.5606,550.9,285.9,359.3,0.7,5.1,26.79,36.44,1.9366,377.173],
    [16947,1532810775,57.1219,-111.5606,549.8,284.3,359.7,0.5,5.6,26.92,37.2,1.9372,376.1497],
    [16948,1532810776,57.1226,-111.5606,548.7,282.7,359.8,0.5,6.0,27.01,36.77,1.9359,377.5293],
    [16949,1532810777,57.1232,-111.5606,547.8,281.8,360.4,-0.2,6.1,26.84,36.5,1.9354,378.0504],
    [16950,1532810778,57.1239,-111.5606,546.5,280.5,360.6,-0.2,6.1,26.93,36.38,1.9339,377.8913],
    [16951,1532810779,57.1245,-111.5606,545.5,279.5,359.4,0.9,6.4,27.32,36.01,1.9347,377.1829],
    [16952,1532810780,57.1252,-111.5606,544.9,278.9,359.9,0.4,6.3,26.86,36.32,1.9346,377.7875],
    [16953,1532810781,57.1258,-111.5606,543.6,277.6,360.2,0.7,6.1,27.31,36.31,1.9317,377.7456],
    [16954,1532810782,57.1265,-111.5605,542.4,275.4,360.2,1.1,6.0,27.27,36.44,1.9335,376.5308],
    [16955,1532810783,57.1271,-111.5605,541.5,274.5,360.5,1.1,5.5,26.33,36.93,1.9324,377.032],
    [16956,1532810784,57.1278,-111.5605,540.8,273.8,360.5,1.3,5.4,27.34,36.85,1.9327,377.2749],
    [16957,1532810785,57.1284,-111.5605,539.8,272.8,360.9,1.1,5.4,26.71,37.33,1.9349,377.072],
    [16958,1532810786,57.1291,-111.5604,539.5,272.5,360.3,1.8,4.9,27.6,36.9,1.9337,376.952],
    [16959,1532810787,57.1297,-111.5604,539.8,272.8,360.7,1.2,5.1,27.03,38.19,1.9336,377.5602],
    [16960,1532810788,57.1304,-111.5604,540.3,274.3,360.8,1.1,4.8,27.38,37.09,1.9359,376.3594],
    [16961,1532810789,57.131,-111.5603,541.1,275.1,360.3,1.2,4.9,27.06,38.33,1.9336,377.0174],
    [16962,1532810790,57.1317,-111.5603,542.3,276.3,360.4,0.4,5.8,26.96,38.33,1.9339,376.4086],
    [16963,1532810791,57.1323,-111.5603,544.0,277.7,360.4,0.1,5.9,26.78,38.22,1.9336,376.626],
    [16964,1532810792,57.1329,-111.5603,545.4,278.4,359.8,0.5,5.2,26.83,38.03,1.9316,377.1939],
    [16965,1532810793,57.1336,-111.5603,546.1,279.1,360.0,0.4,4.4,27.12,38.1,1.9308,375.5576],
    [16966,1532810794,57.1342,-111.5603,545.8,278.8,360.2,0.4,3.6,26.56,38.29,1.9307,377.9107],
    [16967,1532810795,57.1348,-111.5603,544.8,276.8,360.0,0.6,3.4,27.12,38.11,1.9333,376.8733],
    [16968,1532810796,57.1355,-111.5602,543.9,275.9,359.6,0.9,3.8,27.17,37.76,1.9327,377.2458],
    [16969,1532810797,57.1361,-111.5602,544.0,275.8,359.2,1.2,3.9,27.21,37.68,1.9326,377.1036],
    [16970,1532810798,57.1367,-111.5602,544.7,276.6,359.5,0.8,3.2,27.02,37.89,1.9334,377.2209],
    [16971,1532810799,57.1374,-111.5602,545.5,277.5,359.7,0.6,1.8,26.93,38.6,1.9336,377.2209],
    [16972,1532810800,57.138,-111.5602,546.3,278.3,359.0,1.6,1.3,26.74,38.31,1.933,378.1694],
    [16973,1532810801,57.1386,-111.5602,547.0,278.1,358.2,2.5,1.5,26.54,37.79,1.933,375.0292],
    [16974,1532810802,57.1392,-111.5602,547.7,277.7,358.6,2.0,0.4,26.88,37.89,1.932,375.0292],
    [16975,1532810803,57.1399,-111.5602,548.6,277.4,359.0,1.5,0.4,27.7,37.15,1.9314,377.2185],
    [16976,1532810804,57.1405,-111.5602,549.4,277.4,359.3,0.3,0.1,27.51,37.46,1.9312,376.4176],
    [16977,1532810805,57.1411,-111.5602,550.0,277.2,359.1,-1.2,0.4,26.99,37.66,1.9329,377.3429],
    [16978,1532810806,57.1417,-111.5603,550.0,277.0,355.2,-0.1,0.0,27.24,37.9,1.9336,377.0526],
    [16979,1532810807,57.1423,-111.5604,549.9,276.9,350.3,0.6,-0.1,27.18,37.88,1.9307,377.0057],
    [16980,1532810808,57.1429,-111.5607,549.8,276.8,345.5,0.4,0.5,26.89,37.09,1.9326,376.0304],
    [16981,1532810809,57.1435,-111.561,549.5,276.5,340.4,1.4,0.6,26.96,38.14,1.9325,376.8252],
    [16982,1532810810,57.1441,-111.5614,548.7,275.7,335.4,2.1,1.1,26.8,37.53,1.9321,377.4422],
    [16983,1532810811,57.1447,-111.5619,548.2,274.2,331.3,2.0,1.7,26.96,37.85,1.9335,377.5398],
    [16984,1532810812,57.1452,-111.5624,548.1,274.1,328.2,1.8,1.0,26.47,37.58,1.9349,377.3584],
    [16985,1532810813,57.1457,-111.563,547.9,275.0,324.7,2.0,0.8,27.33,37.03,1.9341,377.3529],
    [16986,1532810814,57.1462,-111.5636,547.2,274.2,320.5,2.7,0.7,26.62,37.78,1.9352,375.6681],
    [16987,1532810815,57.1467,-111.5643,546.3,273.3,316.7,2.6,0.9,27.37,37.58,1.9372,377.4067],
    [16988,1532810816,57.1471,-111.5651,545.2,273.2,312.9,2.6,1.3,26.67,38.61,1.9374,375.7066],
    [16989,1532810817,57.1475,-111.5659,544.4,272.6,309.4,2.4,1.9,26.83,38.19,1.936,377.2925],
    [16990,1532810818,57.1479,-111.5668,543.7,272.8,306.4,2.9,1.9,27.05,38.27,1.9391,377.1119],
    [16991,1532810819,57.1483,-111.5676,543.5,272.0,303.6,2.7,2.2,27.29,38.22,1.9405,377.0315],
    [16992,1532810820,57.1486,-111.5685,543.9,273.5,302.0,2.5,0.9,27.6,38.14,1.9393,376.8703],
    [16993,1532810821,57.149,-111.5695,545.1,280.8,299.7,2.3,1.0,27.43,38.25,1.9391,375.3095],
    [16994,1532810822,57.1493,-111.5704,545.7,282.7,296.5,2.9,1.2,27.28,38.82,1.9343,376.1808],
    [16995,1532810823,57.1495,-111.5714,546.0,283.0,292.4,3.9,1.4,27.82,38.34,1.934,376.1892],
    [16996,1532810824,57.1497,-111.5724,545.5,282.8,288.1,4.3,2.3,27.19,38.01,1.9374,376.303],
    [16997,1532810825,57.1499,-111.5734,544.3,281.8,284.1,3.6,2.6,27.04,38.99,1.9358,376.5847],
    [16998,1532810826,57.1501,-111.5744,542.5,279.7,281.2,3.7,2.3,27.18,38.22,1.9356,376.5847],
    [16999,1532810827,57.1502,-111.5755,540.8,274.7,277.6,3.6,2.8,27.5,37.67,1.9358,377.0265],
    [17000,1532810828,57.1503,-111.5765,539.6,271.6,275.8,3.4,1.9,26.98,38.53,1.9376,376.9684],
    [17001,1532810829,57.1504,-111.5776,538.4,267.7,273.2,2.9,2.1,27.14,38.37,1.9362,376.754],
    [17002,1532810830,57.1504,-111.5787,536.7,263.7,269.5,2.9,3.4,26.73,38.32,1.9378,376.8859],
    [17003,1532810831,57.1504,-111.5797,534.4,261.4,267.7,2.0,2.9,27.68,37.53,1.9389,376.8859],
    [17004,1532810832,57.1504,-111.5808,531.9,258.9,266.3,1.7,2.9,27.44,37.84,1.9401,376.6271],
    [17005,1532810833,57.1504,-111.5819,529.3,256.3,265.5,1.3,2.8,27.2,38.59,1.9394,378.305],
    [17006,1532810834,57.1504,-111.583,527.6,255.6,265.8,0.3,2.2,27.45,38.23,1.9396,377.2813],
    [17007,1532810835,57.1504,-111.5841,526.7,254.7,265.5,-0.4,2.7,26.93,38.55,1.9397,377.4345],
    [17008,1532810836,57.1503,-111.5852,525.0,253.0,266.0,-0.9,2.5,26.83,38.73,1.9404,377.6897],
    [17009,1532810837,57.1503,-111.5862,523.2,250.2,266.6,-1.1,2.2,27.24,39.19,1.9398,375.525],
    [17010,1532810838,57.1503,-111.5873,521.3,248.3,266.7,-0.7,2.3,27.02,38.37,1.9392,375.2439],
    [17011,1532810839,57.1503,-111.5884,519.6,246.6,266.5,-0.9,2.5,26.71,38.43,1.9393,375.9039],
    [17012,1532810840,57.1503,-111.5895,518.3,246.6,266.4,-1.0,2.8,27.96,38.1,1.9403,376.0466],
    [17013,1532810841,57.1503,-111.5906,517.4,246.7,266.5,-1.3,2.8,27.2,38.76,1.9385,376.5401],
    [17014,1532810842,57.1503,-111.5917,516.8,246.8,266.7,-1.7,2.7,27.15,39.19,1.9373,376.5401],
    [17015,1532810843,57.1502,-111.5928,516.2,247.2,266.7,-1.7,2.8,27.22,39.4,1.9388,375.8153],
    [17016,1532810844,57.1502,-111.5938,516.1,248.0,266.4,-1.9,3.1,27.45,38.74,1.9388,375.3859],
    [17017,1532810845,57.1502,-111.5949,515.6,248.6,266.7,-1.3,2.7,27.29,39.02,1.938,375.8439],
    [17018,1532810846,57.1502,-111.596,514.9,247.2,266.6,-0.5,2.9,26.98,39.52,1.9366,376.1456],
    [17019,1532810847,57.1502,-111.5971,514.0,245.0,266.9,-1.0,2.5,27.59,38.72,1.9371,376.7787],
    [17020,1532810848,57.1502,-111.5982,513.5,243.5,267.4,-1.6,2.3,26.79,39.39,1.9379,377.0013],
    [17021,1532810849,57.1502,-111.5993,513.2,242.2,267.6,-3.0,2.2,26.93,39.58,1.9376,375.9791],
    [17022,1532810850,57.1502,-111.6004,512.9,241.9,268.0,-3.0,1.7,27.23,40.08,1.9371,375.8646],
    [17023,1532810851,57.1502,-111.6015,512.4,242.0,268.2,-2.1,1.6,27.23,39.74,1.9365,375.1417],
    [17024,1532810852,57.1502,-111.6025,512.2,243.9,267.9,-1.9,1.9,27.03,39.69,1.934,375.7798],
    [17025,1532810853,57.1502,-111.6037,511.7,246.8,268.2,-1.9,1.3,27.1,39.7,1.9334,376.3288],
    [17026,1532810854,57.1502,-111.6047,511.1,248.7,267.9,-2.0,1.7,27.16,39.92,1.9349,376.5735],
    [17027,1532810855,57.1502,-111.6058,510.1,250.5,267.4,-2.4,1.8,27.46,39.24,1.9349,376.0459],
    [17028,1532810856,57.1502,-111.6069,509.0,253.0,267.5,-2.1,1.6,27.23,39.57,1.9352,376.0459],
    [17029,1532810857,57.1501,-111.608,508.1,256.5,266.9,-1.7,1.9,26.84,39.71,1.9352,375.4298],
    [17030,1532810858,57.1501,-111.6091,507.8,259.0,266.7,-1.7,1.8,26.84,40.1,1.935,375.1146],
    [17031,1532810859,57.1501,-111.6102,507.7,260.8,266.4,-1.1,2.2,26.5,39.66,1.9331,377.2096],
    [17032,1532810860,57.1501,-111.6112,507.2,262.6,266.0,-1.2,2.6,26.94,40.14,1.9326,376.5757],
    [17033,1532810861,57.1501,-111.6123,506.7,265.1,266.3,-1.1,2.2,27.17,40.11,1.9331,375.6983],
    [17034,1532810862,57.1501,-111.6134,506.4,266.7,267.0,-1.2,1.5,27.12,39.82,1.9341,376.9154],
    [17035,1532810863,57.15,-111.6146,506.8,269.2,266.6,-1.0,1.8,27.2,39.52,1.9351,376.4145],
    [17036,1532810864,57.15,-111.6157,507.9,271.0,266.8,-1.1,1.7,27.24,39.32,1.934,376.2014],
    [17037,1532810865,57.15,-111.6168,509.2,273.2,267.4,-0.5,1.6,27.15,39.3,1.9344,375.5822],
    [17038,1532810866,57.15,-111.6178,510.7,274.7,268.0,-0.5,1.5,26.78,39.37,1.9376,376.8988],
    [17039,1532810867,57.15,-111.6189,513.4,278.5,268.9,-0.3,1.3,27.11,39.76,1.9376,376.6986],
    [17040,1532810868,57.15,-111.6199,516.9,282.9,269.1,-0.2,1.6,27.46,39.2,1.9379,376.509],
    [17041,1532810869,57.15,-111.621,520.3,286.3,269.2,0.4,1.6,27.2,39.53,1.9375,376.9773],
    [17042,1532810870,57.15,-111.622,523.1,289.1,269.0,0.9,2.1,27.08,40.22,1.9367,376.9773],
    [17043,1532810871,57.15,-111.6231,525.5,290.5,269.2,1.2,1.9,26.51,39.74,1.9391,376.2459],
    [17044,1532810872,57.15,-111.6241,527.3,292.3,269.1,1.0,2.2,26.92,39.78,1.9377,376.5432],
    [17045,1532810873,57.15,-111.6252,528.9,292.7,268.2,1.0,2.9,27.36,39.51,1.9383,377.0931],
    [17046,1532810874,57.15,-111.6262,530.6,291.6,269.1,1.2,1.9,26.72,39.8,1.9391,376.1605],
    [17047,1532810875,57.1501,-111.6272,532.2,291.2,269.2,1.5,1.9,27.01,40.09,1.9393,376.5501],
    [17048,1532810876,57.1501,-111.6282,534.7,290.5,268.8,1.0,2.3,26.92,40.09,1.9375,377.0239],
    [17049,1532810877,57.1501,-111.6293,536.9,293.7,269.6,1.2,1.7,27.08,40.09,1.9381,377.0239],
    [17050,1532810878,57.1501,-111.6303,539.4,297.3,270.2,1.1,1.6,26.96,39.63,1.9384,376.6851],
    [17051,1532810879,57.1501,-111.6313,541.6,299.5,270.5,0.8,1.5,27.72,39.4,1.9378,375.5522],
    [17052,1532810880,57.1501,-111.6323,543.4,300.8,270.7,0.2,1.3,27.03,39.75,1.936,375.5522],
    [17053,1532810881,57.1501,-111.6334,544.8,298.9,270.5,-0.3,1.6,26.57,39.59,1.939,376.0222],
    [17054,1532810882,57.1502,-111.6344,545.5,294.5,270.8,-0.2,1.3,27.05,40.15,1.938,375.6708],
    [17055,1532810883,57.1502,-111.6354,545.9,290.6,270.7,-0.7,1.8,27.04,39.51,1.94,375.6708],
    [17056,1532810884,57.1502,-111.6364,546.5,286.3,269.6,-1.4,2.7,27.09,40.11,1.9445,376.0117],
    [17057,1532810885,57.1502,-111.6375,546.8,285.2,270.4,-2.0,2.0,27.26,39.53,1.9424,376.1861],
    [17058,1532810886,57.1502,-111.6385,547.1,283.9,270.4,-2.4,2.2,26.98,39.62,1.9422,375.8256],
    [17059,1532810887,57.1503,-111.6395,547.4,282.4,270.1,-3.4,2.4,26.75,39.58,1.9422,376.8843],
    [17060,1532810888,57.1503,-111.6405,547.5,281.5,270.0,-3.9,2.4,26.55,39.61,1.9428,376.5428],
    [17061,1532810889,57.1503,-111.6416,547.1,279.8,269.7,-4.6,2.4,26.97,39.89,1.9418,376.0969],
    [17062,1532810890,57.1503,-111.6426,546.6,278.6,270.1,-5.3,2.2,26.78,39.73,1.9418,376.2132],
    [17063,1532810891,57.1504,-111.6436,546.7,278.7,269.9,-5.5,2.3,26.84,39.94,1.9402,375.6301],
    [17064,1532810892,57.1504,-111.6447,546.7,278.7,270.2,-6.1,1.9,27.77,39.46,1.9404,375.2652],
    [17065,1532810893,57.1504,-111.6458,546.3,277.3,270.6,-6.4,1.5,27.54,39.17,1.9413,375.2556],
    [17066,1532810894,57.1504,-111.6468,545.7,275.8,270.1,-7.0,1.7,26.94,39.93,1.943,378.2716],
    [17067,1532810895,57.1504,-111.6478,545.2,272.2,269.8,-7.0,1.5,26.92,40.45,1.9434,376.2112],
    [17068,1532810896,57.1504,-111.6489,544.9,269.9,268.9,-6.8,1.8,26.23,40.2,1.9422,377.6159],
    [17069,1532810897,57.1504,-111.6499,544.6,266.3,268.0,-6.3,2.0,26.94,40.21,1.9429,377.0101],
    [17070,1532810898,57.1504,-111.6509,544.0,262.4,268.0,-5.1,1.6,26.74,40.17,1.9426,376.6659],
    [17071,1532810899,57.1504,-111.652,543.4,258.4,267.8,-4.3,1.6,27.04,40.49,1.9414,377.4286],
    [17072,1532810900,57.1504,-111.653,543.9,256.9,266.8,-4.0,2.1,27.23,39.59,1.9418,376.3692],
    [17073,1532810901,57.1504,-111.654,544.4,254.3,267.1,-3.1,1.7,27.4,39.68,1.9418,377.0957],
    [17074,1532810902,57.1504,-111.655,544.3,252.3,266.9,-2.9,1.9,26.17,40.15,1.9404,377.3091],
    [17075,1532810903,57.1504,-111.6561,544.2,251.1,266.9,-2.5,1.8,26.6,40.59,1.9389,376.472],
    [17076,1532810904,57.1504,-111.6571,544.0,250.0,267.1,-2.2,1.4,26.76,40.31,1.9409,376.5107],
    [17077,1532810905,57.1504,-111.6581,544.3,248.4,267.6,-2.1,1.0,26.43,40.15,1.9422,376.4551],
    [17078,1532810906,57.1503,-111.6591,544.9,246.9,267.1,-2.1,1.3,27.43,39.66,1.9363,376.3022],
    [17079,1532810907,57.1503,-111.6601,544.8,246.8,267.4,-2.1,0.6,27.45,39.55,1.9348,376.4273],
    [17080,1532810908,57.1503,-111.6611,544.8,246.8,267.1,-2.2,0.8,26.86,40.65,1.9381,376.4935],
    [17081,1532810909,57.1503,-111.6622,545.5,248.5,266.4,-2.7,1.1,26.56,39.91,1.9413,376.3182],
    [17082,1532810910,57.1503,-111.6632,546.7,249.1,266.7,-2.5,0.8,26.61,39.92,1.941,376.6544],
    [17083,1532810911,57.1502,-111.6642,548.1,249.1,265.8,-1.8,1.6,27.27,39.48,1.9392,376.2443],
    [17084,1532810912,57.1502,-111.6652,549.8,249.8,265.9,-0.6,1.4,26.79,40.61,1.9394,376.2443],
    [17085,1532810913,57.1502,-111.6663,551.9,250.6,265.6,-1.0,1.7,26.61,39.76,1.9394,376.9472],
    [17086,1532810914,57.1502,-111.6673,554.5,250.2,265.3,-0.5,1.8,26.8,40.0,1.9361,377.582],
    [17087,1532810915,57.1501,-111.6683,557.7,251.2,265.5,1.2,1.9,26.44,40.17,1.9367,377.2984],
    [17088,1532810916,57.1501,-111.6692,561.6,252.2,264.8,2.2,2.7,27.56,39.6,1.9372,376.2479],
    [17089,1532810917,57.1501,-111.6702,565.9,255.2,265.1,2.5,2.6,27.02,40.12,1.9345,376.3338],
    [17090,1532810918,57.1501,-111.6711,569.7,258.7,265.4,2.3,2.7,26.98,39.81,1.9338,376.2537],
    [17091,1532810919,57.15,-111.6721,573.3,262.3,265.5,2.6,2.9,26.86,40.07,1.9354,375.4687],
    [17092,1532810920,57.15,-111.673,576.9,265.9,266.0,4.1,2.8,26.71,39.88,1.9378,375.4441],
    [17093,1532810921,57.15,-111.674,580.7,267.8,266.5,4.9,2.8,26.57,40.27,1.9372,375.4441],
    [17094,1532810922,57.15,-111.6749,585.0,271.0,266.5,5.0,3.3,26.72,40.19,1.9365,375.0514],
    [17095,1532810923,57.15,-111.6758,589.0,275.0,266.6,5.5,3.2,27.04,39.96,1.9386,376.4258],
    [17096,1532810924,57.15,-111.6768,592.9,278.9,267.4,5.8,2.8,26.72,40.39,1.9365,376.7603],
    [17097,1532810925,57.15,-111.6777,596.8,282.1,266.8,5.5,3.6,26.39,40.33,1.9364,376.4616],
    [17098,1532810926,57.15,-111.6786,599.9,284.9,266.8,6.3,3.6,26.18,40.17,1.9369,375.3226],
    [17099,1532810927,57.15,-111.6795,601.7,286.7,266.9,6.5,3.7,26.69,40.59,1.9359,374.6151],
    [17100,1532810928,57.15,-111.6804,602.2,287.2,266.9,7.4,3.8,26.88,39.93,1.9368,375.6153],
    [17101,1532810929,57.15,-111.6813,601.5,286.5,267.0,6.5,3.6,26.7,40.12,1.9357,376.9872],
    [17102,1532810930,57.15,-111.6822,599.7,284.7,266.9,5.6,3.5,26.37,40.12,1.9351,377.2794],
    [17103,1532810931,57.15,-111.6831,597.5,281.9,267.0,5.7,3.6,26.62,40.25,1.9356,376.3535],
    [17104,1532810932,57.15,-111.684,595.7,279.7,266.0,6.2,4.9,26.48,40.28,1.9336,375.6434],
    [17105,1532810933,57.15,-111.685,594.1,278.1,266.1,5.3,4.6,26.53,40.32,1.9331,376.517],
    [17106,1532810934,57.15,-111.6859,591.9,274.9,268.0,4.5,2.7,26.32,40.81,1.9335,376.6594],
    [17107,1532810935,57.15,-111.6868,590.3,272.3,268.2,6.0,2.9,26.66,40.34,1.9301,375.0308],
    [17108,1532810936,57.1501,-111.6878,589.1,270.8,266.8,5.7,4.1,27.32,39.71,1.9245,375.2443],
    [17109,1532810937,57.1501,-111.6888,587.5,268.5,267.4,6.4,3.4,26.36,40.05,1.9231,375.5636],
    [17110,1532810938,57.1501,-111.6897,585.9,266.9,268.1,6.1,2.6,26.43,39.65,1.9222,375.9751],
    [17111,1532810939,57.1501,-111.6907,585.0,265.0,267.9,5.9,2.7,26.6,39.49,1.9234,373.9328],
    [17112,1532810940,57.1501,-111.6916,584.4,264.4,267.8,6.2,2.5,26.3,38.86,1.9248,373.9328],
    [17113,1532810941,57.1501,-111.6926,583.9,263.9,267.5,6.3,2.6,27.1,38.32,1.9313,376.2563],
    [17114,1532810942,57.1501,-111.6936,583.6,263.6,266.4,5.5,3.3,26.77,39.53,1.9311,376.1978],
    [17115,1532810943,57.1501,-111.6946,583.3,262.6,266.1,5.3,3.3,26.22,39.33,1.9244,374.5704],
    [17116,1532810944,57.15,-111.6955,582.8,261.8,266.4,5.0,2.9,26.22,38.9,1.9216,374.6035],
    [17117,1532810945,57.15,-111.6966,582.8,261.8,266.4,7.0,3.0,27.18,38.44,1.919,374.4724],
    [17118,1532810946,57.15,-111.6975,583.0,261.0,266.5,6.8,3.1,26.54,38.57,1.9197,374.6703],
    [17119,1532810947,57.15,-111.6985,583.0,261.0,265.8,6.8,3.8,26.89,38.38,1.9208,374.6912],
    [17120,1532810948,57.15,-111.6995,583.0,261.0,266.0,7.3,3.4,26.88,38.0,1.9176,374.8549],
    [17121,1532810949,57.15,-111.7005,582.6,260.6,267.5,6.0,1.6,27.11,37.47,1.9183,374.8549],
    [17122,1532810950,57.15,-111.7015,582.4,260.4,267.6,5.9,1.5,27.75,36.99,1.9177,376.3641],
    [17123,1532810951,57.15,-111.7025,582.7,260.7,267.9,7.4,0.8,26.84,37.38,1.917,376.7346],
    [17124,1532810952,57.1499,-111.7035,583.5,261.5,267.2,6.9,1.6,27.52,36.22,1.9174,376.3527],
    [17125,1532810953,57.1499,-111.7045,583.9,261.2,265.0,6.5,3.6,26.64,36.26,1.9166,377.1473],
    [17126,1532810954,57.1499,-111.7055,583.3,260.3,264.8,6.2,3.4,26.86,36.32,1.9162,376.1666],
    [17127,1532810955,57.1499,-111.7065,582.7,259.7,264.9,5.9,3.3,27.08,35.86,1.9181,376.156],
    [17128,1532810956,57.1499,-111.7075,583.3,260.3,264.6,6.7,3.8,26.42,36.0,1.9201,377.5876],
    [17129,1532810957,57.1498,-111.7085,583.9,260.9,265.4,6.9,3.3,26.69,36.19,1.9197,377.6738],
    [17130,1532810958,57.1498,-111.7094,584.2,260.4,265.3,6.3,3.6,26.98,35.51,1.9193,376.3426],
    [17131,1532810959,57.1498,-111.7104,584.2,260.2,265.1,5.5,4.1,26.58,35.59,1.9194,377.0761],
    [17132,1532810960,57.1498,-111.7114,583.8,259.8,265.7,5.5,3.6,26.98,35.88,1.9182,377.6818],
    [17133,1532810961,57.1498,-111.7124,583.6,259.6,266.7,4.8,3.0,26.82,35.3,1.9193,377.1184],
    [17134,1532810962,57.1498,-111.7134,583.9,258.9,267.5,4.5,2.5,27.56,34.98,1.9188,376.9715],
    [17135,1532810963,57.1498,-111.7144,584.3,259.3,267.3,4.8,3.3,26.69,35.92,1.9183,377.4909],
    [17136,1532810964,57.1498,-111.7154,584.1,259.1,267.4,4.4,3.3,26.86,35.66,1.9205,377.5656],
    [17137,1532810965,57.1498,-111.7164,584.9,259.6,266.6,3.7,4.3,26.93,36.11,1.9187,376.4722],
    [17138,1532810966,57.1498,-111.7174,586.4,260.4,267.3,2.6,3.7,26.78,36.53,1.9185,376.8768],
    [17139,1532810967,57.1498,-111.7184,587.5,261.5,266.9,1.8,3.9,26.66,35.99,1.9197,376.8768],
    [17140,1532810968,57.1498,-111.7195,588.0,262.0,268.1,2.4,2.0,26.62,35.43,1.9199,378.0662],
    [17141,1532810969,57.1498,-111.7205,587.9,261.9,269.5,1.9,0.2,26.58,35.64,1.92,377.5407],
    [17142,1532810970,57.1498,-111.7215,587.4,261.4,269.1,1.2,0.4,26.35,35.51,1.9201,376.7],
    [17143,1532810971,57.1498,-111.7225,587.7,260.7,269.4,1.0,-0.1,26.42,35.66,1.9203,376.8418],
    [17144,1532810972,57.1498,-111.7235,588.8,261.8,268.6,0.6,0.8,26.96,36.18,1.92,376.8418],
    [17145,1532810973,57.1498,-111.7246,589.4,262.4,268.0,-0.1,1.0,26.74,35.89,1.9189,376.3631],
    [17146,1532810974,57.1498,-111.7256,589.3,262.3,268.9,-0.8,0.1,26.53,35.66,1.9192,376.3441],
    [17147,1532810975,57.1498,-111.7267,587.9,260.9,267.9,-1.7,1.7,26.88,35.96,1.9181,377.8109],
    [17148,1532810976,57.1497,-111.7278,586.1,259.1,268.0,-2.4,1.7,27.19,35.37,1.9179,376.6591],
    [17149,1532810977,57.1497,-111.7288,584.4,256.4,269.6,-1.7,0.5,26.51,35.54,1.9166,376.6591],
    [17150,1532810978,57.1497,-111.7299,583.3,255.3,268.4,-0.6,1.8,26.37,35.86,1.9133,378.5942],
    [17151,1532810979,57.1497,-111.7309,583.3,255.3,268.7,-0.5,1.2,26.77,34.9,1.9155,378.5627],
    [17152,1532810980,57.1497,-111.732,585.0,256.9,268.8,-0.6,0.9,26.24,34.29,1.9137,378.4743],
    [17153,1532810981,57.1497,-111.7331,585.7,258.7,268.7,-0.4,0.6,26.63,34.19,1.9141,377.5142],
    [17154,1532810982,57.1497,-111.7341,584.7,257.7,269.5,-0.7,-0.1,27.63,32.51,1.9155,378.3207],
    [17155,1532810983,57.1497,-111.7352,583.3,256.3,269.3,-1.1,0.2,26.68,33.09,1.9145,378.2802],
    [17156,1532810984,57.1497,-111.7362,582.6,255.6,269.7,-1.0,0.1,27.16,32.68,1.9159,378.2802],
    [17157,1532810985,57.1497,-111.7373,582.8,256.8,269.2,-0.3,0.7,26.83,33.29,1.9155,378.4739],
    [17158,1532810986,57.1497,-111.7384,583.6,257.6,268.6,-0.7,0.9,26.91,33.18,1.9163,377.9457],
    [17159,1532810987,57.1497,-111.7395,584.5,258.5,270.2,-1.1,-0.6,27.08,33.2,1.9167,378.6936],
    [17160,1532810988,57.1497,-111.7405,585.4,259.4,270.2,-1.2,-0.5,26.6,33.01,1.9163,377.1639],
    [17161,1532810989,57.1497,-111.7415,585.6,260.7,270.0,-1.5,-0.1,27.76,32.56,1.9173,377.9585],
    [17162,1532810990,57.1497,-111.7426,586.3,261.4,268.5,-2.0,1.4,27.02,33.03,1.9152,378.6728],
    [17163,1532810991,57.1497,-111.7437,587.3,261.3,268.4,-2.4,1.5,26.47,33.05,1.9151,378.7063],
    [17164,1532810992,57.1497,-111.7448,588.6,262.6,268.4,-1.4,1.5,27.19,32.95,1.9153,379.3005],
    [17165,1532810993,57.1497,-111.7458,589.3,263.3,268.9,-1.4,1.1,27.27,33.27,1.9159,378.5241],
    [17166,1532810994,57.1497,-111.7469,589.5,263.5,268.8,-1.2,1.6,26.35,33.22,1.9163,378.9957],
    [17167,1532810995,57.1497,-111.7479,589.9,264.7,268.4,-1.3,2.2,27.56,32.7,1.9168,377.218],
    [17168,1532810996,57.1497,-111.7489,590.5,265.1,268.8,-0.4,2.1,26.85,33.23,1.9165,377.6863],
    [17169,1532810997,57.1497,-111.75,591.3,266.4,268.7,0.3,2.2,26.89,33.74,1.9149,378.4941],
    [17170,1532810998,57.1497,-111.751,592.5,269.6,269.1,1.2,2.1,26.82,33.5,1.9165,378.1984],
    [17171,1532810999,57.1497,-111.752,593.7,274.5,268.9,1.4,2.3,26.77,33.36,1.9165,378.1984],
    [17172,1532811000,57.1497,-111.7531,594.9,281.2,269.5,1.9,1.7,26.8,33.2,1.9153,378.3094],
    [17173,1532811001,57.1498,-111.7541,595.4,287.2,269.5,1.6,2.2,27.5,32.2,1.9146,379.6154],
    [17174,1532811002,57.1498,-111.7551,596.0,295.0,268.3,1.0,3.4,27.43,32.1,1.9142,377.9983],
    [17175,1532811003,57.1498,-111.7561,596.7,298.9,268.8,1.0,3.1,27.57,31.74,1.9136,378.141],
    [17176,1532811004,57.1498,-111.7572,597.8,302.6,269.8,0.8,2.2,27.51,30.87,1.9145,379.6995],
    [17177,1532811005,57.1498,-111.7582,598.4,307.2,270.6,1.2,1.6,27.1,31.42,1.914,379.6995],
    [17178,1532811006,57.1498,-111.7592,599.8,312.0,270.3,0.7,1.9,26.83,31.36,1.9145,380.3314],
    [17179,1532811007,57.1499,-111.7602,600.9,314.8,270.2,0.4,2.0,26.98,30.94,1.9155,379.5295],
    [17180,1532811008,57.1499,-111.7612,601.3,311.9,269.9,0.4,2.2,26.94,31.19,1.915,379.6683],
    [17181,1532811009,57.1499,-111.7622,600.9,309.6,270.0,0.4,2.0,27.25,30.52,1.9144,380.1672],
    [17182,1532811010,57.1499,-111.7632,600.5,312.3,270.1,0.7,1.9,27.07,30.3,1.9156,379.8831],
    [17183,1532811011,57.1499,-111.7642,600.8,318.2,269.8,0.9,2.0,26.68,30.33,1.9165,379.8886],
    [17184,1532811012,57.1499,-111.7652,600.8,321.0,270.4,1.5,1.5,26.7,30.49,1.9153,380.3641],
    [17185,1532811013,57.15,-111.7662,600.1,319.4,270.7,1.9,1.4,26.72,31.18,1.9152,380.3294],
    [17186,1532811014,57.15,-111.7672,599.3,317.7,270.5,1.3,1.6,26.59,31.06,1.9144,379.5676],
    [17187,1532811015,57.15,-111.7682,598.5,314.9,270.7,0.8,1.2,27.16,30.87,1.9157,380.5628],
    [17188,1532811016,57.15,-111.7691,597.5,312.4,270.8,1.9,1.1,27.28,30.74,1.9171,380.5628],
    [17189,1532811017,57.15,-111.7701,597.0,309.3,270.1,2.4,1.5,27.22,31.57,1.9177,379.2591],
    [17190,1532811018,57.1501,-111.7711,596.8,306.8,270.4,2.5,1.1,27.22,30.68,1.9147,380.0732],
    [17191,1532811019,57.1501,-111.7721,597.0,306.1,270.0,2.9,1.4,26.7,31.1,1.9143,380.0622],
    [17192,1532811020,57.1501,-111.7731,597.2,306.2,269.8,3.0,1.3,27.75,30.22,1.9147,379.878],
    [17193,1532811021,57.1501,-111.7741,597.3,306.3,269.7,3.3,1.2,27.22,30.32,1.9153,380.4256],
    [17194,1532811022,57.1501,-111.7751,597.8,306.4,269.6,2.3,1.4,26.8,30.63,1.916,380.6455],
    [17195,1532811023,57.1501,-111.7761,597.7,305.5,269.7,2.5,1.4,26.8,30.43,1.9174,379.868],
    [17196,1532811024,57.1501,-111.7771,597.4,304.1,270.0,1.7,1.4,26.95,30.53,1.9181,380.8953],
    [17197,1532811025,57.1501,-111.7781,597.1,300.4,269.5,2.5,1.9,26.63,30.27,1.9173,381.0453],
    [17198,1532811026,57.1501,-111.7791,596.8,295.6,270.3,2.2,1.3,27.17,30.45,1.9165,380.0745],
    [17199,1532811027,57.1502,-111.78,596.6,288.3,270.2,2.2,1.8,26.91,30.64,1.9153,380.7955],
    [17200,1532811028,57.1502,-111.7811,596.9,283.1,269.6,1.8,2.4,27.24,30.74,1.9168,380.3529],
    [17201,1532811029,57.1502,-111.782,597.6,277.2,269.7,1.5,1.9,27.04,30.23,1.9166,380.3529],
    [17202,1532811030,57.1502,-111.7831,598.8,274.7,269.2,0.4,1.6,27.89,29.61,1.9157,380.6788],
    [17203,1532811031,57.1502,-111.784,600.5,273.5,268.4,0.1,1.9,26.66,30.08,1.9174,380.961],
    [17204,1532811032,57.1502,-111.785,601.7,274.7,266.1,0.0,3.6,26.73,30.27,1.9176,379.8035],
    [17205,1532811033,57.1502,-111.7861,602.8,275.8,266.6,-0.4,2.4,26.98,30.4,1.9185,379.8177],
    [17206,1532811034,57.1502,-111.7871,603.9,275.9,267.1,0.4,1.8,26.53,30.26,1.9187,379.1454],
    [17207,1532811035,57.1502,-111.7881,605.5,276.5,266.2,1.1,2.6,26.74,30.62,1.9192,379.2003],
    [17208,1532811036,57.1502,-111.7891,607.3,278.3,266.4,1.5,2.3,27.39,30.28,1.9191,379.4022],
    [17209,1532811037,57.1501,-111.7901,609.9,279.9,265.9,0.3,2.6,27.19,30.6,1.9195,380.3659],
    [17210,1532811038,57.1501,-111.7911,613.3,283.3,266.0,1.1,2.6,27.35,30.63,1.9204,378.7893],
    [17211,1532811039,57.1501,-111.792,615.8,285.8,265.7,2.0,2.8,26.89,31.12,1.919,379.2065],
    [17212,1532811040,57.1501,-111.7931,617.1,287.1,265.8,3.8,2.7,26.62,31.07,1.9169,380.1009],
    [17213,1532811041,57.1501,-111.794,616.8,286.8,265.8,3.8,2.6,27.63,30.32,1.9154,380.1009],
    [17214,1532811042,57.1501,-111.795,615.9,284.9,265.9,4.0,2.8,27.33,31.05,1.9156,380.4163],
    [17215,1532811043,57.15,-111.796,615.1,284.1,266.3,4.0,2.6,27.11,30.94,1.9166,379.9702],
    [17216,1532811044,57.15,-111.7969,614.2,283.2,266.8,3.0,2.4,27.15,31.1,1.9175,379.2083],
    [17217,1532811045,57.15,-111.7979,613.7,282.7,266.6,3.3,2.7,26.72,30.97,1.9178,379.4928],
    [17218,1532811046,57.15,-111.7988,614.2,283.2,267.3,4.9,2.2,27.45,30.41,1.9172,379.4313],
    [17219,1532811047,57.15,-111.7998,615.0,284.0,267.5,3.6,1.9,27.22,30.92,1.9164,379.784],
    [17220,1532811048,57.15,-111.8008,615.1,284.1,267.0,2.9,2.2,27.82,30.41,1.9182,379.9501],
    [17221,1532811049,57.15,-111.8017,614.5,283.5,266.6,3.7,2.6,27.06,31.39,1.919,379.0979],
    [17222,1532811050,57.15,-111.8027,614.0,283.0,266.3,3.6,2.5,27.71,30.79,1.9196,379.2051],
    [17223,1532811051,57.15,-111.8037,614.0,282.0,266.2,3.8,2.2,27.09,31.44,1.9192,379.0443],
    [17224,1532811052,57.1499,-111.8047,614.4,282.4,265.6,4.0,1.5,27.6,31.32,1.9178,379.2962],
    [17225,1532811053,57.1499,-111.8057,614.8,282.8,263.6,3.6,0.9,26.95,31.84,1.9177,378.3182],
    [17226,1532811054,57.1498,-111.8066,615.1,283.1,259.5,3.0,0.8,27.16,31.64,1.9179,379.4974],
    [17227,1532811055,57.1497,-111.8075,614.9,282.9,253.6,3.2,3.2,27.87,31.26,1.9177,379.2716],
    [17228,1532811056,57.1496,-111.8085,613.5,281.5,249.1,3.9,3.7,27.1,32.51,1.9185,379.4947],
    [17229,1532811057,57.1494,-111.8094,612.4,280.4,244.1,3.7,4.1,27.3,32.0,1.9198,378.2935],
    [17230,1532811058,57.1491,-111.8102,611.5,279.5,240.4,4.9,4.2,27.23,32.06,1.9198,379.4262],
    [17231,1532811059,57.1489,-111.811,611.0,279.0,236.5,5.1,4.5,27.04,32.28,1.9193,377.2814],
    [17232,1532811060,57.1486,-111.8118,611.5,279.5,232.0,3.5,4.1,27.04,32.42,1.9189,378.4462],
    [17233,1532811061,57.1483,-111.8126,612.0,280.0,230.3,5.6,4.1,26.94,32.99,1.9187,378.6371],
    [17234,1532811062,57.1479,-111.8133,613.0,281.0,226.3,5.8,5.3,26.88,33.12,1.92,379.6334],
    [17235,1532811063,57.1476,-111.8139,614.7,281.7,223.8,5.6,4.6,27.42,32.92,1.9194,379.2226],
    [17236,1532811064,57.1472,-111.8146,616.7,283.7,221.1,4.9,4.8,26.98,33.48,1.9181,378.5796],
    [17237,1532811065,57.1468,-111.8151,618.6,285.4,219.2,4.7,4.8,26.85,33.13,1.9211,378.9756],
    [17238,1532811066,57.1464,-111.8157,619.8,285.8,218.4,5.5,4.6,26.6,32.98,1.9204,377.447],
    [17239,1532811067,57.146,-111.8163,621.0,287.0,214.8,4.5,6.5,26.79,33.08,1.9192,378.1199],
    [17240,1532811068,57.1455,-111.8168,621.9,287.9,212.0,4.3,7.4,27.06,33.8,1.9227,378.0699],
    [17241,1532811069,57.1451,-111.8173,622.7,288.7,210.3,4.4,7.0,26.77,33.37,1.9208,378.1497],
    [17242,1532811070,57.1447,-111.8177,622.9,288.9,206.8,3.3,6.8,27.06,34.01,1.921,377.7041],
    [17243,1532811071,57.1442,-111.8181,622.3,288.3,204.1,3.4,5.9,27.76,33.37,1.9206,377.6826],
    [17244,1532811072,57.1437,-111.8185,621.1,287.1,201.2,3.1,4.8,27.25,34.3,1.9202,378.1568],
    [17245,1532811073,57.1432,-111.8188,619.8,285.8,199.3,3.9,4.0,27.09,33.85,1.9215,376.565],
    [17246,1532811074,57.1427,-111.819,617.8,283.8,198.9,5.6,3.7,27.81,33.39,1.9199,376.8218],
    [17247,1532811075,57.1422,-111.8193,615.5,281.5,196.3,5.3,4.4,27.8,33.54,1.9208,378.269],
    [17248,1532811076,57.1417,-111.8195,613.7,279.7,192.8,4.7,6.0,26.88,34.43,1.9217,376.9102],
    [17249,1532811077,57.1411,-111.8196,612.1,278.1,189.0,4.2,6.1,27.62,34.15,1.9188,378.5194],
    [17250,1532811078,57.1406,-111.8197,611.1,277.1,184.0,3.2,6.7,27.75,34.29,1.9152,377.8329],
    [17251,1532811079,57.1401,-111.8196,610.0,275.6,180.8,3.0,6.3,27.18,34.32,1.9161,379.2752],
    [17252,1532811080,57.1395,-111.8196,608.3,273.3,179.2,4.0,6.1,26.68,33.98,1.9155,378.1908],
    [17253,1532811081,57.139,-111.8195,606.9,271.9,175.7,1.8,6.2,27.35,32.91,1.9151,378.7228],
    [17254,1532811082,57.1384,-111.8194,605.5,270.5,175.3,2.0,6.2,26.66,32.76,1.9141,378.7228],
    [17255,1532811083,57.1379,-111.8192,603.9,268.9,176.8,2.9,6.3,26.9,32.8,1.9153,379.7064],
    [17256,1532811084,57.1374,-111.8191,602.6,267.6,177.7,2.5,6.2,26.93,32.1,1.9164,379.5325],
    [17257,1532811085,57.1368,-111.8191,601.4,266.4,179.1,2.3,6.5,26.66,31.95,1.9155,379.5325],
    [17258,1532811086,57.1362,-111.819,601.2,266.2,180.5,2.8,5.8,27.33,31.68,1.9166,379.8818],
    [17259,1532811087,57.1357,-111.819,600.1,265.1,183.6,5.1,4.9,27.23,32.07,1.9177,378.2866],
    [17260,1532811088,57.1352,-111.819,598.7,263.7,183.3,3.6,3.9,27.22,31.97,1.918,376.6697],
    [17261,1532811089,57.1346,-111.819,597.3,262.3,181.8,2.1,2.9,27.19,31.56,1.9172,379.8464],
    [17262,1532811090,57.1341,-111.819,595.9,260.9,182.0,2.2,1.8,27.25,32.33,1.9151,379.5827],
    [17263,1532811091,57.1335,-111.819,595.6,260.6,181.4,2.0,1.0,27.47,31.44,1.9152,379.4157],
    [17264,1532811092,57.133,-111.819,595.4,260.4,183.4,4.1,0.4,27.3,31.63,1.9168,379.3996],
    [17265,1532811093,57.1324,-111.819,595.0,260.0,182.9,3.0,0.0,27.24,32.27,1.9164,378.0469],
    [17266,1532811094,57.1318,-111.819,595.9,260.9,181.9,2.0,-0.1,27.15,31.92,1.9158,380.4434],
    [17267,1532811095,57.1313,-111.819,596.0,261.0,183.5,2.8,-0.6,26.53,31.34,1.9167,378.8622],
    [17268,1532811096,57.1307,-111.819,595.8,260.8,183.6,2.6,-0.9,26.55,31.31,1.9191,379.256],
    [17269,1532811097,57.1301,-111.819,594.9,259.9,185.1,3.8,-0.8,27.13,31.28,1.9172,379.4767],
    [17270,1532811098,57.1296,-111.8191,594.4,259.4,185.2,3.7,-0.7,27.06,31.39,1.9178,378.9021],
    [17271,1532811099,57.129,-111.8191,594.5,259.5,184.6,3.2,-0.5,27.27,31.5,1.9214,379.4337],
    [17272,1532811100,57.1284,-111.8191,595.5,260.5,183.7,2.0,-0.7,28.01,31.52,1.9217,378.6196],
    [17273,1532811101,57.1278,-111.8192,596.2,261.2,182.5,0.5,-1.6,27.37,32.32,1.923,378.4181],
    [17274,1532811102,57.1273,-111.8192,597.5,262.5,182.1,0.5,-1.2,26.94,32.99,1.9225,379.4379],
    [17275,1532811103,57.1267,-111.8192,598.8,263.8,181.6,0.8,-0.6,27.51,33.61,1.9218,377.9597],
    [17276,1532811104,57.1261,-111.8192,600.7,265.7,183.2,3.1,0.5,27.83,33.48,1.9222,379.5958],
    [17277,1532811105,57.1256,-111.8192,601.8,267.8,183.6,3.5,0.6,27.11,34.39,1.9222,377.8008],
    [17278,1532811106,57.125,-111.8192,603.7,269.7,181.5,1.8,0.8,27.24,34.45,1.9218,377.0965],
    [17279,1532811107,57.1244,-111.8192,606.0,272.0,180.5,0.9,1.0,26.72,35.03,1.922,377.7272],
    [17280,1532811108,57.1239,-111.8192,607.3,273.3,180.0,0.5,0.8,26.71,35.27,1.923,376.4585],
    [17281,1532811109,57.1233,-111.8192,608.4,274.4,180.6,1.0,1.3,27.22,35.43,1.9246,377.6732],
    [17282,1532811110,57.1227,-111.8192,610.1,276.1,180.6,1.4,1.0,27.36,35.26,1.9221,377.2874],
    [17283,1532811111,57.1222,-111.8192,611.1,276.4,181.4,2.5,0.6,27.1,35.99,1.9221,377.2874],
    [17284,1532811112,57.1216,-111.8192,611.3,276.3,179.9,1.2,0.6,27.72,35.17,1.92,378.4341],
    [17285,1532811113,57.121,-111.8192,611.5,276.5,179.4,1.0,0.3,26.73,35.58,1.9179,377.5118],
    [17286,1532811114,57.1205,-111.8191,611.3,276.3,179.8,1.4,0.3,26.55,35.35,1.9172,377.4919],
    [17287,1532811115,57.1199,-111.8191,611.0,277.0,178.9,0.6,0.4,27.37,34.72,1.9172,378.7953],
    [17288,1532811116,57.1194,-111.8191,610.7,277.8,179.2,0.9,0.3,27.64,34.02,1.9153,378.7953],
    [17289,1532811117,57.1188,-111.819,610.8,278.5,179.8,0.8,0.3,27.4,33.28,1.9151,379.296],
    [17290,1532811118,57.1182,-111.819,610.9,278.9,180.5,0.8,0.1,26.27,33.29,1.9149,380.1375],
    [17291,1532811119,57.1177,-111.819,611.0,279.0,181.6,1.0,0.2,26.99,32.78,1.9146,379.268],
    [17292,1532811120,57.1171,-111.8191,611.3,279.3,182.6,1.4,0.0,27.22,31.95,1.9145,379.5375],
    [17293,1532811121,57.1166,-111.8191,611.3,279.3,183.8,1.9,0.1,27.8,31.0,1.916,379.5415],
    [17294,1532811122,57.116,-111.8191,611.5,279.5,184.2,1.8,0.7,27.17,31.44,1.9171,379.6376],
    [17295,1532811123,57.1155,-111.8192,611.9,279.9,183.8,1.1,0.9,27.56,31.05,1.9166,380.0977],
    [17296,1532811124,57.1149,-111.8192,612.1,280.1,183.4,0.7,0.8,26.79,32.01,1.9187,379.46],
    [17297,1532811125,57.1144,-111.8193,612.1,280.1,183.0,0.6,1.0,26.39,31.61,1.9195,379.5898],
    [17298,1532811126,57.1138,-111.8193,611.9,279.9,182.2,0.5,0.9,27.49,31.11,1.9188,379.865],
    [17299,1532811127,57.1133,-111.8193,611.4,278.4,181.7,0.7,1.0,27.0,31.81,1.9203,379.8881],
    [17300,1532811128,57.1128,-111.8194,610.6,277.6,180.9,0.4,0.3,27.35,32.02,1.9202,379.1974],
    [17301,1532811129,57.1122,-111.8194,609.5,276.5,179.7,-0.2,-0.5,27.1,33.04,1.925,378.5898],
    [17302,1532811130,57.1117,-111.8193,608.0,275.0,179.9,0.3,-0.3,27.07,32.93,1.9241,378.964],
    [17303,1532811131,57.1111,-111.8193,606.2,273.2,179.8,0.4,-0.8,27.08,34.1,1.9223,380.085],
    [17304,1532811132,57.1106,-111.8193,604.3,271.3,180.2,1.0,-2.0,26.99,34.11,1.922,379.2979],
    [17305,1532811133,57.11,-111.8193,602.6,269.6,180.7,1.2,-1.6,26.74,34.56,1.9233,378.5603],
    [17306,1532811134,57.1095,-111.8193,602.1,268.1,179.3,-0.2,-1.6,27.08,35.58,1.923,378.8861],
    [17307,1532811135,57.109,-111.8193,603.2,269.2,178.1,-1.6,-1.7,27.04,35.26,1.9211,378.7694],
    [17308,1532811136,57.1084,-111.8193,604.9,270.9,179.4,-0.1,-1.9,27.15,35.18,1.9196,379.3542],
    [17309,1532811137,57.1079,-111.8193,605.3,271.3,182.3,2.4,-2.1,26.68,35.34,1.9199,378.9846],
    [17310,1532811138,57.1073,-111.8193,605.1,271.1,181.0,1.0,-1.7,27.59,34.88,1.923,379.4535],
    [17311,1532811139,57.1067,-111.8193,604.9,270.9,180.1,0.6,-2.2,27.25,34.93,1.9248,380.3779],
    [17312,1532811140,57.1062,-111.8193,604.5,269.5,181.0,1.4,-2.5,27.94,34.69,1.9255,378.7192],
    [17313,1532811141,57.1056,-111.8193,604.2,269.2,180.0,0.5,-2.4,26.8,35.48,1.9249,380.5423],
    [17314,1532811142,57.1051,-111.8193,604.1,269.1,180.2,0.3,-1.7,27.42,35.19,1.9248,380.1122],
    [17315,1532811143,57.1045,-111.8193,604.6,269.6,181.3,0.6,-0.7,27.32,35.91,1.9229,378.2359],
    [17316,1532811144,57.104,-111.8193,606.3,271.3,181.5,0.1,-0.3,26.78,36.11,1.922,377.485],
    [17317,1532811145,57.1034,-111.8193,607.7,272.7,182.0,0.7,-0.4,27.29,36.4,1.9222,378.1202],
    [17318,1532811146,57.1029,-111.8193,608.7,272.7,182.4,1.1,0.0,26.93,37.05,1.9225,377.5143],
    [17319,1532811147,57.1023,-111.8194,609.5,273.5,182.2,0.9,0.7,26.75,36.65,1.923,374.705],
    [17320,1532811148,57.1018,-111.8194,610.2,274.2,182.7,1.2,0.2,26.64,36.25,1.9256,374.705],
    [17321,1532811149,57.1013,-111.8194,610.9,274.9,183.4,1.5,0.1,27.46,36.17,1.9238,376.4495],
    [17322,1532811150,57.1007,-111.8195,611.7,275.0,183.6,1.7,0.9,26.27,37.03,1.9233,375.5992],
    [17323,1532811151,57.1002,-111.8195,612.9,275.9,183.4,1.5,1.0,27.36,36.8,1.9252,375.5874],
    [17324,1532811152,57.0997,-111.8195,614.1,277.1,183.7,1.8,1.2,27.07,37.28,1.9234,375.8626],
    [17325,1532811153,57.0992,-111.8196,615.4,278.4,184.3,2.2,2.6,27.47,37.01,1.9236,377.2296],
    [17326,1532811154,57.0986,-111.8196,616.7,279.7,184.0,1.7,3.8,26.71,37.96,1.9249,378.0993],
    [17327,1532811155,57.0981,-111.8196,617.6,280.6,184.6,2.4,4.2,27.23,37.06,1.9254,376.1414],
    [17328,1532811156,57.0976,-111.8197,618.3,281.3,184.7,2.6,4.7,27.76,36.55,1.9247,377.9041],
    [17329,1532811157,57.0971,-111.8197,618.9,280.9,183.8,1.9,4.8,27.31,36.66,1.9242,378.3727],
    [17330,1532811158,57.0966,-111.8198,619.1,281.1,183.6,1.9,5.1,27.18,36.61,1.9241,378.3655],
    [17331,1532811159,57.096,-111.8198,618.8,280.8,183.7,2.2,6.2,27.74,35.94,1.9237,377.5729],
    [17332,1532811160,57.0955,-111.8198,618.1,280.1,184.5,3.1,6.6,26.9,37.04,1.9243,379.1989],
    [17333,1532811161,57.095,-111.8199,617.3,278.3,183.9,2.3,5.7,26.44,36.18,1.922,378.4389],
    [17334,1532811162,57.0945,-111.8199,616.3,277.3,182.7,1.5,6.0,26.74,36.27,1.9241,378.0264],
    [17335,1532811163,57.094,-111.8199,614.8,275.0,182.6,1.8,6.5,27.39,35.77,1.9234,377.6443],
    [17336,1532811164,57.0935,-111.8199,613.6,273.6,181.1,0.6,6.4,26.77,36.04,1.924,377.9119],
    [17337,1532811165,57.093,-111.8199,612.4,272.4,179.5,-0.4,7.0,27.04,36.5,1.9247,378.118],
    [17338,1532811166,57.0924,-111.8199,610.6,269.6,180.1,0.7,6.5,26.85,36.85,1.9245,377.26],
    [17339,1532811167,57.0919,-111.8199,608.9,267.9,180.4,0.8,6.2,27.09,36.89,1.9246,377.458],
    [17340,1532811168,57.0914,-111.8199,607.5,266.5,180.5,0.8,6.4,27.07,36.25,1.9241,376.1213],
    [17341,1532811169,57.0909,-111.8199,607.0,266.0,181.5,1.5,5.2,27.33,36.17,1.9235,376.6215],
    [17342,1532811170,57.0904,-111.8199,606.6,266.6,182.3,1.9,4.5,26.33,36.9,1.9256,376.4637],
    [17343,1532811171,57.0898,-111.8199,605.7,265.7,183.1,2.3,4.5,26.98,36.82,1.9245,376.394],
    [17344,1532811172,57.0893,-111.8199,604.4,264.4,182.2,1.3,5.0,27.24,36.44,1.9242,376.394],
    [17345,1532811173,57.0888,-111.82,603.3,263.3,181.7,1.1,5.4,27.26,36.5,1.9238,376.02],
    [17346,1532811174,57.0882,-111.82,602.4,262.4,181.9,1.2,5.1,27.42,36.61,1.9226,375.6734],
    [17347,1532811175,57.0877,-111.82,601.6,261.5,182.2,1.5,5.9,27.03,37.11,1.9213,377.2462],
    [17348,1532811176,57.0872,-111.82,600.7,259.7,183.1,2.5,5.9,27.04,37.57,1.9214,375.8639],
    [17349,1532811177,57.0867,-111.82,601.4,260.4,183.4,2.3,5.9,26.8,36.98,1.9215,377.6354],
    [17350,1532811178,57.0861,-111.82,602.1,261.1,183.5,2.3,5.6,27.12,37.28,1.9229,376.0724],
    [17351,1532811179,57.0856,-111.8201,602.8,261.8,184.0,2.2,5.2,26.8,37.68,1.9236,376.3324],
    [17352,1532811180,57.0851,-111.8201,605.0,264.0,182.4,0.4,6.0,26.93,36.92,1.9226,377.5784],
    [17353,1532811181,57.0845,-111.8202,608.3,267.3,181.7,-0.1,6.7,26.32,36.29,1.9233,376.5044],
    [17354,1532811182,57.084,-111.8202,610.3,269.3,181.9,0.3,6.1,26.64,36.18,1.9241,377.7166],
    [17355,1532811183,57.0835,-111.8202,611.5,269.6,181.0,-0.3,5.7,27.0,35.73,1.924,376.9296],
    [17356,1532811184,57.0829,-111.8202,613.3,271.3,181.3,0.8,6.4,27.5,35.49,1.9243,378.1705],
    [17357,1532811185,57.0824,-111.8202,615.5,273.5,181.8,1.6,6.2,27.04,36.23,1.9234,378.1172],
    [17358,1532811186,57.0819,-111.8202,617.5,275.5,181.5,1.6,5.5,27.66,35.22,1.9234,379.0736],
    [17359,1532811187,57.0813,-111.8202,619.4,277.4,181.8,2.0,5.2,27.05,35.75,1.9225,378.7907],
    [17360,1532811188,57.0808,-111.8202,621.7,279.2,180.8,0.9,5.3,27.59,34.9,1.9235,377.8712],
    [17361,1532811189,57.0803,-111.8202,622.8,279.8,181.2,1.8,4.8,27.59,34.71,1.9236,378.8098],
    [17362,1532811190,57.0798,-111.8202,623.0,280.0,182.1,2.3,4.7,26.79,34.99,1.9247,378.3344],
    [17363,1532811191,57.0792,-111.8202,624.1,281.1,179.8,-0.5,4.4,27.01,35.3,1.925,377.5481],
    [17364,1532811192,57.0787,-111.8202,625.5,282.5,180.9,0.6,4.5,26.99,35.0,1.9236,378.1607],
    [17365,1532811193,57.0781,-111.8203,626.1,283.1,183.4,2.8,4.2,27.07,35.01,1.9241,377.4836],
    [17366,1532811194,57.0776,-111.8203,625.6,282.3,183.4,2.3,4.0,26.84,35.1,1.9225,378.6924],
    [17367,1532811195,57.0771,-111.8203,624.7,280.7,183.8,2.5,3.3,26.54,34.79,1.921,377.6105],
    [17368,1532811196,57.0765,-111.8203,624.1,280.1,184.6,3.2,2.7,27.53,34.41,1.9236,378.1566],
    [17369,1532811197,57.076,-111.8204,623.3,279.3,183.7,2.3,2.5,26.42,34.5,1.9237,377.6022],
    [17370,1532811198,57.0755,-111.8204,622.3,278.3,183.7,2.7,2.3,27.05,34.42,1.923,377.8793],
    [17371,1532811199,57.0749,-111.8204,621.4,277.4,184.2,3.1,1.9,26.85,35.14,1.9251,377.8804],
    [17372,1532811200,57.0744,-111.8204,621.0,276.7,182.3,1.3,1.9,26.54,34.78,1.9244,377.6524],
    [17373,1532811201,57.0738,-111.8205,621.4,276.4,181.4,0.9,2.1,27.51,34.69,1.9236,376.9668],
    [17374,1532811202,57.0733,-111.8205,621.5,276.5,182.1,1.5,0.8,27.02,35.56,1.9227,375.3181],
    [17375,1532811203,57.0728,-111.8205,620.8,275.8,182.0,1.6,0.1,26.67,35.37,1.9254,377.3033],
    [17376,1532811204,57.0722,-111.8205,619.3,274.3,182.2,2.0,0.8,26.76,35.42,1.9309,376.5274],
    [17377,1532811205,57.0717,-111.8205,617.8,272.1,180.8,1.0,1.2,27.0,35.25,1.9332,377.1489],
    [17378,1532811206,57.0711,-111.8205,615.8,269.8,181.2,1.7,0.6,26.73,35.47,1.9356,377.1489],
    [17379,1532811207,57.0706,-111.8205,614.4,268.4,181.3,1.7,1.3,26.99,36.47,1.9342,377.4358],
    [17380,1532811208,57.07,-111.8205,614.2,268.2,181.1,1.6,1.5,27.12,35.76,1.9331,376.9073],
    [17381,1532811209,57.0695,-111.8205,614.4,268.4,182.2,2.3,1.5,27.13,35.21,1.9328,376.6407],
    [17382,1532811210,57.0689,-111.8205,614.3,267.3,181.4,1.2,1.3,27.35,35.26,1.9321,376.7417],
    [17383,1532811211,57.0683,-111.8205,613.8,266.8,182.0,2.1,1.0,27.02,35.2,1.9309,376.901],
    [17384,1532811212,57.0678,-111.8205,613.0,266.0,182.2,2.4,1.1,27.09,34.85,1.9268,377.4283],
    [17385,1532811213,57.0672,-111.8205,612.2,264.2,181.2,1.8,0.5,26.97,35.02,1.9264,377.351],
    [17386,1532811214,57.0666,-111.8205,611.6,263.6,182.2,2.7,-0.1,26.8,34.91,1.9271,377.7487],
    [17387,1532811215,57.0661,-111.8205,610.6,262.3,182.0,2.3,-0.7,26.62,34.83,1.9267,377.3171],
    [17388,1532811216,57.0655,-111.8205,609.4,260.4,181.7,2.0,-0.5,26.99,35.42,1.9246,378.1243],
    [17389,1532811217,57.0649,-111.8205,607.8,258.8,182.4,2.6,0.0,27.45,34.35,1.9251,378.1243],
    [17390,1532811218,57.0644,-111.8205,606.1,257.1,182.8,2.5,0.3,27.02,34.77,1.9245,377.7217],
    [17391,1532811219,57.0638,-111.8205,604.3,255.3,182.9,2.3,0.4,27.12,34.85,1.9233,377.4364],
    [17392,1532811220,57.0633,-111.8205,602.7,253.7,183.1,2.2,0.6,27.42,34.31,1.9234,377.9919],
    [17393,1532811221,57.0627,-111.8205,600.8,251.8,183.1,2.4,1.2,26.69,34.59,1.9256,377.063],
    [17394,1532811222,57.0621,-111.8205,598.8,249.8,183.1,2.7,0.6,27.1,35.12,1.9273,377.5899],
    [17395,1532811223,57.0616,-111.8205,597.9,248.9,183.2,3.0,0.3,27.28,34.25,1.9284,378.1569],
    [17396,1532811224,57.061,-111.8205,597.7,248.7,183.4,3.2,1.1,26.71,34.71,1.9288,378.4906],
    [17397,1532811225,57.0605,-111.8205,597.7,248.7,183.7,3.4,0.9,26.8,34.91,1.9264,377.4788],
    [17398,1532811226,57.0599,-111.8206,597.5,248.5,183.7,3.2,1.4,26.97,35.49,1.9313,377.683],
    [17399,1532811227,57.0594,-111.8206,597.3,247.8,183.4,2.8,1.8,27.03,34.54,1.9373,376.9229],
    [17400,1532811228,57.0588,-111.8206,596.9,246.9,183.7,2.9,1.6,27.06,34.51,1.9364,377.4355],
    [17401,1532811229,57.0583,-111.8206,596.1,246.1,183.8,2.9,2.2,27.1,34.44,1.9331,376.7301],
    [17402,1532811230,57.0577,-111.8206,595.3,245.3,183.4,2.6,2.5,27.07,34.76,1.933,378.1117],
    [17403,1532811231,57.0572,-111.8207,595.0,245.0,183.1,2.8,3.0,27.51,34.35,1.924,378.4576],
    [17404,1532811232,57.0567,-111.8207,595.4,245.4,182.3,2.4,3.0,26.96,34.76,1.9226,377.4134],
    [17405,1532811233,57.0561,-111.8207,597.4,247.4,180.9,1.6,2.8,26.92,34.66,1.9232,377.7638],
    [17406,1532811234,57.0555,-111.8206,601.2,251.2,180.6,1.7,3.2,26.95,34.53,1.9214,379.4267],
    [17407,1532811235,57.055,-111.8206,605.7,255.7,181.4,2.2,3.7,27.09,33.77,1.921,379.5198],
    [17408,1532811236,57.0545,-111.8206,610.6,260.6,180.5,0.9,4.3,27.05,33.4,1.9225,378.9448],
    [17409,1532811237,57.0539,-111.8206,615.9,264.9,179.6,0.1,4.6,27.17,33.09,1.9223,378.9448],
    [17410,1532811238,57.0534,-111.8206,620.3,269.3,181.0,1.8,4.9,27.35,32.79,1.9218,378.1575],
    [17411,1532811239,57.0528,-111.8206,623.6,272.6,181.4,2.4,5.0,26.91,33.5,1.9209,378.1575],
    [17412,1532811240,57.0523,-111.8206,626.0,275.0,180.6,1.6,5.1,27.22,32.68,1.9193,379.7],
    [17413,1532811241,57.0518,-111.8206,628.1,277.1,180.6,1.5,4.0,26.99,32.89,1.9214,378.115],
    [17414,1532811242,57.0512,-111.8205,630.0,279.0,180.8,1.7,2.5,27.25,32.49,1.9217,379.8333],
    [17415,1532811243,57.0507,-111.8205,631.6,280.6,181.1,1.8,1.3,27.42,31.69,1.9229,378.9016],
    [17416,1532811244,57.0502,-111.8205,632.8,280.8,181.3,1.8,0.6,26.4,32.67,1.9218,377.9749],
    [17417,1532811245,57.0496,-111.8205,634.4,282.4,180.7,0.7,-0.4,27.65,31.88,1.9204,378.5982],
    [17418,1532811246,57.0491,-111.8205,637.1,285.1,180.3,0.2,-1.2,27.21,31.86,1.9203,378.4521],
    [17419,1532811247,57.0486,-111.8205,639.8,287.8,181.9,1.6,-1.8,27.02,32.07,1.9199,377.6737],
    [17420,1532811248,57.048,-111.8205,642.3,289.3,182.0,1.3,-2.1,26.66,32.25,1.9176,378.7197],
    [17421,1532811249,57.0475,-111.8205,644.4,291.4,181.0,0.6,-2.8,26.46,32.29,1.9163,379.8264],
    [17422,1532811250,57.047,-111.8205,646.1,293.1,181.4,1.0,-3.6,26.37,31.75,1.9179,379.827],
    [17423,1532811251,57.0465,-111.8205,647.1,294.1,181.5,1.4,-4.1,26.88,31.6,1.9181,379.7275],
    [17424,1532811252,57.0459,-111.8205,647.6,294.6,182.8,2.5,-4.6,26.89,31.39,1.9144,379.5607],
    [17425,1532811253,57.0454,-111.8206,648.1,295.1,183.3,2.5,-5.2,26.5,31.58,1.9173,380.5129],
    [17426,1532811254,57.0449,-111.8206,648.6,295.6,182.5,1.9,-5.5,26.3,30.67,1.9216,379.3353],
    [17427,1532811255,57.0443,-111.8206,648.3,295.3,182.8,2.3,-5.3,26.91,30.76,1.9227,380.2148],
    [17428,1532811256,57.0438,-111.8206,647.8,294.8,182.7,2.2,-5.3,26.57,30.9,1.9182,380.0634],
    [17429,1532811257,57.0433,-111.8206,647.5,294.5,181.9,1.7,-4.9,26.94,31.11,1.9192,379.6807],
    [17430,1532811258,57.0427,-111.8206,646.9,294.6,182.4,2.2,-5.0,26.08,31.73,1.9151,379.7933],
    [17431,1532811259,57.0422,-111.8206,646.6,293.6,181.6,1.4,-5.3,26.05,31.5,1.9123,380.115],
    [17432,1532811260,57.0417,-111.8206,646.0,292.2,181.0,0.9,-5.7,26.86,30.7,1.9114,380.6541],
    [17433,1532811261,57.0411,-111.8206,644.8,289.8,182.1,1.8,-5.9,26.3,30.49,1.912,380.8784],
    [17434,1532811262,57.0406,-111.8206,643.8,287.8,182.4,1.7,-6.1,26.4,29.55,1.913,380.7452],
    [17435,1532811263,57.04,-111.8206,643.6,286.6,182.4,1.4,-6.3,26.78,28.92,1.913,380.8034],
    [17436,1532811264,57.0395,-111.8206,643.9,285.9,182.9,1.5,-6.4,26.12,28.59,1.9067,381.7288],
    [17437,1532811265,57.039,-111.8206,644.6,286.6,182.8,1.3,-5.9,26.25,28.22,1.9103,381.7288],
    [17438,1532811266,57.0384,-111.8207,645.8,287.8,182.3,0.9,-5.3,26.57,28.19,1.9123,381.9277],
    [17439,1532811267,57.0379,-111.8207,646.6,288.6,182.2,1.2,-4.7,25.89,27.66,1.9147,381.4095],
    [17440,1532811268,57.0373,-111.8207,647.6,289.6,181.7,0.8,-4.4,26.28,27.69,1.9179,382.2742],
    [17441,1532811269,57.0367,-111.8207,649.4,291.4,180.6,0.3,-3.9,26.14,28.55,1.9152,382.2742],
    [17442,1532811270,57.0362,-111.8207,652.0,294.0,181.1,0.6,-3.4,26.25,28.08,1.9121,381.9463],
    [17443,1532811271,57.0357,-111.8207,655.1,296.1,181.8,0.9,-2.8,26.5,27.72,1.9176,381.4598],
    [17444,1532811272,57.0351,-111.8207,659.6,300.6,182.9,1.6,-2.2,26.16,27.91,1.9202,381.2434],
    [17445,1532811273,57.0346,-111.8208,667.1,308.1,182.7,1.3,-1.0,25.64,28.18,1.9211,381.32],
    [17446,1532811274,57.0341,-111.8208,677.1,318.1,182.0,0.7,0.5,26.62,28.44,1.9181,381.6817],
    [17447,1532811275,57.0335,-111.8208,687.0,328.0,182.2,1.0,2.1,25.67,29.2,1.9151,381.6143],
    [17448,1532811276,57.033,-111.8208,695.7,335.7,182.0,0.6,2.7,26.71,29.02,1.9145,380.4786],
    [17449,1532811277,57.0325,-111.8209,704.0,344.0,181.9,0.4,3.5,26.31,29.37,1.9204,380.299],
    [17450,1532811278,57.032,-111.8209,712.5,352.5,182.4,0.7,4.5,26.17,29.61,1.9184,380.6054],
    [17451,1532811279,57.0316,-111.8209,720.3,360.3,182.9,1.0,5.2,26.2,30.03,1.9187,380.6054],
    [17452,1532811280,57.0311,-111.8209,727.8,367.8,182.8,0.9,6.5,26.49,29.28,1.9189,380.5216],
    [17453,1532811281,57.0306,-111.821,734.8,374.9,183.0,1.2,7.5,26.27,29.73,1.9179,381.7133],
    [17454,1532811282,57.0301,-111.821,741.1,382.6,183.0,1.3,8.4,25.89,30.17,1.9169,380.8577],
    [17455,1532811283,57.0297,-111.821,746.5,391.9,182.5,0.9,9.2,26.46,29.8,1.9153,380.8577],
    [17456,1532811284,57.0292,-111.8211,751.1,397.6,182.5,1.2,10.2,26.65,29.81,1.9154,379.6793],
    [17457,1532811285,57.0288,-111.8211,755.2,402.8,182.5,1.6,10.4,25.87,30.36,1.9172,380.6116],
    [17458,1532811286,57.0283,-111.8211,758.5,405.0,182.5,1.8,10.7,25.95,30.17,1.9191,381.0974],
    [17459,1532811287,57.0279,-111.8211,759.8,403.8,183.1,2.8,11.5,25.89,30.09,1.9207,379.2345],
    [17460,1532811288,57.0274,-111.8211,759.8,402.8,183.3,2.9,11.5,25.93,30.21,1.9214,380.4178],
    [17461,1532811289,57.0269,-111.8211,759.8,402.8,182.2,2.0,10.8,25.52,31.29,1.9217,380.7018],
    [17462,1532811290,57.0265,-111.8211,759.9,403.5,181.9,1.9,10.7,25.8,31.51,1.9212,379.688],
    [17463,1532811291,57.026,-111.8211,761.1,408.5,181.7,1.9,10.9,26.55,31.41,1.9212,379.7624],
    [17464,1532811292,57.0256,-111.8211,763.2,412.4,181.7,2.2,11.1,25.98,32.21,1.9218,379.7117],
    [17465,1532811293,57.0251,-111.8211,765.6,419.0,181.6,2.3,10.8,26.35,31.95,1.9229,379.8684],
    [17466,1532811294,57.0246,-111.8211,768.4,424.4,180.7,1.8,11.5,26.06,32.92,1.9226,378.7405],
    [17467,1532811295,57.0242,-111.8211,770.9,424.1,180.6,1.8,11.3,26.38,32.87,1.9215,377.1645],
    [17468,1532811296,57.0237,-111.8211,772.7,428.6,180.1,1.0,11.1,25.86,33.69,1.9217,378.3171],
    [17469,1532811297,57.0233,-111.8211,773.7,433.4,179.8,0.6,11.5,26.48,33.04,1.9221,378.6058],
    [17470,1532811298,57.0228,-111.8211,773.7,436.0,181.0,1.6,10.4,26.57,33.32,1.9224,378.7942],
    [17471,1532811299,57.0223,-111.821,773.4,439.7,181.6,1.8,9.8,25.82,34.41,1.9223,378.457],
    [17472,1532811300,57.0219,-111.8211,773.2,442.4,181.5,1.5,9.3,25.9,34.7,1.9218,378.4946],
    [17473,1532811301,57.0214,-111.8211,772.8,443.7,182.4,2.3,9.5,25.82,34.68,1.9216,377.916],
    [17474,1532811302,57.0209,-111.8211,772.6,443.9,182.6,2.5,9.8,25.65,34.96,1.9218,379.7821],
    [17475,1532811303,57.0204,-111.8211,772.5,443.9,182.5,2.3,9.4,26.17,35.2,1.922,379.67],
    [17476,1532811304,57.0199,-111.8211,772.3,442.0,182.8,2.8,9.6,25.88,35.06,1.9216,377.8954],
    [17477,1532811305,57.0194,-111.8211,772.3,438.0,182.6,2.6,9.9,26.57,34.07,1.9227,378.1],
    [17478,1532811306,57.0189,-111.8211,772.7,435.2,182.2,2.6,10.2,26.62,34.13,1.9213,377.9095],
    [17479,1532811307,57.0184,-111.8211,773.2,427.2,182.1,2.7,10.5,25.29,34.72,1.9199,379.2744],
    [17480,1532811308,57.0179,-111.8211,773.5,418.8,182.2,3.0,10.4,26.68,33.84,1.9203,379.2744],
    [17481,1532811309,57.0174,-111.8211,774.1,413.0,181.6,2.2,10.2,26.17,34.71,1.9223,378.9352],
    [17482,1532811310,57.0169,-111.8211,775.1,411.1,180.9,1.7,10.2,25.18,34.46,1.922,380.0372],
    [17483,1532811311,57.0164,-111.821,775.9,411.2,181.5,2.4,9.8,25.61,34.45,1.9221,380.0992],
    [17484,1532811312,57.0159,-111.821,776.6,411.6,181.1,2.1,9.9,25.91,35.23,1.9217,378.6695],
    [17485,1532811313,57.0155,-111.821,777.1,412.1,180.7,2.0,9.6,26.12,34.36,1.9209,378.6111],
    [17486,1532811314,57.0149,-111.821,777.2,412.2,181.0,2.5,9.2,25.41,34.67,1.9216,378.4751],
    [17487,1532811315,57.0145,-111.821,776.5,411.5,180.4,2.0,9.8,25.78,34.68,1.9219,378.5962],
    [17488,1532811316,57.0139,-111.8209,775.2,410.2,180.2,2.0,10.8,25.68,34.76,1.9222,378.0659],
    [17489,1532811317,57.0134,-111.8209,773.7,408.7,180.7,2.1,10.8,25.82,34.94,1.9225,378.8006],
    [17490,1532811318,57.0129,-111.8209,772.5,407.5,180.3,1.6,10.4,25.63,35.2,1.921,378.8725],
    [17491,1532811319,57.0124,-111.8209,771.8,406.8,180.9,2.1,10.1,25.92,35.75,1.9204,377.6508],
    [17492,1532811320,57.0119,-111.8209,772.2,407.2,180.3,1.3,10.2,26.1,34.94,1.9208,378.4077],
    [17493,1532811321,57.0114,-111.8208,771.9,405.9,180.1,1.2,9.8,26.04,35.21,1.9215,378.6224],
    [17494,1532811322,57.0108,-111.8208,771.0,405.0,181.2,2.0,9.6,26.04,34.29,1.922,378.533],
    [17495,1532811323,57.0103,-111.8208,770.7,404.7,181.3,1.7,9.8,25.18,34.72,1.9214,378.5923],
    [17496,1532811324,57.0098,-111.8208,771.6,404.6,181.7,1.9,9.9,25.97,34.32,1.9202,379.1149],
    [17497,1532811325,57.0093,-111.8208,772.3,405.3,181.8,1.9,9.2,25.61,34.11,1.9202,378.7117],
    [17498,1532811326,57.0087,-111.8208,772.9,404.9,181.6,1.9,8.9,26.32,33.57,1.9189,380.2971],
    [17499,1532811327,57.0082,-111.8208,773.0,405.0,182.5,3.0,8.4,25.87,34.09,1.9167,379.3991],
    [17500,1532811328,57.0077,-111.8208,773.0,405.0,182.0,2.7,7.9,26.2,32.98,1.9187,379.3243],
    [17501,1532811329,57.0071,-111.8208,772.9,404.9,181.7,2.7,7.6,25.83,33.12,1.9182,379.6102],
    [17502,1532811330,57.0066,-111.8208,773.5,405.5,182.1,3.3,7.3,25.96,32.73,1.9174,379.7242],
    [17503,1532811331,57.0061,-111.8208,774.8,406.8,181.3,2.3,7.0,25.97,32.6,1.9173,380.1819],
    [17504,1532811332,57.0055,-111.8208,776.5,407.5,180.4,1.5,7.1,26.27,31.57,1.9148,379.4723],
    [17505,1532811333,57.005,-111.8208,777.8,408.8,181.0,2.4,7.0,25.87,32.34,1.9152,379.8333],
    [17506,1532811334,57.0045,-111.8207,777.9,408.9,181.2,3.1,6.6,25.68,31.71,1.9162,379.7544],
    [17507,1532811335,57.0039,-111.8207,777.2,408.0,181.6,3.7,5.9,25.91,30.89,1.9207,379.727],
    [17508,1532811336,57.0034,-111.8207,776.1,406.1,180.4,2.6,5.9,25.38,31.04,1.9236,379.0184],
    [17509,1532811337,57.0028,-111.8206,775.1,405.2,179.8,2.3,6.2,25.16,31.31,1.9238,378.6754],
    [17510,1532811338,57.0023,-111.8206,774.6,404.6,180.3,2.6,6.3,25.9,32.0,1.9238,377.5554],
    [17511,1532811339,57.0017,-111.8206,774.6,403.6,180.4,2.4,5.5,26.47,32.55,1.9234,377.5566],
    [17512,1532811340,57.0011,-111.8205,774.9,403.9,181.4,3.0,5.8,26.36,33.41,1.9229,376.7811],
    [17513,1532811341,57.0006,-111.8205,775.2,404.3,181.6,2.9,5.1,25.8,34.73,1.9225,376.6983],
    [17514,1532811342,57.0,-111.8205,775.2,404.1,182.0,3.1,5.3,26.11,34.78,1.9219,377.0927],
    [17515,1532811343,56.9995,-111.8205,774.6,403.5,182.6,3.4,4.1,25.67,35.47,1.9223,377.4506],
    [17516,1532811344,56.9989,-111.8205,773.7,401.8,182.5,3.0,4.4,25.8,35.94,1.9213,377.6092],
    [17517,1532811345,56.9983,-111.8205,772.6,400.7,183.4,3.8,3.9,25.48,35.8,1.9205,377.3883],
    [17518,1532811346,56.9977,-111.8205,771.8,399.9,182.8,3.3,3.2,25.77,36.29,1.9219,376.3055],
    [17519,1532811347,56.9972,-111.8205,770.9,398.9,181.6,2.5,2.5,25.86,36.41,1.9207,376.6341],
    [17520,1532811348,56.9966,-111.8205,769.3,397.3,181.6,2.7,2.1,26.25,35.83,1.9212,376.9807],
    [17521,1532811349,56.996,-111.8205,768.0,395.9,181.5,3.1,2.4,25.81,36.35,1.9219,376.8902],
    [17522,1532811350,56.9954,-111.8204,766.6,394.6,181.8,3.5,2.2,25.79,36.42,1.9221,377.7715],
    [17523,1532811351,56.9949,-111.8204,766.0,394.0,181.8,3.6,1.7,26.56,35.82,1.9219,377.172],
    [17524,1532811352,56.9943,-111.8204,766.1,394.1,181.2,3.0,1.7,26.38,35.44,1.9203,376.5952],
    [17525,1532811353,56.9937,-111.8204,766.1,394.1,181.0,3.0,2.2,26.34,35.27,1.9219,376.64],
    [17526,1532811354,56.9931,-111.8203,765.6,393.6,181.3,3.2,1.9,25.84,36.35,1.9208,377.1368],
    [17527,1532811355,56.9926,-111.8203,764.8,392.8,180.9,2.7,3.1,25.82,35.69,1.9209,377.576],
    [17528,1532811356,56.992,-111.8203,764.5,392.5,180.7,2.4,3.0,25.6,35.76,1.9224,376.9086],
    [17529,1532811357,56.9914,-111.8202,765.0,394.0,180.7,2.3,1.4,25.08,35.72,1.9206,377.7608],
    [17530,1532811358,56.9908,-111.8202,766.0,395.0,181.0,2.6,2.2,25.82,35.56,1.9212,376.9612],
    [17531,1532811359,56.9902,-111.8202,767.1,396.1,181.6,3.0,1.3,25.65,36.08,1.9213,376.1605],
    [17532,1532811360,56.9896,-111.8202,768.4,397.4,181.6,2.9,1.0,25.73,36.77,1.9213,376.9856],
    [17533,1532811361,56.989,-111.8202,769.6,398.6,182.0,3.3,1.0,25.61,36.5,1.92,377.1287],
    [17534,1532811362,56.9885,-111.8201,770.4,399.4,182.2,3.4,0.5,25.3,36.67,1.9197,377.5842],
    [17535,1532811363,56.9879,-111.8201,771.0,400.0,182.3,3.4,0.0,25.94,36.51,1.9195,377.2131],
    [17536,1532811364,56.9873,-111.8201,771.3,400.3,182.1,3.2,0.1,25.7,36.53,1.9187,376.225],
    [17537,1532811365,56.9867,-111.8201,771.2,399.9,182.8,3.9,1.2,25.52,36.85,1.9189,378.189],
    [17538,1532811366,56.9861,-111.8201,770.5,398.5,182.8,3.9,1.4,26.21,36.18,1.9206,376.1485],
    [17539,1532811367,56.9855,-111.8201,769.8,397.8,182.8,3.9,1.4,25.32,37.26,1.9217,376.9905],
    [17540,1532811368,56.985,-111.8201,769.8,397.8,182.4,3.3,0.7,24.96,36.94,1.9205,377.4732],
    [17541,1532811369,56.9844,-111.8201,770.3,398.3,181.3,2.3,1.2,25.76,36.97,1.9202,376.6588],
    [17542,1532811370,56.9838,-111.82,770.8,398.8,181.0,2.2,1.2,25.1,36.45,1.9208,377.2122],
    [17543,1532811371,56.9832,-111.82,771.2,398.5,180.5,1.8,0.6,25.85,36.65,1.9204,378.385],
    [17544,1532811372,56.9826,-111.82,772.2,399.2,180.6,2.3,0.0,25.73,36.38,1.9222,376.8013],
    [17545,1532811373,56.9821,-111.82,773.0,400.0,180.7,2.4,-0.5,25.78,35.63,1.9211,378.1407],
    [17546,1532811374,56.9815,-111.82,773.7,400.7,179.5,1.2,-0.6,25.66,35.96,1.9222,378.2321],
    [17547,1532811375,56.9809,-111.8199,774.0,400.2,179.8,1.8,-1.1,26.02,35.44,1.9235,378.1093],
    [17548,1532811376,56.9803,-111.8199,774.4,400.4,179.9,1.6,-1.9,25.7,35.7,1.9203,377.7863],
    [17549,1532811377,56.9797,-111.8199,775.1,401.1,179.8,1.9,-2.4,25.99,35.18,1.9209,377.7863],
    [17550,1532811378,56.9791,-111.8198,775.9,400.9,182.0,3.7,-2.6,25.7,35.62,1.921,378.1056],
    [17551,1532811379,56.9786,-111.8198,777.2,402.2,179.8,1.4,-2.6,25.5,35.97,1.921,378.0548],
    [17552,1532811380,56.978,-111.8198,779.0,403.3,179.7,2.0,-2.6,25.37,35.84,1.924,377.3881],
    [17553,1532811381,56.9774,-111.8197,780.1,404.1,181.2,3.2,-2.0,25.47,35.91,1.923,378.3632],
    [17554,1532811382,56.9768,-111.8197,780.8,404.5,179.9,2.0,-2.3,25.7,36.27,1.9208,378.1223],
    [17555,1532811383,56.9762,-111.8197,780.9,403.9,181.0,3.0,-2.4,26.12,35.26,1.9213,378.1223],
    [17556,1532811384,56.9756,-111.8196,781.2,404.2,180.8,2.7,-2.4,25.31,35.67,1.9228,377.3159],
    [17557,1532811385,56.975,-111.8196,781.5,403.5,180.4,2.5,-2.3,26.02,35.23,1.9216,378.0769],
    [17558,1532811386,56.9744,-111.8196,781.9,403.9,180.5,2.8,-1.9,25.64,36.33,1.9222,378.0769],
    [17559,1532811387,56.9738,-111.8195,783.1,404.1,179.7,2.1,-1.7,25.12,36.07,1.9219,377.8024],
    [17560,1532811388,56.9732,-111.8195,785.0,406.0,179.7,2.2,-1.3,25.85,35.36,1.9208,377.2613],
    [17561,1532811389,56.9726,-111.8194,787.2,407.9,180.0,2.4,-1.1,25.17,35.94,1.9203,378.5723],
    [17562,1532811390,56.9721,-111.8194,789.4,409.4,179.8,2.1,-0.8,25.51,36.51,1.9179,378.3047],
    [17563,1532811391,56.9715,-111.8194,791.5,410.5,179.5,1.5,-1.0,25.57,36.6,1.9175,379.6441],
    [17564,1532811392,56.9709,-111.8193,793.5,411.4,179.2,1.0,-0.7,25.89,35.62,1.9184,377.5454],
    [17565,1532811393,56.9703,-111.8193,794.6,412.6,180.5,1.7,-1.0,25.19,35.91,1.918,377.8587],
    [17566,1532811394,56.9697,-111.8193,795.0,412.0,181.9,2.5,-1.8,24.97,35.52,1.9187,378.4225],
    [17567,1532811395,56.9692,-111.8193,795.0,410.9,182.8,2.7,-2.2,25.24,35.49,1.9184,378.8769],
    [17568,1532811396,56.9686,-111.8193,795.1,410.2,183.3,2.8,-2.6,25.99,35.13,1.9189,378.3033],
    [17569,1532811397,56.968,-111.8193,795.3,409.3,183.3,2.3,-3.0,26.07,34.8,1.9183,378.3205],
    [17570,1532811398,56.9674,-111.8193,795.0,407.3,182.7,1.5,-3.6,26.02,35.16,1.9192,378.2496],
    [17571,1532811399,56.9668,-111.8194,795.7,406.6,182.6,1.7,-3.6,25.42,35.39,1.9174,378.0946],
    [17572,1532811400,56.9663,-111.8194,796.9,406.9,182.4,2.0,-3.2,25.45,35.04,1.9185,378.4014],
    [17573,1532811401,56.9657,-111.8194,798.3,406.6,182.3,2.4,-2.7,25.91,34.86,1.9189,378.2343],
    [17574,1532811402,56.9651,-111.8194,799.0,406.5,182.8,2.9,-1.7,25.35,35.37,1.9198,378.4472],
    [17575,1532811403,56.9645,-111.8194,800.2,406.2,182.5,2.4,-1.7,25.47,35.38,1.9198,377.9969],
    [17576,1532811404,56.9639,-111.8194,802.3,408.3,182.8,2.7,-1.9,25.37,35.82,1.9188,378.1917],
    [17577,1532811405,56.9634,-111.8194,804.3,409.3,183.3,2.9,-1.9,25.81,35.03,1.9183,378.414],
    [17578,1532811406,56.9628,-111.8194,805.9,409.9,183.4,2.7,-2.1,25.86,34.87,1.9199,377.4062],
    [17579,1532811407,56.9622,-111.8194,807.2,410.2,183.2,2.2,-1.7,25.56,34.91,1.9202,379.1401],
    [17580,1532811408,56.9617,-111.8195,808.1,410.0,183.3,2.2,-0.9,25.42,35.77,1.9204,378.3233],
    [17581,1532811409,56.9611,-111.8195,808.5,409.5,183.4,2.4,0.0,25.4,35.59,1.9194,378.0371],
    [17582,1532811410,56.9606,-111.8195,808.5,408.5,183.2,2.4,-0.2,25.02,34.91,1.92,377.3773],
    [17583,1532811411,56.96,-111.8195,807.9,406.8,183.2,2.5,-0.8,25.11,35.05,1.9208,378.7161],
    [17584,1532811412,56.9594,-111.8195,806.7,404.7,183.0,2.3,-1.0,26.02,34.25,1.9192,378.7639],
    [17585,1532811413,56.9589,-111.8195,805.4,403.4,182.9,2.2,-1.1,25.71,35.3,1.9202,378.3961],
    [17586,1532811414,56.9583,-111.8196,804.3,401.3,182.8,2.4,-0.5,25.09,35.22,1.9201,379.4591],
    [17587,1532811415,56.9577,-111.8196,803.5,400.5,182.5,2.4,-0.2,25.69,34.42,1.9208,378.0973],
    [17588,1532811416,56.9571,-111.8196,803.2,400.2,182.3,2.5,-0.4,25.7,34.68,1.9222,377.8093],
    [17589,1532811417,56.9566,-111.8196,802.9,399.9,182.0,2.5,-0.7,25.52,35.46,1.9218,378.3942],
    [17590,1532811418,56.956,-111.8196,802.5,398.5,181.5,2.4,-1.2,26.15,34.36,1.9222,376.7394],
    [17591,1532811419,56.9555,-111.8195,801.9,397.9,181.3,2.3,-2.2,25.49,34.97,1.9221,378.4753],
    [17592,1532811420,56.9549,-111.8195,801.1,397.1,181.1,2.4,-2.5,24.88,35.16,1.9213,378.3498],
    [17593,1532811421,56.9543,-111.8195,800.4,396.4,180.8,2.4,-2.7,25.23,36.09,1.9207,378.3119],
    [17594,1532811422,56.9538,-111.8195,800.0,395.0,180.7,2.4,-2.7,25.13,36.11,1.9205,376.903],
    [17595,1532811423,56.9532,-111.8195,800.2,395.2,180.8,2.5,-2.0,25.31,35.85,1.9209,378.3119],
    [17596,1532811424,56.9526,-111.8194,800.8,395.8,180.9,2.4,-2.0,25.08,35.59,1.9207,379.2288],
    [17597,1532811425,56.9521,-111.8194,801.5,395.8,181.1,2.4,-1.7,25.43,36.18,1.9218,377.8718],
    [17598,1532811426,56.9515,-111.8194,801.9,395.9,181.5,2.5,-1.1,25.26,35.97,1.9208,377.8718],
    [17599,1532811427,56.9509,-111.8194,802.4,396.4,181.1,1.9,-0.5,25.27,35.42,1.9209,377.9688],
    [17600,1532811428,56.9504,-111.8194,803.3,397.3,181.0,1.3,-0.2,24.9,35.49,1.9203,378.028],
    [17601,1532811429,56.9498,-111.8194,804.1,397.1,181.8,1.6,0.5,25.32,35.36,1.9202,378.6443],
    [17602,1532811430,56.9493,-111.8194,804.9,397.9,182.7,2.1,0.6,25.23,35.23,1.921,378.362],
    [17603,1532811431,56.9487,-111.8194,805.7,398.7,182.8,2.2,0.9,25.18,35.94,1.9217,378.8817],
    [17604,1532811432,56.9481,-111.8194,806.3,398.3,182.7,2.2,1.3,24.81,35.01,1.922,378.6097],
    [17605,1532811433,56.9476,-111.8194,806.4,398.4,183.5,3.2,1.5,25.03,35.66,1.922,377.7194],
    [17606,1532811434,56.947,-111.8194,806.7,398.7,182.7,2.2,1.6,25.27,35.61,1.9225,378.9821],
    [17607,1532811435,56.9465,-111.8194,807.1,398.1,181.4,1.1,1.8,25.35,35.03,1.9209,378.2482],
    [17608,1532811436,56.9459,-111.8194,807.4,398.4,182.0,1.9,2.0,25.22,35.0,1.9219,378.2664],
    [17609,1532811437,56.9454,-111.8195,807.7,397.7,182.9,2.5,1.9,25.81,34.64,1.9202,378.8412],
    [17610,1532811438,56.9448,-111.8195,808.2,398.2,182.0,1.6,1.9,25.56,34.61,1.9208,378.6571],
    [17611,1532811439,56.9442,-111.8195,808.4,398.4,181.7,1.3,2.5,25.39,35.13,1.9217,379.449],
    [17612,1532811440,56.9437,-111.8195,807.8,396.8,182.9,2.5,2.7,25.65,34.36,1.9222,378.7172],
    [17613,1532811441,56.9431,-111.8195,806.8,395.8,183.6,2.8,2.9,25.96,34.43,1.9204,378.733],
    [17614,1532811442,56.9426,-111.8195,806.0,394.7,184.1,2.9,2.7,25.72,34.23,1.9191,378.6251],
    [17615,1532811443,56.942,-111.8196,805.2,393.2,184.0,2.6,2.7,26.07,33.84,1.922,378.691],
    [17616,1532811444,56.9415,-111.8196,804.7,392.0,183.4,2.0,3.2,25.13,34.46,1.9198,378.8633],
    [17617,1532811445,56.9409,-111.8196,804.4,391.4,184.0,2.4,2.5,25.36,34.49,1.9201,377.4478],
    [17618,1532811446,56.9403,-111.8197,804.3,391.3,184.6,2.7,2.3,25.2,34.38,1.9205,378.5264],
    [17619,1532811447,56.9398,-111.8197,804.9,390.9,185.0,2.9,2.0,25.32,34.73,1.9192,378.1632],
    [17620,1532811448,56.9392,-111.8197,805.8,391.8,185.7,4.2,1.7,25.15,34.36,1.9189,378.1632],
    [17621,1532811449,56.9387,-111.8198,806.9,392.2,184.3,4.6,1.9,24.9,34.43,1.9196,377.7393],
    [17622,1532811450,56.9382,-111.8197,808.9,393.9,180.1,3.6,2.1,25.94,34.08,1.9203,377.7393],
    [17623,1532811451,56.9376,-111.8196,811.1,395.0,176.1,3.2,2.5,25.33,34.37,1.9199,378.6238],
    [17624,1532811452,56.9371,-111.8195,812.8,395.8,171.3,2.6,2.4,26.03,34.36,1.9189,378.135],
    [17625,1532811453,56.9366,-111.8193,814.9,397.2,166.4,1.4,2.2,25.41,34.45,1.9195,378.135],
    [17626,1532811454,56.936,-111.8189,817.4,399.2,161.8,0.7,2.0,25.44,34.57,1.9205,377.9242],
    [17627,1532811455,56.9355,-111.8186,819.2,400.2,159.6,1.8,3.1,25.52,34.32,1.9194,378.2995],
    [17628,1532811456,56.935,-111.8182,820.2,400.1,155.9,0.7,4.0,25.41,34.56,1.9175,376.7435],
    [17629,1532811457,56.9345,-111.8177,819.4,399.1,152.8,0.8,4.5,25.84,34.02,1.9177,377.0829],
    [17630,1532811458,56.934,-111.8171,818.1,397.1,149.4,0.7,4.0,24.94,34.97,1.9182,376.9608],
    [17631,1532811459,56.9336,-111.8166,816.8,394.8,146.0,0.2,3.9,24.65,35.01,1.9181,376.8949],
    [17632,1532811460,56.9331,-111.8159,815.3,393.3,143.7,0.4,4.7,25.13,34.99,1.9181,377.9183],
    [17633,1532811461,56.9327,-111.8153,814.2,392.2,141.2,0.7,4.3,25.4,36.09,1.9188,378.005],
    [17634,1532811462,56.9323,-111.8145,813.5,391.5,138.2,0.5,4.1,25.91,34.93,1.9166,375.5438],
    [17635,1532811463,56.9319,-111.8138,812.8,390.8,135.9,0.8,3.8,25.6,34.9,1.9163,376.7551],
    [17636,1532811464,56.9315,-111.813,811.8,389.8,133.3,0.9,3.6,25.39,35.41,1.9173,377.7156],
    [17637,1532811465,56.9311,-111.8122,810.7,388.7,130.9,1.4,3.4,25.58,35.22,1.9184,377.7834],
    [17638,1532811466,56.9308,-111.8113,809.5,388.5,128.0,1.2,4.0,26.16,34.55,1.9175,377.7834],
    [17639,1532811467,56.9305,-111.8104,808.3,387.3,123.8,1.2,3.3,26.02,34.39,1.916,376.7335],
    [17640,1532811468,56.9302,-111.8095,807.3,387.3,119.3,0.3,3.1,24.82,35.28,1.9174,376.8318],
    [17641,1532811469,56.9299,-111.8085,806.4,386.4,115.1,1.0,2.4,26.26,34.77,1.9163,377.6828],
    [17642,1532811470,56.9297,-111.8075,805.6,386.4,111.3,1.1,2.1,24.97,35.27,1.9156,377.7274],
    [17643,1532811471,56.9295,-111.8064,804.4,385.4,107.8,0.5,2.1,25.42,35.29,1.9157,377.8643],
    [17644,1532811472,56.9294,-111.8054,803.2,384.2,104.4,0.1,1.8,25.65,34.76,1.9162,377.4214],
    [17645,1532811473,56.9293,-111.8043,802.0,383.8,101.1,0.1,1.4,25.44,35.34,1.9173,377.5023],
    [17646,1532811474,56.9292,-111.8032,800.9,382.9,99.0,0.4,1.9,25.66,34.7,1.9166,377.5142],
    [17647,1532811475,56.9291,-111.8021,800.7,382.7,95.8,0.4,0.7,24.98,34.92,1.9156,378.8839],
    [17648,1532811476,56.9291,-111.801,801.3,383.3,94.2,0.5,0.8,24.76,34.65,1.9178,379.4066],
    [17649,1532811477,56.9291,-111.7999,802.3,385.3,94.0,0.4,1.7,25.3,35.21,1.9165,377.2921],
    [17650,1532811478,56.929,-111.7988,803.9,387.9,93.4,-0.6,2.8,25.39,35.2,1.916,378.1535],
    [17651,1532811479,56.929,-111.7977,806.1,390.1,92.4,-2.2,3.3,25.41,34.46,1.9175,377.5344],
    [17652,1532811480,56.929,-111.7966,808.1,393.1,89.2,-1.5,1.6,26.06,33.77,1.9162,378.2139],
    [17653,1532811481,56.9291,-111.7955,809.8,395.1,87.2,-1.8,0.5,26.01,33.85,1.9156,378.1118],
    [17654,1532811482,56.9291,-111.7944,810.9,396.9,86.3,-1.7,0.1,25.44,34.08,1.9152,380.4206],
    [17655,1532811483,56.9292,-111.7933,811.8,398.8,86.4,-1.7,0.5,25.18,34.31,1.9161,378.583],
    [17656,1532811484,56.9292,-111.7922,812.8,399.8,86.4,-1.8,0.5,24.6,34.06,1.9162,379.4555],
    [17657,1532811485,56.9292,-111.7911,813.8,401.8,86.0,-1.8,0.1,25.29,33.81,1.9161,378.6642],
    [17658,1532811486,56.9293,-111.7901,815.1,403.1,86.8,-1.5,0.9,25.42,33.86,1.9156,378.5936],
    [17659,1532811487,56.9293,-111.789,816.3,405.3,86.0,-1.1,-0.4,25.42,33.98,1.9155,379.2047],
    [17660,1532811488,56.9294,-111.7879,817.3,406.3,86.7,-1.7,0.6,25.23,34.72,1.9147,379.4304],
    [17661,1532811489,56.9294,-111.7868,817.1,406.1,89.3,-1.3,3.0,25.29,34.15,1.9147,378.4654],
    [17662,1532811490,56.9294,-111.7857,815.9,404.9,88.1,-0.9,1.2,25.42,33.77,1.9141,378.2872],
    [17663,1532811491,56.9295,-111.7846,814.5,404.5,88.0,0.1,1.1,25.18,33.83,1.914,378.0901],
    [17664,1532811492,56.9295,-111.7835,813.9,403.9,89.2,0.0,1.8,25.49,33.7,1.9168,379.1864],
    [17665,1532811493,56.9295,-111.7824,813.9,403.9,88.8,0.0,1.1,25.54,33.54,1.9152,379.1864],
    [17666,1532811494,56.9295,-111.7813,814.5,404.5,89.3,0.4,1.5,25.38,33.82,1.9136,378.6852],
    [17667,1532811495,56.9296,-111.7802,815.4,405.4,89.0,0.2,1.2,25.81,33.98,1.9139,379.0795],
    [17668,1532811496,56.9296,-111.7791,816.5,406.5,88.9,0.5,1.1,25.44,33.87,1.9133,378.645],
    [17669,1532811497,56.9296,-111.778,817.4,407.4,88.6,0.4,0.5,25.33,33.77,1.914,377.9263],
    [17670,1532811498,56.9296,-111.7769,818.0,408.0,87.7,0.3,-0.5,26.25,33.3,1.9144,379.3144],
    [17671,1532811499,56.9296,-111.7758,818.9,408.9,88.4,0.8,0.2,25.4,33.55,1.9148,377.93],
    [17672,1532811500,56.9297,-111.7746,820.6,411.6,87.9,0.7,-0.4,25.14,33.76,1.9143,377.4348],
    [17673,1532811501,56.9297,-111.7735,821.9,412.9,88.0,0.4,-0.1,25.85,33.12,1.915,376.8095],
    [17674,1532811502,56.9297,-111.7724,823.2,414.2,87.8,0.7,-0.4,25.27,33.79,1.9155,377.9981],
    [17675,1532811503,56.9297,-111.7713,824.3,416.3,87.0,0.6,-1.1,25.41,33.8,1.9152,378.3487],
    [17676,1532811504,56.9297,-111.7702,823.9,415.9,88.0,-0.1,0.1,24.99,33.82,1.9148,378.0697],
    [17677,1532811505,56.9298,-111.7691,822.8,415.0,88.8,-0.3,0.6,25.15,34.01,1.915,377.387],
    [17678,1532811506,56.9298,-111.7679,821.3,414.3,88.1,0.5,-0.1,25.51,33.76,1.9156,378.3889],
    [17679,1532811507,56.9298,-111.7668,820.0,413.0,89.0,0.1,1.0,25.29,34.06,1.9146,378.4822],
    [17680,1532811508,56.9298,-111.7657,819.0,412.2,88.7,0.2,0.8,25.2,34.04,1.915,378.6279],
    [17681,1532811509,56.9298,-111.7645,817.9,411.9,88.3,-0.1,0.6,25.52,34.29,1.9156,378.2407],
    [17682,1532811510,56.9299,-111.7634,816.9,410.9,88.3,0.3,0.4,25.52,33.86,1.916,378.3349],
    [17683,1532811511,56.9299,-111.7623,815.8,410.0,88.5,-0.2,0.3,24.85,34.06,1.9163,377.6888],
    [17684,1532811512,56.9299,-111.7611,814.9,409.9,89.8,-0.1,1.2,25.23,34.1,1.917,378.2247],
    [17685,1532811513,56.9299,-111.76,813.8,408.8,90.6,-0.5,1.4,25.81,33.92,1.9144,377.8524],
    [17686,1532811514,56.9299,-111.7589,812.5,408.5,90.4,-0.3,0.9,25.71,33.98,1.9166,378.2146],
    [17687,1532811515,56.9299,-111.7577,811.0,407.3,91.0,-1.1,1.3,25.74,34.03,1.9169,376.2707],
    [17688,1532811516,56.9299,-111.7565,809.7,406.7,90.6,-0.9,1.0,25.3,34.82,1.9163,378.6271],
    [17689,1532811517,56.9299,-111.7554,809.1,407.1,90.6,-1.2,1.4,24.84,34.6,1.9173,378.0908],
    [17690,1532811518,56.9299,-111.7543,809.1,408.4,90.4,-1.5,1.2,25.45,34.68,1.9167,379.286],
    [17691,1532811519,56.9299,-111.7531,809.6,410.8,89.2,-1.8,0.3,25.56,34.98,1.9161,378.0251],
    [17692,1532811520,56.9299,-111.752,809.6,412.5,89.0,-1.4,0.5,25.41,35.51,1.9176,378.509],
    [17693,1532811521,56.93,-111.7508,809.7,414.6,88.4,-1.4,0.4,25.06,35.07,1.9173,378.8514],
    [17694,1532811522,56.93,-111.7497,809.8,416.1,87.1,-0.6,-0.7,25.95,34.32,1.9176,377.2814],
    [17695,1532811523,56.93,-111.7486,809.8,417.9,86.5,-1.0,-1.0,25.76,34.8,1.9158,377.8666],
    [17696,1532811524,56.93,-111.7474,809.9,419.2,86.8,-2.0,-0.5,25.42,34.72,1.9158,377.9446],
    [17697,1532811525,56.9301,-111.7462,810.4,421.4,88.4,-1.8,1.0,25.45,35.33,1.915,377.0354],
    [17698,1532811526,56.9301,-111.7451,811.8,422.9,87.7,-2.0,-0.2,24.85,34.84,1.9168,377.0133],
    [17699,1532811527,56.9301,-111.744,813.4,425.4,87.7,-2.0,0.0,25.09,34.86,1.9179,377.7127],
    [17700,1532811528,56.9302,-111.7428,815.0,427.0,88.6,-1.7,1.0,25.15,34.87,1.9153,377.0956],
    [17701,1532811529,56.9302,-111.7417,816.6,428.6,88.2,-1.9,0.4,25.48,35.12,1.9164,377.0956],
    [17702,1532811530,56.9302,-111.7405,818.3,430.3,88.2,-2.1,0.0,24.99,34.8,1.9158,377.5946],
    [17703,1532811531,56.9302,-111.7394,819.7,431.7,88.8,-2.1,0.4,26.18,34.25,1.9165,378.0207],
    [17704,1532811532,56.9302,-111.7383,820.6,432.6,89.9,-1.9,1.1,25.35,35.43,1.9173,378.4548],
    [17705,1532811533,56.9302,-111.7372,820.8,432.8,89.7,-2.2,0.4,25.21,34.58,1.917,377.722],
    [17706,1532811534,56.9302,-111.736,820.4,432.4,89.8,-2.0,0.4,25.48,35.02,1.9158,378.56],
    [17707,1532811535,56.9303,-111.7348,819.2,431.2,89.2,-1.4,-0.1,25.15,34.4,1.9156,378.8284],
    [17708,1532811536,56.9303,-111.7337,817.5,429.5,89.3,-1.3,0.3,25.25,34.01,1.9167,377.8993],
    [17709,1532811537,56.9303,-111.7325,815.5,427.5,88.8,-1.3,0.2,25.09,34.09,1.9171,377.6484],
    [17710,1532811538,56.9303,-111.7314,813.5,426.5,89.3,-1.0,1.2,25.75,34.28,1.9161,378.5035],
    [17711,1532811539,56.9303,-111.7302,812.3,425.3,89.1,-0.6,0.8,25.29,33.95,1.9173,378.9962],
    [17712,1532811540,56.9303,-111.729,810.9,424.6,88.8,0.1,0.2,25.28,34.64,1.9159,379.0365],
    [17713,1532811541,56.9303,-111.7278,809.5,423.5,89.2,0.3,0.0,25.16,33.97,1.9176,378.8978],
    [17714,1532811542,56.9303,-111.7266,808.6,422.6,88.9,0.5,-0.7,25.84,33.83,1.9187,378.8436],
    [17715,1532811543,56.9304,-111.7255,807.1,422.1,90.0,0.9,0.6,25.58,34.39,1.9164,378.5011],
    [17716,1532811544,56.9304,-111.7243,806.0,421.0,90.2,1.0,0.6,25.59,34.22,1.9166,377.7743],
    [17717,1532811545,56.9304,-111.7231,805.2,420.2,89.0,1.3,-0.8,25.41,33.97,1.9168,378.738],
    [17718,1532811546,56.9304,-111.7219,803.2,419.2,90.7,1.7,1.4,26.05,33.29,1.9169,378.7386],
    [17719,1532811547,56.9304,-111.7207,800.5,416.5,90.9,1.7,1.3,25.67,33.76,1.9164,377.6952],
    [17720,1532811548,56.9304,-111.7195,797.9,413.9,90.2,2.3,0.5,25.26,34.11,1.9169,378.4079],
    [17721,1532811549,56.9304,-111.7183,795.4,411.4,91.3,2.7,1.0,25.41,34.37,1.9154,377.8545],
    [17722,1532811550,56.9304,-111.7171,793.9,409.9,90.8,2.2,-0.2,24.98,34.15,1.9156,377.4439],
    [17723,1532811551,56.9304,-111.7158,793.2,410.2,91.5,1.3,0.4,25.53,33.98,1.9148,379.1037],
    [17724,1532811552,56.9303,-111.7146,792.7,409.7,91.6,2.1,0.2,25.46,34.14,1.9165,378.2703],
    [17725,1532811553,56.9303,-111.7134,792.1,409.1,90.4,2.2,-1.0,25.38,33.97,1.9159,378.0943],
    [17726,1532811554,56.9303,-111.7122,791.3,409.3,90.3,1.5,-1.1,25.68,34.07,1.9147,378.1931],
    [17727,1532811555,56.9303,-111.711,790.4,408.4,90.6,1.4,-0.9,25.45,34.2,1.9136,377.8703],
    [17728,1532811556,56.9303,-111.7098,788.8,406.8,91.4,2.0,-0.1,25.5,34.13,1.9138,376.4687],
    [17729,1532811557,56.9303,-111.7086,787.1,405.1,92.0,2.8,0.6,26.17,33.59,1.9129,378.6062],
    [17730,1532811558,56.9302,-111.7073,785.5,404.5,92.3,3.2,0.9,25.68,34.66,1.9107,377.9797],
    [17731,1532811559,56.9302,-111.7061,784.2,403.2,92.3,3.7,1.1,25.67,34.11,1.9132,377.8324],
    [17732,1532811560,56.9302,-111.7049,783.4,403.4,92.5,2.7,1.8,25.68,34.55,1.9133,378.3006],
    [17733,1532811561,56.9302,-111.7037,782.6,402.6,91.7,2.6,1.3,26.2,33.95,1.9128,378.4063],
    [17734,1532811562,56.9302,-111.7024,781.9,402.9,90.4,2.9,0.1,25.68,34.38,1.9124,377.8538],
    [17735,1532811563,56.9302,-111.7012,781.2,403.2,90.4,2.4,0.4,25.66,34.57,1.9121,378.5594],
    [17736,1532811564,56.9302,-111.6999,780.2,402.2,90.0,3.1,0.1,25.57,34.01,1.9131,378.5594],
    [17737,1532811565,56.9302,-111.6987,779.1,402.1,89.6,3.1,0.0,25.79,33.45,1.9137,378.5482],
    [17738,1532811566,56.9302,-111.6975,778.2,401.6,90.1,2.7,0.9,25.71,33.88,1.914,378.1332],
    [17739,1532811567,56.9302,-111.6962,777.4,401.4,90.4,2.3,1.3,25.43,34.32,1.9149,376.3946],
    [17740,1532811568,56.9302,-111.695,776.6,401.5,90.3,2.3,1.1,26.08,33.36,1.9151,379.748],
    [17741,1532811569,56.9302,-111.6938,775.8,401.8,90.1,2.6,1.0,25.91,34.11,1.9134,378.7908],
    [17742,1532811570,56.9302,-111.6925,774.8,401.9,90.0,2.6,1.0,26.17,32.97,1.9155,377.9444],
    [17743,1532811571,56.9302,-111.6913,773.9,401.6,89.8,2.9,1.1,26.08,33.5,1.9167,378.0611],
    [17744,1532811572,56.9303,-111.6901,773.0,401.0,89.3,2.5,0.9,25.69,34.49,1.918,378.6652],
    [17745,1532811573,56.9303,-111.6889,772.0,401.0,88.9,1.8,0.9,26.08,33.21,1.915,378.8403],
    [17746,1532811574,56.9303,-111.6876,771.0,401.0,88.5,2.2,0.9,26.37,33.18,1.9163,378.6407],
    [17747,1532811575,56.9303,-111.6864,770.1,400.8,88.2,2.4,0.6,25.81,33.56,1.9169,378.1764],
    [17748,1532811576,56.9304,-111.6852,769.4,400.7,87.7,2.8,-0.2,26.29,33.36,1.9163,378.9982],
    [17749,1532811577,56.9304,-111.684,768.8,400.8,88.7,3.4,0.4,25.55,34.12,1.9153,378.0925],
    [17750,1532811578,56.9304,-111.6828,768.3,401.3,90.0,4.0,1.3,24.95,33.85,1.9166,379.1294],
    [17751,1532811579,56.9304,-111.6816,768.0,402.0,90.3,4.1,0.8,25.54,34.24,1.9165,377.6636],
    [17752,1532811580,56.9304,-111.6803,768.7,403.7,90.8,3.7,1.1,25.2,34.13,1.9161,379.1114],
    [17753,1532811581,56.9304,-111.6792,769.3,406.0,89.7,3.0,-0.3,25.72,33.91,1.9158,378.578],
    [17754,1532811582,56.9304,-111.6779,769.7,407.7,88.4,3.2,-1.1,26.25,32.92,1.9152,378.3048],
    [17755,1532811583,56.9304,-111.6767,770.1,409.1,90.0,3.2,1.5,25.77,33.62,1.9125,378.3179],
    [17756,1532811584,56.9304,-111.6755,770.6,410.6,90.9,2.9,2.7,25.42,33.39,1.9133,378.4261],
    [17757,1532811585,56.9304,-111.6743,772.2,413.5,90.6,2.6,2.5,25.72,33.46,1.9139,378.3469],
    [17758,1532811586,56.9305,-111.6731,774.2,416.2,90.2,2.5,2.2,25.85,33.03,1.9149,378.0401],
    [17759,1532811587,56.9305,-111.6719,775.6,418.6,90.3,2.2,2.3,25.4,33.23,1.9144,378.0889],
    [17760,1532811588,56.9305,-111.6706,776.5,420.2,89.8,2.0,1.5,25.71,33.39,1.9147,378.1528],
    [17761,1532811589,56.9305,-111.6694,777.9,421.9,90.0,2.0,1.6,25.89,33.07,1.915,379.3905],
    [17762,1532811590,56.9305,-111.6682,779.0,424.0,90.7,2.2,1.9,25.79,33.56,1.9156,378.1337],
    [17763,1532811591,56.9305,-111.667,779.2,425.2,91.1,3.5,1.7,25.6,34.11,1.9138,376.9905],
    [17764,1532811592,56.9305,-111.6657,779.9,425.9,90.8,3.4,1.1,26.2,33.2,1.9129,378.2087],
    [17765,1532811593,56.9305,-111.6645,781.2,427.2,90.4,3.3,0.8,25.35,33.85,1.9132,378.4503],
    [17766,1532811594,56.9305,-111.6633,782.1,428.1,90.7,3.3,1.0,26.05,33.44,1.914,378.5206],
    [17767,1532811595,56.9305,-111.6621,782.9,429.9,90.6,3.6,0.8,25.35,34.18,1.9133,379.2208],
    [17768,1532811596,56.9305,-111.6609,783.2,430.2,90.9,3.6,1.0,26.67,33.22,1.914,379.2208],
    [17769,1532811597,56.9305,-111.6598,783.7,430.7,90.6,3.3,0.6,25.7,33.78,1.913,378.5925],
    [17770,1532811598,56.9305,-111.6586,783.7,431.7,90.7,3.1,1.0,25.77,34.39,1.9143,378.7153],
    [17771,1532811599,56.9305,-111.6573,783.1,431.1,90.9,1.7,1.4,25.65,33.51,1.9148,378.2059],
    [17772,1532811600,56.9305,-111.6562,782.1,431.1,90.8,1.3,1.4,25.18,33.43,1.9141,378.2059],
    [17773,1532811601,56.9305,-111.655,781.1,430.1,90.9,1.7,1.8,25.7,33.57,1.9156,379.1226],
    [17774,1532811602,56.9306,-111.6538,780.0,429.0,90.0,1.4,0.8,26.61,33.22,1.9149,378.5627],
    [17775,1532811603,56.9306,-111.6525,779.4,429.4,89.9,1.0,0.9,25.77,33.39,1.9164,377.3541],
    [17776,1532811604,56.9306,-111.6514,779.1,429.1,90.4,1.1,1.4,25.17,34.22,1.9146,377.3541],
    [17777,1532811605,56.9306,-111.6501,778.7,428.7,91.0,1.6,1.8,26.27,33.71,1.9144,377.8835],
    [17778,1532811606,56.9306,-111.6489,778.2,428.2,91.4,2.0,1.9,25.5,34.62,1.9155,377.5371],
    [17779,1532811607,56.9306,-111.6478,777.7,428.7,91.9,1.6,2.0,25.81,34.46,1.9158,377.2795],
    [17780,1532811608,56.9306,-111.6465,777.2,428.2,92.3,2.0,2.4,26.52,33.34,1.9178,377.5362],
    [17781,1532811609,56.9306,-111.6453,776.7,427.7,91.9,2.4,2.1,25.42,34.18,1.917,376.9654],
    [17782,1532811610,56.9306,-111.6441,775.8,427.9,92.1,2.2,2.6,25.85,34.66,1.9143,378.0554],
    [17783,1532811611,56.9306,-111.6429,774.4,428.4,92.2,2.3,2.7,26.18,33.84,1.9143,378.1744],
    [17784,1532811612,56.9306,-111.6417,773.0,428.0,91.5,2.7,1.9,25.94,34.62,1.9148,378.1744],
    [17785,1532811613,56.9306,-111.6405,771.5,427.5,91.5,3.2,2.1,25.45,34.53,1.9149,377.9436],
    [17786,1532811614,56.9306,-111.6393,770.7,426.7,91.6,4.1,1.9,26.13,34.61,1.9134,379.0239],
    [17787,1532811615,56.9306,-111.6381,770.3,426.3,91.3,3.8,1.6,26.59,33.42,1.9139,378.6168],
    [17788,1532811616,56.9306,-111.6369,769.6,425.6,91.4,3.7,1.4,25.69,34.84,1.9143,377.9778],
    [17789,1532811617,56.9306,-111.6357,768.2,425.2,91.1,4.3,0.9,25.94,34.81,1.9143,377.9449],
    [17790,1532811618,56.9306,-111.6345,766.5,423.5,91.8,5.1,1.5,26.42,33.56,1.9151,378.4378],
    [17791,1532811619,56.9306,-111.6333,764.5,422.5,92.0,5.2,1.2,26.45,33.77,1.9147,378.1332],
    [17792,1532811620,56.9305,-111.6321,762.7,420.7,91.7,5.7,0.9,26.13,33.85,1.9147,378.169],
    [17793,1532811621,56.9305,-111.6309,760.8,419.8,92.6,6.2,1.6,26.04,34.08,1.9154,378.1074],
    [17794,1532811622,56.9305,-111.6297,759.9,419.9,92.9,6.1,1.8,25.66,34.57,1.9158,378.4384],
    [17795,1532811623,56.9305,-111.6285,759.7,419.7,93.2,5.7,2.1,25.95,34.74,1.9135,378.3596],
    [17796,1532811624,56.9305,-111.6273,759.2,419.2,92.6,5.0,0.9,26.52,33.43,1.9156,378.1301],
    [17797,1532811625,56.9305,-111.6261,758.4,418.4,92.1,5.9,0.4,25.74,34.32,1.9153,377.6461],
    [17798,1532811626,56.9305,-111.625,757.3,418.4,93.5,6.7,1.9,25.97,34.71,1.9148,377.9634],
    [17799,1532811627,56.9304,-111.6238,756.0,417.0,93.3,7.3,1.6,26.15,34.04,1.9142,377.6689],
    [17800,1532811628,56.9304,-111.6225,754.5,415.5,93.2,7.6,1.6,26.02,34.18,1.916,379.19],
    [17801,1532811629,56.9304,-111.6213,752.3,414.3,93.5,6.8,1.7,25.97,34.11,1.9146,377.1495],
    [17802,1532811630,56.9304,-111.6201,749.8,412.9,92.5,6.6,0.8,26.13,34.24,1.9138,378.2255],
    [17803,1532811631,56.9304,-111.6189,747.4,411.5,92.0,6.5,0.4,26.6,33.78,1.9135,378.2132],
    [17804,1532811632,56.9303,-111.6177,745.6,410.6,91.8,6.4,0.2,26.09,34.43,1.9132,376.7045],
    [17805,1532811633,56.9303,-111.6166,744.5,409.5,91.7,6.5,0.3,26.16,34.26,1.9142,376.7045],
    [17806,1532811634,56.9303,-111.6154,743.5,408.5,91.8,6.0,0.4,26.23,34.46,1.9124,376.6958],
    [17807,1532811635,56.9303,-111.6141,742.4,408.4,91.0,6.4,-0.1,25.67,35.31,1.9136,378.182],
    [17808,1532811636,56.9303,-111.613,741.0,407.0,91.1,7.1,-0.1,25.96,34.58,1.9119,375.9751],
    [17809,1532811637,56.9303,-111.6118,739.5,406.8,91.5,7.4,0.1,25.94,34.51,1.9121,376.4157],
    [17810,1532811638,56.9303,-111.6106,738.4,406.4,92.1,7.5,0.9,25.73,34.74,1.912,378.3416],
    [17811,1532811639,56.9302,-111.6094,737.6,404.5,92.1,7.9,1.1,25.43,34.45,1.9132,377.6259],
    [17812,1532811640,56.9302,-111.6081,737.4,404.4,91.1,7.9,0.4,26.28,34.25,1.9127,377.7199],
    [17813,1532811641,56.9302,-111.607,737.9,404.2,91.6,7.4,1.1,25.29,34.47,1.9125,376.8139],
    [17814,1532811642,56.9302,-111.6058,738.4,403.9,91.5,7.2,1.0,26.01,34.02,1.9125,378.0939],
    [17815,1532811643,56.9302,-111.6046,738.5,403.5,91.3,7.0,0.9,25.73,34.5,1.912,377.8046],
    [17816,1532811644,56.9302,-111.6034,738.1,403.1,91.6,7.4,0.9,25.86,34.57,1.9125,377.8046],
    [17817,1532811645,56.9302,-111.6022,737.3,402.3,91.5,7.9,0.6,26.01,34.84,1.9122,378.1689],
    [17818,1532811646,56.9302,-111.601,736.2,402.2,92.0,8.4,0.5,25.78,34.17,1.913,378.4739],
    [17819,1532811647,56.9302,-111.5998,734.9,401.9,91.0,8.3,-0.3,25.46,34.17,1.9142,378.2766],
    [17820,1532811648,56.9302,-111.5986,733.9,401.9,92.0,8.6,0.5,25.72,34.15,1.9128,378.3001],
    [17821,1532811649,56.9301,-111.5974,733.7,402.6,92.9,8.0,1.3,25.74,34.96,1.9138,378.2004],
    [17822,1532811650,56.9301,-111.5962,734.8,405.8,93.2,7.7,1.1,25.81,34.09,1.9148,378.2004],
    [17823,1532811651,56.9301,-111.5951,735.8,408.9,93.0,7.5,1.0,25.95,34.33,1.9158,378.2556],
    [17824,1532811652,56.9301,-111.5939,735.8,411.3,93.4,6.9,1.7,25.94,34.42,1.9151,378.6175],
    [17825,1532811653,56.9301,-111.5927,736.1,408.4,91.9,6.4,0.5,25.51,34.25,1.9138,378.4257],
    [17826,1532811654,56.9301,-111.5916,736.4,406.6,91.6,6.2,0.7,26.72,33.62,1.9135,378.4796],
    [17827,1532811655,56.93,-111.5904,736.3,406.3,92.9,5.9,2.1,25.92,34.17,1.9142,379.1701],
    [17828,1532811656,56.93,-111.5893,735.7,406.7,92.0,5.2,1.5,26.79,33.83,1.9142,378.8012],
    [17829,1532811657,56.93,-111.5882,735.3,406.3,92.9,4.6,2.8,26.46,34.15,1.9155,377.0976],
    [17830,1532811658,56.93,-111.587,735.6,406.6,92.4,4.7,2.5,26.38,33.93,1.9137,378.1253],
    [17831,1532811659,56.93,-111.5859,735.9,407.9,91.7,5.2,2.0,25.84,34.5,1.9146,378.6136],
    [17832,1532811660,56.93,-111.5848,736.0,408.0,91.0,5.6,1.7,25.35,34.18,1.9146,379.0063],
    [17833,1532811661,56.93,-111.5836,734.4,407.4,90.8,6.3,1.5,25.9,35.13,1.9133,378.7159],
    [17834,1532811662,56.93,-111.5825,732.7,405.7,90.3,6.6,1.0,25.89,34.54,1.9141,378.8761],
    [17835,1532811663,56.93,-111.5813,731.9,405.6,90.8,5.8,1.4,25.43,34.03,1.9133,377.8521],
    [17836,1532811664,56.9301,-111.5802,731.5,405.5,90.1,5.6,0.5,26.48,33.33,1.9126,378.4571],
    [17837,1532811665,56.9301,-111.5791,730.8,404.8,90.7,5.6,1.3,26.77,33.11,1.9134,378.3019],
    [17838,1532811666,56.9301,-111.5779,729.9,404.9,91.3,5.4,1.7,26.0,34.65,1.9123,377.633],
    [17839,1532811667,56.9301,-111.5768,728.8,403.8,90.7,5.1,1.4,26.01,34.7,1.9128,378.0715],
    [17840,1532811668,56.9301,-111.5757,728.9,404.3,89.5,4.4,2.0,26.27,33.92,1.9126,377.6709],
    [17841,1532811669,56.9301,-111.5746,729.6,405.6,86.3,4.7,1.6,26.57,32.91,1.9136,378.6526],
    [17842,1532811670,56.9302,-111.5734,730.1,407.1,81.4,5.5,1.3,26.51,33.18,1.9144,378.7018],
    [17843,1532811671,56.9303,-111.5723,730.0,408.0,77.2,5.6,1.5,26.63,33.29,1.9136,377.8327],
    [17844,1532811672,56.9305,-111.5712,729.3,407.3,71.9,6.2,0.7,26.04,33.49,1.912,377.1984],
    [17845,1532811673,56.9307,-111.5702,728.5,405.5,66.3,6.4,0.1,26.01,34.23,1.9123,378.6531],
    [17846,1532811674,56.9309,-111.5691,728.5,405.5,63.3,6.0,1.3,26.07,33.97,1.9135,376.5219],
    [17847,1532811675,56.9312,-111.5681,729.5,406.5,60.6,5.2,1.8,25.79,33.65,1.9117,378.1945],
    [17848,1532811676,56.9315,-111.5672,731.2,408.2,59.2,4.2,2.6,25.87,33.94,1.912,377.8512],
    [17849,1532811677,56.9318,-111.5662,733.3,410.3,57.1,3.8,2.9,25.69,33.6,1.9129,377.9453],
    [17850,1532811678,56.9322,-111.5653,734.5,411.5,53.8,3.6,2.2,26.26,33.5,1.9128,377.5201],
    [17851,1532811679,56.9325,-111.5645,734.6,412.6,49.9,3.5,1.5,26.17,33.38,1.9132,377.4214],
    [17852,1532811680,56.9329,-111.5637,734.5,412.5,44.9,3.9,1.0,26.39,33.61,1.9124,378.3057],
    [17853,1532811681,56.9333,-111.5629,733.9,412.9,40.9,3.5,1.1,26.05,33.76,1.9137,378.0453],
    [17854,1532811682,56.9338,-111.5622,732.5,412.5,36.5,3.3,1.4,26.3,33.98,1.913,378.4276],
    [17855,1532811683,56.9342,-111.5616,730.3,411.7,32.0,3.3,1.9,25.5,33.53,1.9139,378.4112],
    [17856,1532811684,56.9347,-111.5611,727.5,409.5,26.8,3.5,1.6,26.29,33.15,1.9144,377.8794],
    [17857,1532811685,56.9353,-111.5606,724.4,407.5,21.8,3.2,1.6,25.96,33.39,1.9109,378.5776],
    [17858,1532811686,56.9358,-111.5602,721.3,404.6,17.4,2.7,1.7,26.29,33.32,1.9127,377.5893],
    [17859,1532811687,56.9364,-111.5599,718.2,402.2,13.1,2.6,2.2,25.53,32.88,1.9135,377.367],
    [17860,1532811688,56.9369,-111.5596,714.2,398.2,8.7,3.0,2.3,26.21,32.79,1.9143,377.5976],
    [17861,1532811689,56.9375,-111.5595,710.4,394.4,3.6,3.6,2.9,26.63,31.92,1.9168,377.5212],
    [17862,1532811690,56.9381,-111.5594,707.9,392.0,360.0,3.2,3.5,25.6,33.03,1.9167,378.5791],
    [17863,1532811691,56.9387,-111.5594,706.9,391.9,357.6,3.3,3.4,25.92,33.38,1.9149,377.5661],
    [17864,1532811692,56.9393,-111.5594,706.5,391.5,357.6,2.8,3.0,25.99,33.64,1.9154,378.4592],
    [17865,1532811693,56.9399,-111.5593,705.9,390.9,357.8,2.7,2.8,25.96,33.71,1.9164,376.9446],
    [17866,1532811694,56.9405,-111.5593,704.8,389.8,359.2,2.0,2.0,26.23,33.98,1.9167,376.2831],
    [17867,1532811695,56.9411,-111.5593,704.0,389.0,357.6,3.6,1.9,25.99,33.98,1.9174,378.2178],
    [17868,1532811696,56.9416,-111.5593,703.5,388.5,357.8,2.8,1.6,25.71,34.59,1.9149,377.6346],
    [17869,1532811697,56.9422,-111.5593,704.0,389.0,358.1,2.0,2.0,26.8,34.09,1.9123,378.3793],
    [17870,1532811698,56.9428,-111.5593,704.9,389.9,357.1,2.8,2.2,26.08,34.48,1.9136,378.341],
    [17871,1532811699,56.9433,-111.5593,705.6,390.6,356.3,3.2,2.4,26.51,33.77,1.913,378.0037],
    [17872,1532811700,56.9439,-111.5593,706.5,391.5,356.1,3.2,1.5,26.81,33.74,1.9135,376.9037],
    [17873,1532811701,56.9445,-111.5594,707.5,392.5,355.7,3.3,1.0,26.07,34.05,1.9136,377.7773],
    [17874,1532811702,56.9451,-111.5594,708.8,392.8,355.9,2.8,0.3,25.47,34.28,1.9137,379.4533],
    [17875,1532811703,56.9456,-111.5594,709.9,393.9,356.0,2.9,0.1,25.98,34.12,1.9146,378.9196],
    [17876,1532811704,56.9462,-111.5594,710.6,394.6,354.8,3.9,-0.2,25.93,33.96,1.9136,376.7897],
    [17877,1532811705,56.9468,-111.5595,711.6,395.6,354.2,4.1,-0.2,25.55,33.75,1.9136,378.21],
    [17878,1532811706,56.9473,-111.5595,712.5,396.2,354.9,3.5,-0.2,26.06,33.41,1.9123,378.027],
    [17879,1532811707,56.9479,-111.5595,713.4,396.4,355.4,3.7,-0.5,26.28,32.99,1.913,377.6341],
    [17880,1532811708,56.9485,-111.5596,714.2,397.2,355.9,3.7,-0.6,25.88,33.2,1.9126,378.2191],
    [17881,1532811709,56.949,-111.5596,715.2,397.2,357.0,3.1,-0.8,26.19,33.27,1.9144,378.1721],
    [17882,1532811710,56.9496,-111.5596,716.0,397.0,358.4,2.1,-1.3,26.93,32.52,1.9157,378.7564],
    [17883,1532811711,56.9502,-111.5596,716.5,397.6,358.3,2.6,-2.1,26.1,33.96,1.916,377.7955],
    [17884,1532811712,56.9507,-111.5595,717.5,397.5,358.1,2.8,-2.3,26.45,33.31,1.9146,377.1034],
    [17885,1532811713,56.9513,-111.5595,718.5,398.5,357.9,3.4,-3.3,26.2,33.79,1.9139,377.5034],
    [17886,1532811714,56.9519,-111.5595,719.3,399.4,357.7,3.6,-3.1,26.76,33.83,1.9143,376.7981],
    [17887,1532811715,56.9524,-111.5595,720.2,399.2,358.0,3.5,-2.4,25.99,34.97,1.9138,377.5117],
    [17888,1532811716,56.953,-111.5595,720.9,399.9,358.5,3.5,-2.2,26.06,35.33,1.9139,377.7457],
    [17889,1532811717,56.9536,-111.5594,721.4,400.4,359.2,3.3,-1.7,25.95,35.7,1.9138,377.7609],
    [17890,1532811718,56.9541,-111.5594,721.5,400.5,360.3,2.6,-1.7,26.2,34.68,1.9138,378.0161],
    [17891,1532811719,56.9547,-111.5593,721.3,400.3,360.8,2.5,-2.0,26.17,34.98,1.9142,377.4611],
    [17892,1532811720,56.9552,-111.5593,721.6,400.6,360.1,3.0,-2.3,25.67,34.68,1.9143,378.1009],
    [17893,1532811721,56.9558,-111.5592,722.1,401.0,359.5,3.1,-1.9,26.61,33.58,1.9147,376.9426],
    [17894,1532811722,56.9563,-111.5592,723.2,403.2,358.7,3.4,-1.3,25.86,34.33,1.9133,376.9426],
    [17895,1532811723,56.9569,-111.5592,724.1,404.7,358.2,3.5,-0.9,26.5,34.07,1.9128,378.0946],
    [17896,1532811724,56.9575,-111.5592,724.5,406.9,358.2,2.7,-0.8,25.86,34.3,1.9127,378.0946],
    [17897,1532811725,56.958,-111.5592,724.4,407.4,358.2,2.0,-0.7,25.74,34.42,1.9126,377.311],
    [17898,1532811726,56.9586,-111.5592,724.0,408.1,357.0,2.4,-0.4,26.2,34.7,1.9117,378.6701],
    [17899,1532811727,56.9592,-111.5592,723.7,406.8,355.3,3.5,-0.2,25.49,34.18,1.9116,377.7519],
    [17900,1532811728,56.9597,-111.5592,724.4,406.4,353.9,4.0,-0.2,26.25,33.26,1.915,377.7519],
    [17901,1532811729,56.9602,-111.5593,724.5,405.5,353.9,3.3,-0.3,25.97,33.48,1.9144,377.1655],
    [17902,1532811730,56.9608,-111.5593,724.5,405.7,354.0,3.3,0.3,26.66,32.82,1.9151,377.1655],
    [17903,1532811731,56.9614,-111.5594,724.2,406.2,354.7,2.8,0.3,26.02,34.99,1.9138,379.001],
    [17904,1532811732,56.9619,-111.5594,722.8,404.8,356.2,1.6,1.1,25.9,35.01,1.912,377.7352],
    [17905,1532811733,56.9625,-111.5595,721.1,403.1,356.0,2.2,1.4,25.95,34.75,1.9115,376.973],
    [17906,1532811734,56.9631,-111.5595,719.8,401.8,355.7,2.4,1.8,25.97,34.94,1.9131,376.5502],
    [17907,1532811735,56.9637,-111.5595,718.0,401.0,356.9,1.6,1.5,26.16,34.74,1.9157,376.524],
    [17908,1532811736,56.9642,-111.5596,715.9,398.8,356.4,2.2,1.7,26.8,34.45,1.9143,376.8785],
    [17909,1532811737,56.9648,-111.5596,714.3,398.3,356.4,2.0,1.6,25.43,35.2,1.9123,376.8045],
    [17910,1532811738,56.9654,-111.5596,713.3,398.3,356.8,1.7,1.6,25.93,35.39,1.914,377.8873],
    [17911,1532811739,56.966,-111.5596,712.5,397.5,356.7,1.8,2.1,26.54,35.08,1.9139,377.8873],
    [17912,1532811740,56.9666,-111.5597,711.9,398.0,356.4,2.0,2.3,25.93,35.6,1.9143,378.2361],
    [17913,1532811741,56.9672,-111.5597,711.2,398.2,356.0,2.2,2.3,25.62,35.37,1.9143,378.0193],
    [17914,1532811742,56.9678,-111.5597,710.2,397.2,355.6,2.6,2.5,25.49,35.3,1.9146,377.5776],
    [17915,1532811743,56.9684,-111.5598,709.3,396.3,355.2,2.6,3.0,25.21,35.27,1.914,377.272],
    [17916,1532811744,56.9689,-111.5598,708.4,394.5,356.7,1.4,3.2,26.17,35.47,1.9148,377.5],
    [17917,1532811745,56.9695,-111.5599,708.6,392.9,356.8,2.1,3.4,25.92,36.07,1.9146,378.3663],
    [17918,1532811746,56.9701,-111.5599,709.8,392.4,357.1,2.1,3.3,25.81,35.02,1.9142,377.9328],
    [17919,1532811747,56.9707,-111.5599,711.1,391.3,357.7,2.0,3.2,25.84,35.25,1.9148,378.5033],
    [17920,1532811748,56.9713,-111.5599,712.3,390.6,356.2,3.5,3.3,25.96,35.11,1.9144,377.9967],
    [17921,1532811749,56.9719,-111.5599,712.4,389.5,356.3,3.2,3.1,26.56,34.98,1.9145,377.8543],
    [17922,1532811750,56.9725,-111.5599,712.0,389.0,356.7,2.9,3.0,26.12,35.57,1.9156,377.0553],
    [17923,1532811751,56.9731,-111.5599,712.2,388.2,356.9,2.8,2.9,25.27,35.35,1.9147,377.9528],
    [17924,1532811752,56.9737,-111.5599,713.0,389.0,357.3,2.4,2.5,25.77,35.52,1.9151,377.2839],
    [17925,1532811753,56.9743,-111.56,714.2,390.2,357.2,2.3,2.6,25.74,35.49,1.9149,377.4785],
    [17926,1532811754,56.9749,-111.56,716.0,392.0,356.8,2.7,2.4,25.21,35.31,1.9144,378.6414],
    [17927,1532811755,56.9755,-111.56,717.7,393.7,356.7,2.7,2.6,25.72,35.35,1.9164,377.8056],
    [17928,1532811756,56.976,-111.56,719.4,395.4,356.7,2.7,2.6,25.74,36.0,1.9146,377.0769],
    [17929,1532811757,56.9766,-111.56,721.1,397.1,356.7,2.7,2.7,25.77,35.61,1.9148,377.6259],
    [17930,1532811758,56.9772,-111.56,722.6,398.6,357.1,2.5,2.6,25.55,36.21,1.9149,377.1088],
    [17931,1532811759,56.9778,-111.56,723.8,400.8,357.1,2.6,2.7,25.38,35.4,1.9139,378.6996],
    [17932,1532811760,56.9784,-111.56,725.0,402.1,357.0,2.7,2.8,25.91,35.25,1.9138,378.5589],
    [17933,1532811761,56.979,-111.5601,726.2,404.4,357.2,2.5,2.6,25.92,35.28,1.9135,377.2668],
    [17934,1532811762,56.9795,-111.5601,727.2,407.2,357.2,2.5,2.7,25.16,35.38,1.9135,377.2979],
    [17935,1532811763,56.9801,-111.5601,728.3,410.9,356.8,2.9,2.5,25.77,36.16,1.9147,377.6767],
    [17936,1532811764,56.9807,-111.5601,729.5,415.4,357.0,2.4,2.6,26.3,35.16,1.9145,377.5485],
    [17937,1532811765,56.9813,-111.5601,730.4,419.4,357.0,2.3,2.3,25.7,35.37,1.9133,377.8017],
    [17938,1532811766,56.9818,-111.5601,731.4,422.4,356.0,3.0,2.3,25.57,35.69,1.9147,377.7558],
    [17939,1532811767,56.9824,-111.5601,732.4,423.4,356.5,2.3,1.8,25.07,35.57,1.9146,377.7411],
    [17940,1532811768,56.983,-111.5602,733.7,424.7,356.4,2.5,1.2,26.36,35.12,1.9154,378.1191],
    [17941,1532811769,56.9836,-111.5602,735.3,426.3,355.9,2.9,0.8,25.9,35.46,1.9135,377.2503],
    [17942,1532811770,56.9842,-111.5602,737.2,428.2,356.3,2.2,0.2,26.17,34.99,1.9132,378.2159],
    [17943,1532811771,56.9847,-111.5603,738.8,429.8,356.2,2.2,0.0,25.26,35.61,1.9139,377.4412],
    [17944,1532811772,56.9853,-111.5603,739.9,430.9,355.8,2.6,-0.4,25.6,35.51,1.9163,377.505],
    [17945,1532811773,56.9859,-111.5603,740.8,431.8,355.7,2.7,-0.7,26.04,34.92,1.9169,376.6859],
    [17946,1532811774,56.9864,-111.5604,741.7,430.6,355.5,2.9,-1.0,25.66,35.35,1.9171,377.8333],
    [17947,1532811775,56.987,-111.5604,742.6,429.6,355.9,2.7,-1.8,25.56,36.12,1.9189,376.471],
    [17948,1532811776,56.9876,-111.5604,743.5,428.5,356.2,2.7,-2.1,26.02,35.48,1.9202,376.627],
    [17949,1532811777,56.9881,-111.5604,744.2,427.1,356.4,2.9,-2.6,25.39,36.74,1.9183,377.0125],
    [17950,1532811778,56.9887,-111.5605,744.5,426.5,356.7,2.7,-2.3,25.67,36.85,1.9145,376.6677],
    [17951,1532811779,56.9893,-111.5605,744.5,425.5,357.0,2.6,-2.1,25.87,36.87,1.9121,378.4427],
    [17952,1532811780,56.9899,-111.5605,744.3,425.3,357.2,2.5,-1.7,25.56,37.75,1.9136,377.7724],
    [17953,1532811781,56.9904,-111.5605,744.1,425.1,357.1,2.6,-1.6,25.36,37.21,1.9138,377.7724],
    [17954,1532811782,56.991,-111.5605,743.9,424.9,357.2,2.6,-2.3,25.56,36.19,1.9172,376.0416],
    [17955,1532811783,56.9916,-111.5605,743.7,424.7,357.4,2.5,-3.1,25.25,35.99,1.9188,376.3573],
    [17956,1532811784,56.9922,-111.5605,743.7,424.7,357.0,3.0,-2.7,25.13,36.1,1.9173,377.6361],
    [17957,1532811785,56.9927,-111.5605,743.9,423.9,357.0,3.0,-3.7,25.86,36.02,1.9173,377.6178],
    [17958,1532811786,56.9933,-111.5606,744.4,424.4,357.1,3.0,-4.0,25.54,37.01,1.9185,376.3328],
    [17959,1532811787,56.9939,-111.5606,745.3,424.5,356.7,3.2,-3.3,25.3,37.25,1.9175,377.8676],
    [17960,1532811788,56.9945,-111.5606,746.4,425.3,356.9,3.0,-3.8,25.47,37.58,1.9201,375.5957],
    [17961,1532811789,56.995,-111.5606,747.6,425.9,356.4,3.3,-4.1,25.79,37.31,1.9196,375.5957],
    [17962,1532811790,56.9956,-111.5606,749.3,427.4,356.3,3.1,-4.5,25.42,37.83,1.9193,375.4789],
    [17963,1532811791,56.9962,-111.5606,750.9,428.0,356.2,3.2,-4.8,25.92,37.46,1.9196,376.0762],
    [17964,1532811792,56.9967,-111.5607,752.3,429.5,355.5,3.8,-5.0,26.0,37.93,1.9185,376.6694],
    [17965,1532811793,56.9973,-111.5607,753.6,430.7,355.4,3.7,-5.5,25.5,38.47,1.9173,376.6694],
    [17966,1532811794,56.9979,-111.5607,754.7,431.7,355.3,4.0,-5.6,25.98,38.84,1.917,376.1232],
    [17967,1532811795,56.9984,-111.5607,755.6,432.4,355.7,3.8,-5.5,25.54,39.0,1.9192,376.6773],
    [17968,1532811796,56.999,-111.5608,755.8,432.6,356.5,3.5,-5.4,25.84,38.72,1.9165,376.8513],
    [17969,1532811797,56.9996,-111.5608,755.7,432.8,356.9,3.7,-5.5,25.58,38.98,1.9157,376.3604],
    [17970,1532811798,57.0002,-111.5608,755.5,433.8,357.1,3.8,-5.5,25.85,38.69,1.916,375.579],
    [17971,1532811799,57.0007,-111.5607,755.0,433.3,357.7,3.6,-5.6,26.0,37.73,1.9171,376.0232],
    [17972,1532811800,57.0013,-111.5607,754.3,432.5,357.5,3.9,-5.4,25.86,37.58,1.9186,376.5722],
    [17973,1532811801,57.0019,-111.5607,753.8,431.8,357.9,3.6,-5.9,25.39,37.5,1.9193,376.7809],
    [17974,1532811802,57.0025,-111.5607,753.3,431.1,358.1,3.5,-6.1,25.48,37.6,1.9196,376.2772],
    [17975,1532811803,57.0031,-111.5607,752.6,429.6,358.5,3.2,-5.9,25.59,37.91,1.9203,376.6325],
    [17976,1532811804,57.0037,-111.5607,752.0,429.1,359.3,2.6,-5.8,26.46,37.28,1.9179,377.0145],
    [17977,1532811805,57.0043,-111.5606,751.2,428.4,359.0,3.1,-5.5,26.35,37.67,1.9162,376.551],
    [17978,1532811806,57.0048,-111.5606,750.4,428.5,359.3,2.6,-5.5,26.28,37.8,1.9176,376.7528],
    [17979,1532811807,57.0054,-111.5606,749.6,427.6,359.3,2.3,-5.2,25.72,38.79,1.9191,376.0725],
    [17980,1532811808,57.006,-111.5606,748.9,427.9,359.1,2.1,-4.9,25.58,38.11,1.9182,376.3748],
    [17981,1532811809,57.0066,-111.5605,748.1,427.1,358.8,2.2,-5.1,25.74,37.98,1.9172,376.0543],
    [17982,1532811810,57.0072,-111.5605,747.6,426.6,358.1,2.5,-5.2,26.34,37.48,1.9166,375.1217],
    [17983,1532811811,57.0078,-111.5605,746.9,425.9,358.3,2.0,-5.2,25.52,38.1,1.9163,377.7041],
    [17984,1532811812,57.0084,-111.5605,746.0,425.0,356.8,3.5,-4.6,25.87,37.54,1.9164,376.0464],
    [17985,1532811813,57.009,-111.5605,745.3,424.2,356.9,3.1,-4.2,25.74,37.66,1.9167,376.3844],
    [17986,1532811814,57.0096,-111.5606,744.1,424.1,357.3,2.8,-3.7,25.93,37.51,1.9162,376.2902],
    [17987,1532811815,57.0102,-111.5606,742.9,422.9,356.4,3.7,-3.4,25.71,37.12,1.9163,376.7487],
    [17988,1532811816,57.0108,-111.5606,742.1,422.1,357.3,2.5,-3.3,25.72,36.88,1.9176,376.6148],
    [17989,1532811817,57.0114,-111.5606,741.3,421.3,357.9,2.0,-3.4,25.67,37.44,1.9182,376.6148],
    [17990,1532811818,57.0121,-111.5606,740.5,420.5,358.6,1.4,-3.4,25.87,36.53,1.9169,377.0182],
    [17991,1532811819,57.0127,-111.5606,739.9,419.9,359.4,1.2,-3.1,25.97,36.17,1.9178,376.0257],
    [17992,1532811820,57.0133,-111.5606,739.7,419.7,358.5,2.5,-2.9,25.5,37.13,1.9178,377.7047],
    [17993,1532811821,57.0139,-111.5606,738.9,419.2,358.8,2.0,-3.1,25.17,37.03,1.9164,377.7047],
    [17994,1532811822,57.0145,-111.5606,737.3,418.3,359.3,1.6,-2.7,25.32,37.08,1.9165,377.3742],
    [17995,1532811823,57.0151,-111.5606,734.8,415.8,358.8,2.3,-2.7,25.72,37.43,1.919,375.8603],
    [17996,1532811824,57.0157,-111.5606,732.5,413.5,359.4,1.8,-1.9,25.7,36.89,1.9186,375.8603],
    [17997,1532811825,57.0164,-111.5605,730.7,411.7,359.5,1.8,-1.4,25.76,36.67,1.9157,376.962],
    [17998,1532811826,57.017,-111.5605,728.9,409.9,359.5,1.8,-1.3,25.6,36.78,1.917,377.542],
    [17999,1532811827,57.0176,-111.5605,727.3,408.3,359.9,1.4,-0.9,26.49,36.05,1.9178,377.1553],
    [18000,1532811828,57.0182,-111.5605,725.7,407.0,359.9,1.6,-0.5,25.9,36.23,1.9184,376.8621],
    [18001,1532811829,57.0189,-111.5604,724.1,406.1,360.2,1.4,-0.6,25.59,36.45,1.9186,376.2804],
    [18002,1532811830,57.0195,-111.5604,722.1,404.1,359.7,2.2,-0.3,25.55,36.66,1.9189,377.7032],
    [18003,1532811831,57.0201,-111.5604,720.2,402.2,359.6,2.4,0.8,25.93,37.09,1.9184,377.5256],
    [18004,1532811832,57.0208,-111.5604,718.1,400.1,359.9,1.9,1.1,25.88,36.86,1.9173,377.4592],
    [18005,1532811833,57.0214,-111.5603,715.8,398.8,359.9,1.8,1.3,26.55,36.62,1.9139,376.8006],
    [18006,1532811834,57.022,-111.5603,713.8,396.8,359.5,2.0,1.3,26.27,36.78,1.9151,377.55],
    [18007,1532811835,57.0227,-111.5603,712.1,395.1,359.5,1.7,1.7,25.57,36.87,1.9136,377.103],
    [18008,1532811836,57.0233,-111.5603,710.8,394.2,359.1,1.9,2.0,25.52,36.6,1.9137,377.103],
    [18009,1532811837,57.024,-111.5603,709.7,393.7,359.0,1.9,2.4,26.14,35.92,1.9145,377.0939],
    [18010,1532811838,57.0246,-111.5602,708.6,392.6,358.3,2.7,2.6,26.06,36.52,1.9162,377.2001],
    [18011,1532811839,57.0253,-111.5602,707.8,391.8,358.5,2.3,3.0,26.55,35.58,1.9165,377.062],
    [18012,1532811840,57.0259,-111.5602,707.0,391.9,359.7,0.9,3.1,26.1,36.27,1.9169,377.1984],
    [18013,1532811841,57.0266,-111.5602,705.9,390.9,359.6,1.1,3.2,25.31,36.13,1.9182,377.2279],
    [18014,1532811842,57.0272,-111.5602,704.9,389.9,359.4,1.4,3.5,26.13,35.87,1.9177,377.2279],
    [18015,1532811843,57.0279,-111.5602,704.0,388.0,359.5,1.4,4.1,25.68,36.57,1.919,377.4048],
    [18016,1532811844,57.0285,-111.5602,703.1,386.3,358.8,2.2,4.2,25.79,36.98,1.9202,377.4048],
    [18017,1532811845,57.0292,-111.5602,702.7,385.7,359.0,1.9,3.8,25.96,36.69,1.918,377.8109],
    [18018,1532811846,57.0298,-111.5602,702.4,386.4,359.1,1.9,4.0,25.84,37.02,1.9189,377.1416],
    [18019,1532811847,57.0305,-111.5601,702.4,387.1,358.8,2.4,3.8,25.62,37.26,1.9185,377.1275],
    [18020,1532811848,57.0311,-111.5601,702.4,387.4,359.4,1.8,3.6,25.95,37.63,1.9181,378.2945],
    [18021,1532811849,57.0318,-111.5601,702.4,387.4,359.5,1.8,3.5,25.88,37.31,1.9177,375.0181],
    [18022,1532811850,57.0324,-111.5601,702.3,387.3,359.7,1.7,3.5,25.74,37.56,1.918,377.6914],
    [18023,1532811851,57.0331,-111.5601,702.1,386.1,359.5,1.8,3.4,25.76,38.34,1.9167,376.165],
    [18024,1532811852,57.0337,-111.56,702.0,386.0,359.4,1.9,3.2,26.11,37.28,1.9149,377.4257],
    [18025,1532811853,57.0344,-111.56,701.9,385.9,359.5,1.7,3.2,26.49,37.24,1.9138,377.6507],
    [18026,1532811854,57.035,-111.56,701.6,386.6,359.4,1.7,3.4,26.27,36.97,1.9148,377.6507],
    [18027,1532811855,57.0357,-111.56,701.3,387.3,359.2,1.8,3.8,25.31,37.25,1.9154,377.2703],
    [18028,1532811856,57.0363,-111.56,701.4,388.4,358.9,2.0,4.0,25.74,36.88,1.9158,378.0105],
    [18029,1532811857,57.037,-111.56,702.1,390.1,358.6,2.1,3.4,25.83,36.65,1.9164,378.4971],
    [18030,1532811858,57.0376,-111.56,702.9,390.9,358.5,2.3,2.7,25.55,36.69,1.9168,377.2276],
    [18031,1532811859,57.0383,-111.56,703.7,392.7,358.4,2.3,2.4,25.63,36.59,1.9176,376.9116],
    [18032,1532811860,57.0389,-111.56,704.4,393.4,358.9,1.7,2.4,25.38,36.69,1.9193,377.1293],
    [18033,1532811861,57.0396,-111.5599,705.2,394.2,358.5,2.1,2.7,25.72,37.42,1.9178,377.4839],
    [18034,1532811862,57.0402,-111.5599,706.0,396.4,358.8,1.7,2.0,25.55,36.97,1.9179,377.4425],
    [18035,1532811863,57.0409,-111.5599,707.1,400.5,358.9,1.5,1.5,25.14,36.8,1.9172,376.8651],
    [18036,1532811864,57.0415,-111.5599,708.6,405.6,358.6,1.6,1.1,25.45,37.1,1.9166,377.4738],
    [18037,1532811865,57.0421,-111.5599,709.6,406.6,357.7,2.3,0.8,26.56,36.28,1.9172,377.3881],
    [18038,1532811866,57.0428,-111.56,710.0,407.0,357.4,2.5,0.4,25.96,36.56,1.9172,379.9454],
    [18039,1532811867,57.0434,-111.56,710.0,407.0,357.4,2.5,0.3,26.25,36.5,1.9175,378.0462],
    [18040,1532811868,57.0441,-111.56,710.5,404.2,358.0,2.0,0.2,25.71,36.64,1.9174,378.2091],
    [18041,1532811869,57.0447,-111.56,711.4,403.5,357.6,2.6,0.4,26.08,36.08,1.9176,378.4507],
    [18042,1532811870,57.0453,-111.56,712.7,401.7,357.6,2.5,0.6,25.97,36.02,1.919,378.4507],
    [18043,1532811871,57.046,-111.56,713.7,401.7,358.2,1.8,0.4,25.73,36.11,1.9183,378.8852],
    [18044,1532811872,57.0466,-111.56,714.1,401.1,358.3,2.1,0.4,25.8,36.17,1.9182,380.7841],
    [18045,1532811873,57.0472,-111.56,714.4,401.4,357.6,2.7,0.4,25.8,36.86,1.9185,380.7841],
    [18046,1532811874,57.0479,-111.56,714.8,401.8,358.1,2.0,0.2,25.79,36.06,1.9198,380.9801],
    [18047,1532811875,57.0485,-111.56,714.9,401.9,357.8,2.5,0.0,25.33,35.94,1.9232,382.464],
    [18048,1532811876,57.0491,-111.56,715.0,402.0,357.2,3.0,-0.8,26.04,35.51,1.9244,383.7532],
    [18049,1532811877,57.0498,-111.56,714.9,401.7,357.7,2.2,-1.4,25.52,35.94,1.9242,383.4693],
    [18050,1532811878,57.0504,-111.56,714.4,400.7,358.8,0.9,-0.7,26.15,35.71,1.9229,383.3273],
    [18051,1532811879,57.051,-111.5601,713.4,399.4,358.4,1.5,-0.1,25.42,36.57,1.9212,382.8524],
    [18052,1532811880,57.0517,-111.5601,712.1,398.1,357.5,2.5,-0.5,26.01,36.5,1.9238,380.0216],
    [18053,1532811881,57.0523,-111.5601,710.8,396.8,357.6,2.3,-0.3,26.29,36.2,1.9239,378.8468],
    [18054,1532811882,57.053,-111.5601,709.6,395.6,357.4,2.6,-0.3,25.95,36.61,1.9221,379.7858],
    [18055,1532811883,57.0536,-111.5601,708.4,394.4,357.0,3.1,-0.2,26.59,36.06,1.9231,379.0314],
    [18056,1532811884,57.0542,-111.5601,707.3,393.3,357.5,2.8,-0.5,25.84,36.89,1.9212,378.7845],
    [18057,1532811885,57.0549,-111.5601,706.4,392.4,357.3,3.3,-0.8,25.66,36.58,1.9188,378.8768],
    [18058,1532811886,57.0555,-111.5601,705.7,391.7,357.7,2.9,-0.7,26.57,35.01,1.917,378.555],
    [18059,1532811887,57.0562,-111.5601,705.3,391.3,358.5,2.4,-0.5,26.09,34.61,1.9184,377.9608],
    [18060,1532811888,57.0568,-111.5601,704.9,390.9,358.4,2.8,-0.5,25.97,34.34,1.924,378.8011],
    [18061,1532811889,57.0575,-111.5601,704.1,390.1,359.0,2.1,-0.2,25.24,33.79,1.9279,378.0089],
    [18062,1532811890,57.0581,-111.5601,703.1,390.1,359.6,1.6,0.1,25.72,34.0,1.9275,379.1667],
    [18063,1532811891,57.0588,-111.5601,701.8,389.0,359.5,1.6,0.3,25.54,33.36,1.9228,378.6927],
    [18064,1532811892,57.0594,-111.56,701.0,387.0,359.5,1.7,0.8,25.89,33.11,1.9203,380.8904],
    [18065,1532811893,57.0601,-111.56,700.8,386.0,359.5,1.8,1.0,26.28,32.13,1.9115,380.8904],
    [18066,1532811894,57.0607,-111.56,700.9,385.9,359.2,2.3,1.2,25.92,32.93,1.9116,380.5273],
    [18067,1532811895,57.0614,-111.56,701.2,387.2,358.7,2.7,1.2,25.8,31.67,1.9097,379.7663],
    [18068,1532811896,57.062,-111.56,701.8,388.8,359.8,1.4,1.0,25.62,30.71,1.9083,381.3687],
    [18069,1532811897,57.0627,-111.5599,702.4,390.1,360.1,1.0,0.8,26.71,29.27,1.9118,380.4297],
    [18070,1532811898,57.0634,-111.5599,703.2,391.2,359.9,1.1,0.4,26.2,29.33,1.9241,379.5554],
    [18071,1532811899,57.064,-111.5599,703.8,391.8,360.5,0.3,0.6,26.0,30.4,1.9363,378.8092],
    [18072,1532811900,57.0647,-111.5599,704.2,392.2,360.0,1.0,0.8,25.89,30.06,1.9345,379.3593],
    [18073,1532811901,57.0653,-111.5599,704.2,392.2,359.3,1.4,0.8,25.68,30.92,1.9223,379.6968],
    [18074,1532811902,57.066,-111.5599,703.9,391.9,359.3,1.3,0.4,25.96,31.34,1.9132,380.697],
    [18075,1532811903,57.0666,-111.5599,703.3,391.3,358.5,1.9,0.1,25.42,31.96,1.9206,379.875],
    [18076,1532811904,57.0673,-111.5599,702.3,391.3,358.2,2.0,-0.3,26.09,31.99,1.9292,379.2251],
    [18077,1532811905,57.0679,-111.5599,701.4,391.4,358.2,1.9,-0.6,25.62,31.39,1.9173,380.1472],
    [18078,1532811906,57.0686,-111.5599,700.8,391.6,358.3,1.9,-0.7,25.51,30.78,1.9157,380.7661],
    [18079,1532811907,57.0692,-111.5599,700.3,393.8,358.3,2.2,-0.8,26.14,30.5,1.9138,381.4167],
    [18080,1532811908,57.0699,-111.5599,699.7,395.2,359.2,1.3,-1.1,26.52,29.8,1.9163,381.4757],
    [18081,1532811909,57.0705,-111.5599,699.1,397.7,359.3,1.7,-1.5,26.15,30.04,1.9241,380.0583],
    [18082,1532811910,57.0712,-111.5599,698.9,403.6,359.0,1.9,-1.8,26.08,30.26,1.9303,379.4823],
    [18083,1532811911,57.0719,-111.5599,698.7,406.7,359.8,0.8,-1.6,25.97,31.81,1.9356,379.8105],
    [18084,1532811912,57.0725,-111.5598,698.6,411.8,359.2,1.2,-1.4,25.95,32.25,1.9433,379.1967],
    [18085,1532811913,57.0732,-111.5598,698.7,417.2,358.8,1.3,-1.5,26.79,32.67,1.9546,378.4939],
    [18086,1532811914,57.0738,-111.5599,698.9,423.8,359.0,0.7,-1.3,26.53,33.94,1.9685,377.6868],
    [18087,1532811915,57.0745,-111.5599,698.8,431.5,358.9,0.7,-0.6,26.25,34.74,1.9724,377.2431],
    [18088,1532811916,57.0752,-111.5599,698.0,432.1,358.1,1.5,-0.1,26.65,35.07,1.9668,377.7269],
    [18089,1532811917,57.0758,-111.5599,697.4,433.5,357.1,2.4,0.2,26.16,36.46,1.9507,377.3746],
    [18090,1532811918,57.0765,-111.5599,697.1,438.9,356.7,2.8,1.2,25.58,36.14,1.9695,377.3112],
    [18091,1532811919,57.0771,-111.5599,696.8,442.4,357.0,2.8,1.7,26.36,36.29,1.9827,377.3112],
    [18092,1532811920,57.0778,-111.56,696.3,447.2,357.3,2.8,2.8,25.78,36.55,1.9865,376.814],
    [18093,1532811921,57.0785,-111.56,695.9,450.4,357.3,3.2,3.0,26.05,37.02,1.9866,378.2812],
    [18094,1532811922,57.0791,-111.56,696.0,452.2,356.9,3.5,3.3,26.38,36.57,1.9837,377.8839],
    [18095,1532811923,57.0798,-111.56,696.3,456.6,357.2,3.4,3.8,25.88,36.75,1.9799,377.7233],
    [18096,1532811924,57.0804,-111.56,696.9,459.9,357.3,3.3,3.4,25.73,36.8,1.9694,376.7508],
    [18097,1532811925,57.0811,-111.56,698.3,463.3,357.5,3.3,3.2,27.0,36.14,1.98,377.0433],
    [18098,1532811926,57.0818,-111.56,700.3,466.3,357.5,3.5,3.4,26.2,37.06,1.9861,377.3062],
    [18099,1532811927,57.0824,-111.56,701.6,467.6,357.8,3.4,2.8,26.04,36.36,1.9817,377.3417],
    [18100,1532811928,57.0831,-111.5599,701.8,467.8,358.1,3.2,2.7,26.6,36.04,1.965,376.2854],
    [18101,1532811929,57.0837,-111.5599,701.0,467.0,358.2,3.1,2.6,26.25,36.29,1.9527,376.4132],
    [18102,1532811930,57.0844,-111.5599,699.3,466.3,358.2,2.9,2.8,26.57,36.07,1.9506,376.747],
    [18103,1532811931,57.085,-111.5599,696.9,464.9,358.4,2.6,3.2,26.29,36.83,1.9488,377.9803],
    [18104,1532811932,57.0857,-111.5599,694.3,462.3,358.7,2.2,3.7,25.84,37.14,1.9431,377.6714],
    [18105,1532811933,57.0864,-111.5599,692.4,460.4,358.5,2.3,3.7,26.06,36.94,1.949,377.3166],
    [18106,1532811934,57.087,-111.5599,690.0,457.3,358.3,2.4,4.2,25.92,37.12,1.9464,377.3166],
    [18107,1532811935,57.0877,-111.5599,687.5,455.6,357.6,2.9,4.4,26.02,37.23,1.9501,377.3407],
    [18108,1532811936,57.0884,-111.5599,685.0,453.0,357.2,3.0,4.7,26.3,36.21,1.9504,376.5853],
    [18109,1532811937,57.089,-111.5599,682.5,451.3,356.9,2.9,5.1,26.33,36.1,1.9468,376.5421],
    [18110,1532811938,57.0897,-111.5599,679.7,448.7,357.1,2.5,5.3,26.39,36.51,1.9463,376.1609],
    [18111,1532811939,57.0904,-111.5599,676.8,445.8,356.7,2.7,5.5,26.61,36.22,1.9446,377.1086],
    [18112,1532811940,57.0911,-111.5599,673.8,441.6,356.5,2.7,5.6,26.54,36.46,1.9475,376.4695],
    [18113,1532811941,57.0918,-111.56,670.7,439.8,356.5,2.8,5.6,26.82,36.74,1.9474,376.8194],
    [18114,1532811942,57.0924,-111.56,667.8,437.8,356.4,2.8,5.4,26.0,37.76,1.9525,376.1229],
    [18115,1532811943,57.0931,-111.56,665.3,435.3,356.7,2.7,5.5,25.99,37.11,1.9517,377.5166],
    [18116,1532811944,57.0938,-111.56,663.8,433.8,356.8,2.7,5.7,25.81,37.38,1.9502,376.5776],
    [18117,1532811945,57.0945,-111.5601,663.4,432.4,357.2,2.2,5.9,26.02,36.88,1.9512,378.0322],
    [18118,1532811946,57.0952,-111.5601,663.3,428.8,357.0,2.3,5.2,26.07,37.45,1.9644,377.3918],
    [18119,1532811947,57.0959,-111.5601,663.9,424.0,357.0,1.9,4.9,26.32,36.54,1.965,377.1207],
    [18120,1532811948,57.0966,-111.5602,666.4,422.7,356.5,2.1,4.6,25.88,36.84,1.9652,377.4958],
    [18121,1532811949,57.0972,-111.5602,669.6,423.5,355.9,2.9,4.3,26.01,37.12,1.9661,376.933],
    [18122,1532811950,57.0979,-111.5602,672.6,425.6,356.2,2.8,3.8,26.22,37.27,1.9743,376.8116],
    [18123,1532811951,57.0986,-111.5603,675.8,428.6,357.6,1.7,3.2,25.75,36.5,1.9991,376.9619],
    [18124,1532811952,57.0992,-111.5603,678.5,430.5,357.3,2.5,2.6,26.16,37.2,2.0528,377.753],
    [18125,1532811953,57.0999,-111.5603,680.4,432.4,357.4,2.5,2.4,26.59,36.12,2.0462,378.1137],
    [18126,1532811954,57.1006,-111.5603,682.0,432.7,357.9,2.4,2.1,26.85,36.0,2.0083,377.9998],
    [18127,1532811955,57.1012,-111.5603,683.5,432.5,357.7,2.6,1.8,25.76,36.35,2.0098,378.0234],
    [18128,1532811956,57.1019,-111.5603,684.9,433.0,358.0,2.5,0.5,25.83,36.75,2.0048,377.3745],
    [18129,1532811957,57.1025,-111.5603,686.6,431.9,356.8,3.8,-0.3,25.98,36.8,2.0093,378.4288],
    [18130,1532811958,57.1032,-111.5603,687.9,431.9,357.6,2.8,-0.2,25.83,37.05,2.0204,377.2148],
    [18131,1532811959,57.1038,-111.5603,689.1,432.1,357.8,2.7,-1.1,25.97,36.62,2.024,376.9934],
    [18132,1532811960,57.1045,-111.5603,690.2,431.2,357.7,3.0,-1.8,25.87,37.37,2.0161,376.5942],
    [18133,1532811961,57.1051,-111.5603,691.5,431.8,357.9,2.9,-1.6,25.93,36.84,2.0092,378.4432],
    [18134,1532811962,57.1058,-111.5603,693.3,433.3,359.1,2.0,-0.4,26.26,36.99,2.008,377.203],
    [18135,1532811963,57.1064,-111.5603,695.6,434.6,359.1,2.5,-0.6,26.1,37.68,2.0008,376.3536],
    [18136,1532811964,57.1071,-111.5603,697.8,436.8,359.3,2.3,-0.8,26.69,36.86,1.997,377.098],
    [18137,1532811965,57.1077,-111.5602,698.9,437.9,359.4,2.1,-0.5,25.62,37.47,1.9983,376.3],
    [18138,1532811966,57.1084,-111.5602,699.0,438.0,359.6,1.7,0.3,25.67,37.26,2.0091,376.1651],
    [18139,1532811967,57.109,-111.5602,698.4,437.4,359.5,1.6,0.2,26.23,37.13,2.0004,375.321],
    [18140,1532811968,57.1097,-111.5602,697.8,436.8,358.5,2.6,0.1,25.59,37.3,1.9969,375.4855],
    [18141,1532811969,57.1103,-111.5602,696.7,435.7,358.2,2.5,0.4,25.5,37.66,2.0166,377.1081],
    [18142,1532811970,57.111,-111.5602,695.4,433.6,358.3,2.5,0.2,26.5,37.08,2.0106,375.9631],
    [18143,1532811971,57.1116,-111.5602,695.2,433.2,358.0,2.6,0.6,26.1,37.96,1.9952,375.9145],
    [18144,1532811972,57.1123,-111.5602,695.4,433.4,359.0,1.3,1.0,26.27,37.12,2.002,378.0325],
    [18145,1532811973,57.1129,-111.5602,695.4,433.4,358.9,1.3,0.8,26.11,37.87,2.0036,376.5627],
    [18146,1532811974,57.1136,-111.5602,694.5,432.5,359.2,1.0,0.9,26.51,36.98,1.9571,377.5471],
    [18147,1532811975,57.1142,-111.5602,693.8,431.8,359.4,0.8,1.1,26.13,37.34,1.9471,378.1987],
    [18148,1532811976,57.1149,-111.5602,693.3,431.3,359.6,0.8,1.4,26.71,36.83,1.9566,377.461],
    [18149,1532811977,57.1155,-111.5602,693.1,431.1,359.0,1.5,1.7,26.1,37.47,1.9626,377.4927],
    [18150,1532811978,57.1162,-111.5601,692.5,430.5,359.1,1.4,2.1,26.03,37.3,1.9559,378.0775],
    [18151,1532811979,57.1169,-111.5601,691.6,429.1,358.9,1.7,2.4,26.5,37.0,1.9576,377.1243],
    [18152,1532811980,57.1175,-111.5601,691.0,428.0,358.8,1.6,2.9,26.03,37.29,1.9606,377.5304],
    [18153,1532811981,57.1182,-111.5601,690.0,427.0,359.2,1.1,3.4,25.86,37.79,1.9596,376.5938],
    [18154,1532811982,57.1188,-111.5601,688.9,425.9,358.8,1.6,4.5,26.17,37.14,1.9624,378.2065],
    [18155,1532811983,57.1195,-111.5601,687.5,424.5,359.1,1.5,5.4,26.34,36.77,1.9497,377.716],
    [18156,1532811984,57.1202,-111.5601,685.5,421.8,359.3,1.7,5.9,26.04,37.65,1.9506,378.6991],
    [18157,1532811985,57.1208,-111.5601,683.2,419.1,359.3,1.8,6.3,25.62,37.27,1.9545,377.8379],
    [18158,1532811986,57.1215,-111.5601,680.8,415.4,359.6,1.4,6.1,26.63,36.99,1.968,376.9231],
    [18159,1532811987,57.1222,-111.5601,678.5,412.5,359.2,1.8,6.0,25.83,37.42,1.98,376.959],
    [18160,1532811988,57.1228,-111.5601,676.3,410.3,358.9,1.8,6.8,25.71,37.58,1.9818,377.1502],
    [18161,1532811989,57.1235,-111.5601,673.9,407.9,359.0,1.9,6.9,26.56,37.14,1.9794,377.0852],
    [18162,1532811990,57.1242,-111.56,672.0,406.0,359.0,2.1,6.9,26.42,37.19,1.9766,376.576],
    [18163,1532811991,57.1249,-111.56,671.1,405.1,359.1,2.4,7.1,25.98,37.65,1.9741,377.761],
    [18164,1532811992,57.1255,-111.56,670.8,404.8,358.8,2.8,7.6,25.92,37.67,1.9765,377.3259],
    [18165,1532811993,57.1262,-111.56,670.4,403.4,359.5,2.4,8.3,26.04,37.47,1.9835,377.0905],
    [18166,1532811994,57.1269,-111.5599,670.3,403.3,359.7,2.4,8.2,25.81,37.57,1.989,376.2411],
    [18167,1532811995,57.1276,-111.5599,670.7,403.7,359.8,2.4,7.9,26.49,37.55,1.9717,377.5936],
    [18168,1532811996,57.1282,-111.5599,672.2,405.2,360.3,1.4,7.9,26.65,37.79,1.9532,377.877],
    [18169,1532811997,57.1289,-111.5599,673.6,406.6,360.2,1.1,8.1,25.89,38.54,1.9547,377.0568],
    [18170,1532811998,57.1296,-111.5598,675.4,408.4,360.0,0.9,7.4,26.54,37.45,1.972,376.2433],
    [18171,1532811999,57.1302,-111.5598,677.4,410.4,359.5,1.0,7.2,26.2,38.26,1.9495,376.1664],
    [18172,1532812000,57.1309,-111.5598,678.3,412.4,359.1,0.9,7.3,26.06,38.64,1.9602,376.8754],
    [18173,1532812001,57.1316,-111.5598,679.1,412.3,358.9,1.2,6.9,26.21,38.31,1.957,375.5276],
    [18174,1532812002,57.1323,-111.5598,679.9,412.9,359.7,0.3,6.1,26.01,39.27,1.9461,375.6895],
    [18175,1532812003,57.1329,-111.5598,680.4,413.4,359.7,1.0,6.1,25.87,38.57,1.9393,376.7363],
    [18176,1532812004,57.1336,-111.5598,680.3,413.3,359.9,0.4,5.8,25.63,38.69,1.9357,377.4607],
    [18177,1532812005,57.1343,-111.5598,678.5,411.1,361.0,-0.7,5.1,25.63,38.61,1.9355,377.4093],
    [18178,1532812006,57.1349,-111.5598,677.9,409.9,358.3,1.9,4.6,26.08,38.92,1.9341,377.596],
    [18179,1532812007,57.1356,-111.5598,677.6,408.9,358.3,1.6,4.3,26.05,38.65,1.9354,377.6378],
    [18180,1532812008,57.1362,-111.5598,677.2,408.2,358.2,2.2,3.6,26.01,39.51,1.9363,377.5057],
    [18181,1532812009,57.1369,-111.5598,677.0,408.2,357.9,2.9,3.2,25.74,38.8,1.9355,377.5057],
    [18182,1532812010,57.1376,-111.5598,677.0,408.3,359.1,1.8,2.4,26.03,38.66,1.9348,376.8936],
    [18183,1532812011,57.1382,-111.5598,677.1,408.0,359.2,1.5,1.8,25.93,39.11,1.9342,378.4689],
    [18184,1532812012,57.1389,-111.5598,677.2,407.2,358.8,0.5,1.1,26.29,38.72,1.9361,378.4689],
    [18185,1532812013,57.1396,-111.5598,677.3,406.3,356.5,0.6,0.6,26.24,39.0,1.9403,376.7436],
    [18186,1532812014,57.1402,-111.5599,677.3,405.3,352.0,1.6,0.4,25.94,38.65,1.9515,377.1531],
    [18187,1532812015,57.1408,-111.5601,677.6,405.6,348.5,1.3,0.3,25.72,38.44,1.9476,377.8183],
    [18188,1532812016,57.1415,-111.5604,678.2,405.2,344.7,0.9,0.1,25.96,38.34,1.9421,377.6201],
    [18189,1532812017,57.1421,-111.5607,679.1,406.1,340.4,0.9,0.4,26.0,38.38,1.9417,377.4323],
    [18190,1532812018,57.1427,-111.5611,679.6,406.6,336.0,1.0,0.4,25.97,38.21,1.9422,376.9578],
    [18191,1532812019,57.1432,-111.5616,679.6,406.6,331.3,1.7,0.7,25.61,38.43,1.944,376.436],
    [18192,1532812020,57.1438,-111.5622,678.9,405.9,326.8,2.4,1.1,25.54,38.58,1.9482,376.6365],
    [18193,1532812021,57.1443,-111.5628,678.7,405.7,323.7,2.4,0.4,25.68,38.28,1.9529,374.6961],
    [18194,1532812022,57.1448,-111.5635,679.2,407.5,320.3,2.9,0.5,26.4,37.79,1.9532,376.5606],
    [18195,1532812023,57.1453,-111.5642,679.8,411.4,317.2,3.0,0.4,26.2,38.16,1.946,377.5197],
    [18196,1532812024,57.1458,-111.565,680.4,411.8,314.1,3.2,0.4,26.62,38.13,1.9369,377.2837],
    [18197,1532812025,57.1462,-111.5658,681.3,412.3,310.5,3.9,1.1,25.83,38.78,1.9353,375.3778],
    [18198,1532812026,57.1466,-111.5666,682.5,415.5,307.6,4.3,1.1,25.51,39.14,1.9391,375.7133],
    [18199,1532812027,57.147,-111.5675,684.1,418.7,304.7,4.5,1.5,26.05,39.09,1.9401,376.531],
    [18200,1532812028,57.1474,-111.5684,685.7,421.0,303.1,4.1,1.0,26.02,38.91,1.9407,377.885],
    [18201,1532812029,57.1477,-111.5693,686.6,424.6,302.2,3.4,0.3,26.16,38.1,1.9422,378.3391],
    [18202,1532812030,57.148,-111.5702,687.2,427.2,300.9,3.3,-0.2,25.69,38.05,1.9407,377.9682],
    [18203,1532812031,57.1483,-111.5712,687.6,422.6,299.3,3.3,-0.4,26.37,37.5,1.9402,377.2413],
    [18204,1532812032,57.1486,-111.5721,688.0,421.0,296.5,3.8,0.8,26.24,38.06,1.9404,377.2413],
    [18205,1532812033,57.1489,-111.5731,687.4,418.9,294.4,3.6,0.6,26.24,37.63,1.9425,377.9858],
    [18206,1532812034,57.1492,-111.5741,686.2,417.6,291.7,3.1,1.0,26.2,38.4,1.9423,377.4269],
    [18207,1532812035,57.1494,-111.5751,685.0,417.6,288.5,3.0,1.5,26.07,38.57,1.9417,376.8057],
    [18208,1532812036,57.1496,-111.5762,683.7,414.7,287.4,2.1,0.3,26.89,37.57,1.9412,378.3997],
    [18209,1532812037,57.1498,-111.5772,681.0,409.9,285.7,1.7,0.8,26.35,38.67,1.9422,378.0248],
    [18210,1532812038,57.1499,-111.5783,676.7,404.7,282.2,1.4,2.4,26.09,38.49,1.942,376.4043],
    [18211,1532812039,57.1501,-111.5794,672.1,399.0,280.2,0.7,2.1,26.07,39.19,1.9424,376.839],
    [18212,1532812040,57.1502,-111.5805,666.8,393.8,277.9,-0.1,2.3,26.73,37.88,1.9412,376.8558],
    [18213,1532812041,57.1503,-111.5817,661.3,389.5,274.7,-1.1,3.1,26.35,38.64,1.9397,375.6259],
    [18214,1532812042,57.1503,-111.5828,655.8,383.8,272.3,-1.4,3.1,26.41,39.35,1.9395,377.2786],
    [18215,1532812043,57.1504,-111.5839,650.5,378.5,270.4,-1.4,3.2,26.55,39.12,1.9416,375.2799],
    [18216,1532812044,57.1504,-111.5851,645.4,373.4,269.6,-3.0,2.9,26.81,38.55,1.9406,377.3458],
    [18217,1532812045,57.1504,-111.5862,641.2,368.2,269.3,-4.0,2.8,26.33,38.93,1.9402,376.5919],
    [18218,1532812046,57.1504,-111.5874,638.3,365.3,269.7,-4.8,2.2,25.83,39.35,1.9409,378.0279],
    [18219,1532812047,57.1505,-111.5886,636.5,363.5,269.9,-5.0,1.9,26.18,39.41,1.9388,375.8485],
    [18220,1532812048,57.1505,-111.5897,635.6,363.6,270.1,-4.6,1.7,26.97,39.25,1.9388,375.8485],
    [18221,1532812049,57.1505,-111.5909,635.3,364.3,269.9,-4.7,1.7,26.21,40.34,1.9389,376.767],
    [18222,1532812050,57.1505,-111.592,635.3,365.3,269.8,-5.0,1.5,26.04,39.56,1.9395,377.1061],
    [18223,1532812051,57.1505,-111.5932,635.2,366.2,268.8,-5.5,1.8,26.01,39.7,1.939,375.0077],
    [18224,1532812052,57.1505,-111.5943,635.1,367.8,267.8,-5.6,2.1,26.36,39.66,1.9413,375.0077],
    [18225,1532812053,57.1505,-111.5955,634.9,367.9,267.1,-5.3,2.0,26.43,39.71,1.9407,376.0823],
    [18226,1532812054,57.1505,-111.5966,634.9,366.9,266.6,-5.9,1.8,26.37,40.54,1.9391,376.0447],
    [18227,1532812055,57.1505,-111.5978,635.1,365.1,266.1,-6.9,1.5,26.57,39.85,1.9379,375.9493],
    [18228,1532812056,57.1504,-111.5989,635.1,364.8,266.7,-7.5,0.6,26.13,41.24,1.9373,375.9493],
    [18229,1532812057,57.1504,-111.6,636.0,365.0,266.9,-6.1,1.0,26.67,40.25,1.9395,377.4813],
    [18230,1532812058,57.1504,-111.6012,637.5,366.5,267.4,-4.4,1.2,26.55,40.48,1.9373,377.1495],
    [18231,1532812059,57.1504,-111.6023,638.4,369.5,268.5,-3.8,0.8,26.26,41.18,1.9357,377.4121],
    [18232,1532812060,57.1504,-111.6035,639.2,372.9,268.6,-3.4,1.5,26.2,41.52,1.9343,376.869],
    [18233,1532812061,57.1504,-111.6046,639.5,375.5,268.4,-3.3,2.2,25.85,40.57,1.9305,377.1331],
    [18234,1532812062,57.1504,-111.6057,639.0,378.0,269.1,-2.7,2.2,26.68,39.54,1.9359,376.9906],
    [18235,1532812063,57.1504,-111.6068,638.0,380.6,269.4,-2.9,2.1,26.52,39.57,1.9382,375.8569],
    [18236,1532812064,57.1504,-111.608,637.2,384.2,269.8,-3.2,1.9,26.33,39.87,1.9374,376.4714],
    [18237,1532812065,57.1504,-111.6091,636.7,386.8,269.0,-3.4,2.3,25.9,39.67,1.9354,376.4896],
    [18238,1532812066,57.1504,-111.6102,636.6,388.5,268.5,-3.6,2.2,26.29,39.16,1.9353,376.9959],
    [18239,1532812067,57.1504,-111.6113,636.4,390.4,267.8,-2.9,2.6,26.26,39.93,1.9367,377.2399],
    [18240,1532812068,57.1504,-111.6124,636.5,393.6,267.0,-2.4,2.9,26.99,39.09,1.9401,377.2399],
    [18241,1532812069,57.1504,-111.6135,636.5,395.4,267.2,-2.9,2.4,26.12,40.25,1.9356,378.1016],
    [18242,1532812070,57.1504,-111.6146,635.8,396.8,266.5,-2.8,3.0,26.22,39.16,1.9368,378.1016],
    [18243,1532812071,57.1504,-111.6157,635.3,397.6,266.5,-2.9,2.9,26.21,39.47,1.939,377.5297],
    [18244,1532812072,57.1504,-111.6168,635.3,399.3,267.2,-2.5,2.3,26.3,39.69,1.9384,377.001],
    [18245,1532812073,57.1504,-111.6178,635.6,399.6,267.1,-3.2,2.9,26.35,40.3,1.9385,376.4052],
    [18246,1532812074,57.1504,-111.6189,635.9,401.2,267.8,-4.2,2.4,25.86,39.89,1.9397,377.1378],
    [18247,1532812075,57.1504,-111.62,636.1,402.1,268.8,-4.0,1.9,25.94,39.84,1.9428,376.8261],
    [18248,1532812076,57.1504,-111.6211,637.1,403.1,267.0,-3.5,3.5,26.67,39.67,1.9449,376.6945],
    [18249,1532812077,57.1504,-111.6222,639.0,405.0,267.0,-3.9,2.7,25.54,40.12,1.9415,377.1818],
    [18250,1532812078,57.1504,-111.6232,641.2,406.2,268.0,-4.3,1.6,26.51,39.68,1.9407,376.3259],
    [18251,1532812079,57.1504,-111.6243,643.6,408.6,267.1,-3.9,2.1,26.23,40.76,1.9403,376.8989],
    [18252,1532812080,57.1504,-111.6254,646.5,409.5,266.9,-4.1,2.4,26.38,40.22,1.937,376.8989],
    [18253,1532812081,57.1504,-111.6264,649.0,410.7,266.6,-3.0,3.0,26.47,40.14,1.9349,376.7829],
    [18254,1532812082,57.1504,-111.6275,651.2,409.8,266.8,-2.9,2.8,26.21,40.3,1.9367,376.611],
    [18255,1532812083,57.1504,-111.6285,652.9,409.9,267.5,-3.5,2.4,26.32,41.01,1.9372,377.2249],
    [18256,1532812084,57.1504,-111.6296,654.5,412.5,267.5,-3.9,2.5,26.1,40.85,1.9356,377.2249],
    [18257,1532812085,57.1504,-111.6306,656.6,415.6,267.2,-3.8,3.0,25.78,40.59,1.9338,377.7171],
    [18258,1532812086,57.1504,-111.6316,659.6,418.6,267.2,-3.0,2.9,26.53,40.41,1.9328,374.7135],
    [18259,1532812087,57.1504,-111.6327,663.3,420.6,267.7,-2.4,2.1,25.67,40.67,1.9333,375.8781],
    [18260,1532812088,57.1504,-111.6337,667.0,420.0,268.1,-2.0,1.6,26.3,40.55,1.933,376.2781],
    [18261,1532812089,57.1504,-111.6347,670.7,418.3,267.9,-1.5,1.5,26.9,40.49,1.9361,376.1357],
    [18262,1532812090,57.1504,-111.6358,673.7,417.3,268.8,-1.1,0.7,26.09,41.03,1.9351,376.0624],
    [18263,1532812091,57.1504,-111.6368,675.4,415.5,268.9,-1.1,1.1,25.73,41.14,1.935,376.6631],
    [18264,1532812092,57.1504,-111.6378,676.4,414.4,267.1,-1.3,3.1,26.55,40.9,1.9366,376.4706],
    [18265,1532812093,57.1504,-111.6388,676.4,413.4,267.7,-1.3,2.4,26.29,41.17,1.9351,376.46],
    [18266,1532812094,57.1504,-111.6399,675.2,410.2,268.2,-1.5,2.1,26.62,41.31,1.9347,375.4649],
    [18267,1532812095,57.1504,-111.6409,673.6,406.6,266.3,-1.5,3.6,25.89,41.68,1.9352,376.3305],
    [18268,1532812096,57.1503,-111.6419,672.4,404.4,266.6,-0.9,2.8,25.94,41.63,1.9359,375.7237],
    [18269,1532812097,57.1503,-111.643,671.7,403.7,266.7,-0.8,2.6,26.03,42.05,1.9352,375.8398],
    [18270,1532812098,57.1503,-111.644,671.7,403.7,266.4,-1.0,2.7,26.35,40.99,1.9372,377.6407],
    [18271,1532812099,57.1503,-111.645,672.2,404.3,266.9,-0.8,2.1,26.74,41.15,1.9379,376.2161],
    [18272,1532812100,57.1503,-111.6461,672.7,403.7,266.5,-1.3,2.4,25.94,41.46,1.9382,376.3722],
    [18273,1532812101,57.1503,-111.6471,673.1,402.1,265.7,-1.5,3.2,25.68,41.65,1.9389,376.83],
    [18274,1532812102,57.1503,-111.6481,673.6,400.3,266.1,-0.9,2.9,26.23,41.01,1.9384,376.3167],
    [18275,1532812103,57.1503,-111.6492,674.5,398.1,266.4,-0.3,2.9,26.01,41.23,1.9377,376.6334],
    [18276,1532812104,57.1503,-111.6502,675.8,396.1,265.5,0.2,4.0,25.83,41.61,1.9375,377.1465],
    [18277,1532812105,57.1503,-111.6512,677.4,394.4,265.4,0.8,4.2,25.93,41.5,1.9423,377.5105],
    [18278,1532812106,57.1503,-111.6521,678.9,393.9,266.0,1.3,3.7,26.6,40.92,1.9424,376.79],
    [18279,1532812107,57.1503,-111.6531,680.8,392.8,266.9,1.7,3.4,26.23,41.64,1.9426,377.3228],
    [18280,1532812108,57.1503,-111.6542,682.5,392.4,267.5,2.5,2.9,26.49,41.38,1.9417,377.8406],
    [18281,1532812109,57.1503,-111.6551,684.1,392.0,268.0,3.1,2.6,25.53,41.78,1.9411,377.2759],
    [18282,1532812110,57.1503,-111.6561,685.4,392.4,265.9,3.6,4.5,25.63,41.79,1.942,377.2355],
    [18283,1532812111,57.1503,-111.6571,687.4,393.1,264.3,4.4,5.8,25.76,42.11,1.9417,376.4991],
    [18284,1532812112,57.1502,-111.6581,690.0,394.0,264.7,5.1,4.8,25.82,42.17,1.9396,376.7531],
    [18285,1532812113,57.1502,-111.659,692.3,394.2,264.7,4.4,4.4,26.25,41.49,1.9366,376.5183],
    [18286,1532812114,57.1502,-111.66,694.3,396.3,265.4,4.7,3.5,25.78,42.03,1.9361,376.9055],
    [18287,1532812115,57.1502,-111.661,695.3,397.3,266.9,5.6,2.3,26.07,42.32,1.9375,376.7564],
    [18288,1532812116,57.1502,-111.6619,697.0,398.9,267.7,5.5,1.7,26.04,41.86,1.938,375.552],
    [18289,1532812117,57.1502,-111.6629,698.9,401.6,268.9,5.4,0.9,25.47,42.4,1.9375,376.633],
    [18290,1532812118,57.1502,-111.6639,701.2,403.2,268.4,5.3,1.8,24.96,42.41,1.9353,377.0016],
    [18291,1532812119,57.1502,-111.6649,703.4,403.3,268.2,5.1,2.0,26.1,42.02,1.9349,377.0016],
    [18292,1532812120,57.1502,-111.6659,705.5,404.5,268.2,4.8,2.3,25.8,42.93,1.9348,376.3357],
    [18293,1532812121,57.1502,-111.6669,707.9,405.2,267.9,4.4,2.5,25.42,42.25,1.9342,377.0116],
    [18294,1532812122,57.1502,-111.6679,709.4,403.4,267.9,4.3,2.4,25.1,42.19,1.9298,375.7385],
    [18295,1532812123,57.1502,-111.6689,711.4,403.4,267.2,5.3,3.0,25.2,42.06,1.9309,375.7083],
    [18296,1532812124,57.1502,-111.6699,713.9,403.9,267.1,4.9,2.9,25.34,41.89,1.9314,376.3483],
    [18297,1532812125,57.1502,-111.6709,716.1,405.1,265.5,4.6,4.5,25.69,41.83,1.9315,375.635],
    [18298,1532812126,57.1502,-111.6719,717.9,406.9,265.3,4.9,4.1,25.88,41.71,1.9317,375.4547],
    [18299,1532812127,57.1502,-111.6729,719.9,408.9,265.9,5.4,3.3,25.84,41.97,1.9301,375.2492],
    [18300,1532812128,57.1502,-111.6738,722.9,409.9,265.9,5.7,3.4,26.54,41.06,1.9255,376.415],
    [18301,1532812129,57.1501,-111.6748,726.3,412.3,266.5,5.4,2.7,25.7,41.79,1.9271,376.5259],
    [18302,1532812130,57.1501,-111.6758,728.4,414.4,266.9,5.5,2.1,26.17,40.75,1.9271,376.9297],
    [18303,1532812131,57.1501,-111.6768,729.8,415.8,266.3,5.3,2.0,25.65,41.19,1.924,375.8476],
    [18304,1532812132,57.1501,-111.6778,730.8,415.8,265.5,4.6,2.5,25.87,40.8,1.9276,376.0625],
    [18305,1532812133,57.1501,-111.6788,731.9,416.9,264.1,4.0,3.5,25.97,41.08,1.9237,375.8991],
    [18306,1532812134,57.15,-111.6798,733.5,418.5,264.7,4.1,2.9,25.76,41.05,1.9249,376.4196],
    [18307,1532812135,57.15,-111.6808,735.2,420.2,263.9,5.2,4.1,25.43,40.65,1.9263,375.6857],
    [18308,1532812136,57.15,-111.6818,736.3,421.3,264.2,5.4,3.8,25.48,40.77,1.9265,375.6857],
    [18309,1532812137,57.15,-111.6828,735.7,420.7,267.1,5.4,1.2,26.13,40.52,1.9253,376.7715],
    [18310,1532812138,57.1499,-111.6838,734.1,418.1,266.7,6.2,2.4,25.78,41.0,1.9214,376.5271],
    [18311,1532812139,57.1499,-111.6848,734.1,417.3,265.7,7.5,3.6,25.66,41.88,1.9185,376.2841],
    [18312,1532812140,57.1499,-111.6858,735.0,418.0,265.5,8.4,4.2,25.81,40.58,1.9182,375.4624],
    [18313,1532812141,57.1499,-111.6868,735.6,417.6,264.7,8.3,4.8,25.95,39.83,1.9183,377.0159],
    [18314,1532812142,57.1499,-111.6878,735.8,416.8,265.4,7.8,4.1,25.94,38.84,1.9188,375.2724],
    [18315,1532812143,57.1499,-111.6888,735.1,416.1,265.2,7.3,4.5,25.5,38.68,1.914,377.7854],
    [18316,1532812144,57.1499,-111.6898,734.7,415.0,264.7,7.1,4.8,25.93,37.98,1.9145,378.6625],
    [18317,1532812145,57.1499,-111.6909,734.3,414.3,264.7,6.5,4.8,25.53,37.73,1.9141,377.2635],
    [18318,1532812146,57.1498,-111.6919,733.6,413.6,265.6,5.6,3.5,25.79,37.46,1.9146,377.9833],
    [18319,1532812147,57.1498,-111.6929,732.8,412.8,267.3,5.1,2.1,25.22,36.03,1.915,378.486],
    [18320,1532812148,57.1498,-111.694,732.8,412.8,266.8,4.6,3.0,25.55,36.35,1.9168,378.486],
    [18321,1532812149,57.1498,-111.695,733.1,412.1,267.8,4.0,2.4,25.28,35.61,1.9211,378.3829],
    [18322,1532812150,57.1498,-111.6961,733.6,412.6,268.0,3.3,2.4,25.53,35.01,1.9188,379.3695],
    [18323,1532812151,57.1498,-111.6971,734.0,413.0,268.4,3.2,2.4,25.36,35.12,1.9193,378.6037],
    [18324,1532812152,57.1498,-111.6982,734.3,412.3,268.8,2.8,2.5,25.67,35.47,1.9208,378.6056],
    [18325,1532812153,57.1498,-111.6993,734.5,412.5,270.5,2.5,1.0,25.15,36.07,1.9208,379.6218],
    [18326,1532812154,57.1499,-111.7004,734.2,412.2,270.5,2.6,1.1,25.39,36.16,1.9211,379.3022],
    [18327,1532812155,57.1499,-111.7015,734.1,412.1,268.3,3.0,3.1,25.63,36.03,1.921,379.1392],
    [18328,1532812156,57.1499,-111.7026,733.6,411.6,268.3,2.8,2.8,25.63,36.19,1.9211,378.1637],
    [18329,1532812157,57.1499,-111.7037,733.9,411.9,268.9,2.5,2.5,25.37,36.72,1.9206,379.0223],
    [18330,1532812158,57.1499,-111.7047,735.1,412.1,267.5,2.5,3.9,25.78,36.18,1.9193,379.4815],
    [18331,1532812159,57.1499,-111.7058,737.6,414.6,268.1,2.7,3.1,25.74,36.25,1.918,377.5542],
    [18332,1532812160,57.1499,-111.7069,739.2,416.2,267.6,2.4,3.9,26.18,35.95,1.918,377.5542],
    [18333,1532812161,57.1499,-111.708,740.1,417.1,266.6,2.5,4.5,25.69,36.35,1.9183,377.3428],
    [18334,1532812162,57.1499,-111.709,740.8,417.8,267.6,2.6,3.0,25.83,35.79,1.9182,379.4904],
    [18335,1532812163,57.1499,-111.7101,743.1,419.1,268.3,2.8,2.1,25.82,36.08,1.9183,377.4485],
    [18336,1532812164,57.1499,-111.7112,746.0,422.0,267.4,2.9,3.3,25.95,35.82,1.9202,378.138],
    [18337,1532812165,57.1499,-111.7122,748.0,424.0,266.4,3.6,4.0,25.59,36.65,1.919,378.0996],
    [18338,1532812166,57.1499,-111.7133,749.8,424.8,267.3,3.5,2.5,25.85,35.75,1.9181,378.689],
    [18339,1532812167,57.1499,-111.7143,751.7,426.7,267.7,2.6,1.6,26.18,35.19,1.9175,379.1393],
    [18340,1532812168,57.1499,-111.7154,753.5,428.5,267.4,1.4,1.6,26.04,35.37,1.9182,378.9437],
    [18341,1532812169,57.1499,-111.7164,755.8,430.5,266.7,1.2,2.4,25.82,35.72,1.9177,377.2992],
    [18342,1532812170,57.1499,-111.7175,756.4,430.4,265.3,1.7,4.4,25.78,35.57,1.9192,377.9393],
    [18343,1532812171,57.1499,-111.7185,756.4,430.4,265.3,1.1,3.7,25.66,35.65,1.9194,377.9393],
    [18344,1532812172,57.1498,-111.7196,755.5,429.5,268.5,-0.3,0.8,25.81,36.33,1.9175,378.962],
    [18345,1532812173,57.1498,-111.7207,753.1,427.1,268.3,-1.2,1.7,26.45,34.86,1.9171,378.962],
    [18346,1532812174,57.1498,-111.7218,751.3,425.2,268.4,-1.2,2.3,25.96,36.08,1.9178,378.1886],
    [18347,1532812175,57.1499,-111.7229,751.2,424.2,269.1,-0.3,2.1,25.87,35.58,1.9175,377.3663],
    [18348,1532812176,57.1499,-111.7239,751.8,424.8,268.8,-0.7,2.7,25.59,35.62,1.9173,379.3202],
    [18349,1532812177,57.1499,-111.725,751.3,424.3,268.3,-1.2,3.1,25.66,35.77,1.9168,377.8959],
    [18350,1532812178,57.1499,-111.7261,749.8,422.8,268.9,-0.8,2.7,25.36,35.66,1.9183,378.0894],
    [18351,1532812179,57.1499,-111.7272,747.8,420.8,269.0,-0.9,2.8,25.66,36.57,1.9186,377.7831],
    [18352,1532812180,57.1499,-111.7283,744.9,417.9,269.2,-1.0,2.9,25.27,35.71,1.9178,378.3762],
    [18353,1532812181,57.1499,-111.7294,741.8,413.8,268.9,-0.7,3.3,26.18,35.04,1.9174,377.8139],
    [18354,1532812182,57.15,-111.7305,738.8,410.8,269.1,-0.1,2.8,25.54,35.79,1.9174,378.1142],
    [18355,1532812183,57.15,-111.7316,737.2,409.2,269.1,-0.8,2.7,25.53,36.44,1.9183,378.9048],
    [18356,1532812184,57.15,-111.7327,735.6,408.6,269.2,-1.2,2.4,25.53,35.91,1.918,378.0627],
    [18357,1532812185,57.15,-111.7338,733.8,406.8,269.4,-1.4,2.2,26.44,35.34,1.9182,377.1123],
    [18358,1532812186,57.15,-111.7349,731.6,404.6,269.1,-1.5,2.5,25.59,35.71,1.9173,377.9204],
    [18359,1532812187,57.15,-111.736,728.9,401.9,269.3,-1.5,2.1,25.81,35.71,1.9184,377.9204],
    [18360,1532812188,57.15,-111.7371,726.3,400.3,269.2,-1.3,1.8,26.31,35.44,1.9173,378.6081],
    [18361,1532812189,57.15,-111.7382,724.4,398.4,268.2,-1.5,2.2,25.48,35.82,1.9176,379.0295],
    [18362,1532812190,57.15,-111.7393,723.8,397.8,267.5,-1.4,2.4,26.45,35.32,1.9181,377.9322],
    [18363,1532812191,57.15,-111.7404,724.0,398.0,267.1,-1.0,2.4,25.09,35.68,1.9195,377.4957],
    [18364,1532812192,57.15,-111.7415,723.6,398.6,268.0,-0.7,1.6,25.5,35.65,1.9191,377.4026],
    [18365,1532812193,57.15,-111.7426,722.5,397.5,268.2,0.8,1.8,25.8,36.43,1.9196,377.3962],
    [18366,1532812194,57.15,-111.7437,721.4,396.4,268.6,1.4,1.9,26.08,35.47,1.9183,377.7863],
    [18367,1532812195,57.15,-111.7448,720.6,394.7,269.5,1.5,1.7,25.73,35.68,1.9193,378.006],
    [18368,1532812196,57.15,-111.7459,720.2,394.2,269.5,1.2,2.1,25.57,36.28,1.9195,376.6901],
    [18369,1532812197,57.1501,-111.747,720.0,394.0,269.4,1.2,2.6,25.75,36.12,1.9188,377.4234],
    [18370,1532812198,57.1501,-111.7481,720.2,394.9,270.1,1.2,2.0,25.7,36.11,1.9187,377.8172],
    [18371,1532812199,57.1501,-111.7492,720.8,395.5,269.8,1.9,2.5,26.2,35.95,1.9189,377.8218],
    [18372,1532812200,57.1501,-111.7503,721.9,397.6,269.3,2.2,3.1,25.87,36.62,1.9176,377.3263],
    [18373,1532812201,57.1501,-111.7514,724.1,402.4,269.7,2.7,2.6,26.36,35.89,1.9173,377.9614],
    [18374,1532812202,57.1501,-111.7524,726.3,409.9,269.7,3.6,2.4,25.59,36.72,1.9156,379.2245],
    [18375,1532812203,57.1502,-111.7535,727.3,419.0,268.6,5.0,3.1,25.83,36.7,1.9133,377.4387],
    [18376,1532812204,57.1502,-111.7546,727.8,428.2,268.1,4.8,2.7,25.35,35.66,1.9148,379.0963],
    [18377,1532812205,57.1502,-111.7557,729.2,436.1,267.6,4.8,2.5,25.81,34.83,1.9142,379.8138],
    [18378,1532812206,57.1502,-111.7567,730.2,439.6,267.8,5.3,1.9,25.85,33.98,1.9144,378.8114],
    [18379,1532812207,57.1502,-111.7578,731.1,443.7,267.7,5.3,2.4,25.71,33.19,1.9148,379.1971],
    [18380,1532812208,57.1502,-111.7588,732.9,447.8,267.4,5.4,2.9,26.22,32.19,1.9149,379.3409],
    [18381,1532812209,57.1502,-111.7599,734.9,453.7,267.9,4.9,2.7,26.23,32.13,1.9157,380.4707],
    [18382,1532812210,57.1502,-111.761,737.0,454.1,266.6,4.3,4.4,25.37,32.08,1.9144,379.7797],
    [18383,1532812211,57.1502,-111.762,739.0,453.7,265.7,4.4,5.1,25.55,32.58,1.9147,379.7797],
    [18384,1532812212,57.1502,-111.7631,740.3,456.5,266.2,4.1,4.5,25.28,32.38,1.914,380.2526],
    [18385,1532812213,57.1502,-111.7642,741.0,461.2,267.3,5.0,3.5,25.79,31.91,1.9137,380.0948],
    [18386,1532812214,57.1502,-111.7652,742.0,463.6,268.3,4.5,2.7,25.94,32.65,1.9144,380.0948],
    [18387,1532812215,57.1502,-111.7663,742.5,463.1,269.0,3.9,2.2,25.74,31.52,1.9144,380.2127],
    [18388,1532812216,57.1502,-111.7674,742.6,461.0,269.6,3.9,1.6,25.48,31.93,1.9135,379.7699],
    [18389,1532812217,57.1502,-111.7685,741.9,457.9,269.8,3.2,1.3,25.89,31.14,1.9141,380.0467],
    [18390,1532812218,57.1502,-111.7695,741.2,455.3,269.3,3.1,1.3,25.96,31.91,1.9151,379.5352],
    [18391,1532812219,57.1502,-111.7706,740.1,451.1,269.0,2.8,1.6,26.7,30.54,1.9147,381.1298],
    [18392,1532812220,57.1502,-111.7717,738.0,446.9,268.6,1.6,2.1,26.0,31.0,1.9147,377.8693],
    [18393,1532812221,57.1502,-111.7728,736.4,445.5,268.0,1.2,2.9,26.5,30.39,1.9145,380.1774],
    [18394,1532812222,57.1502,-111.7739,735.5,444.6,266.9,0.8,3.8,26.49,29.88,1.9135,380.7171],
    [18395,1532812223,57.1502,-111.775,735.3,444.0,266.4,0.9,4.2,25.96,30.33,1.9138,379.9932],
    [18396,1532812224,57.1502,-111.7761,734.9,442.7,266.8,1.6,4.0,26.34,30.39,1.9141,380.7218],
    [18397,1532812225,57.1502,-111.7772,734.4,441.1,268.1,2.0,2.9,26.07,30.78,1.9154,379.8341],
    [18398,1532812226,57.1502,-111.7783,734.0,437.3,268.3,1.9,3.0,26.53,30.06,1.9149,380.6452],
    [18399,1532812227,57.1502,-111.7794,733.5,430.2,268.6,1.0,2.5,26.55,30.34,1.9157,380.9205],
    [18400,1532812228,57.1502,-111.7805,733.4,423.0,269.3,1.7,1.8,25.6,30.63,1.9146,380.9205],
    [18401,1532812229,57.1502,-111.7816,733.5,415.7,269.4,2.6,1.4,26.09,30.44,1.9158,381.154],
    [18402,1532812230,57.1503,-111.7827,734.0,410.9,270.8,2.9,0.0,25.55,30.47,1.9145,381.751],
    [18403,1532812231,57.1503,-111.7838,734.4,408.1,271.3,2.8,-0.3,26.21,30.22,1.9145,381.7404],
    [18404,1532812232,57.1503,-111.7849,735.1,408.1,271.4,2.5,-0.2,26.06,30.25,1.9135,381.5071],
    [18405,1532812233,57.1503,-111.786,736.0,409.0,271.6,2.7,-0.1,25.57,30.35,1.9155,380.9024],
    [18406,1532812234,57.1503,-111.7871,736.9,408.9,271.3,3.1,0.8,26.12,30.44,1.9145,380.3382],
    [18407,1532812235,57.1503,-111.7883,738.3,409.3,271.5,3.2,0.7,26.12,30.84,1.9159,380.2189],
    [18408,1532812236,57.1504,-111.7894,740.2,411.2,270.9,3.4,1.2,25.29,30.25,1.9154,380.9187],
    [18409,1532812237,57.1504,-111.7905,742.3,412.3,269.9,3.0,1.8,25.97,30.1,1.9163,380.4116],
    [18410,1532812238,57.1504,-111.7916,742.8,412.8,270.5,2.8,1.1,26.11,30.15,1.9161,381.6329],
    [18411,1532812239,57.1504,-111.7927,743.4,413.4,269.1,3.2,2.3,25.61,30.16,1.9174,381.1121],
    [18412,1532812240,57.1504,-111.7938,743.0,413.0,270.3,3.8,0.7,26.35,29.77,1.9167,380.8317],
    [18413,1532812241,57.1504,-111.7949,742.9,412.6,269.4,3.7,1.7,26.11,30.43,1.9153,381.4283],
    [18414,1532812242,57.1504,-111.796,743.1,412.1,268.9,3.0,2.0,26.24,30.63,1.9166,380.6715],
    [18415,1532812243,57.1504,-111.7971,744.0,413.0,269.2,2.0,1.7,26.32,30.5,1.9153,380.029],
    [18416,1532812244,57.1504,-111.7982,744.4,413.4,268.6,1.3,2.3,26.28,30.62,1.9177,380.214],
    [18417,1532812245,57.1504,-111.7993,745.2,414.2,268.0,0.3,3.0,26.2,31.36,1.917,379.0752],
    [18418,1532812246,57.1504,-111.8004,745.1,414.1,267.7,0.1,2.8,26.15,31.33,1.9163,380.5549],
    [18419,1532812247,57.1504,-111.8015,743.8,412.8,266.9,0.4,2.7,25.99,32.16,1.9156,379.6143],
    [18420,1532812248,57.1504,-111.8026,742.4,410.3,265.8,0.1,1.5,25.76,31.91,1.916,379.6143],
    [18421,1532812249,57.1504,-111.8038,741.3,409.3,263.2,-0.6,0.4,26.72,31.67,1.9168,378.949],
    [18422,1532812250,57.1503,-111.8048,741.8,409.8,258.8,-1.1,0.9,26.06,32.05,1.9153,379.3658],
    [18423,1532812251,57.1502,-111.8059,743.8,411.8,254.3,-1.0,2.1,27.0,31.63,1.9168,379.3733],
    [18424,1532812252,57.15,-111.807,746.0,414.0,251.8,-0.6,1.7,26.23,31.88,1.917,379.6243],
    [18425,1532812253,57.1498,-111.808,748.2,416.2,250.0,-0.3,0.7,26.27,32.92,1.9178,379.7752],
    [18426,1532812254,57.1496,-111.809,750.8,418.8,246.5,-0.4,1.2,25.87,32.35,1.9165,378.1719],
    [18427,1532812255,57.1494,-111.81,754.0,422.0,242.1,-0.4,2.2,26.32,32.12,1.9183,378.4602],
    [18428,1532812256,57.1491,-111.8109,756.7,424.7,239.4,-0.4,1.2,26.38,31.93,1.9174,378.7332],
    [18429,1532812257,57.1488,-111.8118,758.1,426.1,236.5,-0.5,0.4,25.82,32.45,1.9174,378.6708],
    [18430,1532812258,57.1485,-111.8127,758.7,426.7,232.1,-1.2,0.7,26.6,32.69,1.9183,379.3442],
    [18431,1532812259,57.1481,-111.8135,758.5,426.5,229.3,-1.4,0.5,26.3,32.74,1.9179,378.359],
    [18432,1532812260,57.1477,-111.8143,757.1,424.1,227.0,-0.8,-0.1,26.12,32.87,1.9191,379.0923],
    [18433,1532812261,57.1473,-111.8151,756.0,423.0,224.9,0.6,0.3,26.29,33.89,1.9204,378.7361],
    [18434,1532812262,57.1469,-111.8158,754.9,420.9,222.3,1.1,1.0,26.25,33.58,1.9205,378.3676],
    [18435,1532812263,57.1465,-111.8165,752.5,418.5,220.2,1.3,-0.1,26.05,34.17,1.9203,378.3789],
    [18436,1532812264,57.146,-111.8172,748.4,414.4,217.4,1.3,-0.8,26.13,34.72,1.9192,377.6343],
    [18437,1532812265,57.1455,-111.8178,743.6,409.6,213.5,1.1,-0.8,26.95,33.8,1.92,377.3094],
    [18438,1532812266,57.145,-111.8183,738.8,404.8,210.0,0.7,-2.4,26.0,34.51,1.9209,377.4526],
    [18439,1532812267,57.1445,-111.8188,733.8,398.8,206.2,0.5,-3.3,26.14,35.58,1.9214,377.9893],
    [18440,1532812268,57.1439,-111.8192,728.8,393.8,202.3,1.4,-4.2,26.89,34.63,1.9199,379.2133],
    [18441,1532812269,57.1434,-111.8195,725.0,390.0,196.9,1.6,-4.5,26.64,35.07,1.9198,378.0339],
    [18442,1532812270,57.1428,-111.8198,722.8,387.8,190.4,1.9,-4.7,26.0,35.79,1.9201,377.9291],
    [18443,1532812271,57.1422,-111.8199,722.2,387.9,186.7,2.9,-4.9,26.31,35.49,1.9195,377.8665],
    [18444,1532812272,57.1416,-111.8199,721.5,387.2,183.2,3.0,-4.5,26.18,36.34,1.9194,376.9869],
    [18445,1532812273,57.141,-111.8199,721.0,386.6,180.6,2.9,-3.9,26.76,35.2,1.9201,378.5401],
    [18446,1532812274,57.1404,-111.8198,720.9,385.8,179.2,2.9,-2.9,26.31,35.25,1.9192,377.9999],
    [18447,1532812275,57.1398,-111.8198,721.2,386.2,179.5,3.2,-2.2,26.4,35.22,1.9177,377.4017],
    [18448,1532812276,57.1392,-111.8197,721.8,386.8,181.1,4.0,-1.1,26.31,35.4,1.9173,377.7225],
    [18449,1532812277,57.1386,-111.8197,722.1,387.1,182.3,4.0,-0.7,25.98,35.55,1.9183,378.4089],
    [18450,1532812278,57.138,-111.8197,722.3,387.3,182.7,3.6,-0.5,26.0,35.79,1.9186,378.4089],
    [18451,1532812279,57.1374,-111.8197,723.2,388.2,183.3,3.7,-0.6,25.77,35.75,1.9183,378.0885],
    [18452,1532812280,57.1368,-111.8197,724.3,389.3,182.2,2.3,-1.4,26.84,35.27,1.9199,379.2465],
    [18453,1532812281,57.1363,-111.8197,725.8,390.8,181.6,2.1,-0.6,25.75,35.56,1.9196,378.7634],
    [18454,1532812282,57.1357,-111.8197,727.9,392.9,183.1,3.4,-0.1,26.05,36.41,1.9178,377.4117],
    [18455,1532812283,57.1351,-111.8197,729.7,394.7,182.8,2.7,0.9,25.46,35.81,1.9187,378.0213],
    [18456,1532812284,57.1345,-111.8197,730.3,395.3,183.7,3.3,1.9,25.8,35.51,1.9195,377.6435],
    [18457,1532812285,57.134,-111.8197,729.8,394.8,184.6,3.6,1.8,25.83,35.48,1.9193,378.7542],
    [18458,1532812286,57.1334,-111.8197,729.3,394.3,183.8,2.8,1.7,26.73,34.9,1.9187,377.7765],
    [18459,1532812287,57.1328,-111.8197,730.0,395.0,183.3,2.8,2.0,26.49,34.95,1.9181,377.1426],
    [18460,1532812288,57.1322,-111.8198,731.1,396.1,182.0,1.6,1.7,26.07,36.25,1.9168,375.1133],
    [18461,1532812289,57.1317,-111.8198,732.6,397.6,181.5,1.3,2.2,26.56,35.09,1.9185,378.1336],
    [18462,1532812290,57.1311,-111.8198,734.1,399.1,182.5,2.3,2.5,25.62,35.48,1.9185,377.5749],
    [18463,1532812291,57.1306,-111.8198,735.4,400.4,182.8,3.0,3.1,26.42,34.78,1.9183,377.8263],
    [18464,1532812292,57.13,-111.8198,737.7,402.7,183.3,3.9,3.0,26.13,35.13,1.9172,378.2705],
    [18465,1532812293,57.1294,-111.8198,739.5,404.2,182.7,3.1,3.1,26.49,34.64,1.9176,378.6372],
    [18466,1532812294,57.1289,-111.8198,740.5,405.2,182.4,2.2,3.2,26.67,34.75,1.9184,378.141],
    [18467,1532812295,57.1283,-111.8198,741.0,406.0,182.4,1.7,3.3,26.54,34.68,1.9189,377.4995],
    [18468,1532812296,57.1277,-111.8198,741.1,406.1,182.0,0.6,4.2,26.43,34.51,1.9196,378.1964],
    [18469,1532812297,57.1272,-111.8198,741.7,406.7,181.2,-0.4,4.6,25.82,35.62,1.9202,378.0549],
    [18470,1532812298,57.1266,-111.8199,743.4,408.4,181.5,-0.2,4.1,26.06,35.34,1.9206,376.3727],
    [18471,1532812299,57.1261,-111.8199,745.9,410.9,181.4,-0.5,4.5,25.76,35.71,1.9199,376.869],
    [18472,1532812300,57.1255,-111.8199,748.2,413.9,181.4,-0.4,4.8,25.72,36.51,1.9176,377.8639],
    [18473,1532812301,57.125,-111.82,750.6,416.6,180.7,-1.0,4.6,25.82,35.93,1.9177,377.8528],
    [18474,1532812302,57.1244,-111.82,752.9,418.9,180.9,-0.4,5.1,26.07,35.71,1.9188,377.5189],
    [18475,1532812303,57.1239,-111.82,754.5,420.5,180.8,-0.3,4.6,25.35,36.09,1.9195,378.2092],
    [18476,1532812304,57.1234,-111.82,754.5,420.3,180.4,-0.5,4.2,25.76,35.99,1.9182,377.8931],
    [18477,1532812305,57.1228,-111.8201,753.7,418.6,180.8,-0.2,4.4,25.59,35.88,1.918,377.8931],
    [18478,1532812306,57.1223,-111.8201,752.6,417.6,181.1,0.0,4.0,26.15,35.54,1.9185,378.2663],
    [18479,1532812307,57.1218,-111.8201,751.5,416.5,181.2,0.5,4.0,26.23,35.54,1.9184,378.2663],
    [18480,1532812308,57.1212,-111.8201,751.1,416.1,181.4,1.1,4.4,25.45,35.96,1.9202,377.833],
    [18481,1532812309,57.1207,-111.8201,751.2,416.2,180.2,-0.1,4.2,26.81,35.38,1.9215,378.5027],
    [18482,1532812310,57.1201,-111.8201,751.8,416.8,179.8,-0.7,3.7,26.47,35.51,1.9208,377.5588],
    [18483,1532812311,57.1196,-111.8201,753.1,419.2,180.8,0.2,3.6,26.07,35.83,1.9199,376.046],
    [18484,1532812312,57.119,-111.8201,754.2,420.1,181.3,0.3,4.1,26.29,35.61,1.9213,378.1914],
    [18485,1532812313,57.1185,-111.8202,753.6,420.7,181.1,0.3,3.8,26.08,36.06,1.9208,376.8596],
    [18486,1532812314,57.118,-111.8202,752.0,419.0,181.3,0.4,3.7,25.92,35.79,1.9216,378.5283],
    [18487,1532812315,57.1174,-111.8202,750.0,417.3,180.9,0.3,3.4,26.09,35.85,1.9237,378.1578],
    [18488,1532812316,57.1168,-111.8202,747.7,415.3,182.5,1.9,2.3,26.01,35.78,1.9244,378.8285],
    [18489,1532812317,57.1163,-111.8202,745.0,413.1,182.5,1.7,1.1,25.68,35.94,1.923,378.8643],
    [18490,1532812318,57.1157,-111.8202,743.8,411.1,181.9,1.3,0.2,26.16,35.82,1.9222,377.8432],
    [18491,1532812319,57.1152,-111.8203,743.3,410.6,183.2,2.5,0.4,26.04,36.11,1.9227,378.3283],
    [18492,1532812320,57.1146,-111.8203,742.3,409.6,183.9,3.0,0.6,25.98,36.14,1.923,378.3283],
    [18493,1532812321,57.114,-111.8203,740.9,407.9,184.5,3.3,0.3,26.04,36.28,1.9241,378.4729],
    [18494,1532812322,57.1135,-111.8203,739.2,406.2,184.1,2.9,-0.5,26.86,35.71,1.9238,379.11],
    [18495,1532812323,57.1129,-111.8203,737.4,404.4,184.5,3.6,-0.7,25.73,36.29,1.9224,377.7382],
    [18496,1532812324,57.1123,-111.8204,734.5,401.5,184.4,3.7,-1.4,25.63,36.48,1.9217,378.5104],
    [18497,1532812325,57.1118,-111.8204,731.0,398.0,183.5,3.2,-2.1,25.41,36.49,1.9219,377.7465],
    [18498,1532812326,57.1112,-111.8204,727.3,394.3,183.3,3.3,-2.5,26.04,36.36,1.9216,378.7099],
    [18499,1532812327,57.1106,-111.8204,724.6,391.7,180.8,1.3,-2.0,26.49,35.95,1.9224,378.8791],
    [18500,1532812328,57.1101,-111.8204,723.3,389.3,179.9,0.9,-1.5,25.98,36.63,1.9228,378.8951],
    [18501,1532812329,57.1095,-111.8204,722.5,388.5,181.5,2.5,-0.9,25.53,36.94,1.923,378.5697],
    [18502,1532812330,57.1089,-111.8203,721.2,387.2,182.1,2.5,-0.6,26.39,36.68,1.9242,378.4513],
    [18503,1532812331,57.1083,-111.8203,720.5,386.5,181.6,1.9,0.0,25.78,37.84,1.9227,378.4513],
    [18504,1532812332,57.1078,-111.8204,720.4,386.4,182.4,2.4,0.1,25.7,37.69,1.9235,378.2272],
    [18505,1532812333,57.1072,-111.8204,720.5,385.5,181.8,2.0,-0.7,26.13,37.17,1.9218,377.8854],
    [18506,1532812334,57.1066,-111.8204,719.6,384.6,181.8,2.0,-1.6,25.74,37.22,1.9224,378.2795],
    [18507,1532812335,57.1061,-111.8203,718.9,383.9,181.1,1.4,-1.8,26.33,36.77,1.922,377.897],
    [18508,1532812336,57.1055,-111.8203,718.7,383.7,181.5,2.0,-1.0,26.09,37.65,1.9217,377.7634],
    [18509,1532812337,57.1049,-111.8203,718.6,383.6,181.7,2.2,0.3,25.34,37.37,1.9224,378.3392],
    [18510,1532812338,57.1044,-111.8203,718.6,383.6,181.9,2.7,0.9,25.29,37.29,1.9223,378.1033],
    [18511,1532812339,57.1038,-111.8203,718.3,383.3,181.4,1.8,0.3,26.41,36.99,1.9219,378.399],
    [18512,1532812340,57.1032,-111.8203,717.9,381.9,180.3,0.5,0.0,25.94,38.0,1.9214,378.3842],
    [18513,1532812341,57.1027,-111.8203,718.1,382.1,180.7,0.5,0.2,26.45,36.32,1.9214,378.1345],
    [18514,1532812342,57.1021,-111.8203,718.7,382.7,181.7,1.3,0.8,26.31,36.5,1.9231,379.0892],
    [18515,1532812343,57.1015,-111.8203,719.6,383.6,182.0,1.2,0.9,25.99,37.33,1.9205,379.0892],
    [18516,1532812344,57.101,-111.8204,720.9,384.6,180.6,-0.4,0.8,26.74,36.65,1.9205,378.8707],
    [18517,1532812345,57.1004,-111.8204,722.7,385.7,181.8,1.2,0.7,25.91,36.65,1.9204,377.7551],
    [18518,1532812346,57.0998,-111.8204,724.9,387.2,182.6,1.7,0.2,25.98,36.45,1.9209,378.3508],
    [18519,1532812347,57.0992,-111.8204,727.1,389.1,180.9,0.0,-0.1,25.77,36.95,1.9219,379.6431],
    [18520,1532812348,57.0987,-111.8204,729.8,391.8,180.9,0.2,-0.3,26.71,35.68,1.9202,380.2649],
    [18521,1532812349,57.0981,-111.8204,732.2,394.2,180.6,-0.3,0.3,26.16,35.85,1.9217,380.0383],
    [18522,1532812350,57.0976,-111.8205,734.4,396.4,179.9,-1.2,1.5,25.5,36.52,1.9241,379.3322],
    [18523,1532812351,57.097,-111.8205,736.2,398.2,181.0,-0.1,2.3,25.6,35.95,1.9226,379.7103],
    [18524,1532812352,57.0965,-111.8205,738.1,400.1,180.4,-0.6,3.1,26.24,35.59,1.9234,378.4784],
    [18525,1532812353,57.0959,-111.8205,740.0,402.0,179.6,-1.1,3.5,25.99,35.93,1.9227,378.076],
    [18526,1532812354,57.0954,-111.8205,742.2,403.2,180.1,-0.5,4.1,25.55,36.1,1.922,377.9752],
    [18527,1532812355,57.0948,-111.8205,744.8,405.8,180.6,0.7,4.1,25.71,36.38,1.9223,377.9023],
    [18528,1532812356,57.0943,-111.8205,746.8,407.5,183.3,3.0,3.5,25.74,37.29,1.9217,377.3959],
    [18529,1532812357,57.0937,-111.8205,748.0,408.0,183.0,2.3,3.5,25.27,36.48,1.9227,377.3959],
    [18530,1532812358,57.0932,-111.8206,748.0,408.0,182.9,2.1,3.7,26.24,36.25,1.9228,377.0148],
    [18531,1532812359,57.0926,-111.8206,747.7,407.7,183.4,2.6,4.8,25.75,36.64,1.9236,376.5322],
    [18532,1532812360,57.0921,-111.8206,747.8,406.8,182.7,2.2,6.1,25.58,36.89,1.9221,376.8214],
    [18533,1532812361,57.0915,-111.8206,748.3,407.3,182.3,2.2,5.1,26.16,37.01,1.923,377.9962],
    [18534,1532812362,57.091,-111.8206,749.3,408.3,183.0,3.3,4.8,25.75,37.27,1.9225,377.8098],
    [18535,1532812363,57.0904,-111.8206,750.5,409.5,182.4,3.0,4.9,25.77,38.09,1.9213,376.5688],
    [18536,1532812364,57.0899,-111.8206,752.2,412.2,181.4,2.7,5.8,25.86,37.63,1.9205,377.5805],
    [18537,1532812365,57.0894,-111.8206,754.1,414.1,179.8,1.4,6.7,26.44,36.25,1.9205,377.8667],
    [18538,1532812366,57.0888,-111.8206,754.8,414.8,179.0,0.9,7.3,25.68,36.71,1.9194,377.8935],
    [18539,1532812367,57.0883,-111.8205,755.0,415.0,179.4,1.1,7.8,26.12,36.15,1.9183,380.3133],
    [18540,1532812368,57.0877,-111.8205,755.6,414.6,179.7,0.9,8.3,26.05,35.78,1.9185,378.7315],
    [18541,1532812369,57.0872,-111.8205,755.9,414.9,179.8,0.5,9.1,25.77,36.01,1.9212,377.934],
    [18542,1532812370,57.0867,-111.8205,755.7,414.7,179.9,0.6,10.1,25.92,35.74,1.9219,377.409],
    [18543,1532812371,57.0861,-111.8205,756.4,415.4,178.5,-0.7,9.9,26.27,35.13,1.9237,377.7463],
    [18544,1532812372,57.0856,-111.8204,758.2,417.2,176.5,-2.1,9.7,25.91,36.34,1.9226,377.7463],
    [18545,1532812373,57.0851,-111.8204,758.9,417.9,176.9,-0.9,9.4,25.39,35.41,1.9223,376.8522],
    [18546,1532812374,57.0845,-111.8203,759.2,418.2,176.4,-1.1,9.8,25.7,35.37,1.9229,377.6438],
    [18547,1532812375,57.084,-111.8203,759.3,418.3,174.2,-2.9,9.8,25.74,35.35,1.9243,377.1129],
    [18548,1532812376,57.0834,-111.8202,758.5,416.7,175.4,-1.4,9.4,26.22,34.83,1.925,377.93],
    [18549,1532812377,57.0829,-111.8201,758.2,416.2,177.8,0.6,9.3,26.11,35.04,1.9246,377.2273],
    [18550,1532812378,57.0823,-111.8201,760.0,418.0,178.3,0.2,8.5,26.72,34.38,1.9252,376.9286],
    [18551,1532812379,57.0818,-111.8201,762.4,420.4,178.7,0.1,7.9,25.95,35.7,1.9252,378.599],
    [18552,1532812380,57.0812,-111.82,765.2,423.2,178.3,-0.7,7.8,25.95,35.2,1.9237,377.9525],
    [18553,1532812381,57.0807,-111.82,767.1,424.6,177.5,-1.4,8.4,25.96,34.7,1.9251,377.9525],
    [18554,1532812382,57.0801,-111.82,768.1,425.1,177.1,-1.5,8.5,26.21,34.59,1.9279,377.1097],
    [18555,1532812383,57.0796,-111.8199,768.9,425.9,176.5,-1.8,7.5,26.01,34.71,1.9265,378.2203],
    [18556,1532812384,57.079,-111.8199,768.9,425.9,177.1,-0.8,7.9,25.4,34.66,1.9258,378.0878],
    [18557,1532812385,57.0784,-111.8198,768.6,425.6,177.9,0.0,6.7,26.46,34.77,1.924,377.8582],
    [18558,1532812386,57.0779,-111.8198,768.2,425.2,179.4,1.5,5.4,25.87,34.92,1.9236,377.4049],
    [18559,1532812387,57.0773,-111.8198,768.5,425.5,179.7,1.5,6.1,26.05,34.42,1.924,376.571],
    [18560,1532812388,57.0767,-111.8197,769.5,425.5,179.2,0.8,6.1,25.28,34.77,1.9211,377.2314],
    [18561,1532812389,57.0762,-111.8197,770.4,426.4,179.7,1.5,6.2,25.86,34.75,1.9194,378.2702],
    [18562,1532812390,57.0756,-111.8197,772.0,428.0,179.7,1.7,6.0,25.9,34.82,1.9176,378.7527],
    [18563,1532812391,57.0751,-111.8197,774.2,430.2,178.3,0.5,4.8,25.64,34.61,1.9245,377.1019],
    [18564,1532812392,57.0745,-111.8196,775.9,431.9,178.8,1.2,3.5,26.18,34.14,1.9246,376.772],
    [18565,1532812393,57.0739,-111.8196,777.2,433.2,179.9,2.3,4.3,25.97,34.35,1.9264,379.1097],
    [18566,1532812394,57.0734,-111.8195,777.5,433.2,179.9,2.4,4.7,26.28,33.89,1.924,377.6645],
    [18567,1532812395,57.0728,-111.8195,775.9,430.9,180.9,3.3,4.2,26.09,34.72,1.9241,377.8653],
    [18568,1532812396,57.0722,-111.8194,775.3,430.3,180.4,2.9,3.8,25.47,34.25,1.9225,378.3532],
    [18569,1532812397,57.0717,-111.8194,772.9,427.9,180.5,2.7,3.8,25.66,34.25,1.9218,378.0319],
    [18570,1532812398,57.0711,-111.8194,770.5,425.5,180.0,1.4,4.2,26.05,34.0,1.9207,378.2267],
    [18571,1532812399,57.0705,-111.8194,767.9,421.9,182.1,3.3,4.5,26.84,33.39,1.918,378.2267],
    [18572,1532812400,57.0699,-111.8194,765.5,419.5,183.5,4.1,3.7,25.28,34.04,1.9181,377.4862],
    [18573,1532812401,57.0693,-111.8194,763.0,417.0,183.1,3.5,3.0,26.1,33.56,1.9202,378.1333],
    [18574,1532812402,57.0687,-111.8194,760.6,414.6,183.3,4.1,2.9,26.21,33.42,1.9255,378.7118],
    [18575,1532812403,57.0682,-111.8194,759.4,412.5,182.6,3.3,3.2,26.0,33.89,1.9317,379.4353],
    [18576,1532812404,57.0676,-111.8194,760.4,413.4,180.6,1.3,3.2,26.61,32.71,1.929,378.9449],
    [18577,1532812405,57.067,-111.8193,761.9,414.9,181.3,2.0,3.2,25.91,33.25,1.9394,378.1771],
    [18578,1532812406,57.0664,-111.8193,763.2,415.2,181.4,1.9,3.2,26.52,32.63,1.94,378.5534],
    [18579,1532812407,57.0658,-111.8193,763.8,415.8,181.9,2.3,3.0,25.97,33.7,1.9276,378.6255],
    [18580,1532812408,57.0652,-111.8193,763.6,415.6,180.7,0.9,3.2,26.72,32.62,1.9192,378.0026],
    [18581,1532812409,57.0646,-111.8193,763.5,415.5,180.6,0.9,3.6,26.52,32.99,1.9216,378.5313],
    [18582,1532812410,57.064,-111.8193,763.2,415.2,180.3,0.6,3.3,25.79,33.07,1.9207,379.172],
    [18583,1532812411,57.0634,-111.8193,762.9,414.9,180.8,1.3,2.9,26.01,32.79,1.9214,378.6524],
    [18584,1532812412,57.0628,-111.8193,762.6,414.6,182.0,2.5,2.9,26.06,33.49,1.9216,377.8952],
    [18585,1532812413,57.0622,-111.8193,762.2,414.2,181.4,1.4,2.8,26.03,33.62,1.9195,378.7791],
    [18586,1532812414,57.0616,-111.8193,762.5,414.5,181.7,1.6,2.5,25.99,33.65,1.9192,379.936],
    [18587,1532812415,57.061,-111.8193,763.1,414.1,181.9,1.7,2.1,26.0,34.0,1.919,378.9535],
    [18588,1532812416,57.0604,-111.8193,763.4,414.4,181.8,1.5,0.9,26.13,33.27,1.9194,378.0118],
    [18589,1532812417,57.0598,-111.8194,763.0,414.0,182.4,2.0,0.6,25.99,33.27,1.9199,378.2864],
    [18590,1532812418,57.0592,-111.8194,762.8,413.8,182.3,1.6,0.6,26.29,32.92,1.9203,377.0087],
    [18591,1532812419,57.0586,-111.8194,762.8,413.8,181.7,0.7,0.9,26.26,32.96,1.9188,377.4309],
    [18592,1532812420,57.058,-111.8194,764.1,414.1,180.2,-1.0,0.5,25.95,33.96,1.9204,378.4237],
    [18593,1532812421,57.0574,-111.8194,764.0,414.0,183.1,3.1,0.9,26.12,33.47,1.9211,378.8718],
    [18594,1532812422,57.0568,-111.8194,762.0,412.0,187.5,7.3,0.9,25.69,33.58,1.9207,378.407],
    [18595,1532812423,57.0562,-111.8195,760.8,410.8,184.7,4.0,1.3,25.88,33.78,1.9187,378.7456],
    [18596,1532812424,57.0556,-111.8195,760.3,410.3,184.1,4.1,1.3,25.99,33.99,1.9195,379.2811],
    [18597,1532812425,57.055,-111.8195,761.1,411.1,184.7,5.3,1.3,25.41,34.05,1.9189,379.4837],
    [18598,1532812426,57.0544,-111.8195,763.9,413.9,182.2,2.9,1.4,26.15,33.77,1.9184,378.1582],
    [18599,1532812427,57.0538,-111.8195,766.6,416.6,179.6,0.9,0.9,26.7,33.15,1.9183,378.2161],
    [18600,1532812428,57.0532,-111.8195,768.2,418.2,179.2,0.4,0.4,25.78,33.93,1.92,378.2324],
    [18601,1532812429,57.0526,-111.8194,769.7,419.7,178.2,-0.5,-0.8,26.6,32.82,1.9191,377.7258],
    [18602,1532812430,57.052,-111.8194,770.5,420.5,179.9,0.9,-2.5,25.7,33.67,1.9187,379.3851],
    [18603,1532812431,57.0514,-111.8194,770.8,419.8,180.7,1.5,-4.0,26.46,33.5,1.9188,377.6193],
    [18604,1532812432,57.0508,-111.8194,768.5,417.5,182.8,2.7,-5.7,25.74,33.72,1.9208,377.9385],
    [18605,1532812433,57.0502,-111.8194,765.8,414.8,182.4,1.0,-7.5,26.47,33.31,1.9185,376.6914],
    [18606,1532812434,57.0496,-111.8194,764.8,413.8,182.6,0.7,-9.0,25.85,34.82,1.9181,377.0277],
    [18607,1532812435,57.0491,-111.8195,764.3,412.3,183.2,0.9,-10.3,25.92,34.32,1.9192,377.6683],
    [18608,1532812436,57.0485,-111.8195,763.8,411.8,182.9,0.7,-11.1,26.31,33.56,1.9182,377.708],
    [18609,1532812437,57.0479,-111.8195,763.2,411.2,182.9,0.8,-11.9,25.87,34.28,1.918,378.551],
    [18610,1532812438,57.0473,-111.8196,763.2,410.2,182.3,0.5,-12.6,25.92,34.99,1.9174,378.1043],
    [18611,1532812439,57.0467,-111.8196,762.7,409.7,181.8,0.6,-13.5,25.79,34.19,1.9182,378.2684],
    [18612,1532812440,57.0461,-111.8196,763.2,410.2,181.2,0.6,-14.4,26.42,33.42,1.9183,378.4586],
    [18613,1532812441,57.0455,-111.8196,763.6,410.6,181.5,1.1,-15.2,26.06,34.36,1.9191,378.4586],
    [18614,1532812442,57.0449,-111.8196,763.3,410.3,180.4,0.6,-15.7,25.75,34.55,1.9186,379.0375],
    [18615,1532812443,57.0444,-111.8196,763.8,411.1,179.9,0.5,-15.9,25.59,34.92,1.9185,378.2494],
    [18616,1532812444,57.0437,-111.8196,764.3,412.3,180.9,1.1,-15.2,25.69,34.46,1.917,377.7753],
    [18617,1532812445,57.0432,-111.8196,764.9,412.9,180.8,0.8,-13.8,25.64,34.91,1.9172,378.1259],
    [18618,1532812446,57.0426,-111.8196,765.1,413.1,182.3,1.9,-13.1,26.13,34.2,1.9171,379.3066],
    [18619,1532812447,57.042,-111.8196,765.0,413.0,182.7,1.6,-12.2,25.85,35.06,1.9176,378.9638],
    [18620,1532812448,57.0414,-111.8196,764.7,411.1,182.4,1.1,-11.4,25.99,33.97,1.9183,378.3997],
    [18621,1532812449,57.0408,-111.8196,764.5,409.2,182.0,0.7,-10.7,25.44,35.15,1.918,378.4282],
    [18622,1532812450,57.0403,-111.8197,763.8,406.8,183.3,2.2,-10.1,25.22,34.96,1.9195,378.9672],
    [18623,1532812451,57.0397,-111.8197,762.9,405.9,183.6,2.4,-9.8,25.04,34.75,1.9194,378.3128],
    [18624,1532812452,57.0391,-111.8197,762.1,405.1,182.4,1.5,-9.2,25.27,35.41,1.9185,379.427],
    [18625,1532812453,57.0385,-111.8197,761.1,404.1,183.8,3.0,-9.0,24.93,34.88,1.9175,378.156],
    [18626,1532812454,57.038,-111.8197,760.7,402.7,184.5,3.1,-9.1,25.34,35.19,1.9176,379.5606],
    [18627,1532812455,57.0374,-111.8197,760.4,402.4,183.9,2.4,-8.9,25.42,35.29,1.9197,379.3086],
    [18628,1532812456,57.0368,-111.8198,759.9,401.9,184.3,2.5,-8.5,25.31,35.38,1.9183,378.5361],
    [18629,1532812457,57.0362,-111.8198,759.6,401.6,183.8,1.8,-8.1,25.17,34.99,1.9175,379.0584],
    [18630,1532812458,57.0357,-111.8198,759.7,401.7,183.1,1.4,-8.0,24.77,34.99,1.9175,379.657],
    [18631,1532812459,57.0351,-111.8198,760.7,401.7,181.8,0.4,-8.1,25.27,35.78,1.9169,378.5332],
    [18632,1532812460,57.0345,-111.8199,762.0,403.0,182.2,1.4,-8.2,25.22,35.01,1.9171,378.5245],
    [18633,1532812461,57.0339,-111.8199,765.0,406.0,183.2,2.3,-7.6,25.26,35.51,1.9169,378.7313],
    [18634,1532812462,57.0334,-111.8199,770.4,411.4,181.7,1.0,-6.3,25.17,35.32,1.9188,378.7313],
    [18635,1532812463,57.0328,-111.8199,778.4,419.4,181.9,1.5,-4.8,25.1,35.01,1.9176,378.2567],
    [18636,1532812464,57.0322,-111.8199,789.4,430.4,181.5,1.3,-2.5,25.08,35.3,1.9193,378.2567],
    [18637,1532812465,57.0317,-111.8199,801.4,442.5,181.0,1.1,-0.6,25.59,34.29,1.9189,379.9327],
    [18638,1532812466,57.0312,-111.8199,813.1,454.8,181.1,1.2,1.1,24.85,35.05,1.9187,379.8188],
    [18639,1532812467,57.0307,-111.8199,824.6,469.2,180.9,1.0,3.2,25.1,35.11,1.919,378.5424],
    [18640,1532812468,57.0302,-111.8199,835.6,486.4,180.9,1.1,4.6,24.72,35.69,1.9186,378.5366],
    [18641,1532812469,57.0297,-111.8199,845.8,499.8,180.8,1.0,6.1,25.22,35.2,1.9182,378.9897],
    [18642,1532812470,57.0293,-111.8199,855.2,513.6,179.6,0.3,8.0,24.69,35.05,1.9189,379.3419],
    [18643,1532812471,57.0288,-111.8199,863.7,523.6,179.9,0.8,9.7,25.01,35.13,1.918,379.8042],
    [18644,1532812472,57.0284,-111.8199,871.8,531.4,179.7,0.9,10.4,25.09,35.92,1.9185,379.4195],
    [18645,1532812473,57.028,-111.8198,879.7,536.6,179.3,0.7,11.3,25.47,34.71,1.9179,379.4646],
    [18646,1532812474,57.0275,-111.8198,887.1,542.7,178.7,0.5,12.1,24.55,35.55,1.9202,379.4477],
    [18647,1532812475,57.0271,-111.8198,893.7,546.6,177.5,-0.2,13.0,24.83,35.16,1.9186,379.4079],
    [18648,1532812476,57.0267,-111.8197,898.9,550.7,177.2,-0.4,14.0,25.09,35.37,1.9173,379.4318],
    [18649,1532812477,57.0263,-111.8197,901.7,553.7,178.4,0.6,14.5,24.51,34.98,1.9176,378.8766],
    [18650,1532812478,57.0259,-111.8197,902.6,553.2,179.0,0.8,14.5,24.68,34.98,1.9178,378.825],
    [18651,1532812479,57.0255,-111.8196,901.6,548.6,179.2,0.8,13.5,24.45,34.83,1.9181,378.8863],
    [18652,1532812480,57.025,-111.8196,900.2,545.9,180.0,1.3,13.2,25.56,34.14,1.9158,378.8863],
    [18653,1532812481,57.0246,-111.8196,899.6,542.6,180.2,1.1,13.2,25.14,35.38,1.9162,379.3557],
    [18654,1532812482,57.0242,-111.8196,898.7,542.3,180.6,1.3,12.8,24.91,34.7,1.9169,378.3872],
    [18655,1532812483,57.0237,-111.8196,897.7,542.7,181.3,1.6,12.7,25.02,34.84,1.9171,378.1873],
    [18656,1532812484,57.0233,-111.8196,896.6,545.9,182.0,2.2,12.6,25.42,33.94,1.9174,378.3366],
    [18657,1532812485,57.0228,-111.8196,895.7,547.7,182.3,2.2,12.5,24.94,34.4,1.9171,379.2892],
    [18658,1532812486,57.0224,-111.8196,894.7,552.1,182.0,1.8,12.1,25.21,34.23,1.9164,378.8087],
    [18659,1532812487,57.0219,-111.8196,894.1,555.5,182.6,2.3,11.9,24.89,34.25,1.9147,379.2998],
    [18660,1532812488,57.0214,-111.8196,894.2,557.5,182.3,2.0,11.6,25.42,33.37,1.9129,378.4726],
    [18661,1532812489,57.021,-111.8196,894.3,561.8,181.7,1.7,11.0,24.96,33.55,1.9135,378.3403],
    [18662,1532812490,57.0205,-111.8196,894.5,564.5,182.0,1.8,10.5,25.42,32.77,1.9153,379.1608],
    [18663,1532812491,57.02,-111.8196,894.8,566.1,182.2,1.9,10.3,25.04,33.21,1.9148,380.9434],
    [18664,1532812492,57.0196,-111.8196,895.2,568.2,182.3,1.9,10.3,24.79,33.23,1.9159,380.91],
    [18665,1532812493,57.0191,-111.8196,895.6,566.1,182.4,2.2,10.4,25.44,32.89,1.9144,380.91],
    [18666,1532812494,57.0186,-111.8196,895.9,562.9,182.8,2.5,10.6,25.34,33.15,1.9182,379.4776],
    [18667,1532812495,57.0181,-111.8196,896.5,555.0,181.9,1.7,10.8,25.48,32.62,1.9182,379.1562],
    [18668,1532812496,57.0177,-111.8197,896.9,545.8,181.8,1.8,11.4,24.71,33.48,1.9168,380.4422],
    [18669,1532812497,57.0172,-111.8197,897.5,539.5,181.6,1.7,11.6,24.96,34.15,1.9169,379.8322],
    [18670,1532812498,57.0167,-111.8197,898.0,537.3,180.9,1.6,12.1,24.74,33.79,1.9146,380.2361],
    [18671,1532812499,57.0162,-111.8196,898.0,535.0,181.2,2.0,12.3,25.5,33.25,1.9126,379.2915],
    [18672,1532812500,57.0157,-111.8196,898.0,534.0,181.5,2.1,12.5,24.78,34.14,1.914,379.7645],
    [18673,1532812501,57.0152,-111.8196,897.9,532.8,182.7,3.1,12.6,25.21,33.06,1.9135,379.0515],
    [18674,1532812502,57.0147,-111.8196,898.3,533.3,182.2,2.3,12.9,25.44,32.55,1.9157,378.714],
    [18675,1532812503,57.0142,-111.8196,898.7,533.7,182.0,2.1,13.2,24.24,33.15,1.9168,378.6668],
    [18676,1532812504,57.0137,-111.8196,898.9,534.9,183.1,2.8,12.9,24.94,33.09,1.9153,379.2333],
    [18677,1532812505,57.0133,-111.8197,898.7,534.7,182.8,2.2,12.7,24.41,33.7,1.9155,379.78],
    [18678,1532812506,57.0128,-111.8197,898.6,534.6,182.5,1.7,12.7,24.63,33.61,1.9134,380.0128],
    [18679,1532812507,57.0123,-111.8197,899.1,534.4,182.0,1.0,12.2,25.75,32.9,1.9145,379.1893],
    [18680,1532812508,57.0118,-111.8197,899.3,534.3,182.7,1.6,12.5,25.55,33.01,1.916,378.9616],
    [18681,1532812509,57.0113,-111.8198,898.5,533.5,184.6,3.3,12.2,25.11,33.09,1.9151,378.4929],
    [18682,1532812510,57.0108,-111.8198,897.6,531.6,184.4,2.6,12.2,24.97,34.07,1.9156,379.9564],
    [18683,1532812511,57.0103,-111.8198,896.6,530.3,183.5,1.8,12.3,24.8,34.35,1.9152,378.6476],
    [18684,1532812512,57.0098,-111.8199,896.9,529.9,183.8,2.2,11.8,25.04,33.81,1.9156,379.723],
    [18685,1532812513,57.0093,-111.8199,898.6,531.6,184.7,3.4,11.6,25.25,33.46,1.9166,378.6067],
    [18686,1532812514,57.0087,-111.82,901.4,533.4,184.7,3.6,11.2,24.38,33.75,1.9157,378.6292],
    [18687,1532812515,57.0082,-111.82,904.4,536.4,182.6,1.7,11.7,24.91,33.96,1.9161,379.3781],
    [18688,1532812516,57.0077,-111.82,906.5,538.5,182.6,2.6,10.6,24.96,33.83,1.9156,379.8629],
    [18689,1532812517,57.0072,-111.82,907.5,539.5,181.7,1.7,10.3,24.78,33.91,1.9156,377.8302],
    [18690,1532812518,57.0067,-111.82,908.4,540.4,179.6,-0.3,10.1,24.58,33.89,1.9161,378.5593],
    [18691,1532812519,57.0062,-111.82,909.3,541.3,180.5,0.9,9.1,24.74,33.9,1.9157,379.022],
    [18692,1532812520,57.0056,-111.82,909.8,541.8,181.1,1.5,8.6,25.07,33.73,1.9152,377.8091],
    [18693,1532812521,57.0051,-111.82,910.2,541.7,181.0,1.5,7.8,25.43,33.27,1.9148,377.8091],
    [18694,1532812522,57.0046,-111.82,910.5,541.5,181.8,2.7,6.9,25.46,33.59,1.9155,378.2273],
    [18695,1532812523,57.004,-111.82,910.8,541.8,181.6,2.7,6.2,24.87,34.01,1.9159,378.365],
    [18696,1532812524,57.0035,-111.82,911.1,542.0,181.2,2.5,6.7,24.99,34.04,1.9165,379.1046],
    [18697,1532812525,57.003,-111.8199,911.0,541.0,181.2,2.5,7.0,24.95,34.27,1.9173,378.6167],
    [18698,1532812526,57.0024,-111.8199,910.5,540.5,180.4,1.6,7.1,25.07,33.72,1.9211,377.5239],
    [18699,1532812527,57.0019,-111.8199,909.9,539.9,180.2,1.5,7.0,25.02,34.51,1.9222,377.5239],
    [18700,1532812528,57.0013,-111.8199,908.5,537.5,181.8,3.0,6.8,24.47,34.85,1.9213,379.0413],
    [18701,1532812529,57.0008,-111.8199,906.9,535.9,181.7,2.6,6.4,24.4,35.3,1.9163,377.5651],
    [18702,1532812530,57.0002,-111.8199,905.7,534.6,181.9,2.9,6.7,24.94,35.83,1.9165,378.5524],
    [18703,1532812531,56.9996,-111.8198,904.7,533.6,182.7,3.4,7.0,25.19,35.58,1.9164,378.5524],
    [18704,1532812532,56.9991,-111.8198,903.9,532.3,182.2,2.6,6.9,25.4,35.59,1.9181,378.1104],
    [18705,1532812533,56.9985,-111.8199,902.8,530.9,183.1,3.4,6.4,24.93,36.07,1.9198,377.3446],
    [18706,1532812534,56.998,-111.8199,901.0,529.1,183.8,3.8,6.6,25.53,35.52,1.9196,377.7638],
    [18707,1532812535,56.9974,-111.8199,898.9,526.9,184.1,4.0,6.0,24.9,36.37,1.9175,377.8454],
    [18708,1532812536,56.9968,-111.8199,896.7,524.7,184.4,4.3,5.2,25.21,35.77,1.915,378.6249],
    [18709,1532812537,56.9963,-111.8199,895.0,522.9,183.9,4.0,4.5,25.51,35.39,1.9153,377.4666],
    [18710,1532812538,56.9957,-111.8199,894.0,522.0,183.6,3.7,3.7,24.96,36.24,1.9159,378.3242],
    [18711,1532812539,56.9951,-111.8199,892.5,520.5,183.2,3.7,4.8,25.16,35.58,1.9167,377.0296],
    [18712,1532812540,56.9945,-111.8199,891.3,519.3,182.8,3.5,6.1,25.06,35.13,1.9178,377.4528],
    [18713,1532812541,56.9939,-111.8199,889.3,517.3,183.6,4.7,5.9,25.74,34.85,1.9175,378.7992],
    [18714,1532812542,56.9934,-111.8199,887.1,515.1,184.1,4.9,5.2,24.9,35.26,1.9187,377.7742],
    [18715,1532812543,56.9928,-111.8199,885.8,513.8,184.5,5.1,4.2,24.79,34.78,1.9177,377.2597],
    [18716,1532812544,56.9922,-111.8199,886.0,514.0,185.2,5.3,2.5,24.87,34.66,1.9173,378.3005],
    [18717,1532812545,56.9916,-111.82,888.1,516.6,183.6,3.2,2.3,25.13,35.51,1.9186,378.5687],
    [18718,1532812546,56.991,-111.82,890.7,519.7,182.2,2.2,2.4,24.98,34.67,1.919,378.5483],
    [18719,1532812547,56.9904,-111.82,892.2,521.2,183.3,3.1,3.1,24.81,34.91,1.9179,377.881],
    [18720,1532812548,56.9898,-111.82,894.3,523.3,182.3,1.7,3.5,24.93,35.5,1.9182,378.1851],
    [18721,1532812549,56.9892,-111.82,897.8,526.8,182.3,1.8,3.7,25.57,34.33,1.9166,377.6619],
    [18722,1532812550,56.9886,-111.82,900.7,529.7,183.0,2.4,3.7,24.97,35.59,1.9164,378.2534],
    [18723,1532812551,56.988,-111.8201,903.0,532.0,182.9,2.1,3.2,24.64,34.75,1.9182,378.4766],
    [18724,1532812552,56.9874,-111.8201,906.1,535.1,183.5,2.6,2.4,24.9,35.31,1.9182,378.4798],
    [18725,1532812553,56.9868,-111.8201,909.4,538.1,183.7,3.1,3.0,25.59,33.69,1.9179,379.2324],
    [18726,1532812554,56.9862,-111.8201,912.5,540.5,184.6,4.1,3.0,25.8,33.95,1.9182,379.7566],
    [18727,1532812555,56.9856,-111.8202,915.3,543.3,184.4,3.9,2.4,25.05,34.63,1.9184,378.3225],
    [18728,1532812556,56.985,-111.8202,917.6,545.6,184.8,4.3,1.7,25.62,33.94,1.9155,378.2742],
    [18729,1532812557,56.9844,-111.8202,918.6,546.6,185.0,4.2,1.5,24.61,35.08,1.9165,378.366],
    [18730,1532812558,56.9839,-111.8202,919.1,547.1,184.1,3.0,1.0,24.78,34.59,1.9174,379.1855],
    [18731,1532812559,56.9833,-111.8203,918.1,545.4,184.6,3.2,0.8,24.59,34.57,1.9167,379.5188],
    [18732,1532812560,56.9827,-111.8203,916.6,543.6,183.9,2.3,1.0,25.52,33.7,1.9172,378.5053],
    [18733,1532812561,56.9821,-111.8203,915.5,542.5,183.5,1.8,0.2,25.09,34.37,1.9185,378.4508],
    [18734,1532812562,56.9815,-111.8204,914.2,541.2,183.1,1.5,-0.3,24.8,34.49,1.9186,379.4167],
    [18735,1532812563,56.9809,-111.8204,913.2,539.9,183.5,2.1,-0.6,24.57,34.77,1.9188,379.1805],
    [18736,1532812564,56.9803,-111.8204,911.6,537.6,185.2,4.0,-1.3,24.81,35.73,1.9198,378.1314],
    [18737,1532812565,56.9796,-111.8205,911.8,537.8,184.0,2.6,-1.6,24.54,35.38,1.9202,378.0076],
    [18738,1532812566,56.979,-111.8205,913.3,538.3,181.9,0.7,-1.6,24.68,35.54,1.9201,376.8914],
    [18739,1532812567,56.9784,-111.8205,915.2,540.2,182.9,2.1,-1.3,25.02,35.73,1.9201,379.4208],
    [18740,1532812568,56.9778,-111.8205,917.6,542.6,182.7,1.9,-2.3,24.77,36.78,1.9206,377.1832],
    [18741,1532812569,56.9772,-111.8206,920.2,544.2,181.9,1.3,-3.0,24.54,36.99,1.9195,376.772],
    [18742,1532812570,56.9766,-111.8206,922.5,546.5,183.9,3.6,-2.4,24.71,36.84,1.9187,378.278],
    [18743,1532812571,56.976,-111.8206,922.7,545.7,185.0,4.7,-1.1,24.84,36.74,1.9175,378.2651],
    [18744,1532812572,56.9753,-111.8206,922.9,545.9,184.4,4.2,-0.2,24.18,36.88,1.9163,378.797],
    [18745,1532812573,56.9747,-111.8206,924.3,546.6,184.4,4.3,-0.3,24.38,36.58,1.9166,377.7344],
    [18746,1532812574,56.9741,-111.8206,926.0,548.0,182.7,2.5,-0.4,25.02,35.75,1.9171,378.3746],
    [18747,1532812575,56.9735,-111.8207,926.6,548.3,182.3,2.5,-0.7,24.7,35.51,1.9174,377.6016],
    [18748,1532812576,56.9729,-111.8207,927.0,548.0,182.5,2.6,-1.0,24.3,35.53,1.9181,378.1056],
    [18749,1532812577,56.9723,-111.8207,927.1,547.1,182.7,2.5,-0.6,24.94,34.66,1.9183,378.0931],
    [18750,1532812578,56.9716,-111.8207,926.6,545.6,182.9,2.2,-0.7,24.44,35.09,1.9175,378.9595],
    [18751,1532812579,56.971,-111.8207,926.0,543.9,183.0,2.1,-1.1,24.64,35.9,1.9171,378.9595],
    [18752,1532812580,56.9704,-111.8207,924.6,542.6,183.9,2.8,-1.4,24.77,34.91,1.9181,378.3244],
    [18753,1532812581,56.9698,-111.8208,924.0,541.0,184.4,3.3,-1.5,24.63,35.24,1.9188,378.454],
    [18754,1532812582,56.9692,-111.8208,925.0,540.9,184.4,3.4,-0.9,24.7,35.16,1.9161,378.8776],
    [18755,1532812583,56.9686,-111.8208,925.9,540.9,185.2,4.4,-0.2,24.76,35.05,1.9162,378.2726],
    [18756,1532812584,56.968,-111.8208,926.2,540.2,185.4,5.0,0.4,24.91,34.63,1.9177,378.9338],
    [18757,1532812585,56.9673,-111.8209,926.4,538.7,185.5,5.3,0.9,24.38,34.88,1.9184,378.8756],
    [18758,1532812586,56.9667,-111.8209,926.6,537.5,185.2,5.1,0.7,24.37,34.61,1.9168,378.6751],
    [18759,1532812587,56.9661,-111.8209,927.2,537.2,184.6,4.4,0.5,24.09,34.67,1.9157,380.0652],
    [18760,1532812588,56.9655,-111.8209,927.7,535.7,183.3,3.1,0.6,24.46,35.43,1.9165,379.2659],
    [18761,1532812589,56.9649,-111.8209,928.2,535.3,182.6,3.0,0.8,24.33,34.18,1.9177,378.4996],
    [18762,1532812590,56.9643,-111.8209,928.5,534.2,182.6,3.2,1.2,24.63,34.55,1.9182,378.2133],
    [18763,1532812591,56.9637,-111.8209,928.5,532.8,181.4,1.7,1.6,24.57,33.82,1.9195,378.2133],
    [18764,1532812592,56.9631,-111.8209,928.3,531.6,182.1,2.4,1.1,23.95,34.1,1.9162,378.4954],
    [18765,1532812593,56.9625,-111.8209,928.0,530.8,183.8,3.8,0.0,24.53,34.41,1.9139,378.7269],
    [18766,1532812594,56.9619,-111.8209,927.7,528.7,183.4,3.0,0.1,24.86,34.0,1.9136,379.4199],
    [18767,1532812595,56.9613,-111.821,928.1,528.1,182.5,2.1,0.5,24.56,34.02,1.9121,378.8613],
    [18768,1532812596,56.9607,-111.821,928.9,527.9,182.9,2.4,0.8,24.32,34.13,1.9142,378.7632],
    [18769,1532812597,56.9601,-111.821,929.9,528.1,182.4,1.7,1.3,24.14,34.24,1.9124,377.9438],
    [18770,1532812598,56.9595,-111.821,931.9,529.9,181.9,1.1,1.7,24.8,33.62,1.9131,378.8762],
    [18771,1532812599,56.9589,-111.821,933.5,530.5,183.0,2.1,2.3,24.58,33.69,1.9118,377.6967],
    [18772,1532812600,56.9584,-111.8211,934.9,531.9,182.1,0.9,2.0,24.6,33.75,1.9125,378.6114],
    [18773,1532812601,56.9578,-111.8211,935.8,532.8,181.9,1.0,1.5,24.53,33.18,1.915,379.1523],
    [18774,1532812602,56.9572,-111.8211,936.5,533.5,182.7,1.8,1.6,24.58,33.46,1.9161,378.6057],
    [18775,1532812603,56.9566,-111.8211,937.4,533.4,182.9,1.9,0.8,24.92,33.17,1.9175,378.8813],
    [18776,1532812604,56.956,-111.8212,937.3,533.3,182.9,1.7,-0.4,24.59,33.6,1.9185,378.1948],
    [18777,1532812605,56.9554,-111.8212,936.4,532.4,183.2,1.8,-0.2,24.4,33.61,1.9186,378.243],
    [18778,1532812606,56.9548,-111.8212,935.8,531.8,182.4,1.2,-0.5,24.17,34.14,1.9187,378.957],
    [18779,1532812607,56.9542,-111.8212,935.5,530.5,182.6,2.1,-1.2,24.59,34.38,1.919,379.4772],
    [18780,1532812608,56.9536,-111.8212,935.0,530.0,181.9,1.9,-1.4,25.36,34.1,1.9192,378.471],
    [18781,1532812609,56.953,-111.8212,934.9,529.9,180.8,1.5,-1.0,25.09,34.43,1.9192,378.1203],
    [18782,1532812610,56.9524,-111.8212,935.1,529.1,181.4,2.5,-1.0,24.54,35.21,1.9192,379.3724],
    [18783,1532812611,56.9518,-111.8212,935.6,529.6,180.2,1.4,-0.7,25.14,34.95,1.9191,377.6097],
    [18784,1532812612,56.9513,-111.8212,936.0,530.0,180.1,1.6,-0.7,24.27,35.46,1.9187,378.1915],
    [18785,1532812613,56.9507,-111.8212,936.0,530.0,180.5,1.9,-0.9,24.41,35.89,1.9191,376.8193],
    [18786,1532812614,56.9501,-111.8211,935.8,528.8,180.0,1.0,-2.0,24.76,35.84,1.9165,378.1532],
    [18787,1532812615,56.9495,-111.8211,935.5,528.5,180.5,1.3,-1.5,24.91,35.96,1.9136,377.6018],
    [18788,1532812616,56.9489,-111.8211,935.0,528.0,181.3,1.4,-1.2,24.56,36.36,1.9142,378.244],
    [18789,1532812617,56.9483,-111.8211,934.8,527.8,180.3,0.0,-1.3,24.37,35.82,1.9164,378.8624],
    [18790,1532812618,56.9477,-111.8211,934.9,526.9,180.3,-0.1,-1.4,24.57,35.43,1.9183,378.9864],
    [18791,1532812619,56.9472,-111.8211,935.4,527.4,180.9,0.2,-1.5,24.6,35.32,1.9181,377.9066],
    [18792,1532812620,56.9466,-111.8212,936.2,527.5,180.9,-0.1,-0.1,24.92,34.49,1.9195,377.627],
    [18793,1532812621,56.946,-111.8212,937.0,528.0,181.0,0.0,1.5,24.16,35.2,1.9199,377.8139],
    [18794,1532812622,56.9454,-111.8212,937.7,528.7,181.7,0.7,2.2,23.82,35.83,1.9207,377.8139],
    [18795,1532812623,56.9448,-111.8212,938.2,528.2,181.3,0.4,2.9,24.49,36.93,1.921,377.6148],
    [18796,1532812624,56.9443,-111.8212,938.5,528.5,181.2,0.6,3.0,24.69,36.01,1.9201,377.9469],
    [18797,1532812625,56.9437,-111.8212,938.0,528.0,180.7,0.7,2.1,24.33,36.61,1.9209,376.2962],
    [18798,1532812626,56.9431,-111.8212,937.6,526.6,180.2,1.6,1.9,24.87,36.34,1.9196,378.1753],
    [18799,1532812627,56.9425,-111.8212,936.9,525.9,180.7,2.9,1.9,25.3,36.19,1.9199,378.4918],
    [18800,1532812628,56.9419,-111.8212,935.7,523.7,179.7,2.1,1.4,24.6,37.01,1.9199,377.5493],
    [18801,1532812629,56.9414,-111.8211,934.6,522.6,179.9,2.5,2.2,24.54,36.8,1.9199,377.7154],
    [18802,1532812630,56.9408,-111.8211,933.6,520.6,179.9,2.4,3.2,25.07,36.37,1.9207,377.4168],
    [18803,1532812631,56.9402,-111.821,932.6,519.5,179.2,1.8,3.4,24.44,37.78,1.9206,377.4168],
    [18804,1532812632,56.9396,-111.821,932.3,518.3,179.6,2.6,4.4,24.13,36.85,1.9198,377.7247],
    [18805,1532812633,56.939,-111.8209,931.9,517.9,180.4,3.7,4.6,24.9,36.76,1.9194,377.1092],
    [18806,1532812634,56.9385,-111.8209,932.3,518.3,180.6,4.5,4.5,24.12,37.09,1.9199,378.5313],
    [18807,1532812635,56.9379,-111.8208,932.5,517.5,178.5,4.3,4.8,25.2,36.48,1.9202,377.3605],
    [18808,1532812636,56.9373,-111.8207,931.5,515.6,176.1,5.1,5.3,24.31,37.63,1.9184,378.4206],
    [18809,1532812637,56.9367,-111.8205,929.8,512.7,170.4,2.7,5.1,23.95,37.11,1.9187,375.989],
    [18810,1532812638,56.9362,-111.8202,928.4,510.4,162.5,-0.3,4.8,24.5,37.02,1.9203,376.1776],
    [18811,1532812639,56.9356,-111.8198,928.8,511.0,156.6,-1.2,4.6,24.66,37.39,1.9206,377.0945],
    [18812,1532812640,56.9351,-111.8193,929.1,510.2,151.5,-1.8,4.1,24.64,36.64,1.9194,376.6238],
    [18813,1532812641,56.9346,-111.8188,929.1,509.1,146.4,-2.6,3.8,24.42,36.87,1.9216,376.7238],
    [18814,1532812642,56.9342,-111.8182,929.1,508.1,141.6,-2.1,2.9,24.69,37.06,1.9222,377.4548],
    [18815,1532812643,56.9337,-111.8175,929.1,508.1,137.2,-2.5,2.5,24.48,37.94,1.9202,377.3683],
    [18816,1532812644,56.9333,-111.8167,929.7,507.7,133.8,-3.2,3.0,24.37,37.55,1.9212,376.588],
    [18817,1532812645,56.9329,-111.8159,931.6,509.6,131.4,-3.3,3.5,24.52,37.25,1.9197,377.2532],
    [18818,1532812646,56.9326,-111.8151,933.9,511.9,129.2,-3.9,4.1,24.87,36.69,1.9198,376.9881],
    [18819,1532812647,56.9322,-111.8143,936.1,514.1,127.7,-3.3,5.3,24.56,37.75,1.9196,376.3016],
    [18820,1532812648,56.9319,-111.8134,938.3,516.3,124.3,-3.7,4.3,24.61,37.54,1.9199,378.1092],
    [18821,1532812649,56.9316,-111.8125,940.1,518.1,120.3,-3.9,2.8,24.47,37.71,1.9196,377.7796],
    [18822,1532812650,56.9313,-111.8116,940.3,519.3,121.0,-1.6,5.0,24.11,37.42,1.9201,377.2119],
    [18823,1532812651,56.9311,-111.8107,939.4,518.4,119.4,-1.4,5.3,25.22,37.03,1.9205,376.399],
    [18824,1532812652,56.9308,-111.8097,938.5,518.5,116.1,-1.6,4.6,24.64,37.09,1.9191,377.987],
    [18825,1532812653,56.9306,-111.8087,937.5,517.5,114.6,-0.6,5.2,24.6,37.35,1.9202,377.8847],
    [18826,1532812654,56.9304,-111.8077,936.4,517.4,110.6,-0.2,3.0,24.8,37.02,1.9201,377.8595],
    [18827,1532812655,56.9302,-111.8067,935.0,516.0,106.1,-0.7,1.5,25.09,36.92,1.9206,376.986],
    [18828,1532812656,56.9301,-111.8056,933.8,515.3,104.1,-1.1,2.9,24.58,37.55,1.9209,377.0773],
    [18829,1532812657,56.93,-111.8045,933.3,515.3,101.2,-1.0,2.8,24.17,37.06,1.9189,377.7243],
    [18830,1532812658,56.9299,-111.8034,933.4,515.4,97.5,-1.1,1.3,25.3,36.53,1.9185,378.0987],
    [18831,1532812659,56.9298,-111.8023,932.9,514.9,97.1,-1.1,2.3,24.54,36.67,1.9195,376.654],
    [18832,1532812660,56.9298,-111.8012,931.8,513.8,95.2,-1.3,0.7,24.65,36.73,1.9212,375.7484],
    [18833,1532812661,56.9297,-111.8001,930.9,513.9,92.2,-1.0,-1.6,24.45,36.93,1.9194,377.3475],
    [18834,1532812662,56.9297,-111.799,930.2,514.2,93.4,-1.1,0.3,24.57,37.64,1.9189,377.1266],
    [18835,1532812663,56.9297,-111.7978,930.0,514.0,94.3,-1.0,1.2,24.55,37.57,1.9187,377.5673],
    [18836,1532812664,56.9296,-111.7967,930.0,515.0,93.1,-0.9,0.6,24.92,37.35,1.9185,377.5122],
    [18837,1532812665,56.9296,-111.7956,930.4,516.4,94.8,-0.4,3.1,24.14,37.64,1.919,375.9262],
    [18838,1532812666,56.9296,-111.7944,930.9,516.9,93.7,-0.2,2.7,24.53,37.23,1.9196,377.5916],
    [18839,1532812667,56.9296,-111.7933,933.1,520.1,91.8,-0.5,1.6,24.39,37.18,1.9204,377.1333],
    [18840,1532812668,56.9296,-111.7921,935.5,522.5,90.4,-0.4,1.4,24.56,37.05,1.9203,376.6853],
    [18841,1532812669,56.9296,-111.791,937.5,525.5,91.2,-0.3,2.5,24.71,36.77,1.9182,377.1779],
    [18842,1532812670,56.9296,-111.7899,938.6,527.3,90.5,0.5,1.3,24.17,37.45,1.9192,377.1779],
    [18843,1532812671,56.9296,-111.7887,937.8,526.8,92.1,0.9,2.9,24.33,37.97,1.9189,378.797],
    [18844,1532812672,56.9296,-111.7876,936.0,525.0,92.7,1.0,3.3,23.61,37.14,1.9183,378.321],
    [18845,1532812673,56.9296,-111.7864,936.1,525.1,91.8,1.1,2.2,24.9,35.92,1.9192,378.4241],
    [18846,1532812674,56.9296,-111.7853,936.2,526.2,92.1,1.1,2.4,23.86,36.43,1.9199,378.7907],
    [18847,1532812675,56.9296,-111.7841,936.1,526.1,93.3,1.7,3.5,24.54,36.0,1.9204,377.9854],
    [18848,1532812676,56.9296,-111.783,935.4,525.4,93.3,1.9,2.7,24.49,36.57,1.9197,377.5264],
    [18849,1532812677,56.9296,-111.7818,935.5,525.5,92.4,1.9,1.6,24.3,36.74,1.9202,377.5855],
    [18850,1532812678,56.9296,-111.7807,935.9,525.9,91.5,1.6,1.1,24.58,36.15,1.9194,377.8471],
    [18851,1532812679,56.9296,-111.7795,936.3,526.3,92.8,1.2,2.9,24.38,36.54,1.9193,378.6999],
    [18852,1532812680,56.9296,-111.7783,937.9,527.9,91.7,1.2,1.7,23.71,36.32,1.9192,377.2293],
    [18853,1532812681,56.9296,-111.7772,940.2,530.2,91.6,1.3,2.1,24.57,36.62,1.9183,378.5989],
    [18854,1532812682,56.9296,-111.776,942.3,532.3,91.9,1.2,2.8,24.38,36.53,1.918,378.053],
    [18855,1532812683,56.9296,-111.7748,944.2,534.1,89.8,0.8,0.4,24.33,36.52,1.9198,377.9973],
    [18856,1532812684,56.9296,-111.7737,947.4,538.4,88.3,0.0,-0.9,24.62,36.25,1.9173,377.4227],
    [18857,1532812685,56.9296,-111.7725,951.2,542.2,88.3,-0.6,-0.6,25.11,36.14,1.9175,377.1542],
    [18858,1532812686,56.9296,-111.7714,954.5,546.5,88.6,-1.0,0.0,24.45,36.99,1.9165,377.4588],
    [18859,1532812687,56.9296,-111.7702,957.3,549.3,88.3,-0.7,-0.3,24.38,37.27,1.9193,376.5712],
    [18860,1532812688,56.9297,-111.7691,960.0,552.0,88.8,-0.7,0.5,24.26,37.52,1.9194,378.7372],
    [18861,1532812689,56.9297,-111.7679,961.0,554.0,90.0,-0.7,1.4,23.95,36.98,1.9194,378.009],
    [18862,1532812690,56.9297,-111.7668,960.9,553.9,89.0,-0.3,0.1,24.39,37.31,1.919,378.7219],
    [18863,1532812691,56.9297,-111.7656,961.0,554.0,89.8,-0.9,1.0,24.53,36.58,1.9196,377.0453],
    [18864,1532812692,56.9297,-111.7645,961.5,555.5,88.8,-1.6,-0.1,24.04,36.39,1.9215,377.845],
    [18865,1532812693,56.9297,-111.7634,962.1,556.1,88.2,-1.6,-0.3,24.73,35.63,1.9205,377.5315],
    [18866,1532812694,56.9297,-111.7622,962.2,557.3,88.5,-1.7,-0.2,25.04,35.55,1.92,377.8538],
    [18867,1532812695,56.9297,-111.7611,962.2,557.2,88.3,-2.2,-0.5,25.11,35.5,1.9207,378.2322],
    [18868,1532812696,56.9298,-111.7599,961.6,556.8,89.6,-2.0,0.7,24.99,35.44,1.9194,378.2322],
    [18869,1532812697,56.9298,-111.7588,960.1,556.1,89.3,-1.6,0.2,24.43,36.66,1.9188,379.8338],
    [18870,1532812698,56.9298,-111.7576,958.9,555.2,90.5,-1.9,1.8,24.16,36.05,1.92,379.8338],
    [18871,1532812699,56.9298,-111.7564,958.5,555.5,91.0,-2.9,2.1,24.72,35.68,1.9192,377.8993],
    [18872,1532812700,56.9298,-111.7553,958.5,556.5,89.9,-3.1,0.9,24.81,35.96,1.9193,378.0305],
    [18873,1532812701,56.9298,-111.7541,958.9,558.9,89.4,-2.2,0.5,24.4,36.68,1.9188,378.1803],
    [18874,1532812702,56.9298,-111.7529,959.2,561.3,89.3,-1.6,0.6,24.38,36.09,1.9189,379.1405],
    [18875,1532812703,56.9298,-111.7518,958.9,563.0,89.1,-1.5,0.6,24.8,35.7,1.9203,378.9426],
    [18876,1532812704,56.9299,-111.7506,958.3,563.3,89.1,-1.4,1.0,25.05,35.11,1.9207,378.059],
    [18877,1532812705,56.9299,-111.7494,957.4,564.6,89.6,-1.2,2.1,24.06,36.16,1.9207,378.3145],
    [18878,1532812706,56.9299,-111.7483,955.7,563.6,89.2,-0.8,2.1,25.05,34.86,1.92,378.4231],
    [18879,1532812707,56.9299,-111.7471,953.5,563.5,88.3,-0.9,1.7,24.76,35.16,1.9214,378.5414],
    [18880,1532812708,56.93,-111.7459,951.4,562.4,87.6,0.1,1.3,25.02,34.85,1.919,377.2747],
    [18881,1532812709,56.93,-111.7448,949.6,561.3,87.6,1.3,1.6,25.02,35.29,1.9206,378.7883],
    [18882,1532812710,56.93,-111.7436,948.7,560.7,88.1,1.7,1.8,24.49,36.11,1.921,378.7883],
    [18883,1532812711,56.9301,-111.7424,948.3,560.3,87.9,1.8,1.4,24.74,35.72,1.9188,377.6277],
    [18884,1532812712,56.9301,-111.7412,947.7,559.7,88.3,2.2,1.3,23.78,36.0,1.9191,378.0794],
    [18885,1532812713,56.9301,-111.7401,947.4,559.4,88.6,2.0,1.1,24.4,36.05,1.9173,378.7591],
    [18886,1532812714,56.9302,-111.7389,946.9,558.9,89.2,1.9,1.3,24.78,35.6,1.9164,379.1111],
    [18887,1532812715,56.9302,-111.7377,946.3,558.3,89.6,2.4,1.4,24.77,35.7,1.9172,379.6225],
    [18888,1532812716,56.9302,-111.7366,945.6,557.6,90.6,3.0,2.2,25.31,35.26,1.9178,378.0953],
    [18889,1532812717,56.9302,-111.7354,944.8,556.8,90.4,3.4,1.8,24.69,35.88,1.9181,377.7521],
    [18890,1532812718,56.9302,-111.7342,944.6,556.6,89.6,4.0,1.2,24.52,36.05,1.9205,378.6337],
    [18891,1532812719,56.9302,-111.733,944.1,556.1,89.9,4.1,1.6,24.19,35.75,1.9187,378.1409],
    [18892,1532812720,56.9303,-111.7318,943.3,555.3,89.2,3.6,0.9,24.61,36.56,1.9198,377.7583],
    [18893,1532812721,56.9303,-111.7307,942.4,555.1,90.0,3.2,1.8,25.5,35.39,1.9193,378.6414],
    [18894,1532812722,56.9303,-111.7295,940.8,553.8,90.7,3.6,2.4,24.21,36.08,1.9185,377.9655],
    [18895,1532812723,56.9303,-111.7283,938.2,552.2,90.2,4.0,1.7,24.12,36.19,1.918,378.1999],
    [18896,1532812724,56.9303,-111.7271,934.7,548.7,90.1,3.8,1.7,24.7,36.38,1.9165,378.1999],
    [18897,1532812725,56.9303,-111.7259,930.8,545.8,90.3,4.2,1.8,25.17,35.63,1.9164,378.149],
    [18898,1532812726,56.9303,-111.7247,926.7,541.7,89.5,4.8,0.7,24.66,37.05,1.9162,377.4163],
    [18899,1532812727,56.9303,-111.7235,923.1,538.1,90.3,5.4,1.1,23.94,36.72,1.9162,378.0156],
    [18900,1532812728,56.9304,-111.7223,919.7,535.7,91.4,6.3,1.6,24.49,36.67,1.9172,377.6782],
    [18901,1532812729,56.9304,-111.7211,916.8,532.8,92.1,6.7,1.9,24.33,36.96,1.9163,377.6633],
    [18902,1532812730,56.9303,-111.7199,914.0,530.0,92.5,6.1,2.0,23.94,36.46,1.9159,377.868],
    [18903,1532812731,56.9303,-111.7186,911.1,527.1,92.5,5.3,1.9,24.49,36.3,1.9173,379.1137],
    [18904,1532812732,56.9303,-111.7174,908.1,524.1,92.9,5.6,2.2,24.49,36.36,1.9174,377.352],
    [18905,1532812733,56.9303,-111.7162,905.5,522.5,92.5,6.2,1.8,24.81,35.93,1.916,378.2856],
    [18906,1532812734,56.9303,-111.715,903.5,520.5,91.8,6.1,1.4,24.56,36.71,1.917,377.8043],
    [18907,1532812735,56.9303,-111.7138,902.0,519.0,92.3,5.5,2.0,25.22,35.75,1.9164,377.748],
    [18908,1532812736,56.9303,-111.7125,900.9,517.9,91.6,3.8,1.6,24.79,36.18,1.9165,378.216],
    [18909,1532812737,56.9303,-111.7114,900.2,518.2,91.5,2.9,1.9,25.06,36.01,1.9171,377.1401],
    [18910,1532812738,56.9303,-111.7101,899.5,517.5,90.8,2.6,1.6,23.92,36.59,1.9148,377.1401],
    [18911,1532812739,56.9303,-111.7089,899.3,517.3,90.7,1.9,1.9,24.14,36.51,1.9157,377.9536],
    [18912,1532812740,56.9303,-111.7077,899.8,518.8,91.0,1.5,2.5,24.02,36.58,1.9164,376.826],
    [18913,1532812741,56.9303,-111.7065,900.3,519.3,91.0,1.3,2.5,24.24,36.58,1.9162,377.4521],
    [18914,1532812742,56.9303,-111.7053,900.5,520.5,91.3,1.0,2.6,24.57,37.13,1.9157,377.5064],
    [18915,1532812743,56.9303,-111.7041,900.6,520.6,91.9,1.1,2.9,24.42,36.78,1.9153,376.9779],
    [18916,1532812744,56.9303,-111.7029,901.0,522.0,90.8,1.1,1.2,24.54,36.58,1.9169,376.9779],
    [18917,1532812745,56.9303,-111.7017,901.4,522.4,91.0,1.2,1.4,24.91,36.34,1.9147,377.4691],
    [18918,1532812746,56.9303,-111.7005,901.3,523.3,92.0,0.7,2.5,24.09,36.51,1.9171,377.4691],
    [18919,1532812747,56.9303,-111.6993,901.8,524.9,90.7,0.3,1.0,24.01,36.24,1.9176,378.36],
    [18920,1532812748,56.9303,-111.6982,903.0,526.0,90.2,-0.1,0.4,24.41,37.04,1.915,377.1736],
    [18921,1532812749,56.9303,-111.697,903.8,527.8,91.1,-0.6,1.2,24.85,35.66,1.9163,379.1424],
    [18922,1532812750,56.9303,-111.6958,904.6,529.6,90.7,-1.6,0.3,24.38,35.95,1.9173,377.0306],
    [18923,1532812751,56.9303,-111.6946,904.9,530.9,90.5,-2.1,-0.1,24.45,35.77,1.9167,378.3852],
    [18924,1532812752,56.9303,-111.6935,905.5,532.6,91.8,-2.3,1.2,24.59,36.14,1.9173,378.9255],
    [18925,1532812753,56.9303,-111.6923,905.9,532.9,93.1,-2.5,2.5,24.55,36.0,1.9178,378.3711],
    [18926,1532812754,56.9303,-111.6911,905.8,533.8,93.0,-3.0,2.2,24.27,35.91,1.917,379.3721],
    [18927,1532812755,56.9303,-111.69,905.8,534.5,92.4,-2.8,1.4,24.95,35.58,1.9164,378.5846],
    [18928,1532812756,56.9303,-111.6888,906.0,535.0,92.7,-2.7,1.9,24.58,35.91,1.9171,377.8565],
    [18929,1532812757,56.9303,-111.6877,906.3,536.1,93.2,-2.5,2.2,24.52,36.09,1.9169,377.8565],
    [18930,1532812758,56.9302,-111.6865,907.2,537.2,93.0,-2.1,1.9,25.03,35.49,1.9175,377.347],
    [18931,1532812759,56.9302,-111.6853,908.1,539.1,93.0,-1.6,2.1,24.37,35.7,1.9174,377.883],
    [18932,1532812760,56.9302,-111.6842,909.3,541.1,92.5,-1.8,1.8,24.81,35.34,1.9164,378.1247],
    [18933,1532812761,56.9302,-111.683,910.7,543.7,91.7,-2.0,1.1,24.66,35.58,1.9161,378.2664],
    [18934,1532812762,56.9302,-111.6819,911.2,545.0,91.4,-1.7,1.0,24.54,35.64,1.9176,378.2664],
    [18935,1532812763,56.9302,-111.6807,911.0,546.0,90.8,-1.3,0.6,24.23,35.63,1.9179,377.6756],
    [18936,1532812764,56.9302,-111.6796,910.6,546.6,91.3,-1.1,1.5,25.12,35.41,1.917,378.2963],
    [18937,1532812765,56.9302,-111.6784,910.1,547.1,91.1,-0.6,1.1,24.61,36.74,1.9171,377.8725],
    [18938,1532812766,56.9302,-111.6772,909.9,547.9,89.5,0.2,-0.3,24.7,36.36,1.9172,376.4237],
    [18939,1532812767,56.9302,-111.6761,909.0,548.9,90.4,0.9,0.9,24.26,35.63,1.9161,379.2076],
    [18940,1532812768,56.9302,-111.6749,908.2,549.2,89.8,1.1,0.0,24.31,35.65,1.9171,379.0062],
    [18941,1532812769,56.9302,-111.6737,907.0,549.0,88.8,1.4,-0.7,24.69,35.6,1.9178,378.316],
    [18942,1532812770,56.9302,-111.6725,905.9,548.9,89.2,1.6,0.0,24.93,35.4,1.918,378.3509],
    [18943,1532812771,56.9302,-111.6714,904.5,547.5,88.3,1.5,-0.6,24.8,35.58,1.917,377.8066],
    [18944,1532812772,56.9302,-111.6702,903.3,547.1,88.7,1.7,0.1,24.86,35.55,1.9172,378.8423],
    [18945,1532812773,56.9302,-111.669,902.3,546.3,88.5,2.1,-0.3,24.53,35.58,1.9171,378.0029],
    [18946,1532812774,56.9303,-111.6678,901.6,546.6,88.0,2.4,-0.5,24.54,35.69,1.9161,377.2477],
    [18947,1532812775,56.9303,-111.6666,900.8,546.8,89.3,2.2,0.8,24.41,35.67,1.9166,377.4813],
    [18948,1532812776,56.9303,-111.6654,899.8,545.8,89.9,2.3,0.9,25.15,35.27,1.917,377.4813],
    [18949,1532812777,56.9303,-111.6642,899.2,545.2,90.4,2.5,0.7,24.39,35.51,1.9178,378.3033],
    [18950,1532812778,56.9303,-111.663,899.1,545.1,90.4,2.7,0.3,24.69,35.6,1.9166,378.2943],
    [18951,1532812779,56.9303,-111.6617,899.2,546.2,91.4,2.3,1.1,25.1,34.81,1.9173,378.1697],
    [18952,1532812780,56.9303,-111.6605,898.2,545.2,90.7,2.2,0.1,24.39,35.82,1.9168,378.4102],
    [18953,1532812781,56.9303,-111.6593,896.0,544.0,89.5,2.4,-1.0,24.03,35.67,1.9165,378.4239],
    [18954,1532812782,56.9303,-111.6581,893.4,541.4,89.4,2.2,-0.5,24.62,35.43,1.9179,378.6613],
    [18955,1532812783,56.9303,-111.6569,891.0,539.0,89.3,3.1,-0.4,25.51,34.67,1.917,379.3903],
    [18956,1532812784,56.9303,-111.6556,888.4,537.4,88.7,3.3,-0.7,24.78,35.3,1.9162,376.8605],
    [18957,1532812785,56.9303,-111.6544,885.8,534.8,89.2,2.6,0.1,24.83,35.62,1.9155,377.7896],
    [18958,1532812786,56.9303,-111.6532,883.4,533.1,88.8,3.3,0.0,24.91,35.29,1.9165,379.2196],
    [18959,1532812787,56.9303,-111.6519,881.1,531.1,88.9,4.5,0.4,24.17,35.52,1.9163,377.1287],
    [18960,1532812788,56.9303,-111.6507,878.6,528.6,89.2,4.7,0.5,25.03,35.09,1.9165,378.2785],
    [18961,1532812789,56.9303,-111.6494,876.3,526.3,89.7,5.5,0.8,25.57,35.16,1.9155,379.0537],
    [18962,1532812790,56.9303,-111.6482,874.1,524.1,90.4,5.5,1.3,24.57,35.55,1.9156,377.0222],
    [18963,1532812791,56.9304,-111.6469,872.4,523.4,90.9,5.1,1.5,24.85,35.33,1.9164,377.9108],
    [18964,1532812792,56.9304,-111.6457,871.4,522.4,91.0,5.3,1.4,24.8,35.54,1.9153,378.6532],
    [18965,1532812793,56.9304,-111.6444,871.3,523.3,90.6,5.7,1.0,25.27,34.94,1.9154,376.9136],
    [18966,1532812794,56.9304,-111.6432,872.2,525.1,90.1,5.8,0.7,24.88,35.51,1.9162,379.3903],
    [18967,1532812795,56.9304,-111.642,872.9,527.9,90.1,5.5,0.7,24.49,35.41,1.916,377.8069],
    [18968,1532812796,56.9304,-111.6407,873.9,529.9,90.4,5.5,1.1,24.87,35.94,1.9156,378.4379],
    [18969,1532812797,56.9304,-111.6395,875.1,531.1,89.6,5.4,0.2,24.84,35.96,1.9171,376.9896],
    [18970,1532812798,56.9304,-111.6383,876.0,532.0,89.9,5.2,0.5,24.85,36.05,1.9164,376.9896],
    [18971,1532812799,56.9304,-111.637,876.8,532.8,90.3,4.8,1.0,24.64,35.45,1.9163,378.0679],
    [18972,1532812800,56.9304,-111.6358,878.0,535.0,90.0,4.7,0.8,24.79,35.53,1.9168,378.0838],
    [18973,1532812801,56.9304,-111.6346,879.2,536.2,89.7,4.5,0.7,25.69,34.93,1.9153,377.6188],
    [18974,1532812802,56.9304,-111.6334,880.2,537.5,90.0,4.4,1.3,24.72,35.33,1.9167,378.7861],
    [18975,1532812803,56.9304,-111.6322,880.7,538.7,91.0,4.4,2.5,25.12,35.06,1.9166,376.9828],
    [18976,1532812804,56.9304,-111.631,880.6,539.6,90.5,4.0,1.8,25.26,34.97,1.9178,378.0091],
    [18977,1532812805,56.9304,-111.6298,880.2,539.9,90.2,3.3,1.5,24.96,35.5,1.9173,378.2299],
    [18978,1532812806,56.9305,-111.6286,879.3,539.3,91.1,3.0,2.3,24.95,35.83,1.9168,378.0234],
    [18979,1532812807,56.9305,-111.6274,878.0,538.0,90.2,3.7,1.2,25.24,34.98,1.9169,377.8073],
    [18980,1532812808,56.9305,-111.6262,876.8,536.8,89.7,4.5,1.0,24.38,36.06,1.9167,378.1791],
    [18981,1532812809,56.9305,-111.6249,875.5,536.5,90.2,4.4,1.5,24.89,36.25,1.9166,377.4835],
    [18982,1532812810,56.9305,-111.6237,874.1,535.1,89.5,4.3,0.9,24.19,35.32,1.9173,378.0671],
    [18983,1532812811,56.9305,-111.6225,872.3,533.3,90.5,4.2,1.9,24.87,35.78,1.9155,378.7227],
    [18984,1532812812,56.9305,-111.6213,871.0,533.0,90.7,3.9,2.0,24.77,35.38,1.9147,378.7227],
    [18985,1532812813,56.9305,-111.6201,869.3,532.4,90.8,4.5,1.8,24.75,34.92,1.916,379.9474],
    [18986,1532812814,56.9305,-111.6188,867.9,531.9,90.8,5.3,1.5,25.01,35.23,1.9155,379.1712],
    [18987,1532812815,56.9305,-111.6176,867.0,532.0,91.6,5.7,2.1,25.76,34.15,1.9162,378.7135],
    [18988,1532812816,56.9305,-111.6164,865.4,530.4,91.1,6.1,1.2,24.82,35.03,1.9161,378.5687],
    [18989,1532812817,56.9305,-111.6152,863.7,528.7,90.9,6.7,0.8,24.58,34.3,1.9177,378.175],
    [18990,1532812818,56.9305,-111.6139,861.7,527.7,90.8,7.1,0.6,24.87,34.21,1.917,379.4238],
    [18991,1532812819,56.9305,-111.6127,859.8,526.1,90.8,7.5,0.4,24.59,34.54,1.9156,377.8323],
    [18992,1532812820,56.9305,-111.6115,857.9,524.9,89.8,7.3,-0.4,24.62,34.36,1.9151,378.7347],
    [18993,1532812821,56.9305,-111.6102,855.9,522.9,90.2,6.9,0.1,24.63,34.32,1.9158,377.4068],
    [18994,1532812822,56.9305,-111.609,854.3,521.3,90.2,6.7,0.0,24.93,34.5,1.9164,376.9916],
    [18995,1532812823,56.9305,-111.6078,853.2,519.1,90.9,6.3,0.4,24.99,35.16,1.9166,378.4949],
    [18996,1532812824,56.9305,-111.6065,852.9,518.9,91.8,5.6,1.3,24.97,35.72,1.9149,377.7861],
    [18997,1532812825,56.9305,-111.6053,853.8,518.8,90.6,5.4,0.1,25.47,35.28,1.9152,377.7861],
    [18998,1532812826,56.9305,-111.6041,855.4,520.4,90.3,5.2,0.3,24.57,35.77,1.9134,376.9886],
    [18999,1532812827,56.9305,-111.6029,856.9,521.9,90.6,5.0,0.6,24.92,35.69,1.9131,377.5229],
    [19000,1532812828,56.9305,-111.6017,858.0,523.6,90.5,4.0,0.8,25.0,36.6,1.9141,378.783],
    [19001,1532812829,56.9305,-111.6004,858.7,524.7,91.1,3.5,1.3,24.61,36.08,1.915,378.4019],
    [19002,1532812830,56.9305,-111.5992,859.1,526.1,90.6,3.3,0.9,24.97,36.46,1.9137,377.7078],
    [19003,1532812831,56.9305,-111.598,859.5,527.5,90.6,2.6,0.9,25.09,35.76,1.9134,378.0074],
    [19004,1532812832,56.9305,-111.5968,859.7,529.8,90.2,2.6,0.8,25.47,34.96,1.9143,376.766],
    [19005,1532812833,56.9305,-111.5956,859.8,530.7,90.6,3.1,1.2,24.87,35.56,1.9146,377.2105],
    [19006,1532812834,56.9305,-111.5944,859.6,535.0,90.5,2.7,1.0,25.03,35.48,1.9139,378.3566],
    [19007,1532812835,56.9305,-111.5932,859.4,534.4,90.9,2.6,1.3,24.99,35.56,1.9146,377.689],
    [19008,1532812836,56.9305,-111.592,859.1,531.1,90.9,2.3,1.2,24.6,36.21,1.9152,377.9514],
    [19009,1532812837,56.9305,-111.5908,858.8,529.8,90.5,2.5,0.7,25.0,35.98,1.9147,377.9514],
    [19010,1532812838,56.9305,-111.5896,858.5,529.5,90.3,3.2,0.6,24.7,35.84,1.9145,378.5142],
    [19011,1532812839,56.9305,-111.5884,857.8,528.8,89.8,3.5,0.2,24.31,35.92,1.9131,377.4496],
    [19012,1532812840,56.9305,-111.5871,856.4,528.4,90.0,3.3,1.1,25.22,35.78,1.9144,377.4857],
    [19013,1532812841,56.9305,-111.5859,855.6,527.6,90.2,2.8,1.7,24.92,35.62,1.9127,377.7265],
    [19014,1532812842,56.9306,-111.5847,854.9,527.9,89.2,2.0,0.9,25.79,35.52,1.9137,378.3033],
    [19015,1532812843,56.9306,-111.5835,854.4,527.4,90.1,1.8,1.5,25.57,35.47,1.912,377.923],
    [19016,1532812844,56.9306,-111.5823,854.0,527.2,90.1,1.9,1.2,24.31,35.39,1.9113,378.3763],
    [19017,1532812845,56.9306,-111.5811,853.8,527.8,89.9,1.8,1.8,24.96,34.99,1.9119,378.5561],
    [19018,1532812846,56.9306,-111.5799,853.5,527.7,88.7,1.8,2.3,25.94,34.23,1.9125,376.7059],
    [19019,1532812847,56.9307,-111.5787,853.1,528.1,85.0,1.7,1.6,25.12,34.36,1.9127,377.6986],
    [19020,1532812848,56.9308,-111.5775,853.5,528.5,79.8,1.5,0.3,25.6,34.11,1.9129,377.4089],
    [19021,1532812849,56.9309,-111.5764,855.1,531.1,75.8,1.4,0.4,25.05,35.12,1.9138,377.85],
    [19022,1532812850,56.9311,-111.5752,857.3,533.3,71.5,1.6,-0.1,24.96,34.54,1.9144,378.1916],
    [19023,1532812851,56.9313,-111.5741,859.5,536.5,67.4,1.4,-0.5,25.02,34.64,1.9132,377.3832],
    [19024,1532812852,56.9316,-111.5731,860.8,538.8,63.6,1.3,-1.0,25.69,34.06,1.9116,378.275],
    [19025,1532812853,56.9318,-111.572,861.5,540.2,59.5,1.5,-1.4,24.43,34.75,1.913,378.0474],
    [19026,1532812854,56.9322,-111.571,861.9,539.9,56.4,1.1,-1.2,24.86,35.5,1.9128,377.5021],
    [19027,1532812855,56.9325,-111.57,862.6,540.6,53.4,0.5,-0.9,24.74,35.09,1.9152,377.2065],
    [19028,1532812856,56.9329,-111.5691,862.7,539.7,50.2,1.1,-1.5,24.93,35.78,1.9125,377.2065],
    [19029,1532812857,56.9333,-111.5683,861.7,538.7,47.1,2.1,-1.1,25.59,34.36,1.9118,377.317],
    [19030,1532812858,56.9337,-111.5674,860.4,537.4,45.3,1.7,-0.4,24.69,35.36,1.9128,378.7121],
    [19031,1532812859,56.9342,-111.5666,859.0,537.0,42.8,1.8,0.1,25.07,34.16,1.9122,378.5893],
    [19032,1532812860,56.9347,-111.5658,858.1,536.1,39.7,1.7,0.2,25.07,35.17,1.9125,377.6342],
    [19033,1532812861,56.9352,-111.5651,857.5,536.3,36.7,1.3,0.4,24.92,34.45,1.9123,378.192],
    [19034,1532812862,56.9357,-111.5644,856.4,536.5,33.6,2.1,0.3,25.24,34.26,1.9128,377.4502],
    [19035,1532812863,56.9362,-111.5637,854.5,535.5,28.2,4.2,-0.6,25.54,34.08,1.9135,378.0472],
    [19036,1532812864,56.9368,-111.5631,852.5,534.5,25.8,3.2,0.2,25.08,34.73,1.9129,378.2957],
    [19037,1532812865,56.9373,-111.5626,850.3,533.4,23.4,2.5,0.3,24.4,34.7,1.9146,377.1217],
    [19038,1532812866,56.9379,-111.5622,848.4,532.4,19.9,3.0,0.2,24.98,35.49,1.9161,378.0964],
    [19039,1532812867,56.9385,-111.5617,846.8,530.8,17.4,2.9,0.5,25.02,34.94,1.9136,378.6745],
    [19040,1532812868,56.9391,-111.5614,845.0,530.0,15.9,1.9,1.3,24.95,35.6,1.9116,378.5053],
    [19041,1532812869,56.9397,-111.5611,843.3,528.3,12.8,2.6,1.8,25.48,34.55,1.9118,377.8277],
    [19042,1532812870,56.9404,-111.5608,840.8,525.8,9.8,2.9,1.7,25.03,34.84,1.9122,376.5158],
    [19043,1532812871,56.941,-111.5606,839.5,524.5,7.6,2.1,1.7,25.08,35.08,1.9134,378.3016],
    [19044,1532812872,56.9417,-111.5604,839.4,524.4,6.6,1.1,1.6,24.47,35.33,1.9159,377.59],
    [19045,1532812873,56.9423,-111.5603,840.1,525.1,5.0,1.1,1.9,24.69,35.86,1.9149,378.843],
    [19046,1532812874,56.943,-111.5602,840.1,525.1,2.7,2.2,1.3,25.8,34.53,1.9123,378.5093],
    [19047,1532812875,56.9436,-111.5601,841.0,526.0,361.0,2.7,0.6,25.15,35.12,1.9141,379.13],
    [19048,1532812876,56.9443,-111.56,841.4,526.4,360.6,2.1,0.3,25.23,35.25,1.9151,378.3078],
    [19049,1532812877,56.945,-111.56,841.8,526.8,359.6,2.3,-0.3,24.94,35.49,1.9141,377.3249],
    [19050,1532812878,56.9456,-111.56,842.9,526.9,359.0,2.4,-0.4,24.66,35.27,1.9128,378.2948],
    [19051,1532812879,56.9463,-111.56,844.4,528.4,358.9,2.4,-0.3,25.14,35.93,1.9134,378.2948],
    [19052,1532812880,56.9469,-111.5599,846.2,530.2,358.0,3.3,-0.5,24.94,35.47,1.9131,377.3835],
    [19053,1532812881,56.9475,-111.5599,847.5,531.1,358.5,3.0,-1.1,25.28,34.95,1.9134,377.4424],
    [19054,1532812882,56.9482,-111.5599,849.1,532.1,358.5,3.5,-1.2,25.1,35.57,1.9139,378.5751],
    [19055,1532812883,56.9488,-111.5599,850.6,533.6,359.1,2.8,-1.6,25.23,35.09,1.9128,378.4323],
    [19056,1532812884,56.9494,-111.5599,851.7,533.7,359.3,2.9,-1.7,24.45,35.36,1.9142,376.9256],
    [19057,1532812885,56.9501,-111.5598,852.5,533.5,358.3,3.9,-1.6,24.82,35.29,1.9145,376.9256],
    [19058,1532812886,56.9507,-111.5598,853.2,533.5,359.0,3.3,-1.8,24.94,35.56,1.9139,378.5882],
    [19059,1532812887,56.9513,-111.5598,854.2,534.2,358.7,3.6,-1.6,25.04,36.2,1.9113,377.9709],
    [19060,1532812888,56.952,-111.5597,855.1,535.2,359.3,2.8,-1.3,25.48,34.62,1.9122,377.9015],
    [19061,1532812889,56.9526,-111.5597,855.8,534.8,360.1,2.1,-1.5,24.67,35.25,1.9125,376.8071],
    [19062,1532812890,56.9532,-111.5597,856.7,535.7,359.9,2.3,-1.5,24.39,35.34,1.9119,376.6323],
    [19063,1532812891,56.9538,-111.5596,857.2,536.2,360.5,1.7,-1.7,25.38,35.08,1.9119,378.1527],
    [19064,1532812892,56.9545,-111.5596,857.4,536.4,360.3,1.9,-2.0,25.18,35.83,1.9114,377.5474],
    [19065,1532812893,56.9551,-111.5595,857.8,536.7,360.1,2.1,-1.7,24.9,35.5,1.9108,377.6083],
    [19066,1532812894,56.9557,-111.5595,857.6,537.6,360.4,1.5,-1.5,25.14,34.99,1.911,377.1194],
    [19067,1532812895,56.9563,-111.5595,857.8,537.8,359.9,1.9,-1.2,24.62,35.44,1.911,377.9513],
    [19068,1532812896,56.957,-111.5595,858.6,540.6,359.3,1.9,-1.3,25.14,34.99,1.9109,377.5193],
    [19069,1532812897,56.9576,-111.5594,859.1,542.1,359.5,1.2,-1.2,24.53,35.36,1.91,378.3086],
    [19070,1532812898,56.9582,-111.5594,859.8,543.8,358.5,2.1,-1.1,24.97,35.52,1.9107,378.0815],
    [19071,1532812899,56.9589,-111.5594,860.9,543.9,359.1,1.3,-0.9,25.03,35.72,1.9097,377.2546],
    [19072,1532812900,56.9595,-111.5594,862.0,544.0,359.7,0.8,-0.6,24.83,35.26,1.9114,377.0812],
    [19073,1532812901,56.9601,-111.5594,862.9,543.9,359.7,1.0,-0.4,25.81,34.41,1.9123,376.8503],
    [19074,1532812902,56.9607,-111.5594,863.7,544.9,358.9,2.1,-0.4,24.85,35.57,1.9125,377.081],
    [19075,1532812903,56.9614,-111.5594,864.3,546.3,359.2,1.7,-0.5,25.01,35.4,1.9107,377.3072],
    [19076,1532812904,56.962,-111.5594,865.0,547.0,359.3,2.0,-0.4,25.31,34.52,1.9123,377.351],
    [19077,1532812905,56.9626,-111.5594,865.0,547.0,358.5,2.7,-0.1,24.51,35.03,1.9118,378.8365],
    [19078,1532812906,56.9633,-111.5593,864.4,546.4,358.9,2.3,0.7,25.7,34.73,1.9108,377.6415],
    [19079,1532812907,56.9639,-111.5593,862.4,545.4,358.7,2.5,2.0,24.98,35.31,1.9117,377.3939],
    [19080,1532812908,56.9645,-111.5593,859.2,543.2,358.8,2.4,2.6,24.78,35.74,1.9122,377.2937],
    [19081,1532812909,56.9652,-111.5593,855.8,540.0,358.1,2.9,3.0,24.63,35.31,1.9122,377.0635],
    [19082,1532812910,56.9658,-111.5593,852.6,537.6,358.5,2.1,3.8,25.0,36.29,1.9128,376.1283],
    [19083,1532812911,56.9665,-111.5593,849.3,535.3,358.8,1.8,5.0,24.34,35.58,1.9133,377.1152],
    [19084,1532812912,56.9671,-111.5593,846.7,533.4,358.5,2.0,5.7,24.47,35.94,1.912,377.2887],
    [19085,1532812913,56.9677,-111.5593,845.0,532.0,357.9,2.6,5.7,25.02,36.6,1.9125,376.4368],
    [19086,1532812914,56.9684,-111.5593,843.9,529.9,357.4,2.8,5.6,24.63,36.06,1.9119,376.4524],
    [19087,1532812915,56.969,-111.5593,842.9,527.7,357.9,2.2,5.7,24.85,36.3,1.9133,376.8286],
    [19088,1532812916,56.9697,-111.5593,841.8,525.5,357.0,2.7,5.5,25.02,36.17,1.9123,377.4148],
    [19089,1532812917,56.9703,-111.5593,840.7,520.6,357.6,1.8,4.9,24.88,36.72,1.9117,376.5841],
    [19090,1532812918,56.971,-111.5593,840.0,518.2,357.3,1.9,4.5,24.92,37.31,1.9119,376.6752],
    [19091,1532812919,56.9716,-111.5594,839.7,516.5,357.8,1.3,4.1,24.99,37.17,1.9106,378.0841],
    [19092,1532812920,56.9723,-111.5594,839.8,515.8,357.8,1.5,3.8,25.36,36.21,1.9128,376.4759],
    [19093,1532812921,56.9729,-111.5594,839.6,515.6,356.8,2.6,3.6,25.61,36.03,1.9136,376.4759],
    [19094,1532812922,56.9736,-111.5594,839.5,515.5,356.9,2.5,3.3,25.38,36.35,1.9125,376.4429],
    [19095,1532812923,56.9742,-111.5594,839.5,515.5,357.4,1.7,3.1,24.9,36.9,1.9123,375.1471],
    [19096,1532812924,56.9749,-111.5595,839.1,515.1,357.8,1.6,3.0,24.4,36.58,1.9127,376.8263],
    [19097,1532812925,56.9755,-111.5595,838.7,514.7,357.4,2.1,3.3,24.4,36.59,1.9134,377.6897],
    [19098,1532812926,56.9761,-111.5595,838.1,514.1,357.7,2.1,3.5,24.32,36.63,1.9148,377.4635],
    [19099,1532812927,56.9768,-111.5595,837.3,513.3,357.4,2.4,3.6,25.41,36.32,1.9163,376.8845],
    [19100,1532812928,56.9774,-111.5595,836.5,512.5,358.1,2.0,3.7,24.69,37.0,1.921,376.06],
    [19101,1532812929,56.9781,-111.5595,835.9,512.8,358.1,2.1,3.2,24.82,37.31,1.9175,375.7073],
    [19102,1532812930,56.9787,-111.5595,835.6,513.6,358.3,2.2,2.9,24.96,38.01,1.9146,377.6456],
    [19103,1532812931,56.9794,-111.5595,835.8,515.4,357.9,2.6,3.2,24.69,38.87,1.9148,376.3003],
    [19104,1532812932,56.98,-111.5595,836.2,519.9,358.2,2.1,3.4,24.5,38.29,1.9142,375.5596],
    [19105,1532812933,56.9807,-111.5595,837.0,523.6,358.3,2.2,3.5,25.59,37.88,1.9132,376.7487],
    [19106,1532812934,56.9813,-111.5595,838.0,527.0,358.5,1.9,3.1,24.64,38.19,1.9108,376.2943],
    [19107,1532812935,56.982,-111.5595,838.9,529.9,358.9,1.4,2.9,24.25,38.45,1.9114,377.3248],
    [19108,1532812936,56.9826,-111.5595,839.8,530.8,358.6,1.6,2.8,24.73,38.14,1.9109,377.3248],
    [19109,1532812937,56.9833,-111.5595,840.4,531.4,358.7,1.5,2.7,24.69,37.49,1.9119,378.2794],
    [19110,1532812938,56.9839,-111.5595,841.0,532.0,357.6,2.5,2.4,24.51,36.97,1.9119,376.6415],
    [19111,1532812939,56.9846,-111.5595,842.1,533.1,357.3,2.4,2.2,25.05,36.28,1.9142,377.659],
    [19112,1532812940,56.9852,-111.5595,844.3,535.3,356.9,2.5,2.0,25.29,36.54,1.9121,378.0325],
    [19113,1532812941,56.9858,-111.5596,848.4,538.8,356.5,2.4,1.4,24.75,37.28,1.9123,377.7253],
    [19114,1532812942,56.9865,-111.5596,853.8,541.7,356.9,1.4,0.7,24.13,36.77,1.9118,377.1981],
    [19115,1532812943,56.9871,-111.5596,859.7,545.7,356.4,1.7,-0.4,24.49,36.61,1.9111,377.8521],
    [19116,1532812944,56.9877,-111.5597,865.9,549.9,355.9,1.9,-1.8,24.65,36.63,1.9117,378.4279],
    [19117,1532812945,56.9883,-111.5597,872.0,554.8,354.7,3.2,-2.8,25.52,36.19,1.9108,376.7207],
    [19118,1532812946,56.9889,-111.5598,878.0,559.0,354.5,3.0,-3.5,24.58,36.52,1.9124,377.858],
    [19119,1532812947,56.9895,-111.5599,882.7,563.7,355.0,2.5,-4.1,24.76,37.24,1.9126,377.3449],
    [19120,1532812948,56.9901,-111.5599,885.5,566.5,354.2,3.4,-4.6,25.21,36.41,1.9121,377.1183],
    [19121,1532812949,56.9907,-111.56,886.1,567.1,354.4,3.1,-4.6,25.42,36.14,1.9124,377.1183],
    [19122,1532812950,56.9913,-111.56,884.5,565.5,354.6,3.1,-4.5,24.8,36.27,1.9127,377.168],
    [19123,1532812951,56.9919,-111.5601,882.4,563.4,354.0,3.9,-4.1,24.89,36.74,1.9121,377.9716],
    [19124,1532812952,56.9925,-111.5602,880.2,560.2,354.3,3.6,-3.7,24.49,36.15,1.9138,377.3839],
    [19125,1532812953,56.9931,-111.5602,877.5,557.5,355.0,3.3,-3.7,24.42,36.18,1.9145,379.0292],
    [19126,1532812954,56.9937,-111.5603,875.2,554.9,355.5,3.3,-3.3,25.03,35.89,1.9135,378.1564],
    [19127,1532812955,56.9943,-111.5603,873.0,551.9,356.2,2.9,-3.0,25.56,35.1,1.9134,378.1564],
    [19128,1532812956,56.9949,-111.5603,870.9,549.8,357.0,2.6,-2.9,25.14,35.83,1.9141,378.9567],
    [19129,1532812957,56.9956,-111.5603,868.8,546.8,356.7,3.4,-2.6,24.86,36.2,1.9147,377.9632],
    [19130,1532812958,56.9962,-111.5603,867.3,544.4,357.5,2.7,-2.6,24.77,35.93,1.915,377.9632],
    [19131,1532812959,56.9968,-111.5603,866.1,543.3,358.0,2.5,-2.4,25.42,35.02,1.9143,376.3123],
    [19132,1532812960,56.9974,-111.5603,865.7,542.8,357.7,2.7,-2.1,25.13,35.2,1.9134,377.4719],
    [19133,1532812961,56.998,-111.5604,865.6,542.5,358.2,2.1,-1.8,24.77,36.0,1.9141,378.2419],
    [19134,1532812962,56.9987,-111.5604,865.1,541.9,358.2,2.2,-1.8,24.88,35.89,1.9148,377.5751],
    [19135,1532812963,56.9993,-111.5604,864.9,541.6,358.5,2.0,-2.0,24.21,35.64,1.9157,377.4542],
    [19136,1532812964,56.9999,-111.5603,865.2,542.7,358.5,2.3,-2.0,24.59,35.34,1.9162,378.6001],
    [19137,1532812965,57.0006,-111.5603,866.0,544.3,358.8,2.1,-1.8,25.44,34.9,1.9149,377.8364],
    [19138,1532812966,57.0012,-111.5603,866.4,544.5,359.7,1.5,-1.7,25.23,35.12,1.9163,377.4534],
    [19139,1532812967,57.0018,-111.5603,866.7,544.0,359.5,2.2,-1.3,25.12,35.48,1.917,377.8742],
    [19140,1532812968,57.0024,-111.5603,867.2,544.0,359.0,2.8,-1.1,24.77,36.2,1.9164,377.1534],
    [19141,1532812969,57.0031,-111.5603,867.2,544.2,359.2,2.5,-1.1,24.88,36.92,1.9168,375.1045],
    [19142,1532812970,57.0037,-111.5602,867.3,544.4,359.1,2.5,-1.0,24.58,36.3,1.916,379.1869],
    [19143,1532812971,57.0043,-111.5602,867.1,544.2,359.2,2.4,-0.8,25.45,35.8,1.9172,377.4316],
    [19144,1532812972,57.0049,-111.5602,866.7,544.7,359.5,2.2,-0.7,24.48,36.61,1.9157,378.1744],
    [19145,1532812973,57.0056,-111.5602,866.1,544.7,359.7,1.9,-0.5,24.94,36.53,1.9137,377.8078],
    [19146,1532812974,57.0062,-111.5601,865.2,544.2,360.3,1.2,-0.5,24.89,36.73,1.9156,377.8078],
    [19147,1532812975,57.0068,-111.5601,863.5,542.5,360.2,1.4,-0.3,24.76,36.54,1.915,376.9163],
    [19148,1532812976,57.0075,-111.5601,861.5,540.5,359.3,2.0,-0.3,25.48,35.84,1.9151,377.5677],
    [19149,1532812977,57.0081,-111.5601,859.0,538.0,359.6,1.6,0.0,25.46,36.04,1.9174,377.797],
    [19150,1532812978,57.0087,-111.56,856.4,535.4,359.3,2.1,0.4,25.28,36.52,1.9185,378.3267],
    [19151,1532812979,57.0094,-111.56,853.5,532.5,359.5,2.0,0.9,25.27,36.78,1.9165,377.9882],
    [19152,1532812980,57.01,-111.56,850.6,529.6,359.9,1.8,1.4,25.56,36.85,1.9164,377.4679],
    [19153,1532812981,57.0106,-111.56,848.2,528.2,359.9,2.0,1.8,25.13,37.52,1.916,377.137],
    [19154,1532812982,57.0113,-111.5599,846.3,526.3,359.8,2.2,2.1,24.69,37.84,1.916,376.8719],
    [19155,1532812983,57.0119,-111.5599,844.3,524.3,359.3,2.9,2.3,24.71,37.97,1.9165,375.5041],
    [19156,1532812984,57.0126,-111.5599,842.6,521.6,359.9,2.2,2.6,24.72,38.15,1.9168,377.9777],
    [19157,1532812985,57.0132,-111.5598,841.0,520.0,360.3,1.9,2.8,24.72,38.46,1.9161,377.5681],
    [19158,1532812986,57.0139,-111.5598,839.3,519.3,360.6,1.7,2.7,24.68,39.09,1.9164,377.3475],
    [19159,1532812987,57.0146,-111.5598,837.4,517.7,360.4,2.0,2.8,25.12,38.03,1.9158,377.2424],
    [19160,1532812988,57.0152,-111.5597,835.8,515.7,360.0,2.4,2.7,25.44,38.06,1.9148,378.6483],
    [19161,1532812989,57.0159,-111.5597,834.3,515.3,359.7,2.4,2.5,24.41,38.51,1.9163,377.6407],
    [19162,1532812990,57.0165,-111.5596,832.9,513.9,359.2,2.6,2.0,25.08,38.06,1.9172,377.9297],
    [19163,1532812991,57.0172,-111.5596,831.7,512.7,358.9,2.6,1.4,24.72,38.92,1.9173,377.3197],
    [19164,1532812992,57.0178,-111.5596,830.8,511.8,358.7,2.6,1.6,25.19,37.88,1.9171,377.2003],
    [19165,1532812993,57.0185,-111.5596,830.5,512.5,358.5,2.8,1.5,24.95,38.3,1.9154,377.2003],
    [19166,1532812994,57.0192,-111.5596,831.1,513.1,358.6,2.9,1.3,24.82,38.99,1.9152,377.617],
    [19167,1532812995,57.0198,-111.5596,831.9,513.9,358.8,2.7,1.5,24.85,39.6,1.9154,377.3733],
    [19168,1532812996,57.0205,-111.5595,832.7,514.7,358.9,2.6,1.9,24.85,39.39,1.9151,377.8617],
    [19169,1532812997,57.0211,-111.5595,833.3,516.3,359.1,2.5,2.0,24.45,39.0,1.9172,377.9094],
    [19170,1532812998,57.0218,-111.5595,833.9,516.9,359.2,2.5,2.1,25.07,38.89,1.9156,377.3614],
    [19171,1532812999,57.0224,-111.5595,834.4,517.4,359.6,2.1,1.9,25.22,38.95,1.9159,377.4156],
    [19172,1532813000,57.0231,-111.5594,835.1,519.1,359.9,1.9,1.7,25.16,38.14,1.9148,377.593],
    [19173,1532813001,57.0237,-111.5594,835.7,519.7,359.5,1.8,1.4,25.37,37.99,1.9149,376.7504],
    [19174,1532813002,57.0244,-111.5594,836.5,520.5,359.1,1.6,0.8,24.76,38.27,1.9142,376.4452],
    [19175,1532813003,57.025,-111.5594,837.4,522.4,358.1,2.0,0.7,25.03,37.64,1.9156,377.6385],
    [19176,1532813004,57.0257,-111.5594,838.3,523.3,357.4,2.1,1.0,24.44,37.91,1.9151,377.6385],
    [19177,1532813005,57.0263,-111.5594,839.1,524.1,357.0,2.0,1.4,24.59,37.91,1.9133,378.3239],
    [19178,1532813006,57.027,-111.5595,839.7,523.7,356.5,2.2,1.3,24.53,37.38,1.9126,378.3239],
    [19179,1532813007,57.0276,-111.5595,840.3,524.3,356.4,2.1,1.4,24.67,37.65,1.9126,378.2208],
    [19180,1532813008,57.0283,-111.5595,840.9,524.6,355.9,2.5,1.6,25.37,36.07,1.9122,378.7248],
    [19181,1532813009,57.0289,-111.5596,841.2,524.2,355.5,2.9,1.5,24.61,36.13,1.9123,378.2306],
    [19182,1532813010,57.0295,-111.5596,841.3,524.3,355.6,2.8,1.7,25.13,35.31,1.9124,378.3791],
    [19183,1532813011,57.0302,-111.5597,841.4,525.4,355.7,2.9,1.9,24.55,35.37,1.9122,378.0755],
    [19184,1532813012,57.0308,-111.5597,841.3,526.3,355.8,3.0,2.0,24.74,35.22,1.9132,379.4245],
    [19185,1532813013,57.0315,-111.5597,841.5,526.5,356.0,3.0,2.3,24.85,34.8,1.9132,378.8744],
    [19186,1532813014,57.0321,-111.5598,841.7,526.7,356.4,2.7,2.5,24.76,34.81,1.9128,378.8304],
    [19187,1532813015,57.0328,-111.5598,842.1,526.4,356.3,2.7,2.6,24.82,34.75,1.9127,378.4894],
    [19188,1532813016,57.0334,-111.5598,842.7,526.7,356.2,2.7,2.6,25.53,33.83,1.9134,377.9281],
    [19189,1532813017,57.034,-111.5599,843.6,527.6,356.1,2.8,2.7,25.24,34.74,1.9137,379.2569],
    [19190,1532813018,57.0347,-111.5599,844.7,528.7,355.9,2.9,2.5,24.93,34.33,1.913,379.4144],
    [19191,1532813019,57.0353,-111.5599,845.6,530.6,356.1,2.5,2.1,25.49,33.93,1.9137,378.7111],
    [19192,1532813020,57.0359,-111.56,846.1,532.1,356.6,1.8,1.8,25.53,33.6,1.9203,380.2931],
    [19193,1532813021,57.0366,-111.56,846.1,533.1,357.0,1.6,1.4,24.55,34.53,1.9369,385.6178],
    [19194,1532813022,57.0372,-111.56,845.7,533.7,356.9,1.7,1.0,25.0,34.1,1.9275,380.792],
    [19195,1532813023,57.0379,-111.5601,844.4,532.4,357.1,1.7,0.6,25.17,33.93,1.9173,380.792],
    [19196,1532813024,57.0385,-111.5601,842.8,531.8,357.0,1.9,0.7,25.19,34.26,1.9156,379.2674],
    [19197,1532813025,57.0391,-111.5601,840.6,529.6,357.0,1.8,0.8,25.15,34.45,1.9205,385.4509],
    [19198,1532813026,57.0398,-111.5602,838.9,528.1,356.7,1.8,0.6,24.61,35.04,1.9234,386.2994],
    [19199,1532813027,57.0404,-111.5602,837.7,528.7,357.0,1.1,0.7,24.97,35.51,1.921,386.2994],
    [19200,1532813028,57.0411,-111.5602,836.6,530.2,357.5,0.6,1.1,25.56,34.48,1.9209,382.5101],
    [19201,1532813029,57.0417,-111.5603,836.1,533.1,357.2,0.6,0.9,24.63,35.73,1.9208,380.2911],
    [19202,1532813030,57.0424,-111.5603,835.5,532.5,356.8,0.9,-0.3,24.7,36.0,1.9222,378.1427],
    [19203,1532813031,57.043,-111.5604,835.3,532.3,356.0,1.8,-0.3,24.97,36.31,1.9248,377.4518],
    [19204,1532813032,57.0437,-111.5604,835.0,532.0,356.2,1.5,-0.4,25.25,36.64,1.9249,378.1143],
    [19205,1532813033,57.0443,-111.5605,834.4,527.6,356.4,1.5,-0.9,24.52,37.4,1.9238,376.6176],
    [19206,1532813034,57.045,-111.5606,833.6,525.2,355.6,2.5,-0.9,24.97,38.43,1.9219,377.6892],
    [19207,1532813035,57.0456,-111.5606,832.7,521.3,355.9,2.5,-1.2,25.0,38.45,1.9207,375.905],
    [19208,1532813036,57.0463,-111.5606,831.5,519.5,356.3,2.7,-1.5,24.95,38.8,1.9185,377.7958],
    [19209,1532813037,57.0469,-111.5607,831.0,518.0,356.7,2.7,-1.4,24.77,39.22,1.9173,377.1297],
    [19210,1532813038,57.0476,-111.5607,831.3,518.3,357.5,2.4,-0.9,25.09,39.73,1.9173,376.5798],
    [19211,1532813039,57.0482,-111.5607,831.7,518.7,357.9,2.7,-0.4,25.16,39.55,1.9165,376.5798],
    [19212,1532813040,57.0489,-111.5607,832.0,518.4,358.3,2.9,0.1,24.95,38.81,1.9174,376.9284],
    [19213,1532813041,57.0496,-111.5607,832.0,518.0,358.9,2.9,0.1,24.58,38.4,1.9144,377.5305],
    [19214,1532813042,57.0502,-111.5606,832.0,518.0,359.8,2.5,-0.1,24.99,38.78,1.9076,377.8605],
    [19215,1532813043,57.0509,-111.5606,832.0,518.0,360.3,2.5,0.1,24.82,37.03,1.9061,378.9048],
    [19216,1532813044,57.0515,-111.5605,832.2,518.2,360.2,2.8,0.6,25.05,35.83,1.9063,378.6009],
    [19217,1532813045,57.0522,-111.5605,832.3,518.3,360.9,1.9,1.0,25.13,35.32,1.9068,377.7451],
    [19218,1532813046,57.0528,-111.5604,832.2,518.2,360.6,2.1,1.0,24.6,34.25,1.9077,379.3203],
    [19219,1532813047,57.0535,-111.5604,832.2,518.2,359.7,2.5,1.0,25.05,33.05,1.9086,379.153],
    [19220,1532813048,57.0541,-111.5604,832.1,518.1,359.3,2.5,1.4,25.12,32.84,1.9117,379.1877],
    [19221,1532813049,57.0548,-111.5604,831.9,517.9,358.5,2.8,1.9,25.03,32.86,1.913,379.09],
    [19222,1532813050,57.0554,-111.5603,831.6,517.6,357.8,2.9,2.0,24.39,32.89,1.9153,380.2507],
    [19223,1532813051,57.0561,-111.5604,831.2,517.2,357.2,3.0,2.3,24.57,33.04,1.9152,379.2867],
    [19224,1532813052,57.0567,-111.5604,830.9,516.9,356.3,3.5,2.8,25.7,32.43,1.9107,380.4571],
    [19225,1532813053,57.0574,-111.5604,830.6,516.6,355.8,3.8,2.9,24.84,33.59,1.9113,379.7958],
    [19226,1532813054,57.058,-111.5604,830.3,517.3,356.1,3.4,3.0,25.04,33.81,1.9106,379.7958],
    [19227,1532813055,57.0587,-111.5604,829.7,515.7,356.8,2.8,3.3,24.53,32.98,1.9063,379.0869],
    [19228,1532813056,57.0593,-111.5604,828.8,514.8,357.0,2.9,3.6,24.38,32.55,1.9036,379.6657],
    [19229,1532813057,57.06,-111.5605,827.8,513.8,357.4,2.5,3.8,24.92,31.86,1.9048,379.9795],
    [19230,1532813058,57.0606,-111.5605,826.7,512.7,357.5,2.7,3.7,25.61,30.29,1.9066,380.5131],
    [19231,1532813059,57.0613,-111.5605,825.5,511.5,357.6,2.6,3.6,25.05,30.94,1.9065,381.4426],
    [19232,1532813060,57.062,-111.5605,824.3,511.3,358.1,2.2,3.4,25.64,29.48,1.9064,381.2932],
    [19233,1532813061,57.0626,-111.5605,823.4,510.4,358.3,2.3,3.2,25.15,29.2,1.9062,381.3566],
    [19234,1532813062,57.0633,-111.5605,823.0,511.0,358.4,2.3,3.1,25.11,29.66,1.909,381.5602],
    [19235,1532813063,57.064,-111.5605,822.8,510.8,358.3,2.5,2.7,24.75,29.26,1.915,380.3995],
    [19236,1532813064,57.0646,-111.5605,822.7,510.7,358.3,2.1,2.0,25.08,29.78,1.9306,380.7493],
    [19237,1532813065,57.0653,-111.5605,822.7,510.7,358.8,1.3,1.7,24.35,29.53,1.9331,380.8465],
    [19238,1532813066,57.066,-111.5605,822.2,509.1,358.2,1.9,1.0,25.12,30.4,1.9384,380.1125],
    [19239,1532813067,57.0666,-111.5605,821.9,509.9,358.9,1.0,0.4,25.58,31.59,1.9424,378.8688],
    [19240,1532813068,57.0673,-111.5605,821.2,510.3,359.8,0.4,0.5,25.04,33.46,1.9433,378.8688],
    [19241,1532813069,57.068,-111.5605,821.0,511.0,359.2,1.1,1.4,25.38,34.25,1.9418,379.0762],
    [19242,1532813070,57.0686,-111.5605,821.0,512.0,359.5,0.7,1.0,25.12,35.84,1.9398,378.9367],
    [19243,1532813071,57.0693,-111.5605,821.1,513.7,359.5,0.5,0.7,25.04,36.19,1.9373,379.0002],
    [19244,1532813072,57.07,-111.5605,821.2,515.4,359.7,0.4,1.8,24.5,35.96,1.9358,378.3006],
    [19245,1532813073,57.0706,-111.5605,821.8,521.2,359.0,1.3,2.6,24.84,36.11,1.9339,378.1547],
    [19246,1532813074,57.0713,-111.5605,822.7,525.7,359.3,1.0,3.3,25.89,35.82,1.9333,378.9625],
    [19247,1532813075,57.072,-111.5605,823.8,532.8,359.7,0.8,3.6,25.17,36.26,1.9354,378.4704],
    [19248,1532813076,57.0727,-111.5605,824.6,537.2,359.1,1.5,3.7,24.62,36.43,1.9344,377.2743],
    [19249,1532813077,57.0733,-111.5605,824.7,542.4,359.1,1.6,4.1,25.22,36.56,1.9324,378.3206],
    [19250,1532813078,57.074,-111.5604,824.9,551.6,358.7,2.1,4.7,25.79,36.2,1.931,378.719],
    [19251,1532813079,57.0746,-111.5604,825.4,555.4,358.0,2.6,5.8,25.41,36.32,1.9266,379.2152],
    [19252,1532813080,57.0753,-111.5604,826.2,557.2,358.2,2.4,6.7,25.19,36.38,1.929,378.1566],
    [19253,1532813081,57.076,-111.5604,826.6,560.9,358.4,2.4,6.7,25.23,36.44,1.9251,378.215],
    [19254,1532813082,57.0766,-111.5604,827.2,565.9,358.4,2.5,6.5,25.1,35.48,1.9209,378.215],
    [19255,1532813083,57.0773,-111.5604,827.6,573.3,358.8,2.1,6.0,25.38,34.4,1.9247,378.386],
    [19256,1532813084,57.0779,-111.5604,828.2,577.2,358.7,2.1,5.6,25.96,33.11,1.9182,380.507],
    [19257,1532813085,57.0786,-111.5604,828.9,580.6,358.1,2.4,5.2,25.29,33.13,1.9186,380.1227],
    [19258,1532813086,57.0793,-111.5604,830.1,585.8,358.2,2.0,4.9,25.26,33.41,1.9177,381.2485],
    [19259,1532813087,57.0799,-111.5604,830.9,589.3,358.1,2.1,4.6,25.04,32.3,1.9348,381.243],
    [19260,1532813088,57.0805,-111.5604,831.5,593.5,358.0,2.1,4.2,24.83,31.76,1.9541,381.243],
    [19261,1532813089,57.0812,-111.5604,831.6,596.6,357.7,2.8,3.8,24.93,32.43,1.961,380.9374],
    [19262,1532813090,57.0819,-111.5604,831.1,597.2,358.2,2.7,3.3,25.67,31.46,1.977,379.3738],
    [19263,1532813091,57.0825,-111.5604,830.3,596.3,358.6,2.9,2.9,25.79,32.34,1.9814,379.8931],
    [19264,1532813092,57.0831,-111.5604,829.5,595.5,358.5,3.4,2.6,24.56,34.08,1.9802,379.3949],
    [19265,1532813093,57.0838,-111.5603,828.6,594.6,359.5,2.6,2.0,25.59,34.33,1.9639,379.6672],
    [19266,1532813094,57.0844,-111.5603,827.4,594.5,359.5,2.9,1.2,24.66,35.36,1.9566,379.6672],
    [19267,1532813095,57.0851,-111.5603,825.5,593.5,359.1,3.4,1.2,25.17,35.4,1.9601,379.2636],
    [19268,1532813096,57.0857,-111.5602,822.5,591.2,359.5,2.8,1.5,25.85,35.42,1.9597,378.7709],
    [19269,1532813097,57.0864,-111.5602,818.3,586.3,359.0,3.0,1.8,25.8,35.74,1.9576,378.5726],
    [19270,1532813098,57.087,-111.5602,813.4,581.5,359.1,2.5,2.1,24.85,36.22,1.9593,378.7128],
    [19271,1532813099,57.0877,-111.5601,808.5,576.5,358.8,2.8,2.0,25.89,35.46,1.9674,378.3],
    [19272,1532813100,57.0884,-111.5601,803.0,571.0,358.9,2.5,2.7,25.51,36.13,1.9723,378.8882],
    [19273,1532813101,57.089,-111.5601,798.2,566.3,359.4,1.9,3.9,25.17,36.6,1.9756,378.8882],
    [19274,1532813102,57.0897,-111.5601,794.3,563.4,359.3,1.9,4.6,25.08,36.54,1.9817,378.4149],
    [19275,1532813103,57.0904,-111.5601,792.0,560.3,359.9,1.4,5.1,25.14,37.39,1.9775,377.8373],
    [19276,1532813104,57.0911,-111.56,791.0,559.0,359.2,2.1,5.7,25.23,36.91,1.9798,378.1139],
    [19277,1532813105,57.0917,-111.56,790.2,559.2,359.3,2.1,5.8,26.06,36.55,1.9688,377.644],
    [19278,1532813106,57.0924,-111.56,789.9,559.9,359.3,1.9,5.9,25.3,37.28,1.9649,377.9089],
    [19279,1532813107,57.0931,-111.56,790.6,560.6,358.8,2.3,5.9,25.2,37.76,1.9623,378.4702],
    [19280,1532813108,57.0938,-111.56,792.8,562.8,358.8,2.0,5.7,25.13,37.8,1.9617,378.1155],
    [19281,1532813109,57.0944,-111.56,796.0,565.4,360.8,-0.1,5.4,25.31,38.11,1.9531,377.5883],
    [19282,1532813110,57.0951,-111.56,799.7,564.5,360.5,0.5,4.2,25.29,37.6,1.951,377.1808],
    [19283,1532813111,57.0957,-111.5599,804.3,565.1,360.1,0.6,3.3,25.48,37.5,1.948,378.4214],
    [19284,1532813112,57.0964,-111.5599,809.0,566.4,360.3,0.3,2.6,25.22,37.62,1.9394,377.9716],
    [19285,1532813113,57.097,-111.5599,812.4,566.5,359.6,0.6,2.2,25.94,37.42,1.939,378.2087],
    [19286,1532813114,57.0977,-111.5599,814.6,567.7,359.5,0.6,1.9,25.26,38.55,1.9378,378.15],
    [19287,1532813115,57.0983,-111.5599,816.0,568.2,359.0,1.3,1.3,25.96,36.97,1.9429,377.1212],
    [19288,1532813116,57.0989,-111.5599,816.5,568.5,357.3,3.2,1.4,25.88,36.85,1.9555,378.1063],
    [19289,1532813117,57.0996,-111.5599,815.5,567.5,357.1,3.0,1.5,25.96,36.77,1.9633,377.212],
    [19290,1532813118,57.1002,-111.5599,813.8,565.1,357.3,2.8,1.4,25.5,37.42,1.955,378.3012],
    [19291,1532813119,57.1008,-111.5599,812.2,562.4,356.9,3.1,1.7,24.72,38.17,1.9681,377.5843],
    [19292,1532813120,57.1014,-111.5599,810.2,557.9,357.2,2.8,2.0,25.29,38.62,2.0016,377.5843],
    [19293,1532813121,57.1021,-111.56,808.0,554.0,357.2,3.1,2.0,25.43,37.85,2.0147,376.6951],
    [19294,1532813122,57.1027,-111.56,805.5,550.1,357.6,2.8,2.4,25.33,38.15,2.018,378.6472],
    [19295,1532813123,57.1034,-111.56,802.8,545.8,358.1,2.7,2.7,25.16,38.26,2.0402,378.0347],
    [19296,1532813124,57.104,-111.5599,799.9,541.8,358.1,2.8,3.0,25.33,38.73,2.0574,378.1873],
    [19297,1532813125,57.1046,-111.5599,796.0,537.0,358.7,2.3,3.6,25.92,38.02,2.0513,377.4893],
    [19298,1532813126,57.1053,-111.5599,791.4,531.7,358.0,2.8,4.7,25.25,38.92,2.0742,377.4893],
    [19299,1532813127,57.1059,-111.5599,786.8,526.9,358.5,2.3,5.7,25.22,39.61,2.076,376.475],
    [19300,1532813128,57.1066,-111.5599,782.2,521.2,358.4,2.1,6.6,25.12,39.01,1.9936,376.7425],
    [19301,1532813129,57.1072,-111.5599,778.7,517.7,359.2,0.9,7.8,25.08,39.14,1.9808,376.8795],
    [19302,1532813130,57.1079,-111.5599,775.6,514.6,359.5,0.7,8.8,25.15,39.02,2.0187,376.536],
    [19303,1532813131,57.1085,-111.5599,772.8,511.8,359.7,0.4,8.8,25.53,38.88,2.047,376.2518],
    [19304,1532813132,57.1092,-111.5599,771.6,510.6,360.4,-0.1,8.2,25.3,39.44,2.0167,375.7081],
    [19305,1532813133,57.1099,-111.5599,771.5,510.5,359.8,0.8,8.1,24.81,39.01,2.0128,376.1],
    [19306,1532813134,57.1105,-111.5599,771.6,510.6,359.2,1.4,8.0,25.51,38.95,2.008,376.4165],
    [19307,1532813135,57.1112,-111.5599,771.5,509.5,359.5,1.1,7.7,25.13,39.21,2.003,377.0049],
    [19308,1532813136,57.1118,-111.5599,771.1,509.1,359.4,1.2,7.3,24.93,39.22,1.9825,377.7196],
    [19309,1532813137,57.1125,-111.5599,770.4,508.4,359.5,1.0,7.2,25.86,38.9,2.0029,377.4943],
    [19310,1532813138,57.1131,-111.5599,769.5,507.5,359.6,0.7,6.7,25.3,39.22,1.9689,376.811],
    [19311,1532813139,57.1138,-111.5599,769.4,507.4,359.5,0.6,6.8,24.99,39.44,1.9416,378.3216],
    [19312,1532813140,57.1144,-111.5599,768.9,506.9,360.0,0.2,7.2,25.09,39.29,1.9562,378.1273],
    [19313,1532813141,57.1151,-111.5599,768.3,506.3,359.3,0.9,8.2,25.42,39.29,1.9705,378.0076],
    [19314,1532813142,57.1157,-111.5598,767.1,505.1,359.1,1.3,9.2,26.09,38.61,1.9597,378.0617],
    [19315,1532813143,57.1164,-111.5598,766.5,504.5,358.9,1.5,9.5,25.99,38.63,1.9627,378.1396],
    [19316,1532813144,57.117,-111.5598,765.5,503.5,359.7,0.9,8.8,25.28,39.45,2.0018,377.7637],
    [19317,1532813145,57.1177,-111.5598,764.5,501.5,359.0,1.9,8.2,25.28,39.29,2.0146,376.9121],
    [19318,1532813146,57.1183,-111.5598,764.0,501.0,359.3,1.0,8.5,25.23,39.43,2.0152,376.8477],
    [19319,1532813147,57.1189,-111.5598,762.4,499.4,360.7,0.3,8.1,25.26,39.44,2.0205,376.7405],
    [19320,1532813148,57.1196,-111.5598,761.2,498.2,359.3,1.8,8.0,24.74,39.42,2.0182,376.7623],
    [19321,1532813149,57.1202,-111.5598,760.5,496.8,359.7,1.5,7.8,25.0,39.54,2.0232,376.3891],
    [19322,1532813150,57.1209,-111.5597,759.8,494.7,359.2,2.0,7.7,25.59,39.14,2.0286,377.098],
    [19323,1532813151,57.1215,-111.5597,758.8,493.6,359.1,1.9,7.3,24.88,39.61,2.0263,376.0374],
    [19324,1532813152,57.1222,-111.5597,757.9,491.9,358.8,1.7,5.9,24.84,39.69,1.9733,377.3673],
    [19325,1532813153,57.1228,-111.5597,756.9,490.9,357.8,2.4,5.4,25.49,39.35,1.9541,377.6217],
    [19326,1532813154,57.1235,-111.5597,756.2,490.2,357.7,2.1,5.5,25.08,39.66,1.9402,377.6353],
    [19327,1532813155,57.1241,-111.5597,756.0,490.0,358.2,1.6,5.0,25.29,40.48,1.9458,377.9974],
    [19328,1532813156,57.1248,-111.5597,756.7,490.7,357.8,2.3,4.2,25.26,40.13,1.9765,377.9974],
    [19329,1532813157,57.1254,-111.5597,758.5,492.5,358.0,2.1,2.9,25.23,40.42,2.0224,377.9788],
    [19330,1532813158,57.126,-111.5597,761.4,494.7,357.9,2.4,2.1,25.6,39.3,2.0178,378.4317],
    [19331,1532813159,57.1266,-111.5598,763.8,496.8,357.6,2.7,2.1,25.42,39.53,2.013,378.4317],
    [19332,1532813160,57.1273,-111.5598,766.2,499.2,358.0,2.2,2.0,25.41,39.96,1.9752,377.9167],
    [19333,1532813161,57.1279,-111.5598,769.2,502.2,357.9,2.3,1.4,25.93,38.95,1.9437,378.7937],
    [19334,1532813162,57.1285,-111.5598,772.8,505.8,357.3,2.8,0.8,24.51,39.75,1.9443,377.3986],
    [19335,1532813163,57.1291,-111.5598,775.8,508.8,357.1,2.4,0.4,25.1,39.68,1.9589,377.0141],
    [19336,1532813164,57.1297,-111.5598,777.7,510.7,357.7,1.5,0.0,25.25,39.6,1.9687,377.991],
    [19337,1532813165,57.1303,-111.5598,779.6,512.9,357.6,1.2,0.2,24.48,39.78,1.9693,377.991],
    [19338,1532813166,57.1309,-111.5598,781.0,515.1,358.3,0.6,0.1,25.49,39.58,1.9798,376.615],
    [19339,1532813167,57.1316,-111.5599,781.8,515.0,357.7,1.6,-0.3,25.37,39.81,1.9874,376.615],
    [19340,1532813168,57.1322,-111.5599,782.8,515.8,357.5,1.6,0.4,25.54,39.83,2.0014,376.3038],
    [19341,1532813169,57.1327,-111.5599,783.5,516.5,357.5,1.9,0.6,25.25,40.12,1.9931,377.244],
    [19342,1532813170,57.1334,-111.5599,784.6,517.6,357.9,1.6,1.0,25.87,39.84,1.9891,376.4798],
    [19343,1532813171,57.134,-111.5599,786.3,519.3,358.6,1.5,1.2,24.57,40.25,1.9852,377.0311],
    [19344,1532813172,57.1346,-111.5599,787.6,519.6,357.7,2.5,1.2,25.2,40.42,1.975,377.0311],
    [19345,1532813173,57.1352,-111.5599,788.3,520.3,357.7,2.7,1.1,25.04,40.22,1.9895,377.2489],
    [19346,1532813174,57.1358,-111.5599,789.1,520.4,357.1,3.3,0.6,24.73,40.3,1.9861,377.1165],
    [19347,1532813175,57.1364,-111.5599,789.8,520.7,356.7,3.5,0.8,25.09,41.23,1.9684,377.0048],
    [19348,1532813176,57.1369,-111.5599,790.3,521.5,356.6,3.3,0.6,25.6,40.19,1.9633,376.9778],
    [19349,1532813177,57.1375,-111.56,791.0,522.3,356.1,3.2,0.0,25.28,40.6,1.9588,377.3928],
    [19350,1532813178,57.1381,-111.56,791.3,522.2,355.4,3.3,-0.8,25.02,41.02,1.9357,377.5963],
    [19351,1532813179,57.1387,-111.56,791.1,522.1,354.5,3.7,-1.4,25.13,41.4,1.9349,377.3734],
    [19352,1532813180,57.1393,-111.5601,791.5,521.5,355.4,2.2,-1.8,25.53,40.67,1.9364,377.2149],
    [19353,1532813181,57.1399,-111.5601,792.6,521.4,356.6,1.1,-1.5,25.3,40.35,1.9333,376.9236],
    [19354,1532813182,57.1405,-111.5602,794.1,522.0,355.4,1.7,-1.1,25.12,40.31,1.9355,376.9236],
    [19355,1532813183,57.1411,-111.5603,796.5,523.5,354.0,0.6,-1.3,25.15,40.67,1.9368,377.3824],
    [19356,1532813184,57.1417,-111.5604,798.5,525.5,349.6,1.4,-1.2,25.46,40.25,1.9542,377.5961],
    [19357,1532813185,57.1423,-111.5606,799.8,526.8,342.9,3.0,0.2,25.92,39.63,1.9581,376.8941],
    [19358,1532813186,57.1429,-111.561,799.9,526.9,337.8,2.9,1.6,25.87,40.11,1.949,376.9566],
    [19359,1532813187,57.1434,-111.5614,799.9,526.9,332.3,2.8,2.2,25.77,40.01,1.9487,376.4741],
    [19360,1532813188,57.144,-111.5619,799.8,526.8,328.1,2.5,2.2,25.15,40.77,1.9682,376.1358],
    [19361,1532813189,57.1445,-111.5625,798.0,524.0,323.7,3.4,2.0,25.01,41.72,1.9707,376.6446],
    [19362,1532813190,57.145,-111.5631,795.8,523.0,319.6,3.8,1.7,24.93,40.8,1.9681,376.9763],
    [19363,1532813191,57.1455,-111.5638,793.8,522.8,314.9,4.4,2.1,25.09,40.93,1.9745,375.7121],
    [19364,1532813192,57.1459,-111.5646,791.9,521.3,311.2,4.3,2.4,25.36,41.1,1.9733,377.522],
    [19365,1532813193,57.1463,-111.5654,791.5,521.5,307.9,4.1,1.7,24.72,41.0,1.9714,376.7274],
    [19366,1532813194,57.1467,-111.5662,792.6,523.9,304.5,4.3,1.3,25.2,41.57,1.9783,376.4294],
    [19367,1532813195,57.147,-111.5671,794.2,527.2,302.5,4.3,0.5,25.29,41.03,1.9711,376.4243],
    [19368,1532813196,57.1474,-111.5681,794.4,528.0,299.4,4.8,0.9,25.29,40.9,1.9726,376.4516],
    [19369,1532813197,57.1477,-111.569,793.6,529.6,296.7,5.2,0.7,25.4,40.99,1.9855,376.6058],
    [19370,1532813198,57.148,-111.57,792.7,532.1,293.8,5.8,0.8,24.92,41.92,1.9855,376.6329],
    [19371,1532813199,57.1482,-111.571,792.2,528.5,290.7,6.1,1.8,25.05,41.3,1.9859,377.3335],
    [19372,1532813200,57.1484,-111.572,791.8,523.4,288.6,6.0,1.8,25.18,41.07,1.9863,375.6303],
    [19373,1532813201,57.1486,-111.573,791.5,522.5,287.3,5.4,1.3,25.85,40.86,1.9803,375.8152],
    [19374,1532813202,57.1488,-111.574,791.3,521.4,284.9,5.8,1.8,25.57,40.76,1.965,375.9111],
    [19375,1532813203,57.149,-111.575,791.1,522.5,282.4,5.8,1.9,25.28,41.07,1.9505,377.1451],
    [19376,1532813204,57.1491,-111.5761,791.6,521.7,279.5,5.8,2.1,24.99,41.24,1.9443,376.0804],
    [19377,1532813205,57.1492,-111.5772,794.0,523.0,275.6,6.4,3.6,25.39,40.91,1.9389,376.1977],
    [19378,1532813206,57.1493,-111.5782,797.2,525.2,273.3,6.8,4.2,25.19,41.26,1.9377,378.2727],
    [19379,1532813207,57.1494,-111.5793,799.2,527.2,273.2,6.5,3.1,24.66,40.83,1.9368,378.0953],
    [19380,1532813208,57.1495,-111.5803,799.9,527.9,272.5,6.0,3.1,25.25,40.47,1.9368,378.1701],
    [19381,1532813209,57.1495,-111.5814,800.9,528.9,270.5,5.7,4.6,25.05,40.58,1.9373,378.0141],
    [19382,1532813210,57.1495,-111.5825,801.8,529.8,270.9,4.9,3.4,25.17,40.94,1.9392,378.8189],
    [19383,1532813211,57.1496,-111.5836,802.4,530.4,271.6,4.2,2.3,24.87,40.5,1.9369,377.8074],
    [19384,1532813212,57.1496,-111.5846,802.0,530.0,270.2,4.0,3.2,25.02,40.46,1.9353,377.9948],
    [19385,1532813213,57.1496,-111.5857,801.4,529.4,269.9,3.6,3.0,25.2,40.85,1.9349,377.0369],
    [19386,1532813214,57.1497,-111.5868,800.8,528.8,268.5,3.0,3.7,25.24,40.59,1.934,377.2563],
    [19387,1532813215,57.1497,-111.5879,800.5,528.5,268.6,3.0,3.0,25.04,40.65,1.9331,377.4437],
    [19388,1532813216,57.1497,-111.5889,800.9,530.0,268.6,3.2,3.2,25.19,41.0,1.9334,377.0731],
    [19389,1532813217,57.1497,-111.59,802.3,532.3,267.9,3.7,4.0,25.21,40.8,1.9328,376.9613],
    [19390,1532813218,57.1497,-111.5911,804.0,535.0,267.8,3.9,3.9,24.44,40.44,1.9329,377.4146],
    [19391,1532813219,57.1497,-111.5922,805.5,536.5,267.6,4.2,3.9,24.67,40.85,1.9326,377.4146],
    [19392,1532813220,57.1497,-111.5933,807.4,539.3,266.8,4.8,4.4,25.37,40.41,1.9343,377.0684],
    [19393,1532813221,57.1497,-111.5944,809.9,542.9,267.4,4.7,3.6,25.29,40.31,1.934,376.8571],
    [19394,1532813222,57.1497,-111.5954,811.3,544.3,267.3,4.4,3.5,25.07,40.47,1.9346,377.1278],
    [19395,1532813223,57.1497,-111.5965,812.1,543.8,267.1,3.5,3.4,25.55,39.77,1.9351,377.1002],
    [19396,1532813224,57.1497,-111.5976,811.8,542.0,267.3,2.9,3.0,25.43,40.18,1.9362,377.5004],
    [19397,1532813225,57.1497,-111.5987,809.7,539.7,267.2,3.4,3.1,25.69,39.69,1.9367,378.1673],
    [19398,1532813226,57.1497,-111.5998,807.0,536.0,267.4,4.1,2.8,25.27,40.82,1.9363,377.1103],
    [19399,1532813227,57.1497,-111.6009,804.5,533.4,267.8,4.9,2.4,25.29,40.67,1.936,377.8719],
    [19400,1532813228,57.1497,-111.6019,801.7,532.6,267.9,4.5,2.3,25.38,40.6,1.9358,376.7173],
    [19401,1532813229,57.1497,-111.603,798.5,531.4,268.1,2.9,2.2,25.38,40.15,1.935,377.1617],
    [19402,1532813230,57.1497,-111.6042,795.0,531.7,267.6,1.5,2.7,25.76,39.5,1.9343,377.345],
    [19403,1532813231,57.1497,-111.6053,791.8,533.4,268.2,1.0,1.5,24.91,40.02,1.934,376.8831],
    [19404,1532813232,57.1497,-111.6064,788.6,534.6,268.2,0.8,1.2,25.2,40.24,1.9343,378.0186],
    [19405,1532813233,57.1497,-111.6075,785.2,534.6,267.0,-0.8,2.1,25.67,39.93,1.9355,378.0186],
    [19406,1532813234,57.1497,-111.6086,781.7,534.7,267.6,-2.7,1.3,25.71,39.53,1.9348,375.5906],
    [19407,1532813235,57.1497,-111.6098,778.0,532.3,268.0,-2.8,1.1,25.36,40.31,1.9344,376.3817],
    [19408,1532813236,57.1497,-111.6109,775.6,533.2,268.2,-1.4,1.7,24.85,40.48,1.934,376.8614],
    [19409,1532813237,57.1497,-111.612,774.2,535.2,269.5,-0.7,1.3,25.39,40.48,1.9348,377.5382],
    [19410,1532813238,57.1497,-111.6132,773.3,535.6,270.7,0.4,1.1,25.49,40.42,1.9351,376.8112],
    [19411,1532813239,57.1497,-111.6143,773.2,536.2,271.1,0.6,1.6,25.7,40.05,1.9338,376.8975],
    [19412,1532813240,57.1497,-111.6154,773.5,536.5,270.9,-0.4,2.1,25.16,40.66,1.9341,376.8975],
    [19413,1532813241,57.1498,-111.6166,773.7,537.7,271.0,-1.1,2.2,25.27,40.77,1.9346,377.2889],
    [19414,1532813242,57.1498,-111.6177,773.7,537.7,270.4,-2.4,2.7,25.71,40.19,1.9342,376.4292],
    [19415,1532813243,57.1498,-111.6189,773.4,538.5,270.5,-2.0,2.4,25.29,40.76,1.9375,378.2324],
    [19416,1532813244,57.1498,-111.62,773.3,539.3,269.8,-0.5,2.6,25.36,40.73,1.9361,377.9377],
    [19417,1532813245,57.1499,-111.6211,772.8,538.8,269.8,0.5,2.1,25.32,41.3,1.9369,377.7613],
    [19418,1532813246,57.1499,-111.6222,771.6,537.5,269.3,0.9,2.1,25.23,40.78,1.9335,376.6736],
    [19419,1532813247,57.1499,-111.6234,769.8,534.8,268.7,0.9,2.0,25.64,40.52,1.9339,376.8383],
    [19420,1532813248,57.1499,-111.6245,768.1,533.1,267.8,0.4,2.7,25.51,40.66,1.9342,376.9982],
    [19421,1532813249,57.1499,-111.6256,766.5,528.4,268.1,0.0,2.2,25.23,41.15,1.9341,377.5753],
    [19422,1532813250,57.1499,-111.6267,765.7,525.0,268.1,0.5,2.9,24.74,41.21,1.9352,377.0307],
    [19423,1532813251,57.1499,-111.6278,765.7,521.7,267.6,0.6,3.9,24.59,41.58,1.9353,375.2952],
    [19424,1532813252,57.1499,-111.629,766.1,522.6,268.7,0.1,3.3,25.41,41.36,1.9331,376.4603],
    [19425,1532813253,57.1499,-111.6301,767.3,524.6,267.6,-1.1,4.6,25.75,40.99,1.933,376.2568],
    [19426,1532813254,57.1499,-111.6312,768.2,525.5,268.2,-1.9,3.7,25.57,40.95,1.9324,376.2444],
    [19427,1532813255,57.15,-111.6323,769.6,526.6,268.6,-1.9,3.4,25.29,41.77,1.9327,377.7117],
    [19428,1532813256,57.15,-111.6334,771.3,524.1,268.8,-1.7,3.3,25.19,41.93,1.9324,377.3651],
    [19429,1532813257,57.15,-111.6346,771.3,518.3,269.6,-1.6,2.5,25.14,41.28,1.931,376.9881],
    [19430,1532813258,57.15,-111.6357,771.8,515.1,269.7,-2.0,2.1,25.38,41.14,1.9358,377.7199],
    [19431,1532813259,57.15,-111.6368,773.2,512.3,269.7,-2.0,1.8,24.55,41.46,1.9325,377.6717],
    [19432,1532813260,57.15,-111.6379,774.1,511.8,268.3,-2.4,3.1,25.06,41.71,1.9304,376.2897],
    [19433,1532813261,57.15,-111.639,775.6,511.6,267.6,-3.3,3.3,25.12,41.04,1.9306,377.8215],
    [19434,1532813262,57.15,-111.6402,776.5,510.4,267.6,-4.2,3.2,25.54,40.43,1.9313,376.9151],
    [19435,1532813263,57.15,-111.6413,777.7,510.4,267.3,-4.2,3.3,25.89,39.79,1.9332,376.9151],
    [19436,1532813264,57.15,-111.6424,778.8,510.8,268.1,-2.9,2.3,24.45,40.28,1.9336,377.406],
    [19437,1532813265,57.1501,-111.6436,780.1,512.1,268.2,-1.7,2.5,25.96,39.86,1.9278,377.2534],
    [19438,1532813266,57.1501,-111.6447,782.2,513.9,268.1,-1.6,2.5,24.72,40.31,1.925,378.0771],
    [19439,1532813267,57.1501,-111.6458,785.5,516.5,268.9,-0.9,1.6,24.62,40.33,1.9247,376.4525],
    [19440,1532813268,57.1501,-111.6469,789.8,519.0,268.2,-1.0,2.5,25.47,39.89,1.9283,377.1004],
    [19441,1532813269,57.1501,-111.648,794.2,521.3,267.9,-1.7,2.6,25.05,40.15,1.9284,376.8666],
    [19442,1532813270,57.1501,-111.6492,797.7,521.4,269.8,-1.0,0.6,24.48,40.31,1.9197,377.5147],
    [19443,1532813271,57.1501,-111.6502,800.6,520.8,269.2,-0.5,1.2,24.71,40.85,1.9203,377.1802],
    [19444,1532813272,57.1501,-111.6514,803.2,520.2,269.0,-0.4,1.2,24.93,40.18,1.922,376.5711],
    [19445,1532813273,57.1501,-111.6525,805.0,518.9,268.8,-0.3,1.4,25.0,39.27,1.9225,376.8172],
    [19446,1532813274,57.1501,-111.6536,806.7,518.0,267.4,0.6,2.5,25.31,39.33,1.9219,376.7748],
    [19447,1532813275,57.1501,-111.6547,809.8,518.8,268.9,1.1,0.5,24.46,38.74,1.9225,376.7748],
    [19448,1532813276,57.1501,-111.6557,812.4,519.3,268.4,0.8,1.2,25.48,38.4,1.9225,378.0333],
    [19449,1532813277,57.15,-111.6568,814.2,520.2,267.3,0.3,1.5,25.08,39.16,1.9227,376.7201],
    [19450,1532813278,57.15,-111.6579,815.4,519.4,268.4,-0.2,-0.4,25.06,38.63,1.922,377.9526],
    [19451,1532813279,57.15,-111.659,815.1,517.0,268.4,-0.6,-0.2,25.43,38.03,1.9211,378.485],
    [19452,1532813280,57.15,-111.6601,813.6,515.6,266.6,-0.9,1.5,25.15,38.74,1.9218,378.2782],
    [19453,1532813281,57.15,-111.6612,812.5,514.5,266.4,-0.8,1.5,25.11,38.95,1.9221,378.5321],
    [19454,1532813282,57.1499,-111.6623,812.4,514.3,267.9,-0.8,0.3,24.96,38.8,1.9217,378.4775],
    [19455,1532813283,57.1499,-111.6633,812.6,514.6,268.7,0.0,0.4,25.04,39.19,1.923,378.208],
    [19456,1532813284,57.1499,-111.6644,812.8,513.8,270.0,0.4,0.1,24.98,38.61,1.9234,378.208],
    [19457,1532813285,57.1499,-111.6655,814.2,513.5,270.5,0.4,0.7,25.75,37.96,1.9235,378.1897],
    [19458,1532813286,57.1499,-111.6666,816.4,514.2,270.5,0.6,1.6,25.0,39.32,1.9233,377.9858],
    [19459,1532813287,57.15,-111.6677,819.8,514.3,271.0,0.8,1.7,24.77,38.77,1.9217,377.6469],
    [19460,1532813288,57.15,-111.6688,823.8,515.8,269.7,1.6,3.8,25.41,38.41,1.9223,377.935],
    [19461,1532813289,57.15,-111.6698,827.4,517.4,268.4,3.2,5.3,25.16,38.71,1.9224,378.2103],
    [19462,1532813290,57.1501,-111.6709,830.5,519.5,269.9,4.1,3.6,25.51,38.73,1.9226,377.0071],
    [19463,1532813291,57.1501,-111.672,833.1,522.1,269.4,3.8,4.2,25.02,39.39,1.9229,376.3502],
    [19464,1532813292,57.1501,-111.6731,835.3,524.3,268.1,3.3,4.9,24.87,39.6,1.9241,377.5339],
    [19465,1532813293,57.1501,-111.6741,837.8,524.8,268.7,3.4,3.7,25.05,39.85,1.9237,378.1527],
    [19466,1532813294,57.1502,-111.6752,841.2,527.2,268.3,3.9,3.6,25.12,39.46,1.921,377.2424],
    [19467,1532813295,57.1502,-111.6762,844.1,530.1,268.2,4.2,3.2,25.37,38.8,1.9152,377.5433],
    [19468,1532813296,57.1502,-111.6773,846.0,532.0,268.2,4.2,2.9,25.96,38.42,1.9104,377.7427],
    [19469,1532813297,57.1502,-111.6783,847.7,532.7,267.9,4.5,3.3,25.34,38.03,1.9118,378.4531],
    [19470,1532813298,57.1502,-111.6794,848.6,533.6,268.1,4.8,2.8,24.6,36.87,1.913,378.8926],
    [19471,1532813299,57.1502,-111.6804,848.1,533.1,267.9,4.6,3.2,25.58,35.57,1.9144,378.7897],
    [19472,1532813300,57.1502,-111.6814,847.2,532.2,266.5,4.1,4.4,25.42,35.29,1.913,378.1671],
    [19473,1532813301,57.1502,-111.6825,846.5,531.5,267.7,4.1,2.7,25.1,35.49,1.9136,380.4259],
    [19474,1532813302,57.1502,-111.6835,845.5,529.5,268.0,4.0,2.5,25.48,34.29,1.913,379.3762],
    [19475,1532813303,57.1502,-111.6846,845.8,529.8,266.8,3.4,4.1,25.14,33.97,1.9119,379.2573],
    [19476,1532813304,57.1502,-111.6856,845.7,528.7,268.9,3.4,1.5,25.11,33.81,1.9138,378.4367],
    [19477,1532813305,57.1502,-111.6867,845.4,527.4,270.3,3.4,0.3,24.76,33.18,1.9135,379.7775],
    [19478,1532813306,57.1502,-111.6877,845.2,527.2,268.2,3.4,2.2,24.93,33.1,1.9132,379.5686],
    [19479,1532813307,57.1502,-111.6888,845.0,526.0,268.2,3.2,2.1,25.43,32.6,1.9129,378.8863],
    [19480,1532813308,57.1502,-111.6898,845.0,526.0,268.4,2.9,2.0,24.96,33.49,1.9151,379.7216],
    [19481,1532813309,57.1502,-111.6909,845.2,525.2,268.0,3.0,2.4,25.31,32.15,1.9128,380.0028],
    [19482,1532813310,57.1502,-111.692,845.5,525.5,267.8,3.2,2.3,25.05,32.79,1.9121,380.3894],
    [19483,1532813311,57.1502,-111.693,845.7,525.7,268.7,2.8,1.6,24.83,32.69,1.9137,380.3894],
    [19484,1532813312,57.1502,-111.6941,846.1,526.1,267.6,2.6,2.5,25.19,33.18,1.9156,379.8419],
    [19485,1532813313,57.1502,-111.6951,845.6,524.6,269.5,2.9,0.5,25.28,32.89,1.9165,379.9845],
    [19486,1532813314,57.1502,-111.6962,845.6,524.6,269.3,2.9,0.9,25.02,33.45,1.9164,380.0532],
    [19487,1532813315,57.1502,-111.6972,846.7,525.7,268.3,2.8,0.8,24.58,32.98,1.9163,379.4237],
    [19488,1532813316,57.1502,-111.6983,846.5,524.5,269.0,3.1,-0.4,25.65,32.5,1.9159,379.9241],
    [19489,1532813317,57.1502,-111.6993,845.6,523.6,266.3,3.1,1.8,24.53,33.41,1.9153,379.4049],
    [19490,1532813318,57.1501,-111.7004,845.0,523.0,266.0,2.5,1.8,25.25,33.09,1.9183,379.4557],
    [19491,1532813319,57.1501,-111.7014,844.6,522.6,267.3,1.9,1.4,25.18,33.38,1.9177,379.8579],
    [19492,1532813320,57.1501,-111.7025,844.1,522.1,266.1,1.2,3.5,24.84,33.74,1.9173,380.5555],
    [19493,1532813321,57.1501,-111.7036,843.3,521.3,267.8,0.1,2.1,25.04,33.71,1.917,379.8727],
    [19494,1532813322,57.1501,-111.7047,843.7,521.7,268.7,-0.7,1.9,25.19,34.52,1.9138,379.5439],
    [19495,1532813323,57.1501,-111.7058,843.7,520.7,268.0,-0.8,2.7,25.14,33.83,1.9146,380.0494],
    [19496,1532813324,57.1501,-111.7068,844.0,521.0,269.0,-0.4,2.2,25.48,33.45,1.9166,380.0494],
    [19497,1532813325,57.1501,-111.7079,844.2,521.2,269.3,0.0,2.4,24.97,33.69,1.9178,378.9542],
    [19498,1532813326,57.1501,-111.709,845.0,522.0,270.1,-0.1,2.3,25.01,34.35,1.9176,379.9284],
    [19499,1532813327,57.1502,-111.7101,847.6,523.6,271.5,-0.8,1.4,25.21,33.39,1.9191,379.9284],
    [19500,1532813328,57.1502,-111.7112,852.2,528.2,272.4,-1.4,0.6,25.53,33.21,1.9168,380.3863],
    [19501,1532813329,57.1502,-111.7123,856.0,532.0,272.1,-1.8,0.7,25.03,34.13,1.9167,379.4773],
    [19502,1532813330,57.1503,-111.7133,858.9,533.9,271.9,-1.9,0.6,24.38,34.29,1.9159,378.7607],
    [19503,1532813331,57.1503,-111.7144,860.2,535.2,270.6,-1.3,2.1,24.67,34.79,1.9163,378.6806],
    [19504,1532813332,57.1503,-111.7155,861.0,536.0,269.0,-1.0,3.4,25.06,34.46,1.9165,377.8339],
    [19505,1532813333,57.1503,-111.7165,861.6,535.6,270.2,-1.0,1.9,24.99,34.67,1.9169,378.5208],
    [19506,1532813334,57.1503,-111.7176,861.6,535.6,269.9,-1.2,2.0,24.65,34.29,1.9145,378.5208],
    [19507,1532813335,57.1504,-111.7187,861.3,535.3,269.3,-1.6,2.1,25.86,33.98,1.9146,379.9235],
    [19508,1532813336,57.1504,-111.7197,860.6,534.6,269.9,-1.9,1.1,24.9,34.5,1.9205,378.52],
    [19509,1532813337,57.1504,-111.7208,859.6,533.6,269.1,-1.7,1.6,24.45,34.65,1.9238,378.52],
    [19510,1532813338,57.1504,-111.7218,858.1,531.1,268.6,-2.1,1.8,25.38,34.62,1.9241,379.3614],
    [19511,1532813339,57.1504,-111.7229,856.3,529.3,268.1,-2.8,1.8,24.73,35.62,1.9216,379.1605],
    [19512,1532813340,57.1504,-111.724,854.5,527.5,267.5,-3.5,2.2,25.88,35.46,1.9216,378.718],
    [19513,1532813341,57.1504,-111.725,852.8,525.8,267.8,-3.6,1.7,25.37,36.9,1.9227,378.5944],
    [19514,1532813342,57.1504,-111.7261,851.9,524.9,268.0,-3.1,1.8,25.16,37.69,1.9222,378.476],
    [19515,1532813343,57.1504,-111.7271,851.1,524.1,267.7,-2.6,2.0,24.81,38.36,1.9219,376.9186],
    [19516,1532813344,57.1504,-111.7282,850.3,523.0,267.8,-2.7,2.1,25.02,38.57,1.9211,377.1803],
    [19517,1532813345,57.1504,-111.7292,849.4,521.4,268.2,-2.7,1.6,24.69,38.8,1.9209,377.3499],
    [19518,1532813346,57.1504,-111.7303,848.5,520.5,268.3,-2.7,1.7,24.98,39.62,1.9226,376.5343],
    [19519,1532813347,57.1504,-111.7313,847.6,519.6,268.4,-2.1,1.7,25.59,38.68,1.9218,377.6078],
    [19520,1532813348,57.1504,-111.7324,847.0,520.0,268.6,-1.6,1.8,25.01,39.14,1.9197,377.7],
    [19521,1532813349,57.1504,-111.7334,846.3,519.3,269.0,-1.2,1.6,24.75,39.53,1.9188,376.8728],
    [19522,1532813350,57.1504,-111.7345,845.4,518.4,269.3,-0.6,1.9,25.53,38.82,1.9156,377.5402],
    [19523,1532813351,57.1504,-111.7355,844.6,517.6,268.9,0.2,2.7,25.92,38.58,1.9154,377.16],
    [19524,1532813352,57.1504,-111.7366,843.6,517.6,270.1,0.3,1.6,25.4,38.13,1.9176,376.254],
    [19525,1532813353,57.1504,-111.7376,842.5,516.5,270.7,-0.6,1.1,25.06,38.25,1.9172,376.877],
    [19526,1532813354,57.1504,-111.7387,841.5,515.5,269.9,-0.8,1.6,25.21,37.55,1.917,377.7971],
    [19527,1532813355,57.1504,-111.7397,841.1,515.1,268.7,-0.6,2.3,25.06,37.4,1.9179,377.2114],
    [19528,1532813356,57.1504,-111.7408,841.1,515.4,268.1,-0.6,2.2,25.45,36.94,1.9207,377.2165],
    [19529,1532813357,57.1504,-111.7418,840.8,515.8,268.0,0.7,1.8,25.77,36.81,1.9183,377.3858],
    [19530,1532813358,57.1504,-111.7429,841.1,516.1,266.6,1.3,3.0,25.28,37.38,1.9177,378.1929],
    [19531,1532813359,57.1504,-111.7439,841.8,516.8,265.9,1.1,3.3,25.54,37.09,1.917,377.93],
    [19532,1532813360,57.1504,-111.7449,842.3,516.4,266.5,0.8,2.5,25.03,37.4,1.9166,377.0297],
    [19533,1532813361,57.1504,-111.746,842.2,516.2,266.5,0.6,2.5,25.66,36.73,1.9192,377.1201],
    [19534,1532813362,57.1504,-111.747,842.0,516.0,267.3,1.3,1.6,24.73,37.04,1.9183,377.8679],
    [19535,1532813363,57.1504,-111.748,841.8,515.6,268.1,1.5,0.8,25.46,36.48,1.918,377.2182],
    [19536,1532813364,57.1504,-111.749,841.9,516.5,267.0,1.0,2.0,24.76,37.07,1.9182,377.6691],
    [19537,1532813365,57.1503,-111.7501,842.0,517.8,266.7,1.4,2.7,25.36,37.0,1.9177,377.0423],
    [19538,1532813366,57.1503,-111.7511,841.8,519.9,267.9,2.7,2.1,24.73,37.5,1.9178,377.7723],
    [19539,1532813367,57.1503,-111.7521,840.7,524.3,268.5,3.4,2.3,24.75,37.51,1.9188,377.7723],
    [19540,1532813368,57.1503,-111.7531,840.1,532.8,269.8,3.8,1.8,25.69,36.91,1.9181,377.205],
    [19541,1532813369,57.1504,-111.7542,840.0,543.1,270.6,3.7,1.6,25.1,37.83,1.9178,378.0245],
    [19542,1532813370,57.1504,-111.7552,840.4,550.0,271.0,3.8,1.4,25.55,36.81,1.9174,379.0941],
    [19543,1532813371,57.1504,-111.7562,841.7,555.7,271.0,4.0,1.6,24.81,37.39,1.9137,379.2126],
    [19544,1532813372,57.1504,-111.7573,843.4,559.5,269.8,5.1,2.5,25.47,36.65,1.9143,378.8397],
    [19545,1532813373,57.1505,-111.7583,844.9,563.0,268.1,7.2,4.1,25.35,35.65,1.9096,379.3521],
    [19546,1532813374,57.1505,-111.7593,846.2,566.8,266.1,7.8,5.6,25.3,35.12,1.9141,379.0589],
    [19547,1532813375,57.1505,-111.7603,847.2,569.2,265.7,7.5,5.1,24.9,34.59,1.9117,378.6468],
    [19548,1532813376,57.1505,-111.7613,847.9,567.9,265.5,7.5,4.9,25.5,33.71,1.9087,380.1404],
    [19549,1532813377,57.1505,-111.7623,848.3,567.3,265.3,7.2,5.1,24.73,33.51,1.9096,380.2993],
    [19550,1532813378,57.1505,-111.7633,848.3,568.6,265.1,6.8,5.0,24.89,32.74,1.9136,379.9396],
    [19551,1532813379,57.1504,-111.7643,848.1,570.8,265.2,6.4,4.9,25.25,31.72,1.9126,379.9455],
    [19552,1532813380,57.1504,-111.7654,848.0,571.0,265.3,5.4,4.4,24.85,31.93,1.906,380.6601],
    [19553,1532813381,57.1504,-111.7663,848.3,570.3,265.2,4.7,4.4,25.0,32.23,1.9014,380.6601],
    [19554,1532813382,57.1504,-111.7674,848.7,567.7,265.1,4.4,4.3,24.95,30.54,1.8971,381.6099],
    [19555,1532813383,57.1504,-111.7684,849.4,565.7,265.0,3.9,4.4,24.83,29.46,1.897,382.4392],
    [19556,1532813384,57.1504,-111.7695,850.5,564.5,265.0,3.6,4.5,25.61,27.33,1.8986,382.6476],
    [19557,1532813385,57.1504,-111.7705,851.5,562.5,265.1,3.5,4.7,25.52,25.5,1.9038,383.4933],
    [19558,1532813386,57.1504,-111.7715,852.3,561.2,265.0,3.4,5.4,24.94,24.97,1.9047,383.8482],
    [19559,1532813387,57.1504,-111.7726,854.7,562.7,264.9,3.2,5.7,24.85,25.37,1.9062,383.9828],
    [19560,1532813388,57.1504,-111.7736,857.2,566.2,265.7,2.8,4.8,24.88,24.14,1.9063,383.9935],
    [19561,1532813389,57.1504,-111.7746,859.4,568.4,266.7,2.6,4.1,25.0,24.64,1.9116,383.3932],
    [19562,1532813390,57.1504,-111.7757,861.8,570.8,266.3,2.3,4.5,25.58,24.22,1.9149,382.3295],
    [19563,1532813391,57.1504,-111.7767,863.9,571.9,266.2,2.1,4.7,25.22,25.04,1.9193,382.8917],
    [19564,1532813392,57.1504,-111.7777,866.2,572.6,266.1,2.3,4.6,25.73,25.73,1.9205,381.0746],
    [19565,1532813393,57.1504,-111.7788,868.6,571.6,267.4,1.8,3.1,25.09,27.66,1.9196,381.0746],
    [19566,1532813394,57.1504,-111.7798,871.5,567.0,268.2,1.3,2.4,24.71,28.68,1.9156,381.004],
    [19567,1532813395,57.1504,-111.7809,875.2,563.6,267.8,1.4,2.8,25.1,30.03,1.9106,381.8058],
    [19568,1532813396,57.1504,-111.7819,879.3,561.6,266.5,1.5,3.9,25.62,30.05,1.9092,382.1712],
    [19569,1532813397,57.1504,-111.7829,882.9,559.9,265.6,1.5,4.3,25.2,30.25,1.9085,380.979],
    [19570,1532813398,57.1504,-111.784,885.6,559.3,265.9,2.2,3.6,24.79,30.07,1.9089,381.5979],
    [19571,1532813399,57.1504,-111.785,887.1,560.1,266.5,2.8,2.6,25.04,29.59,1.9078,381.1449],
    [19572,1532813400,57.1504,-111.7861,887.7,560.7,266.6,2.5,2.5,25.25,29.04,1.9107,382.1004],
    [19573,1532813401,57.1503,-111.7871,887.4,559.4,266.2,2.4,3.2,25.25,28.8,1.9049,383.5579],
    [19574,1532813402,57.1503,-111.7882,886.1,557.1,266.6,1.6,2.6,24.96,28.61,1.8996,383.5579],
    [19575,1532813403,57.1503,-111.7892,884.6,555.6,267.4,0.7,1.9,24.79,28.18,1.8975,383.8381],
    [19576,1532813404,57.1503,-111.7903,882.5,552.5,267.1,0.1,2.6,24.87,26.79,1.9047,383.3874],
    [19577,1532813405,57.1503,-111.7914,880.5,550.5,267.7,-0.4,2.1,25.07,25.42,1.9108,382.1354],
    [19578,1532813406,57.1503,-111.7924,880.0,550.0,267.5,-0.5,2.6,25.64,24.21,1.9159,382.0914],
    [19579,1532813407,57.1503,-111.7935,880.5,550.5,266.5,-0.5,3.6,25.3,24.48,1.9159,382.7254],
    [19580,1532813408,57.1503,-111.7946,880.1,550.1,267.7,-0.7,2.1,26.19,24.81,1.9049,383.5732],
    [19581,1532813409,57.1503,-111.7956,878.7,547.7,268.6,-1.2,1.0,25.55,25.83,1.9144,382.4265],
    [19582,1532813410,57.1503,-111.7967,877.4,546.4,268.9,-1.9,0.8,24.99,26.29,1.9202,381.5255],
    [19583,1532813411,57.1503,-111.7978,877.2,546.2,268.8,-2.5,1.5,25.55,26.84,1.9209,382.0855],
    [19584,1532813412,57.1503,-111.7988,877.4,546.4,269.5,-2.4,1.0,25.45,28.22,1.9208,380.9353],
    [19585,1532813413,57.1503,-111.7999,877.3,546.3,269.5,-1.4,0.0,26.16,28.84,1.9186,380.3472],
    [19586,1532813414,57.1503,-111.801,877.4,546.4,266.4,-0.8,0.4,26.11,30.46,1.9193,381.541],
    [19587,1532813415,57.1502,-111.802,877.2,546.2,261.1,0.3,1.8,25.29,32.19,1.9176,379.5543],
    [19588,1532813416,57.1501,-111.803,877.3,545.6,256.3,1.7,1.9,25.91,31.96,1.916,379.5193],
    [19589,1532813417,57.15,-111.804,877.6,545.6,252.0,1.6,1.9,25.22,33.26,1.916,379.358],
    [19590,1532813418,57.1498,-111.805,876.5,544.5,248.1,1.8,1.6,25.39,32.95,1.9147,379.0795],
    [19591,1532813419,57.1496,-111.806,875.2,543.2,244.7,2.2,1.2,25.88,32.92,1.9153,379.6315],
    [19592,1532813420,57.1493,-111.8069,874.2,542.2,240.5,2.0,1.5,25.58,32.71,1.9162,379.7539],
    [19593,1532813421,57.149,-111.8078,873.2,541.2,237.2,2.4,1.2,25.64,33.1,1.9157,379.348],
    [19594,1532813422,57.1487,-111.8086,872.0,540.0,233.8,3.4,1.8,25.43,33.01,1.9176,379.1703],
    [19595,1532813423,57.1484,-111.8094,870.8,538.8,230.1,2.8,1.9,25.42,33.27,1.9171,379.9996],
    [19596,1532813424,57.148,-111.8102,869.9,537.9,227.5,2.7,1.2,25.26,33.18,1.9153,379.9771],
    [19597,1532813425,57.1476,-111.8109,869.3,537.3,224.4,2.5,1.6,25.19,33.32,1.9186,379.3262],
    [19598,1532813426,57.1472,-111.8116,868.6,536.6,221.4,1.9,1.8,24.52,33.73,1.9183,379.3262],
    [19599,1532813427,57.1468,-111.8122,868.1,536.1,218.9,1.5,2.2,24.97,34.4,1.9192,378.964],
    [19600,1532813428,57.1463,-111.8129,867.4,534.4,217.5,2.6,3.5,25.76,34.26,1.9161,378.8468],
    [19601,1532813429,57.1459,-111.8135,866.1,533.1,216.5,3.3,4.1,25.83,34.16,1.9164,378.0594],
    [19602,1532813430,57.1455,-111.8141,864.7,531.7,215.9,3.7,3.8,25.06,34.84,1.9153,378.0757],
    [19603,1532813431,57.145,-111.8146,863.2,529.2,215.4,3.8,3.7,25.75,34.53,1.9146,378.2768],
    [19604,1532813432,57.1445,-111.8152,860.6,526.6,214.7,4.0,3.2,25.22,34.49,1.9159,378.9272],
    [19605,1532813433,57.1441,-111.8157,857.7,523.7,214.7,4.8,2.2,25.07,34.43,1.9147,378.9342],
    [19606,1532813434,57.1436,-111.8163,854.9,520.9,212.7,4.0,2.2,25.24,34.86,1.9135,378.8688],
    [19607,1532813435,57.1431,-111.8168,853.1,519.1,209.8,2.9,2.7,24.99,34.04,1.9182,378.9475],
    [19608,1532813436,57.1426,-111.8173,852.2,518.2,207.6,3.3,2.9,25.84,33.3,1.9225,379.7311],
    [19609,1532813437,57.1421,-111.8177,851.6,517.6,206.9,4.9,2.4,25.4,33.96,1.9213,379.2791],
    [19610,1532813438,57.1416,-111.8181,852.2,518.2,204.6,4.6,2.2,25.25,35.4,1.9202,377.6607],
    [19611,1532813439,57.1411,-111.8184,853.0,519.0,202.5,4.2,1.6,24.79,35.08,1.9192,378.1808],
    [19612,1532813440,57.1406,-111.8188,853.8,519.8,200.1,3.5,1.6,24.89,35.55,1.9171,378.0926],
    [19613,1532813441,57.14,-111.8191,854.5,520.5,197.6,3.1,2.6,25.12,35.79,1.9168,379.1628],
    [19614,1532813442,57.1395,-111.8193,854.7,520.0,196.1,3.2,3.1,24.96,35.85,1.9171,379.7361],
    [19615,1532813443,57.139,-111.8195,854.1,519.1,193.9,2.8,3.3,25.29,35.41,1.9176,379.7361],
    [19616,1532813444,57.1384,-111.8197,852.9,517.9,192.8,3.2,3.7,26.01,35.48,1.9201,378.0666],
    [19617,1532813445,57.1379,-111.8199,851.8,516.8,191.5,3.6,4.7,25.74,35.49,1.9179,378.45],
    [19618,1532813446,57.1374,-111.82,850.6,515.6,190.9,4.6,6.0,25.06,35.96,1.9179,378.6349],
    [19619,1532813447,57.1368,-111.8202,848.8,513.8,188.9,3.2,6.1,24.96,36.64,1.9192,379.3309],
    [19620,1532813448,57.1363,-111.8203,846.0,511.0,185.7,1.0,5.2,25.08,36.41,1.9175,378.7889],
    [19621,1532813449,57.1357,-111.8204,843.1,508.1,185.8,2.2,4.5,25.16,36.64,1.9161,378.0509],
    [19622,1532813450,57.1352,-111.8204,841.3,506.3,185.6,2.8,4.5,25.15,36.93,1.9185,379.8002],
    [19623,1532813451,57.1346,-111.8205,840.2,505.2,185.5,3.2,5.1,25.0,36.36,1.9198,378.4949],
    [19624,1532813452,57.1341,-111.8205,839.7,504.7,184.6,2.6,5.4,24.55,36.33,1.92,378.6874],
    [19625,1532813453,57.1335,-111.8206,840.0,504.7,184.6,3.2,5.6,25.18,35.84,1.9178,378.2357],
    [19626,1532813454,57.133,-111.8206,840.9,504.9,184.2,3.1,5.2,25.09,36.57,1.9169,379.3774],
    [19627,1532813455,57.1324,-111.8206,842.0,506.0,181.7,1.5,4.6,25.15,36.0,1.9164,378.1259],
    [19628,1532813456,57.1318,-111.8206,842.9,506.9,182.2,2.9,4.4,24.99,37.13,1.9169,378.1146],
    [19629,1532813457,57.1313,-111.8206,844.0,508.0,181.4,2.5,3.6,25.85,35.07,1.9164,378.1097],
    [19630,1532813458,57.1307,-111.8206,845.5,509.5,180.5,1.9,4.6,25.11,36.3,1.9172,378.157],
    [19631,1532813459,57.1301,-111.8206,847.0,511.0,182.1,3.7,5.9,25.26,34.95,1.9184,379.0465],
    [19632,1532813460,57.1296,-111.8206,849.9,513.9,182.3,3.4,6.2,25.95,34.84,1.9215,379.5308],
    [19633,1532813461,57.129,-111.8206,854.3,518.3,181.8,2.8,6.6,25.32,35.17,1.9211,379.3625],
    [19634,1532813462,57.1284,-111.8205,859.7,523.7,180.5,1.2,7.2,25.08,36.27,1.9212,379.5769],
    [19635,1532813463,57.1278,-111.8205,864.4,528.4,179.2,0.2,7.5,25.06,36.68,1.9218,378.6167],
    [19636,1532813464,57.1273,-111.8205,868.7,533.7,180.4,2.0,7.7,24.98,37.7,1.9221,378.7928],
    [19637,1532813465,57.1267,-111.8205,872.4,537.4,180.9,2.4,7.6,25.77,36.21,1.9202,379.0412],
    [19638,1532813466,57.1262,-111.8205,876.5,541.5,180.3,1.9,7.8,25.14,36.89,1.9212,377.6178],
    [19639,1532813467,57.1256,-111.8204,880.3,545.3,181.1,2.5,7.8,24.86,37.19,1.9207,378.2882],
    [19640,1532813468,57.125,-111.8204,883.2,548.2,180.8,2.1,7.6,25.15,37.32,1.9213,378.9735],
    [19641,1532813469,57.1244,-111.8204,884.8,550.8,181.9,3.2,7.6,25.16,37.86,1.9211,376.7382],
    [19642,1532813470,57.1239,-111.8204,884.9,549.9,181.4,2.7,7.1,24.3,37.54,1.9193,378.0451],
    [19643,1532813471,57.1233,-111.8204,885.4,550.4,180.9,2.5,6.6,24.84,37.52,1.9208,377.9795],
    [19644,1532813472,57.1228,-111.8204,885.7,550.7,179.8,1.4,6.5,25.69,36.74,1.9217,377.4619],
    [19645,1532813473,57.1222,-111.8203,887.1,552.1,178.1,0.1,7.2,25.01,37.7,1.9202,377.419],
    [19646,1532813474,57.1216,-111.8203,888.9,553.9,178.9,1.5,7.5,24.81,37.44,1.9209,377.3091],
    [19647,1532813475,57.1211,-111.8202,891.2,556.2,177.9,0.8,7.4,24.63,37.44,1.9205,377.8682],
    [19648,1532813476,57.1205,-111.8202,893.4,558.4,176.9,0.2,7.9,25.03,37.36,1.9188,378.7558],
    [19649,1532813477,57.12,-111.8201,893.1,558.1,177.3,0.5,8.7,25.03,37.0,1.9187,378.7558],
    [19650,1532813478,57.1194,-111.82,890.9,556.8,177.4,0.7,8.5,25.77,36.42,1.9159,378.5475],
    [19651,1532813479,57.1189,-111.82,887.7,554.7,178.9,2.0,7.5,25.43,36.46,1.9175,379.4524],
    [19652,1532813480,57.1183,-111.8199,885.4,552.4,179.3,1.4,6.9,24.88,36.11,1.9153,379.0222],
    [19653,1532813481,57.1177,-111.8199,884.5,552.3,180.1,1.4,6.0,25.29,35.55,1.9144,378.977],
    [19654,1532813482,57.1172,-111.8199,884.6,552.6,180.5,1.6,5.3,25.06,35.48,1.9161,377.8396],
    [19655,1532813483,57.1166,-111.8199,884.5,552.5,180.6,1.2,4.9,25.18,34.98,1.9177,378.6485],
    [19656,1532813484,57.116,-111.8199,883.5,551.5,180.4,0.7,3.7,24.45,35.16,1.9203,380.2429],
    [19657,1532813485,57.1154,-111.8199,883.1,551.1,181.5,1.7,2.8,24.5,35.14,1.9191,380.0312],
    [19658,1532813486,57.1148,-111.8199,882.8,550.8,181.1,1.2,2.8,25.09,35.84,1.9196,380.3146],
    [19659,1532813487,57.1143,-111.8199,882.2,550.2,180.7,1.0,2.4,25.11,36.44,1.9202,380.3146],
    [19660,1532813488,57.1137,-111.8199,882.0,549.7,181.1,1.8,1.9,25.3,36.07,1.9202,379.5818],
    [19661,1532813489,57.1131,-111.8198,881.1,548.1,181.4,2.3,1.7,24.78,36.23,1.9187,379.8322],
    [19662,1532813490,57.1125,-111.8198,880.1,547.1,181.2,2.4,2.0,25.08,36.53,1.9186,379.9389],
    [19663,1532813491,57.1119,-111.8198,878.3,545.3,181.0,1.9,2.5,25.13,36.2,1.9171,379.2132],
    [19664,1532813492,57.1113,-111.8198,876.7,543.7,180.4,1.7,2.9,24.64,36.17,1.918,378.9682],
    [19665,1532813493,57.1107,-111.8198,873.5,540.5,183.4,4.8,2.6,25.43,35.58,1.9193,379.2791],
    [19666,1532813494,57.1101,-111.8198,869.9,536.4,182.4,3.4,2.5,24.98,35.81,1.9203,379.4321],
    [19667,1532813495,57.1095,-111.8198,866.7,532.7,181.3,2.7,1.9,25.42,36.05,1.9201,380.0189],
    [19668,1532813496,57.1089,-111.8197,864.6,530.6,181.0,2.7,1.3,25.51,35.63,1.9201,379.3591],
    [19669,1532813497,57.1083,-111.8197,863.7,529.7,181.1,2.5,1.4,25.32,35.65,1.9192,379.8913],
    [19670,1532813498,57.1077,-111.8197,862.7,528.7,180.7,1.9,1.1,24.55,36.18,1.9194,379.9613],
    [19671,1532813499,57.1071,-111.8197,861.3,527.3,181.4,2.4,0.7,25.01,35.82,1.9193,381.464],
    [19672,1532813500,57.1065,-111.8197,859.7,525.0,181.3,2.1,0.8,25.47,35.39,1.9184,381.0237],
    [19673,1532813501,57.1059,-111.8197,857.8,522.8,182.0,3.0,0.6,25.17,35.73,1.9201,379.4319],
    [19674,1532813502,57.1053,-111.8197,855.8,520.8,182.1,2.9,0.4,25.19,36.42,1.9184,380.495],
    [19675,1532813503,57.1047,-111.8196,855.0,520.0,181.4,2.1,-0.1,25.19,35.36,1.9172,380.0203],
    [19676,1532813504,57.1041,-111.8196,855.9,520.9,181.6,2.3,0.4,24.81,35.36,1.9186,378.8776],
    [19677,1532813505,57.1035,-111.8196,856.8,521.8,182.0,2.2,0.5,25.34,35.95,1.92,378.8134],
    [19678,1532813506,57.1029,-111.8196,857.8,521.8,182.5,2.3,-0.7,25.18,35.41,1.9208,379.7707],
    [19679,1532813507,57.1022,-111.8197,859.2,523.2,181.6,1.2,-0.4,25.19,35.56,1.9203,378.8486],
    [19680,1532813508,57.1016,-111.8197,860.3,524.3,180.1,0.2,0.1,25.12,36.78,1.9199,378.93],
    [19681,1532813509,57.101,-111.8197,862.2,526.2,180.4,0.8,-0.3,25.18,36.23,1.9196,379.8599],
    [19682,1532813510,57.1004,-111.8197,864.0,527.0,181.2,1.5,-0.1,25.79,35.68,1.9184,378.533],
    [19683,1532813511,57.0998,-111.8197,866.0,529.0,182.3,2.3,0.7,25.56,35.76,1.9181,379.3951],
    [19684,1532813512,57.0992,-111.8197,867.5,530.5,182.7,2.3,0.6,25.3,36.61,1.9181,379.3951],
    [19685,1532813513,57.0986,-111.8197,868.9,531.9,183.0,2.4,0.8,25.94,35.69,1.9194,378.9287],
    [19686,1532813514,57.098,-111.8197,869.9,532.9,182.4,1.7,0.8,25.25,36.11,1.9198,378.9287],
    [19687,1532813515,57.0974,-111.8197,871.5,533.7,182.2,1.4,0.3,25.14,36.13,1.9207,377.9921],
    [19688,1532813516,57.0968,-111.8197,872.9,534.9,183.3,2.5,0.6,25.2,35.98,1.919,378.4538],
    [19689,1532813517,57.0962,-111.8198,873.9,535.9,184.4,3.4,1.4,25.8,35.34,1.9198,378.7965],
    [19690,1532813518,57.0956,-111.8198,874.4,536.4,184.9,3.6,0.7,24.97,36.24,1.9195,378.7009],
    [19691,1532813519,57.095,-111.8198,874.9,535.9,184.9,3.0,0.1,25.31,35.8,1.9186,378.4561],
    [19692,1532813520,57.0944,-111.8199,875.1,536.1,185.2,3.4,0.2,25.17,36.17,1.919,377.6085],
    [19693,1532813521,57.0938,-111.8199,876.3,536.3,184.9,2.9,1.2,25.75,35.57,1.9188,378.1434],
    [19694,1532813522,57.0932,-111.82,877.8,537.8,183.7,1.7,1.9,25.11,36.79,1.9179,378.0362],
    [19695,1532813523,57.0926,-111.82,878.9,538.6,184.6,2.5,1.5,25.08,36.46,1.9191,377.5914],
    [19696,1532813524,57.092,-111.8201,879.5,538.5,184.1,2.1,1.9,25.08,37.12,1.9192,378.1497],
    [19697,1532813525,57.0914,-111.8201,879.4,538.4,184.9,3.2,2.5,24.77,36.35,1.9183,377.9382],
    [19698,1532813526,57.0908,-111.8202,878.4,537.4,184.6,2.8,2.4,24.92,35.96,1.9176,377.614],
    [19699,1532813527,57.0902,-111.8202,877.9,537.9,182.1,0.4,2.3,25.49,35.35,1.9172,378.3192],
    [19700,1532813528,57.0896,-111.8202,877.3,537.3,181.8,0.6,1.8,25.47,35.08,1.9171,378.6348],
    [19701,1532813529,57.089,-111.8203,877.2,537.2,182.3,1.3,1.3,25.33,35.25,1.9174,377.8851],
    [19702,1532813530,57.0884,-111.8203,877.5,537.5,183.5,2.7,0.7,25.19,35.35,1.9174,379.0704],
    [19703,1532813531,57.0878,-111.8203,877.3,536.3,185.1,4.2,0.2,24.97,35.73,1.9178,378.2967],
    [19704,1532813532,57.0872,-111.8203,876.1,535.1,184.2,3.2,0.2,25.17,35.82,1.9185,378.2164],
    [19705,1532813533,57.0866,-111.8204,876.1,535.1,182.9,2.1,0.2,25.0,35.32,1.9193,377.9283],
    [19706,1532813534,57.086,-111.8204,875.6,534.6,182.8,2.2,0.5,25.89,35.01,1.9185,377.3958],
    [19707,1532813535,57.0854,-111.8204,874.6,533.6,182.4,1.9,0.4,25.39,35.26,1.9182,377.0424],
    [19708,1532813536,57.0848,-111.8204,873.2,532.2,181.8,1.8,0.2,24.73,35.75,1.9189,378.2461],
    [19709,1532813537,57.0842,-111.8204,871.0,530.0,181.5,1.6,-0.2,25.12,35.94,1.9192,378.1424],
    [19710,1532813538,57.0836,-111.8204,868.8,526.8,182.0,2.7,-0.3,25.18,36.75,1.9179,377.079],
    [19711,1532813539,57.083,-111.8204,867.2,525.2,182.7,3.3,-0.3,25.6,35.67,1.9166,375.9199],
    [19712,1532813540,57.0824,-111.8204,866.6,524.6,181.4,1.8,0.0,25.13,35.96,1.9155,378.0993],
    [19713,1532813541,57.0818,-111.8204,867.1,525.1,181.6,1.7,0.7,25.9,35.42,1.9152,379.1502],
    [19714,1532813542,57.0812,-111.8204,868.0,526.0,182.2,2.0,1.5,25.43,35.44,1.9162,378.6523],
    [19715,1532813543,57.0806,-111.8204,868.2,525.2,181.0,0.8,1.8,25.82,34.99,1.9162,378.0868],
    [19716,1532813544,57.08,-111.8204,869.0,526.0,180.6,0.5,2.0,25.02,35.84,1.9171,377.8644],
    [19717,1532813545,57.0794,-111.8204,870.1,527.1,182.1,2.1,2.2,25.1,35.79,1.9165,378.8107],
    [19718,1532813546,57.0788,-111.8204,870.7,527.7,183.2,2.5,2.1,25.22,35.5,1.9147,378.0827],
    [19719,1532813547,57.0783,-111.8205,871.2,528.2,181.5,-0.1,2.0,24.94,34.76,1.9156,378.8215],
    [19720,1532813548,57.0777,-111.8205,871.6,528.3,183.1,1.7,2.2,25.16,34.42,1.9153,378.8235],
    [19721,1532813549,57.0771,-111.8205,870.1,526.1,184.5,3.1,2.1,25.15,34.23,1.9153,378.6509],
    [19722,1532813550,57.0765,-111.8206,868.4,524.4,182.9,1.8,1.6,25.29,33.92,1.9164,378.7564],
    [19723,1532813551,57.076,-111.8206,868.0,524.0,182.2,1.4,1.6,24.56,34.46,1.9178,378.8205],
    [19724,1532813552,57.0754,-111.8206,867.5,523.5,182.8,2.4,1.7,25.45,34.14,1.9166,378.3861],
    [19725,1532813553,57.0748,-111.8206,867.9,523.9,182.5,2.1,0.9,24.99,35.1,1.9152,377.6973],
    [19726,1532813554,57.0742,-111.8206,867.9,523.4,181.9,1.7,0.5,24.92,35.26,1.9139,379.6229],
    [19727,1532813555,57.0736,-111.8206,867.6,522.6,181.9,2.0,0.2,25.59,34.32,1.9155,377.7441],
    [19728,1532813556,57.073,-111.8206,868.1,523.1,181.7,2.1,0.0,25.67,33.66,1.9149,378.8591],
    [19729,1532813557,57.0724,-111.8206,869.0,524.0,181.5,2.4,-0.5,24.84,34.41,1.9156,378.8591],
    [19730,1532813558,57.0718,-111.8206,870.1,524.6,180.0,1.1,-0.3,24.63,34.91,1.9159,379.0208],
    [19731,1532813559,57.0713,-111.8206,871.1,525.1,179.4,0.6,-0.2,24.5,34.23,1.9128,378.6944],
    [19732,1532813560,57.0707,-111.8206,872.7,526.7,179.3,0.3,-0.5,25.13,34.12,1.9105,379.7721],
    [19733,1532813561,57.0701,-111.8206,874.0,528.0,179.5,0.1,-0.2,25.7,33.18,1.9124,379.4584],
    [19734,1532813562,57.0695,-111.8206,873.9,527.9,182.1,2.6,-0.4,24.78,33.15,1.9163,378.581],
    [19735,1532813563,57.0689,-111.8206,873.8,526.8,183.7,3.5,-0.3,24.4,32.74,1.9167,379.1168],
    [19736,1532813564,57.0683,-111.8206,873.8,526.8,183.2,2.9,0.2,24.81,32.49,1.9151,378.8923],
    [19737,1532813565,57.0677,-111.8206,874.0,527.0,183.0,2.6,0.5,25.12,32.81,1.9127,379.7079],
    [19738,1532813566,57.0671,-111.8206,874.4,526.4,182.9,2.6,0.4,24.78,32.71,1.9099,379.8453],
    [19739,1532813567,57.0666,-111.8206,874.7,526.7,183.3,3.3,0.3,24.94,33.35,1.9107,379.8453],
    [19740,1532813568,57.066,-111.8206,875.2,526.2,183.4,3.4,0.4,24.83,32.16,1.914,380.3193],
    [19741,1532813569,57.0654,-111.8206,875.7,526.7,182.9,3.0,0.9,25.09,32.49,1.9149,380.3823],
    [19742,1532813570,57.0648,-111.8206,875.9,526.9,182.9,3.3,1.1,25.35,31.25,1.9139,379.5767],
    [19743,1532813571,57.0642,-111.8206,875.7,526.7,183.0,3.4,0.9,25.47,30.94,1.9134,380.4826],
    [19744,1532813572,57.0637,-111.8206,875.5,526.5,182.5,2.6,0.2,24.98,31.41,1.9144,379.4311],
    [19745,1532813573,57.0631,-111.8206,875.0,526.0,182.7,2.8,-1.2,25.08,31.55,1.9148,378.9868],
    [19746,1532813574,57.0625,-111.8206,874.9,525.9,183.3,3.3,-2.4,25.16,31.56,1.915,379.061],
    [19747,1532813575,57.0619,-111.8206,875.1,526.1,183.0,2.8,-3.9,24.89,31.85,1.915,379.1093],
    [19748,1532813576,57.0614,-111.8206,875.3,526.3,182.9,2.5,-4.8,24.59,32.47,1.9173,379.1093],
    [19749,1532813577,57.0608,-111.8207,875.3,526.3,182.6,2.1,-5.7,25.08,32.03,1.9169,379.2904],
    [19750,1532813578,57.0602,-111.8207,875.1,526.1,182.1,1.8,-6.3,24.78,32.43,1.9166,379.2729],
    [19751,1532813579,57.0596,-111.8207,875.3,526.0,182.5,2.2,-7.1,25.23,32.88,1.9163,378.7633],
    [19752,1532813580,57.0591,-111.8207,875.5,525.5,182.5,2.3,-8.2,25.71,32.67,1.915,377.7618],
    [19753,1532813581,57.0585,-111.8207,875.4,525.4,182.4,2.1,-9.4,25.2,33.83,1.9261,377.3054],
    [19754,1532813582,57.0579,-111.8207,875.8,525.8,182.0,1.9,-10.7,25.54,33.71,1.9328,377.3054],
    [19755,1532813583,57.0574,-111.8207,875.9,525.9,182.4,2.3,-10.9,25.93,34.06,1.923,378.4335],
    [19756,1532813584,57.0568,-111.8207,875.6,525.6,181.4,1.6,-11.0,25.22,35.18,1.9204,377.8049],
    [19757,1532813585,57.0562,-111.8207,875.2,525.2,181.0,1.7,-11.5,24.92,35.87,1.9183,377.7797],
    [19758,1532813586,57.0557,-111.8207,875.5,525.5,181.1,2.1,-10.6,24.58,35.54,1.9162,377.7797],
    [19759,1532813587,57.0551,-111.8206,875.7,525.7,180.7,2.1,-9.4,25.65,35.23,1.9164,378.4236],
    [19760,1532813588,57.0545,-111.8206,877.6,527.6,180.2,1.7,-8.5,25.23,35.22,1.9148,378.2989],
    [19761,1532813589,57.0539,-111.8206,879.4,528.4,181.3,2.7,-7.6,24.94,35.68,1.9134,378.1974],
    [19762,1532813590,57.0533,-111.8206,880.1,529.1,182.5,3.4,-6.7,24.26,35.53,1.9129,379.4904],
    [19763,1532813591,57.0527,-111.8205,880.9,529.9,181.5,2.3,-6.4,25.25,35.14,1.9133,377.7921],
    [19764,1532813592,57.0522,-111.8205,881.2,530.2,181.4,2.3,-6.2,24.76,35.21,1.9129,378.824],
    [19765,1532813593,57.0516,-111.8205,881.3,530.3,181.7,2.6,-6.9,25.35,34.63,1.9121,377.8703],
    [19766,1532813594,57.0511,-111.8205,882.6,531.6,181.3,1.9,-7.4,24.03,34.85,1.9132,379.3968],
    [19767,1532813595,57.0505,-111.8205,883.3,532.3,181.5,1.8,-7.2,24.73,34.66,1.9123,380.7067],
    [19768,1532813596,57.05,-111.8205,883.9,531.9,182.3,2.4,-6.5,24.76,34.52,1.9106,380.3226],
    [19769,1532813597,57.0494,-111.8205,884.1,532.1,181.9,2.0,-6.0,24.73,34.55,1.9108,380.2873],
    [19770,1532813598,57.0488,-111.8205,884.0,532.0,182.2,2.1,-5.9,23.94,34.25,1.9117,378.7451],
    [19771,1532813599,57.0483,-111.8205,883.8,531.8,182.7,2.4,-5.4,24.67,34.11,1.9122,378.8189],
    [19772,1532813600,57.0477,-111.8205,883.2,530.2,182.6,2.2,-4.9,24.74,33.45,1.9128,379.8948],
    [19773,1532813601,57.0471,-111.8205,882.5,529.5,182.7,2.1,-4.6,24.63,33.9,1.9125,379.9279],
    [19774,1532813602,57.0466,-111.8205,881.6,528.6,182.6,2.2,-4.1,24.43,34.14,1.9119,378.9431],
    [19775,1532813603,57.046,-111.8205,881.0,528.0,183.1,2.7,-3.6,24.08,33.68,1.9118,379.1934],
    [19776,1532813604,57.0454,-111.8205,880.7,527.7,183.2,2.9,-3.3,24.34,34.15,1.9126,379.1884],
    [19777,1532813605,57.0449,-111.8205,880.4,527.4,182.6,2.6,-2.8,24.34,33.75,1.913,380.9206],
    [19778,1532813606,57.0443,-111.8205,880.0,527.0,182.1,2.2,-2.7,24.52,33.83,1.9128,379.8597],
    [19779,1532813607,57.0437,-111.8205,879.6,526.6,182.3,2.6,-2.9,24.97,33.59,1.9135,380.3151],
    [19780,1532813608,57.0431,-111.8205,879.3,527.0,184.0,4.1,-2.1,24.78,33.83,1.9122,379.5842],
    [19781,1532813609,57.0425,-111.8205,880.0,528.0,182.2,2.5,-0.7,24.41,34.44,1.9134,380.0315],
    [19782,1532813610,57.042,-111.8205,883.8,530.8,182.2,2.7,0.0,25.04,33.55,1.9137,379.6767],
    [19783,1532813611,57.0414,-111.8205,890.7,537.1,182.0,2.2,0.8,24.33,34.6,1.915,379.9134],
    [19784,1532813612,57.0409,-111.8205,898.6,543.3,179.8,-0.1,2.6,24.41,33.9,1.9127,380.198],
    [19785,1532813613,57.0404,-111.8205,907.6,550.6,180.0,0.0,4.6,24.22,34.01,1.9127,379.9218],
    [19786,1532813614,57.0398,-111.8205,917.1,560.1,181.2,0.8,6.5,24.88,33.48,1.9118,379.7298],
    [19787,1532813615,57.0393,-111.8205,926.4,568.4,183.0,2.7,8.5,24.02,33.99,1.9127,380.2241],
    [19788,1532813616,57.0388,-111.8206,936.8,578.8,182.9,2.3,9.8,24.27,34.21,1.9126,379.7809],
    [19789,1532813617,57.0384,-111.8206,946.6,588.6,181.0,0.7,11.8,24.28,33.99,1.9127,380.3701],
    [19790,1532813618,57.0379,-111.8206,955.8,597.8,181.6,1.8,13.5,24.44,33.75,1.9119,380.113],
    [19791,1532813619,57.0374,-111.8206,964.7,606.7,180.8,0.3,14.9,24.8,33.34,1.9127,379.9122],
    [19792,1532813620,57.0369,-111.8206,972.7,614.7,178.5,-1.8,16.1,24.21,34.71,1.9111,379.7507],
    [19793,1532813621,57.0365,-111.8206,979.1,621.1,182.9,3.3,16.1,23.96,34.02,1.9118,379.0167],
    [19794,1532813622,57.036,-111.8206,983.0,624.0,184.8,4.9,15.8,24.23,34.08,1.9122,379.0167],
    [19795,1532813623,57.0356,-111.8206,985.1,626.1,182.3,2.0,15.8,24.4,33.67,1.9123,380.0429],
    [19796,1532813624,57.0351,-111.8206,985.6,626.6,181.3,0.9,15.6,24.42,33.81,1.9114,380.217],
    [19797,1532813625,57.0346,-111.8206,987.0,628.0,180.8,0.7,14.8,23.53,33.92,1.9109,378.9827],
    [19798,1532813626,57.0341,-111.8206,989.6,630.6,182.2,2.1,14.4,23.86,33.81,1.9118,379.9779],
    [19799,1532813627,57.0337,-111.8206,993.0,634.0,182.2,2.2,14.4,24.06,33.77,1.9115,379.1842],
    [19800,1532813628,57.0332,-111.8206,996.9,637.8,183.0,3.3,13.6,23.77,33.65,1.9123,379.4222],
    [19801,1532813629,57.0327,-111.8207,1000.4,640.4,184.1,4.5,13.4,24.45,33.09,1.9131,379.6269],
    [19802,1532813630,57.0322,-111.8207,1004.5,644.5,183.2,3.7,13.5,24.58,32.98,1.9111,379.1316],
    [19803,1532813631,57.0318,-111.8207,1009.0,649.0,183.6,4.3,14.3,24.17,33.99,1.9116,379.7898],
    [19804,1532813632,57.0313,-111.8207,1012.8,652.8,183.9,4.3,15.4,24.16,33.62,1.9106,379.5732],
    [19805,1532813633,57.0308,-111.8207,1016.5,657.3,183.5,3.6,15.8,24.37,33.31,1.9112,379.5732],
    [19806,1532813634,57.0304,-111.8207,1018.6,660.2,184.4,4.6,15.1,23.56,33.48,1.9113,379.9874],
    [19807,1532813635,57.0299,-111.8207,1020.2,665.3,183.5,3.2,14.7,24.31,33.55,1.9114,379.1728],
    [19808,1532813636,57.0294,-111.8207,1021.7,670.3,180.8,0.6,14.9,23.76,33.36,1.9114,379.4194],
    [19809,1532813637,57.0289,-111.8207,1021.8,671.2,181.2,1.3,14.9,24.65,32.96,1.9125,381.0212],
    [19810,1532813638,57.0284,-111.8207,1020.2,669.4,181.2,1.2,14.3,23.6,33.24,1.9119,380.4593],
    [19811,1532813639,57.0279,-111.8207,1018.3,665.5,180.0,0.2,13.8,23.93,33.27,1.9131,380.253],
    [19812,1532813640,57.0275,-111.8207,1016.4,661.9,180.7,1.2,13.3,23.93,33.32,1.9117,379.6942],
    [19813,1532813641,57.0269,-111.8207,1014.5,659.3,180.8,1.4,12.8,23.99,33.65,1.9109,379.7185],
    [19814,1532813642,57.0264,-111.8207,1013.6,659.2,179.5,0.4,12.4,23.37,33.32,1.9078,380.4517],
    [19815,1532813643,57.0259,-111.8207,1012.9,659.1,178.6,0.0,11.8,24.53,32.37,1.9072,379.6411],
    [19816,1532813644,57.0254,-111.8206,1011.7,660.0,178.5,0.4,11.0,24.42,32.3,1.9066,380.3657],
    [19817,1532813645,57.0249,-111.8206,1010.6,659.3,179.0,0.8,10.5,24.48,32.03,1.9079,380.2229],
    [19818,1532813646,57.0243,-111.8206,1009.3,658.5,179.6,1.0,10.2,24.59,30.38,1.9101,379.1863],
    [19819,1532813647,57.0238,-111.8205,1009.5,658.5,179.4,0.6,9.9,23.81,30.54,1.908,380.5653],
    [19820,1532813648,57.0232,-111.8205,1009.8,664.1,179.9,1.2,9.9,23.41,30.19,1.9088,380.7734],
    [19821,1532813649,57.0227,-111.8205,1009.8,670.6,180.0,1.0,10.2,24.1,29.69,1.9071,381.6154],
    [19822,1532813650,57.0222,-111.8205,1010.0,676.0,179.4,-0.5,10.3,24.16,29.97,1.9066,381.3089],
    [19823,1532813651,57.0216,-111.8205,1011.5,681.2,179.8,-0.6,10.3,24.92,28.94,1.9073,381.1298],
    [19824,1532813652,57.021,-111.8205,1012.8,685.2,182.4,2.0,10.1,23.94,29.0,1.9062,382.2521],
    [19825,1532813653,57.0205,-111.8205,1014.3,687.3,183.3,2.9,9.8,23.74,28.85,1.9062,382.2521],
    [19826,1532813654,57.0199,-111.8205,1016.0,688.4,183.8,3.8,9.5,23.62,28.67,1.9063,381.5355],
    [19827,1532813655,57.0194,-111.8205,1017.0,686.4,184.3,4.3,9.4,24.11,28.53,1.9068,381.5355],
    [19828,1532813656,57.0188,-111.8206,1017.7,678.3,183.7,4.1,9.5,23.95,28.42,1.9081,382.0857],
    [19829,1532813657,57.0182,-111.8206,1018.7,669.7,183.6,3.9,9.3,24.63,27.75,1.9074,381.9206],
    [19830,1532813658,57.0177,-111.8206,1020.8,662.8,181.3,1.7,9.4,24.27,27.56,1.9093,382.3979],
    [19831,1532813659,57.0171,-111.8206,1021.7,659.4,182.4,3.7,9.5,24.19,27.84,1.9137,380.0876],
    [19832,1532813660,57.0165,-111.8206,1022.4,658.2,182.1,3.4,9.3,24.84,27.96,1.9118,380.9743],
    [19833,1532813661,57.016,-111.8205,1022.2,657.2,181.1,2.8,8.3,24.43,29.42,1.911,380.9743],
    [19834,1532813662,57.0154,-111.8205,1022.4,657.4,182.1,3.8,7.5,24.41,30.0,1.9114,380.7557],
    [19835,1532813663,57.0148,-111.8205,1022.6,657.6,181.7,2.7,7.5,24.0,30.23,1.9089,382.3285],
    [19836,1532813664,57.0143,-111.8205,1022.0,657.0,183.1,4.1,7.2,24.93,30.01,1.9127,381.3463],
    [19837,1532813665,57.0137,-111.8205,1020.5,655.5,183.3,3.8,7.3,24.88,30.06,1.9118,380.2586],
    [19838,1532813666,57.0131,-111.8205,1019.1,654.1,182.9,3.0,7.2,24.22,31.96,1.9117,379.0391],
    [19839,1532813667,57.0125,-111.8205,1018.0,653.0,183.1,3.0,6.1,24.19,31.72,1.9134,379.878],
    [19840,1532813668,57.0119,-111.8205,1017.0,652.0,182.3,2.4,5.5,24.11,31.73,1.91,380.0735],
    [19841,1532813669,57.0113,-111.8205,1016.8,651.8,181.6,1.8,6.5,24.21,32.55,1.9111,379.4613],
    [19842,1532813670,57.0107,-111.8205,1016.8,650.8,181.9,2.6,7.6,24.32,32.23,1.9123,379.6623],
    [19843,1532813671,57.0102,-111.8205,1016.4,650.1,182.5,3.7,7.6,24.97,31.37,1.913,379.5794],
    [19844,1532813672,57.0096,-111.8205,1015.7,648.7,183.0,4.6,6.9,23.79,32.29,1.9129,379.8916],
    [19845,1532813673,57.009,-111.8205,1015.3,647.6,182.8,4.5,6.1,24.24,32.42,1.9121,379.5943],
    [19846,1532813674,57.0084,-111.8205,1014.9,646.9,182.5,4.1,5.9,24.7,31.89,1.9137,378.6072],
    [19847,1532813675,57.0078,-111.8205,1014.2,646.2,182.7,4.2,5.7,24.34,33.12,1.9131,378.1325],
    [19848,1532813676,57.0072,-111.8205,1013.5,645.5,182.9,4.3,5.2,24.48,32.76,1.9113,379.4601],
    [19849,1532813677,57.0066,-111.8205,1012.7,644.7,183.1,4.4,4.7,24.17,32.99,1.9112,379.4945],
    [19850,1532813678,57.006,-111.8205,1012.1,644.1,183.2,4.7,4.1,23.53,33.34,1.9119,378.4256],
    [19851,1532813679,57.0054,-111.8204,1012.4,643.4,183.0,4.4,3.6,23.92,33.13,1.9131,379.1549],
    [19852,1532813680,57.0048,-111.8204,1012.9,643.9,182.3,3.6,2.6,24.23,34.07,1.9143,378.6225],
    [19853,1532813681,57.0042,-111.8204,1013.5,644.5,182.4,3.7,1.5,24.08,34.04,1.9127,378.8398],
    [19854,1532813682,57.0036,-111.8204,1014.3,644.3,182.6,3.6,0.9,23.89,33.83,1.9121,379.0686],
    [19855,1532813683,57.003,-111.8204,1015.1,645.1,182.2,2.9,0.2,24.55,33.73,1.9122,378.285],
    [19856,1532813684,57.0024,-111.8204,1015.8,645.8,182.4,3.0,-0.5,23.61,34.16,1.9124,378.2344],
    [19857,1532813685,57.0018,-111.8204,1015.8,645.5,182.6,2.9,-1.2,24.65,34.49,1.9122,379.351],
    [19858,1532813686,57.0012,-111.8204,1015.1,644.1,182.8,3.2,-0.7,24.49,34.09,1.9125,378.8698],
    [19859,1532813687,57.0005,-111.8204,1014.0,643.0,183.3,3.6,-0.1,24.36,34.21,1.9122,378.2821],
    [19860,1532813688,56.9999,-111.8204,1013.1,642.0,183.2,3.3,-0.1,23.62,34.47,1.9121,377.7028],
    [19861,1532813689,56.9993,-111.8204,1011.9,640.5,183.7,3.6,-0.2,24.17,34.59,1.912,377.7592],
    [19862,1532813690,56.9987,-111.8204,1010.8,638.9,183.7,3.3,-0.4,23.94,34.65,1.9122,379.0663],
    [19863,1532813691,56.9981,-111.8205,1010.0,638.0,183.6,3.1,-0.4,23.9,34.63,1.9129,379.0663],
    [19864,1532813692,56.9975,-111.8205,1009.1,637.1,183.7,3.1,-0.7,24.29,34.94,1.9114,377.9287],
    [19865,1532813693,56.9969,-111.8205,1008.4,636.4,183.5,2.9,0.0,24.29,34.56,1.9115,377.8611],
    [19866,1532813694,56.9962,-111.8205,1007.0,635.0,183.6,3.1,-0.2,23.66,34.79,1.9117,376.974],
    [19867,1532813695,56.9956,-111.8205,1005.5,633.5,183.7,3.2,-0.5,23.84,34.84,1.9124,377.3113],
    [19868,1532813696,56.995,-111.8206,1003.6,631.6,183.8,3.5,-0.7,24.25,34.81,1.9144,376.6932],
    [19869,1532813697,56.9944,-111.8206,1001.6,629.6,183.7,3.5,-1.2,24.4,35.26,1.9151,377.8495],
    [19870,1532813698,56.9938,-111.8206,1000.0,628.0,182.5,2.2,-1.8,24.86,34.86,1.9151,378.3534],
    [19871,1532813699,56.9932,-111.8206,999.2,627.2,181.1,0.7,-1.7,23.92,35.62,1.9144,378.3853],
    [19872,1532813700,56.9925,-111.8206,997.9,625.9,182.2,1.9,-2.2,24.55,35.21,1.913,378.697],
    [19873,1532813701,56.9919,-111.8206,996.2,624.2,183.0,2.4,-2.8,24.22,36.45,1.9141,378.7392],
    [19874,1532813702,56.9913,-111.8206,994.3,623.3,182.2,1.6,-2.1,24.22,35.93,1.9148,377.025],
    [19875,1532813703,56.9907,-111.8206,992.3,621.3,182.2,2.0,-1.4,23.95,36.13,1.911,377.4546],
    [19876,1532813704,56.9901,-111.8207,990.4,619.4,182.2,2.2,-1.8,25.01,35.5,1.9157,378.3209],
    [19877,1532813705,56.9894,-111.8207,988.4,617.4,182.5,3.0,-2.4,24.36,36.36,1.9145,377.9985],
    [19878,1532813706,56.9888,-111.8207,987.3,616.3,182.5,3.3,-3.0,24.06,36.4,1.9127,378.0555],
    [19879,1532813707,56.9882,-111.8206,985.7,614.7,182.8,3.7,-3.5,24.11,36.8,1.9109,378.4186],
    [19880,1532813708,56.9876,-111.8206,983.9,612.9,183.6,4.6,-3.6,23.66,36.29,1.9107,378.3761],
    [19881,1532813709,56.9869,-111.8206,982.9,611.6,183.1,4.3,-2.9,23.99,36.77,1.9116,376.7709],
    [19882,1532813710,56.9863,-111.8206,982.5,610.5,182.9,4.3,-2.8,23.48,36.15,1.9137,377.4783],
    [19883,1532813711,56.9857,-111.8206,982.5,610.5,182.0,3.8,-2.7,23.85,36.71,1.9146,377.9757],
    [19884,1532813712,56.985,-111.8206,982.7,610.7,181.8,3.5,-2.9,24.1,36.29,1.9141,377.6093],
    [19885,1532813713,56.9844,-111.8206,983.2,611.2,181.8,3.7,-2.6,23.84,36.44,1.9161,377.5654],
    [19886,1532813714,56.9838,-111.8205,984.1,612.1,183.3,5.1,-2.8,24.29,36.49,1.9168,378.7797],
    [19887,1532813715,56.9832,-111.8205,986.4,613.7,183.8,5.1,-1.7,23.8,37.24,1.9167,377.5876],
    [19888,1532813716,56.9825,-111.8205,989.3,616.3,183.2,4.1,-1.1,24.13,37.49,1.9165,377.0765],
    [19889,1532813717,56.9819,-111.8205,992.2,619.2,183.4,4.3,0.1,23.42,36.98,1.9166,377.5712],
    [19890,1532813718,56.9813,-111.8205,994.9,621.9,183.7,4.3,1.0,24.08,36.81,1.9168,378.1765],
    [19891,1532813719,56.9807,-111.8205,997.2,623.2,183.1,3.7,1.5,24.11,36.98,1.9168,376.7691],
    [19892,1532813720,56.9802,-111.8205,999.1,625.1,183.1,3.8,1.0,24.05,37.64,1.9163,378.4006],
    [19893,1532813721,56.9796,-111.8205,1001.4,627.4,182.3,3.2,0.3,23.98,37.91,1.9169,378.1005],
    [19894,1532813722,56.979,-111.8205,1003.0,628.0,182.2,3.2,0.7,23.54,37.32,1.9168,378.3195],
    [19895,1532813723,56.9784,-111.8205,1003.7,628.7,181.7,2.2,1.1,24.19,37.58,1.9154,377.9286],
    [19896,1532813724,56.9778,-111.8205,1004.7,629.7,180.4,0.2,1.6,24.71,36.92,1.9159,377.624],
    [19897,1532813725,56.9772,-111.8205,1007.0,631.0,180.9,0.5,1.6,24.11,37.35,1.9167,377.9018],
    [19898,1532813726,56.9766,-111.8205,1010.5,634.5,181.3,0.5,2.7,24.06,37.46,1.9148,378.4758],
    [19899,1532813727,56.976,-111.8205,1013.6,636.6,181.5,0.6,2.8,23.94,37.54,1.9154,378.1333],
    [19900,1532813728,56.9754,-111.8205,1016.7,639.7,182.7,1.8,2.4,24.03,37.45,1.9139,378.1567],
    [19901,1532813729,56.9748,-111.8206,1019.9,642.9,182.8,2.3,2.5,24.71,36.99,1.9151,377.9362],
    [19902,1532813730,56.9743,-111.8206,1023.0,645.0,183.9,3.8,2.5,23.21,37.68,1.9153,378.543],
    [19903,1532813731,56.9737,-111.8206,1026.0,648.0,183.9,3.7,2.9,23.67,37.31,1.916,378.543],
    [19904,1532813732,56.9731,-111.8206,1028.3,649.3,183.8,3.6,3.1,23.79,37.23,1.9165,378.5921],
    [19905,1532813733,56.9725,-111.8206,1028.7,649.4,183.7,3.5,1.9,24.25,37.3,1.9197,377.8041],
    [19906,1532813734,56.9719,-111.8206,1028.1,647.8,182.6,2.1,1.1,23.79,37.78,1.9196,377.8114],
    [19907,1532813735,56.9713,-111.8206,1027.5,646.5,182.2,1.9,0.2,24.05,37.38,1.9194,377.6286],
    [19908,1532813736,56.9707,-111.8206,1027.9,645.9,182.8,2.8,0.4,24.28,36.79,1.9188,376.6423],
    [19909,1532813737,56.9701,-111.8207,1028.8,645.7,183.1,3.4,0.8,24.13,37.47,1.9188,377.4938],
    [19910,1532813738,56.9696,-111.8207,1030.2,647.2,183.0,2.7,-0.8,24.14,37.16,1.9187,377.1801],
    [19911,1532813739,56.969,-111.8207,1032.3,648.4,182.2,1.9,-1.7,23.68,38.07,1.9178,377.8529],
    [19912,1532813740,56.9684,-111.8207,1033.6,648.6,183.5,3.4,-0.8,23.54,38.69,1.9172,378.168],
    [19913,1532813741,56.9678,-111.8207,1035.5,648.5,181.7,1.8,-1.4,24.03,37.56,1.9169,377.6141],
    [19914,1532813742,56.9671,-111.8207,1038.5,650.5,180.3,1.4,-2.8,23.24,38.39,1.9172,377.6141],
    [19915,1532813743,56.9665,-111.8207,1040.6,651.2,181.4,3.1,-3.6,23.69,38.49,1.9167,376.9334],
    [19916,1532813744,56.9659,-111.8206,1041.0,650.8,183.5,5.3,-4.1,23.72,38.21,1.9171,377.5876],
    [19917,1532813745,56.9653,-111.8206,1042.0,650.0,182.7,4.1,-4.0,23.56,38.16,1.9178,378.1184],
    [19918,1532813746,56.9647,-111.8206,1044.0,650.0,181.0,2.2,-3.9,23.26,38.34,1.9191,378.1184],
    [19919,1532813747,56.9641,-111.8206,1046.7,651.6,181.0,1.8,-3.3,23.14,38.29,1.9188,378.0864],
    [19920,1532813748,56.9634,-111.8206,1050.0,654.0,181.0,2.0,-2.6,23.73,38.66,1.9182,376.7848],
    [19921,1532813749,56.9628,-111.8206,1053.6,656.6,182.7,3.2,-1.9,23.48,38.16,1.9176,377.126],
    [19922,1532813750,56.9622,-111.8206,1057.0,659.2,181.7,1.9,-1.4,23.91,38.69,1.9172,376.7715],
    [19923,1532813751,56.9617,-111.8206,1059.7,660.8,181.7,1.8,-1.7,23.97,38.0,1.9169,377.3884],
    [19924,1532813752,56.9611,-111.8206,1061.8,661.8,182.4,2.3,-1.4,24.36,37.83,1.912,377.6873],
    [19925,1532813753,56.9605,-111.8206,1063.5,662.5,182.8,2.5,-0.8,24.32,37.6,1.9085,377.3801],
    [19926,1532813754,56.9599,-111.8206,1065.3,663.2,183.3,3.0,-0.2,23.58,37.98,1.907,378.0327],
    [19927,1532813755,56.9593,-111.8206,1067.1,665.0,183.6,3.4,0.7,23.49,37.81,1.9084,376.6119],
    [19928,1532813756,56.9587,-111.8206,1068.4,665.4,183.3,2.9,1.1,24.25,35.92,1.9087,376.6119],
    [19929,1532813757,56.9581,-111.8206,1069.4,666.4,182.6,2.5,1.2,23.59,35.95,1.9083,378.2191],
    [19930,1532813758,56.9575,-111.8206,1070.4,667.4,182.6,3.0,0.7,23.75,35.68,1.9093,378.2666],
    [19931,1532813759,56.9569,-111.8206,1070.0,666.9,182.7,3.8,0.7,23.88,35.12,1.9103,379.1063],
    [19932,1532813760,56.9563,-111.8206,1068.2,664.2,181.7,2.9,0.7,23.55,35.85,1.911,378.1843],
    [19933,1532813761,56.9557,-111.8206,1066.5,662.5,180.0,1.4,0.3,23.24,35.31,1.9115,378.8929],
    [19934,1532813762,56.9551,-111.8206,1065.6,661.6,179.8,1.2,0.2,23.69,35.03,1.911,379.1299],
    [19935,1532813763,56.9545,-111.8205,1064.7,660.7,180.5,2.1,0.1,24.08,34.74,1.911,379.6254],
    [19936,1532813764,56.954,-111.8205,1063.7,658.7,182.0,3.9,-0.1,24.15,34.8,1.9122,378.6652],
    [19937,1532813765,56.9534,-111.8205,1061.8,656.8,183.0,4.5,-0.1,23.67,35.3,1.9116,378.6659],
    [19938,1532813766,56.9528,-111.8205,1059.0,654.0,181.5,3.1,0.3,23.6,36.17,1.9095,378.6659],
    [19939,1532813767,56.9522,-111.8205,1054.3,648.3,181.2,2.8,0.6,23.41,35.75,1.9082,380.4794],
    [19940,1532813768,56.9515,-111.8204,1050.1,644.1,180.4,2.3,0.3,23.85,35.83,1.909,380.4794],
    [19941,1532813769,56.951,-111.8204,1047.2,641.2,181.7,3.3,0.2,23.68,36.18,1.9094,377.7788],
    [19942,1532813770,56.9504,-111.8204,1045.6,639.6,180.3,1.3,0.2,23.89,34.86,1.9093,378.9267],
    [19943,1532813771,56.9498,-111.8204,1045.1,638.1,179.8,0.9,0.0,24.11,34.71,1.9087,379.9465],
    [19944,1532813772,56.9492,-111.8203,1045.4,638.4,179.2,0.7,-0.3,23.35,34.68,1.9086,380.0784],
    [19945,1532813773,56.9486,-111.8203,1046.5,639.5,178.5,0.4,0.0,23.56,35.54,1.9082,379.4981],
    [19946,1532813774,56.948,-111.8203,1048.7,640.7,178.4,0.7,0.1,23.17,34.63,1.9098,379.2378],
    [19947,1532813775,56.9474,-111.8202,1051.6,643.6,178.0,0.2,0.0,23.59,34.78,1.9132,379.4711],
    [19948,1532813776,56.9468,-111.8202,1054.4,646.1,176.5,-1.0,0.0,23.84,33.61,1.9139,379.4711],
    [19949,1532813777,56.9462,-111.8201,1057.2,648.2,177.1,-0.5,0.2,23.87,33.4,1.9148,378.9335],
    [19950,1532813778,56.9456,-111.8201,1059.7,650.7,178.3,-0.1,0.9,24.07,33.79,1.9133,378.2737],
    [19951,1532813779,56.945,-111.8201,1062.9,652.9,177.9,-1.2,1.2,23.77,34.51,1.9089,380.1079],
    [19952,1532813780,56.9444,-111.8201,1065.6,655.6,179.2,-0.2,0.9,23.39,34.85,1.9065,378.2115],
    [19953,1532813781,56.9438,-111.82,1067.6,656.6,180.1,0.9,0.2,23.81,34.74,1.9074,380.3088],
    [19954,1532813782,56.9433,-111.82,1069.3,658.3,182.5,3.3,0.2,23.93,33.7,1.911,378.5799],
    [19955,1532813783,56.9427,-111.82,1071.1,659.8,182.0,2.3,0.9,23.69,33.79,1.9124,377.6611],
    [19956,1532813784,56.9421,-111.82,1073.0,661.0,180.8,1.8,0.7,23.58,33.63,1.9135,379.0525],
    [19957,1532813785,56.9415,-111.82,1074.7,662.7,179.7,2.3,0.7,23.58,33.5,1.9132,379.3106],
    [19958,1532813786,56.9409,-111.8199,1075.5,662.5,175.2,0.4,1.3,24.01,33.22,1.9166,379.4128],
    [19959,1532813787,56.9403,-111.8198,1076.7,663.7,172.3,0.7,2.3,23.31,33.93,1.9162,378.3191],
    [19960,1532813788,56.9397,-111.8196,1079.0,665.0,170.5,1.5,3.1,23.03,35.08,1.9154,379.4742],
    [19961,1532813789,56.9392,-111.8194,1082.5,668.5,168.0,1.4,3.7,22.78,35.05,1.9166,377.9486],
    [19962,1532813790,56.9386,-111.8191,1085.0,670.0,167.2,3.3,4.0,23.13,35.93,1.9142,378.0693],
    [19963,1532813791,56.9381,-111.8188,1087.4,671.7,164.1,3.4,3.6,23.56,35.19,1.9143,378.0693],
    [19964,1532813792,56.9375,-111.8184,1090.5,674.6,159.4,2.1,2.7,23.05,35.54,1.915,378.4144],
    [19965,1532813793,56.937,-111.8179,1093.5,676.5,155.9,2.2,2.8,23.43,36.03,1.9168,378.6652],
    [19966,1532813794,56.9365,-111.8174,1096.7,678.7,153.1,2.7,3.8,23.67,35.71,1.9174,377.7713],
    [19967,1532813795,56.936,-111.8168,1098.4,679.4,149.7,1.9,5.0,23.14,35.99,1.9165,377.2079],
    [19968,1532813796,56.9355,-111.8162,1099.5,679.5,144.9,0.2,5.4,23.6,36.9,1.9176,377.9921],
    [19969,1532813797,56.935,-111.8155,1099.9,679.9,141.3,0.3,5.7,22.95,36.54,1.9153,378.795],
    [19970,1532813798,56.9346,-111.8148,1100.0,679.0,138.3,0.5,6.3,23.65,36.17,1.9152,378.9337],
    [19971,1532813799,56.9342,-111.8139,1100.1,679.1,135.5,-0.3,6.8,23.35,36.21,1.916,378.3334],
    [19972,1532813800,56.9338,-111.8131,1100.4,679.4,134.2,-0.4,7.7,23.37,36.14,1.9163,378.0419],
    [19973,1532813801,56.9334,-111.8122,1100.5,679.5,132.1,-0.8,7.5,23.41,36.27,1.9142,376.9453],
    [19974,1532813802,56.9331,-111.8113,1099.7,678.7,129.5,-0.8,6.3,23.89,35.77,1.9152,377.7418],
    [19975,1532813803,56.9327,-111.8104,1098.4,677.4,126.5,-0.2,5.1,24.03,35.51,1.9143,379.1195],
    [19976,1532813804,56.9324,-111.8094,1096.7,676.7,125.0,1.0,5.7,24.26,35.67,1.9141,379.7612],
    [19977,1532813805,56.9321,-111.8085,1094.5,675.5,122.6,1.0,5.1,24.03,35.71,1.9161,378.4532],
    [19978,1532813806,56.9318,-111.8075,1092.0,673.0,119.7,1.6,3.6,24.07,35.24,1.917,378.1248],
    [19979,1532813807,56.9316,-111.8065,1089.7,671.7,118.1,2.6,3.6,23.59,35.76,1.9179,377.5997],
    [19980,1532813808,56.9313,-111.8054,1087.4,669.4,115.5,2.6,3.2,23.39,35.89,1.9173,379.0698],
    [19981,1532813809,56.9311,-111.8044,1085.4,667.4,113.2,2.7,3.3,23.35,36.25,1.9155,378.3017],
    [19982,1532813810,56.9309,-111.8033,1083.0,665.0,111.2,2.6,3.5,23.53,36.57,1.9155,377.7761],
    [19983,1532813811,56.9307,-111.8022,1080.3,662.3,109.0,2.7,3.1,23.6,36.88,1.9167,377.0019],
    [19984,1532813812,56.9305,-111.8011,1077.1,660.1,106.9,3.4,2.5,23.93,36.74,1.9163,378.6939],
    [19985,1532813813,56.9304,-111.8,1073.3,656.3,104.8,3.9,1.6,23.79,37.11,1.9152,378.3396],
    [19986,1532813814,56.9303,-111.7988,1068.6,652.6,102.8,4.4,1.5,23.56,36.72,1.9161,377.7235],
    [19987,1532813815,56.9302,-111.7977,1064.5,649.4,101.4,4.6,2.3,23.1,36.43,1.9149,378.2159],
    [19988,1532813816,56.9301,-111.7966,1062.5,647.5,99.2,4.1,2.4,23.54,36.47,1.9143,378.3565],
    [19989,1532813817,56.93,-111.7954,1061.7,647.7,97.8,4.1,3.2,23.59,36.64,1.9141,377.3342],
    [19990,1532813818,56.93,-111.7942,1061.7,648.0,95.6,4.4,2.4,24.02,36.03,1.9145,377.3968],
    [19991,1532813819,56.9299,-111.7931,1061.6,648.6,93.6,4.7,1.6,24.39,35.55,1.9153,377.3968],
    [19992,1532813820,56.9299,-111.7919,1062.0,650.0,93.9,4.9,2.6,23.36,36.25,1.9151,377.8344],
    [19993,1532813821,56.9299,-111.7907,1063.2,651.2,92.9,5.0,2.1,23.69,36.92,1.9167,377.8344],
    [19994,1532813822,56.9299,-111.7896,1064.3,653.3,92.1,4.6,1.6,24.32,35.42,1.9159,377.7427],
    [19995,1532813823,56.9299,-111.7884,1065.8,654.8,92.0,4.3,2.1,23.57,35.96,1.9156,378.384],
    [19996,1532813824,56.9299,-111.7873,1067.1,656.9,92.1,4.3,2.8,23.45,36.6,1.9167,378.8067],
    [19997,1532813825,56.9299,-111.7861,1067.0,657.0,92.0,5.0,3.0,23.37,35.94,1.9151,378.1192],
    [19998,1532813826,56.9299,-111.785,1066.8,656.8,91.4,5.4,2.5,23.76,35.95,1.9152,378.6966],
    [19999,1532813827,56.9299,-111.7838,1066.6,656.6,91.7,5.5,3.0,23.39,36.04,1.9157,378.1361],
    [20000,1532813828,56.9299,-111.7827,1065.0,655.0,91.9,5.4,2.9,24.19,35.61,1.9161,378.2848],
    [20001,1532813829,56.9299,-111.7815,1062.1,652.1,91.1,5.2,1.8,23.63,36.18,1.9164,378.8071],
    [20002,1532813830,56.9299,-111.7804,1059.7,649.7,90.2,4.9,1.1,23.52,36.92,1.9185,378.9543],
    [20003,1532813831,56.93,-111.7793,1056.9,646.9,91.8,5.7,3.3,23.67,36.02,1.9167,378.5286],
    [20004,1532813832,56.93,-111.7781,1054.4,644.4,93.0,6.0,4.1,23.27,37.2,1.9183,378.6277],
    [20005,1532813833,56.93,-111.7769,1052.7,642.7,91.6,5.2,2.7,23.06,36.95,1.9173,378.6958],
    [20006,1532813834,56.93,-111.7758,1051.0,641.3,92.8,5.2,4.0,23.35,36.64,1.9152,378.3563],
    [20007,1532813835,56.93,-111.7746,1048.7,639.7,92.8,5.5,3.9,23.2,36.52,1.9173,378.4697],
    [20008,1532813836,56.93,-111.7734,1046.6,637.6,92.8,5.7,4.1,23.53,36.78,1.9168,378.89],
    [20009,1532813837,56.93,-111.7722,1045.1,636.3,93.5,5.7,4.3,23.33,36.26,1.9148,379.8943],
    [20010,1532813838,56.93,-111.7711,1044.8,636.8,92.1,5.8,3.2,23.42,36.03,1.913,379.8943],
    [20011,1532813839,56.93,-111.7699,1045.4,637.4,92.2,5.7,3.6,22.99,35.67,1.9163,378.0749],
    [20012,1532813840,56.93,-111.7688,1046.5,639.5,91.6,5.1,3.6,23.27,35.5,1.9152,379.5653],
    [20013,1532813841,56.93,-111.7676,1046.9,639.9,89.9,4.4,2.1,23.42,35.82,1.9162,378.7856],
    [20014,1532813842,56.9301,-111.7664,1047.1,640.1,90.1,3.4,2.4,23.3,35.92,1.9181,379.1687],
    [20015,1532813843,56.9301,-111.7653,1047.6,641.6,90.8,3.1,3.3,24.06,34.93,1.9176,378.0424],
    [20016,1532813844,56.9301,-111.7642,1048.4,642.4,92.2,2.7,4.8,23.79,35.72,1.9181,378.0424],
    [20017,1532813845,56.9301,-111.7631,1049.8,644.4,91.3,3.3,3.9,23.26,36.47,1.9158,379.0289],
    [20018,1532813846,56.9301,-111.7619,1050.2,645.2,89.6,3.2,2.0,23.47,36.73,1.9159,379.0289],
    [20019,1532813847,56.9302,-111.7608,1050.8,645.8,88.2,1.7,0.8,23.27,36.46,1.917,379.1668],
    [20020,1532813848,56.9302,-111.7597,1051.5,647.5,89.2,1.0,2.1,23.33,36.55,1.9181,377.9676],
    [20021,1532813849,56.9302,-111.7585,1052.7,648.7,89.0,1.9,2.1,23.45,36.71,1.918,377.8133],
    [20022,1532813850,56.9303,-111.7574,1054.2,651.2,88.2,1.9,1.4,23.36,36.59,1.9169,378.6365],
    [20023,1532813851,56.9303,-111.7563,1055.1,653.1,88.7,1.1,1.5,23.21,36.98,1.9156,377.8049],
    [20024,1532813852,56.9303,-111.7552,1055.5,654.6,88.8,0.0,0.4,23.31,36.97,1.9148,378.2283],
    [20025,1532813853,56.9303,-111.7541,1056.4,656.3,90.0,0.5,0.8,23.41,36.73,1.9121,378.2283],
    [20026,1532813854,56.9303,-111.753,1057.1,659.3,92.6,0.8,2.8,23.46,36.83,1.9144,377.8722],
    [20027,1532813855,56.9303,-111.7519,1058.0,662.0,92.2,0.7,1.4,23.05,36.68,1.914,380.0482],
    [20028,1532813856,56.9303,-111.7508,1059.4,665.4,91.0,0.8,-0.2,23.63,36.03,1.9151,380.0482],
    [20029,1532813857,56.9303,-111.7497,1060.9,667.9,92.2,0.1,1.3,23.5,35.89,1.914,378.6792],
    [20030,1532813858,56.9303,-111.7486,1061.5,669.6,92.9,0.0,2.0,23.31,36.05,1.9155,378.1805],
    [20031,1532813859,56.9303,-111.7475,1062.4,671.4,92.0,0.1,1.1,23.83,35.66,1.9134,379.3959],
    [20032,1532813860,56.9303,-111.7464,1063.9,674.5,91.5,-0.7,0.7,24.08,35.44,1.9154,379.3538],
    [20033,1532813861,56.9302,-111.7453,1066.0,676.9,91.4,-1.3,1.0,23.43,36.0,1.916,379.3538],
    [20034,1532813862,56.9302,-111.7442,1067.5,679.5,91.5,-1.3,1.3,23.35,35.75,1.9135,379.8335],
    [20035,1532813863,56.9302,-111.7432,1068.7,680.7,90.9,-0.8,1.2,23.99,35.12,1.9132,380.4946],
    [20036,1532813864,56.9302,-111.7421,1069.0,681.0,91.7,-0.4,2.3,24.05,34.67,1.9112,379.6718],
    [20037,1532813865,56.9302,-111.741,1068.9,680.9,91.8,-0.1,2.4,23.07,34.6,1.9127,379.4463],
    [20038,1532813866,56.9302,-111.7399,1069.6,681.6,90.8,-0.1,1.7,22.93,34.23,1.914,379.1934],
    [20039,1532813867,56.9303,-111.7388,1071.0,683.0,90.7,-0.1,1.8,23.5,34.01,1.9126,379.3254],
    [20040,1532813868,56.9303,-111.7377,1072.1,684.1,91.4,-0.6,2.8,24.2,32.89,1.9134,380.839],
    [20041,1532813869,56.9303,-111.7366,1072.0,684.0,91.7,-0.6,3.0,23.19,33.83,1.9142,380.839],
    [20042,1532813870,56.9303,-111.7355,1071.6,683.6,92.1,-0.1,3.5,23.67,33.65,1.916,379.403],
    [20043,1532813871,56.9303,-111.7344,1070.9,683.9,92.3,0.0,3.5,24.03,33.26,1.9181,378.8545],
    [20044,1532813872,56.9303,-111.7333,1070.3,683.3,92.2,-0.2,3.1,23.2,34.23,1.9165,379.9816],
    [20045,1532813873,56.9303,-111.7322,1070.0,682.0,92.2,0.2,2.9,23.82,33.96,1.9158,379.9816],
    [20046,1532813874,56.9303,-111.7311,1069.3,682.3,93.0,0.7,3.7,23.15,34.33,1.9153,379.4804],
    [20047,1532813875,56.9303,-111.73,1068.0,681.0,92.9,0.7,3.3,23.26,34.99,1.9151,378.8682],
    [20048,1532813876,56.9303,-111.7289,1066.6,680.6,92.4,0.7,2.7,23.54,34.85,1.9164,379.8104],
    [20049,1532813877,56.9303,-111.7278,1065.1,679.1,92.8,0.9,3.2,23.97,34.45,1.9169,379.8104],
    [20050,1532813878,56.9303,-111.7267,1063.1,677.1,92.6,1.1,3.1,23.39,34.88,1.9171,379.5737],
    [20051,1532813879,56.9303,-111.7256,1061.7,676.7,92.0,1.4,2.7,23.81,35.19,1.9166,379.4823],
    [20052,1532813880,56.9303,-111.7245,1060.7,675.7,91.3,1.3,2.4,23.67,34.96,1.9185,378.373],
    [20053,1532813881,56.9303,-111.7233,1060.3,675.3,90.8,1.4,2.5,23.62,36.04,1.9178,378.5478],
    [20054,1532813882,56.9303,-111.7222,1059.8,675.8,91.1,1.7,3.0,23.79,35.23,1.9174,378.3593],
    [20055,1532813883,56.9304,-111.7211,1058.5,674.5,91.6,1.8,3.6,23.65,35.96,1.9172,378.007],
    [20056,1532813884,56.9304,-111.7199,1056.4,672.4,92.3,2.3,3.8,23.16,36.11,1.9176,378.5249],
    [20057,1532813885,56.9304,-111.7188,1055.7,671.7,90.4,2.9,1.6,23.49,35.8,1.9196,378.3755],
    [20058,1532813886,56.9304,-111.7176,1055.5,671.5,90.3,2.5,1.9,23.41,35.92,1.9179,378.3755],
    [20059,1532813887,56.9304,-111.7165,1054.7,671.4,91.5,1.6,3.2,23.37,35.76,1.9178,378.8535],
    [20060,1532813888,56.9304,-111.7154,1052.7,669.7,92.2,1.7,3.9,23.84,36.18,1.9156,379.1806],
    [20061,1532813889,56.9304,-111.7142,1050.4,667.4,93.0,1.8,4.5,24.1,35.8,1.9169,379.1522],
    [20062,1532813890,56.9304,-111.713,1047.8,664.8,92.1,1.5,3.3,23.63,35.83,1.92,378.3247],
    [20063,1532813891,56.9304,-111.7119,1045.0,663.0,92.2,1.6,3.5,24.17,35.37,1.9211,379.2451],
    [20064,1532813892,56.9304,-111.7108,1042.2,660.2,91.2,2.2,2.7,23.9,35.76,1.9204,379.1945],
    [20065,1532813893,56.9305,-111.7095,1039.4,657.4,90.0,2.2,2.3,23.97,36.18,1.9209,378.6273],
    [20066,1532813894,56.9305,-111.7084,1037.0,655.0,91.2,2.2,3.7,23.51,36.66,1.9201,376.796],
    [20067,1532813895,56.9305,-111.7072,1035.1,654.1,90.4,2.2,2.4,24.11,36.42,1.9187,376.796],
    [20068,1532813896,56.9305,-111.706,1032.6,651.9,91.9,3.0,3.3,23.56,37.5,1.9179,376.2792],
    [20069,1532813897,56.9305,-111.7049,1030.9,650.9,92.3,2.8,2.8,23.89,37.5,1.9203,375.9888],
    [20070,1532813898,56.9305,-111.7037,1029.9,649.9,91.9,2.0,2.2,23.59,38.71,1.9179,375.9888],
    [20071,1532813899,56.9305,-111.7025,1028.9,649.9,92.5,2.3,2.6,23.08,39.14,1.9161,377.5547],
    [20072,1532813900,56.9305,-111.7013,1028.6,650.6,92.0,2.0,2.2,23.89,39.08,1.9175,376.6422],
    [20073,1532813901,56.9305,-111.7002,1028.5,650.5,91.8,1.3,2.1,23.65,39.5,1.9179,376.754],
    [20074,1532813902,56.9305,-111.699,1028.1,651.1,91.0,0.8,1.5,23.15,39.9,1.9158,376.754],
    [20075,1532813903,56.9305,-111.6978,1027.3,650.3,91.1,0.4,1.8,24.08,39.32,1.9155,378.0069],
    [20076,1532813904,56.9305,-111.6966,1026.4,650.4,90.8,0.5,1.4,23.92,39.3,1.9156,377.5045],
    [20077,1532813905,56.9305,-111.6955,1025.4,650.4,90.4,0.9,0.9,22.8,39.48,1.9157,377.2033],
    [20078,1532813906,56.9305,-111.6943,1024.6,650.6,90.7,1.1,1.2,23.97,38.68,1.9167,378.1455],
    [20079,1532813907,56.9305,-111.6931,1024.3,651.3,90.8,0.8,1.1,23.61,38.57,1.9174,378.6292],
    [20080,1532813908,56.9305,-111.6919,1024.6,652.7,90.6,0.3,0.7,23.33,38.76,1.9174,378.1113],
    [20081,1532813909,56.9305,-111.6907,1025.5,653.5,91.0,-0.1,1.2,23.61,38.59,1.919,377.4214],
    [20082,1532813910,56.9305,-111.6896,1026.5,655.5,91.8,0.1,1.9,23.58,39.02,1.9185,377.4214],
    [20083,1532813911,56.9305,-111.6884,1027.6,656.6,91.2,0.3,1.4,23.77,38.2,1.9182,377.8074],
    [20084,1532813912,56.9305,-111.6872,1028.0,658.0,91.5,-0.2,2.0,24.13,37.96,1.9181,377.2321],
    [20085,1532813913,56.9305,-111.6861,1028.1,659.1,91.2,-0.8,1.9,23.71,38.16,1.9181,377.539],
    [20086,1532813914,56.9305,-111.6849,1027.7,659.7,90.4,-1.1,1.4,24.0,38.32,1.9187,377.3673],
    [20087,1532813915,56.9305,-111.6837,1027.2,659.2,90.3,-0.9,1.5,23.56,38.39,1.9202,378.1259],
    [20088,1532813916,56.9306,-111.6826,1027.0,660.0,89.8,-0.3,1.3,23.14,38.43,1.919,377.251],
    [20089,1532813917,56.9306,-111.6814,1026.9,661.1,90.3,0.1,2.0,23.44,38.38,1.9176,378.2639],
    [20090,1532813918,56.9306,-111.6802,1027.2,662.8,90.1,0.0,1.8,23.85,38.44,1.9175,377.515],
    [20091,1532813919,56.9306,-111.6791,1028.3,665.4,89.8,-0.1,1.4,23.45,38.36,1.918,377.1443],
    [20092,1532813920,56.9306,-111.678,1029.7,667.7,90.0,-0.2,1.2,23.36,38.72,1.9184,378.2865],
    [20093,1532813921,56.9306,-111.6768,1031.0,670.0,90.4,-0.2,1.3,23.61,38.52,1.9202,377.8417],
    [20094,1532813922,56.9306,-111.6756,1031.5,671.5,91.1,0.0,1.5,23.43,38.21,1.9188,378.3124],
    [20095,1532813923,56.9306,-111.6745,1031.4,672.3,91.1,0.4,0.8,23.79,38.08,1.9167,377.8351],
    [20096,1532813924,56.9306,-111.6733,1031.1,674.0,91.4,0.5,0.6,23.82,38.24,1.9171,376.9342],
    [20097,1532813925,56.9306,-111.6722,1030.9,673.9,91.8,-0.2,0.6,23.14,37.97,1.9175,378.2504],
    [20098,1532813926,56.9306,-111.671,1030.6,674.2,91.0,-0.9,-0.7,23.28,37.98,1.9157,377.6562],
    [20099,1532813927,56.9306,-111.6699,1030.8,674.8,91.3,-0.7,-0.2,23.46,38.4,1.9176,377.324],
    [20100,1532813928,56.9305,-111.6687,1030.9,675.9,92.9,-0.6,1.5,23.61,38.69,1.9179,377.9983],
    [20101,1532813929,56.9305,-111.6675,1030.2,675.2,93.1,-0.2,1.9,23.72,38.43,1.9187,376.6116],
    [20102,1532813930,56.9305,-111.6664,1027.9,673.9,93.0,-0.5,1.9,23.3,38.16,1.9186,376.8907],
    [20103,1532813931,56.9305,-111.6652,1025.1,671.1,92.4,-0.4,1.4,24.05,37.92,1.9187,377.2023],
    [20104,1532813932,56.9305,-111.6641,1022.4,668.4,92.0,0.2,1.3,24.11,37.93,1.9176,377.4578],
    [20105,1532813933,56.9305,-111.6629,1020.4,666.4,91.2,0.6,0.3,23.66,38.52,1.9169,377.3446],
    [20106,1532813934,56.9305,-111.6617,1019.7,666.7,89.0,1.1,-1.9,23.23,38.96,1.9181,377.5886],
    [20107,1532813935,56.9305,-111.6605,1019.4,666.4,90.1,1.5,-0.3,23.73,39.1,1.9186,377.5852],
    [20108,1532813936,56.9305,-111.6593,1018.7,666.7,90.7,1.5,0.2,23.9,38.16,1.9177,377.4988],
    [20109,1532813937,56.9305,-111.6582,1017.5,665.5,90.5,2.2,0.3,24.19,37.49,1.9198,378.5285],
    [20110,1532813938,56.9304,-111.657,1015.9,663.9,91.7,2.7,1.5,23.74,38.12,1.9209,378.1998],
    [20111,1532813939,56.9304,-111.6558,1013.7,662.7,91.9,3.0,1.7,24.24,37.69,1.9204,377.812],
    [20112,1532813940,56.9304,-111.6546,1011.2,660.2,91.6,3.7,1.3,23.82,38.47,1.9209,379.1],
    [20113,1532813941,56.9304,-111.6534,1008.7,657.7,91.2,3.9,1.4,24.27,37.39,1.9198,377.201],
    [20114,1532813942,56.9304,-111.6522,1006.5,656.5,91.4,3.8,1.9,23.73,38.68,1.9197,378.187],
    [20115,1532813943,56.9304,-111.6511,1004.7,654.7,90.9,3.5,1.8,23.62,38.86,1.9202,379.4381],
    [20116,1532813944,56.9304,-111.6498,1002.7,652.7,90.7,3.7,1.8,23.49,38.07,1.9203,378.4851],
    [20117,1532813945,56.9305,-111.6487,1000.8,650.8,90.2,3.7,1.4,24.37,37.67,1.9205,377.7977],
    [20118,1532813946,56.9305,-111.6475,999.1,650.1,90.4,3.4,1.7,23.61,38.09,1.918,378.6707],
    [20119,1532813947,56.9305,-111.6463,997.6,648.6,91.1,3.4,2.5,23.78,38.69,1.9188,377.4737],
    [20120,1532813948,56.9305,-111.6451,996.4,647.4,91.2,3.9,2.6,23.86,37.93,1.918,377.2084],
    [20121,1532813949,56.9305,-111.644,996.5,648.4,91.6,4.5,2.6,23.74,38.76,1.9179,378.0254],
    [20122,1532813950,56.9305,-111.6428,997.3,651.3,91.3,4.4,1.6,23.39,38.06,1.918,378.0254],
    [20123,1532813951,56.9305,-111.6415,998.0,653.0,92.3,4.5,2.0,23.73,38.07,1.9181,378.3568],
    [20124,1532813952,56.9305,-111.6404,998.1,654.1,94.1,4.6,3.2,23.78,38.62,1.9192,377.1511],
    [20125,1532813953,56.9305,-111.6392,998.1,654.1,93.7,4.0,2.0,23.88,37.76,1.9194,377.4749],
    [20126,1532813954,56.9304,-111.638,998.3,654.3,93.6,3.9,1.7,24.05,38.19,1.9196,377.4749],
    [20127,1532813955,56.9304,-111.6369,998.7,655.0,93.7,3.7,1.3,23.69,37.98,1.9177,378.1938],
    [20128,1532813956,56.9304,-111.6357,999.1,656.1,92.6,3.0,0.4,23.65,38.37,1.9172,377.905],
    [20129,1532813957,56.9304,-111.6345,999.3,656.3,93.0,2.7,1.1,23.65,38.08,1.9174,378.8922],
    [20130,1532813958,56.9304,-111.6333,999.3,657.3,92.7,3.1,1.2,23.98,37.8,1.9178,377.4188],
    [20131,1532813959,56.9303,-111.6322,999.2,657.2,92.5,2.9,1.7,24.19,37.26,1.9182,378.305],
    [20132,1532813960,56.9303,-111.631,998.8,657.8,91.5,2.6,1.0,24.13,37.94,1.9186,378.3927],
    [20133,1532813961,56.9303,-111.6298,998.3,658.0,90.6,3.0,0.5,23.79,38.22,1.918,377.7828],
    [20134,1532813962,56.9303,-111.6286,997.9,657.9,91.2,2.8,1.4,23.89,38.41,1.9178,378.6777],
    [20135,1532813963,56.9303,-111.6274,997.8,657.8,90.6,3.0,0.6,23.51,38.82,1.9186,377.3847],
    [20136,1532813964,56.9303,-111.6262,997.9,657.9,91.0,3.1,1.2,23.77,38.05,1.9186,377.8836],
    [20137,1532813965,56.9303,-111.6251,997.8,658.1,92.0,3.5,1.9,24.51,37.62,1.9202,377.7908],
    [20138,1532813966,56.9303,-111.6239,998.5,659.5,92.0,3.7,1.3,23.61,37.84,1.9188,377.6035],
    [20139,1532813967,56.9303,-111.6227,1000.0,661.0,92.4,3.8,1.3,23.76,38.13,1.9165,377.5023],
    [20140,1532813968,56.9303,-111.6216,1001.0,663.0,92.6,3.3,1.4,23.82,37.93,1.9186,378.0565],
    [20141,1532813969,56.9303,-111.6204,1001.4,664.5,92.3,3.3,1.1,23.73,38.0,1.9176,377.9875],
    [20142,1532813970,56.9303,-111.6192,1001.2,665.4,91.9,2.9,0.8,24.05,38.23,1.9162,377.7066],
    [20143,1532813971,56.9302,-111.6181,1001.2,666.1,92.0,3.2,0.7,23.77,38.05,1.9192,377.8663],
    [20144,1532813972,56.9302,-111.6169,1001.2,666.2,92.5,3.8,1.4,23.84,38.45,1.9202,377.7971],
    [20145,1532813973,56.9302,-111.6157,1000.1,665.1,94.0,4.6,2.9,24.35,37.13,1.9178,378.4411],
    [20146,1532813974,56.9302,-111.6146,999.3,665.4,93.5,4.8,2.4,23.5,37.79,1.9185,379.2565],
    [20147,1532813975,56.9302,-111.6134,999.2,665.3,92.6,4.9,1.9,23.21,38.02,1.9196,378.4577],
    [20148,1532813976,56.9302,-111.6122,999.5,666.8,92.3,5.4,1.9,23.89,37.99,1.9191,379.7841],
    [20149,1532813977,56.9302,-111.611,999.1,667.2,91.9,6.0,1.7,23.66,37.53,1.9191,379.8176],
    [20150,1532813978,56.9302,-111.6098,998.2,665.5,91.9,6.3,1.8,23.77,37.42,1.9197,377.6884],
    [20151,1532813979,56.9302,-111.6087,997.2,664.2,92.0,6.3,2.0,23.89,38.23,1.9184,377.6334],
    [20152,1532813980,56.9302,-111.6075,995.9,663.0,92.3,6.4,2.2,23.95,37.55,1.9173,377.2315],
    [20153,1532813981,56.9302,-111.6063,995.1,661.1,92.6,6.4,2.5,23.42,37.65,1.9181,378.1838],
    [20154,1532813982,56.9302,-111.6051,994.5,659.7,92.8,6.3,2.8,24.02,37.45,1.9176,378.1838],
    [20155,1532813983,56.9301,-111.6039,993.6,658.6,92.5,5.9,2.5,24.3,37.44,1.9161,377.8045],
    [20156,1532813984,56.9301,-111.6028,992.9,657.9,92.5,5.3,2.4,24.18,37.27,1.9158,377.9847],
    [20157,1532813985,56.9301,-111.6016,992.2,657.3,92.8,4.7,2.3,23.88,38.37,1.9163,378.3443],
    [20158,1532813986,56.9301,-111.6005,991.5,657.5,92.3,4.2,1.7,23.89,37.76,1.9165,378.3265],
    [20159,1532813987,56.9301,-111.5993,990.4,657.4,92.4,2.3,1.9,24.09,37.7,1.9141,378.2699],
    [20160,1532813988,56.9301,-111.5982,989.1,657.0,92.0,1.8,1.7,23.9,38.72,1.9165,378.1615],
    [20161,1532813989,56.9301,-111.5971,987.9,658.0,91.6,1.6,1.6,24.16,37.78,1.9165,377.5088],
    [20162,1532813990,56.9301,-111.5959,986.5,657.5,91.6,0.6,1.7,23.59,38.05,1.915,376.6122],
    [20163,1532813991,56.9301,-111.5947,985.1,659.1,91.7,-0.1,1.3,23.65,38.12,1.9151,377.1909],
    [20164,1532813992,56.9301,-111.5936,983.9,658.8,92.1,-0.3,1.0,23.88,38.48,1.9153,378.1858],
    [20165,1532813993,56.9301,-111.5924,983.4,655.2,91.7,-0.1,0.3,24.08,37.73,1.9161,376.0967],
    [20166,1532813994,56.9301,-111.5913,983.3,653.3,92.5,-0.2,1.0,23.88,38.95,1.9153,376.4928],
    [20167,1532813995,56.93,-111.5901,983.2,653.4,92.3,-1.0,1.0,24.07,38.34,1.9148,377.9139],
    [20168,1532813996,56.93,-111.5889,982.8,653.8,92.4,-0.8,1.5,23.95,38.82,1.9147,377.8984],
    [20169,1532813997,56.93,-111.5878,983.0,654.0,91.8,-1.1,1.2,24.3,37.76,1.9143,378.1567],
    [20170,1532813998,56.93,-111.5867,983.5,655.4,90.7,-1.7,0.3,23.22,37.92,1.9145,376.7897],
    [20171,1532813999,56.93,-111.5855,983.0,655.0,90.2,-1.3,0.2,23.85,38.08,1.9147,376.2842],
    [20172,1532814000,56.93,-111.5844,981.2,653.3,91.0,-0.6,1.2,23.79,37.73,1.9146,378.2063],
    [20173,1532814001,56.93,-111.5833,979.1,652.1,91.2,-0.5,1.3,23.46,37.77,1.9156,375.7236],
    [20174,1532814002,56.93,-111.5821,976.8,649.8,91.1,-0.4,1.3,23.23,37.63,1.9156,377.8237],
    [20175,1532814003,56.93,-111.5809,974.8,648.8,91.1,-0.3,1.4,23.56,37.63,1.9163,377.8114],
    [20176,1532814004,56.93,-111.5798,973.3,647.3,90.2,-0.1,1.8,23.54,37.42,1.9156,378.0142],
    [20177,1532814005,56.93,-111.5787,971.5,645.4,88.9,0.2,2.2,23.73,37.4,1.9165,377.6879],
    [20178,1532814006,56.9301,-111.5775,969.1,644.1,85.2,-0.6,1.4,23.78,37.5,1.9149,377.6548],
    [20179,1532814007,56.9302,-111.5764,967.6,642.6,81.6,-1.5,1.6,23.97,37.41,1.915,377.8719],
    [20180,1532814008,56.9303,-111.5753,967.4,643.4,77.1,-1.4,1.0,23.8,38.2,1.9153,377.6341],
    [20181,1532814009,56.9305,-111.5742,968.5,645.5,72.9,-2.0,0.5,23.09,37.6,1.9146,377.5497],
    [20182,1532814010,56.9307,-111.5731,970.4,648.0,68.6,-2.8,-0.4,24.11,36.96,1.9165,378.9676],
    [20183,1532814011,56.9309,-111.5721,972.4,650.4,64.2,-2.8,-1.4,23.98,37.83,1.9175,378.9676],
    [20184,1532814012,56.9312,-111.5711,974.2,652.2,60.1,-2.6,-2.0,23.81,37.43,1.9166,375.8559],
    [20185,1532814013,56.9315,-111.5701,975.9,653.0,56.4,-2.9,-2.4,23.7,37.53,1.9167,377.5944],
    [20186,1532814014,56.9319,-111.5692,977.3,654.3,53.5,-4.0,-2.7,23.86,38.04,1.9159,376.4043],
    [20187,1532814015,56.9323,-111.5683,978.4,655.4,49.9,-4.0,-3.5,24.0,38.17,1.9141,376.4043],
    [20188,1532814016,56.9327,-111.5675,979.2,656.2,47.0,-3.8,-3.9,24.23,37.79,1.9154,377.792],
    [20189,1532814017,56.9331,-111.5667,979.4,656.4,44.2,-3.5,-4.4,24.4,37.67,1.9146,375.4246],
    [20190,1532814018,56.9335,-111.5659,979.5,657.5,41.3,-3.4,-5.3,24.35,38.19,1.9151,375.4246],
    [20191,1532814019,56.934,-111.5652,979.1,657.1,39.3,-2.8,-4.4,24.25,38.08,1.9145,376.9288],
    [20192,1532814020,56.9345,-111.5645,977.3,656.3,36.6,-2.1,-4.8,23.8,38.55,1.9139,376.0861],
    [20193,1532814021,56.935,-111.5638,974.5,653.8,33.0,-1.2,-4.8,24.02,39.23,1.9128,376.7574],
    [20194,1532814022,56.9355,-111.5632,972.2,652.9,29.5,-0.2,-4.1,23.54,38.94,1.9136,376.748],
    [20195,1532814023,56.936,-111.5627,970.1,651.2,25.8,0.7,-3.1,24.11,38.57,1.9142,376.2834],
    [20196,1532814024,56.9366,-111.5622,968.2,650.5,23.1,0.7,-1.9,23.65,38.73,1.9129,377.5334],
    [20197,1532814025,56.9372,-111.5617,967.0,650.0,21.1,0.3,-0.4,24.49,38.3,1.914,377.1335],
    [20198,1532814026,56.9377,-111.5613,966.4,650.4,19.1,0.4,0.4,23.98,38.52,1.916,377.8324],
    [20199,1532814027,56.9383,-111.561,966.2,650.4,15.5,1.9,-0.1,23.86,38.12,1.9143,378.1526],
    [20200,1532814028,56.9389,-111.5607,966.2,651.2,13.2,1.9,-0.2,24.22,37.38,1.9148,377.1505],
    [20201,1532814029,56.9396,-111.5604,966.0,651.0,11.2,1.7,0.2,23.97,37.83,1.9158,377.8305],
    [20202,1532814030,56.9402,-111.5602,965.7,650.7,8.4,2.5,0.6,23.95,37.7,1.9155,377.8009],
    [20203,1532814031,56.9408,-111.56,965.1,650.1,7.0,2.4,1.0,24.02,38.69,1.9151,377.6034],
    [20204,1532814032,56.9414,-111.5598,964.2,649.2,6.1,2.4,1.3,23.65,37.89,1.9148,376.5436],
    [20205,1532814033,56.9421,-111.5597,965.1,650.1,4.3,2.4,1.5,23.87,37.98,1.9155,377.5682],
    [20206,1532814034,56.9427,-111.5596,966.8,651.8,362.1,3.3,1.6,24.68,37.49,1.9152,378.2988],
    [20207,1532814035,56.9433,-111.5595,968.1,653.1,361.7,2.3,1.6,24.38,37.46,1.9151,377.738],
    [20208,1532814036,56.944,-111.5594,969.2,654.2,361.6,1.6,1.5,24.47,37.18,1.9142,377.8673],
    [20209,1532814037,56.9446,-111.5594,970.6,655.6,360.1,2.3,1.8,24.04,37.74,1.9147,378.4367],
    [20210,1532814038,56.9452,-111.5593,971.0,655.0,359.9,1.9,2.0,24.38,37.17,1.9155,378.0187],
    [20211,1532814039,56.9459,-111.5593,970.8,654.8,357.7,3.7,2.1,24.06,37.33,1.916,377.3008],
    [20212,1532814040,56.9465,-111.5593,970.4,654.4,357.5,3.3,2.3,24.69,36.88,1.9155,378.1479],
    [20213,1532814041,56.9471,-111.5593,969.7,653.4,358.4,2.1,2.7,23.69,37.32,1.9164,377.5813],
    [20214,1532814042,56.9478,-111.5593,968.9,651.9,357.7,2.6,3.2,23.89,37.49,1.9155,377.9405],
    [20215,1532814043,56.9484,-111.5593,968.0,650.1,357.4,2.2,3.2,24.3,36.88,1.9153,377.9405],
    [20216,1532814044,56.949,-111.5593,966.7,648.7,357.5,1.6,3.3,24.01,37.41,1.9143,376.654],
    [20217,1532814045,56.9497,-111.5594,964.9,645.9,356.2,2.8,3.8,24.17,36.96,1.9141,377.6966],
    [20218,1532814046,56.9503,-111.5594,963.3,643.3,355.7,2.9,4.1,24.16,37.18,1.914,378.1349],
    [20219,1532814047,56.9509,-111.5594,962.3,642.3,356.0,2.6,4.2,24.44,36.66,1.9147,379.5258],
    [20220,1532814048,56.9516,-111.5595,961.7,641.7,355.9,2.5,4.5,24.3,36.95,1.9167,377.6137],
    [20221,1532814049,56.9522,-111.5595,960.7,639.7,356.8,1.6,4.7,24.06,37.28,1.9151,378.4393],
    [20222,1532814050,56.9529,-111.5595,959.6,638.6,356.0,2.4,4.9,24.81,36.31,1.9148,378.0721],
    [20223,1532814051,56.9535,-111.5596,959.1,638.1,357.4,1.1,4.9,24.06,36.72,1.915,377.7891],
    [20224,1532814052,56.9541,-111.5596,959.3,638.3,358.6,0.5,4.5,23.78,36.89,1.9127,378.4252],
    [20225,1532814053,56.9548,-111.5596,960.2,639.2,358.9,0.7,3.8,23.9,37.29,1.913,377.4442],
    [20226,1532814054,56.9554,-111.5596,961.1,641.1,360.0,-0.1,3.8,23.95,37.21,1.9128,376.5523],
    [20227,1532814055,56.9561,-111.5596,962.2,642.2,359.9,0.1,3.8,24.86,36.51,1.9139,376.5148],
    [20228,1532814056,56.9568,-111.5596,963.3,644.3,360.2,-0.2,4.0,23.91,37.19,1.9135,376.8524],
    [20229,1532814057,56.9574,-111.5596,963.6,645.9,360.2,-0.5,3.8,24.4,36.38,1.9148,378.9586],
    [20230,1532814058,56.958,-111.5596,963.1,646.1,359.5,0.1,3.7,24.48,36.49,1.9161,378.5038],
    [20231,1532814059,56.9586,-111.5596,963.0,646.0,358.6,0.4,3.9,24.59,36.67,1.9161,378.8772],
    [20232,1532814060,56.9593,-111.5596,961.8,644.1,358.7,0.3,4.3,24.42,36.66,1.9158,378.9677],
    [20233,1532814061,56.9599,-111.5597,960.2,641.9,357.8,1.3,4.1,24.02,37.67,1.9161,378.9677],
    [20234,1532814062,56.9606,-111.5597,958.0,639.3,358.0,1.3,4.4,24.18,36.53,1.915,377.3642],
    [20235,1532814063,56.9612,-111.5597,955.8,637.8,358.0,1.7,4.8,23.78,37.0,1.9153,378.2348],
    [20236,1532814064,56.9619,-111.5597,954.1,636.1,357.6,2.0,4.9,24.17,37.11,1.915,378.4616],
    [20237,1532814065,56.9625,-111.5597,952.7,634.7,358.1,1.4,5.0,24.54,36.2,1.9149,378.4616],
    [20238,1532814066,56.9632,-111.5597,951.5,633.5,357.7,1.9,4.8,24.23,36.49,1.915,378.5697],
    [20239,1532814067,56.9638,-111.5597,950.5,632.5,357.8,1.7,4.8,23.69,36.65,1.9158,378.0287],
    [20240,1532814068,56.9644,-111.5598,949.6,632.6,359.2,0.5,4.7,23.97,36.63,1.9147,378.0287],
    [20241,1532814069,56.9651,-111.5598,949.2,633.2,358.7,1.8,4.5,24.6,36.16,1.9159,378.6526],
    [20242,1532814070,56.9657,-111.5598,949.4,634.5,359.0,2.0,4.3,24.48,36.44,1.9165,378.6526],
    [20243,1532814071,56.9663,-111.5597,949.8,634.8,360.1,1.5,4.0,24.05,36.46,1.9144,379.1059],
    [20244,1532814072,56.967,-111.5597,950.3,637.3,359.8,2.3,4.0,23.91,37.29,1.9152,378.736],
    [20245,1532814073,56.9676,-111.5597,950.8,637.8,359.8,2.5,4.1,23.75,36.21,1.9134,378.3463],
    [20246,1532814074,56.9682,-111.5596,951.4,638.4,359.7,2.6,4.4,23.92,36.24,1.9156,378.1739],
    [20247,1532814075,56.9688,-111.5596,951.9,637.9,359.0,3.2,4.6,23.46,36.19,1.9158,378.1739],
    [20248,1532814076,56.9695,-111.5596,952.1,636.1,358.6,3.2,4.5,23.92,36.2,1.9145,378.8873],
    [20249,1532814077,56.9701,-111.5595,952.4,634.8,359.4,2.1,4.4,23.95,36.43,1.9146,379.1141],
    [20250,1532814078,56.9707,-111.5595,953.3,632.9,358.8,2.4,4.1,23.8,36.85,1.914,378.1273],
    [20251,1532814079,56.9713,-111.5595,954.1,632.1,358.3,2.7,3.8,24.08,35.93,1.9156,378.6086],
    [20252,1532814080,56.9719,-111.5595,954.7,631.6,358.3,2.5,3.4,24.78,35.31,1.9134,378.2735],
    [20253,1532814081,56.9726,-111.5595,955.3,631.3,357.8,2.8,3.2,24.49,35.91,1.9136,378.4561],
    [20254,1532814082,56.9732,-111.5595,955.9,631.9,358.1,2.4,3.3,24.32,35.55,1.9146,378.8646],
    [20255,1532814083,56.9738,-111.5595,956.2,632.2,358.2,2.4,3.8,24.63,35.69,1.9148,378.3192],
    [20256,1532814084,56.9744,-111.5595,956.6,632.6,358.2,2.4,4.3,23.49,36.15,1.9144,378.3195],
    [20257,1532814085,56.975,-111.5595,956.9,632.9,358.8,2.1,4.8,24.27,36.03,1.9142,377.6665],
    [20258,1532814086,56.9756,-111.5594,957.0,632.6,358.9,2.2,5.2,24.26,36.55,1.9156,378.5566],
    [20259,1532814087,56.9762,-111.5594,957.1,633.1,358.7,2.4,5.5,24.24,36.08,1.9133,378.5541],
    [20260,1532814088,56.9769,-111.5594,957.2,633.2,358.9,2.1,5.5,23.59,36.33,1.9141,378.1658],
    [20261,1532814089,56.9775,-111.5594,957.3,633.3,358.9,2.1,5.7,23.94,36.19,1.9152,377.6298],
    [20262,1532814090,56.9781,-111.5594,957.5,634.5,359.0,2.1,5.8,23.99,36.67,1.9155,378.6532],
    [20263,1532814091,56.9787,-111.5594,958.1,636.1,358.7,2.5,5.3,24.01,37.08,1.9155,379.6385],
    [20264,1532814092,56.9793,-111.5593,958.4,638.6,359.3,2.0,5.1,23.96,36.69,1.9144,378.9046],
    [20265,1532814093,56.9799,-111.5593,958.2,640.9,359.7,1.8,5.0,23.82,36.61,1.9147,378.4191],
    [20266,1532814094,56.9805,-111.5593,958.1,644.2,359.4,2.2,4.7,24.07,36.3,1.9146,378.6073],
    [20267,1532814095,56.9811,-111.5593,958.2,649.2,359.6,2.1,4.5,23.54,36.61,1.9143,378.8196],
    [20268,1532814096,56.9817,-111.5592,958.0,649.0,359.1,2.7,4.1,24.24,36.29,1.9137,378.039],
    [20269,1532814097,56.9823,-111.5592,958.0,649.0,359.0,2.7,4.2,23.65,36.67,1.9161,378.039],
    [20270,1532814098,56.9829,-111.5592,957.6,648.6,358.9,2.8,4.1,23.81,36.89,1.9161,377.5053],
    [20271,1532814099,56.9836,-111.5592,957.2,648.2,358.5,2.8,3.9,24.77,36.25,1.9157,375.9093],
    [20272,1532814100,56.9842,-111.5592,956.8,647.8,358.5,2.4,3.9,24.01,37.31,1.9143,378.4691],
    [20273,1532814101,56.9848,-111.5591,956.4,647.4,357.4,3.0,3.7,23.87,37.1,1.9141,378.4691],
    [20274,1532814102,56.9854,-111.5592,955.9,646.9,356.9,2.9,3.6,23.88,37.33,1.9129,378.739],
    [20275,1532814103,56.986,-111.5592,955.4,644.6,356.8,2.7,3.3,23.54,37.02,1.9152,379.2796],
    [20276,1532814104,56.9866,-111.5592,954.8,642.4,356.5,2.8,3.4,23.79,36.77,1.9153,378.7194],
    [20277,1532814105,56.9873,-111.5592,954.5,639.2,356.7,2.5,3.3,23.86,36.66,1.9147,378.6172],
    [20278,1532814106,56.9879,-111.5592,954.5,637.5,356.9,2.3,3.2,24.25,36.26,1.9143,377.0266],
    [20279,1532814107,56.9885,-111.5592,954.6,636.6,356.9,2.6,2.9,23.84,36.3,1.9157,378.6298],
    [20280,1532814108,56.9891,-111.5593,954.9,635.9,356.2,3.3,2.3,23.87,37.05,1.9161,378.4734],
    [20281,1532814109,56.9897,-111.5593,955.6,635.6,356.5,2.9,1.9,23.61,36.39,1.9183,378.1049],
    [20282,1532814110,56.9903,-111.5593,956.5,637.2,356.4,3.2,0.9,23.88,37.31,1.9163,376.4211],
    [20283,1532814111,56.9909,-111.5593,957.8,638.8,356.1,3.5,0.7,24.0,37.38,1.9149,377.6631],
    [20284,1532814112,56.9915,-111.5593,959.4,639.8,356.5,3.2,1.8,24.06,38.44,1.9151,377.6631],
    [20285,1532814113,56.9921,-111.5593,960.7,640.7,356.6,3.1,2.4,23.46,38.14,1.9147,377.4683],
    [20286,1532814114,56.9927,-111.5593,961.3,641.3,357.0,2.9,2.1,23.6,39.08,1.9137,377.8433],
    [20287,1532814115,56.9933,-111.5594,961.6,641.6,357.2,2.9,2.5,23.79,38.98,1.9095,378.7992],
    [20288,1532814116,56.9939,-111.5594,961.7,640.7,357.4,2.8,2.4,23.77,38.73,1.9122,378.7704],
    [20289,1532814117,56.9945,-111.5594,961.6,640.5,357.5,2.8,2.2,23.67,37.43,1.9156,377.7937],
    [20290,1532814118,56.9951,-111.5594,962.7,640.7,357.3,3.0,1.9,24.06,37.02,1.9165,377.8198],
    [20291,1532814119,56.9957,-111.5594,965.5,642.5,356.5,3.5,1.0,24.09,36.68,1.9147,378.3419],
    [20292,1532814120,56.9963,-111.5594,969.7,646.8,355.8,3.8,0.0,23.64,37.07,1.9133,378.4611],
    [20293,1532814121,56.9969,-111.5594,974.1,650.3,355.8,3.5,-0.6,24.26,36.97,1.9139,378.3774],
    [20294,1532814122,56.9975,-111.5594,977.0,653.1,356.0,3.1,-1.2,23.91,37.1,1.9161,378.8251],
    [20295,1532814123,56.9981,-111.5594,979.1,656.0,354.9,4.1,-1.8,24.41,36.75,1.9143,378.7673],
    [20296,1532814124,56.9987,-111.5595,981.1,657.9,354.8,3.9,-2.1,24.41,36.38,1.9158,378.0215],
    [20297,1532814125,56.9992,-111.5595,982.7,659.6,355.5,3.3,-2.5,24.1,36.8,1.9159,379.6595],
    [20298,1532814126,56.9998,-111.5596,983.9,660.9,355.2,3.6,-2.7,23.88,37.62,1.9129,378.2725],
    [20299,1532814127,57.0004,-111.5596,984.0,661.2,355.5,3.4,-2.3,23.84,36.67,1.9154,377.6484],
    [20300,1532814128,57.001,-111.5596,983.4,660.4,356.0,3.2,-2.0,23.39,36.4,1.9143,379.0799],
    [20301,1532814129,57.0016,-111.5596,982.3,659.3,356.2,3.3,-1.7,24.17,35.75,1.9154,378.6663],
    [20302,1532814130,57.0021,-111.5596,981.0,657.0,356.9,3.0,-0.9,24.51,35.58,1.9157,378.7116],
    [20303,1532814131,57.0027,-111.5597,979.5,656.2,357.3,3.2,-0.4,23.59,35.66,1.9134,378.5794],
    [20304,1532814132,57.0033,-111.5596,978.3,655.3,357.7,3.1,-0.4,24.34,35.18,1.9155,377.7533],
    [20305,1532814133,57.0039,-111.5596,977.6,654.7,358.2,2.9,-0.5,24.13,34.87,1.9137,378.7166],
    [20306,1532814134,57.0045,-111.5596,977.4,655.4,358.0,3.2,-0.7,24.01,34.84,1.9144,379.3097],
    [20307,1532814135,57.0051,-111.5596,977.5,655.5,358.7,2.5,-1.0,23.35,35.03,1.9141,379.5906],
    [20308,1532814136,57.0057,-111.5596,977.7,656.6,358.9,2.5,-1.6,24.07,35.19,1.9146,379.0565],
    [20309,1532814137,57.0063,-111.5596,977.8,656.8,358.8,2.6,-2.1,23.59,35.79,1.915,379.8854],
    [20310,1532814138,57.0069,-111.5596,977.7,656.7,359.3,2.2,-2.3,23.57,35.0,1.915,379.8854],
    [20311,1532814139,57.0075,-111.5595,977.4,656.4,358.8,2.7,-2.3,23.66,34.96,1.9149,378.8928],
    [20312,1532814140,57.0081,-111.5595,977.0,656.0,359.2,2.2,-2.5,24.11,34.93,1.915,379.0032],
    [20313,1532814141,57.0087,-111.5595,976.4,655.4,358.6,2.8,-3.0,24.54,34.72,1.9156,379.0964],
    [20314,1532814142,57.0093,-111.5595,975.6,654.6,358.1,3.0,-2.9,24.03,35.02,1.915,379.2114],
    [20315,1532814143,57.0099,-111.5595,974.5,653.5,358.6,2.4,-2.7,24.16,34.72,1.9135,380.2626],
    [20316,1532814144,57.0105,-111.5594,973.3,652.3,358.2,2.9,-2.5,23.83,35.07,1.9147,379.55],
    [20317,1532814145,57.0111,-111.5594,972.0,652.0,358.4,2.6,-2.2,23.67,35.36,1.9151,379.6977],
    [20318,1532814146,57.0118,-111.5594,971.3,651.3,358.5,2.4,-2.1,23.96,35.59,1.9146,378.0748],
    [20319,1532814147,57.0124,-111.5594,971.7,651.4,358.9,1.8,-2.3,24.05,34.72,1.915,378.9726],
    [20320,1532814148,57.013,-111.5594,971.3,650.3,359.4,1.5,-2.6,24.26,34.87,1.9161,379.5057],
    [20321,1532814149,57.0136,-111.5594,970.6,649.6,358.1,3.1,-2.9,23.56,35.16,1.9175,378.7026],
    [20322,1532814150,57.0142,-111.5594,970.2,650.2,358.0,3.0,-2.9,23.9,35.4,1.9179,378.7507],
    [20323,1532814151,57.0148,-111.5594,969.5,649.5,358.0,3.1,-2.7,23.77,35.27,1.9185,379.251],
    [20324,1532814152,57.0154,-111.5594,968.5,649.5,357.1,3.8,-2.4,24.58,34.85,1.9183,379.1271],
    [20325,1532814153,57.016,-111.5594,967.2,648.2,357.2,3.8,-2.2,23.96,35.39,1.9156,379.4116],
    [20326,1532814154,57.0167,-111.5594,966.2,647.2,356.9,4.0,-1.9,23.4,35.18,1.9149,378.4239],
    [20327,1532814155,57.0173,-111.5594,965.4,646.4,357.1,3.9,-1.8,23.81,35.12,1.9168,378.1323],
    [20328,1532814156,57.0179,-111.5594,964.3,646.4,357.2,3.7,-1.7,23.98,35.44,1.9173,378.6654],
    [20329,1532814157,57.0185,-111.5593,963.4,645.4,357.8,3.2,-1.6,23.88,35.27,1.9158,378.1438],
    [20330,1532814158,57.0192,-111.5593,962.2,644.2,357.3,3.8,-1.4,23.65,35.0,1.9158,379.502],
    [20331,1532814159,57.0198,-111.5593,961.0,643.0,358.1,2.6,-1.0,24.34,34.49,1.9165,379.1897],
    [20332,1532814160,57.0204,-111.5593,960.0,642.0,358.4,2.3,-0.8,24.17,34.99,1.9159,380.1688],
    [20333,1532814161,57.021,-111.5593,959.2,642.2,356.8,3.8,-0.7,24.26,34.56,1.9153,380.3342],
    [20334,1532814162,57.0216,-111.5593,958.8,641.8,357.2,2.8,-1.0,23.89,34.92,1.9151,379.518],
    [20335,1532814163,57.0223,-111.5593,958.5,641.5,356.8,3.1,-0.9,23.56,34.79,1.9156,379.7956],
    [20336,1532814164,57.0229,-111.5594,958.6,641.6,355.8,3.5,-0.9,24.3,35.37,1.9151,380.2022],
    [20337,1532814165,57.0235,-111.5594,958.7,642.7,355.7,3.2,-1.2,24.23,35.26,1.916,380.2022],
    [20338,1532814166,57.0241,-111.5594,959.0,643.0,354.9,3.9,-0.9,24.35,34.54,1.9186,378.7787],
    [20339,1532814167,57.0248,-111.5595,959.5,643.5,354.6,4.1,-0.7,24.71,34.41,1.9178,378.7787],
    [20340,1532814168,57.0254,-111.5595,959.9,644.9,354.9,3.9,-0.7,24.14,34.87,1.9155,378.6542],
    [20341,1532814169,57.026,-111.5596,959.7,644.7,355.8,3.3,-0.6,24.86,34.65,1.9187,377.0595],
    [20342,1532814170,57.0266,-111.5596,958.5,643.5,356.2,3.3,-0.2,24.23,35.38,1.916,379.0138],
    [20343,1532814171,57.0273,-111.5596,956.8,640.8,356.4,3.5,0.4,24.71,34.32,1.9144,379.4556],
    [20344,1532814172,57.0279,-111.5596,954.7,638.7,356.9,3.1,1.1,24.03,34.83,1.9151,377.1406],
    [20345,1532814173,57.0286,-111.5596,952.5,635.5,357.2,2.9,2.0,24.28,34.63,1.9141,379.5117],
    [20346,1532814174,57.0292,-111.5596,950.6,633.6,357.1,3.1,3.3,23.66,34.51,1.9145,379.9403],
    [20347,1532814175,57.0298,-111.5596,949.1,633.2,357.2,3.0,4.4,24.41,34.06,1.915,379.1414],
    [20348,1532814176,57.0305,-111.5596,947.3,631.3,357.0,3.2,5.1,24.25,34.17,1.9145,380.3756],
    [20349,1532814177,57.0311,-111.5596,945.4,630.4,357.6,2.6,5.5,24.21,33.8,1.9084,381.0031],
    [20350,1532814178,57.0318,-111.5596,943.8,628.8,358.0,2.4,6.1,24.79,32.72,1.9018,384.2409],
    [20351,1532814179,57.0325,-111.5596,941.9,626.9,357.9,2.8,6.7,24.14,31.31,1.9061,388.4075],
    [20352,1532814180,57.0331,-111.5596,940.1,624.1,358.2,2.8,6.9,24.04,29.6,1.926,396.4534],
    [20353,1532814181,57.0338,-111.5596,938.4,622.4,357.9,3.1,7.7,24.51,28.92,1.9412,398.7808],
    [20354,1532814182,57.0344,-111.5596,936.7,620.7,358.5,2.6,7.9,24.9,28.63,1.948,400.7243],
    [20355,1532814183,57.0351,-111.5596,934.9,619.9,358.4,2.7,8.5,24.66,29.8,1.9441,400.7888],
    [20356,1532814184,57.0357,-111.5596,933.0,619.0,358.5,2.6,9.1,24.04,31.45,1.9377,397.908],
    [20357,1532814185,57.0364,-111.5596,931.1,618.1,358.6,2.6,8.7,24.52,32.78,1.9249,394.7409],
    [20358,1532814186,57.0371,-111.5596,929.7,617.7,358.3,2.9,8.9,23.8,33.98,1.9226,389.8567],
    [20359,1532814187,57.0377,-111.5595,928.6,616.6,358.3,2.6,9.0,24.47,33.2,1.941,398.9302],
    [20360,1532814188,57.0384,-111.5595,927.8,616.8,358.3,2.5,9.2,25.02,32.67,1.9451,401.6753],
    [20361,1532814189,57.0391,-111.5595,927.2,616.2,357.8,2.7,9.1,24.26,32.33,1.9344,391.4878],
    [20362,1532814190,57.0397,-111.5595,926.7,615.7,357.4,2.7,8.9,23.94,31.91,1.9139,386.7035],
    [20363,1532814191,57.0404,-111.5595,926.3,618.3,356.9,2.6,8.7,23.73,31.92,1.9183,389.2523],
    [20364,1532814192,57.041,-111.5596,926.0,620.6,356.5,2.6,8.3,24.92,30.82,1.9248,393.7015],
    [20365,1532814193,57.0417,-111.5596,925.8,622.8,355.9,2.8,7.3,24.27,32.16,1.9219,386.3197],
    [20366,1532814194,57.0424,-111.5596,925.6,622.6,355.6,2.6,7.1,24.46,31.56,1.9226,381.8073],
    [20367,1532814195,57.043,-111.5597,925.4,622.4,355.0,2.8,7.2,24.63,32.91,1.9216,379.5596],
    [20368,1532814196,57.0437,-111.5597,925.2,622.2,354.6,2.9,7.5,24.26,34.25,1.9213,379.8862],
    [20369,1532814197,57.0443,-111.5598,924.8,617.4,354.5,2.8,7.8,23.69,35.35,1.9178,379.2359],
    [20370,1532814198,57.045,-111.5598,924.3,614.8,354.4,3.0,7.7,25.05,35.61,1.917,379.2824],
    [20371,1532814199,57.0456,-111.5599,923.5,612.2,354.7,3.1,6.7,24.58,36.85,1.9207,386.1078],
    [20372,1532814200,57.0463,-111.5599,922.9,609.9,354.6,3.6,5.4,24.94,36.46,1.928,395.1057],
    [20373,1532814201,57.047,-111.56,922.2,609.2,355.4,3.0,4.8,23.97,36.76,1.9338,386.6183],
    [20374,1532814202,57.0477,-111.56,921.3,608.3,356.5,2.4,5.1,24.48,35.96,1.9343,388.1919],
    [20375,1532814203,57.0483,-111.56,920.5,607.5,356.3,3.1,5.5,24.07,36.97,1.9358,390.0228],
    [20376,1532814204,57.049,-111.5601,919.5,606.5,356.7,3.3,5.5,24.64,36.14,1.9365,386.8784],
    [20377,1532814205,57.0496,-111.5601,918.7,605.7,357.0,3.5,5.4,24.12,38.04,1.9344,387.1075],
    [20378,1532814206,57.0503,-111.5601,917.9,604.2,357.4,3.3,5.0,24.25,38.01,1.9334,387.6199],
    [20379,1532814207,57.051,-111.5601,917.1,603.1,357.0,3.9,4.6,24.25,38.17,1.9314,387.6199],
    [20380,1532814208,57.0516,-111.5601,917.2,603.2,356.3,4.4,4.4,23.8,38.16,1.9312,387.9766],
    [20381,1532814209,57.0523,-111.5601,919.0,605.0,356.6,3.8,3.4,24.12,38.91,1.9328,387.3423],
    [20382,1532814210,57.0529,-111.5601,922.1,608.1,356.0,4.2,2.2,23.61,38.58,1.9324,384.9153],
    [20383,1532814211,57.0535,-111.5601,926.6,612.6,355.3,4.7,1.2,24.34,38.06,1.9321,385.8073],
    [20384,1532814212,57.0542,-111.5601,931.0,617.0,355.2,4.7,0.3,24.16,38.88,1.9331,387.5784],
    [20385,1532814213,57.0548,-111.5601,934.9,620.9,355.0,4.6,-0.9,23.72,38.75,1.9386,387.6571],
    [20386,1532814214,57.0554,-111.5601,938.4,624.4,355.5,4.0,-1.7,23.8,38.99,1.9365,389.0922],
    [20387,1532814215,57.056,-111.5602,941.3,627.3,355.2,4.3,-2.5,24.32,38.55,1.924,385.6506],
    [20388,1532814216,57.0567,-111.5602,943.7,629.7,354.7,4.9,-3.3,24.04,39.33,1.9208,381.9584],
    [20389,1532814217,57.0573,-111.5602,945.5,631.5,354.6,4.9,-4.1,23.21,39.12,1.9178,379.9715],
    [20390,1532814218,57.0578,-111.5603,946.6,633.3,354.6,5.2,-5.4,24.22,38.84,1.9203,379.7904],
    [20391,1532814219,57.0585,-111.5603,947.2,634.3,352.9,7.4,-6.2,24.79,38.24,1.9214,380.646],
    [20392,1532814220,57.0591,-111.5603,947.4,633.4,353.1,7.1,-6.2,23.49,38.41,1.9212,380.641],
    [20393,1532814221,57.0597,-111.5603,948.0,634.0,353.8,6.1,-5.6,24.01,38.25,1.9204,380.8722],
    [20394,1532814222,57.0603,-111.5604,948.9,633.9,353.7,6.1,-5.6,23.87,37.68,1.9212,379.9499],
    [20395,1532814223,57.0609,-111.5604,950.1,636.1,353.4,6.5,-5.7,23.49,37.65,1.9252,379.9499],
    [20396,1532814224,57.0615,-111.5604,951.2,638.3,353.7,6.5,-5.7,23.67,37.46,1.9258,379.9099],
    [20397,1532814225,57.0621,-111.5605,952.6,639.6,353.4,6.8,-6.3,23.5,36.57,1.9269,380.0902],
    [20398,1532814226,57.0627,-111.5605,954.1,641.1,354.3,5.9,-7.0,23.96,36.75,1.9597,380.3788],
    [20399,1532814227,57.0633,-111.5605,955.2,643.2,354.6,5.9,-7.1,24.02,36.73,1.9602,380.2389],
    [20400,1532814228,57.0639,-111.5605,956.3,644.3,354.0,6.6,-7.3,23.95,35.98,1.9581,380.5131],
    [20401,1532814229,57.0646,-111.5606,957.6,645.6,355.2,5.1,-8.3,24.67,34.5,1.9512,379.7755],
    [20402,1532814230,57.0652,-111.5606,959.3,647.3,355.8,4.1,-8.2,24.09,34.47,1.9551,379.6096],
    [20403,1532814231,57.0658,-111.5606,961.4,649.1,357.0,2.2,-7.8,23.88,35.04,1.9481,378.5454],
    [20404,1532814232,57.0665,-111.5606,963.5,651.6,357.6,1.8,-7.4,24.0,34.35,1.95,380.3027],
    [20405,1532814233,57.0671,-111.5607,965.4,653.4,356.9,2.6,-6.9,23.67,34.57,1.9672,379.6234],
    [20406,1532814234,57.0677,-111.5607,967.1,656.0,357.8,1.7,-6.2,24.02,34.11,1.9667,379.9694],
    [20407,1532814235,57.0683,-111.5607,968.2,658.5,356.8,3.3,-5.8,24.98,33.44,1.9579,379.1829],
    [20408,1532814236,57.069,-111.5607,969.2,661.3,357.5,2.8,-6.4,24.27,34.1,1.9491,379.2428],
    [20409,1532814237,57.0696,-111.5607,970.0,662.9,358.7,1.9,-6.4,24.27,33.33,1.958,379.2428],
    [20410,1532814238,57.0702,-111.5607,971.0,666.3,360.0,0.5,-5.6,24.26,33.79,1.9618,379.1676],
    [20411,1532814239,57.0708,-111.5607,971.3,669.6,360.5,0.8,-5.5,24.37,33.68,1.9598,378.2798],
    [20412,1532814240,57.0715,-111.5607,970.6,674.8,359.2,2.4,-4.7,23.64,34.05,1.9496,380.2546],
    [20413,1532814241,57.0721,-111.5607,969.0,677.0,360.0,1.4,-3.5,24.23,33.86,1.9515,380.7667],
    [20414,1532814242,57.0727,-111.5606,967.0,679.1,358.9,2.5,-2.8,23.91,34.25,1.9563,380.2242],
    [20415,1532814243,57.0733,-111.5606,964.5,682.1,359.0,1.8,-2.9,23.82,34.34,1.9735,379.6032],
    [20416,1532814244,57.074,-111.5606,961.1,687.4,359.3,1.3,-2.8,24.41,34.18,1.9524,379.4819],
    [20417,1532814245,57.0746,-111.5606,958.1,686.8,358.5,1.8,-1.8,24.4,34.32,1.9458,380.6132],
    [20418,1532814246,57.0752,-111.5606,955.0,683.4,358.9,1.2,-1.1,24.06,33.91,1.9439,379.5768],
    [20419,1532814247,57.0759,-111.5606,951.6,684.3,358.7,1.2,-0.2,24.47,34.09,1.9416,379.5849],
    [20420,1532814248,57.0765,-111.5606,949.0,686.4,357.8,1.8,1.0,24.74,33.18,1.9955,379.5257],
    [20421,1532814249,57.0772,-111.5607,947.1,689.7,358.3,0.7,1.5,24.2,33.51,2.0674,379.5197],
    [20422,1532814250,57.0778,-111.5607,944.9,692.8,358.2,0.5,1.6,24.47,33.45,2.0219,379.8422],
    [20423,1532814251,57.0785,-111.5607,942.5,693.1,357.6,1.0,2.1,24.77,32.35,1.9864,381.3281],
    [20424,1532814252,57.0792,-111.5607,940.1,693.1,357.7,0.8,3.0,24.55,32.38,1.9947,381.5623],
    [20425,1532814253,57.0798,-111.5608,938.9,696.4,357.1,1.3,4.2,24.09,32.48,1.9626,379.9725],
    [20426,1532814254,57.0805,-111.5608,937.5,698.5,358.0,0.5,4.9,24.53,31.94,1.963,380.3891],
    [20427,1532814255,57.0812,-111.5608,936.2,700.2,358.5,0.3,5.6,24.53,31.84,1.9715,380.3997],
    [20428,1532814256,57.0818,-111.5609,935.7,700.6,358.0,1.5,6.4,24.72,30.5,1.9896,380.947],
    [20429,1532814257,57.0825,-111.5609,934.8,700.8,358.0,1.8,6.5,24.44,30.82,1.9309,380.838],
    [20430,1532814258,57.0832,-111.5609,933.9,699.9,359.3,0.9,6.4,24.32,30.75,1.9265,380.838],
    [20431,1532814259,57.0839,-111.5609,932.1,698.1,358.6,2.0,6.9,24.57,31.97,1.934,380.0639],
    [20432,1532814260,57.0845,-111.5609,929.8,696.8,359.0,1.6,7.5,24.33,31.95,1.9583,380.7161],
    [20433,1532814261,57.0852,-111.5609,926.1,694.2,359.6,1.6,8.1,24.58,32.0,1.9599,380.7161],
    [20434,1532814262,57.0859,-111.5608,921.4,690.4,359.4,2.3,8.3,25.27,32.34,1.9463,380.3023],
    [20435,1532814263,57.0866,-111.5608,916.8,684.9,359.9,2.1,8.7,24.44,33.93,1.9496,381.2314],
    [20436,1532814264,57.0873,-111.5608,912.3,680.3,360.0,2.0,9.2,24.02,33.48,1.9411,379.5593],
    [20437,1532814265,57.088,-111.5607,908.3,676.3,359.2,2.2,9.1,24.93,33.91,1.9343,379.5098],
    [20438,1532814266,57.0887,-111.5607,907.1,675.1,359.7,1.3,7.9,24.52,33.82,1.9336,381.0859],
    [20439,1532814267,57.0894,-111.5607,906.2,674.2,358.0,2.7,7.6,24.42,33.71,1.9294,380.1401],
    [20440,1532814268,57.09,-111.5607,906.5,674.5,358.0,1.9,8.0,24.85,33.52,1.9309,378.7524],
    [20441,1532814269,57.0908,-111.5607,906.7,674.7,358.8,0.9,8.3,24.74,33.99,1.9326,380.6024],
    [20442,1532814270,57.0914,-111.5607,905.5,673.8,357.7,2.0,8.4,24.66,34.85,1.9326,380.601],
    [20443,1532814271,57.0921,-111.5607,903.9,672.9,358.5,1.7,8.6,24.13,35.22,1.927,378.3618],
    [20444,1532814272,57.0928,-111.5608,901.4,671.4,358.3,2.0,8.7,25.11,34.42,1.9244,379.5116],
    [20445,1532814273,57.0935,-111.5607,897.4,667.4,358.9,1.8,8.9,24.1,34.9,1.926,380.3167],
    [20446,1532814274,57.0942,-111.5607,894.3,664.3,358.9,2.1,9.6,23.88,35.03,1.9685,379.6229],
    [20447,1532814275,57.0949,-111.5607,892.9,661.1,358.9,2.2,9.5,24.5,35.41,2.0077,379.132],
    [20448,1532814276,57.0956,-111.5607,892.8,656.8,359.1,2.2,8.4,24.93,34.99,2.0234,379.132],
    [20449,1532814277,57.0963,-111.5607,892.9,652.9,359.9,1.5,8.0,24.06,35.6,2.0372,379.3334],
    [20450,1532814278,57.097,-111.5607,892.1,647.5,359.6,2.0,8.2,24.66,35.66,2.0594,379.7306],
    [20451,1532814279,57.0976,-111.5606,891.7,645.8,359.3,2.2,8.8,24.52,36.33,2.0715,379.3588],
    [20452,1532814280,57.0983,-111.5606,892.3,645.2,359.1,2.5,9.1,24.99,36.29,2.0836,379.678],
    [20453,1532814281,57.099,-111.5606,894.0,647.1,359.2,2.3,8.8,24.35,37.28,2.0385,379.5417],
    [20454,1532814282,57.0997,-111.5606,896.1,648.5,360.1,1.3,8.4,24.67,37.09,2.0129,379.3499],
    [20455,1532814283,57.1004,-111.5606,898.6,649.6,359.9,1.6,8.3,24.86,37.25,1.9975,378.8389],
    [20456,1532814284,57.101,-111.5605,901.4,651.4,359.6,1.8,7.7,24.44,38.07,1.9994,379.2414],
    [20457,1532814285,57.1017,-111.5605,903.4,651.4,359.7,1.5,7.0,24.04,37.4,1.9856,379.0152],
    [20458,1532814286,57.1024,-111.5605,905.0,651.0,359.9,1.2,6.5,24.36,38.32,1.9753,379.6563],
    [20459,1532814287,57.103,-111.5605,906.6,651.6,359.8,1.0,5.8,24.86,37.31,2.0362,378.8257],
    [20460,1532814288,57.1037,-111.5605,908.3,651.3,359.1,1.6,4.8,25.14,37.16,2.0375,379.0009],
    [20461,1532814289,57.1043,-111.5605,910.2,652.2,358.1,2.3,4.8,24.44,37.61,2.0326,379.0009],
    [20462,1532814290,57.1049,-111.5605,912.0,653.1,357.8,2.3,5.1,24.32,37.82,2.0327,378.0956],
    [20463,1532814291,57.1056,-111.5605,914.1,654.1,356.9,3.0,5.3,24.49,37.99,2.0294,377.2237],
    [20464,1532814292,57.1063,-111.5605,916.0,655.0,357.4,2.4,4.7,24.34,38.71,2.0195,377.9559],
    [20465,1532814293,57.1069,-111.5605,917.8,656.8,357.2,2.9,3.6,24.44,38.8,1.9934,377.3561],
    [20466,1532814294,57.1075,-111.5605,920.0,659.0,356.5,3.5,2.0,24.34,38.7,1.9787,380.3263],
    [20467,1532814295,57.1082,-111.5605,921.9,660.9,357.3,2.6,1.6,23.63,38.89,1.9652,380.1533],
    [20468,1532814296,57.1088,-111.5605,923.2,662.2,357.6,2.2,1.9,24.71,38.26,1.9613,377.8434],
    [20469,1532814297,57.1094,-111.5605,924.6,663.6,358.1,1.5,2.5,23.86,38.73,1.9465,378.972],
    [20470,1532814298,57.1101,-111.5605,925.1,664.1,357.4,2.2,2.8,24.06,38.77,1.9495,377.9735],
    [20471,1532814299,57.1107,-111.5606,924.1,663.1,357.9,1.7,2.8,23.82,38.72,1.9663,378.0864],
    [20472,1532814300,57.1114,-111.5606,922.0,660.0,358.0,2.0,2.9,24.51,38.37,1.959,379.571],
    [20473,1532814301,57.112,-111.5606,919.1,657.1,357.7,2.7,2.9,23.91,38.74,1.9399,379.5636],
    [20474,1532814302,57.1126,-111.5606,915.8,653.8,358.2,2.3,3.1,24.43,38.72,1.9555,378.7848],
    [20475,1532814303,57.1133,-111.5606,913.2,651.2,358.6,1.9,3.3,24.34,38.75,1.9448,378.7848],
    [20476,1532814304,57.114,-111.5606,912.0,650.0,357.9,2.7,3.3,25.12,38.12,1.9376,378.3705],
    [20477,1532814305,57.1146,-111.5606,911.7,649.7,357.5,3.0,3.1,24.37,39.12,1.9495,378.699],
    [20478,1532814306,57.1152,-111.5606,911.4,649.4,357.9,2.6,2.9,24.85,38.58,1.9502,379.0431],
    [20479,1532814307,57.1159,-111.5606,911.7,649.7,358.0,2.6,3.4,24.12,38.88,1.9614,378.157],
    [20480,1532814308,57.1165,-111.5606,912.3,649.8,358.7,1.7,4.0,24.23,38.72,1.9586,377.7111],
    [20481,1532814309,57.1172,-111.5606,913.0,650.0,358.7,1.7,3.5,25.0,38.19,1.948,379.2569],
    [20482,1532814310,57.1178,-111.5606,914.0,651.0,358.7,1.5,3.1,24.53,39.06,1.9641,379.3719],
    [20483,1532814311,57.1185,-111.5606,914.9,651.9,358.8,1.4,3.2,24.48,39.25,1.9815,379.3312],
    [20484,1532814312,57.1191,-111.5606,915.6,652.6,358.5,1.5,3.0,24.83,39.38,1.9954,377.4673],
    [20485,1532814313,57.1197,-111.5606,915.9,652.9,358.8,0.8,2.7,25.2,39.13,1.9489,378.0941],
    [20486,1532814314,57.1204,-111.5606,916.7,652.7,358.1,1.3,2.1,24.12,40.23,1.9367,378.8427],
    [20487,1532814315,57.121,-111.5606,917.3,652.6,357.5,1.7,2.1,24.23,39.9,1.9305,378.1807],
    [20488,1532814316,57.1216,-111.5606,917.7,652.7,357.2,1.7,1.9,24.19,39.86,1.9269,377.0624],
    [20489,1532814317,57.1222,-111.5606,918.0,652.0,357.1,1.6,1.8,24.54,39.81,1.9254,377.0624],
    [20490,1532814318,57.1229,-111.5607,919.2,653.2,357.0,1.3,1.9,23.94,40.03,1.9258,378.9914],
    [20491,1532814319,57.1235,-111.5607,920.2,654.2,357.2,0.9,2.2,24.65,39.33,1.9255,378.4432],
    [20492,1532814320,57.1241,-111.5608,920.9,654.9,355.7,2.0,2.4,24.61,39.44,1.9266,378.6227],
    [20493,1532814321,57.1247,-111.5608,921.4,655.4,355.5,1.9,2.5,23.81,39.43,1.9262,378.417],
    [20494,1532814322,57.1254,-111.5609,921.2,655.2,355.7,1.7,2.3,24.13,39.14,1.9264,379.3625],
    [20495,1532814323,57.126,-111.5609,920.7,654.7,356.8,1.0,2.2,25.1,38.74,1.9284,378.7146],
    [20496,1532814324,57.1266,-111.561,920.4,653.4,357.6,0.7,2.0,24.21,39.29,1.9327,378.425],
    [20497,1532814325,57.1273,-111.561,920.3,653.3,357.6,1.2,1.9,24.26,39.38,1.9304,378.1217],
    [20498,1532814326,57.1279,-111.561,921.3,654.3,357.0,2.1,1.8,23.89,39.16,1.9313,378.719],
    [20499,1532814327,57.1285,-111.5611,922.0,655.0,357.3,1.6,2.1,24.51,39.05,1.938,378.8387],
    [20500,1532814328,57.1292,-111.5611,922.3,655.3,358.3,0.6,2.3,24.04,39.74,1.9391,379.3869],
    [20501,1532814329,57.1298,-111.5611,922.6,656.6,358.8,0.3,1.3,23.71,39.67,1.9372,377.9706],
    [20502,1532814330,57.1304,-111.5611,922.7,656.7,358.7,1.1,0.8,24.48,40.05,1.9491,378.4033],
    [20503,1532814331,57.1311,-111.5611,922.8,656.8,357.3,3.1,0.8,24.48,39.62,1.9454,377.9714],
    [20504,1532814332,57.1317,-111.5611,923.4,657.4,357.6,3.2,0.8,24.4,39.95,1.9344,378.207],
    [20505,1532814333,57.1323,-111.5611,923.8,657.8,357.7,3.4,1.2,23.97,40.06,1.9279,377.7567],
    [20506,1532814334,57.1329,-111.5611,923.5,657.5,357.7,3.7,1.3,24.19,40.73,1.9269,378.0733],
    [20507,1532814335,57.1336,-111.5611,922.7,655.7,358.2,3.3,1.8,24.6,39.85,1.9258,378.763],
    [20508,1532814336,57.1342,-111.5611,921.1,654.1,358.6,2.8,2.5,24.14,41.02,1.9254,378.1072],
    [20509,1532814337,57.1348,-111.561,918.9,651.9,358.8,2.5,3.0,24.26,40.04,1.9236,377.9615],
    [20510,1532814338,57.1355,-111.561,917.0,650.1,358.2,3.0,3.6,23.8,40.07,1.9215,378.8177],
    [20511,1532814339,57.1362,-111.561,916.0,649.0,358.2,2.6,4.2,24.28,39.6,1.9213,378.5705],
    [20512,1532814340,57.1368,-111.561,915.2,648.6,357.9,2.8,5.0,24.3,39.69,1.9226,379.2018],
    [20513,1532814341,57.1375,-111.561,914.4,647.3,357.1,3.2,6.0,24.32,39.39,1.9241,376.8035],
    [20514,1532814342,57.1381,-111.561,913.5,646.4,358.2,1.0,6.6,24.35,38.58,1.9238,377.9491],
    [20515,1532814343,57.1388,-111.561,912.6,644.5,357.8,-0.5,6.5,24.64,38.31,1.9261,378.4032],
    [20516,1532814344,57.1394,-111.5611,912.4,644.4,353.7,0.3,6.2,24.87,38.31,1.9253,377.0155],
    [20517,1532814345,57.14,-111.5613,912.4,643.3,349.8,0.3,5.7,24.43,38.39,1.9268,378.2693],
    [20518,1532814346,57.1406,-111.5615,912.9,642.7,344.6,1.0,5.1,24.21,38.79,1.9278,378.4387],
    [20519,1532814347,57.1412,-111.5618,913.6,642.6,339.0,1.2,5.5,24.32,39.11,1.9282,378.3131],
    [20520,1532814348,57.1418,-111.5622,914.2,642.2,334.1,1.2,5.7,24.54,38.85,1.9307,379.0091],
    [20521,1532814349,57.1423,-111.5627,914.7,642.7,329.0,1.9,5.6,24.9,38.93,1.9316,378.9705],
    [20522,1532814350,57.1429,-111.5633,915.1,644.2,325.6,1.5,4.9,24.32,40.58,1.9295,378.7239],
    [20523,1532814351,57.1434,-111.5639,915.5,646.5,322.7,1.0,4.7,24.31,40.15,1.9295,377.8383],
    [20524,1532814352,57.1439,-111.5645,915.1,654.2,320.1,0.8,4.6,25.04,39.75,1.9306,377.7055],
    [20525,1532814353,57.1444,-111.5652,914.0,656.3,317.6,1.0,4.3,24.67,39.93,1.928,378.479],
    [20526,1532814354,57.1448,-111.5659,912.9,652.5,315.3,1.1,3.9,24.3,40.87,1.929,377.3882],
    [20527,1532814355,57.1453,-111.5667,911.9,651.5,313.7,1.3,3.0,24.68,40.18,1.9288,377.3882],
    [20528,1532814356,57.1457,-111.5675,910.6,650.6,311.6,1.9,2.7,24.21,40.61,1.9256,379.4627],
    [20529,1532814357,57.1461,-111.5683,909.2,650.6,309.0,1.9,3.4,24.47,40.22,1.9255,378.2657],
    [20530,1532814358,57.1465,-111.5691,907.3,649.0,307.4,1.3,3.1,25.26,39.65,1.9275,378.9973],
    [20531,1532814359,57.1469,-111.57,905.1,647.6,305.7,0.8,3.0,24.68,39.31,1.9278,379.5094],
    [20532,1532814360,57.1473,-111.5709,902.5,641.7,303.0,0.4,3.7,24.64,39.38,1.9267,378.9275],
    [20533,1532814361,57.1476,-111.5718,899.9,632.5,300.8,-0.1,3.9,24.3,39.41,1.9285,378.2312],
    [20534,1532814362,57.1479,-111.5727,897.2,626.3,297.9,0.3,4.5,23.7,39.58,1.9285,377.5686],
    [20535,1532814363,57.1482,-111.5737,894.4,621.7,295.4,0.3,4.3,24.09,39.88,1.9285,378.9458],
    [20536,1532814364,57.1485,-111.5746,892.1,620.7,293.0,0.1,3.6,24.71,39.16,1.929,377.4688],
    [20537,1532814365,57.1488,-111.5757,889.4,619.5,290.7,0.8,2.6,24.4,39.74,1.9306,377.5942],
    [20538,1532814366,57.149,-111.5768,886.7,615.3,287.3,1.9,3.1,24.64,40.03,1.9289,377.7381],
    [20539,1532814367,57.1492,-111.5778,885.7,613.7,284.3,2.3,2.9,24.98,40.15,1.9263,377.9279],
    [20540,1532814368,57.1494,-111.5789,886.0,614.0,283.6,2.8,1.2,24.38,40.56,1.9168,378.3248],
    [20541,1532814369,57.1495,-111.58,887.0,615.0,281.1,3.4,2.1,24.55,39.87,1.9158,378.8082],
    [20542,1532814370,57.1496,-111.581,889.3,617.3,279.9,4.1,2.0,24.2,39.18,1.9147,379.9337],
    [20543,1532814371,57.1498,-111.5821,892.5,620.5,279.8,4.8,1.4,24.2,38.82,1.9196,379.2402],
    [20544,1532814372,57.1499,-111.5832,896.2,624.2,279.2,5.6,1.4,24.08,37.2,1.9232,378.6727],
    [20545,1532814373,57.15,-111.5842,899.9,627.9,278.3,6.9,1.4,24.11,36.55,1.926,379.8597],
    [20546,1532814374,57.1501,-111.5853,903.4,631.4,277.3,7.8,1.5,24.96,36.05,1.9263,379.217],
    [20547,1532814375,57.1502,-111.5863,906.7,634.7,276.2,8.2,1.4,24.04,37.07,1.9246,380.4125],
    [20548,1532814376,57.1503,-111.5874,909.8,637.1,275.4,7.6,1.0,24.48,36.76,1.9237,379.4436],
    [20549,1532814377,57.1503,-111.5884,912.7,639.7,273.9,7.7,1.2,24.39,37.18,1.9251,379.9573],
    [20550,1532814378,57.1504,-111.5894,915.2,643.2,272.3,8.2,1.7,24.4,36.93,1.9274,379.6922],
    [20551,1532814379,57.1504,-111.5905,917.0,646.0,270.9,8.0,2.3,24.02,37.71,1.9256,379.5034],
    [20552,1532814380,57.1504,-111.5915,918.2,648.3,270.1,7.6,2.6,24.59,36.84,1.9313,379.117],
    [20553,1532814381,57.1504,-111.5926,918.6,649.3,270.3,6.4,2.1,24.47,37.37,1.9314,379.117],
    [20554,1532814382,57.1505,-111.5936,918.1,650.1,268.8,5.8,3.4,24.04,37.52,1.9257,377.6915],
    [20555,1532814383,57.1505,-111.5947,917.9,650.9,268.8,5.2,2.6,24.45,38.35,1.9245,377.6915],
    [20556,1532814384,57.1505,-111.5957,917.6,650.7,269.1,5.0,2.4,23.84,37.89,1.9259,379.4805],
    [20557,1532814385,57.1505,-111.5967,917.7,649.0,267.5,4.5,4.0,24.23,38.85,1.9298,379.0194],
    [20558,1532814386,57.1505,-111.5978,917.9,649.0,267.8,4.2,3.7,24.83,37.98,1.9307,379.1695],
    [20559,1532814387,57.1505,-111.5988,917.7,647.7,268.2,5.3,3.3,25.06,37.31,1.9312,379.1993],
    [20560,1532814388,57.1505,-111.5999,917.4,646.4,268.2,5.4,3.5,24.29,38.89,1.9298,378.226],
    [20561,1532814389,57.1505,-111.6009,917.2,646.2,267.9,4.8,3.9,24.37,39.65,1.9289,378.5759],
    [20562,1532814390,57.1506,-111.6019,917.2,647.2,268.3,5.1,3.5,24.26,39.19,1.9282,377.6227],
    [20563,1532814391,57.1506,-111.603,917.3,649.3,269.0,5.3,2.8,23.78,39.62,1.927,378.9314],
    [20564,1532814392,57.1506,-111.604,917.3,651.3,269.3,5.6,2.5,25.01,39.08,1.9287,377.9437],
    [20565,1532814393,57.1506,-111.605,917.1,653.5,269.4,5.3,2.2,24.47,39.66,1.9304,379.1751],
    [20566,1532814394,57.1506,-111.6061,916.9,655.5,269.9,5.2,1.4,24.4,39.35,1.931,378.3647],
    [20567,1532814395,57.1506,-111.6072,916.8,659.4,269.0,5.6,1.8,24.36,39.6,1.9203,377.855],
    [20568,1532814396,57.1506,-111.6083,916.6,663.6,268.0,5.9,1.8,24.58,39.07,1.9172,378.6069],
    [20569,1532814397,57.1506,-111.6093,917.1,666.6,267.5,5.4,1.3,24.78,38.62,1.9193,378.3333],
    [20570,1532814398,57.1506,-111.6104,917.3,668.9,265.4,4.7,2.6,23.99,39.02,1.9152,378.3333],
    [20571,1532814399,57.1506,-111.6114,915.7,670.8,265.6,3.9,1.5,24.69,37.28,1.9097,379.3493],
    [20572,1532814400,57.1505,-111.6125,912.7,669.8,265.3,2.4,1.6,24.71,36.23,1.9081,379.8633],
    [20573,1532814401,57.1505,-111.6136,909.4,668.3,264.1,0.7,2.3,25.17,35.05,1.9107,379.3559],
    [20574,1532814402,57.1504,-111.6146,906.2,667.2,265.2,-0.6,1.0,24.53,34.88,1.9116,379.7635],
    [20575,1532814403,57.1504,-111.6157,903.3,665.6,264.1,-1.6,2.3,24.28,33.51,1.9156,379.8776],
    [20576,1532814404,57.1504,-111.6168,900.4,664.4,264.2,-2.0,2.0,25.02,32.84,1.9224,380.5197],
    [20577,1532814405,57.1503,-111.618,896.7,660.7,266.3,-2.5,0.4,24.56,33.74,1.9264,378.2685],
    [20578,1532814406,57.1503,-111.6191,893.0,658.3,266.2,-3.4,0.9,24.77,33.82,1.9264,378.7717],
    [20579,1532814407,57.1503,-111.6202,889.1,655.1,266.6,-4.0,0.7,24.21,34.75,1.9268,380.3428],
    [20580,1532814408,57.1502,-111.6214,886.0,652.0,266.8,-4.3,0.9,25.04,35.02,1.9269,379.8693],
    [20581,1532814409,57.1502,-111.6225,884.3,649.3,266.1,-4.1,1.8,25.09,36.25,1.9241,379.4829],
    [20582,1532814410,57.1502,-111.6237,884.3,649.3,266.3,-3.7,2.0,24.53,37.16,1.9256,378.079],
    [20583,1532814411,57.1502,-111.6248,885.4,649.3,266.9,-3.7,1.7,24.41,37.95,1.9202,379.3011],
    [20584,1532814412,57.1502,-111.6259,886.8,648.6,267.9,-3.1,1.2,24.19,37.7,1.9282,378.7109],
    [20585,1532814413,57.1502,-111.6271,888.0,647.0,267.4,-2.8,2.1,24.47,38.22,1.9303,379.4542],
    [20586,1532814414,57.1501,-111.6282,889.4,645.3,267.5,-2.4,2.3,24.45,38.19,1.93,379.4542],
    [20587,1532814415,57.1501,-111.6293,891.7,648.5,267.5,-1.7,2.4,24.58,38.69,1.9297,378.4115],
    [20588,1532814416,57.1501,-111.6304,894.4,652.4,267.7,-1.1,2.0,24.14,39.22,1.9292,378.4081],
    [20589,1532814417,57.1501,-111.6315,898.0,655.9,267.6,-0.4,1.8,23.61,39.61,1.9279,379.4518],
    [20590,1532814418,57.1501,-111.6326,901.2,658.2,267.4,-0.2,2.1,24.38,39.53,1.9246,379.8527],
    [20591,1532814419,57.1501,-111.6337,903.8,656.6,267.2,-0.2,2.4,23.91,39.81,1.9228,379.8527],
    [20592,1532814420,57.1501,-111.6347,905.4,652.0,268.0,-0.2,1.9,24.81,39.61,1.9321,378.2437],
    [20593,1532814421,57.1501,-111.6358,905.7,649.0,268.5,-0.1,1.8,24.81,39.66,1.9307,376.6702],
    [20594,1532814422,57.1501,-111.6368,905.6,644.7,267.9,0.4,2.7,24.37,40.12,1.9313,376.7734],
    [20595,1532814423,57.1501,-111.6379,905.0,642.7,268.0,-0.1,2.7,24.73,40.34,1.931,377.7205],
    [20596,1532814424,57.1501,-111.639,904.5,640.4,269.4,-0.8,1.9,24.18,40.92,1.9314,377.7205],
    [20597,1532814425,57.1501,-111.6401,905.2,639.1,268.4,-1.4,3.3,24.21,41.97,1.9323,377.3126],
    [20598,1532814426,57.1501,-111.6411,905.2,637.9,268.8,-1.7,2.7,24.1,41.44,1.9317,377.3218],
    [20599,1532814427,57.1502,-111.6422,904.9,636.9,269.5,-2.2,2.5,23.96,41.52,1.9322,377.794],
    [20600,1532814428,57.1502,-111.6433,904.3,636.3,269.1,-1.9,3.1,24.39,41.49,1.9297,377.2509],
    [20601,1532814429,57.1502,-111.6444,902.6,634.7,269.2,-1.2,2.9,24.7,41.66,1.9282,377.4036],
    [20602,1532814430,57.1502,-111.6455,900.7,631.7,269.3,-1.0,2.6,24.26,41.65,1.9268,377.1118],
    [20603,1532814431,57.1502,-111.6466,900.5,630.5,268.0,-0.5,3.2,24.61,41.23,1.9196,376.8085],
    [20604,1532814432,57.1502,-111.6478,902.6,630.4,268.2,-0.1,2.3,24.22,40.97,1.919,377.7002],
    [20605,1532814433,57.1502,-111.6489,906.6,630.2,267.6,0.5,2.7,24.72,39.78,1.9183,378.3677],
    [20606,1532814434,57.1502,-111.65,911.7,633.2,267.1,1.3,2.9,24.27,39.28,1.9175,378.3347],
    [20607,1532814435,57.1502,-111.6511,916.7,635.1,268.0,1.5,2.0,23.78,38.81,1.9219,378.6285],
    [20608,1532814436,57.1502,-111.6521,921.0,636.0,268.2,1.6,2.1,24.23,38.84,1.9274,378.6285],
    [20609,1532814437,57.1502,-111.6531,925.3,637.3,268.2,2.4,2.3,24.23,37.99,1.9322,377.8772],
    [20610,1532814438,57.1502,-111.6542,929.4,638.6,269.3,3.1,1.3,24.28,38.82,1.9284,378.6085],
    [20611,1532814439,57.1502,-111.6552,933.0,641.0,269.3,3.3,1.8,24.98,38.08,1.9304,378.6085],
    [20612,1532814440,57.1502,-111.6562,935.7,642.7,268.7,4.3,2.6,24.26,39.46,1.9307,379.4778],
    [20613,1532814441,57.1503,-111.6572,937.8,643.5,269.2,5.2,2.2,24.05,39.52,1.9128,379.5673],
    [20614,1532814442,57.1503,-111.6582,939.3,643.3,268.5,4.4,2.8,24.7,39.0,1.9087,378.914],
    [20615,1532814443,57.1503,-111.6593,940.1,642.1,268.6,4.4,2.2,23.9,38.8,1.9097,378.678],
    [20616,1532814444,57.1503,-111.6603,940.6,642.6,268.6,4.7,2.1,24.37,36.52,1.9112,378.678],
    [20617,1532814445,57.1503,-111.6613,940.9,642.9,268.2,5.2,2.4,25.11,35.02,1.9133,380.6571],
    [20618,1532814446,57.1503,-111.6624,940.8,643.8,267.9,5.5,2.6,23.82,35.29,1.9093,381.1205],
    [20619,1532814447,57.1503,-111.6634,940.0,642.3,268.1,5.9,2.3,24.63,33.55,1.9092,379.879],
    [20620,1532814448,57.1503,-111.6644,938.9,639.9,268.0,6.2,2.5,24.13,33.4,1.9099,379.4712],
    [20621,1532814449,57.1503,-111.6654,938.2,638.2,268.4,5.9,2.1,24.2,33.33,1.928,379.3188],
    [20622,1532814450,57.1503,-111.6664,937.9,635.8,268.6,6.2,2.1,24.18,32.81,1.923,381.274],
    [20623,1532814451,57.1503,-111.6674,937.9,633.5,268.4,6.7,2.4,24.14,33.58,1.9179,379.8511],
    [20624,1532814452,57.1503,-111.6685,938.0,630.3,268.5,6.7,2.3,24.4,33.54,1.9172,379.5752],
    [20625,1532814453,57.1503,-111.6695,938.1,628.1,268.5,6.2,2.3,24.24,34.98,1.9127,379.4541],
    [20626,1532814454,57.1503,-111.6705,938.2,627.2,269.1,5.6,1.4,24.34,34.12,1.9119,379.2657],
    [20627,1532814455,57.1503,-111.6716,937.7,626.7,269.6,5.6,1.3,24.29,34.02,1.9145,380.1643],
    [20628,1532814456,57.1503,-111.6727,937.9,626.9,269.4,6.5,2.1,23.65,33.88,1.9161,379.4363],
    [20629,1532814457,57.1503,-111.6736,938.6,625.6,270.2,6.2,1.6,24.57,33.25,1.9169,379.6359],
    [20630,1532814458,57.1504,-111.6747,939.3,625.3,270.7,5.7,1.3,24.63,33.35,1.9154,380.0842],
    [20631,1532814459,57.1504,-111.6757,940.7,626.7,270.4,5.5,1.7,24.32,34.42,1.9153,380.0842],
    [20632,1532814460,57.1504,-111.6767,942.5,628.5,270.3,4.9,1.7,23.9,34.91,1.9124,380.3915],
    [20633,1532814461,57.1504,-111.6777,944.2,629.5,270.7,4.3,1.2,24.15,34.54,1.9154,380.1134],
    [20634,1532814462,57.1504,-111.6788,945.4,630.4,270.1,3.9,1.6,23.89,34.61,1.9131,380.4768],
    [20635,1532814463,57.1504,-111.6798,946.3,631.3,269.5,3.9,1.7,23.56,34.11,1.9153,380.8564],
    [20636,1532814464,57.1504,-111.6808,947.4,632.4,268.6,4.1,2.7,23.82,34.01,1.922,379.9452],
    [20637,1532814465,57.1505,-111.6818,948.2,633.2,267.9,4.5,3.4,24.03,34.32,1.9226,379.4408],
    [20638,1532814466,57.1505,-111.6828,948.8,633.8,269.1,5.0,2.2,24.35,35.23,1.9209,380.5],
    [20639,1532814467,57.1505,-111.6838,949.4,633.4,269.6,5.0,1.6,24.29,35.09,1.9146,380.2401],
    [20640,1532814468,57.1505,-111.6848,949.7,633.7,270.0,5.3,1.0,24.11,35.48,1.9083,380.1497],
    [20641,1532814469,57.1505,-111.6858,950.3,633.3,268.6,5.9,2.3,25.21,34.69,1.9048,380.3037],
    [20642,1532814470,57.1505,-111.6869,950.7,632.7,268.0,6.1,2.4,24.37,34.02,1.9039,379.9549],
    [20643,1532814471,57.1505,-111.6879,951.0,633.0,269.0,6.4,1.3,24.32,33.99,1.9063,379.8547],
    [20644,1532814472,57.1505,-111.6889,951.6,632.6,268.6,6.5,2.2,24.29,32.68,1.9107,380.8715],
    [20645,1532814473,57.1505,-111.69,952.3,633.3,268.1,6.6,2.7,24.28,31.44,1.9138,381.296],
    [20646,1532814474,57.1505,-111.691,952.8,633.1,269.7,6.6,1.3,24.09,31.95,1.9144,381.296],
    [20647,1532814475,57.1505,-111.6921,952.7,632.7,269.3,6.5,2.4,24.08,31.25,1.9149,380.628],
    [20648,1532814476,57.1505,-111.6931,953.2,633.2,269.0,5.9,3.1,24.29,31.45,1.9147,380.054],
    [20649,1532814477,57.1506,-111.6941,953.2,633.2,270.7,5.3,1.8,24.94,31.55,1.9155,380.3429],
    [20650,1532814478,57.1506,-111.6951,953.1,632.1,270.4,5.5,2.4,24.27,32.46,1.9151,380.202],
    [20651,1532814479,57.1506,-111.6962,953.4,632.4,270.3,5.3,2.3,24.35,32.74,1.9082,381.5089],
    [20652,1532814480,57.1506,-111.6972,953.0,632.0,270.6,4.6,1.9,24.49,32.61,1.9086,380.947],
    [20653,1532814481,57.1507,-111.6983,952.4,630.4,270.1,4.5,2.5,24.11,33.13,1.9125,380.4742],
    [20654,1532814482,57.1507,-111.6993,951.9,629.9,270.2,4.6,2.4,24.13,32.59,1.9129,380.4742],
    [20655,1532814483,57.1507,-111.7004,951.3,629.3,270.1,4.4,2.4,24.37,32.6,1.9138,381.2045],
    [20656,1532814484,57.1507,-111.7014,951.0,629.0,269.8,4.1,2.8,24.99,31.31,1.9129,381.1928],
    [20657,1532814485,57.1508,-111.7025,950.9,628.9,269.2,4.1,3.4,24.75,31.65,1.9134,379.3643],
    [20658,1532814486,57.1508,-111.7035,950.7,628.7,269.2,4.3,3.3,24.41,32.24,1.9173,379.3643],
    [20659,1532814487,57.1508,-111.7046,950.6,628.6,269.0,4.4,3.2,24.52,31.9,1.9162,379.5585],
    [20660,1532814488,57.1508,-111.7056,951.1,628.1,268.4,4.4,3.5,24.18,32.53,1.9165,378.8019],
    [20661,1532814489,57.1508,-111.7067,951.9,628.9,267.9,4.1,3.8,24.07,33.34,1.9166,378.8411],
    [20662,1532814490,57.1508,-111.7078,952.3,629.3,268.0,3.6,3.6,24.04,33.82,1.9154,378.8508],
    [20663,1532814491,57.1508,-111.7089,952.5,629.5,267.6,3.4,3.9,25.1,33.44,1.9145,379.9708],
    [20664,1532814492,57.1509,-111.7099,952.5,628.5,267.8,3.4,2.9,25.06,33.58,1.9138,379.4707],
    [20665,1532814493,57.1508,-111.711,952.7,628.7,267.5,3.4,2.2,24.89,33.48,1.9138,380.2726],
    [20666,1532814494,57.1508,-111.712,953.0,629.0,265.8,3.3,2.7,24.25,34.16,1.9135,379.0113],
    [20667,1532814495,57.1508,-111.713,953.2,628.2,264.5,3.2,2.9,24.44,33.98,1.9154,379.5567],
    [20668,1532814496,57.1508,-111.7141,953.1,628.1,264.1,3.0,2.7,24.04,33.78,1.9153,379.9894],
    [20669,1532814497,57.1507,-111.7151,953.0,628.0,263.3,3.3,3.3,23.52,34.14,1.9149,377.8416],
    [20670,1532814498,57.1507,-111.7161,952.4,627.1,263.7,3.1,3.0,24.28,33.97,1.9161,380.4601],
    [20671,1532814499,57.1507,-111.7172,951.4,625.4,265.7,3.0,1.8,24.22,34.3,1.9139,380.1436],
    [20672,1532814500,57.1506,-111.7183,951.5,625.5,267.1,3.0,2.1,23.7,34.39,1.9156,380.1345],
    [20673,1532814501,57.1506,-111.7194,953.0,627.0,268.2,2.8,2.0,24.13,35.03,1.9153,379.7902],
    [20674,1532814502,57.1506,-111.7204,955.1,629.1,269.2,2.7,1.5,23.88,34.48,1.9148,380.2525],
    [20675,1532814503,57.1506,-111.7215,957.1,630.1,268.6,2.4,2.3,24.4,35.09,1.915,379.4579],
    [20676,1532814504,57.1506,-111.7226,958.3,631.3,266.8,2.3,3.9,24.09,34.62,1.9151,378.4033],
    [20677,1532814505,57.1506,-111.7237,958.6,631.6,266.5,1.9,3.9,24.62,34.48,1.9158,379.4445],
    [20678,1532814506,57.1506,-111.7248,958.7,631.7,266.2,1.5,4.1,23.78,34.63,1.9153,379.9095],
    [20679,1532814507,57.1506,-111.7259,958.7,631.7,266.3,1.1,3.8,24.31,34.62,1.9136,379.9095],
    [20680,1532814508,57.1506,-111.7269,958.0,631.0,267.6,0.9,2.6,24.03,34.84,1.9149,379.7157],
    [20681,1532814509,57.1506,-111.728,956.9,629.9,267.3,0.6,3.0,24.28,34.68,1.9157,379.5545],
    [20682,1532814510,57.1506,-111.7291,956.7,629.0,267.7,0.6,2.5,23.91,34.81,1.9157,378.9361],
    [20683,1532814511,57.1506,-111.7301,956.8,629.2,267.9,0.6,2.2,24.69,34.6,1.9175,378.9361],
    [20684,1532814512,57.1506,-111.7312,956.5,629.5,267.6,0.1,2.4,24.01,35.12,1.9164,378.2793],
    [20685,1532814513,57.1506,-111.7323,956.2,629.2,267.3,0.0,3.0,24.25,35.92,1.9165,378.639],
    [20686,1532814514,57.1506,-111.7334,955.8,628.8,267.7,0.1,2.8,24.88,34.78,1.916,379.6246],
    [20687,1532814515,57.1506,-111.7345,955.2,628.2,268.4,-0.1,2.4,24.84,35.13,1.9146,379.2182],
    [20688,1532814516,57.1506,-111.7356,955.4,628.4,267.0,-0.4,3.9,24.11,36.54,1.9153,379.2342],
    [20689,1532814517,57.1506,-111.7366,955.6,629.6,267.0,-0.4,3.5,24.11,35.79,1.9174,377.9812],
    [20690,1532814518,57.1506,-111.7377,955.6,629.6,267.5,-0.6,3.1,24.32,36.13,1.9167,378.8717],
    [20691,1532814519,57.1506,-111.7388,955.4,629.4,267.2,-0.5,3.2,24.32,36.19,1.9179,379.0353],
    [20692,1532814520,57.1506,-111.7399,955.6,629.6,267.3,-0.4,2.9,24.43,36.39,1.918,379.0282],
    [20693,1532814521,57.1506,-111.741,956.3,631.3,267.1,-0.8,2.9,23.8,36.03,1.9167,377.6379],
    [20694,1532814522,57.1506,-111.7421,956.2,631.2,267.5,-0.7,2.2,24.38,36.22,1.9187,377.6379],
    [20695,1532814523,57.1506,-111.7432,955.7,630.7,267.2,0.0,2.3,24.32,37.03,1.9165,378.3512],
    [20696,1532814524,57.1506,-111.7442,955.8,630.7,266.6,0.7,2.5,24.8,36.05,1.9157,378.592],
    [20697,1532814525,57.1506,-111.7453,955.7,629.7,266.8,2.2,2.2,24.29,36.31,1.9149,378.7411],
    [20698,1532814526,57.1506,-111.7464,956.2,630.2,266.2,1.4,2.8,24.82,36.15,1.9139,379.1265],
    [20699,1532814527,57.1506,-111.7474,957.0,631.0,266.0,1.7,2.8,24.42,36.32,1.9137,378.818],
    [20700,1532814528,57.1506,-111.7485,957.8,632.4,266.8,2.1,2.3,24.08,36.12,1.9144,378.5941],
    [20701,1532814529,57.1506,-111.7496,958.8,633.7,266.0,2.0,3.3,25.02,35.51,1.9128,377.7356],
    [20702,1532814530,57.1505,-111.7506,959.2,635.9,266.2,1.9,2.8,24.2,35.58,1.9117,379.3836],
    [20703,1532814531,57.1505,-111.7517,959.4,641.7,266.9,1.7,2.2,24.65,35.19,1.9118,379.2929],
    [20704,1532814532,57.1505,-111.7528,959.1,646.8,266.4,1.6,2.5,24.8,34.57,1.9158,379.1096],
    [20705,1532814533,57.1505,-111.7538,958.4,656.1,266.3,2.3,2.4,23.8,34.71,1.9157,377.8163],
    [20706,1532814534,57.1505,-111.7549,957.8,665.3,265.8,2.2,2.8,24.29,34.81,1.9151,378.3766],
    [20707,1532814535,57.1505,-111.756,957.1,670.0,265.6,3.1,3.2,24.79,34.21,1.9132,379.6763],
    [20708,1532814536,57.1504,-111.757,956.5,671.5,265.1,3.0,3.8,24.16,34.87,1.9112,379.716],
    [20709,1532814537,57.1504,-111.7581,955.9,673.9,264.9,2.8,3.9,23.58,34.85,1.9118,379.4791],
    [20710,1532814538,57.1504,-111.7592,956.0,676.6,264.8,1.5,4.2,24.46,34.72,1.912,380.8331],
    [20711,1532814539,57.1504,-111.7602,956.6,679.7,265.4,0.9,3.8,23.63,34.3,1.9116,380.1163],
    [20712,1532814540,57.1504,-111.7613,957.5,677.5,265.9,1.1,3.8,24.21,34.23,1.9118,379.9053],
    [20713,1532814541,57.1504,-111.7624,958.4,677.4,266.7,1.3,3.3,23.93,33.41,1.9119,380.6561],
    [20714,1532814542,57.1504,-111.7635,959.5,680.5,267.6,2.3,2.9,24.22,33.75,1.9115,380.9432],
    [20715,1532814543,57.1504,-111.7646,961.1,684.1,267.0,2.3,3.7,24.43,32.32,1.9081,382.0529],
    [20716,1532814544,57.1504,-111.7656,962.8,685.5,267.4,2.7,3.3,24.14,33.21,1.9078,382.0529],
    [20717,1532814545,57.1504,-111.7667,965.1,685.4,267.3,3.1,3.2,23.9,32.05,1.9093,382.2396],
    [20718,1532814546,57.1504,-111.7677,967.5,685.8,267.8,3.5,2.5,24.08,31.65,1.9122,382.9179],
    [20719,1532814547,57.1504,-111.7688,970.2,686.2,268.6,3.7,1.7,24.05,31.1,1.9111,382.6757],
    [20720,1532814548,57.1504,-111.7699,972.6,685.2,268.0,3.2,2.3,24.91,30.22,1.9139,382.6757],
    [20721,1532814549,57.1504,-111.771,975.3,685.3,267.7,2.9,2.6,24.25,30.67,1.9059,382.4153],
    [20722,1532814550,57.1504,-111.772,977.9,685.9,268.1,3.3,2.4,24.3,30.67,1.904,382.4153],
    [20723,1532814551,57.1504,-111.7731,980.9,690.0,268.1,3.3,2.7,24.1,31.08,1.9087,382.4161],
    [20724,1532814552,57.1504,-111.7741,984.2,693.2,268.2,3.7,2.9,24.12,30.77,1.9123,382.2816],
    [20725,1532814553,57.1504,-111.7752,987.2,696.2,269.1,4.8,2.4,23.93,30.77,1.9116,381.42],
    [20726,1532814554,57.1504,-111.7762,988.6,697.6,269.1,5.2,2.7,24.38,30.67,1.9096,381.7204],
    [20727,1532814555,57.1504,-111.7773,988.9,695.9,269.0,4.3,3.3,23.94,30.99,1.9124,381.8793],
    [20728,1532814556,57.1504,-111.7783,989.1,694.0,269.7,3.7,2.9,23.94,31.01,1.9129,380.0906],
    [20729,1532814557,57.1505,-111.7794,987.1,686.4,271.7,3.0,1.1,24.23,31.71,1.9114,381.9212],
    [20730,1532814558,57.1505,-111.7804,984.4,676.4,271.8,2.0,1.1,23.98,31.24,1.9089,382.2257],
    [20731,1532814559,57.1505,-111.7815,982.4,666.7,270.3,1.4,2.5,24.52,31.08,1.9101,381.7265],
    [20732,1532814560,57.1506,-111.7825,981.8,660.1,269.8,1.4,2.8,24.13,31.33,1.9127,381.7265],
    [20733,1532814561,57.1506,-111.7836,982.5,656.8,268.7,1.6,3.2,24.07,31.94,1.9134,381.933],
    [20734,1532814562,57.1506,-111.7847,983.7,657.0,267.9,1.3,2.5,24.09,31.32,1.9146,381.4576],
    [20735,1532814563,57.1506,-111.7858,984.2,657.2,267.5,1.4,2.0,24.13,31.53,1.9169,382.8252],
    [20736,1532814564,57.1506,-111.7869,984.9,657.2,266.8,1.2,1.9,23.92,31.87,1.9158,380.7588],
    [20737,1532814565,57.1505,-111.7879,986.2,657.2,266.9,0.0,1.6,24.44,31.78,1.9156,382.0383],
    [20738,1532814566,57.1505,-111.789,987.8,658.8,267.4,-0.1,1.2,25.02,31.96,1.9159,379.7884],
    [20739,1532814567,57.1505,-111.7901,989.5,659.8,267.7,0.0,1.4,24.47,32.57,1.9169,381.0276],
    [20740,1532814568,57.1505,-111.7912,991.2,661.2,267.2,0.4,2.5,24.2,33.61,1.9165,380.8195],
    [20741,1532814569,57.1505,-111.7923,993.4,663.4,268.3,1.3,2.2,24.06,33.53,1.9166,381.5555],
    [20742,1532814570,57.1505,-111.7934,995.9,665.9,268.9,1.2,2.3,24.66,32.59,1.9152,380.8061],
    [20743,1532814571,57.1505,-111.7945,998.5,668.5,269.2,0.5,2.3,24.21,33.82,1.9175,380.6233],
    [20744,1532814572,57.1505,-111.7956,1000.0,669.0,269.0,1.0,2.7,24.81,32.55,1.9167,381.4212],
    [20745,1532814573,57.1505,-111.7967,1000.9,669.9,269.4,2.4,2.6,23.75,33.25,1.9141,382.502],
    [20746,1532814574,57.1506,-111.7978,1001.7,670.7,269.9,3.3,2.6,24.7,32.59,1.913,380.513],
    [20747,1532814575,57.1506,-111.7989,1003.2,672.2,270.5,3.6,2.4,24.27,33.63,1.913,381.255],
    [20748,1532814576,57.1506,-111.8001,1004.6,673.6,269.6,4.4,3.5,24.64,32.25,1.9131,381.0948],
    [20749,1532814577,57.1506,-111.8011,1005.3,674.3,269.7,5.2,2.7,23.71,32.65,1.9139,379.479],
    [20750,1532814578,57.1507,-111.8022,1004.9,672.8,270.3,5.0,1.7,23.91,32.32,1.9143,380.2691],
    [20751,1532814579,57.1507,-111.8032,1002.7,670.7,268.4,5.2,2.6,24.69,31.92,1.9144,381.7166],
    [20752,1532814580,57.1507,-111.8043,1000.0,668.0,266.5,5.3,2.4,24.31,32.53,1.9145,381.5595],
    [20753,1532814581,57.1506,-111.8054,997.9,665.9,263.7,5.5,2.0,23.8,32.52,1.9151,381.457],
    [20754,1532814582,57.1506,-111.8064,997.5,665.5,260.6,5.1,1.6,24.19,32.66,1.9142,380.5997],
    [20755,1532814583,57.1505,-111.8075,998.2,666.2,257.4,4.8,1.6,23.66,32.63,1.9088,382.411],
    [20756,1532814584,57.1503,-111.8085,999.2,667.2,254.7,4.9,1.3,23.7,31.91,1.9085,382.411],
    [20757,1532814585,57.1502,-111.8095,999.3,667.3,251.2,4.9,2.0,24.07,32.05,1.9097,382.3745],
    [20758,1532814586,57.15,-111.8105,998.6,666.6,247.4,4.7,2.4,24.36,30.4,1.9087,381.742],
    [20759,1532814587,57.1497,-111.8114,997.9,665.9,244.0,4.5,2.3,24.06,30.64,1.9113,381.742],
    [20760,1532814588,57.1495,-111.8124,998.7,666.7,239.4,3.9,2.7,23.88,30.11,1.9093,381.8417],
    [20761,1532814589,57.1491,-111.8133,1000.5,668.5,235.9,3.6,3.0,24.92,29.37,1.9115,381.5202],
    [20762,1532814590,57.1488,-111.8142,1002.6,670.6,232.5,4.1,3.5,24.3,29.54,1.9123,382.1362],
    [20763,1532814591,57.1484,-111.815,1004.5,672.4,229.1,4.8,3.5,24.27,30.45,1.9127,381.7324],
    [20764,1532814592,57.1481,-111.8157,1005.2,672.2,226.4,5.4,3.0,24.5,29.55,1.9121,381.4346],
    [20765,1532814593,57.1476,-111.8164,1003.6,670.6,224.1,5.8,2.2,24.19,30.62,1.9133,382.0612],
    [20766,1532814594,57.1472,-111.8171,1000.9,666.9,219.8,5.4,2.7,24.13,30.32,1.9151,381.1379],
    [20767,1532814595,57.1467,-111.8177,998.2,664.2,214.8,4.4,3.1,25.02,29.95,1.916,382.4219],
    [20768,1532814596,57.1463,-111.8182,995.2,661.2,210.5,4.0,2.7,24.63,30.65,1.9156,381.9911],
    [20769,1532814597,57.1457,-111.8187,991.9,657.9,206.0,3.9,2.8,24.35,31.25,1.9177,380.8064],
    [20770,1532814598,57.1452,-111.8191,989.3,654.3,201.6,3.4,3.0,23.73,31.71,1.9182,380.078],
    [20771,1532814599,57.1447,-111.8194,987.6,652.6,197.4,3.0,3.0,23.6,32.4,1.9165,381.3823],
    [20772,1532814600,57.1441,-111.8197,986.6,651.6,194.4,2.8,2.2,24.32,32.43,1.918,380.0305],
    [20773,1532814601,57.1435,-111.8199,985.7,650.7,192.5,3.4,2.1,24.07,32.9,1.9185,379.8871],
    [20774,1532814602,57.143,-111.82,984.2,649.2,190.9,3.9,1.6,24.75,33.21,1.9174,380.2708],
    [20775,1532814603,57.1424,-111.8202,983.2,648.2,187.9,3.1,2.3,25.09,33.08,1.9153,380.3798],
    [20776,1532814604,57.1418,-111.8202,983.0,648.0,186.9,3.7,2.0,24.42,33.89,1.9136,380.7829],
    [20777,1532814605,57.1412,-111.8203,982.8,647.8,185.6,3.2,1.2,23.88,34.16,1.9143,380.3993],
    [20778,1532814606,57.1407,-111.8203,982.4,647.4,183.5,1.5,1.0,24.66,33.95,1.9146,380.063],
    [20779,1532814607,57.1401,-111.8204,980.9,645.9,183.3,1.8,1.5,24.73,33.77,1.9155,380.1419],
    [20780,1532814608,57.1394,-111.8204,978.7,643.7,182.8,1.5,0.9,23.88,34.21,1.9181,378.2756],
    [20781,1532814609,57.1389,-111.8204,977.3,642.3,182.8,1.9,1.3,24.29,34.55,1.9167,380.0057],
    [20782,1532814610,57.1383,-111.8205,975.7,640.7,182.9,2.5,2.4,24.16,34.76,1.9141,380.5431],
    [20783,1532814611,57.1377,-111.8205,974.4,639.4,181.5,1.7,1.7,24.15,34.53,1.9121,379.275],
    [20784,1532814612,57.1371,-111.8205,973.9,638.9,180.9,1.7,1.6,24.84,34.11,1.9135,378.5846],
    [20785,1532814613,57.1365,-111.8204,974.1,639.1,180.9,1.9,2.2,23.82,34.14,1.9168,379.2022],
    [20786,1532814614,57.1359,-111.8204,974.3,639.3,180.8,1.9,1.1,24.22,34.21,1.9154,379.6607],
    [20787,1532814615,57.1353,-111.8204,973.9,638.9,181.1,2.0,0.2,24.91,33.5,1.9147,379.1825],
    [20788,1532814616,57.1347,-111.8204,973.2,638.2,181.0,1.5,0.2,24.64,34.46,1.914,379.4235],
    [20789,1532814617,57.1341,-111.8204,972.6,637.6,181.4,1.9,0.4,23.86,33.95,1.9138,379.1238],
    [20790,1532814618,57.1335,-111.8204,970.8,635.8,182.1,2.5,0.8,24.4,33.93,1.9166,377.8152],
    [20791,1532814619,57.1329,-111.8204,968.2,633.2,182.2,2.7,0.9,23.62,34.43,1.9177,378.4399],
    [20792,1532814620,57.1323,-111.8204,966.0,631.0,182.7,3.3,1.5,24.55,34.45,1.9204,379.0103],
    [20793,1532814621,57.1317,-111.8204,964.1,628.1,182.6,3.3,1.7,24.29,34.7,1.921,377.2301],
    [20794,1532814622,57.1311,-111.8204,962.0,626.0,182.6,3.4,2.0,23.83,35.44,1.9184,378.2686],
    [20795,1532814623,57.1305,-111.8204,960.1,624.1,182.4,3.1,1.7,24.07,35.75,1.9146,380.2058],
    [20796,1532814624,57.1299,-111.8204,958.7,622.7,182.3,3.0,1.2,24.57,35.83,1.9146,378.5725],
    [20797,1532814625,57.1293,-111.8204,957.8,621.8,182.9,3.6,0.9,24.87,35.41,1.9138,379.441],
    [20798,1532814626,57.1287,-111.8204,957.7,621.7,182.1,2.8,1.9,24.31,35.45,1.9134,380.4535],
    [20799,1532814627,57.1281,-111.8204,957.7,621.7,181.3,2.3,2.7,23.72,35.5,1.914,380.4535],
    [20800,1532814628,57.1275,-111.8204,958.5,623.5,180.7,1.9,2.2,23.89,35.26,1.9135,380.3992],
    [20801,1532814629,57.1269,-111.8203,959.1,624.1,180.1,1.5,1.6,24.25,34.83,1.9145,380.3475],
    [20802,1532814630,57.1263,-111.8203,959.5,624.5,180.1,1.5,1.9,24.08,35.44,1.9162,379.665],
    [20803,1532814631,57.1257,-111.8203,960.5,625.5,180.8,2.2,2.4,24.51,34.51,1.9162,379.3995],
    [20804,1532814632,57.1251,-111.8203,962.5,627.5,180.8,1.9,2.7,23.66,34.76,1.9153,379.6737],
    [20805,1532814633,57.1245,-111.8203,965.2,631.2,180.9,1.6,3.2,24.24,34.89,1.9173,379.8237],
    [20806,1532814634,57.1239,-111.8203,968.1,634.1,181.5,2.1,3.4,24.32,35.63,1.9174,378.3367],
    [20807,1532814635,57.1233,-111.8203,971.2,636.6,182.7,2.9,4.9,23.85,34.95,1.9152,378.3367],
    [20808,1532814636,57.1227,-111.8203,974.7,639.7,182.3,2.5,4.8,23.76,35.19,1.9133,379.7313],
    [20809,1532814637,57.1221,-111.8203,977.7,642.7,183.1,3.3,5.1,24.81,34.6,1.9159,379.1045],
    [20810,1532814638,57.1215,-111.8203,980.4,645.4,182.7,2.7,5.7,24.16,34.98,1.9171,379.0775],
    [20811,1532814639,57.1209,-111.8203,983.0,648.0,183.1,3.2,5.8,24.13,34.74,1.9184,378.3873],
    [20812,1532814640,57.1203,-111.8203,985.4,650.4,183.6,4.0,5.6,24.3,35.13,1.921,378.8963],
    [20813,1532814641,57.1198,-111.8203,987.7,652.7,182.6,2.8,5.9,24.41,35.8,1.9166,378.4207],
    [20814,1532814642,57.1192,-111.8203,989.3,655.3,181.8,2.0,6.3,23.95,35.88,1.9178,378.5499],
    [20815,1532814643,57.1186,-111.8203,990.7,657.0,182.2,2.4,5.5,24.85,35.47,1.917,378.5499],
    [20816,1532814644,57.118,-111.8203,991.5,658.5,182.9,3.0,5.0,24.52,36.11,1.918,378.8496],
    [20817,1532814645,57.1174,-111.8203,992.2,659.2,182.5,2.9,5.0,24.15,36.49,1.9169,378.5081],
    [20818,1532814646,57.1169,-111.8203,992.6,659.6,182.0,2.9,4.5,24.01,36.65,1.9167,378.4803],
    [20819,1532814647,57.1163,-111.8203,992.2,659.2,181.0,2.2,5.0,24.27,37.05,1.9156,379.3151],
    [20820,1532814648,57.1157,-111.8203,991.8,658.8,181.5,3.0,5.2,24.34,36.42,1.9165,379.0356],
    [20821,1532814649,57.1152,-111.8203,992.3,659.3,181.4,2.7,5.9,23.78,36.56,1.9177,377.9237],
    [20822,1532814650,57.1146,-111.8203,993.2,660.5,181.2,2.8,6.5,24.17,36.66,1.9184,378.4847],
    [20823,1532814651,57.1141,-111.8202,994.6,661.7,181.6,3.7,6.8,24.35,37.28,1.9167,379.3217],
    [20824,1532814652,57.1135,-111.8202,995.0,662.0,181.2,3.5,6.3,24.7,36.15,1.9163,379.0931],
    [20825,1532814653,57.1129,-111.8202,994.5,661.5,181.0,3.4,6.2,24.87,35.98,1.9168,379.4087],
    [20826,1532814654,57.1123,-111.8201,993.6,660.6,180.6,2.5,5.7,25.01,35.62,1.916,379.4454],
    [20827,1532814655,57.1118,-111.8201,992.9,659.9,179.5,1.3,5.7,23.95,36.08,1.9165,378.6401],
    [20828,1532814656,57.1112,-111.8201,992.3,659.3,181.5,3.2,4.9,24.06,36.16,1.9138,379.0916],
    [20829,1532814657,57.1106,-111.8201,992.5,659.5,180.9,2.1,5.1,24.28,36.62,1.9121,379.1762],
    [20830,1532814658,57.1101,-111.8201,992.9,658.9,180.5,1.4,5.6,24.05,35.77,1.9122,379.1762],
    [20831,1532814659,57.1095,-111.8201,992.9,658.9,182.0,2.7,5.4,23.56,35.32,1.913,379.0021],
    [20832,1532814660,57.1089,-111.82,991.9,657.9,183.2,3.9,4.6,24.71,34.51,1.9144,380.5529],
    [20833,1532814661,57.1083,-111.8201,991.2,657.2,183.2,3.7,4.0,24.21,34.53,1.9135,380.3684],
    [20834,1532814662,57.1077,-111.8201,990.3,656.3,182.5,3.2,4.6,24.44,34.14,1.9119,379.7115],
    [20835,1532814663,57.1071,-111.8201,989.0,655.0,183.2,4.0,3.4,24.91,33.36,1.9109,380.1098],
    [20836,1532814664,57.1065,-111.8201,987.6,652.6,182.8,3.4,3.0,24.15,33.65,1.913,378.3706],
    [20837,1532814665,57.1059,-111.8201,985.8,650.8,183.3,3.5,2.5,23.99,33.4,1.9139,379.7596],
    [20838,1532814666,57.1053,-111.8201,983.9,648.9,183.3,3.1,1.4,24.33,33.03,1.9137,379.5173],
    [20839,1532814667,57.1047,-111.8201,981.6,646.6,183.6,3.3,1.7,24.25,33.41,1.9118,379.4129],
    [20840,1532814668,57.1041,-111.8201,979.5,644.5,183.8,3.3,2.1,24.41,33.58,1.9126,380.2971],
    [20841,1532814669,57.1035,-111.8201,978.0,642.2,183.6,3.1,2.8,24.39,33.27,1.9108,380.4951],
    [20842,1532814670,57.1029,-111.8201,977.1,641.1,182.7,2.6,2.9,23.85,32.95,1.9111,380.0096],
    [20843,1532814671,57.1023,-111.8202,976.4,640.4,181.7,1.8,2.6,24.79,31.98,1.9119,379.9962],
    [20844,1532814672,57.1017,-111.8202,975.6,639.6,181.7,2.3,2.0,23.99,32.05,1.9114,380.8185],
    [20845,1532814673,57.1011,-111.8202,975.1,638.8,181.5,2.2,1.4,24.8,31.41,1.9114,381.0897],
    [20846,1532814674,57.1005,-111.8201,975.0,638.0,181.4,2.3,1.2,24.16,31.36,1.9118,380.9897],
    [20847,1532814675,57.0999,-111.8201,974.6,637.1,181.8,2.6,0.9,24.48,31.12,1.9117,380.8622],
    [20848,1532814676,57.0993,-111.8201,974.2,636.2,181.4,2.0,0.6,24.23,31.1,1.9115,381.8824],
    [20849,1532814677,57.0987,-111.8201,973.7,635.7,181.8,2.3,-0.1,24.12,30.69,1.9131,381.4416],
    [20850,1532814678,57.0982,-111.8201,972.9,634.9,182.2,2.4,-0.7,24.95,30.39,1.9125,383.0222],
    [20851,1532814679,57.0976,-111.8201,972.3,634.3,181.8,2.1,-1.0,24.3,30.95,1.9136,381.5095],
    [20852,1532814680,57.097,-111.8201,971.3,633.3,180.9,1.7,-1.4,23.65,30.54,1.9124,382.738],
    [20853,1532814681,57.0965,-111.8201,970.0,632.0,180.6,1.9,-1.6,24.53,30.86,1.9134,383.5323],
    [20854,1532814682,57.0959,-111.8201,969.6,631.6,179.8,1.0,-1.8,25.19,30.14,1.9135,384.0959],
    [20855,1532814683,57.0953,-111.8201,970.0,632.1,179.6,0.9,-1.7,23.97,30.49,1.9131,382.5956],
    [20856,1532814684,57.0947,-111.8201,970.5,631.5,181.0,2.0,-1.5,24.34,30.36,1.9127,382.9389],
    [20857,1532814685,57.0941,-111.8201,970.4,630.4,181.7,2.2,-1.5,23.79,30.74,1.9125,382.4354],
    [20858,1532814686,57.0935,-111.8201,970.5,630.5,182.6,2.6,-1.1,24.9,30.43,1.9127,382.1932],
    [20859,1532814687,57.093,-111.8201,970.9,630.9,182.8,2.4,-0.8,23.93,30.76,1.9131,382.1932],
    [20860,1532814688,57.0924,-111.8201,971.7,630.7,182.7,1.9,-0.3,25.1,30.5,1.9145,381.1219],
    [20861,1532814689,57.0918,-111.8201,972.7,631.7,181.9,0.8,0.4,24.42,31.14,1.9145,381.4894],
    [20862,1532814690,57.0913,-111.8201,973.7,632.7,182.4,1.5,0.4,23.96,31.33,1.9145,381.2764],
    [20863,1532814691,57.0907,-111.8201,974.8,633.8,182.5,1.8,-0.1,23.75,31.85,1.9142,381.7261],
    [20864,1532814692,57.0901,-111.8202,975.9,635.9,181.9,1.5,0.0,24.06,31.94,1.9146,382.2218],
    [20865,1532814693,57.0895,-111.8202,976.6,636.6,181.7,1.4,0.1,24.75,32.05,1.9148,381.2237],
    [20866,1532814694,57.0889,-111.8202,977.3,637.3,181.5,1.2,-0.3,24.32,32.69,1.9145,381.1377],
    [20867,1532814695,57.0883,-111.8202,978.2,638.2,181.9,1.6,-0.4,23.99,32.75,1.9148,381.1377],
    [20868,1532814696,57.0877,-111.8202,978.8,638.5,182.0,1.6,-0.4,24.32,33.37,1.9141,381.9067],
    [20869,1532814697,57.087,-111.8202,979.8,638.8,181.7,1.4,-0.7,24.27,32.48,1.9131,382.7099],
    [20870,1532814698,57.0864,-111.8202,980.8,639.8,181.3,1.1,-1.0,24.37,33.31,1.9136,382.884],
    [20871,1532814699,57.0858,-111.8202,981.4,640.4,180.9,0.7,-0.9,24.05,32.77,1.9141,382.884],
    [20872,1532814700,57.0852,-111.8202,981.2,640.2,181.9,1.6,-1.0,25.32,31.96,1.9133,383.2392],
    [20873,1532814701,57.0846,-111.8203,981.2,640.2,182.1,1.7,-0.6,24.79,32.48,1.9131,381.6097],
    [20874,1532814702,57.084,-111.8203,981.7,640.7,182.0,2.0,-1.0,23.51,32.74,1.9134,382.7144],
    [20875,1532814703,57.0834,-111.8203,982.7,640.8,183.1,3.3,-1.3,23.95,32.44,1.9142,382.4943],
    [20876,1532814704,57.0827,-111.8203,983.4,641.4,182.5,2.4,-1.4,24.35,32.47,1.9135,382.5345],
    [20877,1532814705,57.0821,-111.8203,984.6,642.6,181.9,1.9,-1.5,24.35,32.41,1.9135,382.5312],
    [20878,1532814706,57.0815,-111.8203,986.2,644.2,182.4,3.0,-1.2,24.36,33.2,1.9132,382.391],
    [20879,1532814707,57.0809,-111.8203,987.8,645.8,183.0,3.9,-0.9,24.25,32.26,1.914,381.3446],
    [20880,1532814708,57.0803,-111.8203,989.3,646.3,182.5,3.4,-1.1,23.79,32.16,1.9142,381.8844],
    [20881,1532814709,57.0797,-111.8203,990.8,647.8,182.6,3.6,-0.8,24.15,32.37,1.9144,381.8844],
    [20882,1532814710,57.0792,-111.8203,991.9,648.9,182.6,3.7,-0.3,24.35,32.47,1.9129,381.8334],
    [20883,1532814711,57.0786,-111.8202,992.2,649.2,182.6,4.0,0.7,23.78,32.42,1.9133,379.8671],
    [20884,1532814712,57.078,-111.8202,991.8,648.8,182.7,4.2,1.0,23.78,32.73,1.9148,380.2706],
    [20885,1532814713,57.0775,-111.8202,991.3,647.9,182.7,4.3,0.9,24.14,32.99,1.9138,378.9579],
    [20886,1532814714,57.0769,-111.8202,990.6,646.6,182.8,4.4,1.0,24.33,32.97,1.9137,379.7294],
    [20887,1532814715,57.0763,-111.8202,989.7,645.7,182.3,3.8,1.1,23.71,33.23,1.9128,378.3273],
    [20888,1532814716,57.0758,-111.8202,988.5,644.5,181.9,3.3,0.6,23.88,33.43,1.9134,380.1752],
    [20889,1532814717,57.0752,-111.8201,987.3,643.3,181.7,3.2,0.0,24.42,33.76,1.9124,379.4414],
    [20890,1532814718,57.0746,-111.8201,986.0,642.0,182.1,3.7,0.0,24.86,33.04,1.9124,379.5985],
    [20891,1532814719,57.0741,-111.8201,984.4,640.0,181.9,3.4,0.0,24.7,33.59,1.9132,378.864],
    [20892,1532814720,57.0735,-111.8201,983.1,638.1,181.3,3.0,-0.8,24.54,33.76,1.9139,379.791],
    [20893,1532814721,57.0729,-111.8201,982.0,637.0,180.5,2.2,-1.9,24.84,33.59,1.9137,378.5654],
    [20894,1532814722,57.0723,-111.82,981.2,636.2,180.8,2.4,-2.5,24.86,33.78,1.9136,377.9014],
    [20895,1532814723,57.0718,-111.82,980.7,635.7,181.0,2.2,-1.6,24.39,35.08,1.9129,377.8934],
    [20896,1532814724,57.0712,-111.82,980.4,635.5,180.7,1.7,-1.1,23.75,35.28,1.913,377.512],
    [20897,1532814725,57.0706,-111.82,980.7,634.7,181.5,2.6,-1.3,24.35,36.14,1.9141,377.512],
    [20898,1532814726,57.0701,-111.82,981.7,635.7,182.4,3.3,-0.9,25.19,35.2,1.9119,375.9236],
    [20899,1532814727,57.0695,-111.82,982.2,636.2,181.8,2.2,-0.8,24.5,36.4,1.9123,377.786],
    [20900,1532814728,57.069,-111.82,982.6,636.6,182.2,2.2,-1.1,24.1,35.6,1.9094,378.4447],
    [20901,1532814729,57.0684,-111.82,983.0,636.0,183.2,2.8,-0.5,24.17,35.14,1.9107,377.6195],
    [20902,1532814730,57.0678,-111.82,983.4,636.4,183.1,2.3,0.1,25.4,34.36,1.9108,378.705],
    [20903,1532814731,57.0673,-111.82,984.1,637.1,182.6,1.7,0.4,23.83,34.97,1.912,378.4318],
    [20904,1532814732,57.0668,-111.82,985.0,637.0,183.3,2.5,1.6,23.72,34.63,1.9103,378.881],
    [20905,1532814733,57.0662,-111.8201,985.7,637.7,183.9,3.0,2.0,24.19,34.58,1.9107,378.6335],
    [20906,1532814734,57.0657,-111.8201,986.0,637.5,183.1,2.1,1.4,24.21,34.3,1.9112,378.884],
    [20907,1532814735,57.0651,-111.8201,985.9,636.9,183.0,2.1,1.6,24.45,34.45,1.9109,379.3374],
    [20908,1532814736,57.0645,-111.8201,985.4,636.4,183.1,2.2,1.1,25.24,33.76,1.913,379.3374],
    [20909,1532814737,57.064,-111.8202,984.7,635.7,182.3,1.5,0.4,24.19,34.43,1.9116,377.2268],
    [20910,1532814738,57.0634,-111.8202,983.9,634.9,182.8,2.2,0.9,24.27,34.04,1.9108,379.0948],
    [20911,1532814739,57.0629,-111.8202,982.7,633.7,183.1,2.4,1.6,24.47,34.13,1.9111,378.7413],
    [20912,1532814740,57.0623,-111.8202,981.4,632.4,183.0,2.2,2.3,24.09,34.1,1.9109,378.2595],
    [20913,1532814741,57.0618,-111.8202,980.4,631.4,182.8,1.9,2.8,24.69,34.08,1.9107,378.3905],
    [20914,1532814742,57.0612,-111.8203,979.6,630.6,183.0,2.1,4.0,23.88,34.1,1.9105,378.0323],
    [20915,1532814743,57.0606,-111.8203,978.5,629.5,183.0,1.7,3.8,24.68,33.86,1.9101,379.1201],
    [20916,1532814744,57.06,-111.8203,977.0,628.0,183.1,1.8,3.8,25.15,33.18,1.9095,379.3544],
    [20917,1532814745,57.0595,-111.8203,975.6,626.6,183.4,2.0,3.6,24.43,34.02,1.909,378.7975],
    [20918,1532814746,57.0589,-111.8204,973.8,623.8,183.2,1.8,2.7,23.68,34.04,1.9128,379.3932],
    [20919,1532814747,57.0583,-111.8204,972.1,622.1,183.8,2.5,2.1,24.61,33.44,1.9095,379.3613],
    [20920,1532814748,57.0577,-111.8204,970.2,620.2,183.3,2.5,1.2,24.41,33.49,1.9094,379.3613],
    [20921,1532814749,57.0571,-111.8205,968.0,618.0,184.0,3.5,-0.9,24.51,33.7,1.9098,379.9325],
    [20922,1532814750,57.0565,-111.8205,966.2,616.2,183.4,3.1,-1.9,25.21,32.86,1.9096,378.3185],
    [20923,1532814751,57.0559,-111.8205,964.8,614.8,183.6,3.0,-3.6,23.96,33.56,1.9101,378.2512],
    [20924,1532814752,57.0554,-111.8205,964.2,614.2,182.3,1.6,-5.3,23.43,33.61,1.9095,379.6345],
    [20925,1532814753,57.0548,-111.8205,963.9,613.9,182.8,1.7,-6.9,24.28,33.75,1.909,378.27],
    [20926,1532814754,57.0542,-111.8205,964.4,614.4,183.4,1.6,-8.3,24.51,33.09,1.9094,378.9843],
    [20927,1532814755,57.0536,-111.8206,965.3,614.3,182.9,1.2,-9.6,24.26,33.38,1.9095,378.9272],
    [20928,1532814756,57.053,-111.8206,965.6,614.6,183.1,1.7,-10.9,24.16,33.78,1.9102,377.6375],
    [20929,1532814757,57.0524,-111.8206,966.0,615.0,182.8,1.6,-12.3,24.14,33.97,1.9099,378.7569],
    [20930,1532814758,57.0518,-111.8206,966.9,615.9,182.4,1.8,-13.6,23.99,34.2,1.9092,379.1772],
    [20931,1532814759,57.0513,-111.8206,967.5,616.5,184.0,2.9,-14.1,23.96,33.87,1.9099,379.1349],
    [20932,1532814760,57.0507,-111.8206,968.9,617.6,183.9,2.8,-13.7,23.85,34.72,1.9098,379.5532],
    [20933,1532814761,57.0501,-111.8206,973.6,621.6,182.7,2.0,-13.5,23.57,34.7,1.9091,378.9991],
    [20934,1532814762,57.0495,-111.8206,977.9,625.9,180.4,0.9,-14.2,23.73,35.48,1.9096,378.9991],
    [20935,1532814763,57.0489,-111.8206,981.2,629.2,181.1,1.5,-14.6,23.74,35.53,1.9096,378.4333],
    [20936,1532814764,57.0484,-111.8206,984.3,632.3,180.9,1.1,-14.6,24.0,34.49,1.9096,379.8652],
    [20937,1532814765,57.0478,-111.8206,987.7,634.7,180.8,0.9,-14.6,23.98,34.75,1.911,378.9989],
    [20938,1532814766,57.0472,-111.8206,991.3,638.3,181.0,1.2,-14.3,23.39,35.07,1.9111,377.4256],
    [20939,1532814767,57.0466,-111.8206,992.2,639.2,184.0,3.4,-12.9,23.75,35.28,1.9109,378.9968],
    [20940,1532814768,57.0461,-111.8206,991.7,638.7,182.9,1.9,-12.1,23.38,35.38,1.9101,379.5801],
    [20941,1532814769,57.0455,-111.8206,991.8,638.8,181.5,1.2,-12.1,23.71,35.32,1.9089,378.9015],
    [20942,1532814770,57.0449,-111.8206,992.5,639.5,183.7,2.9,-10.7,23.54,35.43,1.9088,379.3432],
    [20943,1532814771,57.0443,-111.8207,994.2,641.2,182.2,1.4,-10.0,23.25,35.61,1.9102,379.2877],
    [20944,1532814772,57.0438,-111.8207,995.7,642.7,182.1,1.5,-9.3,23.32,35.92,1.9119,379.1646],
    [20945,1532814773,57.0432,-111.8207,996.9,643.9,183.7,2.7,-8.9,23.5,35.45,1.9089,379.7458],
    [20946,1532814774,57.0426,-111.8207,997.7,645.4,184.0,2.7,-9.7,22.77,35.61,1.9092,380.4797],
    [20947,1532814775,57.042,-111.8207,997.3,644.3,185.0,3.2,-9.7,23.49,35.64,1.9088,380.4374],
    [20948,1532814776,57.0414,-111.8207,997.0,643.3,184.1,2.0,-9.1,22.84,35.63,1.9101,378.7704],
    [20949,1532814777,57.0408,-111.8208,998.7,642.7,182.5,0.8,-7.6,23.5,35.1,1.91,378.4568],
    [20950,1532814778,57.0402,-111.8208,1001.1,644.2,183.2,1.5,-6.4,23.83,34.85,1.9099,380.498],
    [20951,1532814779,57.0397,-111.8208,1003.5,645.5,182.9,1.2,-6.6,23.2,35.32,1.9092,379.8589],
    [20952,1532814780,57.0391,-111.8209,1005.8,647.8,183.1,1.8,-7.0,23.09,35.63,1.9112,378.376],
    [20953,1532814781,57.0385,-111.8209,1009.2,651.2,183.2,2.1,-7.5,22.62,35.75,1.9098,379.343],
    [20954,1532814782,57.0379,-111.8209,1012.1,654.1,183.1,2.0,-7.9,23.39,35.14,1.9091,380.2217],
    [20955,1532814783,57.0373,-111.8209,1014.4,656.4,182.2,1.6,-8.4,23.5,35.08,1.9101,379.6443],
    [20956,1532814784,57.0367,-111.8209,1016.0,658.0,182.2,1.7,-9.3,23.07,35.69,1.9112,380.4147],
    [20957,1532814785,57.0361,-111.8209,1018.5,659.5,181.9,1.5,-9.6,22.9,35.33,1.9102,379.7931],
    [20958,1532814786,57.0355,-111.8209,1023.0,664.0,182.7,2.0,-9.0,22.64,35.33,1.9108,380.069],
    [20959,1532814787,57.0349,-111.821,1031.3,672.3,182.9,2.2,-7.6,23.37,35.04,1.9097,378.9409],
    [20960,1532814788,57.0343,-111.821,1044.1,685.1,182.1,1.7,-5.4,22.43,35.52,1.9104,378.9409],
    [20961,1532814789,57.0338,-111.821,1058.4,699.5,181.4,1.0,-3.1,22.99,35.5,1.9096,380.1572],
    [20962,1532814790,57.0332,-111.821,1072.5,712.6,181.7,1.5,-1.3,22.78,36.0,1.9094,380.2396],
    [20963,1532814791,57.0327,-111.821,1085.5,725.5,181.8,1.6,-0.2,23.11,35.73,1.9092,379.7657],
    [20964,1532814792,57.0322,-111.821,1098.8,738.8,180.6,0.9,2.7,23.51,35.38,1.9097,379.2937],
    [20965,1532814793,57.0317,-111.821,1111.2,751.2,180.5,1.1,4.3,22.91,35.81,1.9103,380.3331],
    [20966,1532814794,57.0312,-111.821,1121.8,761.8,181.1,1.7,6.1,23.59,35.5,1.9107,379.4811],
    [20967,1532814795,57.0308,-111.821,1131.8,771.9,180.7,1.5,8.9,23.11,35.77,1.9097,379.3197],
    [20968,1532814796,57.0303,-111.8209,1141.5,782.6,180.2,1.1,9.9,22.71,36.29,1.9102,380.0107],
    [20969,1532814797,57.0299,-111.8209,1151.1,794.3,179.7,0.7,11.0,22.51,36.06,1.9103,380.0107],
    [20970,1532814798,57.0294,-111.8209,1159.6,806.1,179.8,0.9,12.7,22.67,36.71,1.9098,379.7899],
    [20971,1532814799,57.029,-111.8209,1166.9,814.3,180.2,1.2,14.5,22.92,36.07,1.9106,379.6123],
    [20972,1532814800,57.0286,-111.8209,1172.1,819.3,179.5,0.7,15.7,23.34,35.92,1.9088,379.6123],
    [20973,1532814801,57.0281,-111.8208,1176.0,822.6,180.3,1.8,16.1,22.76,36.41,1.9082,380.1929],
    [20974,1532814802,57.0277,-111.8208,1179.6,825.8,180.2,1.6,16.2,22.75,35.61,1.9084,380.542],
    [20975,1532814803,57.0273,-111.8208,1182.5,828.1,178.6,0.2,15.7,22.55,35.05,1.9088,380.542],
    [20976,1532814804,57.0268,-111.8208,1185.0,829.8,178.0,-0.5,15.7,23.28,34.37,1.9093,381.0107],
    [20977,1532814805,57.0264,-111.8207,1187.4,833.1,177.9,-0.9,16.3,23.07,34.08,1.9084,380.3973],
    [20978,1532814806,57.026,-111.8207,1189.6,835.8,177.9,-0.7,16.2,22.58,34.25,1.9081,380.5449],
    [20979,1532814807,57.0255,-111.8207,1191.0,839.3,178.1,-0.3,15.6,22.86,34.17,1.9077,381.4717],
    [20980,1532814808,57.0251,-111.8207,1192.9,841.4,176.3,-2.1,15.5,22.46,34.0,1.9083,382.2429],
    [20981,1532814809,57.0247,-111.8206,1194.0,842.6,175.9,-2.3,15.6,22.01,33.87,1.9082,380.4283],
    [20982,1532814810,57.0242,-111.8206,1194.3,843.6,177.9,-0.5,16.4,22.55,33.84,1.9088,379.3417],
    [20983,1532814811,57.0238,-111.8206,1194.2,846.2,179.2,0.4,16.6,22.6,34.74,1.91,381.1691],
    [20984,1532814812,57.0233,-111.8205,1194.1,845.0,179.4,0.2,16.1,23.03,33.44,1.9091,381.59],
    [20985,1532814813,57.0229,-111.8205,1193.8,850.8,180.5,1.1,15.6,22.61,33.99,1.9096,381.694],
    [20986,1532814814,57.0224,-111.8205,1193.5,856.8,181.3,1.6,16.1,22.81,33.65,1.907,381.0814],
    [20987,1532814815,57.022,-111.8205,1193.3,859.3,180.7,0.7,15.9,22.33,34.09,1.909,381.8418],
    [20988,1532814816,57.0215,-111.8205,1193.3,863.0,180.9,0.7,16.0,22.23,34.64,1.9079,380.423],
    [20989,1532814817,57.021,-111.8205,1193.2,865.6,181.6,1.4,16.4,22.96,33.15,1.9094,379.8739],
    [20990,1532814818,57.0205,-111.8205,1192.5,865.5,182.2,2.0,16.1,22.33,33.77,1.9089,381.2617],
    [20991,1532814819,57.02,-111.8206,1192.7,865.1,181.7,1.6,15.1,22.76,33.39,1.9101,380.4126],
    [20992,1532814820,57.0195,-111.8206,1194.5,864.2,181.8,1.9,15.3,22.37,34.07,1.9099,379.627],
    [20993,1532814821,57.0191,-111.8206,1197.5,861.7,182.6,3.0,16.8,22.61,34.07,1.9097,379.7715],
    [20994,1532814822,57.0186,-111.8206,1201.5,857.6,182.1,2.3,17.9,22.45,33.88,1.9102,379.7378],
    [20995,1532814823,57.0181,-111.8206,1206.5,857.5,181.8,2.3,18.5,22.24,34.77,1.9098,379.727],
    [20996,1532814824,57.0176,-111.8206,1210.7,852.7,182.2,2.9,18.9,22.51,34.29,1.9076,379.1215],
    [20997,1532814825,57.0171,-111.8206,1214.4,852.1,180.7,1.9,20.0,22.61,34.43,1.9086,379.4682],
    [20998,1532814826,57.0166,-111.8205,1218.1,854.2,179.9,1.6,20.5,23.18,33.78,1.9083,379.9127],
    [20999,1532814827,57.0161,-111.8205,1221.2,856.2,178.8,0.6,21.0,22.55,34.75,1.9083,379.958],
    [21000,1532814828,57.0157,-111.8205,1223.7,858.7,178.5,0.6,20.9,22.33,34.98,1.9079,380.6773],
    [21001,1532814829,57.0152,-111.8204,1226.1,861.1,179.4,1.9,19.3,22.51,34.06,1.9091,380.4608],
    [21002,1532814830,57.0147,-111.8204,1227.6,862.6,180.5,2.8,18.0,22.43,33.84,1.91,380.1521],
    [21003,1532814831,57.0142,-111.8204,1228.5,863.5,180.3,1.9,18.0,22.54,33.82,1.9084,379.7254],
    [21004,1532814832,57.0137,-111.8203,1228.8,863.8,182.6,4.5,17.0,22.86,33.43,1.9088,379.1541],
    [21005,1532814833,57.0132,-111.8203,1228.9,863.9,184.5,6.4,16.9,22.72,33.98,1.909,380.5783],
    [21006,1532814834,57.0127,-111.8203,1229.9,864.9,183.0,4.4,15.9,22.6,33.76,1.909,379.5899],
    [21007,1532814835,57.0122,-111.8203,1229.7,864.7,182.9,4.5,14.7,22.63,34.17,1.9087,379.3457],
    [21008,1532814836,57.0117,-111.8203,1228.0,863.0,182.8,4.0,13.5,23.23,33.63,1.908,380.1322],
    [21009,1532814837,57.0112,-111.8203,1225.2,860.2,182.1,3.2,12.4,22.47,34.69,1.9106,380.219],
    [21010,1532814838,57.0107,-111.8203,1222.0,856.0,181.7,2.8,11.5,22.73,34.04,1.9102,380.1192],
    [21011,1532814839,57.0101,-111.8203,1219.6,853.3,180.7,1.9,10.5,21.99,34.11,1.91,379.4569],
    [21012,1532814840,57.0096,-111.8202,1218.2,851.2,180.8,2.3,10.2,22.42,34.47,1.91,379.1292],
    [21013,1532814841,57.009,-111.8202,1217.7,850.0,180.5,2.0,10.0,22.09,34.16,1.9092,379.1292],
    [21014,1532814842,57.0085,-111.8202,1218.1,850.1,180.1,2.0,8.9,22.89,33.77,1.9108,379.7458],
    [21015,1532814843,57.0079,-111.8202,1218.8,850.8,181.2,3.4,8.1,22.68,34.19,1.9088,381.2157],
    [21016,1532814844,57.0074,-111.8201,1219.0,851.0,180.2,2.4,7.5,23.35,33.58,1.9086,381.1741],
    [21017,1532814845,57.0068,-111.8201,1219.9,851.9,179.8,2.8,7.4,22.41,34.3,1.9089,381.1741],
    [21018,1532814846,57.0063,-111.82,1220.4,852.4,181.7,4.6,7.7,22.19,33.92,1.9094,380.9397],
    [21019,1532814847,57.0057,-111.82,1220.6,852.6,180.4,2.9,7.5,23.29,32.77,1.9107,380.7238],
    [21020,1532814848,57.0052,-111.82,1219.9,851.3,180.9,3.3,7.3,22.85,33.3,1.9113,380.4453],
    [21021,1532814849,57.0046,-111.8199,1219.1,850.1,181.1,2.7,6.6,22.61,33.76,1.9103,381.0987],
    [21022,1532814850,57.004,-111.8199,1217.8,848.8,180.5,1.6,5.8,22.84,33.51,1.9102,380.6106],
    [21023,1532814851,57.0035,-111.8199,1216.4,847.4,181.4,2.5,5.4,22.66,33.77,1.9106,379.819],
    [21024,1532814852,57.0029,-111.8199,1215.2,845.3,182.6,3.5,5.2,22.85,34.03,1.9106,380.7821],
    [21025,1532814853,57.0023,-111.8199,1214.7,844.7,182.7,3.2,5.1,22.5,34.08,1.9094,380.7235],
    [21026,1532814854,57.0017,-111.8199,1213.6,843.6,183.2,4.0,5.0,22.06,34.24,1.9081,380.6508],
    [21027,1532814855,57.0011,-111.8199,1212.0,841.1,183.4,4.4,4.7,22.52,34.37,1.9079,380.7699],
    [21028,1532814856,57.0005,-111.8199,1210.1,839.1,182.1,3.1,4.6,22.28,34.17,1.9081,380.7509],
    [21029,1532814857,56.9999,-111.8199,1208.0,836.9,180.9,2.0,4.2,23.07,33.77,1.9086,380.0728],
    [21030,1532814858,56.9993,-111.8198,1206.3,835.2,180.8,2.5,3.8,22.87,33.54,1.9085,380.6467],
    [21031,1532814859,56.9987,-111.8198,1205.5,833.6,180.0,1.8,3.3,23.29,33.7,1.9077,380.7032],
    [21032,1532814860,56.9981,-111.8198,1206.4,834.5,178.8,1.3,2.9,22.58,34.1,1.9084,380.0674],
    [21033,1532814861,56.9975,-111.8197,1207.0,835.0,179.1,1.6,2.3,22.43,34.24,1.9081,378.8386],
    [21034,1532814862,56.9969,-111.8197,1208.3,836.3,179.3,1.4,2.3,22.45,33.85,1.9073,380.4491],
    [21035,1532814863,56.9962,-111.8197,1210.1,838.1,182.1,4.1,2.8,22.42,34.23,1.9074,379.3801],
    [21036,1532814864,56.9956,-111.8196,1211.6,839.5,183.1,4.6,2.8,22.37,34.16,1.9083,379.4258],
    [21037,1532814865,56.995,-111.8196,1212.7,840.7,181.7,2.2,2.7,22.44,34.27,1.9085,380.6194],
    [21038,1532814866,56.9943,-111.8196,1213.8,841.8,181.1,1.5,2.3,22.15,33.99,1.9068,380.5614],
    [21039,1532814867,56.9937,-111.8196,1215.3,843.3,182.3,2.5,1.8,22.41,33.96,1.9084,378.8828],
    [21040,1532814868,56.9931,-111.8196,1216.4,844.4,183.2,3.7,2.2,22.44,34.18,1.9076,380.291],
    [21041,1532814869,56.9924,-111.8197,1217.2,845.2,183.7,3.9,2.7,22.26,33.62,1.9085,379.5144],
    [21042,1532814870,56.9918,-111.8197,1218.8,846.8,183.5,3.3,2.8,21.98,33.86,1.9091,379.9052],
    [21043,1532814871,56.9912,-111.8197,1220.7,849.7,184.4,4.2,2.8,21.91,34.07,1.9103,380.3441],
    [21044,1532814872,56.9906,-111.8197,1223.0,852.0,183.1,2.7,3.3,22.19,33.7,1.9107,380.5521],
    [21045,1532814873,56.9899,-111.8197,1225.4,854.4,183.4,3.6,3.1,23.09,32.96,1.9108,380.8079],
    [21046,1532814874,56.9893,-111.8197,1227.2,856.2,184.5,4.8,3.0,22.46,33.88,1.9113,378.4391],
    [21047,1532814875,56.9887,-111.8198,1227.5,856.5,183.2,3.0,3.1,22.37,34.13,1.9088,379.0115],
    [21048,1532814876,56.9881,-111.8198,1227.3,856.3,184.0,3.7,3.1,22.02,34.79,1.9086,379.0115],
    [21049,1532814877,56.9875,-111.8198,1226.4,855.4,184.7,3.9,3.1,22.52,35.02,1.9102,380.0812],
    [21050,1532814878,56.9868,-111.8198,1224.8,853.5,184.3,3.2,3.3,22.68,34.08,1.9074,380.0812],
    [21051,1532814879,56.9862,-111.8199,1223.6,851.6,184.9,3.5,3.6,22.15,34.32,1.9076,380.6972],
    [21052,1532814880,56.9856,-111.8199,1222.8,850.8,185.2,3.7,4.2,22.39,34.11,1.9087,379.5216],
    [21053,1532814881,56.985,-111.82,1222.7,850.7,186.6,5.1,4.1,22.19,34.04,1.9089,379.3871],
    [21054,1532814882,56.9844,-111.82,1222.6,850.6,186.3,4.7,4.4,22.57,34.41,1.9095,379.3871],
    [21055,1532814883,56.9838,-111.8201,1222.0,850.0,185.6,4.5,4.4,22.51,33.85,1.9093,380.6581],
    [21056,1532814884,56.9832,-111.8201,1221.0,848.3,185.9,5.1,4.4,23.02,33.79,1.9083,379.4519],
    [21057,1532814885,56.9826,-111.8201,1220.0,847.0,184.9,4.0,3.8,22.22,34.31,1.9077,379.4519],
    [21058,1532814886,56.982,-111.8202,1219.1,846.1,184.4,3.5,3.1,22.67,34.42,1.9089,379.0998],
    [21059,1532814887,56.9814,-111.8202,1218.4,845.4,184.0,3.1,2.9,22.56,34.82,1.9088,379.8453],
    [21060,1532814888,56.9808,-111.8202,1218.2,844.2,183.6,2.5,3.2,22.94,34.2,1.9095,380.1195],
    [21061,1532814889,56.9802,-111.8203,1218.3,844.3,183.6,2.4,2.5,22.15,34.63,1.9087,380.2279],
    [21062,1532814890,56.9796,-111.8203,1218.2,844.2,184.0,2.5,2.4,22.07,34.75,1.9099,379.6763],
    [21063,1532814891,56.979,-111.8203,1217.8,842.8,184.4,2.9,2.3,22.46,35.81,1.9084,378.4214],
    [21064,1532814892,56.9784,-111.8204,1217.1,842.1,184.9,3.6,2.4,22.08,34.88,1.9076,380.5767],
    [21065,1532814893,56.9778,-111.8204,1216.2,841.2,184.6,3.6,2.7,22.21,35.79,1.9087,380.3912],
    [21066,1532814894,56.9772,-111.8205,1215.3,839.3,184.1,3.8,4.3,22.35,35.3,1.9085,378.8013],
    [21067,1532814895,56.9765,-111.8205,1214.3,838.3,183.4,3.6,3.7,22.5,35.69,1.9077,378.7445],
    [21068,1532814896,56.9759,-111.8205,1213.3,836.3,183.3,4.2,2.9,22.91,34.52,1.9069,380.2247],
    [21069,1532814897,56.9753,-111.8205,1212.3,835.3,183.4,5.0,3.8,22.42,35.21,1.908,379.2864],
    [21070,1532814898,56.9747,-111.8205,1211.0,833.0,183.3,4.9,3.1,22.52,34.61,1.9088,379.6345],
    [21071,1532814899,56.9741,-111.8204,1209.8,831.8,182.4,3.9,2.6,22.7,34.46,1.9095,379.9643],
    [21072,1532814900,56.9734,-111.8204,1208.6,829.5,181.5,2.7,1.8,22.46,35.1,1.9106,380.1309],
    [21073,1532814901,56.9728,-111.8204,1206.8,827.8,181.6,2.6,1.2,22.74,34.29,1.9112,380.5782],
    [21074,1532814902,56.9722,-111.8204,1205.5,825.5,181.9,2.8,1.4,22.55,34.56,1.9106,379.2604],
    [21075,1532814903,56.9715,-111.8204,1205.9,824.8,183.4,4.2,1.4,22.89,34.9,1.9115,378.5083],
    [21076,1532814904,56.9709,-111.8204,1207.0,824.9,183.4,3.1,1.4,22.1,35.41,1.9117,379.4386],
    [21077,1532814905,56.9702,-111.8204,1209.2,826.1,183.1,2.3,2.3,22.43,35.6,1.9087,379.9968],
    [21078,1532814906,56.9696,-111.8205,1211.6,828.6,184.7,3.6,0.1,22.62,35.72,1.9066,380.2937],
    [21079,1532814907,56.969,-111.8205,1213.6,829.7,184.7,3.1,-0.9,21.99,35.95,1.9067,379.6589],
    [21080,1532814908,56.9683,-111.8206,1216.0,831.0,183.9,2.3,-1.9,21.88,35.94,1.9052,379.7829],
    [21081,1532814909,56.9677,-111.8206,1217.7,830.6,184.2,2.9,-1.8,22.23,35.27,1.9059,380.975],
    [21082,1532814910,56.9671,-111.8206,1218.4,830.4,186.2,5.0,-2.3,22.65,35.02,1.9084,380.2958],
    [21083,1532814911,56.9665,-111.8207,1219.0,829.5,185.2,4.3,-2.1,22.48,34.47,1.907,379.4156],
    [21084,1532814912,56.9658,-111.8207,1219.7,829.5,184.4,4.4,-2.8,22.49,34.75,1.9062,381.0684],
    [21085,1532814913,56.9652,-111.8207,1220.3,828.0,183.2,4.1,-3.1,21.96,34.47,1.9063,381.0684],
    [21086,1532814914,56.9646,-111.8207,1220.3,826.3,181.9,3.7,-3.5,22.14,33.84,1.9076,380.3203],
    [21087,1532814915,56.964,-111.8206,1219.7,824.7,181.7,4.1,-3.6,22.45,34.33,1.9071,379.8248],
    [21088,1532814916,56.9633,-111.8206,1219.4,823.3,181.3,3.9,-4.0,22.34,34.21,1.9068,380.2482],
    [21089,1532814917,56.9627,-111.8206,1219.0,822.0,180.8,3.4,-4.2,22.32,33.72,1.9081,379.8119],
    [21090,1532814918,56.9621,-111.8205,1218.6,820.6,180.9,3.2,-4.4,22.69,33.52,1.9083,380.537],
    [21091,1532814919,56.9614,-111.8205,1218.3,819.4,181.6,3.2,-5.1,22.31,33.57,1.9081,379.5718],
    [21092,1532814920,56.9608,-111.8205,1218.0,817.3,182.7,3.3,-4.9,22.08,33.89,1.9083,379.4873],
    [21093,1532814921,56.9602,-111.8205,1217.6,816.3,183.8,3.6,-5.1,21.98,33.67,1.9089,379.9119],
    [21094,1532814922,56.9596,-111.8205,1217.0,815.0,184.3,3.2,-5.8,23.06,33.69,1.9088,380.1088],
    [21095,1532814923,56.959,-111.8205,1216.6,813.9,184.9,3.1,-6.9,23.32,33.51,1.9082,381.5884],
    [21096,1532814924,56.9583,-111.8206,1216.0,813.0,185.1,2.5,-7.3,22.48,34.01,1.9082,379.9785],
    [21097,1532814925,56.9577,-111.8206,1216.0,813.0,184.4,1.9,-6.6,21.65,34.88,1.908,379.5624],
    [21098,1532814926,56.9571,-111.8207,1215.9,812.9,184.2,1.9,-7.3,22.68,34.66,1.9086,380.131],
    [21099,1532814927,56.9565,-111.8207,1215.8,812.0,183.8,1.6,-6.7,21.92,34.99,1.9082,380.15],
    [21100,1532814928,56.9558,-111.8208,1216.2,812.2,184.2,2.0,-6.9,23.19,34.52,1.9082,379.2026],
    [21101,1532814929,56.9552,-111.8208,1216.5,812.5,183.7,1.6,-7.2,23.24,34.41,1.9098,378.9477],
    [21102,1532814930,56.9546,-111.8208,1216.4,812.5,183.5,1.7,-7.8,22.22,35.7,1.9099,379.4689],
    [21103,1532814931,56.9539,-111.8209,1215.4,810.4,183.8,1.7,-7.8,22.74,34.9,1.9097,380.5623],
    [21104,1532814932,56.9533,-111.8209,1214.8,809.8,183.7,2.0,-7.5,22.52,35.73,1.9099,378.1904],
    [21105,1532814933,56.9527,-111.821,1214.8,809.5,184.2,2.9,-7.5,22.69,35.09,1.9097,380.4945],
    [21106,1532814934,56.952,-111.821,1214.8,808.8,183.2,2.6,-7.4,22.58,35.77,1.9117,379.0499],
    [21107,1532814935,56.9514,-111.821,1214.6,808.6,183.7,3.5,-7.4,21.8,35.85,1.9106,379.9886],
    [21108,1532814936,56.9508,-111.821,1214.3,808.3,183.1,3.0,-7.6,22.75,35.44,1.9106,377.6039],
    [21109,1532814937,56.9501,-111.821,1212.8,805.8,182.8,3.3,-7.5,22.01,35.91,1.9081,380.0597],
    [21110,1532814938,56.9495,-111.821,1211.0,804.0,184.2,4.5,-7.7,22.54,35.8,1.9082,379.272],
    [21111,1532814939,56.9488,-111.821,1209.0,802.0,182.8,3.3,-7.4,22.34,35.98,1.908,379.2316],
    [21112,1532814940,56.9482,-111.821,1207.9,800.9,183.6,4.3,-7.0,22.02,35.78,1.9058,381.1047],
    [21113,1532814941,56.9476,-111.821,1207.4,799.4,183.9,4.0,-6.0,21.81,35.51,1.9055,378.9771],
    [21114,1532814942,56.947,-111.821,1209.7,801.7,183.4,3.3,-5.0,22.3,35.06,1.9108,379.0884],
    [21115,1532814943,56.9463,-111.821,1212.5,803.5,182.7,2.3,-5.2,22.83,34.06,1.9135,378.7646],
    [21116,1532814944,56.9457,-111.821,1215.5,806.5,182.6,2.1,-5.1,22.48,34.93,1.9147,379.7417],
    [21117,1532814945,56.9451,-111.821,1218.2,808.9,184.2,3.7,-5.2,22.41,36.09,1.9142,378.7961],
    [21118,1532814946,56.9445,-111.8211,1220.4,810.4,184.3,3.9,-5.4,22.32,36.07,1.9142,377.7408],
    [21119,1532814947,56.9439,-111.8211,1222.3,812.3,184.5,4.2,-5.5,22.64,36.31,1.914,379.6217],
    [21120,1532814948,56.9433,-111.8211,1223.4,812.4,183.9,3.2,-5.0,22.46,36.58,1.915,378.7683],
    [21121,1532814949,56.9427,-111.8211,1223.6,812.6,183.4,2.7,-4.6,22.39,37.08,1.9097,378.4361],
    [21122,1532814950,56.9421,-111.8211,1223.6,811.6,184.6,4.6,-4.6,22.5,37.2,1.9095,378.525],
    [21123,1532814951,56.9415,-111.8211,1223.8,811.8,183.4,4.8,-2.6,22.42,38.01,1.9106,380.0572],
    [21124,1532814952,56.9409,-111.8211,1223.6,810.6,180.7,4.9,-1.9,21.96,37.58,1.9083,378.0294],
    [21125,1532814953,56.9403,-111.821,1223.7,810.7,178.8,5.8,-1.3,21.92,36.95,1.9094,378.0294],
    [21126,1532814954,56.9397,-111.8208,1224.1,810.1,174.3,4.0,-1.5,22.61,36.89,1.909,379.7355],
    [21127,1532814955,56.9391,-111.8206,1225.0,811.0,171.3,3.7,-1.6,23.3,35.91,1.9086,377.841],
    [21128,1532814956,56.9386,-111.8204,1226.2,811.9,169.1,3.7,-0.1,22.53,36.16,1.9095,378.9595],
    [21129,1532814957,56.938,-111.8201,1227.5,812.5,166.1,3.0,0.9,22.37,36.72,1.9085,378.0014],
    [21130,1532814958,56.9375,-111.8198,1228.9,812.9,163.6,3.4,1.1,22.37,36.17,1.9105,379.6577],
    [21131,1532814959,56.9369,-111.8194,1230.4,813.5,160.4,3.5,0.4,22.36,36.24,1.908,379.7035],
    [21132,1532814960,56.9364,-111.819,1231.7,814.0,156.8,2.6,1.1,22.39,35.77,1.9075,379.0587],
    [21133,1532814961,56.9359,-111.8185,1232.2,814.0,153.9,2.7,1.7,22.36,35.96,1.9099,379.581],
    [21134,1532814962,56.9354,-111.818,1232.9,813.9,151.6,3.0,2.7,21.87,35.66,1.9098,379.3746],
    [21135,1532814963,56.9349,-111.8174,1234.4,814.5,148.1,3.2,2.4,22.65,35.23,1.9093,379.5594],
    [21136,1532814964,56.9345,-111.8168,1236.6,815.6,144.5,2.4,2.5,21.7,35.83,1.9093,380.2547],
    [21137,1532814965,56.9341,-111.8161,1237.1,816.1,140.7,1.7,2.0,22.67,34.95,1.9076,379.7133],
    [21138,1532814966,56.9336,-111.8154,1237.7,815.7,138.3,1.9,2.9,22.59,35.57,1.9091,379.3618],
    [21139,1532814967,56.9332,-111.8146,1237.5,815.5,136.5,3.3,2.4,22.45,35.57,1.91,379.2064],
    [21140,1532814968,56.9329,-111.8138,1236.9,815.9,133.9,3.5,1.9,22.73,34.78,1.9091,379.3259],
    [21141,1532814969,56.9325,-111.813,1236.7,815.7,131.1,3.4,1.7,21.65,35.03,1.909,379.3893],
    [21142,1532814970,56.9321,-111.8121,1236.5,815.5,127.8,4.1,0.6,22.2,35.12,1.9094,379.7245],
    [21143,1532814971,56.9318,-111.8113,1235.7,814.7,125.0,4.6,0.2,22.1,35.08,1.9102,379.2642],
    [21144,1532814972,56.9315,-111.8104,1234.1,813.1,121.5,4.4,-0.6,22.24,34.9,1.9097,379.6192],
    [21145,1532814973,56.9312,-111.8094,1232.0,812.0,118.3,4.0,-0.7,22.16,35.59,1.9093,380.9047],
    [21146,1532814974,56.931,-111.8084,1229.4,810.2,116.7,4.5,0.5,21.85,35.21,1.9087,379.6805],
    [21147,1532814975,56.9307,-111.8075,1226.9,807.9,113.6,4.9,-0.4,22.09,35.2,1.908,380.1457],
    [21148,1532814976,56.9305,-111.8064,1224.8,805.8,109.8,3.9,-0.7,21.77,35.2,1.9105,378.7058],
    [21149,1532814977,56.9304,-111.8054,1223.1,805.1,107.5,3.9,-0.1,21.86,35.56,1.9101,378.7058],
    [21150,1532814978,56.9302,-111.8043,1222.1,804.1,103.9,2.2,-0.6,21.83,35.11,1.9088,380.8327],
    [21151,1532814979,56.9301,-111.8033,1222.2,804.2,100.0,2.0,-1.8,22.53,34.73,1.9101,377.5174],
    [21152,1532814980,56.93,-111.8022,1222.5,804.5,98.5,2.2,-1.5,21.93,35.22,1.9081,377.5174],
    [21153,1532814981,56.9299,-111.8011,1222.1,804.6,96.6,3.2,-1.8,22.14,35.23,1.9087,380.1016],
    [21154,1532814982,56.9298,-111.8,1222.4,805.4,94.6,3.0,-1.9,22.06,35.15,1.9092,379.912],
    [21155,1532814983,56.9298,-111.7989,1224.8,808.8,92.9,2.2,-1.6,22.87,34.49,1.9097,379.912],
    [21156,1532814984,56.9297,-111.7979,1226.9,810.9,92.4,1.6,-0.5,21.63,35.55,1.9131,379.4259],
    [21157,1532814985,56.9297,-111.7968,1229.7,814.7,93.0,1.9,1.5,21.59,35.23,1.914,380.4256],
    [21158,1532814986,56.9297,-111.7957,1231.6,817.6,92.6,2.6,1.0,21.6,35.62,1.9115,379.0894],
    [21159,1532814987,56.9297,-111.7946,1233.0,819.0,91.5,2.1,0.0,22.04,35.79,1.9105,379.3903],
    [21160,1532814988,56.9296,-111.7936,1234.2,821.2,92.5,1.2,0.8,22.69,35.27,1.912,379.5191],
    [21161,1532814989,56.9296,-111.7925,1235.5,822.5,92.3,0.3,0.2,22.16,36.05,1.9119,378.2793],
    [21162,1532814990,56.9296,-111.7914,1237.4,825.4,92.3,0.5,-0.1,22.23,36.86,1.913,379.5465],
    [21163,1532814991,56.9296,-111.7903,1238.0,826.0,92.0,1.4,-0.4,22.54,35.72,1.9128,378.8814],
    [21164,1532814992,56.9296,-111.7892,1238.3,827.3,93.5,2.0,1.6,22.5,35.88,1.9143,379.2752],
    [21165,1532814993,56.9295,-111.7881,1238.2,827.2,93.4,2.7,1.6,22.43,36.24,1.913,380.1074],
    [21166,1532814994,56.9295,-111.787,1237.9,826.9,92.3,3.2,0.8,21.9,37.0,1.9136,379.1973],
    [21167,1532814995,56.9295,-111.7859,1236.7,826.0,92.3,3.1,1.1,22.08,37.32,1.9154,379.1973],
    [21168,1532814996,56.9295,-111.7848,1235.9,825.9,92.0,3.1,1.7,21.99,37.62,1.9105,378.2268],
    [21169,1532814997,56.9295,-111.7837,1235.5,825.5,90.7,3.6,0.9,22.18,37.86,1.9092,378.624],
    [21170,1532814998,56.9295,-111.7826,1235.5,825.5,89.1,3.6,0.5,22.66,37.11,1.9082,378.4404],
    [21171,1532814999,56.9295,-111.7815,1235.5,825.5,90.7,4.0,2.4,22.06,37.65,1.9113,378.3768],
    [21172,1532815000,56.9295,-111.7804,1236.3,826.3,87.7,3.9,-0.8,21.81,37.11,1.91,379.4259],
    [21173,1532815001,56.9296,-111.7793,1237.0,827.0,87.0,4.8,-1.3,22.23,36.71,1.9127,379.268],
    [21174,1532815002,56.9296,-111.7782,1237.2,827.2,88.1,4.9,-0.4,21.66,37.29,1.9105,378.8104],
    [21175,1532815003,56.9296,-111.777,1237.8,827.8,88.2,3.5,-0.7,21.7,37.2,1.9113,378.8104],
    [21176,1532815004,56.9296,-111.7759,1238.3,828.3,88.7,3.0,-0.5,22.1,36.99,1.9115,380.1439],
    [21177,1532815005,56.9296,-111.7748,1238.4,828.3,88.5,2.9,-0.7,22.14,36.92,1.9106,380.2755],
    [21178,1532815006,56.9296,-111.7737,1238.9,829.9,88.3,1.8,-0.7,22.34,37.33,1.9125,380.4936],
    [21179,1532815007,56.9296,-111.7726,1240.1,831.1,87.7,0.2,-1.4,21.79,36.73,1.9169,379.3249],
    [21180,1532815008,56.9296,-111.7715,1241.7,833.4,87.6,0.5,-1.2,22.67,36.21,1.9167,379.1438],
    [21181,1532815009,56.9297,-111.7704,1242.8,834.8,87.3,0.1,-1.0,22.3,37.17,1.9175,378.4848],
    [21182,1532815010,56.9297,-111.7693,1243.7,835.7,87.0,-0.1,-1.0,22.27,38.03,1.9183,378.0451],
    [21183,1532815011,56.9297,-111.7682,1243.6,836.6,86.9,0.8,-0.6,22.08,37.66,1.9173,379.8627],
    [21184,1532815012,56.9297,-111.7671,1243.5,836.5,86.5,0.6,-0.9,22.48,37.95,1.9169,378.8567],
    [21185,1532815013,56.9298,-111.766,1242.5,835.6,86.1,0.3,-1.1,21.84,38.72,1.9171,379.061],
    [21186,1532815014,56.9298,-111.765,1240.7,834.7,88.4,-0.7,1.2,22.12,39.07,1.9164,378.6481],
    [21187,1532815015,56.9298,-111.7639,1238.5,832.5,89.4,-0.7,1.7,22.66,38.77,1.9156,378.1513],
    [21188,1532815016,56.9298,-111.7628,1236.3,830.3,87.5,-0.1,-0.6,22.18,39.03,1.9172,378.0144],
    [21189,1532815017,56.9299,-111.7617,1235.5,830.5,86.7,0.0,-1.0,22.23,38.98,1.9156,378.0986],
    [21190,1532815018,56.9299,-111.7605,1235.0,830.0,88.4,0.4,0.8,21.69,39.81,1.9155,378.5904],
    [21191,1532815019,56.9299,-111.7595,1234.9,830.2,88.1,1.0,0.2,22.29,39.84,1.9152,377.2442],
    [21192,1532815020,56.9299,-111.7584,1235.0,831.0,88.5,0.8,0.4,22.07,39.42,1.9152,378.4562],
    [21193,1532815021,56.9299,-111.7573,1235.4,832.3,90.0,1.1,1.9,22.45,39.2,1.9148,378.5787],
    [21194,1532815022,56.93,-111.7562,1235.0,832.0,90.1,2.3,1.9,21.86,39.19,1.9147,378.5787],
    [21195,1532815023,56.93,-111.7551,1233.7,831.8,91.1,2.6,2.9,22.16,38.97,1.916,378.2337],
    [21196,1532815024,56.93,-111.754,1232.4,832.4,90.9,3.0,2.7,22.59,38.16,1.9159,378.7027],
    [21197,1532815025,56.93,-111.7528,1231.2,833.3,91.5,3.0,3.4,22.18,38.56,1.9154,379.026],
    [21198,1532815026,56.93,-111.7518,1229.9,833.9,91.2,2.5,2.9,22.08,38.6,1.9145,379.1554],
    [21199,1532815027,56.93,-111.7506,1228.1,833.7,89.9,3.0,1.6,22.0,38.71,1.9179,377.8554],
    [21200,1532815028,56.93,-111.7495,1226.4,833.4,90.1,2.8,1.7,22.58,37.64,1.9193,378.4383],
    [21201,1532815029,56.9301,-111.7484,1225.3,833.4,90.0,3.9,1.4,21.64,38.53,1.9213,378.6206],
    [21202,1532815030,56.9301,-111.7473,1225.0,834.3,90.1,3.8,1.4,22.48,38.47,1.9208,378.9562],
    [21203,1532815031,56.9301,-111.7461,1224.7,835.7,89.0,3.6,0.7,21.98,39.26,1.9201,378.9767],
    [21204,1532815032,56.9301,-111.745,1224.7,835.8,89.4,3.2,1.4,21.58,40.04,1.9181,378.5934],
    [21205,1532815033,56.9301,-111.7439,1224.8,836.8,90.2,2.8,1.8,22.1,40.9,1.9187,377.5725],
    [21206,1532815034,56.9301,-111.7428,1224.7,836.7,89.3,1.8,0.7,22.45,40.43,1.9179,377.6586],
    [21207,1532815035,56.9301,-111.7417,1224.3,836.3,88.8,1.0,0.2,21.97,41.01,1.9154,377.8687],
    [21208,1532815036,56.9302,-111.7405,1223.6,835.6,88.3,1.4,-0.8,22.19,41.37,1.9157,377.8687],
    [21209,1532815037,56.9302,-111.7394,1222.9,834.9,88.1,1.7,-1.2,22.45,40.05,1.918,378.8739],
    [21210,1532815038,56.9302,-111.7383,1222.3,834.3,89.4,2.3,-0.1,21.79,40.25,1.9212,378.0821],
    [21211,1532815039,56.9302,-111.7372,1221.7,833.7,90.4,2.2,0.6,22.33,39.95,1.9227,378.0347],
    [21212,1532815040,56.9302,-111.7361,1221.3,833.3,90.3,1.4,0.5,22.0,40.15,1.9198,377.2167],
    [21213,1532815041,56.9302,-111.735,1220.3,832.3,90.2,0.6,0.5,21.53,40.36,1.9193,379.2633],
    [21214,1532815042,56.9302,-111.7338,1218.9,830.9,89.3,0.4,-0.4,21.83,40.48,1.9197,377.5631],
    [21215,1532815043,56.9302,-111.7327,1217.3,829.3,89.0,1.3,-0.3,22.12,40.74,1.9195,377.6528],
    [21216,1532815044,56.9302,-111.7316,1215.6,827.6,90.5,2.3,1.3,22.69,40.38,1.9193,378.8089],
    [21217,1532815045,56.9302,-111.7305,1213.7,826.7,89.1,2.6,-0.1,22.4,40.51,1.9185,377.9624],
    [21218,1532815046,56.9302,-111.7294,1212.2,825.2,89.2,2.7,0.4,22.06,40.63,1.9191,378.593],
    [21219,1532815047,56.9302,-111.7282,1212.1,825.8,90.8,1.7,1.8,22.35,40.46,1.9202,377.457],
    [21220,1532815048,56.9302,-111.7271,1211.8,825.8,91.1,1.2,2.1,22.5,40.0,1.9205,377.4512],
    [21221,1532815049,56.9302,-111.726,1212.0,826.2,91.3,0.8,2.1,22.35,40.53,1.9204,377.525],
    [21222,1532815050,56.9302,-111.7249,1213.5,828.5,91.0,0.0,1.6,22.1,41.76,1.9201,377.5002],
    [21223,1532815051,56.9302,-111.7238,1215.9,830.9,90.3,-0.6,0.7,21.85,41.86,1.9199,377.4809],
    [21224,1532815052,56.9303,-111.7227,1217.9,832.9,90.3,0.2,0.8,21.97,41.53,1.9206,376.8618],
    [21225,1532815053,56.9303,-111.7215,1219.0,834.9,90.4,1.4,1.0,21.84,41.64,1.9184,377.1694],
    [21226,1532815054,56.9303,-111.7204,1219.8,835.8,91.2,1.2,1.9,22.11,41.76,1.9195,378.2214],
    [21227,1532815055,56.9303,-111.7193,1220.0,836.0,91.8,1.8,2.4,22.94,41.35,1.9184,376.612],
    [21228,1532815056,56.9303,-111.7182,1219.5,835.5,91.9,0.2,2.5,22.44,41.28,1.9187,378.0562],
    [21229,1532815057,56.9303,-111.7171,1219.3,835.3,91.6,0.0,2.3,22.21,41.39,1.9193,376.5485],
    [21230,1532815058,56.9303,-111.716,1220.0,837.0,90.8,0.9,1.6,22.27,41.31,1.9183,377.8589],
    [21231,1532815059,56.9303,-111.7149,1221.0,838.0,90.6,-0.1,1.6,22.18,41.09,1.9202,378.3068],
    [21232,1532815060,56.9303,-111.7138,1221.2,838.2,91.0,-0.3,2.0,22.95,40.91,1.9219,377.1189],
    [21233,1532815061,56.9303,-111.7127,1221.5,838.5,90.9,-1.0,1.9,21.72,41.59,1.9206,377.9891],
    [21234,1532815062,56.9303,-111.7116,1221.9,839.9,90.9,-1.1,1.8,22.05,42.22,1.9199,376.9679],
    [21235,1532815063,56.9303,-111.7105,1222.5,840.5,90.9,-1.2,1.8,22.4,41.6,1.9208,376.9657],
    [21236,1532815064,56.9303,-111.7094,1222.7,840.7,90.5,-1.4,1.7,22.08,41.73,1.9204,376.9647],
    [21237,1532815065,56.9303,-111.7083,1223.0,841.7,89.8,-1.3,1.2,22.32,42.11,1.9194,377.1844],
    [21238,1532815066,56.9303,-111.7072,1222.7,841.7,89.2,-1.0,1.2,21.69,41.98,1.9196,376.9068],
    [21239,1532815067,56.9304,-111.7061,1221.7,840.7,90.2,-0.1,2.6,21.86,42.46,1.9185,376.9555],
    [21240,1532815068,56.9304,-111.7051,1221.0,841.0,90.0,-0.2,2.4,21.41,42.36,1.9181,377.2394],
    [21241,1532815069,56.9304,-111.704,1220.7,840.7,88.1,0.6,0.6,22.43,41.7,1.9168,377.2394],
    [21242,1532815070,56.9304,-111.7029,1220.6,841.6,88.4,0.4,1.1,22.34,41.71,1.9147,377.9307],
    [21243,1532815071,56.9305,-111.7018,1219.6,840.6,89.0,1.1,1.5,22.06,42.19,1.9145,378.0355],
    [21244,1532815072,56.9305,-111.7007,1218.6,840.6,88.5,1.8,0.8,22.08,41.1,1.9146,379.0549],
    [21245,1532815073,56.9305,-111.6996,1216.8,838.8,89.8,1.8,2.0,22.26,40.26,1.9164,377.566],
    [21246,1532815074,56.9305,-111.6985,1215.4,838.4,89.3,2.1,1.0,21.73,40.2,1.9175,377.5838],
    [21247,1532815075,56.9305,-111.6974,1215.2,839.2,89.6,1.3,1.3,22.15,39.86,1.9165,378.9511],
    [21248,1532815076,56.9306,-111.6963,1215.2,839.2,92.5,1.0,3.9,22.19,39.77,1.9157,378.9511],
    [21249,1532815077,56.9306,-111.6952,1215.5,841.6,92.6,-0.2,3.7,22.15,39.72,1.9169,376.9316],
    [21250,1532815078,56.9306,-111.6941,1215.7,842.5,91.8,-0.7,2.8,22.2,39.61,1.9174,376.3764],
    [21251,1532815079,56.9306,-111.693,1215.9,842.8,90.7,-0.4,1.8,21.6,39.79,1.917,377.1521],
    [21252,1532815080,56.9306,-111.6919,1215.8,843.8,90.0,-0.3,1.6,22.48,39.16,1.9177,378.6122],
    [21253,1532815081,56.9306,-111.6908,1215.7,844.0,89.6,-0.5,1.5,22.3,39.28,1.9181,379.1721],
    [21254,1532815082,56.9306,-111.6897,1215.2,844.2,89.6,-0.3,1.9,22.12,40.13,1.9189,378.9864],
    [21255,1532815083,56.9306,-111.6886,1214.2,843.5,89.6,-0.3,1.9,21.98,39.53,1.9166,378.5666],
    [21256,1532815084,56.9307,-111.6875,1213.4,843.3,89.9,-0.3,2.5,22.26,39.51,1.9183,379.1501],
    [21257,1532815085,56.9307,-111.6864,1212.3,843.3,90.3,-0.4,3.0,21.63,39.75,1.9189,378.974],
    [21258,1532815086,56.9307,-111.6854,1210.9,843.0,90.4,-0.4,2.8,22.26,39.45,1.919,378.974],
    [21259,1532815087,56.9307,-111.6843,1209.4,841.7,91.0,0.1,2.6,21.7,39.58,1.9197,378.034],
    [21260,1532815088,56.9307,-111.6832,1207.6,840.6,91.3,0.2,2.3,21.91,40.06,1.9208,380.5214],
    [21261,1532815089,56.9307,-111.6821,1205.4,839.4,91.1,0.0,1.4,21.64,40.05,1.9206,379.7653],
    [21262,1532815090,56.9307,-111.681,1203.7,838.7,90.5,0.7,0.3,22.42,40.1,1.9214,378.0094],
    [21263,1532815091,56.9307,-111.6799,1202.1,838.1,90.6,0.5,-0.1,22.03,41.52,1.9218,378.0094],
    [21264,1532815092,56.9307,-111.6787,1200.9,837.9,90.4,0.4,-0.8,21.79,41.37,1.9195,378.2219],
    [21265,1532815093,56.9307,-111.6776,1199.6,837.6,90.6,1.2,-1.0,22.09,41.17,1.9175,377.9245],
    [21266,1532815094,56.9307,-111.6765,1198.4,837.6,93.7,0.8,2.4,21.8,40.55,1.9195,378.772],
    [21267,1532815095,56.9307,-111.6754,1196.5,836.8,95.3,1.7,3.1,21.93,40.52,1.9208,377.6412],
    [21268,1532815096,56.9307,-111.6742,1195.1,837.2,92.5,1.4,0.5,21.53,40.37,1.9196,377.6412],
    [21269,1532815097,56.9306,-111.6731,1194.0,836.9,94.8,1.3,3.6,22.04,40.14,1.9209,378.8412],
    [21270,1532815098,56.9306,-111.672,1193.4,836.4,95.2,0.8,3.5,22.55,39.56,1.9208,379.2809],
    [21271,1532815099,56.9306,-111.6708,1193.2,837.2,93.8,0.8,2.3,21.72,40.61,1.9175,378.4864],
    [21272,1532815100,56.9306,-111.6697,1193.1,837.1,94.0,1.6,2.4,22.32,40.04,1.9184,377.9774],
    [21273,1532815101,56.9305,-111.6685,1193.8,838.8,91.8,1.6,0.2,21.65,40.41,1.9207,377.6201],
    [21274,1532815102,56.9305,-111.6674,1195.3,840.3,92.0,1.3,0.8,22.17,40.36,1.9204,377.0095],
    [21275,1532815103,56.9305,-111.6663,1197.2,843.2,93.1,2.0,2.0,21.85,40.46,1.9193,376.5073],
    [21276,1532815104,56.9305,-111.6651,1199.2,845.2,92.4,1.9,1.6,22.0,40.69,1.9185,378.5252],
    [21277,1532815105,56.9305,-111.664,1201.6,847.6,92.5,1.8,2.4,22.12,40.85,1.9212,377.4656],
    [21278,1532815106,56.9305,-111.6629,1204.0,850.0,92.3,1.5,2.4,22.43,40.28,1.9207,377.4656],
    [21279,1532815107,56.9305,-111.6618,1207.2,854.2,92.0,1.4,2.3,22.19,40.91,1.9205,377.9997],
    [21280,1532815108,56.9305,-111.6607,1209.5,856.5,92.9,0.9,3.6,22.04,40.76,1.921,377.7764],
    [21281,1532815109,56.9305,-111.6595,1210.8,857.8,93.4,0.7,4.4,21.62,41.02,1.9202,377.8629],
    [21282,1532815110,56.9305,-111.6584,1211.8,859.8,92.4,0.3,3.6,22.07,40.97,1.9214,377.1835],
    [21283,1532815111,56.9305,-111.6573,1212.4,860.4,92.3,-0.4,4.0,21.88,40.9,1.9206,377.4254],
    [21284,1532815112,56.9305,-111.6562,1212.3,861.3,92.4,-0.2,4.2,21.53,40.95,1.9194,378.7369],
    [21285,1532815113,56.9305,-111.6551,1211.5,860.5,92.3,0.2,4.2,21.59,40.92,1.9185,378.348],
    [21286,1532815114,56.9305,-111.654,1209.8,858.8,92.4,0.5,4.2,21.89,40.73,1.9205,378.4434],
    [21287,1532815115,56.9306,-111.6529,1207.5,857.5,92.4,1.0,4.1,22.2,40.58,1.9164,379.0054],
    [21288,1532815116,56.9306,-111.6517,1204.3,854.3,92.3,2.4,3.8,22.21,40.39,1.9161,378.4552],
    [21289,1532815117,56.9306,-111.6506,1201.2,851.2,92.6,3.4,4.1,22.53,39.48,1.9169,379.0798],
    [21290,1532815118,56.9306,-111.6495,1198.6,848.6,92.4,4.0,3.6,22.49,39.2,1.9166,380.1076],
    [21291,1532815119,56.9306,-111.6484,1196.3,846.6,91.5,4.4,2.8,22.37,39.37,1.9178,378.3726],
    [21292,1532815120,56.9306,-111.6472,1194.9,845.9,92.2,4.6,3.8,22.23,39.19,1.9195,378.9995],
    [21293,1532815121,56.9306,-111.6461,1193.6,844.6,91.9,3.9,3.7,22.36,39.73,1.9213,378.6439],
    [21294,1532815122,56.9306,-111.6449,1192.8,844.6,91.8,3.9,3.4,22.5,39.18,1.9211,378.6439],
    [21295,1532815123,56.9306,-111.6438,1191.5,844.5,92.8,4.4,3.8,22.72,39.67,1.9206,378.5924],
    [21296,1532815124,56.9306,-111.6426,1190.6,844.6,93.2,5.0,3.3,22.11,41.03,1.9197,377.3661],
    [21297,1532815125,56.9306,-111.6415,1189.6,844.6,92.7,5.6,2.1,22.02,41.06,1.9207,377.7801],
    [21298,1532815126,56.9306,-111.6404,1188.6,844.6,92.0,5.3,1.2,21.98,41.12,1.9219,377.1922],
    [21299,1532815127,56.9306,-111.6392,1187.1,843.1,93.0,5.4,2.1,22.51,40.73,1.9212,377.1922],
    [21300,1532815128,56.9306,-111.6381,1185.3,841.3,93.5,5.7,2.2,22.21,41.36,1.9206,377.7291],
    [21301,1532815129,56.9306,-111.6369,1184.0,840.0,94.2,5.7,2.8,22.31,41.23,1.9203,376.9821],
    [21302,1532815130,56.9306,-111.6358,1182.6,839.6,95.1,5.7,3.6,22.09,41.2,1.9198,378.6137],
    [21303,1532815131,56.9306,-111.6346,1181.1,838.1,93.9,5.0,2.4,22.16,41.87,1.9202,378.2017],
    [21304,1532815132,56.9305,-111.6334,1180.2,837.5,93.2,4.5,2.1,22.25,41.94,1.9197,378.0355],
    [21305,1532815133,56.9305,-111.6323,1179.9,837.9,93.5,3.3,2.3,21.99,41.61,1.9181,378.3161],
    [21306,1532815134,56.9305,-111.6311,1179.1,838.1,93.2,2.6,1.4,22.49,41.06,1.919,377.7252],
    [21307,1532815135,56.9305,-111.63,1178.1,837.8,94.1,2.2,1.7,21.88,41.18,1.9195,377.0645],
    [21308,1532815136,56.9304,-111.6288,1177.7,837.7,95.6,2.4,2.6,21.96,40.99,1.9194,376.9748],
    [21309,1532815137,56.9304,-111.6277,1177.2,837.2,95.6,3.3,2.0,22.26,41.04,1.9198,377.5732],
    [21310,1532815138,56.9304,-111.6266,1177.1,837.1,95.4,3.3,1.8,22.21,41.44,1.9206,378.8548],
    [21311,1532815139,56.9303,-111.6254,1177.8,837.8,95.7,2.7,2.3,21.58,41.06,1.9196,378.6687],
    [21312,1532815140,56.9303,-111.6243,1178.0,839.0,95.5,3.5,2.2,22.37,40.9,1.9195,377.8028],
    [21313,1532815141,56.9303,-111.6231,1178.2,839.2,94.3,3.9,0.8,22.82,40.38,1.9204,378.456],
    [21314,1532815142,56.9302,-111.622,1179.8,841.9,94.5,2.8,0.8,22.08,41.3,1.9199,378.456],
    [21315,1532815143,56.9302,-111.6209,1181.2,843.2,95.3,3.2,0.9,21.73,40.94,1.9198,377.7311],
    [21316,1532815144,56.9301,-111.6197,1181.7,844.7,93.9,2.6,-0.4,22.13,41.64,1.9199,378.3413],
    [21317,1532815145,56.9301,-111.6186,1182.4,846.7,93.5,3.4,-0.7,21.56,40.69,1.9196,377.5933],
    [21318,1532815146,56.93,-111.6175,1183.2,848.2,93.5,3.8,-0.7,21.81,40.42,1.9186,378.906],
    [21319,1532815147,56.93,-111.6164,1184.0,849.7,93.9,4.9,-0.2,22.71,40.04,1.9181,377.7109],
    [21320,1532815148,56.93,-111.6152,1183.7,849.7,94.3,5.3,0.2,22.01,40.18,1.9167,378.4209],
    [21321,1532815149,56.9299,-111.6141,1182.3,848.7,94.7,5.8,0.8,21.64,39.83,1.9166,378.7548],
    [21322,1532815150,56.9299,-111.613,1180.7,847.7,95.2,5.9,1.5,22.31,38.81,1.9164,378.3817],
    [21323,1532815151,56.9298,-111.6119,1179.7,847.7,93.7,6.2,0.9,22.19,38.97,1.918,377.998],
    [21324,1532815152,56.9298,-111.6107,1179.2,847.2,92.4,6.2,0.8,22.37,38.58,1.9187,377.9801],
    [21325,1532815153,56.9298,-111.6096,1178.6,846.7,91.5,6.3,1.2,22.25,38.73,1.9184,378.9942],
    [21326,1532815154,56.9298,-111.6085,1178.6,845.5,92.0,5.7,2.5,22.03,38.23,1.9198,379.0307],
    [21327,1532815155,56.9298,-111.6074,1178.4,845.4,91.8,4.9,3.0,22.51,38.2,1.9211,378.6069],
    [21328,1532815156,56.9298,-111.6062,1177.9,843.8,91.8,4.2,4.0,22.67,38.44,1.9203,379.3606],
    [21329,1532815157,56.9299,-111.6051,1177.4,843.3,91.0,4.0,4.0,22.28,39.11,1.9205,379.3606],
    [21330,1532815158,56.9299,-111.604,1177.0,842.0,89.5,4.0,3.4,22.73,39.53,1.9197,378.5483],
    [21331,1532815159,56.9299,-111.6029,1176.8,841.8,88.9,4.1,3.5,22.98,39.58,1.9178,377.6006],
    [21332,1532815160,56.93,-111.6018,1176.1,841.1,88.6,3.0,3.4,22.28,40.63,1.92,377.0558],
    [21333,1532815161,56.93,-111.6007,1175.6,841.6,88.9,2.6,3.9,21.98,40.89,1.9197,377.7152],
    [21334,1532815162,56.9301,-111.5996,1175.6,842.6,89.6,2.7,4.0,22.76,40.49,1.9195,378.5931],
    [21335,1532815163,56.9301,-111.5985,1175.6,843.6,90.2,3.1,3.8,22.23,41.49,1.9197,378.2512],
    [21336,1532815164,56.9301,-111.5975,1175.5,844.3,91.1,2.7,3.9,22.75,41.1,1.9187,379.27],
    [21337,1532815165,56.9301,-111.5964,1174.7,845.7,91.5,2.4,3.7,22.65,40.86,1.9183,377.2455],
    [21338,1532815166,56.9302,-111.5953,1173.9,845.9,91.0,2.4,2.6,22.46,42.03,1.9188,377.8621],
    [21339,1532815167,56.9302,-111.5942,1173.1,848.1,90.6,1.3,2.3,22.1,41.76,1.919,378.0033],
    [21340,1532815168,56.9302,-111.5931,1171.6,845.8,91.2,0.2,2.8,22.72,41.62,1.9187,377.6007],
    [21341,1532815169,56.9302,-111.592,1170.7,841.6,90.6,0.3,1.9,22.49,41.68,1.918,378.2868],
    [21342,1532815170,56.9302,-111.5909,1170.2,840.2,90.6,0.3,2.0,22.67,41.55,1.9173,377.3174],
    [21343,1532815171,56.9302,-111.5898,1170.0,840.7,91.3,1.6,2.4,22.4,41.66,1.9177,377.3174],
    [21344,1532815172,56.9302,-111.5887,1168.5,839.5,90.9,1.7,1.7,21.79,41.94,1.9183,376.8039],
    [21345,1532815173,56.9302,-111.5876,1166.3,837.3,90.1,2.2,0.4,22.01,41.51,1.9195,376.3486],
    [21346,1532815174,56.9302,-111.5865,1164.3,836.3,89.4,2.4,-0.2,22.31,41.29,1.9188,377.7068],
    [21347,1532815175,56.9302,-111.5854,1163.1,835.1,91.1,3.0,1.2,22.31,41.47,1.9186,377.7077],
    [21348,1532815176,56.9302,-111.5843,1162.8,834.9,91.6,2.9,1.2,22.23,41.31,1.9197,377.8057],
    [21349,1532815177,56.9302,-111.5832,1162.6,835.6,92.5,3.3,1.8,22.32,42.07,1.919,377.3021],
    [21350,1532815178,56.9302,-111.5821,1162.4,835.4,93.4,3.3,2.5,22.58,41.31,1.918,377.497],
    [21351,1532815179,56.9302,-111.581,1162.2,836.2,93.4,3.3,3.1,22.03,41.52,1.9177,378.7093],
    [21352,1532815180,56.9302,-111.5799,1162.1,836.1,92.6,2.9,4.0,22.74,41.33,1.9178,378.3441],
    [21353,1532815181,56.9302,-111.5788,1160.8,834.8,89.0,3.3,2.5,22.18,41.57,1.9197,377.8545],
    [21354,1532815182,56.9303,-111.5777,1159.5,834.5,82.6,3.4,0.4,22.27,42.0,1.9188,377.5182],
    [21355,1532815183,56.9304,-111.5766,1158.2,833.2,79.1,3.5,1.2,21.93,41.88,1.9174,378.3021],
    [21356,1532815184,56.9305,-111.5755,1157.0,833.0,74.7,3.6,1.2,21.94,41.22,1.918,378.4173],
    [21357,1532815185,56.9307,-111.5744,1156.6,833.6,69.7,3.2,0.8,22.64,40.83,1.9185,377.4357],
    [21358,1532815186,56.9309,-111.5734,1157.3,834.5,66.8,2.3,2.5,22.35,41.63,1.9167,379.233],
    [21359,1532815187,56.9312,-111.5724,1158.4,836.4,63.7,2.4,2.7,22.34,41.68,1.9151,378.4503],
    [21360,1532815188,56.9315,-111.5715,1159.5,837.5,60.0,2.2,2.5,22.32,41.62,1.9166,378.2052],
    [21361,1532815189,56.9318,-111.5706,1160.4,838.4,56.9,1.5,2.2,23.0,39.92,1.918,378.1197],
    [21362,1532815190,56.9321,-111.5697,1160.4,837.4,53.3,1.1,1.2,22.55,40.28,1.9194,377.8156],
    [21363,1532815191,56.9325,-111.5689,1159.6,836.6,49.6,1.3,0.4,23.01,39.53,1.9183,379.0902],
    [21364,1532815192,56.9329,-111.568,1158.5,835.5,46.6,0.0,-0.6,22.31,39.8,1.9183,379.092],
    [21365,1532815193,56.9333,-111.5673,1157.2,834.2,43.8,-0.2,-0.6,22.66,39.78,1.9169,378.8408],
    [21366,1532815194,56.9337,-111.5666,1155.9,832.8,39.9,0.7,-0.9,21.92,40.05,1.9176,379.1919],
    [21367,1532815195,56.9342,-111.5659,1155.3,833.3,36.6,0.6,-1.3,23.23,38.77,1.9194,378.8003],
    [21368,1532815196,56.9347,-111.5653,1155.5,833.5,34.8,-1.0,-1.7,23.01,38.82,1.9197,378.2249],
    [21369,1532815197,56.9351,-111.5647,1156.2,835.2,33.2,-1.7,-1.1,23.15,38.74,1.918,377.6714],
    [21370,1532815198,56.9356,-111.5641,1157.3,837.3,30.0,-0.7,-1.3,22.39,39.32,1.9177,378.6344],
    [21371,1532815199,56.9362,-111.5636,1157.9,838.9,27.8,-1.7,-2.2,22.12,40.01,1.918,378.3038],
    [21372,1532815200,56.9367,-111.5631,1158.0,840.0,26.2,-1.7,-1.7,22.27,39.49,1.92,379.3622],
    [21373,1532815201,56.9372,-111.5627,1157.7,840.0,23.4,-0.2,-2.1,22.27,39.22,1.9179,378.3917],
    [21374,1532815202,56.9377,-111.5623,1156.8,839.7,22.3,-0.6,-2.0,22.4,39.09,1.917,377.845],
    [21375,1532815203,56.9383,-111.5619,1156.6,840.6,21.8,-1.5,-1.3,22.42,39.28,1.9163,378.0252],
    [21376,1532815204,56.9388,-111.5615,1157.1,841.8,20.3,-1.1,-0.1,22.78,38.28,1.9166,379.0956],
    [21377,1532815205,56.9394,-111.5612,1156.8,841.8,18.9,-0.9,0.5,21.72,38.73,1.9164,378.4403],
    [21378,1532815206,56.94,-111.5609,1156.2,841.2,16.3,-0.3,1.0,22.18,38.51,1.9194,377.7947],
    [21379,1532815207,56.9405,-111.5606,1155.9,840.9,13.7,-0.1,1.3,22.4,38.44,1.9184,378.5963],
    [21380,1532815208,56.9411,-111.5604,1155.7,840.7,10.7,0.5,1.5,22.47,38.89,1.9182,377.5505],
    [21381,1532815209,56.9417,-111.5602,1155.4,840.4,7.8,0.8,1.2,22.11,38.84,1.9192,376.9551],
    [21382,1532815210,56.9423,-111.56,1155.0,840.0,5.2,1.8,2.1,22.57,38.88,1.9186,376.1139],
    [21383,1532815211,56.9429,-111.5599,1154.6,839.6,3.8,1.8,2.5,22.49,39.49,1.9189,377.7508],
    [21384,1532815212,56.9435,-111.5598,1154.5,839.5,3.1,1.7,2.1,22.01,39.76,1.9179,377.7641],
    [21385,1532815213,56.9441,-111.5598,1154.6,839.6,2.8,1.4,1.2,21.82,39.89,1.9181,378.0638],
    [21386,1532815214,56.9447,-111.5597,1154.8,839.8,362.4,1.4,0.5,22.64,39.89,1.9177,377.7862],
    [21387,1532815215,56.9453,-111.5596,1154.8,839.1,362.2,1.3,-0.6,23.21,39.17,1.9195,379.5864],
    [21388,1532815216,56.9459,-111.5596,1154.9,838.9,361.6,1.8,1.2,22.2,40.31,1.9179,377.9882],
    [21389,1532815217,56.9465,-111.5595,1153.9,837.9,361.7,1.2,1.0,21.8,40.02,1.9187,377.5797],
    [21390,1532815218,56.947,-111.5595,1152.3,836.3,361.5,1.0,2.0,22.47,40.16,1.9192,378.1745],
    [21391,1532815219,56.9476,-111.5594,1149.9,833.0,359.8,2.0,3.6,22.38,39.8,1.9192,377.6654],
    [21392,1532815220,56.9482,-111.5594,1147.0,830.0,358.6,2.1,2.6,22.84,39.42,1.9175,377.5373],
    [21393,1532815221,56.9489,-111.5594,1144.4,826.4,356.7,3.0,3.2,22.24,39.81,1.9187,378.0501],
    [21394,1532815222,56.9495,-111.5594,1142.5,823.5,354.2,4.2,4.4,23.3,39.44,1.9192,377.9084],
    [21395,1532815223,56.9501,-111.5595,1141.3,822.3,354.1,3.5,5.0,22.55,40.11,1.9177,379.0856],
    [21396,1532815224,56.9507,-111.5595,1140.3,820.3,354.1,3.3,4.0,22.66,39.91,1.9162,377.7738],
    [21397,1532815225,56.9513,-111.5596,1139.2,819.2,353.6,3.7,6.8,22.5,40.59,1.9161,376.8107],
    [21398,1532815226,56.9519,-111.5596,1138.0,818.1,354.7,3.0,7.5,22.21,40.17,1.9163,376.8359],
    [21399,1532815227,56.9525,-111.5597,1136.3,815.3,356.3,2.8,7.5,22.61,40.24,1.9168,378.1221],
    [21400,1532815228,56.9531,-111.5597,1134.6,813.6,357.6,2.4,8.3,22.49,40.22,1.9189,377.2709],
    [21401,1532815229,56.9537,-111.5597,1132.1,811.1,359.5,1.5,8.6,23.24,40.04,1.9166,376.9334],
    [21402,1532815230,56.9543,-111.5596,1129.5,808.5,358.9,2.7,8.6,22.81,39.97,1.9166,377.7893],
    [21403,1532815231,56.9549,-111.5596,1127.8,806.8,358.9,2.7,8.8,22.55,40.95,1.917,376.866],
    [21404,1532815232,56.9555,-111.5596,1127.3,807.3,358.9,2.8,8.6,22.5,40.97,1.9174,376.5963],
    [21405,1532815233,56.9562,-111.5596,1126.9,806.9,358.4,3.0,8.4,23.22,40.1,1.9165,376.5622],
    [21406,1532815234,56.9568,-111.5595,1127.1,808.0,358.4,2.5,7.3,22.52,41.21,1.9173,378.2085],
    [21407,1532815235,56.9574,-111.5595,1126.8,809.1,358.9,1.7,7.6,22.31,40.82,1.917,376.9931],
    [21408,1532815236,56.958,-111.5595,1126.0,809.0,358.2,2.3,7.6,22.43,41.21,1.9161,377.214],
    [21409,1532815237,56.9586,-111.5595,1125.4,808.4,357.6,2.2,8.1,22.67,40.58,1.9159,377.9085],
    [21410,1532815238,56.9592,-111.5595,1124.6,806.9,357.4,2.4,7.5,22.29,40.79,1.9169,377.7212],
    [21411,1532815239,56.9598,-111.5595,1123.6,805.3,355.6,3.6,6.2,22.23,40.85,1.916,377.8336],
    [21412,1532815240,56.9604,-111.5596,1122.9,803.9,355.3,3.3,6.4,22.94,40.9,1.9133,378.277],
    [21413,1532815241,56.9611,-111.5596,1122.6,804.6,356.2,2.7,5.5,21.77,41.01,1.9135,377.6827],
    [21414,1532815242,56.9617,-111.5596,1122.6,804.6,356.9,2.3,5.9,21.98,41.07,1.913,377.3817],
    [21415,1532815243,56.9623,-111.5596,1123.3,805.3,356.1,3.2,6.0,22.96,40.07,1.9155,377.4007],
    [21416,1532815244,56.9629,-111.5597,1123.5,805.5,356.6,2.6,6.3,22.96,39.78,1.916,377.9011],
    [21417,1532815245,56.9635,-111.5597,1123.2,805.2,356.3,3.1,6.6,22.49,40.73,1.9168,378.0608],
    [21418,1532815246,56.9641,-111.5597,1123.4,806.4,355.1,4.6,6.9,22.98,39.78,1.9173,378.511],
    [21419,1532815247,56.9647,-111.5597,1123.1,807.1,355.9,4.0,6.7,23.08,39.4,1.918,378.5089],
    [21420,1532815248,56.9653,-111.5597,1122.2,807.2,356.6,4.0,6.5,22.29,40.37,1.917,378.3894],
    [21421,1532815249,56.9659,-111.5597,1121.3,806.3,355.5,5.3,7.0,22.41,40.97,1.9163,378.4045],
    [21422,1532815250,56.9665,-111.5597,1120.3,806.4,356.3,4.6,7.1,22.17,40.18,1.916,378.1992],
    [21423,1532815251,56.9671,-111.5597,1119.3,806.3,356.3,4.9,7.0,22.02,40.08,1.9167,377.4216],
    [21424,1532815252,56.9677,-111.5596,1118.0,805.0,356.6,4.2,6.3,22.53,39.83,1.9152,377.6518],
    [21425,1532815253,56.9683,-111.5596,1116.6,803.6,357.9,2.7,6.0,23.0,38.92,1.9132,378.5706],
    [21426,1532815254,56.9689,-111.5596,1115.1,800.8,358.0,2.7,5.5,22.42,40.37,1.9105,378.6539],
    [21427,1532815255,56.9695,-111.5596,1113.4,797.4,357.6,2.7,4.7,22.43,39.87,1.9127,378.9334],
    [21428,1532815256,56.9702,-111.5596,1112.5,794.8,358.1,2.0,4.7,22.18,38.58,1.9124,379.5906],
    [21429,1532815257,56.9708,-111.5596,1112.4,792.1,358.6,1.4,4.4,22.12,37.94,1.9142,377.5929],
    [21430,1532815258,56.9714,-111.5596,1113.1,791.1,358.3,1.7,3.8,22.39,37.57,1.9159,377.5929],
    [21431,1532815259,56.972,-111.5596,1115.9,792.9,357.4,2.6,3.1,22.41,37.12,1.9138,380.9078],
    [21432,1532815260,56.9725,-111.5596,1119.8,795.8,356.8,3.0,2.7,22.2,36.97,1.9138,380.9078],
    [21433,1532815261,56.9731,-111.5596,1123.9,799.9,357.6,1.5,2.6,21.95,36.85,1.9154,378.8643],
    [21434,1532815262,56.9737,-111.5597,1127.0,803.0,358.9,0.1,2.1,22.43,36.76,1.9154,378.8643],
    [21435,1532815263,56.9743,-111.5597,1128.9,804.9,358.4,0.6,2.2,22.11,36.79,1.9145,378.9559],
    [21436,1532815264,56.9749,-111.5597,1131.8,807.8,357.2,1.7,1.8,22.19,37.1,1.9165,378.5534],
    [21437,1532815265,56.9754,-111.5597,1135.5,811.5,357.3,1.5,1.5,22.39,37.04,1.9147,378.4802],
    [21438,1532815266,56.976,-111.5598,1139.2,815.2,355.9,2.9,1.3,22.28,36.8,1.9146,378.1756],
    [21439,1532815267,56.9765,-111.5598,1142.7,818.7,354.6,3.9,1.3,22.39,36.83,1.9152,380.2738],
    [21440,1532815268,56.9771,-111.5598,1144.4,820.4,356.7,1.9,0.7,22.59,36.67,1.9157,379.4655],
    [21441,1532815269,56.9777,-111.5598,1144.8,820.8,356.7,2.2,0.2,22.89,36.14,1.9153,378.4544],
    [21442,1532815270,56.9783,-111.5599,1144.6,821.5,355.6,3.3,0.5,22.37,36.77,1.9168,379.5697],
    [21443,1532815271,56.9788,-111.5599,1143.9,821.9,356.4,2.7,0.4,22.46,36.7,1.9132,380.1356],
    [21444,1532815272,56.9794,-111.5599,1143.1,822.8,357.1,2.6,0.4,22.33,37.22,1.9133,380.1356],
    [21445,1532815273,56.98,-111.5599,1143.3,825.3,358.1,1.7,0.8,22.28,37.29,1.9165,380.0582],
    [21446,1532815274,56.9805,-111.5599,1143.8,828.8,359.4,0.8,0.3,21.8,36.52,1.9176,379.1542],
    [21447,1532815275,56.9811,-111.5599,1143.6,831.2,357.8,2.9,-0.1,22.99,35.86,1.9179,378.87],
    [21448,1532815276,56.9817,-111.5599,1143.7,834.7,356.7,3.7,0.0,22.55,36.61,1.9162,379.7365],
    [21449,1532815277,56.9822,-111.5599,1143.5,834.5,357.7,2.5,-0.4,22.54,36.9,1.9156,380.7644],
    [21450,1532815278,56.9828,-111.5599,1143.1,834.1,357.0,3.2,-0.8,22.26,37.54,1.9141,379.1364],
    [21451,1532815279,56.9834,-111.5599,1142.9,833.9,356.6,3.6,-1.3,22.3,37.43,1.9128,380.5763],
    [21452,1532815280,56.984,-111.5599,1142.7,833.7,357.8,2.6,-1.4,22.41,37.59,1.9126,380.8795],
    [21453,1532815281,56.9845,-111.5599,1142.9,833.9,357.2,3.3,-1.9,22.97,36.57,1.9163,379.5327],
    [21454,1532815282,56.9851,-111.5599,1143.3,834.3,357.0,3.4,-2.3,22.41,36.37,1.9148,379.4614],
    [21455,1532815283,56.9857,-111.5599,1144.1,835.1,356.6,3.4,-2.2,21.99,37.15,1.9156,381.0262],
    [21456,1532815284,56.9862,-111.5599,1145.2,834.5,355.6,3.7,-2.6,22.23,36.7,1.9168,379.9274],
    [21457,1532815285,56.9868,-111.5599,1146.4,833.7,356.4,2.6,-3.3,22.61,36.4,1.9169,380.4873],
    [21458,1532815286,56.9874,-111.56,1147.1,832.3,356.3,2.6,-3.2,22.52,36.56,1.9152,378.8867],
    [21459,1532815287,56.9879,-111.56,1147.7,831.7,355.5,3.2,-3.4,22.77,36.45,1.9142,378.8867],
    [21460,1532815288,56.9885,-111.56,1148.0,830.3,355.1,3.6,-3.5,23.1,36.33,1.9151,378.3059],
    [21461,1532815289,56.9891,-111.5601,1148.3,829.3,354.7,3.7,-3.0,22.37,37.33,1.9156,378.8941],
    [21462,1532815290,56.9896,-111.5601,1148.4,829.4,354.6,3.8,-3.2,22.47,36.65,1.919,380.2706],
    [21463,1532815291,56.9902,-111.5602,1148.0,829.0,354.2,4.4,-2.7,23.03,35.92,1.9187,378.5383],
    [21464,1532815292,56.9908,-111.5602,1147.5,828.5,353.8,4.9,-2.7,22.58,36.69,1.9176,380.1953],
    [21465,1532815293,56.9913,-111.5602,1146.5,827.5,354.8,4.4,-2.6,22.48,37.7,1.9179,379.6667],
    [21466,1532815294,56.9919,-111.5602,1145.2,826.2,355.7,4.0,-2.7,22.72,37.02,1.9182,378.79],
    [21467,1532815295,56.9925,-111.5603,1144.0,824.0,356.4,3.8,-2.2,22.43,37.88,1.9201,378.8667],
    [21468,1532815296,56.9931,-111.5603,1143.1,823.1,356.9,3.8,-1.6,22.12,37.91,1.9183,378.7522],
    [21469,1532815297,56.9937,-111.5603,1142.2,821.9,357.0,4.1,-1.4,22.21,38.64,1.9171,379.2101],
    [21470,1532815298,56.9942,-111.5602,1141.7,820.7,356.8,4.6,-1.2,22.67,37.21,1.9148,377.6837],
    [21471,1532815299,56.9948,-111.5602,1141.6,820.5,356.9,4.8,-1.3,22.39,38.05,1.9138,380.1461],
    [21472,1532815300,56.9954,-111.5602,1142.9,820.9,356.9,4.8,-1.0,22.11,37.44,1.9145,379.601],
    [21473,1532815301,56.996,-111.5602,1145.1,822.2,357.5,4.3,-0.3,21.58,37.38,1.9165,378.0946],
    [21474,1532815302,56.9966,-111.5602,1147.7,824.8,357.7,4.0,0.0,21.97,37.26,1.9188,378.8545],
    [21475,1532815303,56.9972,-111.5601,1150.2,827.3,357.4,4.4,-0.4,22.73,37.05,1.9187,378.0264],
    [21476,1532815304,56.9977,-111.5601,1153.0,829.9,357.1,4.5,-0.7,22.46,38.09,1.915,379.2766],
    [21477,1532815305,56.9983,-111.5601,1155.8,832.7,357.0,4.5,-0.9,22.08,38.65,1.9139,379.1934],
    [21478,1532815306,56.9989,-111.5601,1158.9,835.7,357.0,4.4,-1.1,22.51,39.39,1.9127,378.9675],
    [21479,1532815307,56.9995,-111.5601,1161.6,838.5,357.2,4.4,-2.1,22.46,38.35,1.9127,379.328],
    [21480,1532815308,57.0,-111.56,1163.5,840.7,357.2,4.6,-2.4,22.03,38.06,1.9161,380.3195],
    [21481,1532815309,57.0006,-111.56,1164.9,842.1,357.5,4.4,-2.7,22.01,37.55,1.9164,380.1944],
    [21482,1532815310,57.0012,-111.56,1165.4,842.4,358.0,4.0,-2.7,23.06,36.72,1.916,379.9235],
    [21483,1532815311,57.0018,-111.56,1165.3,842.3,357.6,4.4,-2.8,22.53,36.64,1.9156,379.332],
    [21484,1532815312,57.0023,-111.5599,1164.9,841.9,357.5,4.5,-2.9,21.83,37.46,1.9154,379.1371],
    [21485,1532815313,57.0029,-111.5599,1164.6,841.6,357.2,4.9,-2.6,22.69,36.79,1.9163,380.1061],
    [21486,1532815314,57.0035,-111.5599,1164.6,841.7,357.8,4.3,-2.4,22.37,37.66,1.9155,379.9383],
    [21487,1532815315,57.0041,-111.5599,1164.4,841.6,358.2,3.8,-2.2,22.9,36.74,1.9149,379.9423],
    [21488,1532815316,57.0047,-111.5598,1164.0,842.1,358.0,3.6,-2.1,22.38,36.67,1.914,380.1756],
    [21489,1532815317,57.0053,-111.5598,1163.6,841.6,357.4,4.0,-2.0,22.64,36.49,1.9134,380.638],
    [21490,1532815318,57.0059,-111.5598,1163.3,842.2,355.7,5.3,-2.0,22.38,36.99,1.9144,380.3271],
    [21491,1532815319,57.0065,-111.5598,1162.9,841.8,355.3,5.1,-2.1,22.34,36.78,1.9146,380.1537],
    [21492,1532815320,57.0071,-111.5598,1162.4,841.4,355.8,4.5,-2.3,22.88,36.17,1.914,380.0459],
    [21493,1532815321,57.0077,-111.5598,1162.0,841.0,355.4,5.1,-2.2,22.47,36.28,1.9163,380.9356],
    [21494,1532815322,57.0083,-111.5598,1161.4,840.4,355.5,5.3,-2.2,22.78,35.88,1.9156,380.9356],
    [21495,1532815323,57.0089,-111.5599,1160.6,839.6,356.1,4.9,-2.1,22.37,36.56,1.9156,379.4578],
    [21496,1532815324,57.0095,-111.5598,1159.6,838.6,357.0,4.3,-2.0,22.7,35.64,1.9146,379.5611],
    [21497,1532815325,57.0101,-111.5598,1158.4,837.6,357.9,3.7,-1.8,22.59,36.45,1.9145,378.8871],
    [21498,1532815326,57.0108,-111.5598,1157.6,837.6,358.1,4.1,-1.4,21.88,36.02,1.9156,378.8871],
    [21499,1532815327,57.0114,-111.5598,1157.5,837.5,358.0,4.5,-1.2,22.34,36.57,1.9132,380.6245],
    [21500,1532815328,57.012,-111.5597,1158.0,838.0,358.2,4.0,-1.4,22.48,35.59,1.9142,379.5177],
    [21501,1532815329,57.0126,-111.5597,1158.8,837.8,357.6,4.3,-1.6,22.91,34.81,1.9155,379.8363],
    [21502,1532815330,57.0132,-111.5597,1159.6,838.6,357.0,4.3,-1.6,21.67,35.63,1.9165,379.8706],
    [21503,1532815331,57.0138,-111.5597,1160.1,840.1,356.9,3.8,-1.7,22.12,35.58,1.9158,380.3834],
    [21504,1532815332,57.0145,-111.5597,1160.2,840.2,356.5,3.9,-2.1,22.2,35.7,1.916,379.3945],
    [21505,1532815333,57.0151,-111.5597,1160.2,840.1,355.9,4.1,-1.9,22.43,36.19,1.9161,379.7821],
    [21506,1532815334,57.0157,-111.5597,1160.4,841.4,355.4,4.3,-1.7,23.11,34.87,1.9165,380.5192],
    [21507,1532815335,57.0163,-111.5598,1160.9,841.9,355.5,3.9,-1.5,23.2,34.85,1.9171,380.4555],
    [21508,1532815336,57.0169,-111.5598,1161.7,842.7,355.5,3.7,-1.4,22.44,35.77,1.9165,380.2873],
    [21509,1532815337,57.0176,-111.5598,1162.9,843.9,355.5,3.7,-1.4,21.97,35.63,1.916,379.6082],
    [21510,1532815338,57.0182,-111.5598,1164.1,845.4,355.8,3.5,-1.5,22.01,35.64,1.9175,380.3314],
    [21511,1532815339,57.0188,-111.5599,1165.3,847.3,356.5,3.2,-1.4,22.99,35.32,1.9165,380.9234],
    [21512,1532815340,57.0194,-111.5599,1166.6,848.6,356.5,3.6,-1.4,22.22,35.88,1.9173,380.198],
    [21513,1532815341,57.02,-111.5599,1167.8,849.8,357.1,3.3,-1.7,22.45,35.98,1.9165,379.7437],
    [21514,1532815342,57.0206,-111.5599,1168.9,851.2,357.4,3.2,-1.6,22.46,36.98,1.9161,380.2648],
    [21515,1532815343,57.0212,-111.5599,1169.8,852.8,358.0,2.4,-1.5,21.91,36.46,1.9162,378.4017],
    [21516,1532815344,57.0219,-111.5599,1170.1,853.1,358.2,2.4,-1.8,22.3,36.38,1.9167,378.6894],
    [21517,1532815345,57.0225,-111.5599,1170.3,853.3,357.4,3.4,-1.4,22.75,36.36,1.9162,380.7704],
    [21518,1532815346,57.0231,-111.5599,1170.4,853.6,357.5,3.5,-1.4,22.7,36.43,1.9164,380.8805],
    [21519,1532815347,57.0237,-111.5599,1170.0,854.0,357.2,3.7,-1.5,22.83,36.4,1.9184,379.7426],
    [21520,1532815348,57.0243,-111.5599,1168.5,852.5,357.3,3.4,-1.3,22.39,37.16,1.9193,380.0256],
    [21521,1532815349,57.0249,-111.5599,1166.5,850.5,357.1,3.4,-1.0,22.24,36.72,1.9179,380.7223],
    [21522,1532815350,57.0256,-111.5599,1164.7,849.5,356.7,3.6,-1.1,22.58,36.74,1.9166,380.6951],
    [21523,1532815351,57.0262,-111.5599,1163.1,848.1,356.6,3.3,-1.1,22.34,37.08,1.9173,382.7271],
    [21524,1532815352,57.0268,-111.5599,1161.6,846.6,356.6,3.1,-0.4,23.13,36.64,1.9193,382.7504],
    [21525,1532815353,57.0274,-111.5599,1160.6,844.6,356.3,3.3,-0.1,22.48,37.69,1.9174,383.397],
    [21526,1532815354,57.0281,-111.5599,1160.1,844.1,355.9,3.7,0.1,22.31,37.43,1.9176,387.2576],
    [21527,1532815355,57.0287,-111.56,1159.3,842.3,355.9,3.6,0.9,22.64,37.03,1.9163,382.0878],
    [21528,1532815356,57.0293,-111.56,1158.3,841.3,355.8,3.7,1.9,22.62,37.61,1.9188,385.5207],
    [21529,1532815357,57.0299,-111.56,1156.8,840.8,355.9,3.6,2.0,22.36,36.87,1.9196,385.5747],
    [21530,1532815358,57.0306,-111.56,1154.1,839.1,356.0,3.6,2.2,22.19,36.81,1.9194,384.507],
    [21531,1532815359,57.0312,-111.5601,1150.9,835.9,356.1,3.4,2.6,22.66,36.67,1.9183,384.507],
    [21532,1532815360,57.0319,-111.5601,1148.3,833.3,356.1,3.4,3.2,22.4,36.88,1.9184,386.077],
    [21533,1532815361,57.0325,-111.5601,1146.1,831.1,356.3,3.2,4.0,22.43,37.6,1.9166,387.215],
    [21534,1532815362,57.0331,-111.5601,1143.9,827.9,356.3,3.4,3.8,22.11,36.94,1.9167,387.215],
    [21535,1532815363,57.0338,-111.5601,1141.9,825.9,356.3,3.5,4.0,22.39,37.29,1.9171,387.3079],
    [21536,1532815364,57.0344,-111.5601,1140.1,824.1,356.8,3.2,3.8,22.48,36.91,1.9187,385.4349],
    [21537,1532815365,57.0351,-111.5601,1138.7,823.7,357.1,3.2,3.8,23.4,36.3,1.9186,385.4828],
    [21538,1532815366,57.0357,-111.5601,1138.0,824.0,357.4,3.2,3.8,22.48,37.07,1.9184,400.9334],
    [21539,1532815367,57.0364,-111.5601,1137.9,824.9,357.7,3.0,3.2,22.1,36.8,1.9228,398.8723],
    [21540,1532815368,57.037,-111.5601,1138.0,826.0,357.7,3.3,2.8,22.51,37.05,1.9203,397.9606],
    [21541,1532815369,57.0377,-111.5601,1137.5,825.5,357.8,3.2,3.1,22.47,36.6,1.9181,395.1685],
    [21542,1532815370,57.0383,-111.5601,1136.6,825.6,358.0,3.3,2.4,22.42,36.95,1.9185,391.2605],
    [21543,1532815371,57.039,-111.5601,1135.5,824.5,358.0,3.4,2.7,22.53,37.25,1.9218,392.1048],
    [21544,1532815372,57.0396,-111.5601,1134.4,823.4,358.3,3.2,2.4,22.6,37.38,1.9245,396.7454],
    [21545,1532815373,57.0403,-111.5601,1133.1,824.1,358.4,3.1,2.6,22.33,36.77,1.9272,399.8347],
    [21546,1532815374,57.0409,-111.5601,1132.3,825.9,358.5,2.9,2.2,22.9,36.48,1.9288,399.309],
    [21547,1532815375,57.0416,-111.56,1132.2,829.2,358.5,2.9,2.0,23.19,36.54,1.9283,399.309],
    [21548,1532815376,57.0422,-111.56,1132.5,829.5,358.0,3.4,2.1,22.76,36.84,1.9347,398.9638],
    [21549,1532815377,57.0429,-111.56,1132.7,829.7,358.3,3.1,1.0,22.19,37.27,1.9248,383.3596],
    [21550,1532815378,57.0435,-111.56,1132.9,829.9,357.9,3.4,1.3,22.81,36.7,1.9238,384.1227],
    [21551,1532815379,57.0442,-111.56,1133.0,826.7,357.8,3.2,1.7,22.17,37.17,1.9238,384.1227],
    [21552,1532815380,57.0448,-111.56,1132.8,823.4,357.6,3.2,2.3,22.67,37.22,1.9378,398.433],
    [21553,1532815381,57.0455,-111.56,1132.8,821.8,357.0,3.5,2.4,22.99,36.9,1.9434,399.9232],
    [21554,1532815382,57.0461,-111.56,1132.9,820.9,357.2,3.1,2.6,22.78,37.32,1.9417,398.0119],
    [21555,1532815383,57.0467,-111.56,1133.1,820.1,357.2,3.0,2.6,22.4,37.33,1.9312,395.6064],
    [21556,1532815384,57.0474,-111.56,1133.4,820.4,357.2,3.0,2.6,22.78,37.43,1.9322,400.0869],
    [21557,1532815385,57.048,-111.56,1133.6,820.6,357.0,3.3,2.6,23.03,37.24,1.9319,396.8247],
    [21558,1532815386,57.0487,-111.56,1133.9,820.9,356.9,3.3,2.6,22.23,37.77,1.9261,394.8038],
    [21559,1532815387,57.0493,-111.56,1134.2,821.2,357.0,3.1,3.0,22.58,37.82,1.9242,392.7099],
    [21560,1532815388,57.0499,-111.56,1134.1,820.9,356.5,3.4,2.4,22.45,38.32,1.9219,388.253],
    [21561,1532815389,57.0506,-111.56,1133.7,819.7,356.4,3.3,2.7,22.52,37.61,1.9217,384.6777],
    [21562,1532815390,57.0512,-111.56,1133.2,819.2,356.0,3.7,1.8,22.8,37.8,1.9216,384.0357],
    [21563,1532815391,57.0519,-111.5601,1132.8,818.8,355.7,4.0,0.8,22.68,39.04,1.9222,381.9452],
    [21564,1532815392,57.0525,-111.5601,1132.2,818.2,355.4,4.0,1.3,22.38,38.49,1.923,382.2156],
    [21565,1532815393,57.0531,-111.5601,1131.8,817.8,355.1,4.2,2.5,22.38,39.46,1.9235,381.6707],
    [21566,1532815394,57.0538,-111.5601,1132.1,818.1,354.8,4.7,2.5,23.02,38.29,1.9198,381.8164],
    [21567,1532815395,57.0544,-111.5602,1133.9,819.9,354.6,4.9,1.4,22.69,39.06,1.9202,379.5635],
    [21568,1532815396,57.055,-111.5602,1135.9,821.9,354.8,5.0,1.1,23.05,37.67,1.9204,380.4812],
    [21569,1532815397,57.0557,-111.5602,1137.4,823.4,354.6,5.5,1.2,22.99,37.96,1.9201,379.8051],
    [21570,1532815398,57.0563,-111.5602,1138.4,824.4,355.2,5.2,0.9,22.2,38.29,1.9203,379.5596],
    [21571,1532815399,57.0569,-111.5602,1138.4,824.4,355.6,4.9,0.8,22.19,38.47,1.9207,380.4106],
    [21572,1532815400,57.0575,-111.5602,1138.1,824.1,356.1,4.4,1.2,22.78,38.62,1.9206,379.9071],
    [21573,1532815401,57.0582,-111.5602,1138.0,825.0,356.6,3.8,1.0,22.53,40.26,1.9201,380.1943],
    [21574,1532815402,57.0588,-111.5602,1137.8,824.9,355.9,4.6,1.6,22.61,39.89,1.9199,380.0779],
    [21575,1532815403,57.0594,-111.5603,1137.9,823.9,356.8,3.6,0.9,22.38,39.8,1.9186,379.2367],
    [21576,1532815404,57.0601,-111.5603,1137.6,822.9,357.6,3.1,0.8,22.78,39.93,1.9187,379.4964],
    [21577,1532815405,57.0607,-111.5602,1136.9,822.2,357.1,4.0,0.2,22.85,40.01,1.9189,380.5223],
    [21578,1532815406,57.0613,-111.5602,1135.2,821.2,357.1,3.9,0.2,22.42,40.22,1.9168,379.5857],
    [21579,1532815407,57.062,-111.5602,1133.6,820.6,357.0,4.0,-0.3,22.7,40.67,1.9211,378.5819],
    [21580,1532815408,57.0626,-111.5602,1131.7,818.9,356.6,4.3,0.2,23.04,40.05,1.9248,377.5825],
    [21581,1532815409,57.0633,-111.5602,1130.1,818.1,356.9,3.3,0.2,22.56,39.67,1.9337,379.9471],
    [21582,1532815410,57.0639,-111.5602,1128.6,816.6,357.4,2.6,0.0,22.65,39.98,1.9309,379.3674],
    [21583,1532815411,57.0645,-111.5603,1127.3,815.3,356.1,3.8,0.9,23.28,38.34,1.9232,379.4191],
    [21584,1532815412,57.0652,-111.5603,1126.2,814.2,356.1,3.6,1.9,22.84,38.14,1.9205,377.7923],
    [21585,1532815413,57.0658,-111.5603,1125.3,813.0,356.7,2.8,1.3,22.56,38.08,1.9179,380.1233],
    [21586,1532815414,57.0665,-111.5603,1124.6,812.6,357.0,2.7,1.5,22.56,37.83,1.9205,379.6902],
    [21587,1532815415,57.0671,-111.5603,1124.4,812.4,357.0,2.6,1.8,22.33,37.81,1.9282,378.9718],
    [21588,1532815416,57.0678,-111.5604,1124.5,813.4,356.6,3.0,1.9,22.71,38.57,1.9372,379.7709],
    [21589,1532815417,57.0684,-111.5604,1124.8,815.8,355.6,3.9,2.7,22.69,37.65,1.9233,380.2499],
    [21590,1532815418,57.0691,-111.5604,1125.4,817.5,356.8,2.4,2.6,23.1,37.03,1.9159,379.8534],
    [21591,1532815419,57.0697,-111.5604,1125.6,819.6,358.7,0.6,2.1,23.13,36.71,1.9156,379.873],
    [21592,1532815420,57.0703,-111.5604,1125.6,822.6,358.1,1.5,2.2,22.78,37.46,1.9262,378.9557],
    [21593,1532815421,57.071,-111.5604,1125.4,825.9,357.9,1.9,2.9,22.4,37.22,1.9193,380.4294],
    [21594,1532815422,57.0716,-111.5605,1124.5,829.1,358.4,1.8,3.2,23.03,36.86,1.9176,377.6591],
    [21595,1532815423,57.0723,-111.5605,1122.8,833.4,358.0,2.6,3.3,23.48,36.33,1.9158,377.6591],
    [21596,1532815424,57.0729,-111.5604,1120.8,835.8,358.8,2.2,3.6,23.18,36.91,1.9162,378.8073],
    [21597,1532815425,57.0735,-111.5604,1119.0,840.0,359.1,2.2,3.8,22.44,36.84,1.9169,380.002],
    [21598,1532815426,57.0742,-111.5604,1117.9,844.7,358.4,3.2,3.8,23.24,36.43,1.9202,379.6866],
    [21599,1532815427,57.0748,-111.5604,1117.5,847.4,358.5,2.8,5.0,22.42,36.92,1.9239,379.8942],
    [21600,1532815428,57.0754,-111.5604,1117.3,848.3,359.0,2.5,3.8,22.74,37.17,1.9281,380.4993],
    [21601,1532815429,57.0761,-111.5603,1117.6,852.0,358.6,2.9,4.3,22.98,37.07,1.929,380.4941],
    [21602,1532815430,57.0767,-111.5603,1118.1,859.4,359.8,1.6,4.8,23.09,36.74,1.9322,379.5056],
    [21603,1532815431,57.0773,-111.5603,1118.6,864.3,360.6,1.3,5.2,23.1,36.89,1.9418,380.1239],
    [21604,1532815432,57.078,-111.5603,1118.7,869.1,360.6,1.5,5.7,22.73,36.97,1.9323,380.1256],
    [21605,1532815433,57.0786,-111.5602,1118.4,871.4,360.8,1.9,5.6,22.88,36.7,1.9438,380.5804],
    [21606,1532815434,57.0792,-111.5602,1117.9,874.5,359.1,3.6,5.7,22.16,36.84,1.9332,379.2704],
    [21607,1532815435,57.0799,-111.5601,1116.7,876.5,359.2,3.3,4.7,22.91,36.63,1.9292,380.1781],
    [21608,1532815436,57.0805,-111.5601,1115.6,877.9,360.3,2.0,4.7,23.47,36.09,1.9434,379.6762],
    [21609,1532815437,57.0811,-111.5601,1114.0,878.8,360.5,1.7,4.5,23.09,36.59,1.9516,379.9327],
    [21610,1532815438,57.0817,-111.56,1111.8,877.8,360.4,1.6,4.3,23.77,36.26,1.9586,379.729],
    [21611,1532815439,57.0824,-111.56,1108.3,874.3,360.6,1.3,4.4,22.3,36.6,1.9625,379.7637],
    [21612,1532815440,57.083,-111.56,1103.2,869.2,360.2,1.4,4.0,23.66,36.18,1.9617,377.8205],
    [21613,1532815441,57.0836,-111.5599,1098.1,864.1,360.1,0.7,5.2,22.97,36.85,1.9636,379.2647],
    [21614,1532815442,57.0843,-111.5599,1094.2,861.2,359.3,1.0,5.5,22.56,36.47,1.9621,380.6356],
    [21615,1532815443,57.0849,-111.5599,1091.6,859.7,358.1,1.7,5.4,22.72,36.63,1.9629,380.6911],
    [21616,1532815444,57.0856,-111.5599,1089.3,857.3,358.9,0.8,5.7,22.87,36.53,1.9646,379.7163],
    [21617,1532815445,57.0862,-111.5599,1086.9,854.9,358.7,1.3,5.9,23.58,35.71,1.9646,381.4412],
    [21618,1532815446,57.0869,-111.56,1084.8,852.9,358.7,1.6,5.5,22.73,36.41,1.9525,380.4873],
    [21619,1532815447,57.0875,-111.5599,1083.3,851.4,359.1,1.5,5.5,22.81,36.8,1.9452,379.3075],
    [21620,1532815448,57.0882,-111.5599,1081.6,849.6,358.7,2.1,5.7,22.65,37.37,1.9445,380.1232],
    [21621,1532815449,57.0889,-111.5599,1080.0,847.9,357.9,3.2,5.2,22.83,36.88,1.9487,380.5649],
    [21622,1532815450,57.0895,-111.5599,1078.7,847.7,358.0,3.2,5.3,22.89,37.46,1.9552,379.3803],
    [21623,1532815451,57.0902,-111.5599,1077.4,846.4,358.7,2.5,5.3,23.22,36.13,1.9634,379.843],
    [21624,1532815452,57.0908,-111.5599,1076.4,844.8,359.3,1.8,4.7,23.0,36.55,1.9604,380.5081],
    [21625,1532815453,57.0915,-111.5599,1075.6,844.7,359.2,1.9,5.0,22.85,37.07,1.9516,380.5081],
    [21626,1532815454,57.0921,-111.5599,1075.0,843.9,359.0,1.7,5.1,22.86,37.23,1.9382,381.3916],
    [21627,1532815455,57.0928,-111.5599,1074.3,844.3,359.4,1.1,5.6,22.52,37.25,1.9406,380.8138],
    [21628,1532815456,57.0934,-111.5598,1074.1,844.1,359.5,0.9,6.1,22.8,37.44,1.9458,380.9317],
    [21629,1532815457,57.0941,-111.5598,1073.8,843.8,358.4,2.4,6.6,23.09,36.68,1.9518,380.9317],
    [21630,1532815458,57.0947,-111.5598,1073.8,840.7,357.4,3.2,6.9,23.37,36.26,1.9502,379.7535],
    [21631,1532815459,57.0954,-111.5598,1074.7,837.7,358.6,1.5,6.7,22.38,37.11,1.9508,379.618],
    [21632,1532815460,57.096,-111.5598,1075.8,834.6,359.4,0.6,6.7,22.79,37.15,1.9519,379.1543],
    [21633,1532815461,57.0966,-111.5598,1077.2,832.9,358.9,1.0,6.7,22.25,37.29,1.9533,378.8331],
    [21634,1532815462,57.0973,-111.5598,1078.6,831.7,358.9,0.8,5.8,22.81,37.56,1.9605,380.3942],
    [21635,1532815463,57.0979,-111.5598,1080.2,833.3,359.0,0.7,6.4,23.0,37.61,1.9636,379.8902],
    [21636,1532815464,57.0986,-111.5599,1082.1,834.0,358.1,1.4,5.4,22.94,37.76,1.9868,380.5865],
    [21637,1532815465,57.0992,-111.5599,1083.6,835.6,358.2,1.0,5.2,22.48,37.85,1.9958,380.1452],
    [21638,1532815466,57.0998,-111.5599,1085.0,837.0,358.0,1.3,5.5,22.74,37.89,1.972,380.1404],
    [21639,1532815467,57.1004,-111.5599,1086.8,837.8,356.7,2.8,5.9,22.37,37.77,1.9683,379.7154],
    [21640,1532815468,57.1011,-111.5599,1088.5,837.8,356.5,2.8,5.6,22.94,37.49,1.9716,379.4391],
    [21641,1532815469,57.1017,-111.5599,1089.9,836.5,357.8,1.8,4.7,22.51,37.71,1.9894,379.1518],
    [21642,1532815470,57.1023,-111.5599,1092.1,837.3,356.3,3.7,5.2,22.81,37.63,1.9975,379.1139],
    [21643,1532815471,57.1029,-111.5599,1094.2,838.2,356.4,3.6,5.3,23.28,37.42,1.9931,380.2242],
    [21644,1532815472,57.1035,-111.56,1096.2,839.2,356.7,3.4,5.6,22.85,38.55,1.9855,379.288],
    [21645,1532815473,57.1041,-111.56,1098.4,840.3,356.6,3.7,5.2,22.77,37.96,1.9839,379.1846],
    [21646,1532815474,57.1047,-111.56,1099.8,840.9,357.5,3.1,5.0,22.71,37.85,1.9852,379.1887],
    [21647,1532815475,57.1054,-111.5599,1101.1,841.1,357.9,3.1,5.3,22.49,37.72,1.9808,379.6725],
    [21648,1532815476,57.106,-111.5599,1102.6,842.7,357.3,3.5,4.5,22.41,38.33,1.9771,379.3503],
    [21649,1532815477,57.1066,-111.5599,1103.4,842.4,358.6,2.3,4.8,22.7,37.64,1.9782,380.0105],
    [21650,1532815478,57.1072,-111.5599,1103.2,842.2,357.8,3.1,4.5,23.27,36.99,1.9727,380.0268],
    [21651,1532815479,57.1078,-111.5599,1102.6,841.6,357.6,2.9,4.7,22.8,37.47,1.9703,380.0315],
    [21652,1532815480,57.1084,-111.5599,1102.0,841.0,358.0,2.2,4.3,22.81,38.33,1.9665,380.0315],
    [21653,1532815481,57.109,-111.5599,1102.3,841.3,357.7,2.3,3.1,22.76,38.34,1.9665,379.7564],
    [21654,1532815482,57.1096,-111.5599,1102.0,841.0,356.7,3.5,3.6,22.84,38.09,1.9695,379.7435],
    [21655,1532815483,57.1102,-111.5599,1101.5,840.5,355.8,4.1,4.1,22.75,37.89,1.9698,380.5125],
    [21656,1532815484,57.1109,-111.5599,1100.5,838.5,356.1,3.7,3.7,22.79,37.64,1.9908,380.3343],
    [21657,1532815485,57.1115,-111.5599,1099.8,837.8,355.9,3.9,3.8,23.09,37.31,1.9935,379.8289],
    [21658,1532815486,57.1121,-111.56,1099.4,837.4,356.0,3.7,4.0,23.45,37.19,1.9808,379.7023],
    [21659,1532815487,57.1127,-111.56,1098.7,836.7,357.2,2.8,3.2,22.49,37.64,1.957,379.5844],
    [21660,1532815488,57.1133,-111.56,1097.7,835.7,357.6,2.6,3.6,22.57,37.51,1.9649,379.8533],
    [21661,1532815489,57.1139,-111.56,1097.4,835.4,359.5,1.1,3.4,22.72,37.47,1.9846,379.9692],
    [21662,1532815490,57.1146,-111.56,1097.2,835.2,359.1,2.0,2.9,22.73,38.46,1.9875,378.82],
    [21663,1532815491,57.1152,-111.5599,1097.0,835.0,358.9,2.1,3.0,23.05,37.62,1.9708,379.2031],
    [21664,1532815492,57.1158,-111.5599,1096.2,834.2,359.0,2.0,3.2,22.37,37.47,1.9693,379.2031],
    [21665,1532815493,57.1164,-111.5599,1095.9,833.9,357.9,2.9,2.7,22.37,37.65,1.9613,380.4843],
    [21666,1532815494,57.117,-111.5599,1095.7,833.8,358.6,2.1,2.8,22.86,38.05,1.9532,380.5708],
    [21667,1532815495,57.1176,-111.5599,1095.7,832.7,358.7,2.2,3.1,22.44,37.69,1.9532,380.5708],
    [21668,1532815496,57.1183,-111.5599,1096.1,833.1,358.3,2.4,3.1,22.57,37.58,1.9527,379.3478],
    [21669,1532815497,57.1189,-111.5599,1096.5,833.5,358.7,1.9,2.8,22.74,38.44,1.963,379.8066],
    [21670,1532815498,57.1195,-111.5599,1096.8,833.8,358.9,1.5,2.7,22.88,37.31,1.9691,379.9633],
    [21671,1532815499,57.1201,-111.5599,1096.4,832.8,358.9,1.9,1.8,22.59,37.71,1.9757,379.6696],
    [21672,1532815500,57.1207,-111.5598,1095.9,831.6,358.3,2.8,1.1,22.38,38.0,1.9499,380.3327],
    [21673,1532815501,57.1213,-111.5598,1095.2,830.2,360.1,1.0,0.7,22.5,38.56,1.9484,379.3848],
    [21674,1532815502,57.1219,-111.5598,1094.5,828.5,360.1,1.1,1.5,22.32,39.16,1.9516,380.0254],
    [21675,1532815503,57.1225,-111.5598,1094.5,828.5,358.2,2.4,1.8,22.55,38.83,1.955,380.2043],
    [21676,1532815504,57.1231,-111.5598,1094.7,828.7,359.3,1.1,1.2,23.53,38.1,1.9569,379.0406],
    [21677,1532815505,57.1238,-111.5598,1095.9,829.9,358.6,2.1,0.7,23.07,38.64,1.9491,379.7745],
    [21678,1532815506,57.1244,-111.5598,1097.0,831.0,358.3,2.6,0.1,23.44,38.44,1.9374,380.004],
    [21679,1532815507,57.125,-111.5598,1097.9,831.9,358.3,2.6,0.4,23.0,38.72,1.9376,380.5191],
    [21680,1532815508,57.1256,-111.5598,1098.8,832.8,357.7,3.2,0.7,22.62,39.16,1.947,379.0757],
    [21681,1532815509,57.1262,-111.5598,1099.5,832.5,357.1,3.7,0.5,22.28,39.47,1.9414,379.0757],
    [21682,1532815510,57.1268,-111.5598,1100.1,833.1,358.1,2.5,0.2,22.01,39.54,1.9277,379.4904],
    [21683,1532815511,57.1274,-111.5597,1100.5,833.5,358.1,2.6,-0.1,22.56,39.54,1.9271,379.6118],
    [21684,1532815512,57.128,-111.5597,1100.9,833.9,357.5,2.9,-0.9,22.47,39.56,1.9282,380.503],
    [21685,1532815513,57.1286,-111.5597,1101.4,834.4,357.4,2.7,-1.1,22.76,39.83,1.9358,380.1283],
    [21686,1532815514,57.1292,-111.5598,1101.9,834.9,356.7,2.6,-1.2,22.74,39.77,1.9386,379.2338],
    [21687,1532815515,57.1298,-111.5598,1102.3,835.3,356.7,2.2,-1.3,22.2,39.76,1.939,379.0269],
    [21688,1532815516,57.1304,-111.5598,1102.2,835.5,355.8,2.9,-1.9,22.66,40.13,1.9361,379.0269],
    [21689,1532815517,57.131,-111.5599,1103.0,837.1,355.8,2.9,-2.6,23.11,39.34,1.9369,379.6574],
    [21690,1532815518,57.1316,-111.5599,1104.2,837.4,357.0,2.2,-3.2,23.41,39.24,1.9368,380.4191],
    [21691,1532815519,57.1322,-111.5599,1104.6,837.6,357.9,1.8,-3.7,22.66,40.26,1.9353,378.9339],
    [21692,1532815520,57.1328,-111.5599,1104.1,837.1,358.8,1.5,-3.7,22.1,39.77,1.9384,380.6936],
    [21693,1532815521,57.1334,-111.5599,1103.7,836.7,358.3,2.4,-4.4,22.99,39.2,1.948,380.6936],
    [21694,1532815522,57.134,-111.5599,1103.4,836.4,358.9,1.8,-4.6,22.79,39.75,1.9532,379.7023],
    [21695,1532815523,57.1346,-111.5599,1103.5,835.5,359.6,1.5,-5.2,23.07,39.49,1.9629,379.4933],
    [21696,1532815524,57.1352,-111.5599,1103.6,835.6,359.4,1.9,-4.8,22.94,39.32,1.9608,379.269],
    [21697,1532815525,57.1358,-111.5599,1103.3,834.5,359.8,1.6,-4.2,22.68,39.7,1.9509,380.4806],
    [21698,1532815526,57.1364,-111.5598,1102.7,833.7,359.7,1.8,-3.8,22.8,39.45,1.9332,379.7392],
    [21699,1532815527,57.137,-111.5598,1101.9,833.2,359.6,2.1,-3.4,23.13,38.31,1.9267,379.7392],
    [21700,1532815528,57.1376,-111.5598,1101.0,832.3,359.2,2.7,-3.2,22.85,38.39,1.9346,379.3961],
    [21701,1532815529,57.1383,-111.5598,1100.1,831.0,359.4,2.8,-2.7,22.46,38.84,1.9495,379.3961],
    [21702,1532815530,57.1389,-111.5597,1099.9,829.9,359.2,2.9,-1.7,22.76,38.55,1.9534,379.1441],
    [21703,1532815531,57.1395,-111.5597,1100.0,829.0,359.0,2.2,-1.1,22.54,38.26,1.9525,380.1017],
    [21704,1532815532,57.1401,-111.5597,1100.2,828.2,357.0,2.4,-1.0,22.74,38.52,1.9494,380.0612],
    [21705,1532815533,57.1407,-111.5597,1100.3,827.5,353.8,2.7,-0.4,23.28,38.6,1.9472,379.4903],
    [21706,1532815534,57.1413,-111.5599,1100.1,827.1,349.4,4.0,0.1,22.35,38.77,1.9472,379.5015],
    [21707,1532815535,57.1419,-111.56,1099.5,826.5,344.2,5.2,1.2,22.62,38.7,1.9593,379.8867],
    [21708,1532815536,57.1425,-111.5603,1099.1,826.1,340.9,4.6,1.0,22.36,38.63,1.9714,379.8923],
    [21709,1532815537,57.1431,-111.5606,1098.9,825.9,337.2,4.3,0.8,22.76,38.73,1.9717,378.9681],
    [21710,1532815538,57.1436,-111.561,1099.0,826.0,332.7,5.6,0.7,22.79,38.85,1.9546,378.7704],
    [21711,1532815539,57.1442,-111.5615,1099.2,826.2,328.6,6.1,0.1,23.46,38.31,1.9463,379.6239],
    [21712,1532815540,57.1447,-111.562,1099.2,825.2,326.7,3.5,0.6,22.94,38.43,1.9404,379.3474],
    [21713,1532815541,57.1452,-111.5626,1099.1,825.1,323.3,3.5,0.8,22.98,38.67,1.9444,379.779],
    [21714,1532815542,57.1457,-111.5632,1099.0,826.0,320.2,3.1,1.3,23.0,38.35,1.9598,380.1658],
    [21715,1532815543,57.1462,-111.5639,1099.2,826.5,317.7,2.4,1.6,23.11,37.79,1.9728,378.7077],
    [21716,1532815544,57.1466,-111.5646,1099.5,827.5,314.5,3.1,2.0,23.07,38.64,1.9339,378.8319],
    [21717,1532815545,57.147,-111.5654,1099.8,828.8,312.2,3.6,1.4,22.72,38.16,1.938,379.2759],
    [21718,1532815546,57.1474,-111.5662,1099.8,829.4,308.9,4.9,1.8,23.38,37.47,1.938,379.2138],
    [21719,1532815547,57.1478,-111.567,1099.7,828.7,306.5,4.9,1.6,22.86,38.92,1.9301,380.0744],
    [21720,1532815548,57.1482,-111.5678,1099.4,828.3,304.9,4.8,0.6,22.32,38.55,1.9235,380.0633],
    [21721,1532815549,57.1485,-111.5687,1098.9,830.2,301.5,5.4,0.8,23.17,38.07,1.9199,379.8417],
    [21722,1532815550,57.1489,-111.5696,1098.1,834.1,297.5,6.1,1.0,23.08,37.82,1.9238,379.4371],
    [21723,1532815551,57.1491,-111.5705,1096.6,833.5,293.9,7.1,0.5,22.61,38.2,1.9271,379.2254],
    [21724,1532815552,57.1494,-111.5715,1094.0,830.6,290.4,6.5,0.7,22.73,37.62,1.9291,379.793],
    [21725,1532815553,57.1496,-111.5725,1090.9,826.9,285.7,6.6,1.2,22.61,37.97,1.9315,379.7198],
    [21726,1532815554,57.1498,-111.5735,1088.2,825.6,282.0,6.2,1.1,22.83,39.02,1.9336,380.2012],
    [21727,1532815555,57.1499,-111.5746,1085.6,821.6,278.6,5.8,1.3,23.59,38.25,1.9334,378.1402],
    [21728,1532815556,57.15,-111.5757,1082.6,815.5,275.2,5.6,1.9,22.99,39.81,1.9368,379.6539],
    [21729,1532815557,57.15,-111.5768,1078.8,809.6,272.6,5.4,1.9,22.65,39.35,1.9331,378.6109],
    [21730,1532815558,57.1501,-111.5779,1074.5,803.2,269.7,5.3,2.6,23.96,38.57,1.9364,380.3047],
    [21731,1532815559,57.1501,-111.579,1069.8,796.8,267.1,3.9,3.4,22.91,39.5,1.9267,379.9427],
    [21732,1532815560,57.15,-111.5801,1065.2,792.2,265.8,1.9,2.9,23.12,39.19,1.9264,379.6417],
    [21733,1532815561,57.15,-111.5812,1061.4,788.7,264.9,1.0,2.5,22.99,38.88,1.9302,378.9161],
    [21734,1532815562,57.15,-111.5824,1058.4,786.4,264.7,1.1,2.3,23.01,38.98,1.9265,379.494],
    [21735,1532815563,57.1499,-111.5835,1056.1,784.1,265.2,1.2,2.1,22.74,38.73,1.9269,378.9624],
    [21736,1532815564,57.1499,-111.5846,1054.5,782.5,265.3,-0.1,2.4,23.0,38.77,1.9242,379.9096],
    [21737,1532815565,57.1499,-111.5858,1052.9,780.9,266.7,-0.1,1.5,23.43,38.26,1.9113,380.7786],
    [21738,1532815566,57.1499,-111.5869,1051.8,779.8,267.5,1.3,2.1,24.08,37.92,1.892,380.5629],
    [21739,1532815567,57.1499,-111.5881,1052.5,780.5,268.6,1.3,2.0,23.07,37.71,1.8956,380.1886],
    [21740,1532815568,57.1499,-111.5892,1053.9,782.6,270.2,1.7,1.4,23.37,35.41,1.9033,380.1886],
    [21741,1532815569,57.1499,-111.5903,1055.4,785.1,271.3,1.8,1.2,22.85,34.01,1.9018,380.6276],
    [21742,1532815570,57.1499,-111.5914,1057.0,787.8,272.5,2.5,0.9,22.75,31.97,1.9088,380.2014],
    [21743,1532815571,57.15,-111.5925,1059.0,790.6,273.1,3.4,0.7,23.48,31.04,1.92,380.7878],
    [21744,1532815572,57.15,-111.5937,1061.2,793.1,272.8,2.7,1.2,22.54,31.63,1.9232,380.7878],
    [21745,1532815573,57.15,-111.5948,1063.1,796.1,272.6,2.7,1.2,23.49,31.83,1.924,382.0362],
    [21746,1532815574,57.1501,-111.5959,1064.7,797.0,272.2,3.3,1.4,23.51,31.81,1.9199,382.2735],
    [21747,1532815575,57.1501,-111.597,1065.8,796.8,271.5,4.0,1.7,23.05,33.74,1.9133,381.921],
    [21748,1532815576,57.1501,-111.598,1066.5,796.5,270.5,4.4,1.8,23.52,33.77,1.9066,382.2958],
    [21749,1532815577,57.1502,-111.5991,1067.4,796.3,269.1,5.3,2.4,23.34,33.84,1.9048,380.5159],
    [21750,1532815578,57.1502,-111.6002,1068.7,797.7,267.6,4.4,3.3,23.26,34.22,1.9058,381.4361],
    [21751,1532815579,57.1502,-111.6013,1070.0,799.0,266.9,3.5,3.8,23.16,33.07,1.911,381.2177],
    [21752,1532815580,57.1502,-111.6024,1071.5,802.6,267.0,3.4,3.5,23.12,33.59,1.9294,380.3704],
    [21753,1532815581,57.1502,-111.6034,1073.1,807.0,267.7,2.2,2.7,23.55,32.76,1.9328,380.5193],
    [21754,1532815582,57.1502,-111.6045,1075.1,812.4,267.3,1.6,3.4,23.13,34.26,1.9291,380.5858],
    [21755,1532815583,57.1502,-111.6056,1076.9,817.3,267.7,2.2,3.2,23.11,35.31,1.9251,381.8048],
    [21756,1532815584,57.1502,-111.6066,1078.1,821.0,268.2,1.1,2.9,23.21,36.13,1.9266,380.3203],
    [21757,1532815585,57.1502,-111.6077,1078.9,825.9,268.4,1.0,2.9,23.07,37.27,1.9182,380.0726],
    [21758,1532815586,57.1502,-111.6088,1078.1,828.5,268.3,1.0,3.1,23.11,37.16,1.9152,379.9346],
    [21759,1532815587,57.1502,-111.6098,1076.4,828.8,268.1,0.5,3.3,22.93,37.02,1.9177,379.2436],
    [21760,1532815588,57.1502,-111.6109,1074.8,829.8,267.7,-0.6,3.8,22.88,37.01,1.9192,379.2436],
    [21761,1532815589,57.1502,-111.612,1072.8,830.2,267.1,-1.4,4.3,23.87,36.84,1.9199,379.865],
    [21762,1532815590,57.1502,-111.6131,1070.9,831.4,267.1,-1.7,4.1,23.19,37.92,1.9263,380.4923],
    [21763,1532815591,57.1502,-111.6142,1068.8,830.6,268.1,-2.4,3.1,22.81,37.25,1.9301,380.1794],
    [21764,1532815592,57.1503,-111.6153,1066.8,829.9,268.1,-2.3,3.0,22.56,38.18,1.9301,379.2517],
    [21765,1532815593,57.1503,-111.6164,1064.9,828.9,268.9,-2.6,2.1,22.76,38.36,1.9292,380.5515],
    [21766,1532815594,57.1503,-111.6176,1063.2,827.2,268.7,-3.1,2.3,23.22,39.56,1.9287,378.4635],
    [21767,1532815595,57.1503,-111.6187,1061.2,826.2,269.2,-3.0,1.7,23.08,40.02,1.9284,378.9869],
    [21768,1532815596,57.1503,-111.6198,1059.2,825.2,269.8,-3.6,1.0,23.16,39.73,1.9276,378.9258],
    [21769,1532815597,57.1503,-111.6209,1057.7,823.7,269.2,-4.2,1.5,22.79,39.63,1.9277,379.1563],
    [21770,1532815598,57.1503,-111.622,1057.1,823.1,269.5,-3.9,1.0,22.96,39.94,1.9273,378.5752],
    [21771,1532815599,57.1503,-111.6232,1057.6,822.6,269.9,-4.2,0.9,22.71,40.27,1.9265,378.5482],
    [21772,1532815600,57.1503,-111.6243,1059.9,824.9,269.3,-4.5,1.2,23.06,40.18,1.9255,378.5482],
    [21773,1532815601,57.1503,-111.6254,1062.1,825.1,269.8,-4.7,0.6,22.9,40.31,1.9285,380.1416],
    [21774,1532815602,57.1503,-111.6265,1063.6,825.3,269.7,-4.9,0.3,23.35,39.8,1.9291,379.3074],
    [21775,1532815603,57.1503,-111.6277,1063.7,821.7,270.4,-5.0,-0.6,23.64,39.45,1.9286,378.8367],
    [21776,1532815604,57.1503,-111.6288,1063.6,820.6,269.2,-5.0,0.7,22.52,40.43,1.9294,378.8214],
    [21777,1532815605,57.1503,-111.6299,1064.4,822.4,268.0,-5.2,2.1,23.36,40.41,1.9302,378.8224],
    [21778,1532815606,57.1503,-111.6311,1065.3,824.3,270.8,-4.8,-0.2,22.83,40.4,1.9293,379.2082],
    [21779,1532815607,57.1503,-111.6322,1065.6,823.6,270.9,-5.4,0.2,23.27,40.16,1.9288,378.7635],
    [21780,1532815608,57.1503,-111.6333,1065.4,819.8,270.7,-5.8,0.6,23.73,39.95,1.9304,380.1207],
    [21781,1532815609,57.1503,-111.6345,1065.3,814.3,270.9,-5.9,1.0,22.85,41.41,1.9291,380.4455],
    [21782,1532815610,57.1504,-111.6356,1065.3,808.9,271.2,-6.4,1.1,22.23,41.36,1.9259,380.0768],
    [21783,1532815611,57.1504,-111.6367,1065.5,805.5,271.9,-6.4,0.9,22.85,41.03,1.9283,378.8706],
    [21784,1532815612,57.1504,-111.6379,1065.8,803.8,271.5,-6.0,1.6,22.38,41.0,1.9274,379.9227],
    [21785,1532815613,57.1504,-111.639,1065.4,801.3,271.5,-6.6,1.5,23.0,40.86,1.9276,378.7893],
    [21786,1532815614,57.1505,-111.6401,1064.8,799.1,270.5,-7.6,2.8,22.6,40.79,1.9283,378.7948],
    [21787,1532815615,57.1505,-111.6413,1065.6,798.6,269.6,-8.1,3.6,23.04,41.16,1.9292,378.7948],
    [21788,1532815616,57.1505,-111.6424,1066.3,798.3,270.6,-8.0,2.2,22.82,40.91,1.9295,378.4932],
    [21789,1532815617,57.1506,-111.6435,1066.9,798.9,270.3,-7.4,2.1,23.36,40.76,1.9312,379.186],
    [21790,1532815618,57.1506,-111.6446,1068.7,801.0,268.7,-6.6,2.7,22.85,41.0,1.9311,378.592],
    [21791,1532815619,57.1506,-111.6457,1071.8,803.7,268.7,-6.4,1.7,22.5,41.4,1.9307,378.922],
    [21792,1532815620,57.1506,-111.6469,1075.3,805.4,268.7,-6.4,1.4,22.49,41.77,1.9312,378.22],
    [21793,1532815621,57.1506,-111.6479,1078.9,807.0,267.4,-4.9,2.6,22.4,42.04,1.929,378.22],
    [21794,1532815622,57.1506,-111.649,1083.1,807.3,267.8,-3.3,2.5,22.83,42.07,1.9266,379.5726],
    [21795,1532815623,57.1506,-111.6501,1088.0,809.1,267.9,-3.1,2.9,22.6,42.46,1.9249,378.4542],
    [21796,1532815624,57.1506,-111.6512,1092.7,809.7,268.5,-1.3,2.7,21.98,42.15,1.9291,378.459],
    [21797,1532815625,57.1506,-111.6522,1096.6,811.6,269.5,0.0,2.3,23.23,41.61,1.9282,378.4713],
    [21798,1532815626,57.1506,-111.6532,1100.2,812.1,269.3,1.0,2.7,23.47,41.14,1.9268,377.8896],
    [21799,1532815627,57.1506,-111.6543,1102.7,812.9,270.7,2.1,1.6,22.49,42.23,1.9147,378.0236],
    [21800,1532815628,57.1507,-111.6553,1104.1,812.1,269.8,2.8,3.1,22.91,41.56,1.9117,380.0736],
    [21801,1532815629,57.1507,-111.6563,1105.3,812.3,269.2,3.2,3.5,23.31,40.48,1.9128,379.3555],
    [21802,1532815630,57.1507,-111.6574,1106.8,811.7,269.4,3.4,3.2,22.66,40.53,1.9139,378.1604],
    [21803,1532815631,57.1507,-111.6584,1109.1,812.0,268.8,3.4,3.6,22.52,39.05,1.9147,378.3608],
    [21804,1532815632,57.1507,-111.6594,1111.2,813.2,269.0,3.8,3.3,22.58,38.37,1.9204,379.351],
    [21805,1532815633,57.1508,-111.6604,1111.5,813.5,269.3,4.9,3.1,22.48,38.02,1.923,379.1013],
    [21806,1532815634,57.1508,-111.6614,1110.2,812.7,269.3,4.8,3.1,23.28,37.17,1.9199,379.3618],
    [21807,1532815635,57.1508,-111.6624,1109.2,812.1,269.2,4.3,2.9,23.54,37.36,1.9163,378.6626],
    [21808,1532815636,57.1508,-111.6635,1108.1,810.7,269.3,2.0,2.2,23.2,37.73,1.9169,379.4464],
    [21809,1532815637,57.1508,-111.6645,1107.2,808.2,268.1,1.0,2.7,22.18,38.13,1.9149,379.4464],
    [21810,1532815638,57.1508,-111.6655,1106.6,806.6,266.7,1.2,2.9,23.21,37.29,1.9147,379.4767],
    [21811,1532815639,57.1508,-111.6665,1105.6,803.5,266.5,0.5,2.0,22.29,37.87,1.9147,379.4767],
    [21812,1532815640,57.1508,-111.6676,1104.4,799.6,265.3,1.0,2.5,22.64,37.23,1.9133,379.2526],
    [21813,1532815641,57.1508,-111.6686,1103.5,796.6,265.0,1.7,2.5,22.88,37.67,1.9172,379.9096],
    [21814,1532815642,57.1507,-111.6696,1103.9,793.9,264.9,2.7,2.7,22.75,37.71,1.9203,379.3414],
    [21815,1532815643,57.1507,-111.6706,1105.5,794.5,265.1,2.0,2.4,22.99,37.12,1.9225,379.5583],
    [21816,1532815644,57.1507,-111.6716,1107.0,796.0,265.6,1.6,2.3,22.74,38.05,1.9233,379.0158],
    [21817,1532815645,57.1507,-111.6726,1107.7,797.0,265.1,3.1,3.2,22.6,38.52,1.9242,381.4879],
    [21818,1532815646,57.1507,-111.6737,1107.7,795.0,266.1,3.7,2.4,22.89,39.15,1.9215,379.9647],
    [21819,1532815647,57.1506,-111.6747,1108.3,794.3,265.8,3.5,2.9,23.33,39.1,1.92,380.1761],
    [21820,1532815648,57.1506,-111.6757,1108.7,794.7,265.9,3.2,2.8,22.7,39.76,1.9215,379.2202],
    [21821,1532815649,57.1506,-111.6767,1109.1,795.1,266.9,3.3,2.3,22.8,39.63,1.9217,379.3091],
    [21822,1532815650,57.1506,-111.6777,1110.2,795.5,268.1,4.9,1.7,23.37,39.5,1.9209,379.439],
    [21823,1532815651,57.1506,-111.6787,1111.9,796.9,267.6,5.7,2.6,22.52,40.08,1.9184,377.837],
    [21824,1532815652,57.1506,-111.6797,1113.6,798.6,267.1,5.9,2.7,22.71,40.4,1.9212,379.1706],
    [21825,1532815653,57.1506,-111.6807,1115.3,800.3,266.6,5.6,2.8,22.9,40.04,1.9225,379.1706],
    [21826,1532815654,57.1506,-111.6817,1117.9,802.9,265.3,6.1,3.8,22.88,40.36,1.9206,377.1674],
    [21827,1532815655,57.1506,-111.6827,1120.9,805.9,266.9,7.1,2.0,22.64,40.66,1.9231,378.3619],
    [21828,1532815656,57.1505,-111.6836,1123.4,807.4,268.5,6.5,0.6,23.01,40.46,1.9232,379.1279],
    [21829,1532815657,57.1505,-111.6846,1124.9,808.9,267.4,7.0,2.2,22.66,40.85,1.9229,377.4183],
    [21830,1532815658,57.1505,-111.6856,1125.9,808.9,267.7,7.7,2.1,22.62,41.0,1.9212,378.6856],
    [21831,1532815659,57.1505,-111.6866,1126.8,809.5,268.9,8.0,1.2,22.88,40.92,1.9197,378.8538],
    [21832,1532815660,57.1505,-111.6875,1127.4,809.4,269.9,9.2,0.4,22.65,41.24,1.9191,379.0866],
    [21833,1532815661,57.1505,-111.6885,1128.0,809.0,270.8,8.9,-0.7,22.33,40.91,1.9213,377.4876],
    [21834,1532815662,57.1505,-111.6895,1127.2,808.2,271.7,8.3,-1.7,22.41,40.69,1.92,377.4876],
    [21835,1532815663,57.1505,-111.6905,1125.8,806.8,270.2,8.2,-0.1,22.43,40.82,1.9138,379.5599],
    [21836,1532815664,57.1505,-111.6915,1125.1,805.1,269.3,8.3,1.1,22.67,40.03,1.9115,379.3665],
    [21837,1532815665,57.1505,-111.6924,1124.1,804.1,269.0,8.0,1.7,22.85,40.06,1.9082,378.3012],
    [21838,1532815666,57.1505,-111.6934,1123.4,803.4,267.8,7.7,2.9,23.24,38.5,1.9075,380.8785],
    [21839,1532815667,57.1505,-111.6944,1122.6,802.6,268.1,7.7,2.6,22.13,38.07,1.9057,380.5665],
    [21840,1532815668,57.1506,-111.6954,1121.9,800.9,268.8,7.9,2.0,22.5,37.14,1.9059,381.0537],
    [21841,1532815669,57.1506,-111.6965,1121.3,800.3,269.7,7.1,1.6,22.38,35.85,1.9068,380.7265],
    [21842,1532815670,57.1506,-111.6975,1119.8,798.8,270.6,7.0,1.2,22.37,34.69,1.9102,380.6672],
    [21843,1532815671,57.1506,-111.6985,1117.6,795.6,271.9,6.9,0.2,23.2,33.92,1.9156,381.213],
    [21844,1532815672,57.1506,-111.6996,1114.5,792.5,271.8,6.2,0.6,22.58,34.5,1.9174,378.9415],
    [21845,1532815673,57.1506,-111.7006,1112.1,790.1,270.8,6.3,1.1,22.32,34.52,1.9163,380.0448],
    [21846,1532815674,57.1507,-111.7016,1112.2,790.2,270.2,5.7,1.1,22.17,35.08,1.9138,380.2671],
    [21847,1532815675,57.1507,-111.7027,1114.0,792.0,269.9,5.3,0.6,22.29,36.11,1.9141,380.4761],
    [21848,1532815676,57.1507,-111.7037,1117.2,795.2,269.9,6.1,0.3,23.43,35.47,1.9144,379.4205],
    [21849,1532815677,57.1507,-111.7048,1121.7,799.7,269.0,6.3,0.9,22.96,36.04,1.9144,379.5849],
    [21850,1532815678,57.1507,-111.7058,1125.7,802.7,269.1,6.3,0.6,22.64,37.07,1.9145,380.3824],
    [21851,1532815679,57.1507,-111.7068,1127.9,804.9,268.9,5.7,0.9,22.39,36.3,1.9136,380.8803],
    [21852,1532815680,57.1507,-111.7079,1129.0,806.0,268.9,5.8,1.1,21.91,36.47,1.9127,379.5292],
    [21853,1532815681,57.1507,-111.7089,1129.4,806.4,270.2,6.0,0.1,22.31,36.61,1.9115,380.4146],
    [21854,1532815682,57.1507,-111.7099,1129.2,805.2,270.3,5.4,0.2,22.73,37.05,1.9085,379.8331],
    [21855,1532815683,57.1507,-111.711,1129.3,805.3,270.8,5.3,-0.4,23.2,35.76,1.9094,379.8633],
    [21856,1532815684,57.1507,-111.712,1129.7,805.7,270.4,5.1,0.0,22.94,35.62,1.9096,381.198],
    [21857,1532815685,57.1507,-111.7131,1132.1,807.1,269.0,4.8,1.0,22.43,35.25,1.9111,380.9388],
    [21858,1532815686,57.1507,-111.7141,1136.7,811.7,268.2,5.1,1.5,22.55,34.78,1.9111,380.0431],
    [21859,1532815687,57.1507,-111.7152,1141.9,816.9,268.2,5.1,1.2,22.67,34.9,1.9114,381.1567],
    [21860,1532815688,57.1506,-111.7162,1146.4,821.1,269.0,5.2,0.3,22.65,34.82,1.9113,381.5279],
    [21861,1532815689,57.1506,-111.7173,1149.6,823.6,269.1,4.0,0.2,22.95,34.28,1.9135,379.8466],
    [21862,1532815690,57.1506,-111.7183,1152.2,826.2,269.4,3.4,0.7,22.12,34.41,1.9127,381.4439],
    [21863,1532815691,57.1506,-111.7194,1155.9,829.9,268.6,3.4,2.0,23.18,34.25,1.9133,380.7011],
    [21864,1532815692,57.1506,-111.7204,1158.7,832.7,269.7,2.5,1.0,22.37,34.45,1.9129,381.5925],
    [21865,1532815693,57.1507,-111.7215,1160.8,833.8,269.9,2.7,1.1,22.73,34.56,1.9121,380.4683],
    [21866,1532815694,57.1507,-111.7226,1161.7,834.7,270.4,2.7,0.7,23.1,33.9,1.9124,381.4494],
    [21867,1532815695,57.1507,-111.7236,1162.9,835.9,269.3,2.4,1.9,22.65,34.37,1.9143,381.4737],
    [21868,1532815696,57.1507,-111.7247,1163.9,836.9,268.8,3.2,1.8,22.65,34.52,1.914,381.1967],
    [21869,1532815697,57.1507,-111.7258,1163.5,836.5,269.4,2.2,1.4,23.08,34.65,1.9115,380.8088],
    [21870,1532815698,57.1507,-111.7269,1162.7,835.7,268.3,1.9,2.2,22.17,34.53,1.9121,381.0773],
    [21871,1532815699,57.1507,-111.7279,1163.1,836.1,268.0,2.6,2.1,22.69,35.1,1.9124,380.9968],
    [21872,1532815700,57.1507,-111.729,1163.7,836.0,267.8,2.7,2.1,22.93,33.9,1.9125,380.9968],
    [21873,1532815701,57.1507,-111.73,1163.7,836.0,267.1,2.9,2.7,22.84,33.96,1.9132,381.0466],
    [21874,1532815702,57.1507,-111.7311,1163.7,836.7,267.6,2.4,2.2,22.69,34.57,1.9117,381.0122],
    [21875,1532815703,57.1507,-111.7322,1163.8,836.8,267.9,3.5,2.1,22.71,34.07,1.9119,380.3314],
    [21876,1532815704,57.1507,-111.7333,1163.6,836.6,267.2,3.6,3.0,23.27,33.53,1.9127,381.2227],
    [21877,1532815705,57.1507,-111.7343,1163.0,836.0,266.3,3.1,3.8,22.51,34.29,1.9115,381.2537],
    [21878,1532815706,57.1507,-111.7354,1162.5,835.5,266.9,2.8,3.0,23.11,33.42,1.9125,381.0029],
    [21879,1532815707,57.1506,-111.7365,1161.6,835.6,266.7,2.8,3.4,22.8,33.95,1.9108,381.3657],
    [21880,1532815708,57.1506,-111.7376,1160.2,834.2,267.0,2.1,3.1,22.92,33.62,1.9113,381.8642],
    [21881,1532815709,57.1506,-111.7386,1159.0,833.0,267.7,1.6,2.5,23.15,33.3,1.9144,381.913],
    [21882,1532815710,57.1506,-111.7397,1157.7,831.7,267.5,1.3,2.8,22.67,34.0,1.9135,381.3192],
    [21883,1532815711,57.1506,-111.7408,1156.2,830.7,267.5,0.9,2.9,22.64,33.58,1.9118,378.6617],
    [21884,1532815712,57.1506,-111.7419,1154.9,829.9,267.3,0.5,3.2,22.16,33.5,1.9128,382.4597],
    [21885,1532815713,57.1506,-111.743,1154.1,829.1,267.1,0.5,3.3,22.71,33.26,1.9131,381.6166],
    [21886,1532815714,57.1506,-111.7441,1153.7,828.6,266.3,1.2,4.1,22.71,33.91,1.9132,381.253],
    [21887,1532815715,57.1506,-111.7452,1153.2,827.2,266.8,1.7,3.5,22.61,33.93,1.9134,380.7582],
    [21888,1532815716,57.1506,-111.7463,1152.9,826.9,267.5,1.3,2.8,23.09,32.87,1.9125,381.3317],
    [21889,1532815717,57.1506,-111.7473,1152.9,826.9,267.7,1.4,2.6,22.86,33.72,1.9138,382.2343],
    [21890,1532815718,57.1506,-111.7485,1152.6,827.2,267.2,1.6,3.3,22.48,33.34,1.9139,382.2458],
    [21891,1532815719,57.1506,-111.7496,1152.9,828.0,266.3,2.0,4.5,23.36,33.2,1.9118,382.239],
    [21892,1532815720,57.1506,-111.7507,1153.8,831.4,267.6,2.3,3.1,22.4,33.54,1.9127,382.3893],
    [21893,1532815721,57.1506,-111.7517,1155.1,838.8,268.1,2.4,2.8,23.02,33.47,1.9124,382.3617],
    [21894,1532815722,57.1506,-111.7528,1155.8,848.7,267.7,2.1,3.3,22.73,33.71,1.9125,381.4323],
    [21895,1532815723,57.1506,-111.7539,1155.9,860.5,267.8,2.9,2.9,23.04,33.68,1.9129,382.185],
    [21896,1532815724,57.1506,-111.755,1155.4,869.5,268.5,2.4,2.1,23.42,33.02,1.9103,382.5309],
    [21897,1532815725,57.1506,-111.7561,1155.0,872.1,268.5,2.4,2.4,22.34,33.8,1.9123,382.3934],
    [21898,1532815726,57.1507,-111.7572,1154.7,874.6,267.8,2.2,3.4,22.57,33.73,1.9107,382.2985],
    [21899,1532815727,57.1507,-111.7583,1154.4,875.2,267.9,2.3,3.3,22.69,34.29,1.9134,381.5378],
    [21900,1532815728,57.1507,-111.7594,1154.1,877.2,268.3,2.5,2.9,22.67,33.98,1.9113,381.643],
    [21901,1532815729,57.1507,-111.7605,1153.6,878.0,268.0,3.3,3.1,23.3,33.37,1.9104,382.1122],
    [21902,1532815730,57.1507,-111.7615,1153.0,875.5,268.2,3.5,2.6,22.87,33.91,1.9113,381.9044],
    [21903,1532815731,57.1507,-111.7626,1152.5,875.3,268.5,3.4,2.0,22.56,33.7,1.9126,382.3136],
    [21904,1532815732,57.1507,-111.7637,1152.6,876.2,268.6,2.7,1.8,22.61,34.45,1.9133,381.8145],
    [21905,1532815733,57.1507,-111.7648,1153.2,877.6,267.6,2.5,2.5,22.68,33.9,1.9121,381.2565],
    [21906,1532815734,57.1507,-111.7659,1153.7,876.9,267.4,2.7,2.4,22.72,33.99,1.9092,381.0024],
    [21907,1532815735,57.1507,-111.7669,1154.1,875.3,267.3,2.8,2.3,22.56,33.5,1.9074,382.1014],
    [21908,1532815736,57.1507,-111.768,1154.3,872.3,267.3,3.1,2.2,23.15,33.06,1.9066,381.8435],
    [21909,1532815737,57.1507,-111.7691,1154.8,869.7,267.9,2.9,1.6,22.64,33.21,1.9076,381.7905],
    [21910,1532815738,57.1507,-111.7701,1155.8,867.0,268.2,2.9,1.4,22.97,32.44,1.9092,381.9955],
    [21911,1532815739,57.1506,-111.7712,1156.6,865.5,268.4,3.2,1.4,23.08,31.99,1.9078,382.795],
    [21912,1532815740,57.1506,-111.7723,1156.8,864.8,268.8,3.2,1.3,22.95,32.68,1.9098,381.7311],
    [21913,1532815741,57.1506,-111.7733,1156.5,864.4,269.4,3.1,0.9,22.78,33.02,1.9109,382.6933],
    [21914,1532815742,57.1506,-111.7744,1156.2,864.8,269.3,2.6,1.1,22.55,32.39,1.9109,382.2476],
    [21915,1532815743,57.1506,-111.7755,1156.4,865.4,269.1,2.8,1.2,22.94,32.42,1.9099,382.2774],
    [21916,1532815744,57.1506,-111.7765,1157.0,866.4,268.2,2.4,1.9,23.16,31.93,1.9085,382.804],
    [21917,1532815745,57.1506,-111.7776,1157.8,866.4,268.3,2.6,1.5,22.95,32.11,1.9085,382.5586],
    [21918,1532815746,57.1506,-111.7787,1158.4,863.1,268.3,2.6,1.6,22.45,32.74,1.911,381.3831],
    [21919,1532815747,57.1506,-111.7797,1159.3,857.6,267.6,2.3,2.2,22.94,32.82,1.9113,381.8692],
    [21920,1532815748,57.1506,-111.7808,1159.5,852.4,267.7,2.5,2.1,22.79,32.13,1.9135,380.8848],
    [21921,1532815749,57.1506,-111.7819,1158.9,843.2,267.5,2.1,2.2,22.8,32.95,1.9123,381.8772],
    [21922,1532815750,57.1506,-111.7829,1158.1,835.3,267.1,1.3,2.7,23.16,32.31,1.9117,382.5399],
    [21923,1532815751,57.1506,-111.784,1157.7,831.7,267.2,1.9,2.9,22.81,33.13,1.9122,380.7003],
    [21924,1532815752,57.1506,-111.7851,1158.2,831.2,267.3,1.8,3.1,22.87,33.1,1.9072,381.5835],
    [21925,1532815753,57.1506,-111.7861,1159.2,832.2,266.9,1.8,3.6,22.87,32.52,1.9079,383.4048],
    [21926,1532815754,57.1506,-111.7872,1159.7,831.7,266.7,1.9,3.6,23.2,32.22,1.9097,383.4048],
    [21927,1532815755,57.1506,-111.7883,1159.9,830.9,266.9,1.9,3.3,22.88,32.96,1.9087,382.4117],
    [21928,1532815756,57.1506,-111.7893,1159.8,830.8,267.6,1.9,2.8,22.95,32.22,1.9104,382.2411],
    [21929,1532815757,57.1506,-111.7904,1159.6,829.9,267.9,1.8,2.8,22.38,32.28,1.9127,381.8042],
    [21930,1532815758,57.1506,-111.7915,1159.1,829.1,267.7,1.3,3.2,22.84,33.09,1.9115,383.2874],
    [21931,1532815759,57.1506,-111.7925,1158.4,828.4,268.1,1.9,2.8,22.22,32.33,1.909,382.3387],
    [21932,1532815760,57.1506,-111.7936,1157.2,827.2,268.7,1.7,2.2,22.72,32.54,1.908,382.0043],
    [21933,1532815761,57.1506,-111.7946,1155.2,825.2,268.9,0.9,2.1,23.47,31.6,1.9077,382.0043],
    [21934,1532815762,57.1506,-111.7957,1153.1,822.1,268.1,0.6,2.8,22.59,32.27,1.9082,382.1305],
    [21935,1532815763,57.1506,-111.7968,1151.0,820.0,268.0,0.3,2.5,22.93,32.82,1.9097,382.1175],
    [21936,1532815764,57.1506,-111.7978,1148.9,817.9,267.0,-0.2,3.2,22.77,32.03,1.9136,382.7618],
    [21937,1532815765,57.1506,-111.7989,1147.0,816.0,266.8,-0.3,3.0,22.21,31.92,1.9126,383.2746],
    [21938,1532815766,57.1506,-111.8,1145.1,814.1,267.3,-0.8,2.0,23.64,31.23,1.9111,382.6114],
    [21939,1532815767,57.1506,-111.8011,1143.5,812.5,266.1,-0.9,2.3,22.88,32.89,1.9121,382.6114],
    [21940,1532815768,57.1506,-111.8021,1142.5,810.4,265.4,-0.7,1.6,22.88,33.0,1.91,382.1747],
    [21941,1532815769,57.1506,-111.8032,1141.7,809.7,264.5,-0.7,0.4,23.46,31.89,1.9089,382.5408],
    [21942,1532815770,57.1505,-111.8043,1141.3,809.3,261.4,-0.5,0.3,22.68,32.67,1.9109,381.5687],
    [21943,1532815771,57.1504,-111.8053,1141.2,809.2,257.0,-0.5,0.4,22.89,33.01,1.9088,382.6992],
    [21944,1532815772,57.1502,-111.8064,1141.6,809.6,252.8,-0.3,-0.1,22.75,32.27,1.9093,383.2274],
    [21945,1532815773,57.15,-111.8074,1142.3,810.3,248.9,0.5,-0.2,23.47,31.89,1.909,383.42],
    [21946,1532815774,57.1498,-111.8084,1143.1,811.1,245.1,0.5,-0.5,23.52,31.55,1.9057,381.4196],
    [21947,1532815775,57.1495,-111.8093,1144.1,812.1,241.7,0.8,-0.7,22.72,31.96,1.9041,382.9548],
    [21948,1532815776,57.1492,-111.8102,1144.3,812.3,238.4,1.3,-0.5,22.88,31.91,1.9065,382.3515],
    [21949,1532815777,57.1489,-111.8111,1144.3,812.3,235.0,1.0,-0.6,23.7,30.97,1.9102,383.1511],
    [21950,1532815778,57.1486,-111.8119,1144.5,812.5,232.4,1.3,-0.9,22.69,31.31,1.9082,383.3373],
    [21951,1532815779,57.1482,-111.8127,1144.7,812.7,230.0,1.5,-0.9,23.49,30.7,1.9055,382.4852],
    [21952,1532815780,57.1478,-111.8135,1145.1,813.1,227.7,1.5,-1.4,23.1,31.62,1.9072,382.4852],
    [21953,1532815781,57.1474,-111.8142,1145.5,812.5,225.4,1.9,-1.2,22.71,31.28,1.9086,381.8647],
    [21954,1532815782,57.147,-111.8149,1145.5,812.5,222.3,1.6,-1.0,22.86,32.0,1.9084,382.4481],
    [21955,1532815783,57.1465,-111.8156,1145.1,811.1,219.5,1.9,-0.9,23.64,30.38,1.9117,382.0577],
    [21956,1532815784,57.1461,-111.8162,1144.7,810.7,216.1,1.4,-0.2,23.29,30.72,1.9128,381.5015],
    [21957,1532815785,57.1456,-111.8168,1144.4,810.4,213.6,1.3,-0.5,23.69,30.72,1.9098,381.7315],
    [21958,1532815786,57.1451,-111.8173,1144.3,810.3,212.2,2.2,-0.4,22.76,31.43,1.9085,383.1167],
    [21959,1532815787,57.1446,-111.8178,1144.2,810.2,210.6,2.4,-0.5,22.51,31.33,1.9084,381.9204],
    [21960,1532815788,57.1441,-111.8183,1144.1,810.1,209.6,3.0,-0.7,22.43,31.41,1.9081,381.8869],
    [21961,1532815789,57.1436,-111.8188,1143.9,809.9,208.0,3.3,-0.4,22.93,31.19,1.9092,382.4459],
    [21962,1532815790,57.1431,-111.8192,1143.7,808.9,205.4,2.7,0.1,22.9,31.0,1.9105,382.5386],
    [21963,1532815791,57.1425,-111.8196,1143.3,809.3,203.1,2.8,0.0,22.8,30.8,1.9115,382.6754],
    [21964,1532815792,57.142,-111.82,1143.0,808.7,200.4,3.0,-0.1,23.43,30.45,1.9127,383.3647],
    [21965,1532815793,57.1415,-111.8203,1143.0,808.0,195.8,1.9,0.3,22.97,31.45,1.9146,381.7098],
    [21966,1532815794,57.1409,-111.8205,1142.9,807.9,191.9,1.7,0.4,23.25,31.34,1.9138,381.8508],
    [21967,1532815795,57.1403,-111.8206,1143.4,808.4,188.3,1.1,0.8,23.36,31.38,1.9139,381.6475],
    [21968,1532815796,57.1398,-111.8207,1143.7,808.7,186.2,1.3,0.5,23.03,32.09,1.9123,381.353],
    [21969,1532815797,57.1392,-111.8208,1143.3,808.3,185.4,2.0,1.0,22.88,32.82,1.9135,380.995],
    [21970,1532815798,57.1386,-111.8209,1142.7,807.7,183.7,1.5,0.9,23.02,32.77,1.9142,380.7095],
    [21971,1532815799,57.1381,-111.8209,1141.8,806.8,183.4,2.1,0.5,22.2,33.5,1.9143,379.4714],
    [21972,1532815800,57.1375,-111.8209,1141.2,806.2,183.0,2.5,0.5,23.02,33.42,1.9147,380.5471],
    [21973,1532815801,57.1369,-111.8209,1141.0,806.0,181.8,2.1,1.0,22.59,33.77,1.9136,381.173],
    [21974,1532815802,57.1363,-111.8209,1141.1,806.1,181.0,2.2,0.7,22.71,34.12,1.9133,381.4731],
    [21975,1532815803,57.1358,-111.8209,1141.5,806.5,179.9,1.8,0.3,22.92,33.95,1.9131,380.5745],
    [21976,1532815804,57.1352,-111.8209,1142.2,806.4,179.1,1.5,0.1,22.84,34.62,1.9128,380.7517],
    [21977,1532815805,57.1346,-111.8208,1142.6,807.6,179.3,2.1,-0.2,22.68,34.84,1.912,380.1549],
    [21978,1532815806,57.1341,-111.8208,1142.8,807.5,179.5,2.0,-0.4,23.3,33.92,1.9138,380.5999],
    [21979,1532815807,57.1335,-111.8207,1142.9,807.6,179.4,1.8,-0.9,22.14,34.4,1.9141,380.5744],
    [21980,1532815808,57.1329,-111.8207,1142.7,806.7,180.9,2.8,-0.9,23.01,33.8,1.9146,380.5744],
    [21981,1532815809,57.1324,-111.8207,1142.3,806.3,181.4,2.6,-1.2,22.19,34.75,1.9124,381.1114],
    [21982,1532815810,57.1318,-111.8207,1141.6,805.6,181.3,2.0,-1.2,22.84,34.69,1.9132,381.0044],
    [21983,1532815811,57.1312,-111.8207,1140.8,804.8,182.0,2.4,-0.4,22.53,34.7,1.9136,380.4399],
    [21984,1532815812,57.1307,-111.8207,1140.1,804.1,182.3,2.4,-0.1,22.98,34.73,1.9137,380.4653],
    [21985,1532815813,57.1301,-111.8207,1139.6,803.6,182.0,2.1,-0.3,23.76,34.13,1.9123,380.6759],
    [21986,1532815814,57.1295,-111.8207,1139.7,803.7,181.6,1.9,-0.6,23.19,34.7,1.9118,379.5997],
    [21987,1532815815,57.129,-111.8207,1139.9,803.9,181.7,2.2,0.0,23.44,34.58,1.9133,380.7541],
    [21988,1532815816,57.1284,-111.8207,1140.1,804.1,181.6,2.3,0.4,22.86,35.43,1.9126,380.833],
    [21989,1532815817,57.1279,-111.8206,1140.4,804.4,181.2,1.9,0.4,23.34,34.6,1.9109,380.8536],
    [21990,1532815818,57.1273,-111.8206,1140.6,805.6,181.0,1.9,0.7,22.65,35.38,1.9113,380.1029],
    [21991,1532815819,57.1267,-111.8206,1140.6,805.6,181.2,2.0,1.2,23.03,34.58,1.911,379.8912],
    [21992,1532815820,57.1262,-111.8206,1140.5,805.5,180.8,1.6,0.4,23.38,34.1,1.9121,380.2519],
    [21993,1532815821,57.1256,-111.8206,1140.4,805.4,181.1,2.2,1.4,23.18,33.93,1.9131,379.8579],
    [21994,1532815822,57.125,-111.8206,1140.5,805.5,181.0,2.4,1.5,22.82,34.19,1.9114,380.939],
    [21995,1532815823,57.1245,-111.8205,1141.0,807.0,180.2,1.8,2.1,22.15,34.5,1.9127,380.3983],
    [21996,1532815824,57.1239,-111.8205,1141.7,807.8,180.5,2.1,2.0,22.7,34.73,1.9133,380.6112],
    [21997,1532815825,57.1233,-111.8205,1142.8,807.8,181.1,2.7,2.0,22.06,34.46,1.9112,380.731],
    [21998,1532815826,57.1228,-111.8205,1143.6,808.6,181.5,3.0,1.8,22.82,34.31,1.9112,381.3813],
    [21999,1532815827,57.1222,-111.8205,1144.1,809.1,181.1,2.4,1.7,22.8,34.13,1.9098,380.723],
    [22000,1532815828,57.1217,-111.8204,1144.1,809.1,181.2,2.5,1.8,22.8,34.33,1.9111,380.7971],
    [22001,1532815829,57.1211,-111.8204,1143.6,808.6,181.9,3.0,2.4,22.66,34.29,1.9131,380.3893],
    [22002,1532815830,57.1205,-111.8204,1143.0,808.0,181.4,2.4,3.0,22.74,33.77,1.9114,381.6906],
    [22003,1532815831,57.12,-111.8204,1142.2,807.2,181.6,2.8,2.9,22.21,33.39,1.9126,380.689],
    [22004,1532815832,57.1194,-111.8204,1141.6,807.6,182.2,3.4,2.4,23.2,32.6,1.9131,381.0923],
    [22005,1532815833,57.1189,-111.8204,1141.0,807.0,181.8,3.0,2.3,22.35,33.5,1.913,381.0923],
    [22006,1532815834,57.1183,-111.8203,1140.6,807.7,181.8,3.0,1.8,22.82,34.21,1.9122,381.0609],
    [22007,1532815835,57.1177,-111.8203,1140.3,807.3,181.2,2.3,2.2,22.84,33.19,1.9107,380.9972],
    [22008,1532815836,57.1172,-111.8203,1140.6,807.6,180.2,1.5,1.7,22.69,34.3,1.9097,381.6827],
    [22009,1532815837,57.1166,-111.8203,1140.8,807.8,180.5,2.0,1.7,22.78,33.22,1.9098,380.7122],
    [22010,1532815838,57.116,-111.8203,1140.9,808.1,181.0,2.5,1.9,22.39,33.34,1.9081,379.6478],
    [22011,1532815839,57.1155,-111.8202,1140.8,808.1,180.8,2.3,2.2,22.7,33.36,1.9093,381.272],
    [22012,1532815840,57.1149,-111.8202,1140.6,807.9,181.3,2.6,1.7,23.21,32.52,1.9096,381.4993],
    [22013,1532815841,57.1144,-111.8202,1140.5,807.8,181.2,2.3,2.1,22.69,32.87,1.9132,381.5053],
    [22014,1532815842,57.1138,-111.8202,1140.5,807.5,180.8,1.9,2.6,22.46,32.78,1.9115,381.9675],
    [22015,1532815843,57.1132,-111.8202,1140.3,807.3,181.3,2.3,2.2,23.22,32.21,1.9115,380.6891],
    [22016,1532815844,57.1127,-111.8202,1140.7,807.7,181.2,2.0,1.4,23.07,32.38,1.9118,380.9414],
    [22017,1532815845,57.1121,-111.8202,1141.8,808.8,181.7,2.4,1.5,22.84,33.42,1.9105,380.5921],
    [22018,1532815846,57.1116,-111.8201,1143.1,810.1,181.9,2.4,1.6,23.4,32.57,1.9118,380.8586],
    [22019,1532815847,57.111,-111.8201,1144.8,811.8,181.3,1.7,2.4,22.78,33.55,1.9121,381.337],
    [22020,1532815848,57.1105,-111.8201,1146.6,812.9,181.0,1.6,2.3,22.52,33.02,1.9125,380.308],
    [22021,1532815849,57.1099,-111.8201,1148.0,814.0,181.0,1.7,2.5,22.55,33.25,1.914,379.9761],
    [22022,1532815850,57.1094,-111.8201,1148.7,814.7,181.2,1.6,2.6,23.09,33.28,1.9118,381.9171],
    [22023,1532815851,57.1088,-111.8201,1149.5,815.5,181.3,1.3,2.3,23.07,33.3,1.9126,381.8066],
    [22024,1532815852,57.1083,-111.8201,1150.4,816.4,181.1,0.8,1.7,22.47,33.75,1.9122,380.8327],
    [22025,1532815853,57.1077,-111.8201,1151.3,817.3,181.2,0.8,1.6,22.51,34.02,1.9119,381.0906],
    [22026,1532815854,57.1072,-111.8201,1152.4,818.4,182.0,1.5,2.4,22.79,34.25,1.9121,380.6881],
    [22027,1532815855,57.1066,-111.8202,1153.6,818.6,182.4,1.6,3.0,22.51,34.51,1.9123,379.5819],
    [22028,1532815856,57.1061,-111.8202,1153.3,818.3,183.1,1.9,2.3,22.18,34.35,1.9144,381.1189],
    [22029,1532815857,57.1055,-111.8202,1152.8,817.8,182.9,1.5,2.3,22.63,34.6,1.9149,380.6113],
    [22030,1532815858,57.105,-111.8202,1152.2,817.2,183.2,1.9,2.3,22.76,34.92,1.9139,380.1737],
    [22031,1532815859,57.1045,-111.8203,1151.4,816.4,183.6,2.1,1.9,22.81,34.93,1.9123,379.6341],
    [22032,1532815860,57.1039,-111.8203,1150.9,815.9,182.9,1.4,2.4,23.41,34.99,1.9122,380.2307],
    [22033,1532815861,57.1033,-111.8203,1150.4,814.4,183.3,2.1,2.1,22.46,35.55,1.9137,379.4578],
    [22034,1532815862,57.1028,-111.8203,1149.8,813.8,183.8,3.0,1.6,22.82,35.54,1.9134,379.5616],
    [22035,1532815863,57.1022,-111.8204,1149.4,813.4,182.1,2.1,1.8,22.92,36.05,1.9135,380.0887],
    [22036,1532815864,57.1017,-111.8204,1148.9,812.9,181.3,2.0,1.8,22.7,36.56,1.9118,379.5281],
    [22037,1532815865,57.1011,-111.8203,1148.2,812.2,180.6,1.6,1.9,22.7,36.07,1.9131,380.3192],
    [22038,1532815866,57.1006,-111.8203,1147.7,810.7,180.3,1.8,1.5,22.76,36.59,1.9126,379.8409],
    [22039,1532815867,57.1,-111.8203,1148.2,811.2,181.3,2.9,1.8,22.02,35.76,1.9118,380.3196],
    [22040,1532815868,57.0995,-111.8203,1148.6,810.6,181.3,2.4,2.0,22.73,35.9,1.9124,380.1746],
    [22041,1532815869,57.0989,-111.8203,1148.7,810.7,180.8,1.6,1.7,22.3,36.04,1.9118,380.4277],
    [22042,1532815870,57.0984,-111.8203,1148.7,810.7,182.2,2.7,1.4,22.86,35.69,1.9113,380.081],
    [22043,1532815871,57.0978,-111.8203,1148.3,810.3,182.8,2.8,1.0,22.66,36.07,1.9086,380.6582],
    [22044,1532815872,57.0972,-111.8203,1148.4,810.4,182.1,2.1,1.2,22.65,36.22,1.9093,379.8628],
    [22045,1532815873,57.0967,-111.8203,1148.8,810.8,181.7,2.1,2.0,22.8,35.49,1.9078,380.6468],
    [22046,1532815874,57.0961,-111.8203,1149.9,811.9,181.6,2.3,1.6,22.34,34.82,1.9118,381.335],
    [22047,1532815875,57.0956,-111.8202,1150.4,812.4,181.7,2.7,1.5,22.3,34.14,1.9106,382.7703],
    [22048,1532815876,57.095,-111.8202,1150.9,811.9,181.8,2.7,2.7,22.57,34.03,1.9115,380.7886],
    [22049,1532815877,57.0944,-111.8202,1151.5,812.2,181.1,2.0,4.5,23.06,33.86,1.9123,380.6242],
    [22050,1532815878,57.0939,-111.8202,1152.1,812.1,182.0,3.3,5.1,22.76,34.99,1.9141,382.2436],
    [22051,1532815879,57.0933,-111.8202,1152.4,812.4,181.6,3.1,5.1,22.45,34.25,1.9119,381.9367],
    [22052,1532815880,57.0928,-111.8202,1153.1,812.8,181.0,2.7,4.8,22.8,34.97,1.9124,382.028],
    [22053,1532815881,57.0922,-111.8201,1153.7,812.7,181.6,3.4,5.5,22.82,34.54,1.9126,382.7168],
    [22054,1532815882,57.0917,-111.8201,1154.0,813.0,181.5,3.1,5.4,23.58,34.46,1.9129,382.6959],
    [22055,1532815883,57.0911,-111.8201,1154.7,813.7,181.3,3.0,5.5,22.99,34.82,1.9115,380.259],
    [22056,1532815884,57.0906,-111.8201,1155.1,814.1,182.2,3.8,4.6,22.84,35.05,1.9118,380.259],
    [22057,1532815885,57.09,-111.82,1155.5,815.5,181.4,2.9,5.4,22.2,35.49,1.9123,380.6502],
    [22058,1532815886,57.0895,-111.82,1156.5,816.5,180.5,2.0,5.5,22.7,36.25,1.9113,380.3785],
    [22059,1532815887,57.0889,-111.82,1157.5,817.5,180.9,2.3,5.1,23.16,35.38,1.9125,379.9897],
    [22060,1532815888,57.0883,-111.82,1158.5,818.5,181.7,2.8,5.7,22.69,36.07,1.9111,379.8787],
    [22061,1532815889,57.0878,-111.82,1159.2,819.2,182.3,3.2,5.5,22.19,36.12,1.9095,379.6756],
    [22062,1532815890,57.0872,-111.82,1160.0,819.2,182.4,2.9,5.1,22.56,36.44,1.9112,381.7639],
    [22063,1532815891,57.0867,-111.82,1161.3,820.3,181.5,2.0,5.3,23.07,35.75,1.9104,382.6563],
    [22064,1532815892,57.0861,-111.82,1162.9,821.9,180.8,1.4,5.9,22.42,35.84,1.9095,382.4839],
    [22065,1532815893,57.0856,-111.82,1164.5,823.5,180.6,1.1,5.2,22.66,35.62,1.9111,381.8385],
    [22066,1532815894,57.085,-111.82,1165.8,824.8,181.4,1.7,5.4,22.95,35.09,1.9105,379.5149],
    [22067,1532815895,57.0845,-111.82,1166.4,825.4,182.6,2.2,5.7,22.7,35.39,1.9097,379.5149],
    [22068,1532815896,57.084,-111.82,1166.7,825.7,183.0,2.1,5.5,22.7,35.16,1.9095,381.9356],
    [22069,1532815897,57.0834,-111.82,1165.7,823.9,183.1,1.7,5.5,22.91,34.35,1.9085,381.2625],
    [22070,1532815898,57.0829,-111.82,1164.6,822.6,182.3,0.5,5.2,22.97,34.11,1.9084,381.1581],
    [22071,1532815899,57.0823,-111.8201,1164.2,822.2,183.0,1.1,5.3,22.58,33.58,1.9087,381.2675],
    [22072,1532815900,57.0818,-111.8201,1164.2,822.2,184.1,2.1,5.2,23.05,32.68,1.9104,381.2652],
    [22073,1532815901,57.0812,-111.8202,1164.6,822.6,184.7,2.7,5.1,23.47,32.19,1.9113,381.1052],
    [22074,1532815902,57.0807,-111.8202,1165.3,822.9,184.7,3.0,4.6,22.7,33.44,1.9123,382.8843],
    [22075,1532815903,57.0801,-111.8202,1165.5,822.5,183.4,2.1,4.9,22.54,32.96,1.9119,381.7521],
    [22076,1532815904,57.0795,-111.8203,1165.8,822.8,183.2,2.6,5.0,22.69,33.15,1.9115,380.3193],
    [22077,1532815905,57.079,-111.8203,1165.9,822.9,182.8,2.5,5.5,22.46,33.18,1.9126,380.3193],
    [22078,1532815906,57.0784,-111.8203,1166.1,823.1,181.9,1.8,5.3,22.59,33.6,1.9127,381.0571],
    [22079,1532815907,57.0779,-111.8203,1166.5,823.5,182.5,2.6,5.6,22.9,33.92,1.9118,380.2871],
    [22080,1532815908,57.0773,-111.8203,1167.1,823.1,182.2,2.5,5.2,22.81,34.14,1.9113,380.9422],
    [22081,1532815909,57.0767,-111.8203,1167.6,823.6,181.8,2.3,5.4,23.51,33.95,1.9116,380.9422],
    [22082,1532815910,57.0762,-111.8203,1168.0,824.0,181.2,2.0,5.2,23.11,34.49,1.913,379.6248],
    [22083,1532815911,57.0756,-111.8203,1168.7,824.7,180.5,1.5,5.6,22.18,35.12,1.9118,380.093],
    [22084,1532815912,57.075,-111.8203,1169.7,825.7,180.3,1.6,6.2,22.6,35.42,1.9105,379.731],
    [22085,1532815913,57.0745,-111.8202,1170.5,826.5,180.5,1.8,5.1,22.54,35.52,1.9105,380.1774],
    [22086,1532815914,57.0739,-111.8202,1170.6,826.2,180.0,1.2,3.8,22.63,36.47,1.9108,380.1774],
    [22087,1532815915,57.0733,-111.8202,1170.2,825.2,180.4,1.8,3.4,22.41,35.56,1.9109,378.2229],
    [22088,1532815916,57.0728,-111.8202,1169.2,824.2,181.9,3.4,3.2,23.27,34.99,1.9096,379.5366],
    [22089,1532815917,57.0722,-111.8202,1167.6,822.6,182.4,3.8,2.6,23.22,35.19,1.9097,379.8639],
    [22090,1532815918,57.0716,-111.8201,1166.0,821.0,181.1,2.4,2.8,23.3,35.06,1.9093,379.7579],
    [22091,1532815919,57.071,-111.8201,1165.1,819.1,180.2,1.5,3.4,22.71,36.34,1.9107,379.7644],
    [22092,1532815920,57.0705,-111.8201,1165.2,819.2,179.4,0.3,3.0,22.69,36.01,1.9108,379.7771],
    [22093,1532815921,57.0699,-111.8201,1165.8,819.8,180.6,1.4,2.7,22.72,35.65,1.9096,379.0374],
    [22094,1532815922,57.0693,-111.8201,1166.1,820.1,181.4,1.6,2.2,23.14,35.23,1.9099,378.634],
    [22095,1532815923,57.0688,-111.8201,1166.0,819.0,180.9,1.0,1.5,23.19,35.06,1.9104,379.3399],
    [22096,1532815924,57.0682,-111.8201,1165.7,818.7,181.5,1.4,0.5,22.79,35.8,1.9109,379.4793],
    [22097,1532815925,57.0676,-111.8201,1165.1,818.1,181.4,1.2,0.1,22.64,35.57,1.9102,379.3939],
    [22098,1532815926,57.067,-111.8201,1164.6,816.9,181.2,1.1,-0.6,22.38,35.84,1.9099,379.3939],
    [22099,1532815927,57.0665,-111.8201,1164.9,816.9,181.2,1.0,-2.5,23.08,35.48,1.9096,378.5832],
    [22100,1532815928,57.0659,-111.8201,1165.7,817.7,180.8,0.9,-4.1,22.82,35.99,1.9106,378.9822],
    [22101,1532815929,57.0653,-111.8201,1166.6,817.9,180.9,1.4,-5.7,21.86,36.37,1.9092,378.8283],
    [22102,1532815930,57.0648,-111.8201,1167.6,818.6,180.8,1.5,-7.3,22.42,36.94,1.909,378.8283],
    [22103,1532815931,57.0642,-111.8201,1168.7,819.7,180.6,1.4,-8.4,22.31,36.36,1.9096,379.3214],
    [22104,1532815932,57.0636,-111.8201,1169.6,820.6,181.0,1.5,-9.3,22.5,36.4,1.9094,378.9839],
    [22105,1532815933,57.063,-111.8201,1170.1,821.1,181.5,1.5,-10.8,22.9,36.02,1.9097,378.9839],
    [22106,1532815934,57.0624,-111.8201,1170.8,821.8,182.6,1.8,-12.4,22.66,36.38,1.9097,379.8688],
    [22107,1532815935,57.0619,-111.8201,1171.2,822.2,183.9,2.1,-12.6,22.62,37.42,1.9091,379.4519],
    [22108,1532815936,57.0613,-111.8201,1171.9,822.9,183.9,1.3,-14.5,23.13,36.4,1.9098,379.6532],
    [22109,1532815937,57.0607,-111.8201,1172.4,823.4,183.8,1.2,-14.6,22.36,36.76,1.9102,379.6532],
    [22110,1532815938,57.0601,-111.8202,1172.9,823.9,185.0,2.0,-14.4,22.22,36.87,1.9091,378.6422],
    [22111,1532815939,57.0596,-111.8202,1173.0,824.0,184.7,1.5,-15.3,22.54,37.39,1.9098,379.6191],
    [22112,1532815940,57.059,-111.8203,1173.1,823.7,184.4,1.2,-15.6,22.65,37.14,1.9092,379.4518],
    [22113,1532815941,57.0584,-111.8203,1173.0,823.0,185.0,1.4,-16.2,21.66,36.77,1.9074,379.3451],
    [22114,1532815942,57.0578,-111.8204,1172.8,822.8,184.8,1.4,-16.2,21.81,36.74,1.908,380.428],
    [22115,1532815943,57.0572,-111.8204,1172.5,822.5,184.6,1.7,-16.7,21.8,36.33,1.9092,379.6928],
    [22116,1532815944,57.0566,-111.8204,1172.3,822.3,183.8,1.6,-16.9,21.59,36.26,1.9105,379.0628],
    [22117,1532815945,57.056,-111.8205,1171.9,821.9,183.3,1.6,-17.7,21.72,36.07,1.9099,378.6749],
    [22118,1532815946,57.0555,-111.8205,1171.3,821.3,183.6,2.2,-18.2,22.1,36.57,1.9097,380.3145],
    [22119,1532815947,57.0549,-111.8205,1170.5,820.5,183.5,2.2,-18.3,21.62,36.13,1.9073,379.2446],
    [22120,1532815948,57.0542,-111.8205,1170.2,820.2,183.1,1.7,-18.5,22.02,36.18,1.908,379.6608],
    [22121,1532815949,57.0537,-111.8205,1170.2,819.2,182.5,1.1,-18.4,21.55,35.84,1.9095,381.0582],
    [22122,1532815950,57.0531,-111.8205,1170.6,819.6,183.2,1.9,-17.8,22.34,35.35,1.9101,379.8161],
    [22123,1532815951,57.0524,-111.8205,1171.6,820.6,183.1,1.8,-16.4,21.71,35.78,1.9102,379.6465],
    [22124,1532815952,57.0519,-111.8206,1173.0,822.0,182.1,1.4,-16.3,21.92,35.91,1.9113,378.2508],
    [22125,1532815953,57.0513,-111.8206,1174.8,823.8,182.6,2.0,-14.8,21.81,36.35,1.9118,379.7048],
    [22126,1532815954,57.0507,-111.8206,1176.6,825.3,183.0,2.3,-14.1,21.14,36.57,1.9107,379.0053],
    [22127,1532815955,57.0501,-111.8206,1178.4,826.4,182.0,1.7,-12.7,21.96,37.55,1.9112,380.1454],
    [22128,1532815956,57.0495,-111.8206,1180.6,828.6,182.5,2.3,-11.6,22.24,37.27,1.9108,379.4135],
    [22129,1532815957,57.0489,-111.8206,1182.9,830.9,181.9,1.5,-10.5,22.25,37.03,1.9105,379.9627],
    [22130,1532815958,57.0483,-111.8206,1185.1,832.4,181.1,0.9,-8.5,22.06,37.6,1.9101,379.971],
    [22131,1532815959,57.0477,-111.8206,1186.9,833.9,182.1,1.9,-9.2,21.78,38.5,1.9098,379.4231],
    [22132,1532815960,57.0471,-111.8206,1188.3,835.3,182.1,2.3,-7.2,21.84,38.32,1.911,379.0569],
    [22133,1532815961,57.0465,-111.8206,1189.4,836.4,181.6,2.2,-5.7,21.74,38.14,1.9103,377.9487],
    [22134,1532815962,57.046,-111.8206,1190.4,837.4,182.1,2.9,-6.3,21.97,37.81,1.9122,380.4251],
    [22135,1532815963,57.0454,-111.8206,1192.1,839.1,182.8,3.5,-5.8,22.04,37.58,1.9111,380.8724],
    [22136,1532815964,57.0448,-111.8206,1194.7,841.7,182.8,3.4,-5.1,21.52,38.41,1.9096,380.8724],
    [22137,1532815965,57.0442,-111.8205,1199.1,846.1,182.4,3.2,-4.5,21.51,38.05,1.9101,380.2838],
    [22138,1532815966,57.0436,-111.8205,1205.1,852.1,182.3,3.3,-3.1,21.4,38.14,1.9097,381.0031],
    [22139,1532815967,57.0431,-111.8205,1212.0,859.7,182.0,3.0,-1.4,20.93,38.29,1.9094,379.9351],
    [22140,1532815968,57.0425,-111.8205,1219.7,867.7,181.7,2.7,-1.0,21.51,37.81,1.9094,379.2525],
    [22141,1532815969,57.042,-111.8205,1228.0,875.0,181.4,2.6,1.3,21.67,37.9,1.909,379.1078],
    [22142,1532815970,57.0415,-111.8205,1236.7,883.1,180.8,2.2,2.2,21.36,38.69,1.9095,379.1078],
    [22143,1532815971,57.041,-111.8204,1246.5,891.2,179.3,1.1,2.9,22.01,37.13,1.9095,379.1878],
    [22144,1532815972,57.0405,-111.8204,1256.6,899.6,178.1,0.5,5.0,21.27,37.89,1.9087,379.1878],
    [22145,1532815973,57.04,-111.8204,1265.6,908.6,178.8,1.3,6.8,21.15,38.46,1.9093,379.6183],
    [22146,1532815974,57.0395,-111.8203,1273.0,916.0,180.0,1.9,8.1,21.78,37.54,1.9101,379.3104],
    [22147,1532815975,57.039,-111.8203,1279.9,921.9,180.5,1.8,9.4,21.82,37.53,1.9094,380.6627],
    [22148,1532815976,57.0386,-111.8203,1287.2,929.2,180.0,0.9,11.1,21.18,38.27,1.9099,380.6627],
    [22149,1532815977,57.0381,-111.8203,1294.9,936.9,179.8,0.7,12.4,21.14,37.94,1.909,379.5785],
    [22150,1532815978,57.0377,-111.8202,1300.9,942.9,181.3,2.3,13.7,21.69,37.7,1.9099,379.7276],
    [22151,1532815979,57.0372,-111.8202,1305.5,947.5,181.5,2.1,14.7,20.73,37.7,1.9102,379.6992],
    [22152,1532815980,57.0368,-111.8202,1309.2,951.2,180.3,1.2,14.9,21.26,37.62,1.9113,379.4905],
    [22153,1532815981,57.0363,-111.8202,1312.1,954.1,181.5,2.6,15.9,21.43,38.12,1.9103,378.811],
    [22154,1532815982,57.0359,-111.8202,1315.2,957.2,181.4,2.5,17.0,21.29,37.94,1.9108,380.0648],
    [22155,1532815983,57.0355,-111.8202,1318.4,959.4,181.1,2.5,18.3,20.97,38.13,1.9106,380.0797],
    [22156,1532815984,57.035,-111.8202,1320.9,961.9,182.3,3.8,18.4,21.23,38.3,1.91,379.6284],
    [22157,1532815985,57.0346,-111.8201,1323.1,964.1,183.0,4.5,18.3,21.42,38.12,1.9091,380.0912],
    [22158,1532815986,57.0342,-111.8201,1325.8,966.8,182.4,3.8,17.8,21.73,38.08,1.9102,379.8895],
    [22159,1532815987,57.0337,-111.8201,1329.2,970.2,181.9,3.3,17.3,20.92,38.46,1.9102,379.6824],
    [22160,1532815988,57.0333,-111.8201,1332.7,973.7,181.6,3.0,18.6,21.29,37.98,1.9104,380.4327],
    [22161,1532815989,57.0329,-111.8201,1335.4,976.4,181.5,3.2,18.1,21.37,38.17,1.9087,379.6497],
    [22162,1532815990,57.0324,-111.82,1337.3,977.8,182.1,3.9,18.6,21.37,38.35,1.9083,381.0988],
    [22163,1532815991,57.032,-111.82,1338.1,978.4,181.8,3.7,17.4,21.41,37.62,1.909,381.2923],
    [22164,1532815992,57.0316,-111.82,1338.7,979.6,180.8,2.6,17.5,21.2,37.61,1.9087,379.6726],
    [22165,1532815993,57.0311,-111.82,1338.9,980.6,180.6,2.7,17.4,21.42,38.15,1.9089,379.4661],
    [22166,1532815994,57.0307,-111.8199,1338.9,983.5,182.0,4.2,16.7,22.2,36.72,1.9091,380.0084],
    [22167,1532815995,57.0302,-111.8199,1338.9,989.7,181.8,3.8,16.3,21.32,37.76,1.9093,379.6555],
    [22168,1532815996,57.0298,-111.8199,1339.0,993.0,180.5,2.3,15.5,21.28,37.12,1.9092,378.996],
    [22169,1532815997,57.0293,-111.8198,1338.9,997.3,179.6,1.2,14.9,21.36,38.04,1.909,379.7795],
    [22170,1532815998,57.0288,-111.8198,1338.7,998.6,179.2,0.5,14.4,21.42,37.61,1.9085,380.5369],
    [22171,1532815999,57.0284,-111.8198,1339.5,999.2,178.9,0.1,13.0,20.93,37.52,1.9086,378.9886],
    [22172,1532816000,57.0279,-111.8198,1340.6,997.6,180.1,1.5,11.8,21.2,37.71,1.9094,378.9793],
    [22173,1532816001,57.0274,-111.8197,1341.1,995.4,182.8,4.4,10.3,21.4,37.45,1.9097,379.327],
    [22174,1532816002,57.0269,-111.8197,1340.7,992.5,184.7,5.7,9.4,21.08,37.61,1.9084,380.3432],
    [22175,1532816003,57.0264,-111.8197,1339.9,990.2,183.5,3.6,8.8,21.04,37.53,1.9074,379.034],
    [22176,1532816004,57.0259,-111.8197,1339.4,988.4,182.5,2.4,8.0,21.32,37.84,1.9089,379.4989],
    [22177,1532816005,57.0253,-111.8198,1338.8,985.5,182.5,2.3,7.3,20.49,37.72,1.9081,380.1161],
    [22178,1532816006,57.0248,-111.8198,1338.7,982.7,182.8,2.7,6.6,20.79,37.53,1.9071,379.8203],
    [22179,1532816007,57.0243,-111.8198,1338.6,981.6,184.5,4.0,6.1,22.03,36.77,1.9089,379.8203],
    [22180,1532816008,57.0237,-111.8198,1339.0,984.3,183.6,2.8,5.6,21.88,37.2,1.9087,379.0385],
    [22181,1532816009,57.0232,-111.8198,1339.7,990.3,183.8,3.2,5.5,21.38,37.52,1.908,380.2257],
    [22182,1532816010,57.0227,-111.8198,1340.2,997.5,184.8,4.1,5.1,21.32,37.82,1.9083,379.6814],
    [22183,1532816011,57.0221,-111.8199,1341.4,1004.2,183.7,2.6,5.1,21.47,37.38,1.9085,378.6626],
    [22184,1532816012,57.0216,-111.8199,1342.9,1009.3,183.3,2.5,5.1,21.57,37.8,1.9088,380.6202],
    [22185,1532816013,57.0211,-111.8199,1344.2,1014.0,184.0,3.2,5.4,21.01,37.59,1.9093,379.0868],
    [22186,1532816014,57.0205,-111.8199,1345.4,1017.8,182.5,1.6,5.3,21.39,37.26,1.9125,380.0475],
    [22187,1532816015,57.02,-111.8199,1346.7,1019.3,181.1,0.3,5.5,22.03,36.96,1.9123,380.0095],
    [22188,1532816016,57.0195,-111.82,1347.4,1019.3,181.2,0.5,5.3,21.84,37.38,1.9111,379.2034],
    [22189,1532816017,57.0189,-111.82,1346.9,1016.4,180.2,-0.4,5.0,21.33,38.57,1.9122,379.4024],
    [22190,1532816018,57.0184,-111.82,1345.6,1006.9,179.5,-0.9,4.7,21.4,38.12,1.9109,379.2861],
    [22191,1532816019,57.0179,-111.82,1343.8,994.4,179.0,-1.2,4.1,20.73,38.42,1.9137,379.8177],
    [22192,1532816020,57.0173,-111.82,1341.4,984.5,180.2,0.0,3.7,20.8,38.7,1.9114,378.8799],
    [22193,1532816021,57.0168,-111.82,1339.8,978.0,181.0,0.5,4.1,20.56,39.01,1.9101,380.2369],
    [22194,1532816022,57.0162,-111.82,1338.9,975.0,181.2,0.5,3.2,21.33,39.1,1.9099,377.9128],
    [22195,1532816023,57.0156,-111.82,1338.3,973.3,182.0,1.0,3.7,21.03,39.1,1.909,378.6313],
    [22196,1532816024,57.0151,-111.82,1337.6,972.6,182.4,0.9,1.8,20.9,39.26,1.9084,379.954],
    [22197,1532816025,57.0145,-111.8201,1336.7,971.7,182.8,1.2,2.3,21.33,39.83,1.9089,378.107],
    [22198,1532816026,57.0139,-111.8201,1335.6,970.6,182.8,1.2,2.5,21.21,39.2,1.9096,379.0379],
    [22199,1532816027,57.0133,-111.8201,1334.7,969.7,183.2,2.1,2.0,20.87,39.37,1.9091,378.5018],
    [22200,1532816028,57.0128,-111.8202,1334.7,969.7,183.2,2.4,1.1,21.35,39.46,1.9094,378.6352],
    [22201,1532816029,57.0122,-111.8202,1335.3,970.3,181.2,0.9,0.9,21.07,39.62,1.9093,378.6497],
    [22202,1532816030,57.0116,-111.8202,1335.8,970.8,181.6,2.2,0.8,21.16,39.38,1.9086,378.7514],
    [22203,1532816031,57.011,-111.8202,1334.7,968.6,181.8,2.5,0.7,21.41,39.97,1.9085,379.3653],
    [22204,1532816032,57.0104,-111.8202,1334.1,968.1,180.1,1.5,0.4,21.26,39.8,1.909,379.3653],
    [22205,1532816033,57.0098,-111.8201,1332.9,965.9,181.3,3.1,0.2,22.17,39.23,1.9094,377.8754],
    [22206,1532816034,57.0092,-111.8201,1331.9,964.9,180.5,2.2,1.2,21.46,39.57,1.9111,377.8754],
    [22207,1532816035,57.0087,-111.8201,1331.8,963.8,179.5,1.6,0.9,20.77,39.72,1.9089,377.8149],
    [22208,1532816036,57.0081,-111.82,1332.5,964.5,180.6,2.7,1.2,21.74,39.37,1.9084,377.8149],
    [22209,1532816037,57.0075,-111.82,1333.2,965.2,179.9,1.9,1.3,21.61,39.46,1.9089,378.6397],
    [22210,1532816038,57.0069,-111.82,1333.8,965.8,180.3,2.3,1.2,21.26,39.91,1.9101,377.8487],
    [22211,1532816039,57.0063,-111.8199,1334.2,966.2,181.5,3.3,1.2,21.48,39.77,1.9089,378.581],
    [22212,1532816040,57.0058,-111.8199,1334.6,966.6,181.2,2.8,1.6,21.16,40.16,1.9086,377.9553],
    [22213,1532816041,57.0052,-111.8199,1334.7,966.2,181.8,3.2,1.5,21.59,39.37,1.9082,379.913],
    [22214,1532816042,57.0046,-111.8199,1334.6,965.6,182.0,3.2,0.9,20.75,40.01,1.9096,379.913],
    [22215,1532816043,57.004,-111.8199,1334.9,965.9,182.5,3.6,0.9,21.51,39.38,1.909,378.8698],
    [22216,1532816044,57.0035,-111.8199,1335.5,966.4,182.1,3.3,1.4,21.61,39.4,1.9076,379.0061],
    [22217,1532816045,57.0029,-111.8198,1336.2,966.2,182.0,3.3,1.7,21.1,39.61,1.9082,378.6526],
    [22218,1532816046,57.0023,-111.8198,1336.9,966.9,182.3,3.6,1.9,20.93,39.49,1.9082,378.6226],
    [22219,1532816047,57.0018,-111.8198,1337.1,967.1,182.8,3.9,2.4,21.3,39.8,1.908,379.0077],
    [22220,1532816048,57.0012,-111.8198,1337.2,966.3,183.1,4.0,1.6,21.26,39.91,1.9088,378.9],
    [22221,1532816049,57.0006,-111.8198,1336.9,965.9,183.4,4.0,0.8,20.87,39.17,1.9082,378.7911],
    [22222,1532816050,57.0,-111.8198,1336.0,964.9,183.3,3.8,0.6,20.9,39.41,1.9078,379.2402],
    [22223,1532816051,56.9995,-111.8198,1335.2,964.1,182.8,3.0,-0.9,21.09,39.04,1.9086,378.6988],
    [22224,1532816052,56.9989,-111.8198,1334.2,962.5,182.9,3.6,0.4,21.03,38.95,1.9084,379.6758],
    [22225,1532816053,56.9983,-111.8198,1332.6,960.7,183.8,4.6,0.6,21.37,39.45,1.9085,378.4437],
    [22226,1532816054,56.9978,-111.8198,1331.8,959.9,182.7,3.9,0.1,21.54,38.61,1.9099,378.4437],
    [22227,1532816055,56.9972,-111.8198,1331.5,959.5,182.7,4.0,-0.5,20.75,39.1,1.909,378.8905],
    [22228,1532816056,56.9966,-111.8197,1331.4,959.4,182.4,3.8,-0.2,21.54,38.52,1.9086,379.036],
    [22229,1532816057,56.9961,-111.8197,1331.3,959.3,181.9,3.7,-0.4,21.29,39.64,1.9089,378.8925],
    [22230,1532816058,56.9955,-111.8197,1330.6,958.6,182.2,4.2,-0.2,21.45,38.78,1.9075,378.8862],
    [22231,1532816059,56.9949,-111.8197,1330.2,958.1,181.3,3.7,-0.8,21.14,38.96,1.9086,377.9946],
    [22232,1532816060,56.9944,-111.8196,1329.8,957.8,181.1,4.0,-1.3,21.05,39.1,1.9071,378.5573],
    [22233,1532816061,56.9938,-111.8196,1329.2,957.2,182.3,4.9,-2.0,20.85,39.16,1.9076,378.4687],
    [22234,1532816062,56.9932,-111.8195,1328.4,956.4,182.7,4.6,-2.7,21.51,38.86,1.908,376.7624],
    [22235,1532816063,56.9927,-111.8195,1327.6,955.6,183.5,4.6,-3.0,21.5,39.29,1.9077,378.6741],
    [22236,1532816064,56.9921,-111.8195,1326.4,954.4,184.6,4.7,-3.5,21.52,39.32,1.9077,379.6396],
    [22237,1532816065,56.9915,-111.8195,1325.6,954.3,183.6,2.6,-4.2,21.44,39.17,1.9084,379.6396],
    [22238,1532816066,56.9909,-111.8196,1326.2,955.2,185.0,3.7,-5.0,20.98,39.46,1.907,378.3213],
    [22239,1532816067,56.9904,-111.8196,1326.4,955.4,186.4,4.1,-5.5,21.33,39.46,1.9089,379.2543],
    [22240,1532816068,56.9898,-111.8196,1327.2,956.2,183.7,1.7,-5.5,21.15,38.97,1.9075,379.2934],
    [22241,1532816069,56.9892,-111.8197,1328.4,957.4,183.8,2.6,-4.7,20.98,39.63,1.9091,378.7431],
    [22242,1532816070,56.9886,-111.8197,1329.5,958.5,184.0,3.3,-4.4,20.82,38.92,1.9083,378.9157],
    [22243,1532816071,56.988,-111.8197,1331.6,960.6,182.6,2.5,-3.7,20.85,38.77,1.9087,377.8782],
    [22244,1532816072,56.9874,-111.8197,1333.8,962.8,183.1,3.2,-3.8,21.34,38.67,1.9079,377.8782],
    [22245,1532816073,56.9868,-111.8197,1335.5,964.1,183.0,3.0,-3.4,21.32,39.06,1.9076,378.9243],
    [22246,1532816074,56.9863,-111.8197,1336.1,964.1,182.9,2.7,-3.2,21.43,38.95,1.9073,379.47],
    [22247,1532816075,56.9857,-111.8197,1336.1,964.1,183.5,3.0,-1.1,20.79,38.81,1.9073,380.3953],
    [22248,1532816076,56.9851,-111.8197,1336.3,964.3,183.7,3.0,-1.1,20.89,38.79,1.9071,380.3953],
    [22249,1532816077,56.9845,-111.8198,1336.5,964.5,184.1,3.2,-1.0,21.59,38.69,1.907,379.6514],
    [22250,1532816078,56.984,-111.8198,1336.7,964.7,184.2,3.3,-0.8,21.64,38.55,1.9075,379.5653],
    [22251,1532816079,56.9834,-111.8198,1336.5,964.5,185.5,4.3,-1.3,21.07,38.96,1.9078,379.261],
    [22252,1532816080,56.9828,-111.8198,1335.8,962.8,185.9,4.2,-1.3,21.72,38.39,1.908,379.1794],
    [22253,1532816081,56.9823,-111.8199,1334.9,961.9,185.2,3.4,-1.2,20.93,39.45,1.9082,379.1794],
    [22254,1532816082,56.9817,-111.8199,1333.7,960.7,185.4,3.5,-1.5,21.22,38.58,1.9085,379.4642],
    [22255,1532816083,56.9811,-111.82,1332.3,959.3,185.4,3.6,-1.3,20.86,38.78,1.9082,378.7884],
    [22256,1532816084,56.9806,-111.82,1330.8,956.8,185.3,3.6,-1.7,21.36,38.68,1.9086,378.3116],
    [22257,1532816085,56.98,-111.82,1329.4,955.4,185.6,3.8,-2.6,21.17,38.7,1.9102,378.3116],
    [22258,1532816086,56.9794,-111.8201,1328.2,953.9,185.9,3.9,-1.8,20.57,39.31,1.9089,379.1121],
    [22259,1532816087,56.9789,-111.8201,1326.7,951.7,185.6,3.5,-1.6,20.73,39.05,1.909,379.1065],
    [22260,1532816088,56.9783,-111.8201,1325.7,950.7,185.1,2.9,-0.7,21.04,39.24,1.9081,379.025],
    [22261,1532816089,56.9777,-111.8202,1324.9,948.9,185.5,3.3,0.2,21.86,38.97,1.9088,378.792],
    [22262,1532816090,56.9772,-111.8202,1324.0,948.0,186.0,3.6,0.1,21.63,39.36,1.9094,379.596],
    [22263,1532816091,56.9766,-111.8203,1323.2,947.2,185.8,3.4,0.8,21.23,39.5,1.9087,380.3737],
    [22264,1532816092,56.976,-111.8203,1323.3,946.3,186.0,3.6,0.2,21.66,39.3,1.9079,377.3118],
    [22265,1532816093,56.9755,-111.8204,1325.1,948.1,185.2,3.5,1.3,20.96,39.77,1.9083,378.4676],
    [22266,1532816094,56.9749,-111.8204,1327.8,950.1,185.1,3.8,2.8,21.2,39.52,1.9087,379.6321],
    [22267,1532816095,56.9744,-111.8204,1330.2,952.2,183.3,2.2,3.3,21.0,39.61,1.9084,378.302],
    [22268,1532816096,56.9738,-111.8205,1331.5,953.5,183.8,3.1,2.7,21.11,39.3,1.9067,378.8851],
    [22269,1532816097,56.9733,-111.8205,1331.7,952.7,185.1,4.2,3.4,21.98,38.94,1.9061,378.8851],
    [22270,1532816098,56.9727,-111.8205,1332.3,953.0,183.9,3.2,3.3,21.32,38.9,1.9069,377.4984],
    [22271,1532816099,56.9722,-111.8205,1333.4,953.4,183.8,3.5,3.9,21.17,39.05,1.9084,377.2198],
    [22272,1532816100,56.9716,-111.8205,1334.7,953.6,183.6,3.4,3.4,20.58,39.5,1.9079,378.9719],
    [22273,1532816101,56.9711,-111.8206,1336.0,953.9,183.5,3.6,3.6,21.72,39.03,1.9069,378.9719],
    [22274,1532816102,56.9705,-111.8206,1337.3,955.3,184.3,4.3,3.5,20.75,39.69,1.9073,379.1381],
    [22275,1532816103,56.97,-111.8206,1338.9,955.9,184.3,4.1,3.1,21.0,39.56,1.9083,379.6112],
    [22276,1532816104,56.9694,-111.8206,1340.7,956.6,185.1,4.7,3.3,20.77,38.99,1.9082,377.7199],
    [22277,1532816105,56.9689,-111.8206,1342.0,957.0,184.7,4.6,3.2,21.05,38.82,1.9075,379.0717],
    [22278,1532816106,56.9683,-111.8206,1343.9,958.2,183.7,4.2,3.5,20.93,38.66,1.9075,379.1979],
    [22279,1532816107,56.9678,-111.8206,1346.4,960.4,183.4,4.5,4.1,21.78,38.36,1.9079,377.4035],
    [22280,1532816108,56.9673,-111.8206,1349.2,961.5,182.8,4.4,5.4,21.08,39.61,1.9082,379.0389],
    [22281,1532816109,56.9667,-111.8206,1351.4,962.4,183.1,5.1,5.5,21.05,39.45,1.9075,379.0389],
    [22282,1532816110,56.9662,-111.8205,1352.6,962.6,184.1,6.1,5.5,20.92,39.08,1.9084,378.5542],
    [22283,1532816111,56.9657,-111.8205,1353.4,962.5,183.8,5.8,6.4,20.8,39.16,1.9073,379.1909],
    [22284,1532816112,56.9651,-111.8205,1353.5,961.2,184.0,6.0,6.9,21.07,38.94,1.9063,379.0422],
    [22285,1532816113,56.9646,-111.8205,1353.3,959.3,183.5,5.5,6.9,21.02,38.97,1.908,378.864],
    [22286,1532816114,56.964,-111.8204,1353.1,958.5,182.5,4.5,6.4,21.4,38.57,1.9093,378.864],
    [22287,1532816115,56.9635,-111.8204,1352.7,956.6,182.5,4.5,6.8,21.68,38.44,1.9081,379.7069],
    [22288,1532816116,56.963,-111.8204,1351.6,954.6,182.8,4.8,6.1,21.01,38.58,1.9069,378.5206],
    [22289,1532816117,56.9624,-111.8204,1350.2,952.5,182.5,4.1,6.1,20.87,38.81,1.907,380.0442],
    [22290,1532816118,56.9619,-111.8203,1348.8,950.5,182.2,3.7,5.3,21.42,38.39,1.9088,380.0442],
    [22291,1532816119,56.9613,-111.8203,1347.3,947.3,183.3,4.6,5.3,21.2,38.84,1.9082,379.3463],
    [22292,1532816120,56.9608,-111.8203,1346.0,945.3,183.3,4.2,5.3,21.31,38.32,1.9065,378.46],
    [22293,1532816121,56.9602,-111.8203,1345.5,944.2,183.3,4.1,6.3,20.58,38.93,1.907,379.3554],
    [22294,1532816122,56.9597,-111.8203,1346.1,944.1,183.0,3.7,6.5,20.89,38.69,1.9072,378.2605],
    [22295,1532816123,56.9591,-111.8203,1347.7,945.0,181.9,2.7,6.2,20.97,38.83,1.9069,379.4632],
    [22296,1532816124,56.9586,-111.8203,1350.2,947.2,181.0,2.3,6.5,20.66,38.7,1.9077,378.2691],
    [22297,1532816125,56.958,-111.8203,1352.3,949.3,181.0,2.6,6.6,21.16,38.3,1.9081,378.2837],
    [22298,1532816126,56.9575,-111.8203,1354.4,951.4,180.9,2.5,7.3,20.96,38.73,1.9081,378.4167],
    [22299,1532816127,56.9569,-111.8202,1357.2,954.2,180.4,2.0,7.7,20.93,39.55,1.9077,378.755],
    [22300,1532816128,56.9564,-111.8202,1360.0,957.0,180.5,2.3,7.2,21.0,39.03,1.9066,378.4356],
    [22301,1532816129,56.9559,-111.8202,1361.5,957.5,181.6,3.6,7.7,21.12,39.02,1.9062,378.4847],
    [22302,1532816130,56.9553,-111.8201,1361.7,957.7,181.9,3.8,7.4,20.97,38.89,1.9071,379.2898],
    [22303,1532816131,56.9548,-111.8201,1360.3,956.3,181.9,4.0,7.0,21.12,38.92,1.9081,378.1216],
    [22304,1532816132,56.9542,-111.8201,1358.0,953.7,181.8,3.8,7.4,20.72,39.11,1.907,378.2223],
    [22305,1532816133,56.9537,-111.8201,1355.3,950.3,180.3,2.3,7.6,20.65,39.19,1.9061,379.3321],
    [22306,1532816134,56.9531,-111.82,1352.9,947.9,180.2,2.6,7.8,20.92,39.02,1.9066,378.5168],
    [22307,1532816135,56.9526,-111.82,1350.4,945.4,181.4,4.0,6.6,21.56,38.61,1.907,379.0824],
    [22308,1532816136,56.952,-111.82,1347.4,941.4,182.5,4.9,5.9,20.78,39.24,1.9065,378.9114],
    [22309,1532816137,56.9514,-111.8199,1344.4,938.4,181.9,4.2,6.7,20.94,39.64,1.9062,379.2619],
    [22310,1532816138,56.9509,-111.8199,1342.3,936.3,181.4,4.0,5.4,20.83,39.08,1.9066,379.8023],
    [22311,1532816139,56.9503,-111.8198,1340.9,934.9,180.8,3.9,5.9,21.36,38.79,1.908,379.7909],
    [22312,1532816140,56.9497,-111.8198,1341.2,934.2,179.9,3.3,5.8,21.12,38.61,1.9065,381.5962],
    [22313,1532816141,56.9491,-111.8197,1343.8,936.8,179.6,3.0,6.5,20.96,38.85,1.907,379.3076],
    [22314,1532816142,56.9486,-111.8197,1348.2,940.9,179.4,2.9,7.6,20.75,39.23,1.9084,379.0799],
    [22315,1532816143,56.948,-111.8196,1353.5,945.5,179.7,2.7,8.2,20.45,38.86,1.907,379.0799],
    [22316,1532816144,56.9474,-111.8196,1359.1,951.1,178.4,1.2,7.8,20.12,39.0,1.9086,379.7314],
    [22317,1532816145,56.9469,-111.8195,1363.8,954.8,179.4,2.4,8.1,20.65,38.69,1.9067,379.1837],
    [22318,1532816146,56.9463,-111.8195,1367.5,958.5,180.0,3.1,8.4,20.75,38.6,1.9088,379.9423],
    [22319,1532816147,56.9457,-111.8194,1370.9,961.8,179.8,2.9,8.4,20.6,38.54,1.9073,380.3538],
    [22320,1532816148,56.9452,-111.8194,1374.8,964.8,180.6,3.7,8.2,20.16,38.61,1.9065,380.3538],
    [22321,1532816149,56.9446,-111.8193,1378.7,968.7,180.1,3.2,7.9,21.0,38.16,1.9073,380.1611],
    [22322,1532816150,56.944,-111.8193,1382.2,971.4,179.8,2.8,7.8,21.62,37.71,1.9073,379.369],
    [22323,1532816151,56.9435,-111.8192,1385.3,974.3,179.5,2.5,8.1,21.46,37.44,1.9073,379.9916],
    [22324,1532816152,56.9429,-111.8192,1387.4,976.4,180.0,3.0,8.2,20.67,38.39,1.9077,380.1705],
    [22325,1532816153,56.9423,-111.8191,1388.3,976.3,179.6,2.6,9.0,20.68,38.61,1.9093,380.3546],
    [22326,1532816154,56.9418,-111.8191,1388.0,976.0,179.0,2.2,8.2,21.24,37.47,1.9076,380.2732],
    [22327,1532816155,56.9412,-111.819,1386.5,973.5,178.9,2.3,7.3,21.1,38.08,1.9084,379.2057],
    [22328,1532816156,56.9406,-111.8189,1384.2,971.2,178.3,1.6,6.5,20.76,38.29,1.9092,380.074],
    [22329,1532816157,56.94,-111.8189,1382.3,968.3,177.6,1.1,5.8,20.61,38.69,1.9105,380.074],
    [22330,1532816158,56.9394,-111.8188,1381.8,967.5,176.1,1.1,5.8,20.73,38.32,1.9087,378.695],
    [22331,1532816159,56.9388,-111.8187,1381.8,966.8,174.6,2.2,6.6,21.22,38.02,1.9095,380.1329],
    [22332,1532816160,56.9382,-111.8185,1381.6,965.9,170.0,1.0,6.8,20.8,39.2,1.9091,378.7609],
    [22333,1532816161,56.9377,-111.8182,1382.2,966.0,164.8,-0.4,7.4,20.96,38.68,1.9089,379.9822],
    [22334,1532816162,56.9371,-111.8179,1383.8,966.8,160.2,-0.6,7.4,20.75,38.46,1.9092,379.1214],
    [22335,1532816163,56.9365,-111.8174,1386.1,968.1,155.4,-0.8,6.9,20.64,39.09,1.9088,379.2015],
    [22336,1532816164,56.936,-111.8169,1387.8,968.8,151.5,-0.9,7.0,20.29,38.69,1.9085,379.2798],
    [22337,1532816165,56.9355,-111.8163,1390.2,970.2,146.5,-2.0,5.8,20.84,38.92,1.9105,379.0388],
    [22338,1532816166,56.935,-111.8156,1393.5,972.4,142.0,-3.0,5.2,20.85,38.81,1.9097,379.3598],
    [22339,1532816167,56.9345,-111.8149,1396.8,975.8,140.3,-2.1,6.4,20.83,38.92,1.9079,378.9124],
    [22340,1532816168,56.9341,-111.8141,1399.1,978.1,137.4,-1.9,5.4,20.7,38.92,1.9079,379.2756],
    [22341,1532816169,56.9337,-111.8133,1401.1,980.1,133.6,-2.9,4.8,20.44,38.9,1.9104,379.212],
    [22342,1532816170,56.9333,-111.8125,1403.7,982.7,130.8,-1.9,4.3,21.76,38.31,1.9086,379.9131],
    [22343,1532816171,56.9329,-111.8116,1406.1,985.1,128.5,-1.4,4.2,20.98,38.82,1.9093,379.9131],
    [22344,1532816172,56.9325,-111.8107,1408.5,987.5,125.5,-2.6,4.7,21.56,38.33,1.9091,379.4511],
    [22345,1532816173,56.9322,-111.8097,1410.9,990.9,123.6,-0.7,3.9,20.71,39.13,1.9085,378.8624],
    [22346,1532816174,56.9319,-111.8087,1413.6,993.6,120.8,-1.2,3.3,20.49,38.62,1.9084,378.3044],
    [22347,1532816175,56.9316,-111.8077,1415.9,996.9,119.0,-1.6,3.6,20.95,38.89,1.9093,378.2417],
    [22348,1532816176,56.9313,-111.8067,1418.4,1000.5,116.7,-1.0,3.5,21.1,38.45,1.9097,378.113],
    [22349,1532816177,56.9311,-111.8057,1420.9,1002.9,114.3,-2.0,3.8,21.03,38.72,1.9114,380.1872],
    [22350,1532816178,56.9309,-111.8046,1423.2,1005.2,110.5,-2.6,2.4,20.68,39.49,1.9114,377.5623],
    [22351,1532816179,56.9307,-111.8035,1425.2,1007.2,106.6,-1.6,1.2,21.33,38.7,1.9091,378.8302],
    [22352,1532816180,56.9305,-111.8024,1426.1,1008.1,104.6,-0.7,1.7,20.38,38.68,1.9109,379.0161],
    [22353,1532816181,56.9304,-111.8012,1425.5,1007.5,103.5,-1.7,3.3,20.79,39.43,1.9092,379.0416],
    [22354,1532816182,56.9303,-111.8001,1423.9,1006.9,101.0,-1.4,2.3,21.28,38.18,1.9115,378.8948],
    [22355,1532816183,56.9302,-111.7989,1423.0,1007.0,97.8,-1.4,0.7,20.57,38.9,1.9119,379.0189],
    [22356,1532816184,56.9301,-111.7977,1421.0,1005.8,98.3,-1.3,2.7,21.78,38.15,1.9106,379.7997],
    [22357,1532816185,56.93,-111.7965,1418.5,1003.5,96.2,-1.2,1.3,21.08,38.56,1.9118,380.0034],
    [22358,1532816186,56.93,-111.7953,1415.7,1001.7,94.7,-1.8,1.1,20.79,38.87,1.9145,378.5997],
    [22359,1532816187,56.93,-111.7942,1413.0,1000.0,93.9,-2.0,1.2,20.51,38.75,1.9124,379.5691],
    [22360,1532816188,56.9299,-111.793,1410.8,997.8,92.8,-2.0,1.4,20.91,38.86,1.9122,380.2392],
    [22361,1532816189,56.9299,-111.7918,1408.4,996.4,91.7,-1.9,1.2,20.54,38.99,1.9106,379.8108],
    [22362,1532816190,56.9299,-111.7906,1406.2,994.2,89.4,-1.4,-0.1,21.72,38.55,1.9094,378.1359],
    [22363,1532816191,56.9299,-111.7894,1404.1,993.1,88.4,-0.9,-0.2,21.04,38.45,1.9094,379.6392],
    [22364,1532816192,56.9299,-111.7882,1401.6,990.6,87.7,-0.7,-0.5,20.79,38.75,1.9117,380.324],
    [22365,1532816193,56.93,-111.787,1398.7,988.7,87.5,-0.4,-0.4,21.27,38.28,1.9145,378.6236],
    [22366,1532816194,56.93,-111.7858,1394.7,984.7,88.1,0.0,0.0,20.58,38.34,1.9145,379.5156],
    [22367,1532816195,56.93,-111.7846,1390.9,980.9,88.1,0.8,-0.1,21.22,38.13,1.9145,379.449],
    [22368,1532816196,56.93,-111.7833,1387.5,977.5,89.7,1.4,1.5,20.62,38.55,1.9155,378.9511],
    [22369,1532816197,56.93,-111.7821,1385.5,975.5,90.1,1.1,1.4,20.9,39.51,1.9177,378.8465],
    [22370,1532816198,56.9301,-111.7809,1384.4,974.4,90.2,0.8,1.4,20.61,39.13,1.9156,379.0034],
    [22371,1532816199,56.9301,-111.7796,1383.6,973.6,90.4,1.3,1.8,20.76,39.37,1.9135,379.1053],
    [22372,1532816200,56.9301,-111.7784,1382.9,972.9,90.5,3.0,2.2,20.83,39.41,1.9125,378.6761],
    [22373,1532816201,56.9301,-111.7772,1381.9,972.6,90.3,2.8,2.0,20.87,39.46,1.9139,378.7584],
    [22374,1532816202,56.9301,-111.7759,1380.8,971.6,90.4,3.3,2.2,21.45,38.68,1.9149,378.1566],
    [22375,1532816203,56.9301,-111.7747,1379.8,970.8,91.1,4.6,3.1,21.66,39.0,1.9144,379.8893],
    [22376,1532816204,56.9301,-111.7734,1379.5,970.5,90.5,5.2,2.3,20.87,39.91,1.9122,379.092],
    [22377,1532816205,56.9302,-111.7722,1380.0,972.0,89.1,4.8,1.0,20.81,39.41,1.9108,378.0922],
    [22378,1532816206,56.9302,-111.7709,1380.9,972.9,89.1,5.7,1.2,21.64,38.46,1.9114,379.3515],
    [22379,1532816207,56.9302,-111.7697,1382.0,974.7,90.0,5.8,2.0,20.95,39.01,1.912,378.765],
    [22380,1532816208,56.9302,-111.7684,1383.8,976.8,89.3,4.6,1.4,21.21,38.66,1.9143,378.6063],
    [22381,1532816209,56.9302,-111.7672,1385.5,978.5,89.3,3.2,1.7,20.9,39.66,1.9194,378.0831],
    [22382,1532816210,56.9303,-111.7659,1387.4,981.2,90.0,3.5,2.3,21.64,38.57,1.9186,377.2375],
    [22383,1532816211,56.9303,-111.7646,1390.1,984.1,90.7,3.3,2.9,20.81,39.63,1.9162,377.2375],
    [22384,1532816212,56.9303,-111.7634,1392.2,987.3,91.5,2.9,3.7,20.98,40.52,1.9163,378.0012],
    [22385,1532816213,56.9303,-111.7622,1393.7,988.7,91.1,3.1,2.8,20.65,40.21,1.9153,378.2132],
    [22386,1532816214,56.9303,-111.7609,1395.0,990.0,89.9,3.4,1.5,20.93,40.78,1.9162,377.5089],
    [22387,1532816215,56.9303,-111.7597,1396.5,992.5,90.7,3.4,2.3,20.45,41.21,1.914,377.6756],
    [22388,1532816216,56.9303,-111.7584,1397.8,994.1,90.8,3.6,2.3,21.65,40.21,1.9154,377.6893],
    [22389,1532816217,56.9304,-111.7572,1398.9,995.9,90.6,3.7,2.0,20.71,40.84,1.9156,377.9044],
    [22390,1532816218,56.9304,-111.7559,1400.4,998.4,90.8,4.0,2.2,21.69,40.32,1.9157,377.4845],
    [22391,1532816219,56.9304,-111.7547,1401.9,1001.0,91.3,3.9,2.6,20.21,41.0,1.916,377.6657],
    [22392,1532816220,56.9304,-111.7534,1403.4,1004.4,91.1,4.2,2.6,21.04,40.95,1.9148,378.0043],
    [22393,1532816221,56.9304,-111.7522,1403.9,1007.8,90.9,4.2,2.5,20.67,41.19,1.9154,375.0989],
    [22394,1532816222,56.9304,-111.751,1403.9,1009.2,90.8,3.9,3.0,21.08,41.78,1.9157,377.9916],
    [22395,1532816223,56.9304,-111.7497,1403.5,1010.4,91.9,3.3,4.3,21.35,40.98,1.918,377.9488],
    [22396,1532816224,56.9305,-111.7484,1402.7,1010.7,91.1,1.0,3.1,20.45,42.07,1.9192,377.8254],
    [22397,1532816225,56.9305,-111.7472,1402.0,1011.9,90.0,1.4,1.5,20.42,41.69,1.9185,377.8254],
    [22398,1532816226,56.9305,-111.7459,1401.6,1012.6,89.6,1.5,0.9,20.86,42.52,1.9191,377.5058],
    [22399,1532816227,56.9305,-111.7447,1400.2,1012.2,90.0,1.0,1.2,21.53,41.14,1.9178,377.0666],
    [22400,1532816228,56.9305,-111.7435,1398.2,1010.2,90.9,2.4,2.3,20.87,41.87,1.9178,378.1415],
    [22401,1532816229,56.9305,-111.7422,1395.3,1007.3,92.0,2.1,3.1,21.36,41.51,1.918,377.1444],
    [22402,1532816230,56.9305,-111.7409,1391.6,1003.6,92.5,2.9,3.5,21.62,41.75,1.9172,378.1284],
    [22403,1532816231,56.9305,-111.7397,1387.8,999.8,92.9,3.4,4.1,21.21,41.99,1.9167,377.9668],
    [22404,1532816232,56.9305,-111.7384,1384.6,996.6,92.1,3.8,3.0,20.87,42.96,1.9166,377.9741],
    [22405,1532816233,56.9305,-111.7372,1382.2,994.2,91.0,4.2,1.8,21.12,41.98,1.9167,378.9781],
    [22406,1532816234,56.9305,-111.7359,1379.9,991.9,91.4,3.6,2.0,20.75,42.91,1.9175,377.7747],
    [22407,1532816235,56.9305,-111.7347,1377.0,990.0,91.5,3.3,1.8,20.98,41.88,1.9193,377.2028],
    [22408,1532816236,56.9305,-111.7334,1373.5,986.5,92.0,4.1,2.3,21.57,41.61,1.9187,377.1074],
    [22409,1532816237,56.9305,-111.7321,1370.4,982.4,92.7,3.9,3.0,21.03,41.86,1.918,378.4824],
    [22410,1532816238,56.9305,-111.7308,1368.3,981.3,93.2,4.7,3.4,21.12,41.8,1.9173,378.0341],
    [22411,1532816239,56.9305,-111.7296,1367.1,980.1,92.8,4.1,3.2,21.23,41.37,1.9194,377.2866],
    [22412,1532816240,56.9305,-111.7283,1366.9,980.9,91.9,3.8,2.5,21.38,41.43,1.9172,377.3017],
    [22413,1532816241,56.9305,-111.727,1367.4,981.4,91.6,4.8,2.2,21.39,42.07,1.9158,377.3017],
    [22414,1532816242,56.9305,-111.7258,1367.7,982.7,91.3,3.9,2.1,21.18,42.15,1.9182,378.0252],
    [22415,1532816243,56.9305,-111.7245,1368.0,983.0,91.6,3.8,2.4,20.76,42.8,1.9183,377.7311],
    [22416,1532816244,56.9305,-111.7233,1368.4,983.4,91.6,3.6,2.3,21.54,41.54,1.9171,378.5894],
    [22417,1532816245,56.9305,-111.7221,1368.9,984.9,91.4,3.3,2.3,20.9,41.81,1.9162,377.7821],
    [22418,1532816246,56.9305,-111.7208,1369.3,985.3,90.8,3.9,1.8,20.64,41.66,1.9161,377.7904],
    [22419,1532816247,56.9305,-111.7196,1369.1,985.1,90.6,3.9,1.7,21.04,41.16,1.9142,378.4289],
    [22420,1532816248,56.9305,-111.7184,1368.3,984.3,90.2,3.5,1.4,21.19,40.86,1.9152,377.69],
    [22421,1532816249,56.9306,-111.7171,1367.4,983.7,91.0,4.6,2.6,20.76,41.85,1.9192,378.3643],
    [22422,1532816250,56.9306,-111.7159,1366.5,983.5,91.4,4.9,2.7,20.71,41.26,1.9196,376.9215],
    [22423,1532816251,56.9306,-111.7147,1365.6,982.6,90.7,4.4,1.6,21.05,41.39,1.9171,378.2088],
    [22424,1532816252,56.9306,-111.7135,1364.5,981.5,91.8,4.4,2.3,21.13,41.82,1.9188,378.3668],
    [22425,1532816253,56.9306,-111.7123,1364.0,981.9,92.5,4.7,2.5,21.16,41.55,1.9191,378.7886],
    [22426,1532816254,56.9306,-111.711,1363.3,981.3,92.9,4.4,2.7,20.94,42.5,1.9186,377.2139],
    [22427,1532816255,56.9306,-111.7099,1362.9,980.9,92.9,4.6,2.4,20.56,42.23,1.9163,377.6603],
    [22428,1532816256,56.9306,-111.7086,1363.4,981.4,92.2,3.0,1.7,21.37,42.1,1.9157,377.6789],
    [22429,1532816257,56.9305,-111.7074,1364.2,983.2,92.0,3.0,1.5,21.01,42.19,1.9129,378.198],
    [22430,1532816258,56.9305,-111.7062,1364.8,983.8,92.5,2.9,1.9,21.38,41.54,1.9155,378.3466],
    [22431,1532816259,56.9305,-111.705,1365.4,985.4,92.3,3.8,1.6,21.69,41.24,1.9145,378.1128],
    [22432,1532816260,56.9305,-111.7038,1366.3,986.3,91.5,3.7,0.5,21.17,41.13,1.9149,378.0116],
    [22433,1532816261,56.9305,-111.7025,1366.8,987.8,90.8,3.9,0.1,20.67,41.28,1.913,379.4627],
    [22434,1532816262,56.9305,-111.7013,1367.3,989.3,91.4,3.6,1.2,20.94,41.48,1.9131,379.5687],
    [22435,1532816263,56.9305,-111.7001,1367.0,989.0,91.7,3.1,1.4,20.93,40.32,1.9149,379.7706],
    [22436,1532816264,56.9305,-111.6989,1366.7,989.7,91.2,2.9,0.7,20.87,40.67,1.914,377.5371],
    [22437,1532816265,56.9305,-111.6977,1366.3,989.6,91.6,2.2,1.1,20.89,40.49,1.9174,378.5955],
    [22438,1532816266,56.9305,-111.6965,1365.3,989.3,91.8,1.8,1.4,20.8,40.06,1.9161,378.2897],
    [22439,1532816267,56.9305,-111.6952,1364.3,989.3,91.8,1.4,1.6,20.94,40.31,1.9175,378.2897],
    [22440,1532816268,56.9304,-111.694,1364.5,990.5,92.1,0.6,1.7,20.9,39.88,1.9176,377.8215],
    [22441,1532816269,56.9304,-111.6928,1365.6,992.6,91.9,1.2,1.7,20.64,40.29,1.9162,378.7443],
    [22442,1532816270,56.9304,-111.6916,1366.7,994.7,92.9,1.8,2.9,20.39,40.38,1.9181,378.255],
    [22443,1532816271,56.9304,-111.6903,1367.4,995.4,92.5,1.0,2.5,21.55,39.45,1.9168,379.0706],
    [22444,1532816272,56.9304,-111.6891,1368.0,997.0,92.0,2.1,2.6,20.56,40.23,1.9165,378.4673],
    [22445,1532816273,56.9304,-111.6879,1368.4,998.4,93.1,2.6,4.2,21.13,40.18,1.9168,378.1251],
    [22446,1532816274,56.9304,-111.6867,1368.3,998.3,91.0,2.1,2.1,21.0,40.43,1.9156,378.7463],
    [22447,1532816275,56.9304,-111.6855,1368.2,999.2,90.9,0.9,2.6,21.18,40.05,1.9168,378.4013],
    [22448,1532816276,56.9305,-111.6842,1368.1,1000.1,91.2,0.2,3.2,21.32,40.15,1.9155,380.1747],
    [22449,1532816277,56.9305,-111.683,1368.0,1001.0,90.1,-0.1,2.4,21.18,40.61,1.9156,378.8925],
    [22450,1532816278,56.9305,-111.6818,1367.8,1001.8,90.6,-0.2,3.2,21.76,39.06,1.9159,379.3169],
    [22451,1532816279,56.9305,-111.6806,1367.5,1002.5,90.0,0.5,2.8,21.68,39.62,1.912,377.9066],
    [22452,1532816280,56.9305,-111.6794,1368.2,1004.2,90.0,0.9,3.0,21.04,40.42,1.9143,378.8822],
    [22453,1532816281,56.9306,-111.6782,1368.2,1006.0,89.8,1.2,2.8,21.26,39.51,1.9146,379.7324],
    [22454,1532816282,56.9306,-111.677,1367.5,1006.5,89.3,1.8,2.4,21.1,38.91,1.9129,379.0856],
    [22455,1532816283,56.9306,-111.6758,1366.7,1006.6,90.7,2.3,3.7,21.79,38.41,1.9146,378.2217],
    [22456,1532816284,56.9306,-111.6746,1364.9,1005.8,90.4,3.2,2.5,21.03,38.58,1.9146,377.9483],
    [22457,1532816285,56.9307,-111.6734,1362.5,1004.6,90.8,3.5,2.3,20.88,38.55,1.9154,378.5261],
    [22458,1532816286,56.9307,-111.6722,1360.4,1003.4,92.5,3.2,3.6,21.1,38.42,1.9163,379.9153],
    [22459,1532816287,56.9307,-111.671,1359.0,1002.5,91.6,2.1,2.5,21.34,38.93,1.9175,379.9153],
    [22460,1532816288,56.9307,-111.6698,1357.9,1001.9,91.3,2.6,2.4,20.93,38.81,1.9165,379.4688],
    [22461,1532816289,56.9307,-111.6686,1357.4,1002.4,91.6,1.7,2.9,21.24,38.97,1.9138,378.2536],
    [22462,1532816290,56.9307,-111.6674,1357.0,1002.8,92.2,2.6,3.6,21.6,38.91,1.9153,378.6539],
    [22463,1532816291,56.9307,-111.6662,1356.1,1002.1,92.5,1.8,3.7,22.06,38.68,1.9188,377.5473],
    [22464,1532816292,56.9307,-111.665,1355.2,1001.2,92.4,1.2,3.9,21.37,39.67,1.9205,377.6237],
    [22465,1532816293,56.9307,-111.6638,1355.0,1001.0,92.0,1.7,3.7,21.53,38.87,1.9208,378.5981],
    [22466,1532816294,56.9307,-111.6626,1354.4,1000.4,91.1,1.9,3.1,21.61,39.49,1.9205,377.2125],
    [22467,1532816295,56.9307,-111.6614,1353.3,1000.3,91.7,2.7,3.7,21.05,40.0,1.9208,377.7622],
    [22468,1532816296,56.9308,-111.6602,1352.2,999.2,91.8,3.6,4.1,21.46,40.1,1.9206,378.019],
    [22469,1532816297,56.9308,-111.659,1350.7,998.7,91.0,4.1,3.5,21.89,39.79,1.919,378.4157],
    [22470,1532816298,56.9308,-111.6578,1348.2,996.2,89.8,3.6,2.6,21.09,41.29,1.9186,378.9038],
    [22471,1532816299,56.9308,-111.6567,1345.5,993.7,89.5,4.1,2.2,21.33,41.33,1.9168,378.9044],
    [22472,1532816300,56.9309,-111.6555,1343.2,992.2,88.3,5.3,1.1,21.16,41.17,1.9156,378.3195],
    [22473,1532816301,56.9309,-111.6543,1340.8,989.8,88.6,5.8,1.7,21.46,41.1,1.9121,378.9412],
    [22474,1532816302,56.9309,-111.6531,1338.2,988.2,88.9,6.6,1.7,21.01,40.84,1.9121,378.1554],
    [22475,1532816303,56.9309,-111.6519,1335.4,985.4,88.5,7.7,0.4,21.13,40.29,1.9114,378.1554],
    [22476,1532816304,56.931,-111.6506,1332.1,982.1,89.6,7.6,0.5,21.34,39.71,1.9114,378.5682],
    [22477,1532816305,56.931,-111.6494,1328.3,978.3,91.1,8.4,0.9,21.47,39.13,1.9111,378.9469],
    [22478,1532816306,56.9309,-111.6482,1324.3,975.3,92.6,9.0,1.3,21.37,38.79,1.9132,379.832],
    [22479,1532816307,56.9309,-111.647,1320.8,971.8,93.8,8.8,1.5,20.95,38.28,1.9146,379.3123],
    [22480,1532816308,56.9309,-111.6458,1317.4,968.4,94.7,10.1,1.7,21.04,38.22,1.9138,378.97],
    [22481,1532816309,56.9309,-111.6445,1313.8,965.8,96.8,9.6,3.4,20.93,38.27,1.9202,379.5762],
    [22482,1532816310,56.9308,-111.6433,1310.6,963.8,96.4,9.9,2.7,21.36,38.85,1.9212,379.3207],
    [22483,1532816311,56.9308,-111.6421,1308.0,963.0,93.9,9.9,0.6,21.75,38.41,1.9234,378.5742],
    [22484,1532816312,56.9307,-111.6408,1306.7,962.7,95.4,8.7,2.9,21.27,39.3,1.9206,378.5742],
    [22485,1532816313,56.9307,-111.6396,1305.0,961.0,95.8,8.5,3.1,21.39,40.0,1.9191,378.5897],
    [22486,1532816314,56.9307,-111.6384,1303.9,959.9,94.9,8.5,2.9,21.41,41.26,1.9197,378.222],
    [22487,1532816315,56.9307,-111.6371,1303.0,959.0,95.4,8.5,3.4,20.82,40.89,1.9186,377.9259],
    [22488,1532816316,56.9306,-111.6359,1302.0,959.0,95.0,9.4,3.2,20.67,41.04,1.9193,378.7184],
    [22489,1532816317,56.9306,-111.6347,1300.1,957.1,95.3,8.3,3.5,21.4,41.22,1.9219,378.0956],
    [22490,1532816318,56.9306,-111.6334,1297.8,955.4,95.0,6.4,3.7,20.9,41.36,1.9213,378.1302],
    [22491,1532816319,56.9306,-111.6322,1296.6,954.6,93.8,5.9,2.8,20.85,41.74,1.9205,377.7398],
    [22492,1532816320,56.9306,-111.631,1295.6,954.6,92.7,5.4,1.9,21.29,41.72,1.9216,377.6682],
    [22493,1532816321,56.9305,-111.6297,1293.8,953.5,91.6,7.1,0.7,22.11,41.72,1.9225,378.1847],
    [22494,1532816322,56.9305,-111.6285,1291.7,951.7,92.4,6.9,1.4,21.75,41.87,1.9215,378.4259],
    [22495,1532816323,56.9305,-111.6273,1289.7,949.7,92.3,6.5,0.7,21.36,42.49,1.9198,378.0804],
    [22496,1532816324,56.9305,-111.6261,1288.0,948.0,91.9,5.6,0.0,21.23,42.78,1.9203,377.8605],
    [22497,1532816325,56.9305,-111.6248,1286.2,947.3,92.9,4.9,0.7,21.32,43.36,1.9205,377.7512],
    [22498,1532816326,56.9304,-111.6236,1283.3,944.3,92.9,5.7,0.4,21.32,43.26,1.92,378.0099],
    [22499,1532816327,56.9304,-111.6224,1280.1,941.1,93.2,5.8,1.0,21.17,42.79,1.9181,378.0516],
    [22500,1532816328,56.9304,-111.6211,1276.3,938.3,93.5,6.4,1.9,21.46,42.78,1.9183,378.0516],
    [22501,1532816329,56.9304,-111.6199,1272.9,935.9,92.0,6.8,1.0,21.54,42.77,1.9193,378.1031],
    [22502,1532816330,56.9304,-111.6187,1271.8,935.8,90.5,7.4,0.3,21.52,42.94,1.9189,377.4941],
    [22503,1532816331,56.9304,-111.6174,1272.1,937.1,91.2,7.9,1.7,21.42,42.82,1.9203,376.8791],
    [22504,1532816332,56.9304,-111.6162,1273.3,938.3,90.8,6.7,1.5,21.99,42.37,1.9192,378.1752],
    [22505,1532816333,56.9304,-111.615,1274.4,939.4,91.0,6.9,2.0,21.54,42.65,1.9186,377.1189],
    [22506,1532816334,56.9304,-111.6138,1275.1,941.1,91.9,6.6,2.9,21.16,42.82,1.9195,378.5484],
    [22507,1532816335,56.9304,-111.6126,1276.3,942.6,92.5,6.7,3.2,22.18,42.12,1.9204,377.4666],
    [22508,1532816336,56.9304,-111.6114,1280.3,947.3,91.7,5.5,2.5,21.63,43.15,1.9196,378.4332],
    [22509,1532816337,56.9304,-111.6102,1285.4,952.4,90.6,6.0,1.4,21.39,42.9,1.9169,378.0433],
    [22510,1532816338,56.9304,-111.609,1289.9,956.9,90.2,4.8,1.3,22.04,42.42,1.9168,377.818],
    [22511,1532816339,56.9304,-111.6078,1293.4,960.4,90.4,5.5,1.8,21.92,41.94,1.9164,377.7082],
    [22512,1532816340,56.9304,-111.6067,1295.4,961.4,89.7,6.0,1.1,21.01,42.61,1.9171,378.3282],
    [22513,1532816341,56.9304,-111.6055,1296.6,961.6,88.7,6.0,0.3,21.37,42.73,1.9172,377.3872],
    [22514,1532816342,56.9305,-111.6043,1297.7,962.7,90.3,5.1,2.3,21.31,41.95,1.9195,377.6174],
    [22515,1532816343,56.9305,-111.6032,1298.3,963.3,91.3,4.6,2.7,21.14,41.46,1.9207,377.6866],
    [22516,1532816344,56.9305,-111.602,1299.1,964.1,90.4,5.5,1.2,21.19,41.51,1.9198,377.8576],
    [22517,1532816345,56.9305,-111.6008,1299.4,965.4,91.9,5.4,2.3,21.93,40.8,1.9193,377.8576],
    [22518,1532816346,56.9305,-111.5997,1299.4,966.4,91.7,5.8,1.6,21.38,41.82,1.9182,378.3365],
    [22519,1532816347,56.9305,-111.5986,1299.4,967.4,90.7,5.4,0.7,21.24,41.6,1.9179,377.6205],
    [22520,1532816348,56.9305,-111.5974,1299.6,968.6,91.1,5.4,1.3,21.02,41.62,1.9172,378.1122],
    [22521,1532816349,56.9305,-111.5963,1299.8,969.8,91.2,5.0,1.1,21.42,41.31,1.9161,378.073],
    [22522,1532816350,56.9305,-111.5951,1299.8,972.0,91.3,4.5,1.3,21.69,41.24,1.9178,378.9015],
    [22523,1532816351,56.9305,-111.594,1299.7,975.8,92.3,4.3,2.2,20.69,41.65,1.918,378.2188],
    [22524,1532816352,56.9305,-111.5929,1299.4,973.4,90.5,3.5,-0.1,21.05,41.86,1.9176,378.7989],
    [22525,1532816353,56.9305,-111.5917,1299.0,969.9,89.7,3.2,-0.8,21.24,42.03,1.9178,377.813],
    [22526,1532816354,56.9305,-111.5906,1298.4,969.4,91.5,3.0,0.8,22.03,40.84,1.916,378.7947],
    [22527,1532816355,56.9305,-111.5895,1297.3,968.3,91.8,2.8,1.1,22.0,40.37,1.9167,379.1951],
    [22528,1532816356,56.9304,-111.5883,1296.2,967.2,92.4,2.7,1.7,21.79,40.67,1.918,378.4378],
    [22529,1532816357,56.9304,-111.5872,1295.3,967.3,92.0,1.7,1.0,21.27,40.97,1.9182,378.5764],
    [22530,1532816358,56.9304,-111.5861,1294.3,966.3,91.9,1.7,1.2,21.37,40.87,1.918,378.5344],
    [22531,1532816359,56.9304,-111.5849,1293.3,965.3,93.7,2.2,3.6,21.21,41.46,1.9174,377.7007],
    [22532,1532816360,56.9304,-111.5838,1291.0,964.0,92.5,2.2,2.1,21.15,42.01,1.9179,377.8738],
    [22533,1532816361,56.9304,-111.5827,1288.8,961.8,90.9,2.0,0.9,20.69,41.23,1.917,378.668],
    [22534,1532816362,56.9304,-111.5815,1287.5,961.5,93.3,2.1,3.5,21.18,41.23,1.9173,378.0748],
    [22535,1532816363,56.9304,-111.5804,1286.1,960.1,93.4,1.6,3.4,20.99,42.04,1.9178,377.9158],
    [22536,1532816364,56.9304,-111.5793,1284.7,958.7,92.7,1.6,2.6,21.14,41.1,1.9189,378.4112],
    [22537,1532816365,56.9304,-111.5781,1283.6,958.6,92.9,2.1,3.6,21.13,41.25,1.9178,378.2268],
    [22538,1532816366,56.9304,-111.577,1281.6,956.6,92.0,1.0,4.1,21.27,41.86,1.9169,378.6255],
    [22539,1532816367,56.9304,-111.5759,1279.7,955.0,87.4,1.2,2.3,20.9,41.22,1.9166,377.3976],
    [22540,1532816368,56.9305,-111.5747,1279.0,955.0,81.7,1.4,0.6,21.84,40.75,1.9165,379.0792],
    [22541,1532816369,56.9306,-111.5736,1279.1,956.1,77.3,0.5,0.5,20.94,41.69,1.9147,378.0578],
    [22542,1532816370,56.9308,-111.5725,1279.2,957.2,73.1,0.9,0.0,21.35,40.32,1.9129,379.3721],
    [22543,1532816371,56.931,-111.5714,1279.0,957.0,68.0,1.6,-1.0,21.44,40.55,1.9155,377.6093],
    [22544,1532816372,56.9312,-111.5703,1279.3,956.3,64.9,0.3,-0.7,21.22,39.82,1.9154,377.6093],
    [22545,1532816373,56.9315,-111.5693,1280.5,957.5,61.5,-0.2,-0.4,21.69,39.14,1.9192,378.91],
    [22546,1532816374,56.9318,-111.5683,1283.1,960.1,57.3,0.5,-0.8,21.17,39.78,1.9206,377.6241],
    [22547,1532816375,56.9322,-111.5674,1286.5,963.5,54.5,1.2,0.0,21.05,40.09,1.9182,379.6704],
    [22548,1532816376,56.9325,-111.5665,1289.4,966.4,52.2,1.3,0.7,21.65,40.15,1.9153,378.1947],
    [22549,1532816377,56.9329,-111.5656,1291.7,969.4,49.9,0.5,0.9,21.03,41.33,1.9142,378.1171],
    [22550,1532816378,56.9333,-111.5647,1293.4,971.4,47.2,1.2,1.6,21.02,40.62,1.915,378.8342],
    [22551,1532816379,56.9338,-111.5639,1294.5,973.2,44.2,1.0,0.4,21.46,40.45,1.9151,378.1471],
    [22552,1532816380,56.9342,-111.5631,1294.8,974.7,41.3,0.2,0.2,21.63,40.59,1.9143,378.1471],
    [22553,1532816381,56.9347,-111.5624,1294.2,975.2,38.4,0.5,0.0,21.52,40.04,1.9115,379.3852],
    [22554,1532816382,56.9352,-111.5617,1293.1,975.2,34.2,-0.4,-0.9,21.18,39.92,1.9116,378.8746],
    [22555,1532816383,56.9358,-111.5611,1293.1,976.1,28.7,1.5,-0.9,21.36,39.35,1.9136,379.2372],
    [22556,1532816384,56.9363,-111.5605,1294.1,978.1,23.3,2.0,-1.3,21.41,38.87,1.9176,379.6309],
    [22557,1532816385,56.9369,-111.5601,1296.3,980.3,18.0,2.1,-2.5,21.32,38.8,1.9167,378.729],
    [22558,1532816386,56.9375,-111.5598,1300.8,984.8,12.5,2.2,-3.5,21.44,38.6,1.9141,379.9629],
    [22559,1532816387,56.938,-111.5595,1306.1,990.1,8.8,1.2,-3.8,21.67,38.41,1.9123,377.9009],
    [22560,1532816388,56.9386,-111.5594,1310.9,995.9,5.9,0.6,-4.8,21.59,38.34,1.9119,379.5518],
    [22561,1532816389,56.9392,-111.5593,1314.6,999.6,361.3,2.7,-5.6,21.07,38.39,1.9138,380.8272],
    [22562,1532816390,56.9398,-111.5592,1316.6,1001.6,358.8,3.2,-5.1,21.45,37.99,1.9146,380.2215],
    [22563,1532816391,56.9404,-111.5592,1317.4,1002.4,358.1,2.6,-5.0,20.8,37.95,1.9148,379.4587],
    [22564,1532816392,56.941,-111.5592,1317.1,1002.1,357.4,2.7,-4.4,21.22,38.26,1.9153,379.2973],
    [22565,1532816393,56.9415,-111.5592,1315.4,1000.4,357.7,2.0,-4.2,21.31,37.93,1.9167,379.6853],
    [22566,1532816394,56.9421,-111.5593,1312.1,997.1,358.5,1.0,-3.2,21.59,38.34,1.9142,379.6853],
    [22567,1532816395,56.9427,-111.5593,1308.3,993.3,357.6,2.1,-1.8,20.99,38.1,1.9155,379.7393],
    [22568,1532816396,56.9433,-111.5593,1304.9,989.9,356.9,3.0,-0.6,21.7,37.94,1.9157,378.8482],
    [22569,1532816397,56.9439,-111.5593,1301.8,986.8,356.5,3.4,0.3,22.23,37.69,1.9141,378.8482],
    [22570,1532816398,56.9445,-111.5593,1299.2,984.2,356.3,3.6,1.1,21.1,38.47,1.9139,379.1224],
    [22571,1532816399,56.9451,-111.5593,1297.5,981.5,355.9,3.9,1.9,21.13,38.32,1.9145,379.3918],
    [22572,1532816400,56.9457,-111.5593,1296.6,980.6,355.0,4.8,2.0,21.15,38.91,1.9157,378.734],
    [22573,1532816401,56.9463,-111.5594,1295.6,979.6,355.7,4.0,2.2,20.84,38.66,1.9153,379.2829],
    [22574,1532816402,56.947,-111.5594,1294.0,977.7,356.2,3.5,2.4,21.47,39.22,1.9144,379.1267],
    [22575,1532816403,56.9476,-111.5594,1291.8,974.8,355.2,4.6,2.6,21.3,39.26,1.9167,377.903],
    [22576,1532816404,56.9482,-111.5594,1289.2,972.1,356.0,4.0,2.5,21.43,39.44,1.9169,379.897],
    [22577,1532816405,56.9488,-111.5594,1286.8,968.8,356.4,3.9,3.0,21.18,39.28,1.9164,378.3788],
    [22578,1532816406,56.9495,-111.5594,1284.4,965.4,355.6,5.0,3.3,22.2,38.97,1.9145,378.5726],
    [22579,1532816407,56.9501,-111.5594,1282.6,963.5,355.9,4.9,2.9,21.54,39.64,1.9145,378.7697],
    [22580,1532816408,56.9507,-111.5594,1281.1,961.1,356.0,4.9,3.5,21.67,39.4,1.9153,378.0261],
    [22581,1532816409,56.9514,-111.5594,1279.7,959.7,355.7,5.2,3.6,21.87,39.23,1.9121,378.8844],
    [22582,1532816410,56.952,-111.5594,1277.9,956.9,356.7,4.0,3.5,21.7,39.78,1.9135,379.1748],
    [22583,1532816411,56.9527,-111.5594,1276.0,955.0,356.6,4.0,4.7,22.22,39.31,1.9136,377.9082],
    [22584,1532816412,56.9533,-111.5594,1274.9,953.9,355.7,4.6,3.6,21.09,39.62,1.9153,377.927],
    [22585,1532816413,56.9539,-111.5594,1274.5,953.5,356.7,3.3,3.5,21.6,39.33,1.9144,377.9299],
    [22586,1532816414,56.9546,-111.5594,1274.5,953.5,356.8,3.2,3.9,21.21,39.34,1.9156,378.1891],
    [22587,1532816415,56.9552,-111.5594,1275.0,954.0,356.6,3.6,3.9,22.07,38.97,1.915,378.4342],
    [22588,1532816416,56.9559,-111.5595,1275.9,955.9,357.1,3.1,3.7,21.39,39.41,1.9147,378.4704],
    [22589,1532816417,56.9565,-111.5595,1277.1,957.4,357.8,2.6,3.8,20.61,39.74,1.9154,379.604],
    [22590,1532816418,56.9571,-111.5595,1278.3,960.3,358.5,1.9,2.7,21.79,39.2,1.916,379.0033],
    [22591,1532816419,56.9578,-111.5594,1278.7,961.7,358.6,2.0,2.4,21.12,39.93,1.9166,377.7414],
    [22592,1532816420,56.9584,-111.5594,1278.1,962.2,358.0,3.0,2.8,21.88,40.05,1.9176,378.4735],
    [22593,1532816421,56.9591,-111.5594,1277.0,960.0,358.1,3.2,2.7,21.66,40.16,1.9173,378.425],
    [22594,1532816422,56.9597,-111.5594,1275.5,957.5,359.1,2.4,3.8,21.46,41.04,1.9168,378.0352],
    [22595,1532816423,56.9604,-111.5594,1273.8,954.8,359.3,2.2,3.4,21.32,40.8,1.9164,378.0352],
    [22596,1532816424,56.961,-111.5594,1271.2,953.1,359.7,1.8,4.9,21.75,40.41,1.9151,378.7794],
    [22597,1532816425,56.9616,-111.5593,1269.2,951.2,359.9,1.5,5.2,21.41,40.75,1.916,378.4023],
    [22598,1532816426,56.9623,-111.5593,1268.3,950.3,360.5,0.5,5.4,21.31,40.78,1.9147,379.0802],
    [22599,1532816427,56.9629,-111.5593,1268.0,950.0,359.7,0.8,5.5,21.49,40.29,1.9136,377.9227],
    [22600,1532816428,56.9636,-111.5593,1268.5,950.5,357.6,2.0,4.7,21.31,40.67,1.9143,377.8216],
    [22601,1532816429,56.9642,-111.5593,1269.3,952.2,358.2,0.6,6.6,20.86,40.01,1.9136,377.9508],
    [22602,1532816430,56.9649,-111.5594,1270.7,954.6,357.3,1.1,7.1,21.58,39.7,1.9153,378.6679],
    [22603,1532816431,56.9655,-111.5594,1272.0,957.0,356.9,1.3,6.3,21.33,39.74,1.9163,378.6679],
    [22604,1532816432,56.9662,-111.5594,1272.7,958.8,356.6,1.7,6.1,21.91,39.07,1.9146,378.2745],
    [22605,1532816433,56.9668,-111.5595,1273.3,959.2,356.4,2.0,5.9,21.41,39.74,1.9156,376.8971],
    [22606,1532816434,56.9674,-111.5595,1274.0,961.0,356.1,2.8,6.3,21.66,39.67,1.9165,378.596],
    [22607,1532816435,56.9681,-111.5595,1275.0,962.0,356.1,3.0,7.2,21.27,40.3,1.9168,377.1718],
    [22608,1532816436,56.9687,-111.5595,1275.9,961.9,356.4,2.9,6.9,21.55,40.45,1.9151,378.2937],
    [22609,1532816437,56.9693,-111.5596,1277.0,962.0,356.4,2.8,6.9,22.07,40.55,1.9165,378.7299],
    [22610,1532816438,56.9699,-111.5596,1277.9,960.8,356.2,3.2,6.3,21.2,41.04,1.9139,378.6995],
    [22611,1532816439,56.9706,-111.5596,1279.5,959.1,355.9,3.5,6.7,21.92,40.79,1.912,378.6995],
    [22612,1532816440,56.9712,-111.5596,1281.4,959.4,356.7,2.8,6.5,21.31,41.37,1.9135,378.7196],
    [22613,1532816441,56.9718,-111.5596,1282.9,959.9,357.0,2.3,6.1,20.77,40.64,1.9137,378.7702],
    [22614,1532816442,56.9724,-111.5596,1283.7,960.4,357.1,2.2,6.4,20.81,40.3,1.9134,379.1105],
    [22615,1532816443,56.973,-111.5597,1283.6,959.6,356.0,3.2,6.8,20.92,40.06,1.9143,377.8445],
    [22616,1532816444,56.9736,-111.5597,1283.0,959.0,356.2,3.0,6.8,21.88,39.45,1.9139,378.9334],
    [22617,1532816445,56.9742,-111.5597,1281.9,957.9,357.1,2.0,6.9,20.7,39.89,1.9157,378.0013],
    [22618,1532816446,56.9749,-111.5597,1281.3,957.3,356.5,2.4,6.7,21.74,39.69,1.915,379.9187],
    [22619,1532816447,56.9755,-111.5597,1280.9,956.9,356.7,2.1,6.3,21.15,39.93,1.9117,378.9842],
    [22620,1532816448,56.9761,-111.5598,1280.5,956.5,356.7,2.1,6.6,21.82,39.07,1.9135,379.2442],
    [22621,1532816449,56.9767,-111.5598,1280.3,956.3,355.9,2.9,6.1,21.27,40.28,1.9147,379.2619],
    [22622,1532816450,56.9773,-111.5598,1280.2,956.2,355.8,2.8,5.5,21.32,39.41,1.9149,379.3942],
    [22623,1532816451,56.978,-111.5598,1280.5,957.5,355.7,2.9,4.0,22.1,38.79,1.917,379.3942],
    [22624,1532816452,56.9786,-111.5599,1280.8,958.5,355.2,3.1,3.8,21.37,39.79,1.9156,378.5893],
    [22625,1532816453,56.9792,-111.5599,1280.0,959.7,355.1,3.4,3.5,21.97,39.5,1.916,379.5707],
    [22626,1532816454,56.9798,-111.56,1278.6,960.7,354.0,4.5,3.1,21.44,40.09,1.915,378.6915],
    [22627,1532816455,56.9804,-111.56,1277.5,961.8,353.5,4.8,3.1,21.09,40.55,1.9155,376.9837],
    [22628,1532816456,56.981,-111.56,1276.5,964.3,355.0,3.2,2.6,21.02,40.37,1.9153,378.8032],
    [22629,1532816457,56.9817,-111.5601,1275.6,966.6,355.6,2.9,2.5,20.99,40.48,1.9149,378.3328],
    [22630,1532816458,56.9823,-111.5601,1275.2,966.2,355.4,3.4,2.2,21.44,40.4,1.9138,378.5372],
    [22631,1532816459,56.9829,-111.5602,1274.8,965.8,355.8,3.2,1.8,21.21,40.8,1.9139,378.6783],
    [22632,1532816460,56.9835,-111.5602,1274.7,965.7,356.2,3.1,1.6,21.08,40.95,1.9127,380.103],
    [22633,1532816461,56.9841,-111.5602,1274.5,965.5,355.8,3.7,1.3,20.96,40.35,1.9096,378.5289],
    [22634,1532816462,56.9848,-111.5602,1274.6,965.6,356.5,3.1,1.3,21.08,39.99,1.909,378.3724],
    [22635,1532816463,56.9854,-111.5602,1274.7,965.7,357.2,2.6,0.8,21.63,38.97,1.9093,379.3262],
    [22636,1532816464,56.986,-111.5602,1275.1,966.1,358.2,2.1,0.6,21.29,38.33,1.9115,380.9318],
    [22637,1532816465,56.9866,-111.5602,1275.8,964.4,359.3,1.4,0.6,21.7,37.71,1.9122,380.2589],
    [22638,1532816466,56.9873,-111.5602,1276.2,961.9,359.4,1.8,0.2,20.88,37.76,1.9127,380.0518],
    [22639,1532816467,56.9879,-111.5602,1276.7,960.7,358.9,2.9,-0.1,20.98,37.42,1.914,380.1786],
    [22640,1532816468,56.9885,-111.5602,1277.5,959.9,358.1,4.0,-0.3,20.84,37.54,1.9147,380.924],
    [22641,1532816469,56.9891,-111.5601,1278.6,959.6,358.4,3.9,-0.7,21.35,37.39,1.9143,379.0387],
    [22642,1532816470,56.9897,-111.5601,1279.6,960.6,359.5,2.9,-0.8,20.48,37.8,1.9138,379.8052],
    [22643,1532816471,56.9904,-111.5601,1280.8,961.8,358.6,4.3,-0.8,20.85,37.68,1.914,378.6395],
    [22644,1532816472,56.991,-111.56,1282.3,963.3,358.7,4.0,-0.9,21.09,37.79,1.9155,378.903],
    [22645,1532816473,56.9916,-111.56,1285.3,966.3,358.6,3.8,-1.5,21.51,38.38,1.9145,380.5799],
    [22646,1532816474,56.9922,-111.56,1289.5,969.5,357.4,4.6,-2.1,21.06,38.17,1.9141,379.1449],
    [22647,1532816475,56.9928,-111.5599,1292.8,972.8,357.5,3.9,-2.0,21.67,37.76,1.9137,379.3569],
    [22648,1532816476,56.9934,-111.5599,1294.6,974.6,358.2,3.1,-1.8,21.31,38.49,1.9132,379.8447],
    [22649,1532816477,56.994,-111.5599,1296.0,975.0,357.9,3.4,-2.0,21.78,37.52,1.9128,380.0036],
    [22650,1532816478,56.9946,-111.5599,1299.5,978.5,358.9,2.2,-2.5,21.28,38.94,1.9114,379.9952],
    [22651,1532816479,56.9952,-111.5599,1303.9,981.8,359.5,2.0,-3.1,21.21,38.38,1.9142,379.7905],
    [22652,1532816480,56.9958,-111.5598,1307.2,984.9,358.6,3.6,-3.1,21.21,37.97,1.914,379.4862],
    [22653,1532816481,56.9964,-111.5598,1310.2,987.4,358.5,3.9,-2.8,21.62,37.65,1.915,379.6374],
    [22654,1532816482,56.997,-111.5598,1313.1,990.2,359.6,3.0,-3.1,20.71,37.95,1.9153,379.4086],
    [22655,1532816483,56.9976,-111.5597,1315.6,992.6,358.5,4.4,-3.1,21.33,38.39,1.9139,379.5067],
    [22656,1532816484,56.9981,-111.5597,1318.3,995.2,357.4,5.6,-4.4,21.32,38.56,1.9134,379.6398],
    [22657,1532816485,56.9987,-111.5596,1320.9,997.7,358.0,4.8,-4.7,21.22,37.93,1.9137,380.4568],
    [22658,1532816486,56.9993,-111.5596,1323.1,1000.0,357.9,4.9,-5.6,21.44,37.77,1.914,380.246],
    [22659,1532816487,56.9999,-111.5596,1325.1,1002.1,357.2,5.4,-5.8,21.31,37.75,1.9131,380.0046],
    [22660,1532816488,57.0004,-111.5595,1325.6,1002.8,356.8,5.5,-5.8,20.91,38.4,1.9123,379.5377],
    [22661,1532816489,57.001,-111.5595,1326.0,1003.0,355.9,6.2,-5.4,21.33,37.87,1.915,380.5196],
    [22662,1532816490,57.0016,-111.5595,1325.6,1002.6,355.7,6.1,-6.1,21.17,37.85,1.9157,379.8108],
    [22663,1532816491,57.0022,-111.5595,1323.6,999.6,356.0,5.7,-4.8,21.36,38.57,1.9139,379.6843],
    [22664,1532816492,57.0027,-111.5595,1321.2,997.8,355.3,6.3,-4.9,21.43,38.84,1.9125,379.9445],
    [22665,1532816493,57.0033,-111.5595,1318.2,995.3,355.5,5.9,-4.9,21.28,39.09,1.9132,380.1015],
    [22666,1532816494,57.0039,-111.5595,1315.8,992.9,356.4,4.7,-4.3,21.82,38.04,1.9135,379.0231],
    [22667,1532816495,57.0045,-111.5594,1314.0,992.0,357.4,3.7,-4.6,21.17,38.33,1.9128,380.2303],
    [22668,1532816496,57.0051,-111.5594,1312.4,990.4,357.5,3.9,-4.8,21.36,39.04,1.9129,380.3397],
    [22669,1532816497,57.0057,-111.5594,1310.6,989.6,358.2,3.2,-4.4,21.78,37.86,1.9124,380.027],
    [22670,1532816498,57.0063,-111.5594,1309.2,988.1,358.7,2.9,-4.0,20.89,37.82,1.9135,380.5241],
    [22671,1532816499,57.0069,-111.5594,1307.1,986.1,357.3,4.6,-4.0,21.95,37.18,1.9139,379.5588],
    [22672,1532816500,57.0075,-111.5594,1304.9,983.9,356.9,4.6,-3.7,21.37,38.26,1.9151,380.3482],
    [22673,1532816501,57.0081,-111.5594,1302.4,981.4,356.6,4.7,-3.4,21.29,38.23,1.914,380.3482],
    [22674,1532816502,57.0087,-111.5594,1300.1,979.1,355.7,5.4,-2.7,21.44,38.18,1.913,379.2849],
    [22675,1532816503,57.0093,-111.5594,1298.0,977.0,356.2,4.7,-2.5,21.11,37.38,1.912,380.2262],
    [22676,1532816504,57.0099,-111.5594,1296.3,975.3,356.5,4.6,-2.1,21.42,37.19,1.913,380.8121],
    [22677,1532816505,57.0106,-111.5593,1294.9,974.2,356.5,4.8,-1.8,21.24,37.38,1.9126,380.8262],
    [22678,1532816506,57.0112,-111.5593,1293.6,973.6,356.6,5.0,-1.6,21.48,37.44,1.9126,377.0916],
    [22679,1532816507,57.0118,-111.5593,1291.5,971.5,356.6,5.1,-1.3,21.46,37.2,1.9115,377.0916],
    [22680,1532816508,57.0124,-111.5593,1289.4,969.1,357.0,4.7,-0.9,20.82,36.71,1.9125,380.8174],
    [22681,1532816509,57.0131,-111.5593,1287.5,966.5,357.3,4.6,-0.4,21.01,36.64,1.9145,379.2333],
    [22682,1532816510,57.0137,-111.5593,1285.9,965.9,357.7,4.3,0.1,21.89,36.43,1.9147,380.4828],
    [22683,1532816511,57.0143,-111.5592,1284.2,964.2,358.4,3.6,0.3,21.47,36.73,1.9146,380.1974],
    [22684,1532816512,57.015,-111.5592,1282.1,962.1,357.9,3.7,0.5,21.43,36.98,1.9146,379.7262],
    [22685,1532816513,57.0156,-111.5592,1280.3,961.3,357.1,3.7,0.7,21.62,37.5,1.9148,379.1766],
    [22686,1532816514,57.0163,-111.5592,1278.8,959.8,356.2,3.9,1.8,21.1,37.58,1.915,380.1966],
    [22687,1532816515,57.0169,-111.5592,1277.7,958.7,354.8,4.2,2.3,20.81,37.99,1.9151,379.6151],
    [22688,1532816516,57.0175,-111.5593,1276.9,958.0,354.7,3.7,2.7,21.54,38.27,1.914,379.423],
    [22689,1532816517,57.0182,-111.5593,1275.7,957.7,353.6,4.6,3.5,21.58,37.86,1.9148,379.3286],
    [22690,1532816518,57.0188,-111.5594,1275.0,957.0,354.1,4.0,3.7,21.19,38.17,1.9155,379.3286],
    [22691,1532816519,57.0195,-111.5594,1275.3,957.3,354.6,3.6,4.1,22.26,37.44,1.9158,379.7882],
    [22692,1532816520,57.0201,-111.5595,1276.1,958.1,354.8,3.8,4.6,21.28,38.22,1.9151,379.7882],
    [22693,1532816521,57.0208,-111.5595,1276.9,959.2,355.0,4.1,4.4,21.04,38.67,1.9145,378.524],
    [22694,1532816522,57.0214,-111.5595,1277.9,960.9,354.9,4.6,4.7,21.74,38.11,1.9162,378.524],
    [22695,1532816523,57.022,-111.5595,1279.9,962.9,355.5,4.3,4.6,21.95,37.99,1.9156,380.0829],
    [22696,1532816524,57.0227,-111.5596,1281.9,964.9,355.9,3.9,4.5,20.97,38.77,1.9145,378.334],
    [22697,1532816525,57.0233,-111.5596,1283.5,967.6,355.6,4.0,4.2,21.51,38.5,1.9145,378.9739],
    [22698,1532816526,57.0239,-111.5596,1284.1,968.1,355.5,3.6,4.0,20.86,38.54,1.915,378.9739],
    [22699,1532816527,57.0245,-111.5596,1284.3,968.3,355.1,3.6,4.0,21.87,38.24,1.9151,379.7577],
    [22700,1532816528,57.0252,-111.5597,1284.3,968.3,354.5,3.9,4.0,22.1,38.3,1.9146,379.7528],
    [22701,1532816529,57.0258,-111.5597,1284.1,969.1,354.2,3.9,4.1,21.18,38.63,1.9155,379.2075],
    [22702,1532816530,57.0264,-111.5597,1283.5,968.5,354.2,3.8,4.2,21.49,38.74,1.9169,379.2161],
    [22703,1532816531,57.027,-111.5598,1282.8,967.8,354.1,3.9,4.4,21.09,39.32,1.9156,379.4704],
    [22704,1532816532,57.0277,-111.5598,1281.8,965.8,354.1,4.0,4.2,22.06,38.64,1.9163,380.1654],
    [22705,1532816533,57.0283,-111.5599,1280.9,964.9,353.9,4.1,4.6,21.27,39.44,1.9151,381.8229],
    [22706,1532816534,57.0289,-111.5599,1280.1,963.1,354.4,3.4,4.4,22.23,38.79,1.9164,382.3692],
    [22707,1532816535,57.0296,-111.56,1279.1,963.2,355.4,2.6,4.2,21.41,39.6,1.9143,381.039],
    [22708,1532816536,57.0302,-111.56,1277.5,961.4,354.0,4.1,4.6,21.35,39.38,1.9156,380.0287],
    [22709,1532816537,57.0309,-111.5601,1275.8,960.8,354.5,3.3,5.2,21.74,39.14,1.9163,380.7893],
    [22710,1532816538,57.0315,-111.5601,1274.0,959.0,354.3,3.6,5.4,21.42,39.39,1.9166,381.8009],
    [22711,1532816539,57.0322,-111.5602,1272.1,957.1,354.0,3.7,5.3,21.71,39.73,1.9175,380.2012],
    [22712,1532816540,57.0328,-111.5602,1269.9,953.9,354.5,3.2,5.6,21.87,39.47,1.9154,381.2014],
    [22713,1532816541,57.0335,-111.5603,1267.7,951.7,353.9,3.8,5.9,21.13,39.67,1.9149,383.4601],
    [22714,1532816542,57.0341,-111.5604,1265.9,949.9,354.1,3.5,6.0,21.32,39.66,1.9328,384.088],
    [22715,1532816543,57.0348,-111.5604,1264.5,948.8,354.4,3.1,6.1,21.72,39.22,1.9412,393.864],
    [22716,1532816544,57.0354,-111.5605,1263.4,948.4,354.3,3.3,6.0,21.39,39.68,1.9301,388.237],
    [22717,1532816545,57.0361,-111.5605,1262.8,948.8,354.4,3.4,5.8,21.72,39.54,1.9302,387.7632],
    [22718,1532816546,57.0367,-111.5606,1262.7,949.7,354.6,3.5,5.6,21.46,40.04,1.9466,393.6595],
    [22719,1532816547,57.0374,-111.5606,1262.6,950.6,355.2,3.2,4.5,21.83,39.92,1.9452,388.5274],
    [22720,1532816548,57.038,-111.5606,1262.4,950.4,355.6,3.3,4.6,21.18,40.05,1.9458,390.162],
    [22721,1532816549,57.0387,-111.5607,1262.1,950.0,355.6,3.5,5.3,21.25,40.05,1.9523,391.9428],
    [22722,1532816550,57.0393,-111.5607,1261.7,950.3,356.0,3.5,4.0,21.26,40.4,1.9531,395.0322],
    [22723,1532816551,57.04,-111.5607,1261.2,950.5,356.2,3.6,4.2,21.52,40.37,1.9506,393.1753],
    [22724,1532816552,57.0406,-111.5607,1260.7,952.5,356.3,3.7,4.2,21.28,40.63,1.9499,395.5908],
    [22725,1532816553,57.0413,-111.5607,1260.3,954.2,356.4,3.9,4.3,21.07,40.82,1.949,396.9859],
    [22726,1532816554,57.0419,-111.5607,1259.8,956.8,356.7,3.7,3.6,21.9,39.95,1.9493,396.562],
    [22727,1532816555,57.0425,-111.5607,1259.4,956.4,357.3,3.2,3.5,20.96,40.94,1.9554,401.5605],
    [22728,1532816556,57.0432,-111.5607,1259.5,956.5,357.1,3.5,3.7,21.21,41.71,1.9572,401.5605],
    [22729,1532816557,57.0439,-111.5608,1260.9,957.9,357.1,3.2,3.4,21.09,41.39,1.958,399.3237],
    [22730,1532816558,57.0445,-111.5608,1263.2,956.2,356.8,3.3,2.7,21.61,40.95,1.954,394.6658],
    [22731,1532816559,57.0451,-111.5608,1266.1,956.4,356.4,3.4,2.8,21.2,41.57,1.9554,394.6658],
    [22732,1532816560,57.0458,-111.5608,1269.2,957.8,356.4,3.3,1.9,20.99,41.39,1.9624,400.2296],
    [22733,1532816561,57.0464,-111.5608,1271.8,958.8,356.7,3.1,2.3,21.51,41.04,1.9603,400.169],
    [22734,1532816562,57.047,-111.5608,1274.4,961.4,356.8,3.1,2.1,21.76,40.76,1.9551,392.0584],
    [22735,1532816563,57.0476,-111.5608,1277.5,964.5,356.8,3.2,1.1,21.75,41.33,1.9479,387.9707],
    [22736,1532816564,57.0483,-111.5608,1280.4,967.4,356.5,3.5,-0.1,21.33,42.38,1.9473,387.322],
    [22737,1532816565,57.0489,-111.5608,1283.1,969.4,356.5,3.2,0.5,21.0,41.68,1.9486,386.3743],
    [22738,1532816566,57.0495,-111.5609,1285.3,971.3,356.0,3.7,-1.0,21.49,41.19,1.9399,385.4841],
    [22739,1532816567,57.0501,-111.5609,1287.3,973.3,355.8,3.9,-2.3,21.44,41.07,1.9376,385.0578],
    [22740,1532816568,57.0507,-111.5609,1289.2,975.2,356.2,3.7,-2.8,21.4,41.1,1.9377,384.0934],
    [22741,1532816569,57.0513,-111.5609,1290.6,976.6,356.8,3.7,-3.1,21.29,41.74,1.9401,384.6455],
    [22742,1532816570,57.0519,-111.5609,1291.3,977.3,358.4,2.9,-3.3,20.82,40.98,1.9411,385.3827],
    [22743,1532816571,57.0525,-111.5609,1291.5,977.5,359.2,2.9,-3.4,21.39,41.31,1.9561,392.8728],
    [22744,1532816572,57.0531,-111.5608,1291.3,977.3,359.6,3.0,-3.2,21.76,40.29,1.9644,394.5118],
    [22745,1532816573,57.0537,-111.5608,1290.9,976.9,359.9,2.7,-3.6,21.33,40.64,1.9469,394.5118],
    [22746,1532816574,57.0543,-111.5608,1290.4,976.4,359.6,3.2,-3.3,21.45,41.0,1.9427,388.2879],
    [22747,1532816575,57.0549,-111.5607,1289.9,975.9,359.3,3.5,-3.4,21.31,40.97,1.9355,389.4453],
    [22748,1532816576,57.0556,-111.5607,1289.3,975.3,359.4,3.5,-2.9,21.31,41.56,1.935,389.8625],
    [22749,1532816577,57.0562,-111.5606,1288.9,974.9,358.6,4.0,-2.7,20.88,40.88,1.9338,385.3083],
    [22750,1532816578,57.0568,-111.5606,1288.7,974.7,358.6,3.7,-2.7,21.34,41.44,1.9417,385.3083],
    [22751,1532816579,57.0574,-111.5606,1288.5,974.6,358.1,4.2,-2.6,20.76,41.18,1.9434,383.6295],
    [22752,1532816580,57.058,-111.5605,1288.6,975.6,357.9,4.1,-3.5,21.26,41.55,1.9494,382.9419],
    [22753,1532816581,57.0586,-111.5605,1288.8,975.9,358.4,3.5,-3.3,21.49,40.85,1.9512,383.0147],
    [22754,1532816582,57.0592,-111.5605,1288.9,974.9,358.0,3.9,-3.3,21.48,40.78,1.9514,383.8429],
    [22755,1532816583,57.0598,-111.5605,1289.0,975.0,358.1,3.8,-2.8,21.3,41.05,1.9518,383.8429],
    [22756,1532816584,57.0604,-111.5604,1289.2,974.2,358.0,3.8,-3.1,21.49,40.99,1.9526,384.438],
    [22757,1532816585,57.0611,-111.5604,1289.0,975.0,357.5,4.4,-3.3,21.64,40.68,1.9464,385.3201],
    [22758,1532816586,57.0617,-111.5604,1288.5,975.5,357.0,4.5,-3.6,21.77,40.61,1.943,385.3201],
    [22759,1532816587,57.0623,-111.5604,1288.2,975.2,356.9,4.2,-2.8,21.5,41.66,1.9454,384.3316],
    [22760,1532816588,57.0629,-111.5604,1288.1,976.1,356.2,4.4,-3.0,21.42,41.15,1.9645,380.8945],
    [22761,1532816589,57.0635,-111.5604,1287.8,975.8,356.2,3.9,-3.2,21.65,41.08,1.9602,380.1654],
    [22762,1532816590,57.0641,-111.5604,1287.5,975.5,355.9,4.0,-2.5,21.56,41.26,1.965,379.0897],
    [22763,1532816591,57.0648,-111.5604,1287.3,975.3,355.7,3.9,-2.0,21.74,40.32,1.9704,379.0897],
    [22764,1532816592,57.0654,-111.5605,1287.3,975.3,356.0,3.3,-2.4,21.55,41.02,1.9646,379.0894],
    [22765,1532816593,57.066,-111.5605,1287.0,973.9,356.3,2.9,-3.2,21.79,39.97,1.9472,378.8116],
    [22766,1532816594,57.0666,-111.5605,1286.9,974.9,356.1,3.2,-3.4,21.09,40.52,1.9466,380.2306],
    [22767,1532816595,57.0672,-111.5606,1287.3,976.4,356.5,3.0,-3.3,21.13,39.99,1.9488,379.7454],
    [22768,1532816596,57.0678,-111.5606,1287.5,977.5,357.5,2.4,-2.4,21.42,40.05,1.95,379.5992],
    [22769,1532816597,57.0685,-111.5606,1287.2,978.3,357.4,3.0,-1.2,21.77,40.03,1.9411,379.7908],
    [22770,1532816598,57.0691,-111.5606,1286.8,978.9,357.6,2.8,-1.7,22.17,39.3,1.9418,378.2134],
    [22771,1532816599,57.0697,-111.5606,1285.9,978.8,358.2,2.0,-1.4,21.54,39.88,1.9383,377.9141],
    [22772,1532816600,57.0703,-111.5606,1284.4,981.1,357.9,2.2,-0.7,22.05,39.68,1.9363,379.1026],
    [22773,1532816601,57.0709,-111.5606,1282.8,982.9,357.2,2.7,0.5,21.94,39.79,1.9345,378.3191],
    [22774,1532816602,57.0715,-111.5606,1281.2,985.4,357.2,2.5,2.1,21.79,40.27,1.938,378.3856],
    [22775,1532816603,57.0722,-111.5606,1279.3,987.2,357.0,2.7,3.5,21.56,41.31,1.9369,378.8114],
    [22776,1532816604,57.0728,-111.5606,1277.4,991.4,356.6,3.0,3.6,21.67,40.89,1.9458,378.8939],
    [22777,1532816605,57.0734,-111.5606,1275.9,996.7,358.1,1.5,3.0,21.75,41.03,1.9297,379.728],
    [22778,1532816606,57.074,-111.5607,1274.7,1000.9,358.2,1.6,2.0,21.45,40.66,1.915,379.7358],
    [22779,1532816607,57.0747,-111.5607,1273.8,1002.4,357.4,2.6,2.5,21.44,39.67,1.9131,378.9968],
    [22780,1532816608,57.0753,-111.5607,1272.4,1002.0,357.7,2.2,2.8,21.85,38.78,1.9139,380.6582],
    [22781,1532816609,57.0759,-111.5607,1270.5,1003.2,357.4,2.8,3.8,22.12,37.64,1.9173,379.3152],
    [22782,1532816610,57.0766,-111.5607,1267.9,1005.2,358.0,2.3,4.2,21.63,37.77,1.9195,379.2817],
    [22783,1532816611,57.0772,-111.5607,1265.2,1007.8,358.7,2.2,4.1,21.7,37.19,1.9214,380.7035],
    [22784,1532816612,57.0778,-111.5607,1262.3,1010.3,358.7,2.5,4.7,22.18,36.59,1.9281,380.7394],
    [22785,1532816613,57.0785,-111.5606,1259.3,1009.9,359.5,2.1,4.2,22.26,37.05,1.9286,380.7394],
    [22786,1532816614,57.0791,-111.5606,1256.1,1009.1,360.0,2.0,4.9,21.48,37.57,1.9289,380.0015],
    [22787,1532816615,57.0797,-111.5606,1252.8,1010.4,360.8,1.5,4.8,21.14,38.03,1.9238,381.355],
    [22788,1532816616,57.0804,-111.5605,1250.0,1012.0,361.7,1.0,5.6,21.69,38.23,1.9276,380.8788],
    [22789,1532816617,57.081,-111.5605,1247.1,1011.0,361.6,1.2,6.1,21.97,38.57,1.9251,379.9311],
    [22790,1532816618,57.0817,-111.5604,1244.3,1010.4,361.3,1.0,5.6,21.89,39.11,1.9238,380.5685],
    [22791,1532816619,57.0823,-111.5604,1242.1,1008.1,360.7,0.9,5.5,21.37,38.93,1.9244,379.3568],
    [22792,1532816620,57.083,-111.5604,1240.0,1006.0,359.6,1.2,5.3,22.14,38.74,1.9242,379.3568],
    [22793,1532816621,57.0836,-111.5604,1237.8,1003.8,359.5,0.6,5.2,21.53,39.07,1.9244,380.4969],
    [22794,1532816622,57.0843,-111.5604,1235.1,1002.2,358.4,1.5,5.4,21.48,39.78,1.9236,381.5346],
    [22795,1532816623,57.085,-111.5604,1232.0,1000.0,357.5,2.1,5.8,22.04,39.51,1.9236,379.8686],
    [22796,1532816624,57.0856,-111.5604,1228.3,997.4,357.8,1.8,6.5,21.74,40.06,1.9231,380.7479],
    [22797,1532816625,57.0863,-111.5604,1225.0,993.0,357.0,3.0,7.1,21.73,39.49,1.9214,380.7034],
    [22798,1532816626,57.0869,-111.5604,1221.6,989.6,357.3,3.0,7.4,22.32,38.38,1.9225,380.5714],
    [22799,1532816627,57.0876,-111.5604,1217.8,985.8,358.0,2.8,7.7,21.7,39.13,1.924,380.5369],
    [22800,1532816628,57.0883,-111.5604,1213.7,981.7,358.2,3.0,7.8,21.6,39.32,1.9276,379.6156],
    [22801,1532816629,57.0889,-111.5604,1210.1,978.1,359.1,2.7,7.5,22.01,38.79,1.9295,379.6156],
    [22802,1532816630,57.0896,-111.5603,1207.3,975.3,359.0,3.3,7.5,22.33,38.78,1.9302,381.0789],
    [22803,1532816631,57.0903,-111.5603,1206.1,974.1,360.1,2.7,7.5,21.78,38.93,1.9317,381.2963],
    [22804,1532816632,57.0909,-111.5603,1205.8,973.8,360.1,3.0,7.1,22.13,39.09,1.9293,381.2963],
    [22805,1532816633,57.0916,-111.5602,1206.7,975.8,361.0,2.0,6.8,21.46,39.61,1.9279,379.5899],
    [22806,1532816634,57.0922,-111.5601,1206.9,976.9,360.9,2.4,6.9,21.7,40.14,1.9275,379.992],
    [22807,1532816635,57.0929,-111.5601,1207.1,977.1,360.9,2.0,6.7,21.59,39.68,1.9317,380.5417],
    [22808,1532816636,57.0936,-111.56,1207.1,977.1,361.2,1.4,6.8,21.15,39.58,1.9387,380.6611],
    [22809,1532816637,57.0942,-111.56,1206.9,976.2,360.2,1.7,5.8,21.67,40.2,1.949,380.6611],
    [22810,1532816638,57.0949,-111.56,1206.9,973.7,359.6,1.3,5.7,21.79,40.15,1.9583,379.2442],
    [22811,1532816639,57.0955,-111.56,1207.3,970.4,358.0,1.9,5.2,21.47,39.71,1.9557,381.3995],
    [22812,1532816640,57.0961,-111.56,1207.9,965.3,356.7,2.6,5.4,21.79,39.55,1.9523,379.1512],
    [22813,1532816641,57.0968,-111.56,1209.3,964.5,355.2,3.0,5.0,22.07,39.28,1.9477,378.2783],
    [22814,1532816642,57.0974,-111.5601,1210.8,964.8,354.2,3.1,4.9,22.43,39.63,1.9492,380.1791],
    [22815,1532816643,57.0981,-111.5601,1212.6,965.5,353.6,3.2,3.5,21.31,40.68,1.9512,380.1791],
    [22816,1532816644,57.0987,-111.5602,1214.9,966.9,354.5,2.5,2.8,21.49,40.44,1.9527,379.5706],
    [22817,1532816645,57.0993,-111.5603,1217.8,969.8,355.1,2.2,2.7,21.62,40.42,1.9483,380.0634],
    [22818,1532816646,57.0999,-111.5603,1221.1,973.1,355.3,2.4,2.3,21.64,40.88,1.9464,380.0445],
    [22819,1532816647,57.1005,-111.5604,1224.0,975.0,355.7,2.1,2.8,22.03,40.72,1.9436,379.5862],
    [22820,1532816648,57.1011,-111.5604,1226.2,975.2,356.2,2.1,3.5,21.17,41.12,1.9457,379.3754],
    [22821,1532816649,57.1017,-111.5604,1227.9,976.0,354.7,4.1,3.6,21.35,41.17,1.9586,379.0202],
    [22822,1532816650,57.1024,-111.5605,1229.3,975.2,354.9,4.3,3.6,22.28,40.71,1.965,380.2297],
    [22823,1532816651,57.103,-111.5605,1230.2,975.2,355.4,4.1,3.4,21.6,41.26,1.9682,378.6997],
    [22824,1532816652,57.1036,-111.5605,1231.3,974.6,355.8,4.2,3.3,20.91,40.94,1.9722,379.6714],
    [22825,1532816653,57.1042,-111.5605,1233.3,975.4,355.0,5.2,2.7,21.61,40.3,1.9629,379.4503],
    [22826,1532816654,57.1048,-111.5605,1235.6,976.7,354.9,5.2,3.9,22.08,39.67,1.9591,380.0616],
    [22827,1532816655,57.1054,-111.5605,1237.8,977.8,355.8,4.5,3.8,21.71,40.05,1.9594,379.1853],
    [22828,1532816656,57.106,-111.5605,1239.0,979.1,356.1,4.5,1.2,20.97,40.45,1.9566,379.7927],
    [22829,1532816657,57.1066,-111.5605,1239.6,978.6,356.7,3.5,2.0,21.79,40.29,1.9576,380.2055],
    [22830,1532816658,57.1072,-111.5605,1241.9,980.9,356.3,3.6,2.0,21.64,40.14,1.954,381.8192],
    [22831,1532816659,57.1079,-111.5606,1244.4,983.4,353.4,6.0,0.4,22.36,39.55,1.9402,382.2607],
    [22832,1532816660,57.1084,-111.5606,1245.9,984.9,354.2,4.7,0.1,22.11,39.51,1.9368,380.3599],
    [22833,1532816661,57.109,-111.5606,1246.4,985.4,354.7,4.1,0.5,21.97,38.88,1.9287,380.245],
    [22834,1532816662,57.1096,-111.5607,1246.8,985.8,354.2,4.4,0.3,22.19,38.35,1.925,380.245],
    [22835,1532816663,57.1102,-111.5607,1246.9,985.9,354.0,4.3,0.4,21.54,39.22,1.9247,380.9692],
    [22836,1532816664,57.1108,-111.5607,1246.8,985.8,354.4,3.7,0.5,21.6,38.56,1.9242,380.4468],
    [22837,1532816665,57.1114,-111.5608,1246.4,984.4,354.8,3.5,0.3,22.17,37.77,1.927,380.4468],
    [22838,1532816666,57.1121,-111.5608,1246.1,984.1,354.4,3.9,0.7,21.5,38.16,1.936,380.2051],
    [22839,1532816667,57.1127,-111.5609,1245.5,983.5,354.7,3.6,0.7,21.4,38.81,1.9365,380.6916],
    [22840,1532816668,57.1133,-111.5609,1244.8,982.8,354.9,3.9,1.2,21.57,38.18,1.9368,379.7239],
    [22841,1532816669,57.1139,-111.561,1244.7,982.7,355.0,4.4,1.2,21.1,38.59,1.9384,379.9502],
    [22842,1532816670,57.1145,-111.561,1244.6,982.6,356.4,3.7,1.1,21.37,39.13,1.9413,379.9502],
    [22843,1532816671,57.1152,-111.561,1244.4,982.4,357.3,3.7,1.1,21.57,39.36,1.9341,380.0926],
    [22844,1532816672,57.1158,-111.561,1244.6,982.6,357.7,3.8,0.7,22.04,39.47,1.9307,380.7534],
    [22845,1532816673,57.1164,-111.5609,1244.8,981.8,358.3,3.5,0.7,21.68,39.87,1.9309,380.7959],
    [22846,1532816674,57.1171,-111.5609,1244.5,981.5,358.8,3.1,0.5,21.76,39.72,1.9297,378.9857],
    [22847,1532816675,57.1177,-111.5609,1243.7,980.7,358.9,3.3,-0.2,21.62,40.19,1.9381,380.7677],
    [22848,1532816676,57.1183,-111.5608,1242.8,979.8,359.3,3.1,-0.3,21.62,40.21,1.9389,380.7677],
    [22849,1532816677,57.1189,-111.5608,1242.2,979.2,358.8,3.9,-0.2,21.89,39.91,1.9333,380.6383],
    [22850,1532816678,57.1196,-111.5608,1242.2,979.2,358.2,4.3,-0.1,21.89,40.07,1.9312,379.8477],
    [22851,1532816679,57.1202,-111.5607,1241.8,977.8,359.0,3.5,0.1,21.61,40.7,1.9313,380.0879],
    [22852,1532816680,57.1208,-111.5607,1241.3,977.3,358.5,3.8,0.1,21.64,40.46,1.9306,380.4063],
    [22853,1532816681,57.1214,-111.5607,1240.5,975.5,359.5,2.5,-0.3,20.78,40.05,1.9287,379.1121],
    [22854,1532816682,57.122,-111.5606,1239.9,973.9,359.5,2.5,-1.3,21.28,40.18,1.9344,379.9214],
    [22855,1532816683,57.1226,-111.5606,1239.5,973.5,358.8,3.0,-1.8,21.51,40.49,1.9451,380.2046],
    [22856,1532816684,57.1232,-111.5606,1240.3,974.3,358.4,2.8,-2.3,21.41,39.52,1.9489,380.3728],
    [22857,1532816685,57.1238,-111.5606,1241.9,975.9,358.8,1.9,-2.7,21.32,40.13,1.9524,380.3414],
    [22858,1532816686,57.1244,-111.5606,1243.1,977.1,359.2,1.1,-2.5,22.35,39.07,1.9516,379.9276],
    [22859,1532816687,57.125,-111.5606,1244.1,978.1,358.2,2.3,-1.4,22.19,39.15,1.9541,380.0299],
    [22860,1532816688,57.1257,-111.5606,1245.3,979.3,357.4,3.2,-1.7,21.19,40.11,1.9533,379.61],
    [22861,1532816689,57.1263,-111.5606,1246.5,979.8,358.0,2.5,-2.1,21.72,40.4,1.9608,379.5565],
    [22862,1532816690,57.1269,-111.5606,1249.2,982.2,358.2,2.1,-1.6,21.74,40.62,1.96,379.7692],
    [22863,1532816691,57.1275,-111.5606,1252.3,985.3,359.0,1.0,-1.2,21.47,41.03,1.9446,379.7785],
    [22864,1532816692,57.1281,-111.5606,1255.8,988.8,359.6,0.8,-0.7,20.91,40.27,1.9442,379.5025],
    [22865,1532816693,57.1287,-111.5606,1258.1,991.1,358.8,1.9,-0.1,21.5,40.76,1.9471,379.6871],
    [22866,1532816694,57.1293,-111.5606,1258.9,991.9,357.7,3.2,-0.7,21.77,40.09,1.953,378.9282],
    [22867,1532816695,57.1299,-111.5605,1259.4,992.7,358.1,2.6,-0.5,21.86,40.15,1.9593,380.0183],
    [22868,1532816696,57.1305,-111.5605,1258.9,992.9,358.3,2.4,0.5,21.33,40.4,1.9612,379.6557],
    [22869,1532816697,57.1311,-111.5605,1258.5,992.5,358.1,2.3,0.8,21.86,40.62,1.9515,378.7482],
    [22870,1532816698,57.1318,-111.5605,1259.1,993.1,359.7,0.7,2.0,22.34,39.48,1.955,379.2013],
    [22871,1532816699,57.1323,-111.5605,1259.3,993.0,357.6,3.0,2.9,21.77,40.53,1.9577,379.2013],
    [22872,1532816700,57.133,-111.5605,1259.2,992.2,359.0,0.5,3.0,21.78,40.64,1.9472,378.4659],
    [22873,1532816701,57.1336,-111.5605,1258.0,991.0,361.0,-1.0,3.7,21.63,40.67,1.9527,378.7117],
    [22874,1532816702,57.1342,-111.5605,1256.6,989.6,357.9,2.4,2.7,21.51,40.26,1.962,379.2408],
    [22875,1532816703,57.1348,-111.5605,1255.6,987.5,356.0,4.1,3.6,21.77,41.09,1.965,378.838],
    [22876,1532816704,57.1354,-111.5605,1254.5,986.5,356.8,2.8,3.1,21.4,40.66,1.9656,380.1905],
    [22877,1532816705,57.136,-111.5606,1253.1,985.4,356.9,2.9,3.5,22.64,40.07,1.9696,379.709],
    [22878,1532816706,57.1366,-111.5606,1251.2,984.3,356.0,3.4,4.1,21.8,40.76,1.9719,379.2578],
    [22879,1532816707,57.1372,-111.5606,1248.8,981.9,356.5,2.9,4.4,22.31,40.51,1.9731,379.3299],
    [22880,1532816708,57.1379,-111.5606,1246.7,979.8,356.0,3.5,3.6,21.87,40.75,1.9729,380.01],
    [22881,1532816709,57.1385,-111.5606,1245.0,976.9,355.9,3.4,3.6,22.39,40.49,1.9723,379.4087],
    [22882,1532816710,57.1391,-111.5606,1243.6,974.8,355.7,3.3,3.2,21.77,41.49,1.9727,378.7611],
    [22883,1532816711,57.1397,-111.5607,1242.5,972.8,355.3,3.5,2.5,21.77,41.63,1.9733,379.4238],
    [22884,1532816712,57.1403,-111.5607,1241.8,970.8,355.1,3.4,2.3,22.11,40.45,1.9703,378.9554],
    [22885,1532816713,57.1409,-111.5608,1241.3,969.4,355.2,2.9,2.2,22.01,40.72,1.9723,379.2255],
    [22886,1532816714,57.1415,-111.5608,1240.8,968.6,355.2,3.0,1.9,22.1,40.77,1.971,379.7203],
    [22887,1532816715,57.1421,-111.5608,1240.4,967.3,355.1,3.1,2.3,21.21,41.41,1.9715,379.039],
    [22888,1532816716,57.1428,-111.5609,1240.2,967.2,355.3,2.8,2.2,21.7,40.82,1.9689,379.5336],
    [22889,1532816717,57.1434,-111.5609,1240.1,967.1,354.8,3.2,2.7,21.62,41.04,1.9668,379.1487],
    [22890,1532816718,57.144,-111.561,1239.7,966.7,355.4,2.4,3.0,21.32,40.92,1.9675,379.5894],
    [22891,1532816719,57.1447,-111.561,1239.0,965.0,355.1,2.6,3.3,21.47,41.56,1.9635,379.5894],
    [22892,1532816720,57.1453,-111.5611,1238.6,964.6,354.8,2.1,4.3,21.77,40.62,1.9699,378.9039],
    [22893,1532816721,57.1459,-111.5612,1237.9,963.9,354.4,0.7,4.2,21.54,40.69,1.9705,380.1994],
    [22894,1532816722,57.1465,-111.5613,1236.3,962.3,350.2,0.8,4.3,21.44,40.52,1.9787,378.9919],
    [22895,1532816723,57.1471,-111.5615,1234.4,959.4,344.5,1.6,3.2,21.37,40.96,1.9748,379.4962],
    [22896,1532816724,57.1477,-111.5618,1231.7,956.7,337.9,2.1,3.3,21.55,40.7,1.9694,378.1062],
    [22897,1532816725,57.1483,-111.5622,1227.8,952.8,331.7,1.5,3.6,21.65,41.19,1.9708,379.1796],
    [22898,1532816726,57.1488,-111.5628,1222.7,947.7,324.8,1.7,2.5,21.26,40.97,1.9527,380.0467],
    [22899,1532816727,57.1493,-111.5634,1216.8,941.4,318.3,1.3,1.4,21.3,41.25,1.9397,379.305],
    [22900,1532816728,57.1497,-111.5642,1210.6,934.6,311.2,0.5,0.7,21.61,41.95,1.936,378.5544],
    [22901,1532816729,57.1501,-111.5651,1203.5,928.5,303.9,-0.1,0.6,22.23,40.34,1.9391,380.0848],
    [22902,1532816730,57.1504,-111.5661,1196.2,924.9,296.0,-1.0,1.4,21.5,41.04,1.9378,380.0848],
    [22903,1532816731,57.1506,-111.5671,1189.5,920.4,289.1,-2.6,1.6,21.53,41.28,1.9377,380.1055],
    [22904,1532816732,57.1508,-111.5683,1185.7,918.5,283.5,-4.0,1.5,22.1,40.54,1.9423,379.9011],
    [22905,1532816733,57.151,-111.5694,1185.0,918.4,279.4,-3.6,1.3,21.62,40.94,1.9373,379.1637],
    [22906,1532816734,57.151,-111.5705,1186.5,919.8,275.3,-2.8,2.0,22.42,40.56,1.9324,379.3525],
    [22907,1532816735,57.1511,-111.5717,1189.6,923.0,272.6,-1.9,1.0,21.76,40.93,1.9305,379.8734],
    [22908,1532816736,57.1511,-111.5728,1194.8,928.8,270.0,-0.9,1.2,21.67,41.45,1.9266,379.6641],
    [22909,1532816737,57.1511,-111.5739,1201.8,936.8,266.5,0.3,3.0,21.45,40.97,1.9253,378.3415],
    [22910,1532816738,57.1511,-111.575,1209.4,944.4,265.2,1.5,3.6,21.62,40.96,1.9251,379.4079],
    [22911,1532816739,57.1511,-111.5761,1217.5,951.5,264.2,2.2,4.1,21.64,41.11,1.9276,379.4791],
    [22912,1532816740,57.1511,-111.5772,1225.6,958.2,263.7,2.6,4.1,21.49,41.83,1.926,379.5977],
    [22913,1532816741,57.151,-111.5782,1234.4,962.9,263.5,3.6,4.3,20.91,41.42,1.9286,378.9486],
    [22914,1532816742,57.151,-111.5792,1243.0,969.6,264.3,4.2,3.8,21.58,41.35,1.9319,379.787],
    [22915,1532816743,57.151,-111.5803,1249.2,975.3,262.5,3.7,5.4,22.31,41.04,1.9302,380.1548],
    [22916,1532816744,57.1509,-111.5813,1252.1,978.2,262.8,3.4,4.8,21.34,41.36,1.9305,380.5119],
    [22917,1532816745,57.1509,-111.5823,1252.6,979.6,262.7,2.7,4.8,21.5,41.37,1.9301,379.2495],
    [22918,1532816746,57.1509,-111.5833,1252.7,979.7,261.5,2.3,5.4,22.09,41.42,1.9307,379.9679],
    [22919,1532816747,57.1508,-111.5844,1253.0,980.7,263.4,2.0,2.0,21.87,41.61,1.9329,378.6482],
    [22920,1532816748,57.1508,-111.5854,1253.0,980.0,265.1,1.4,0.2,22.01,41.38,1.9327,380.0127],
    [22921,1532816749,57.1507,-111.5864,1252.5,979.5,264.7,1.2,0.3,21.43,41.89,1.9311,379.6246],
    [22922,1532816750,57.1507,-111.5875,1250.7,977.7,265.4,1.1,-0.1,21.19,42.12,1.9307,380.0153],
    [22923,1532816751,57.1506,-111.5885,1248.4,975.4,265.3,-0.2,0.1,22.27,41.77,1.9303,379.3071],
    [22924,1532816752,57.1506,-111.5895,1246.4,974.5,265.2,-0.6,0.7,21.49,41.9,1.9321,378.7255],
    [22925,1532816753,57.1506,-111.5906,1244.9,973.9,265.3,-0.3,0.7,21.61,41.59,1.9322,378.5627],
    [22926,1532816754,57.1505,-111.5917,1242.6,972.6,264.6,-0.8,1.7,21.64,41.68,1.9347,379.3224],
    [22927,1532816755,57.1505,-111.5927,1240.8,971.5,265.6,-1.3,0.6,21.17,41.74,1.9369,378.1771],
    [22928,1532816756,57.1504,-111.5938,1238.1,970.1,266.7,-1.3,-0.1,21.61,41.8,1.9492,378.9621],
    [22929,1532816757,57.1504,-111.5949,1235.3,968.3,265.8,-1.6,1.0,21.33,41.9,1.9401,379.0723],
    [22930,1532816758,57.1504,-111.596,1233.0,965.3,266.6,-0.4,0.5,21.44,41.99,1.9321,379.5158],
    [22931,1532816759,57.1503,-111.597,1231.2,962.2,266.6,-0.3,1.1,21.68,42.13,1.9313,378.8488],
    [22932,1532816760,57.1503,-111.5981,1229.9,959.9,267.0,-1.5,0.8,22.19,41.6,1.9306,378.8488],
    [22933,1532816761,57.1503,-111.5992,1229.1,958.1,267.6,-2.0,0.2,21.97,42.11,1.9311,378.6322],
    [22934,1532816762,57.1503,-111.6002,1229.0,958.0,267.6,-1.4,0.3,21.63,42.59,1.9296,378.6181],
    [22935,1532816763,57.1503,-111.6013,1230.2,959.2,268.3,-1.9,-0.2,21.45,42.6,1.9302,379.1294],
    [22936,1532816764,57.1502,-111.6024,1232.3,963.3,268.4,-1.0,0.1,21.62,43.16,1.9298,379.7527],
    [22937,1532816765,57.1502,-111.6034,1234.3,968.2,267.8,-1.2,0.7,21.67,42.58,1.9296,378.1314],
    [22938,1532816766,57.1502,-111.6045,1236.0,973.4,268.3,-1.1,0.4,22.04,42.29,1.9302,378.2942],
    [22939,1532816767,57.1502,-111.6055,1236.6,976.0,267.7,-0.8,1.4,21.73,42.78,1.9296,379.7447],
    [22940,1532816768,57.1502,-111.6066,1236.7,979.6,268.5,-1.4,0.8,21.7,43.67,1.9305,378.5653],
    [22941,1532816769,57.1502,-111.6076,1236.8,983.8,268.9,-0.4,1.1,21.47,43.16,1.9299,379.4029],
    [22942,1532816770,57.1502,-111.6087,1237.6,988.0,269.2,-0.7,1.2,21.56,43.77,1.9302,380.2507],
    [22943,1532816771,57.1502,-111.6097,1237.9,990.0,269.8,-0.7,1.0,21.13,43.09,1.9308,380.4481],
    [22944,1532816772,57.1502,-111.6107,1237.7,992.1,269.8,-0.3,1.7,21.1,43.09,1.9306,379.9357],
    [22945,1532816773,57.1502,-111.6118,1237.3,994.3,271.1,-0.3,1.0,21.55,43.13,1.9307,379.5883],
    [22946,1532816774,57.1502,-111.6128,1236.9,996.2,271.6,-0.1,1.3,21.32,43.93,1.9292,377.9546],
    [22947,1532816775,57.1503,-111.6139,1237.5,998.6,271.5,0.5,1.1,21.2,43.36,1.9281,379.9139],
    [22948,1532816776,57.1503,-111.6149,1238.0,999.0,271.5,0.9,1.1,21.26,43.64,1.928,378.9457],
    [22949,1532816777,57.1503,-111.6159,1238.0,1000.9,271.1,0.7,1.5,21.98,43.89,1.9292,379.2806],
    [22950,1532816778,57.1503,-111.617,1237.6,1001.6,271.4,2.0,1.1,21.27,44.17,1.9305,379.7025],
    [22951,1532816779,57.1504,-111.618,1237.0,1001.0,272.1,2.5,0.5,21.55,44.37,1.9312,379.7716],
    [22952,1532816780,57.1504,-111.6191,1236.4,1001.7,272.0,2.7,0.3,21.13,44.11,1.931,380.9751],
    [22953,1532816781,57.1504,-111.6201,1235.9,1001.9,271.0,2.1,0.5,21.73,43.71,1.9323,379.1597],
    [22954,1532816782,57.1504,-111.6212,1235.4,1001.4,269.8,2.0,0.2,21.45,43.87,1.9315,379.5326],
    [22955,1532816783,57.1504,-111.6222,1234.8,1000.8,268.9,2.2,0.0,21.27,43.78,1.9314,379.5017],
    [22956,1532816784,57.1504,-111.6232,1234.5,999.5,267.4,2.6,0.5,22.04,43.45,1.9303,378.7668],
    [22957,1532816785,57.1504,-111.6243,1234.2,999.2,266.7,3.3,0.3,21.42,44.08,1.9311,378.864],
    [22958,1532816786,57.1503,-111.6253,1234.5,997.5,266.1,4.1,0.7,21.22,43.82,1.9303,379.2086],
    [22959,1532816787,57.1503,-111.6264,1235.4,997.1,265.4,4.9,1.4,21.85,43.58,1.9313,379.505],
    [22960,1532816788,57.1503,-111.6274,1236.4,994.2,266.1,4.5,0.7,21.12,44.42,1.9311,378.4847],
    [22961,1532816789,57.1502,-111.6285,1237.8,993.7,266.0,5.0,1.1,21.28,43.89,1.9302,378.5708],
    [22962,1532816790,57.1502,-111.6295,1239.1,996.8,265.4,4.0,2.0,21.35,43.82,1.93,379.6126],
    [22963,1532816791,57.1502,-111.6305,1240.3,998.3,265.6,4.0,2.2,21.96,43.37,1.93,379.8898],
    [22964,1532816792,57.1502,-111.6316,1241.9,999.9,266.0,4.8,2.2,22.14,43.23,1.9311,378.9433],
    [22965,1532816793,57.1501,-111.6326,1243.5,1000.5,267.0,4.7,1.9,21.65,43.64,1.9324,378.3791],
    [22966,1532816794,57.1501,-111.6336,1244.4,997.1,268.3,5.4,2.1,21.29,43.57,1.9339,379.2676],
    [22967,1532816795,57.1501,-111.6347,1245.7,993.3,268.2,5.8,3.5,21.77,42.99,1.9335,379.2676],
    [22968,1532816796,57.1501,-111.6357,1246.7,990.0,269.9,6.1,2.9,20.88,43.38,1.9315,379.4548],
    [22969,1532816797,57.1502,-111.6367,1247.0,986.1,271.7,6.3,2.2,21.0,43.56,1.9302,378.9354],
    [22970,1532816798,57.1502,-111.6378,1247.6,985.3,272.2,6.8,2.7,21.46,44.07,1.9293,378.9354],
    [22971,1532816799,57.1503,-111.6388,1248.3,985.3,272.9,7.3,2.6,21.57,43.06,1.9291,379.7346],
    [22972,1532816800,57.1503,-111.6398,1249.8,984.9,273.3,6.8,2.3,21.55,43.75,1.9203,379.353],
    [22973,1532816801,57.1504,-111.6408,1252.3,985.3,272.5,7.3,2.6,22.19,42.6,1.9092,379.3592],
    [22974,1532816802,57.1504,-111.6418,1255.3,987.3,271.8,7.9,2.1,21.37,42.5,1.9104,380.5771],
    [22975,1532816803,57.1505,-111.6428,1258.4,990.4,272.2,8.2,0.7,21.38,41.48,1.9132,380.1831],
    [22976,1532816804,57.1505,-111.6438,1261.3,993.3,269.5,8.6,3.0,22.18,39.93,1.9151,379.5175],
    [22977,1532816805,57.1505,-111.6448,1264.6,996.6,268.5,8.9,2.6,21.42,40.83,1.9142,379.2608],
    [22978,1532816806,57.1505,-111.6458,1267.8,998.8,269.2,9.5,1.2,22.24,39.0,1.9105,380.5132],
    [22979,1532816807,57.1505,-111.6469,1270.5,1000.6,267.3,9.6,2.6,21.24,40.12,1.9066,379.3446],
    [22980,1532816808,57.1505,-111.6479,1273.5,1000.5,267.4,9.3,1.6,21.57,38.58,1.9082,380.4544],
    [22981,1532816809,57.1505,-111.6489,1276.1,1000.0,267.4,9.3,1.1,21.32,37.76,1.9102,380.9044],
    [22982,1532816810,57.1505,-111.6499,1277.8,999.5,266.8,9.1,1.6,21.04,37.27,1.9104,380.1006],
    [22983,1532816811,57.1504,-111.6509,1279.1,997.5,267.3,8.5,1.2,21.36,37.14,1.9089,380.6907],
    [22984,1532816812,57.1504,-111.6519,1279.6,995.6,267.3,8.2,1.4,22.07,36.18,1.91,381.1864],
    [22985,1532816813,57.1504,-111.6529,1279.9,992.9,267.2,7.6,1.8,21.39,37.05,1.91,380.771],
    [22986,1532816814,57.1504,-111.6539,1279.3,990.3,267.0,7.0,2.4,21.46,36.32,1.9127,381.0237],
    [22987,1532816815,57.1504,-111.6548,1278.5,987.2,266.6,6.7,2.8,21.45,36.38,1.9137,382.21],
    [22988,1532816816,57.1504,-111.6559,1277.6,984.6,267.3,7.0,2.1,21.7,35.69,1.918,379.4928],
    [22989,1532816817,57.1504,-111.6569,1277.0,983.0,266.8,7.5,2.8,21.52,36.27,1.9228,380.5028],
    [22990,1532816818,57.1504,-111.6579,1276.2,980.2,267.3,6.9,2.1,21.75,36.58,1.9221,381.121],
    [22991,1532816819,57.1503,-111.6589,1275.1,977.1,267.4,6.3,2.3,22.06,37.19,1.9197,380.3748],
    [22992,1532816820,57.1503,-111.6599,1274.8,976.8,267.3,6.3,2.5,21.52,37.85,1.9182,379.6002],
    [22993,1532816821,57.1503,-111.661,1274.5,976.5,267.6,5.5,2.5,21.5,38.43,1.9177,379.6662],
    [22994,1532816822,57.1503,-111.662,1274.5,977.5,267.8,4.5,2.6,21.16,39.23,1.926,378.8201],
    [22995,1532816823,57.1503,-111.6631,1275.4,978.4,268.5,4.1,2.1,21.46,39.72,1.9275,379.555],
    [22996,1532816824,57.1503,-111.6641,1276.3,977.9,268.3,3.2,2.2,21.31,39.96,1.9268,379.9686],
    [22997,1532816825,57.1503,-111.6651,1277.3,977.2,267.5,3.1,2.7,21.38,40.37,1.929,379.41],
    [22998,1532816826,57.1503,-111.6662,1278.5,977.5,266.8,2.4,3.1,22.19,40.5,1.9278,378.6229],
    [22999,1532816827,57.1503,-111.6672,1280.1,975.7,267.0,2.7,2.8,21.53,41.36,1.9278,379.0128],
    [23000,1532816828,57.1503,-111.6683,1281.3,975.1,267.6,1.9,2.4,21.28,42.91,1.9282,377.2899],
    [23001,1532816829,57.1503,-111.6694,1281.5,971.8,267.6,2.7,2.9,21.79,41.94,1.9228,380.0333],
    [23002,1532816830,57.1503,-111.6704,1280.8,969.8,268.2,2.6,2.7,21.17,43.08,1.9171,379.9858],
    [23003,1532816831,57.1503,-111.6715,1279.0,968.0,269.0,2.9,2.1,21.11,42.28,1.9155,379.3508],
    [23004,1532816832,57.1503,-111.6726,1277.4,966.4,269.3,2.5,1.9,21.76,41.75,1.9144,379.4788],
    [23005,1532816833,57.1504,-111.6737,1276.6,963.6,268.8,2.0,2.1,21.41,41.71,1.9143,380.4094],
    [23006,1532816834,57.1504,-111.6747,1276.3,962.3,267.3,1.7,2.8,21.36,42.17,1.9161,378.9486],
    [23007,1532816835,57.1503,-111.6758,1276.4,962.4,266.6,1.2,3.0,20.97,41.26,1.9161,379.2458],
    [23008,1532816836,57.1503,-111.6769,1276.8,962.8,266.3,1.2,3.2,21.77,40.38,1.9154,379.8673],
    [23009,1532816837,57.1503,-111.678,1276.6,961.6,268.4,1.1,1.3,20.73,41.13,1.9107,380.1163],
    [23010,1532816838,57.1503,-111.6791,1275.9,960.9,269.0,1.0,1.1,21.63,40.28,1.9146,380.2361],
    [23011,1532816839,57.1503,-111.6802,1275.0,960.0,268.3,0.9,1.8,21.08,40.46,1.9148,380.0865],
    [23012,1532816840,57.1503,-111.6813,1273.5,958.5,268.3,0.9,2.0,21.43,40.5,1.9128,380.0581],
    [23013,1532816841,57.1503,-111.6824,1272.8,957.8,267.0,1.4,3.0,21.27,40.52,1.9128,379.5864],
    [23014,1532816842,57.1503,-111.6835,1273.1,957.4,268.4,1.4,1.5,21.6,39.65,1.9121,380.5434],
    [23015,1532816843,57.1503,-111.6845,1273.1,957.1,269.8,1.6,0.4,21.82,39.22,1.9111,380.5434],
    [23016,1532816844,57.1503,-111.6857,1272.2,955.2,269.4,1.3,1.2,21.35,39.17,1.9108,380.1484],
    [23017,1532816845,57.1503,-111.6867,1270.4,952.4,270.2,0.9,0.7,21.06,38.98,1.9105,381.391],
    [23018,1532816846,57.1503,-111.6878,1268.7,950.7,270.3,0.8,1.1,21.31,38.68,1.9094,381.2379],
    [23019,1532816847,57.1504,-111.6889,1267.0,948.0,270.0,0.4,1.7,21.07,38.02,1.9087,381.7894],
    [23020,1532816848,57.1504,-111.69,1265.8,946.8,270.0,0.7,1.8,21.34,37.03,1.909,378.718],
    [23021,1532816849,57.1504,-111.6911,1265.2,945.2,270.0,0.7,1.7,21.32,36.94,1.9094,381.2723],
    [23022,1532816850,57.1504,-111.6922,1266.2,946.2,269.5,1.3,1.8,22.07,35.67,1.9112,381.4855],
    [23023,1532816851,57.1504,-111.6933,1268.6,948.6,269.4,1.4,1.3,21.57,35.58,1.9109,382.0041],
    [23024,1532816852,57.1504,-111.6944,1271.4,951.4,268.6,1.9,1.8,21.31,35.73,1.9111,381.6734],
    [23025,1532816853,57.1504,-111.6955,1274.2,953.2,267.5,2.4,2.2,21.72,35.42,1.9113,381.4233],
    [23026,1532816854,57.1504,-111.6966,1276.8,955.8,267.6,3.3,1.9,21.37,36.3,1.9116,381.4415],
    [23027,1532816855,57.1504,-111.6976,1279.1,957.1,267.3,3.7,2.3,21.32,35.82,1.9129,381.4447],
    [23028,1532816856,57.1504,-111.6986,1281.3,959.3,268.2,3.9,1.6,21.28,35.83,1.9123,380.9231],
    [23029,1532816857,57.1504,-111.6997,1283.3,961.3,268.5,4.6,2.0,20.86,35.73,1.9113,380.9231],
    [23030,1532816858,57.1504,-111.7008,1285.2,963.2,268.6,5.1,2.1,22.03,34.98,1.9125,380.9362],
    [23031,1532816859,57.1504,-111.7018,1286.5,964.5,269.8,4.9,1.3,21.06,35.91,1.9111,382.5264],
    [23032,1532816860,57.1504,-111.7028,1287.3,965.3,269.7,4.9,1.7,20.84,35.8,1.9095,381.3913],
    [23033,1532816861,57.1504,-111.7039,1287.9,965.9,270.0,5.2,1.6,21.78,35.45,1.91,381.2469],
    [23034,1532816862,57.1504,-111.705,1288.2,966.2,270.5,5.2,1.4,21.35,35.75,1.9112,381.4006],
    [23035,1532816863,57.1504,-111.706,1288.7,965.7,269.9,5.2,2.4,21.03,35.92,1.9106,382.0565],
    [23036,1532816864,57.1505,-111.7071,1289.1,966.1,270.4,5.6,2.0,21.35,35.66,1.9063,381.3536],
    [23037,1532816865,57.1505,-111.7081,1289.6,966.6,270.6,6.1,1.7,20.98,35.2,1.9048,382.214],
    [23038,1532816866,57.1505,-111.7092,1292.0,968.0,269.3,6.4,2.3,21.23,34.95,1.9047,382.847],
    [23039,1532816867,57.1505,-111.7103,1295.3,971.3,268.9,6.7,1.8,21.25,34.58,1.903,382.8685],
    [23040,1532816868,57.1505,-111.7113,1298.9,974.9,268.7,6.9,1.6,20.53,33.95,1.9019,383.7185],
    [23041,1532816869,57.1505,-111.7124,1302.2,978.2,268.2,7.0,1.9,21.4,33.29,1.904,382.8513],
    [23042,1532816870,57.1505,-111.7134,1304.5,979.5,268.5,6.8,1.7,21.17,32.9,1.9059,384.2131],
    [23043,1532816871,57.1505,-111.7145,1305.7,980.7,268.7,6.5,1.9,21.75,32.31,1.9056,383.282],
    [23044,1532816872,57.1505,-111.7155,1306.0,981.0,268.5,6.3,2.7,21.42,32.24,1.9121,381.7431],
    [23045,1532816873,57.1505,-111.7165,1305.8,979.8,268.8,6.0,2.8,21.25,32.42,1.9145,381.6154],
    [23046,1532816874,57.1505,-111.7176,1305.1,979.1,268.9,7.0,3.0,21.13,32.74,1.915,381.527],
    [23047,1532816875,57.1506,-111.7186,1304.2,978.2,269.1,6.5,2.9,21.31,33.72,1.9148,382.5244],
    [23048,1532816876,57.1506,-111.7197,1303.5,977.5,269.1,6.6,2.9,21.27,34.41,1.914,381.4818],
    [23049,1532816877,57.1506,-111.7207,1303.5,977.5,268.6,5.0,3.1,21.41,35.76,1.9121,381.6978],
    [23050,1532816878,57.1506,-111.7218,1304.0,977.0,268.4,4.0,3.3,22.22,34.96,1.9123,380.3517],
    [23051,1532816879,57.1506,-111.7229,1304.6,977.6,268.1,5.1,3.4,21.19,36.14,1.9117,381.1007],
    [23052,1532816880,57.1506,-111.7239,1305.2,978.2,268.3,3.9,2.9,21.43,36.43,1.912,381.1158],
    [23053,1532816881,57.1506,-111.725,1305.5,978.5,267.6,3.7,3.4,21.79,35.6,1.9132,381.12],
    [23054,1532816882,57.1506,-111.7261,1305.6,978.6,267.0,3.7,3.7,21.19,37.02,1.9123,382.4693],
    [23055,1532816883,57.1506,-111.7271,1306.1,979.1,266.8,2.9,3.5,21.48,36.33,1.9118,382.7163],
    [23056,1532816884,57.1506,-111.7282,1306.5,979.5,266.8,2.8,3.3,21.62,35.86,1.9117,382.7163],
    [23057,1532816885,57.1506,-111.7293,1306.9,979.2,266.8,2.7,3.5,21.29,36.18,1.9113,380.8113],
    [23058,1532816886,57.1506,-111.7303,1307.1,979.4,266.9,3.0,3.5,21.38,36.23,1.9105,381.4669],
    [23059,1532816887,57.1506,-111.7314,1307.4,980.4,267.0,3.3,3.6,20.95,36.45,1.9104,381.143],
    [23060,1532816888,57.1506,-111.7325,1307.7,980.7,267.4,2.4,3.1,20.69,35.97,1.9112,381.672],
    [23061,1532816889,57.1506,-111.7336,1308.1,981.1,268.0,2.4,2.9,20.89,36.07,1.9122,381.2938],
    [23062,1532816890,57.1506,-111.7347,1308.4,981.4,268.2,2.3,3.1,21.46,36.1,1.9149,381.0969],
    [23063,1532816891,57.1506,-111.7357,1308.7,981.7,269.4,2.9,2.5,21.1,36.26,1.914,381.9974],
    [23064,1532816892,57.1507,-111.7368,1309.0,983.0,270.0,3.0,2.5,21.35,37.48,1.9128,380.2253],
    [23065,1532816893,57.1507,-111.7379,1309.7,983.7,270.4,4.0,2.4,21.03,36.98,1.9153,380.398],
    [23066,1532816894,57.1507,-111.7389,1310.5,984.5,271.0,4.2,2.1,21.52,37.17,1.9132,380.8801],
    [23067,1532816895,57.1507,-111.74,1311.5,985.5,270.3,4.9,2.8,21.15,37.5,1.912,380.8801],
    [23068,1532816896,57.1508,-111.741,1312.6,987.6,270.2,4.5,2.4,21.37,38.44,1.9118,380.3932],
    [23069,1532816897,57.1508,-111.7421,1313.3,988.3,270.1,4.2,2.0,21.2,37.6,1.9117,380.5472],
    [23070,1532816898,57.1508,-111.7431,1313.4,988.4,268.8,4.3,2.5,21.32,38.0,1.9117,381.161],
    [23071,1532816899,57.1508,-111.7442,1312.9,987.9,267.8,3.9,2.5,21.87,37.17,1.9121,381.4953],
    [23072,1532816900,57.1508,-111.7452,1311.7,985.8,266.7,3.4,2.7,21.72,37.06,1.9119,381.4953],
    [23073,1532816901,57.1508,-111.7463,1310.2,984.2,265.6,3.1,2.9,21.2,37.13,1.9123,381.0786],
    [23074,1532816902,57.1508,-111.7474,1308.6,982.6,265.6,2.8,2.3,22.09,36.74,1.9112,381.5272],
    [23075,1532816903,57.1507,-111.7485,1307.0,981.6,265.2,3.5,2.7,22.0,36.49,1.9115,381.2644],
    [23076,1532816904,57.1507,-111.7495,1305.7,980.8,265.1,2.6,2.9,20.75,37.07,1.9108,381.3985],
    [23077,1532816905,57.1507,-111.7506,1304.5,982.1,265.6,3.3,2.6,21.33,37.23,1.9104,380.7908],
    [23078,1532816906,57.1507,-111.7517,1303.2,986.8,266.0,3.7,2.6,21.23,36.53,1.9093,381.6443],
    [23079,1532816907,57.1506,-111.7528,1301.7,994.6,266.5,2.6,2.5,21.65,36.17,1.9106,381.4991],
    [23080,1532816908,57.1506,-111.7539,1300.1,1004.7,267.4,2.2,2.4,20.68,36.04,1.9108,381.3948],
    [23081,1532816909,57.1506,-111.755,1298.4,1010.6,268.5,1.8,2.0,21.55,36.32,1.9111,381.2905],
    [23082,1532816910,57.1506,-111.7561,1296.7,1013.8,269.7,0.8,1.7,21.41,36.63,1.9124,381.737],
    [23083,1532816911,57.1507,-111.7572,1295.5,1015.4,269.8,-0.2,2.4,20.99,36.1,1.9108,381.737],
    [23084,1532816912,57.1507,-111.7583,1294.7,1015.4,269.9,0.4,2.5,21.6,35.6,1.9109,380.8309],
    [23085,1532816913,57.1507,-111.7594,1294.1,1017.3,270.2,0.8,2.2,21.44,36.05,1.9124,380.469],
    [23086,1532816914,57.1507,-111.7605,1294.0,1018.4,269.6,1.0,2.6,22.17,35.07,1.9127,381.6102],
    [23087,1532816915,57.1507,-111.7616,1294.3,1016.8,269.5,0.0,2.2,21.35,36.11,1.9116,381.992],
    [23088,1532816916,57.1507,-111.7627,1294.7,1017.5,268.9,-0.5,1.8,21.14,36.54,1.9108,381.0878],
    [23089,1532816917,57.1507,-111.7638,1295.5,1019.2,267.9,-0.2,1.5,20.87,35.78,1.9103,381.0846],
    [23090,1532816918,57.1507,-111.7649,1296.8,1021.2,266.5,-0.3,1.4,22.01,35.48,1.9114,381.4895],
    [23091,1532816919,57.1507,-111.766,1298.7,1021.9,265.1,0.4,2.0,21.23,35.83,1.9111,381.4895],
    [23092,1532816920,57.1507,-111.7671,1300.8,1020.8,264.9,1.8,1.6,21.48,35.74,1.9122,379.1242],
    [23093,1532816921,57.1506,-111.7682,1303.1,1020.3,266.1,2.8,0.3,21.15,35.79,1.9134,381.2968],
    [23094,1532816922,57.1506,-111.7693,1304.6,1018.9,265.5,1.9,0.9,21.99,35.17,1.9135,380.1589],
    [23095,1532816923,57.1505,-111.7704,1305.1,1016.1,266.5,1.7,-0.1,21.4,36.89,1.9133,380.1589],
    [23096,1532816924,57.1505,-111.7714,1304.0,1013.0,267.3,1.0,0.1,21.45,36.97,1.913,380.8269],
    [23097,1532816925,57.1505,-111.7725,1302.6,1010.6,267.0,-0.2,0.8,21.08,36.48,1.9119,380.701],
    [23098,1532816926,57.1505,-111.7736,1300.4,1009.4,270.1,-1.3,-1.4,21.45,36.66,1.9127,380.4194],
    [23099,1532816927,57.1505,-111.7747,1298.9,1007.9,270.4,-1.8,-0.6,21.86,36.45,1.9143,380.554],
    [23100,1532816928,57.1505,-111.7758,1298.5,1007.5,270.1,-1.9,-0.1,21.45,37.28,1.914,380.8994],
    [23101,1532816929,57.1505,-111.7769,1299.7,1007.7,269.5,-1.9,0.4,21.46,37.71,1.9118,380.8966],
    [23102,1532816930,57.1505,-111.778,1302.0,1008.0,269.1,-1.9,0.2,21.16,37.22,1.9127,380.7111],
    [23103,1532816931,57.1504,-111.7792,1304.8,1005.4,268.4,-1.9,0.3,21.36,37.75,1.9131,381.4957],
    [23104,1532816932,57.1504,-111.7802,1307.1,1001.5,267.3,-1.6,0.5,22.18,36.53,1.9129,380.7971],
    [23105,1532816933,57.1504,-111.7813,1308.1,994.1,266.2,-2.0,0.9,21.45,37.27,1.9134,381.0653],
    [23106,1532816934,57.1504,-111.7824,1308.2,987.9,264.2,-1.8,2.3,21.45,38.16,1.9131,381.3002],
    [23107,1532816935,57.1503,-111.7834,1308.1,982.4,264.1,-1.9,2.0,21.52,37.77,1.9128,380.1214],
    [23108,1532816936,57.1503,-111.7845,1308.3,981.3,265.1,-1.9,0.9,21.63,37.21,1.9114,381.2178],
    [23109,1532816937,57.1503,-111.7856,1309.2,982.2,265.8,-2.0,0.8,21.4,37.83,1.9123,381.2178],
    [23110,1532816938,57.1502,-111.7867,1311.0,983.0,265.9,-2.0,1.8,21.35,37.69,1.9129,380.3776],
    [23111,1532816939,57.1502,-111.7878,1313.7,984.7,266.5,-1.7,2.3,21.63,37.24,1.9099,381.0182],
    [23112,1532816940,57.1502,-111.7889,1316.7,987.7,267.7,-1.6,1.9,20.59,37.8,1.91,381.1396],
    [23113,1532816941,57.1502,-111.79,1319.4,990.1,268.8,-1.7,1.0,21.41,37.97,1.911,381.1396],
    [23114,1532816942,57.1502,-111.791,1319.8,989.8,270.6,-2.7,-0.5,21.39,37.21,1.9108,381.4857],
    [23115,1532816943,57.1502,-111.7921,1319.4,989.4,270.7,-3.1,-0.8,21.27,36.8,1.9103,381.8393],
    [23116,1532816944,57.1502,-111.7932,1318.8,988.8,270.0,-4.4,-0.3,20.83,36.73,1.9108,380.8953],
    [23117,1532816945,57.1502,-111.7943,1317.4,987.4,268.9,-4.9,0.6,21.21,36.99,1.9113,380.6358],
    [23118,1532816946,57.1502,-111.7954,1315.6,984.6,268.1,-5.8,1.0,21.09,36.54,1.9105,381.7942],
    [23119,1532816947,57.1502,-111.7965,1314.1,983.1,268.6,-6.8,0.0,22.06,35.96,1.9096,381.6716],
    [23120,1532816948,57.1501,-111.7976,1312.6,981.6,267.9,-7.1,0.3,21.41,37.2,1.9094,381.6716],
    [23121,1532816949,57.1501,-111.7987,1310.4,979.4,267.1,-7.1,0.5,21.53,36.33,1.9109,381.5798],
    [23122,1532816950,57.1501,-111.7998,1308.6,977.6,266.9,-7.1,0.5,20.95,36.36,1.9099,381.5798],
    [23123,1532816951,57.1501,-111.8009,1307.4,976.4,265.9,-6.8,1.2,21.22,36.29,1.9106,382.0128],
    [23124,1532816952,57.15,-111.802,1306.8,975.8,265.8,-6.9,0.4,20.98,36.24,1.909,380.7481],
    [23125,1532816953,57.15,-111.8031,1306.3,974.3,265.0,-6.2,-0.5,21.31,36.18,1.9099,380.3938],
    [23126,1532816954,57.1499,-111.8042,1305.9,973.9,261.7,-5.6,-0.2,21.4,36.94,1.912,381.6243],
    [23127,1532816955,57.1498,-111.8053,1305.4,973.4,257.1,-4.8,0.3,21.21,36.23,1.9116,379.8596],
    [23128,1532816956,57.1497,-111.8063,1304.8,972.8,252.3,-4.7,0.1,22.21,35.65,1.9125,381.2676],
    [23129,1532816957,57.1495,-111.8073,1304.3,972.3,247.8,-3.8,-0.3,21.15,36.18,1.9105,381.4029],
    [23130,1532816958,57.1493,-111.8083,1303.8,971.8,241.8,-3.4,0.6,21.34,36.26,1.9104,381.53],
    [23131,1532816959,57.149,-111.8092,1303.3,971.3,236.6,-2.7,0.4,21.36,36.46,1.9112,381.3999],
    [23132,1532816960,57.1487,-111.8101,1304.2,972.2,232.0,-2.5,-0.2,21.4,37.13,1.9098,381.1321],
    [23133,1532816961,57.1483,-111.8109,1305.4,973.4,227.2,-3.1,0.2,21.3,36.95,1.9102,381.2191],
    [23134,1532816962,57.1479,-111.8117,1307.0,975.0,223.0,-3.2,-0.1,21.19,36.34,1.9106,382.5805],
    [23135,1532816963,57.1475,-111.8124,1310.0,978.0,221.5,-2.5,-1.9,21.22,36.23,1.9106,382.4158],
    [23136,1532816964,57.1471,-111.8131,1313.0,980.0,219.2,-1.9,-0.9,21.24,36.39,1.9091,382.4158],
    [23137,1532816965,57.1466,-111.8138,1314.6,981.6,217.5,-1.6,-1.1,21.97,35.43,1.9102,379.5468],
    [23138,1532816966,57.1462,-111.8144,1315.9,982.9,216.3,-0.6,-1.3,21.97,35.87,1.911,381.3457],
    [23139,1532816967,57.1457,-111.815,1317.4,983.4,214.2,0.1,-1.0,21.25,36.21,1.9111,381.4405],
    [23140,1532816968,57.1452,-111.8155,1319.8,985.8,211.4,0.2,-0.9,21.25,36.08,1.9117,381.4405],
    [23141,1532816969,57.1447,-111.816,1322.7,988.7,209.2,0.8,-0.8,20.86,36.0,1.9103,381.595],
    [23142,1532816970,57.1442,-111.8165,1325.4,991.4,207.8,1.6,-0.9,21.04,36.07,1.9109,381.2155],
    [23143,1532816971,57.1438,-111.8169,1326.6,992.6,205.7,1.3,-0.7,22.17,35.36,1.9123,381.2155],
    [23144,1532816972,57.1433,-111.8173,1327.0,993.0,203.1,1.2,-0.1,21.58,35.9,1.9121,381.4294],
    [23145,1532816973,57.1427,-111.8177,1327.3,993.3,201.3,1.7,-0.1,21.85,35.63,1.9099,380.9081],
    [23146,1532816974,57.1422,-111.818,1327.5,993.5,199.1,1.6,-0.2,21.55,35.85,1.9102,381.178],
    [23147,1532816975,57.1417,-111.8183,1327.5,993.5,196.8,1.4,0.0,21.72,35.64,1.9105,381.5862],
    [23148,1532816976,57.1412,-111.8185,1327.0,993.0,195.3,1.6,-0.3,22.09,35.05,1.9108,382.1609],
    [23149,1532816977,57.1407,-111.8188,1326.0,992.0,193.5,1.5,-0.1,21.02,35.68,1.9107,381.2189],
    [23150,1532816978,57.1401,-111.819,1324.7,990.7,191.7,1.4,-0.1,21.61,35.35,1.9104,381.2189],
    [23151,1532816979,57.1396,-111.8191,1322.9,988.9,190.5,1.8,0.3,21.85,35.25,1.9105,380.7442],
    [23152,1532816980,57.1391,-111.8193,1321.1,986.1,188.8,1.8,1.4,21.58,35.36,1.9115,381.0737],
    [23153,1532816981,57.1385,-111.8194,1319.3,984.3,187.4,2.0,1.7,22.28,34.96,1.9105,381.0737],
    [23154,1532816982,57.138,-111.8195,1317.2,982.2,185.7,1.8,1.9,22.04,34.8,1.9106,381.6442],
    [23155,1532816983,57.1374,-111.8195,1315.7,980.7,183.9,1.5,3.7,21.44,35.99,1.9103,380.1138],
    [23156,1532816984,57.1369,-111.8196,1314.5,979.5,183.4,2.0,4.0,21.4,35.75,1.9093,380.1138],
    [23157,1532816985,57.1363,-111.8196,1313.7,978.7,182.3,1.7,4.4,21.7,35.51,1.9111,381.456],
    [23158,1532816986,57.1358,-111.8196,1313.2,978.2,181.4,1.6,5.5,21.29,35.76,1.9107,381.3734],
    [23159,1532816987,57.1352,-111.8196,1312.3,977.3,181.1,1.6,6.4,21.35,36.47,1.9093,380.9958],
    [23160,1532816988,57.1347,-111.8196,1311.2,976.2,180.9,1.7,7.2,22.05,35.21,1.9095,380.2306],
    [23161,1532816989,57.1342,-111.8196,1309.7,974.7,181.7,2.2,6.7,21.67,36.11,1.9088,381.3989],
    [23162,1532816990,57.1336,-111.8196,1308.1,973.1,181.5,1.7,6.4,21.48,35.7,1.9089,381.3647],
    [23163,1532816991,57.1331,-111.8196,1305.9,970.9,182.5,2.2,6.5,21.56,36.12,1.9099,381.3097],
    [23164,1532816992,57.1326,-111.8196,1303.5,968.5,183.5,2.9,6.7,21.49,35.47,1.9107,381.5905],
    [23165,1532816993,57.132,-111.8196,1301.7,966.7,183.5,3.1,6.6,21.27,35.53,1.9082,381.6659],
    [23166,1532816994,57.1315,-111.8196,1301.0,966.0,182.4,2.4,7.0,20.73,35.31,1.9086,380.7204],
    [23167,1532816995,57.131,-111.8196,1300.6,965.6,182.6,2.9,7.4,21.69,34.98,1.9074,380.0258],
    [23168,1532816996,57.1304,-111.8196,1299.9,964.9,183.5,3.9,7.4,21.53,35.05,1.9078,380.1172],
    [23169,1532816997,57.1299,-111.8196,1299.0,964.0,183.2,3.7,7.2,21.02,35.3,1.9088,380.5481],
    [23170,1532816998,57.1294,-111.8196,1297.5,962.5,184.0,4.7,6.7,21.41,35.74,1.91,381.8948],
    [23171,1532816999,57.1288,-111.8196,1295.8,960.8,184.5,5.0,6.6,22.21,34.31,1.9102,381.7277],
    [23172,1532817000,57.1283,-111.8196,1294.0,959.0,184.2,4.6,6.1,21.18,35.24,1.9079,381.7443],
    [23173,1532817001,57.1278,-111.8196,1291.9,956.9,184.4,4.3,6.1,20.79,34.75,1.9077,381.3797],
    [23174,1532817002,57.1272,-111.8196,1289.9,954.9,183.0,2.6,6.1,20.74,34.7,1.907,381.3968],
    [23175,1532817003,57.1267,-111.8197,1288.4,953.4,183.7,3.2,6.0,21.71,34.98,1.9071,381.6921],
    [23176,1532817004,57.1261,-111.8197,1287.6,952.6,183.8,3.1,5.8,21.84,34.21,1.9082,380.1518],
    [23177,1532817005,57.1256,-111.8197,1287.4,953.1,183.4,2.8,6.0,21.58,34.22,1.9089,381.3591],
    [23178,1532817006,57.125,-111.8197,1287.6,953.6,183.4,2.9,6.0,21.8,33.73,1.9082,382.0503],
    [23179,1532817007,57.1245,-111.8197,1288.2,954.2,182.9,2.5,6.1,20.85,34.62,1.9084,382.4817],
    [23180,1532817008,57.1239,-111.8198,1289.2,955.2,183.0,3.0,5.9,20.92,34.27,1.9074,382.096],
    [23181,1532817009,57.1234,-111.8198,1290.5,956.5,183.2,3.6,6.1,21.45,33.87,1.9081,382.2703],
    [23182,1532817010,57.1228,-111.8198,1292.0,957.7,182.9,3.5,6.0,21.52,33.88,1.9079,382.6676],
    [23183,1532817011,57.1223,-111.8198,1293.9,958.9,182.9,3.7,5.9,20.8,33.89,1.9082,382.8221],
    [23184,1532817012,57.1217,-111.8197,1295.9,960.9,182.9,3.8,6.1,22.31,33.18,1.9073,382.0195],
    [23185,1532817013,57.1212,-111.8197,1298.1,963.1,183.0,3.9,6.2,21.48,33.67,1.9077,382.9882],
    [23186,1532817014,57.1206,-111.8197,1300.2,965.2,183.5,4.4,6.4,21.37,33.65,1.9098,382.229],
    [23187,1532817015,57.1201,-111.8197,1302.3,967.3,183.1,3.8,6.7,21.48,33.46,1.909,381.9483],
    [23188,1532817016,57.1196,-111.8197,1304.3,970.3,182.6,3.4,7.0,21.03,33.56,1.9073,381.7883],
    [23189,1532817017,57.119,-111.8197,1305.7,972.7,182.8,3.6,6.6,21.43,34.15,1.9071,380.9685],
    [23190,1532817018,57.1185,-111.8197,1306.7,973.7,182.7,3.5,7.5,22.27,33.26,1.9088,381.5148],
    [23191,1532817019,57.1179,-111.8197,1307.5,975.5,182.4,3.3,7.4,21.88,33.16,1.9093,381.5148],
    [23192,1532817020,57.1174,-111.8197,1307.8,975.8,183.1,4.1,7.7,21.36,34.51,1.9082,381.6439],
    [23193,1532817021,57.1169,-111.8197,1307.5,975.5,183.0,3.9,8.0,22.07,33.56,1.9067,381.5675],
    [23194,1532817022,57.1163,-111.8197,1307.0,975.0,182.4,3.4,7.7,22.09,32.89,1.9092,381.932],
    [23195,1532817023,57.1158,-111.8197,1305.9,973.9,182.7,3.6,8.2,21.53,33.66,1.9089,381.8285],
    [23196,1532817024,57.1152,-111.8197,1304.3,972.3,182.5,3.3,7.6,22.22,33.17,1.908,381.6927],
    [23197,1532817025,57.1147,-111.8197,1302.5,970.5,183.3,4.2,7.6,21.36,33.89,1.9082,380.2741],
    [23198,1532817026,57.1141,-111.8197,1299.6,967.6,184.3,4.8,7.2,21.45,34.0,1.9078,382.4301],
    [23199,1532817027,57.1136,-111.8197,1297.8,964.8,182.5,2.7,6.8,21.44,33.62,1.9083,382.0541],
    [23200,1532817028,57.113,-111.8197,1298.0,965.0,182.3,2.6,6.3,21.53,33.92,1.9065,381.5378],
    [23201,1532817029,57.1124,-111.8197,1298.3,965.3,182.8,3.0,5.8,21.35,34.14,1.9071,381.9621],
    [23202,1532817030,57.1119,-111.8197,1299.4,966.4,182.0,2.0,5.7,21.66,33.17,1.9086,381.891],
    [23203,1532817031,57.1113,-111.8197,1300.4,967.4,182.4,2.6,5.9,21.52,33.44,1.9062,381.8117],
    [23204,1532817032,57.1107,-111.8197,1300.5,967.5,183.2,3.5,5.7,21.01,33.69,1.9055,381.8117],
    [23205,1532817033,57.1101,-111.8197,1300.7,967.4,184.2,4.4,5.4,21.39,33.45,1.9054,383.4133],
    [23206,1532817034,57.1096,-111.8197,1300.9,966.9,185.2,5.1,4.7,21.49,33.7,1.9063,382.4081],
    [23207,1532817035,57.109,-111.8197,1300.8,966.8,185.0,4.8,4.8,21.77,32.9,1.9076,380.8431],
    [23208,1532817036,57.1084,-111.8198,1300.9,966.9,184.8,4.8,5.5,22.32,32.7,1.91,381.8769],
    [23209,1532817037,57.1078,-111.8198,1301.1,967.1,184.1,4.4,5.6,21.48,33.74,1.91,381.5849],
    [23210,1532817038,57.1072,-111.8198,1301.3,967.3,183.5,4.2,4.9,21.5,33.24,1.9086,381.9645],
    [23211,1532817039,57.1066,-111.8198,1301.5,966.5,183.4,4.3,4.5,21.58,33.39,1.9075,382.4852],
    [23212,1532817040,57.1061,-111.8198,1301.8,966.8,183.2,4.2,4.2,21.52,33.83,1.9068,381.9481],
    [23213,1532817041,57.1054,-111.8198,1302.2,967.2,182.6,3.8,4.5,20.92,33.96,1.9064,380.83],
    [23214,1532817042,57.1049,-111.8198,1302.5,967.5,182.5,4.0,4.4,22.08,33.2,1.905,381.8451],
    [23215,1532817043,57.1043,-111.8197,1302.6,967.6,182.4,4.0,4.1,21.33,34.07,1.9047,381.8506],
    [23216,1532817044,57.1037,-111.8197,1302.6,967.6,182.0,3.7,3.5,21.14,33.87,1.9052,382.125],
    [23217,1532817045,57.1031,-111.8197,1302.6,966.9,182.2,3.9,3.2,21.24,34.11,1.9083,381.3262],
    [23218,1532817046,57.1025,-111.8197,1302.6,966.6,181.5,3.1,2.9,20.73,33.84,1.9098,381.3262],
    [23219,1532817047,57.1019,-111.8197,1302.6,966.6,180.9,2.6,2.4,21.52,34.38,1.9071,381.6168],
    [23220,1532817048,57.1013,-111.8196,1302.6,966.6,181.3,3.1,2.7,22.09,33.34,1.9083,381.5785],
    [23221,1532817049,57.1007,-111.8196,1302.4,965.7,181.6,3.1,3.5,21.41,33.86,1.9101,381.8864],
    [23222,1532817050,57.1001,-111.8196,1302.8,965.8,181.7,2.5,2.9,21.42,34.5,1.9094,380.6935],
    [23223,1532817051,57.0995,-111.8196,1303.3,966.3,182.5,2.8,2.5,21.56,34.13,1.9103,381.2813],
    [23224,1532817052,57.0989,-111.8196,1304.2,967.2,182.5,2.2,2.9,21.61,34.34,1.9115,380.5748],
    [23225,1532817053,57.0983,-111.8196,1305.5,968.5,182.7,2.4,2.9,21.64,34.68,1.9109,380.3728],
    [23226,1532817054,57.0977,-111.8196,1307.2,970.2,183.7,3.3,2.8,22.14,34.72,1.9111,381.4542],
    [23227,1532817055,57.0972,-111.8197,1308.8,970.8,183.5,2.9,2.9,20.9,35.5,1.9128,380.3231],
    [23228,1532817056,57.0965,-111.8197,1310.7,972.7,183.0,2.4,3.6,21.61,35.65,1.912,380.9988],
    [23229,1532817057,57.0959,-111.8197,1312.2,974.2,184.1,3.5,3.8,21.52,36.43,1.912,380.6594],
    [23230,1532817058,57.0954,-111.8197,1313.6,975.6,184.4,3.4,3.7,21.38,37.72,1.9122,379.4428],
    [23231,1532817059,57.0948,-111.8198,1315.0,976.0,183.9,3.0,3.9,21.2,37.25,1.912,380.1954],
    [23232,1532817060,57.0942,-111.8198,1316.1,977.0,184.5,3.8,4.1,21.55,37.45,1.9112,380.2709],
    [23233,1532817061,57.0936,-111.8198,1317.0,977.0,184.1,3.7,3.3,21.47,38.23,1.911,380.3278],
    [23234,1532817062,57.0929,-111.8198,1317.7,977.7,183.7,3.5,3.3,21.45,37.63,1.9133,379.5934],
    [23235,1532817063,57.0923,-111.8198,1317.6,976.6,183.4,3.7,4.1,21.15,38.01,1.9112,380.7556],
    [23236,1532817064,57.0917,-111.8199,1317.2,976.2,183.4,3.8,4.4,21.28,38.09,1.9108,379.5973],
    [23237,1532817065,57.0911,-111.8199,1316.5,975.5,182.3,2.5,3.0,20.94,38.15,1.9109,378.2045],
    [23238,1532817066,57.0905,-111.8199,1315.9,975.9,181.6,2.2,3.7,21.04,38.08,1.9111,379.6723],
    [23239,1532817067,57.0899,-111.8199,1315.5,975.5,182.5,3.6,3.9,21.57,38.19,1.9112,379.9049],
    [23240,1532817068,57.0893,-111.8198,1315.3,975.3,182.6,3.7,4.3,22.26,37.76,1.911,379.3278],
    [23241,1532817069,57.0887,-111.8198,1315.4,975.4,182.6,3.4,3.1,21.07,38.31,1.9128,379.7996],
    [23242,1532817070,57.0881,-111.8198,1316.0,976.0,182.9,3.4,2.9,21.24,38.36,1.911,378.0473],
    [23243,1532817071,57.0875,-111.8198,1317.1,977.0,183.0,3.3,3.2,21.55,38.14,1.9095,380.6863],
    [23244,1532817072,57.0869,-111.8199,1318.4,977.4,183.3,2.9,2.8,21.3,38.29,1.9103,380.5075],
    [23245,1532817073,57.0863,-111.8199,1319.4,978.4,183.3,2.5,3.2,21.47,38.22,1.9108,379.073],
    [23246,1532817074,57.0857,-111.8199,1320.2,979.2,184.4,3.2,3.4,20.78,38.34,1.9104,379.073],
    [23247,1532817075,57.0851,-111.82,1320.9,979.9,184.7,2.7,1.2,21.59,38.36,1.9105,379.7438],
    [23248,1532817076,57.0845,-111.82,1321.6,980.6,184.5,2.2,1.7,20.96,38.16,1.9116,379.0537],
    [23249,1532817077,57.0839,-111.8201,1322.0,981.0,185.5,3.2,2.1,21.43,38.66,1.9113,378.5297],
    [23250,1532817078,57.0833,-111.8201,1322.4,980.4,185.5,2.9,2.6,21.76,38.08,1.9119,378.3617],
    [23251,1532817079,57.0827,-111.8202,1322.9,980.9,185.1,2.4,1.4,21.06,38.58,1.9103,378.3923],
    [23252,1532817080,57.0821,-111.8202,1323.2,981.2,185.5,3.2,0.4,21.24,38.63,1.91,380.4155],
    [23253,1532817081,57.0815,-111.8203,1323.5,981.5,185.4,3.5,1.0,21.06,38.59,1.9105,379.4884],
    [23254,1532817082,57.0809,-111.8203,1324.3,981.9,184.6,3.3,2.1,21.29,38.63,1.9106,378.1545],
    [23255,1532817083,57.0803,-111.8204,1325.2,982.2,184.3,3.5,3.9,21.85,38.46,1.91,380.0118],
    [23256,1532817084,57.0797,-111.8204,1326.4,983.4,183.9,3.3,3.4,21.59,38.54,1.9102,379.5461],
    [23257,1532817085,57.0791,-111.8204,1327.6,984.6,184.0,3.7,1.8,21.18,38.91,1.91,379.5512],
    [23258,1532817086,57.0785,-111.8204,1329.0,986.0,183.9,3.9,1.9,21.71,38.3,1.912,379.5512],
    [23259,1532817087,57.0779,-111.8204,1330.9,987.9,183.1,3.5,3.5,20.75,38.98,1.9096,379.3353],
    [23260,1532817088,57.0773,-111.8204,1333.2,989.2,182.4,3.1,3.7,21.17,38.92,1.9089,379.4959],
    [23261,1532817089,57.0767,-111.8204,1335.4,991.4,182.0,3.2,3.7,21.23,38.64,1.9086,379.7638],
    [23262,1532817090,57.0761,-111.8204,1337.1,993.1,181.5,3.0,4.7,21.54,38.57,1.9099,378.4441],
    [23263,1532817091,57.0755,-111.8204,1338.3,994.3,180.9,2.8,4.0,21.51,38.21,1.9109,378.4441],
    [23264,1532817092,57.0749,-111.8204,1338.4,994.4,181.5,3.6,3.3,21.43,38.43,1.9102,378.0283],
    [23265,1532817093,57.0743,-111.8203,1337.9,993.6,181.7,3.4,2.5,21.59,38.31,1.9097,379.2909],
    [23266,1532817094,57.0737,-111.8203,1337.3,992.3,181.5,2.3,2.0,21.29,38.53,1.9098,378.8824],
    [23267,1532817095,57.0731,-111.8203,1336.2,991.2,182.6,2.6,1.0,21.26,38.64,1.9091,379.9719],
    [23268,1532817096,57.0725,-111.8203,1334.7,989.7,183.7,2.7,0.6,21.61,38.31,1.909,378.7417],
    [23269,1532817097,57.0719,-111.8204,1333.9,988.9,184.0,2.6,0.2,20.89,38.69,1.9099,379.4008],
    [23270,1532817098,57.0713,-111.8204,1333.2,987.2,183.1,1.5,0.6,21.06,39.38,1.9115,379.3951],
    [23271,1532817099,57.0707,-111.8204,1332.9,986.9,181.2,-0.3,0.3,21.8,37.85,1.9097,379.6984],
    [23272,1532817100,57.07,-111.8205,1332.9,986.9,181.1,0.0,-0.3,20.66,38.77,1.909,379.6001],
    [23273,1532817101,57.0694,-111.8205,1333.3,987.0,180.7,-0.2,0.4,21.29,38.58,1.9088,379.4453],
    [23274,1532817102,57.0688,-111.8205,1333.7,986.7,180.5,-0.3,0.9,20.8,38.57,1.9077,379.2755],
    [23275,1532817103,57.0682,-111.8205,1334.3,987.3,180.9,0.4,1.8,21.02,38.62,1.9103,379.0742],
    [23276,1532817104,57.0676,-111.8205,1334.4,987.4,181.5,1.2,1.7,21.85,38.28,1.9078,379.0729],
    [23277,1532817105,57.0669,-111.8205,1334.1,986.1,182.1,1.7,2.3,21.16,38.51,1.907,380.1123],
    [23278,1532817106,57.0663,-111.8206,1333.4,985.5,181.7,1.2,2.4,20.78,38.54,1.9062,380.3723],
    [23279,1532817107,57.0657,-111.8206,1332.5,983.5,182.1,1.7,2.4,21.77,37.79,1.9084,378.903],
    [23280,1532817108,57.0651,-111.8206,1332.0,983.0,182.6,2.2,2.6,21.54,37.81,1.9096,378.5926],
    [23281,1532817109,57.0645,-111.8206,1333.5,984.5,181.4,0.8,3.0,21.73,37.58,1.9103,377.311],
    [23282,1532817110,57.0639,-111.8206,1335.6,986.6,181.2,0.9,3.3,21.24,38.27,1.9111,379.351],
    [23283,1532817111,57.0633,-111.8206,1337.9,988.9,182.5,2.3,2.1,21.0,38.14,1.9113,378.3379],
    [23284,1532817112,57.0626,-111.8206,1340.2,991.2,182.5,2.5,0.4,21.12,38.71,1.9108,378.2064],
    [23285,1532817113,57.062,-111.8206,1341.9,992.9,181.7,2.1,-0.8,21.63,39.12,1.9101,378.1206],
    [23286,1532817114,57.0614,-111.8206,1343.2,994.2,181.0,2.0,-2.2,21.37,39.12,1.9095,378.0934],
    [23287,1532817115,57.0608,-111.8206,1343.7,994.7,181.5,2.8,-4.3,22.0,39.27,1.9113,377.7975],
    [23288,1532817116,57.0601,-111.8206,1343.9,994.9,180.9,1.4,-5.7,21.26,40.08,1.9097,377.1416],
    [23289,1532817117,57.0595,-111.8206,1344.9,995.6,179.7,-0.2,-7.8,21.42,40.14,1.9092,378.0736],
    [23290,1532817118,57.0589,-111.8206,1345.4,995.4,181.8,1.3,-10.0,20.88,40.74,1.9102,376.6355],
    [23291,1532817119,57.0583,-111.8206,1346.8,996.8,183.0,1.6,-11.5,20.76,40.8,1.9104,377.4499],
    [23292,1532817120,57.0577,-111.8206,1348.7,998.7,182.5,1.2,-13.6,20.96,41.5,1.9093,378.7478],
    [23293,1532817121,57.057,-111.8207,1350.9,1000.9,182.8,1.4,-14.4,21.1,41.05,1.9089,377.7592],
    [23294,1532817122,57.0564,-111.8207,1353.4,1003.4,183.5,1.9,-15.9,21.8,40.76,1.909,377.842],
    [23295,1532817123,57.0558,-111.8207,1355.2,1005.2,183.7,2.0,-17.1,20.46,41.46,1.9088,377.7209],
    [23296,1532817124,57.0551,-111.8207,1356.6,1006.6,182.0,1.1,-17.7,20.51,41.58,1.9091,378.1123],
    [23297,1532817125,57.0545,-111.8207,1357.3,1007.3,182.2,1.8,-18.6,20.77,41.57,1.9083,378.1868],
    [23298,1532817126,57.0539,-111.8207,1357.1,1006.1,182.4,2.3,-18.6,21.18,41.94,1.9077,377.7533],
    [23299,1532817127,57.0532,-111.8207,1355.9,1004.9,182.2,2.1,-18.7,20.79,42.75,1.907,377.1724],
    [23300,1532817128,57.0526,-111.8207,1354.0,1003.0,182.0,1.9,-18.6,20.52,42.12,1.9058,378.2357],
    [23301,1532817129,57.052,-111.8207,1353.6,1002.6,181.5,1.6,-17.7,20.63,42.33,1.9046,379.4891],
    [23302,1532817130,57.0513,-111.8207,1353.2,1002.2,181.2,1.6,-17.1,20.52,41.65,1.9067,378.3061],
    [23303,1532817131,57.0507,-111.8207,1352.5,1001.2,181.5,2.3,-17.1,20.75,40.84,1.9087,379.6616],
    [23304,1532817132,57.0501,-111.8207,1352.2,1000.2,182.1,2.8,-15.8,20.51,41.42,1.9103,378.3364],
    [23305,1532817133,57.0494,-111.8207,1352.3,1000.3,181.5,2.1,-15.3,20.43,40.98,1.9101,378.3364],
    [23306,1532817134,57.0488,-111.8207,1353.2,1001.2,181.9,2.2,-14.6,20.71,40.9,1.9092,378.0024],
    [23307,1532817135,57.0482,-111.8207,1354.7,1002.0,181.3,1.5,-14.1,20.98,41.29,1.9089,378.0024],
    [23308,1532817136,57.0476,-111.8207,1356.0,1003.0,180.9,1.4,-13.4,21.15,41.71,1.9099,377.4747],
    [23309,1532817137,57.047,-111.8207,1356.6,1003.6,181.7,1.9,-12.5,20.89,42.03,1.9102,377.9984],
    [23310,1532817138,57.0464,-111.8207,1356.7,1003.7,180.6,0.9,-12.3,20.25,42.55,1.9095,377.4065],
    [23311,1532817139,57.0458,-111.8206,1356.2,1003.2,181.2,1.8,-13.0,20.15,43.24,1.9107,378.4379],
    [23312,1532817140,57.0451,-111.8206,1354.9,1001.9,182.5,2.9,-12.9,19.64,43.23,1.9088,378.1321],
    [23313,1532817141,57.0445,-111.8206,1353.3,1000.3,181.5,2.3,-13.0,20.32,43.23,1.9096,377.9738],
    [23314,1532817142,57.0439,-111.8206,1351.8,998.8,181.2,2.3,-12.8,20.06,43.6,1.9082,377.8178],
    [23315,1532817143,57.0433,-111.8206,1351.0,998.0,181.3,2.3,-13.0,20.48,43.86,1.909,377.8565],
    [23316,1532817144,57.0427,-111.8206,1350.8,998.5,180.8,1.8,-12.9,20.46,43.8,1.9098,378.8731],
    [23317,1532817145,57.0421,-111.8206,1350.5,997.5,180.7,1.6,-13.1,19.96,44.86,1.9085,377.9829],
    [23318,1532817146,57.0414,-111.8205,1349.9,996.3,180.3,1.3,-13.5,19.93,44.37,1.9082,377.9829],
    [23319,1532817147,57.0408,-111.8205,1349.1,993.2,181.2,2.3,-13.7,19.59,44.42,1.9121,376.6485],
    [23320,1532817148,57.0401,-111.8205,1348.0,991.0,181.8,2.6,-14.2,20.54,44.32,1.9111,377.7996],
    [23321,1532817149,57.0395,-111.8205,1347.0,990.0,182.3,2.9,-14.1,19.98,45.02,1.9109,377.7912],
    [23322,1532817150,57.0389,-111.8205,1345.6,987.6,182.8,2.9,-14.2,19.98,45.11,1.9082,377.2688],
    [23323,1532817151,57.0382,-111.8205,1344.4,986.4,182.6,2.4,-14.4,19.94,45.38,1.9081,376.9456],
    [23324,1532817152,57.0376,-111.8205,1345.0,987.0,182.0,1.9,-14.0,19.76,44.85,1.9078,378.7061],
    [23325,1532817153,57.0369,-111.8205,1348.7,990.7,181.4,1.4,-12.6,19.39,45.26,1.9075,378.232],
    [23326,1532817154,57.0363,-111.8205,1355.1,997.1,182.0,1.8,-11.3,19.7,45.5,1.9072,378.0111],
    [23327,1532817155,57.0357,-111.8205,1363.8,1004.8,182.7,2.2,-9.1,19.73,45.44,1.9088,377.8376],
    [23328,1532817156,57.0351,-111.8205,1375.4,1016.4,182.2,2.1,-7.1,19.52,44.88,1.9091,377.2396],
    [23329,1532817157,57.0345,-111.8205,1387.6,1028.6,182.6,2.6,-5.3,19.84,44.9,1.9079,378.2031],
    [23330,1532817158,57.034,-111.8205,1401.2,1042.2,182.1,2.2,-3.5,19.85,44.78,1.9063,378.6644],
    [23331,1532817159,57.0334,-111.8205,1415.2,1056.2,182.0,2.5,-1.3,19.56,44.38,1.9031,378.7123],
    [23332,1532817160,57.0329,-111.8205,1429.2,1070.2,182.4,2.9,0.2,19.92,44.53,1.9051,377.9869],
    [23333,1532817161,57.0324,-111.8205,1442.2,1082.2,181.5,2.3,1.2,19.67,43.74,1.9066,378.9397],
    [23334,1532817162,57.0319,-111.8205,1454.5,1094.5,181.6,2.6,1.9,19.7,43.0,1.9082,379.0272],
    [23335,1532817163,57.0314,-111.8204,1465.9,1105.9,181.2,2.2,2.5,18.99,42.34,1.9079,379.3599],
    [23336,1532817164,57.0309,-111.8204,1476.5,1117.6,180.6,2.1,2.9,19.5,41.83,1.9078,378.3205],
    [23337,1532817165,57.0305,-111.8204,1486.4,1129.4,181.0,2.7,3.2,19.6,41.7,1.9066,379.7437],
    [23338,1532817166,57.03,-111.8204,1495.6,1141.0,180.9,2.7,4.3,19.51,41.95,1.9074,378.3467],
    [23339,1532817167,57.0295,-111.8203,1503.4,1153.4,181.9,3.5,4.8,19.58,41.94,1.9085,378.6475],
    [23340,1532817168,57.0291,-111.8203,1509.8,1162.5,180.6,2.4,5.1,19.99,41.06,1.9071,379.1598],
    [23341,1532817169,57.0287,-111.8203,1515.1,1168.1,178.8,1.1,5.5,19.35,42.11,1.9073,379.8724],
    [23342,1532817170,57.0282,-111.8202,1518.6,1172.9,178.6,1.0,6.2,19.52,42.6,1.9064,379.8724],
    [23343,1532817171,57.0278,-111.8202,1520.5,1172.1,179.3,1.6,6.6,19.08,42.04,1.9071,379.9325],
    [23344,1532817172,57.0273,-111.8202,1521.0,1171.8,180.1,2.4,6.8,19.25,41.89,1.9069,380.1848],
    [23345,1532817173,57.0269,-111.8201,1521.3,1170.7,179.6,2.1,7.0,19.2,42.37,1.906,381.176],
    [23346,1532817174,57.0264,-111.8201,1521.8,1170.4,178.7,1.5,8.0,19.48,42.72,1.9082,380.2604],
    [23347,1532817175,57.026,-111.82,1522.9,1170.1,179.6,2.3,8.6,19.12,42.68,1.9074,380.058],
    [23348,1532817176,57.0255,-111.82,1524.8,1171.5,179.1,1.5,9.6,19.2,41.93,1.9061,380.8659],
    [23349,1532817177,57.025,-111.82,1526.7,1171.2,176.7,-0.6,10.3,19.47,41.71,1.9063,381.6383],
    [23350,1532817178,57.0245,-111.8199,1528.8,1171.8,176.9,-0.3,10.7,18.96,42.25,1.906,381.0073],
    [23351,1532817179,57.0241,-111.8198,1530.7,1174.6,177.4,-0.1,11.2,19.09,41.6,1.9065,380.6621],
    [23352,1532817180,57.0236,-111.8198,1532.0,1180.0,178.3,0.5,11.8,19.33,41.94,1.9072,381.2355],
    [23353,1532817181,57.0231,-111.8198,1533.2,1183.8,180.1,1.6,12.7,19.37,40.97,1.9069,380.2571],
    [23354,1532817182,57.0226,-111.8198,1534.9,1192.1,181.1,2.1,12.1,19.6,40.74,1.9072,380.4438],
    [23355,1532817183,57.0221,-111.8197,1536.8,1199.7,181.5,2.1,11.6,19.18,41.7,1.9079,379.781],
    [23356,1532817184,57.0216,-111.8197,1539.0,1205.4,181.7,2.2,10.7,19.42,40.86,1.908,380.4838],
    [23357,1532817185,57.0212,-111.8197,1541.4,1209.9,182.1,2.6,10.2,19.39,41.36,1.9086,380.23],
    [23358,1532817186,57.0207,-111.8197,1543.9,1215.0,181.9,2.4,9.6,19.21,41.31,1.908,378.9554],
    [23359,1532817187,57.0202,-111.8197,1546.0,1218.6,181.5,2.2,9.3,18.82,41.46,1.9052,380.7317],
    [23360,1532817188,57.0197,-111.8197,1548.4,1221.4,181.0,2.2,9.3,19.35,41.79,1.9058,380.3575],
    [23361,1532817189,57.0192,-111.8197,1550.6,1222.2,180.2,1.5,9.4,18.8,41.47,1.9069,379.4203],
    [23362,1532817190,57.0187,-111.8197,1552.8,1219.8,179.6,1.4,9.8,19.19,42.12,1.9087,378.3733],
    [23363,1532817191,57.0182,-111.8196,1555.9,1214.3,179.7,1.8,10.0,18.6,41.53,1.9095,379.8522],
    [23364,1532817192,57.0177,-111.8196,1559.0,1207.9,179.5,1.7,10.7,18.88,41.63,1.9093,378.6716],
    [23365,1532817193,57.0172,-111.8196,1561.6,1206.5,180.2,2.0,10.6,19.1,42.03,1.9097,378.8845],
    [23366,1532817194,57.0167,-111.8195,1563.9,1203.2,180.9,2.3,10.2,19.53,42.26,1.9104,377.9754],
    [23367,1532817195,57.0162,-111.8195,1565.7,1202.7,182.0,2.5,9.8,19.36,43.44,1.91,377.9438],
    [23368,1532817196,57.0157,-111.8195,1566.8,1202.8,182.7,2.5,9.2,19.24,43.2,1.9089,377.6571],
    [23369,1532817197,57.0152,-111.8195,1567.6,1202.5,183.9,3.1,8.8,19.23,43.83,1.9077,378.3966],
    [23370,1532817198,57.0147,-111.8196,1568.1,1203.1,185.5,4.3,8.6,19.42,44.21,1.9085,378.8281],
    [23371,1532817199,57.0142,-111.8196,1569.5,1204.5,185.9,4.3,8.9,19.12,45.01,1.9104,378.3179],
    [23372,1532817200,57.0137,-111.8196,1571.8,1207.8,185.8,4.3,9.4,19.42,44.58,1.9074,378.6795],
    [23373,1532817201,57.0132,-111.8197,1574.3,1210.3,186.3,5.2,9.5,19.12,44.27,1.9091,377.924],
    [23374,1532817202,57.0127,-111.8197,1576.7,1212.7,185.4,4.7,9.6,19.44,44.54,1.9072,377.924],
    [23375,1532817203,57.0122,-111.8197,1579.8,1214.8,184.0,3.8,11.0,19.04,44.4,1.9079,378.5861],
    [23376,1532817204,57.0117,-111.8198,1583.8,1218.8,183.6,3.8,12.1,18.83,44.4,1.909,377.8959],
    [23377,1532817205,57.0111,-111.8198,1589.3,1224.3,183.4,3.9,12.8,19.78,43.79,1.9087,377.7231],
    [23378,1532817206,57.0107,-111.8198,1596.1,1230.1,183.2,3.8,13.6,19.3,44.4,1.9095,378.2845],
    [23379,1532817207,57.0102,-111.8198,1603.6,1237.3,183.7,4.6,15.1,18.32,44.87,1.9076,378.335],
    [23380,1532817208,57.0097,-111.8198,1609.9,1242.9,183.7,4.7,15.6,18.82,44.73,1.9068,378.7219],
    [23381,1532817209,57.0092,-111.8198,1614.3,1247.3,182.5,3.4,16.3,19.06,44.8,1.9081,378.1683],
    [23382,1532817210,57.0087,-111.8197,1617.1,1249.1,181.5,2.7,16.9,18.9,45.12,1.9084,378.1173],
    [23383,1532817211,57.0082,-111.8197,1617.8,1249.8,182.1,3.6,16.9,18.99,45.55,1.9087,378.3913],
    [23384,1532817212,57.0077,-111.8197,1617.5,1249.5,182.5,4.2,16.7,18.87,44.64,1.9076,377.7202],
    [23385,1532817213,57.0072,-111.8197,1616.5,1248.5,182.2,4.2,16.1,19.04,45.01,1.9075,376.7571],
    [23386,1532817214,57.0067,-111.8197,1614.7,1246.7,181.6,3.6,15.3,18.72,44.82,1.9072,378.2676],
    [23387,1532817215,57.0062,-111.8196,1612.6,1244.6,181.4,3.5,15.4,18.67,44.81,1.9091,379.6552],
    [23388,1532817216,57.0057,-111.8196,1610.2,1242.2,181.5,3.7,14.9,18.75,44.92,1.9091,377.5901],
    [23389,1532817217,57.0052,-111.8196,1606.8,1238.5,181.6,3.7,14.4,18.9,45.06,1.9072,378.7726],
    [23390,1532817218,57.0047,-111.8196,1603.4,1234.4,181.5,3.4,13.5,18.58,44.92,1.9069,377.7676],
    [23391,1532817219,57.0042,-111.8195,1599.9,1230.9,182.0,3.4,12.3,18.38,45.0,1.9074,377.8187],
    [23392,1532817220,57.0036,-111.8195,1596.8,1227.8,182.5,3.5,11.7,19.7,44.49,1.9069,378.2096],
    [23393,1532817221,57.0031,-111.8195,1593.7,1224.7,183.7,4.3,10.8,18.75,44.97,1.9074,379.1701],
    [23394,1532817222,57.0025,-111.8195,1590.1,1220.1,185.0,5.3,10.8,18.93,45.06,1.907,377.5301],
    [23395,1532817223,57.0019,-111.8196,1586.4,1216.4,185.2,5.0,9.4,19.11,44.64,1.9078,378.7972],
    [23396,1532817224,57.0014,-111.8196,1583.9,1213.9,184.8,4.4,8.9,18.99,44.56,1.9062,377.3074],
    [23397,1532817225,57.0008,-111.8196,1583.6,1212.6,184.3,4.0,9.1,18.84,45.07,1.907,377.0411],
    [23398,1532817226,57.0002,-111.8196,1585.7,1214.6,184.3,4.5,9.7,18.3,45.09,1.9071,379.7579],
    [23399,1532817227,56.9996,-111.8197,1589.6,1218.4,183.4,3.7,10.3,19.39,44.33,1.9065,379.2183],
    [23400,1532817228,56.999,-111.8197,1594.5,1222.8,182.8,3.6,11.3,19.09,44.75,1.907,378.345],
    [23401,1532817229,56.9985,-111.8197,1598.8,1226.9,183.1,4.2,11.8,19.55,44.37,1.9071,380.6807],
    [23402,1532817230,56.9979,-111.8197,1603.3,1231.4,182.6,3.9,11.4,18.49,45.0,1.9092,379.9358],
    [23403,1532817231,56.9973,-111.8197,1607.4,1235.4,182.9,4.3,11.5,18.51,44.72,1.9088,378.088],
    [23404,1532817232,56.9968,-111.8196,1610.9,1238.9,182.1,3.6,12.2,19.12,44.21,1.9072,377.8968],
    [23405,1532817233,56.9962,-111.8196,1613.9,1241.9,182.3,4.1,12.1,18.71,44.54,1.9078,378.635],
    [23406,1532817234,56.9956,-111.8196,1616.3,1244.3,182.3,4.1,12.1,19.14,44.38,1.9082,378.3631],
    [23407,1532817235,56.9951,-111.8196,1618.5,1246.5,181.7,3.5,12.6,18.87,44.79,1.906,379.1293],
    [23408,1532817236,56.9945,-111.8196,1620.5,1248.5,182.4,4.4,13.2,18.87,44.63,1.9048,379.1436],
    [23409,1532817237,56.9939,-111.8196,1622.3,1250.3,182.9,4.8,13.1,18.96,44.11,1.9058,379.2222],
    [23410,1532817238,56.9934,-111.8195,1624.0,1252.0,182.6,4.2,12.6,18.96,44.04,1.9084,378.5904],
    [23411,1532817239,56.9928,-111.8195,1626.1,1254.1,182.4,3.8,12.4,18.6,43.59,1.9051,379.8955],
    [23412,1532817240,56.9922,-111.8195,1627.8,1255.8,182.9,4.2,12.1,18.55,43.18,1.9054,379.8955],
    [23413,1532817241,56.9916,-111.8195,1628.4,1257.1,183.5,4.5,11.5,19.33,42.52,1.904,380.1587],
    [23414,1532817242,56.991,-111.8195,1627.9,1256.9,183.8,4.4,10.8,18.68,42.37,1.9043,379.583],
    [23415,1532817243,56.9905,-111.8195,1627.3,1256.3,184.2,4.1,9.1,18.92,42.63,1.9048,379.6418],
    [23416,1532817244,56.9899,-111.8196,1626.7,1255.7,184.1,3.7,7.5,18.91,41.91,1.9068,379.21],
    [23417,1532817245,56.9893,-111.8196,1624.7,1253.7,185.3,4.7,6.7,19.0,41.28,1.9083,378.8175],
    [23418,1532817246,56.9887,-111.8196,1622.1,1251.1,184.6,3.5,6.5,19.44,40.96,1.9076,379.0303],
    [23419,1532817247,56.9881,-111.8197,1619.9,1248.9,185.0,3.6,5.6,19.03,41.76,1.9069,379.2121],
    [23420,1532817248,56.9875,-111.8197,1618.7,1247.7,185.7,3.8,4.6,18.81,43.1,1.9069,379.7675],
    [23421,1532817249,56.987,-111.8198,1618.0,1247.0,185.5,3.2,3.3,18.36,42.45,1.9076,378.2218],
    [23422,1532817250,56.9863,-111.8198,1617.5,1245.5,186.4,4.1,2.3,18.77,42.81,1.9072,379.7596],
    [23423,1532817251,56.9857,-111.8199,1617.3,1245.3,186.6,4.3,1.5,18.48,43.43,1.9076,378.0664],
    [23424,1532817252,56.9851,-111.8199,1617.9,1245.9,184.7,2.9,1.1,18.45,43.27,1.9082,378.4191],
    [23425,1532817253,56.9845,-111.82,1618.8,1246.8,184.6,3.5,0.7,18.74,43.6,1.9108,378.3991],
    [23426,1532817254,56.9839,-111.82,1619.7,1247.7,184.8,3.8,0.0,18.82,43.43,1.9078,378.1172],
    [23427,1532817255,56.9833,-111.82,1620.7,1248.0,184.5,3.7,-0.5,18.87,43.78,1.9077,379.1053],
    [23428,1532817256,56.9827,-111.8201,1620.8,1247.8,184.8,3.9,-1.2,18.84,44.63,1.907,379.0182],
    [23429,1532817257,56.9821,-111.8201,1620.5,1247.5,184.4,3.2,-1.4,18.32,44.44,1.9075,378.8117],
    [23430,1532817258,56.9814,-111.8201,1619.9,1246.9,185.0,3.5,-1.6,19.03,43.92,1.9066,378.9862],
    [23431,1532817259,56.9808,-111.8202,1619.0,1245.7,185.9,4.2,-1.8,18.84,44.54,1.9082,379.0345],
    [23432,1532817260,56.9802,-111.8202,1618.4,1244.4,186.0,3.8,-1.5,18.81,44.36,1.9083,378.8156],
    [23433,1532817261,56.9796,-111.8203,1617.8,1243.8,186.2,3.7,-1.8,18.95,44.32,1.9077,378.7145],
    [23434,1532817262,56.979,-111.8204,1617.4,1242.4,186.5,3.8,-1.3,18.65,44.99,1.9071,378.4048],
    [23435,1532817263,56.9783,-111.8204,1617.2,1242.2,185.7,3.0,-1.6,18.43,45.16,1.9086,377.9534],
    [23436,1532817264,56.9777,-111.8205,1616.5,1241.2,185.5,3.0,-1.4,19.17,44.77,1.9064,378.9067],
    [23437,1532817265,56.9771,-111.8205,1615.6,1239.6,185.9,3.7,-0.9,18.63,45.75,1.9078,378.207],
    [23438,1532817266,56.9764,-111.8206,1614.5,1238.5,186.0,3.7,-0.8,18.62,46.26,1.9085,378.6834],
    [23439,1532817267,56.9758,-111.8207,1613.5,1236.5,185.9,3.6,-0.5,18.75,45.67,1.9095,378.6401],
    [23440,1532817268,56.9751,-111.8207,1612.3,1235.3,186.3,3.8,-0.6,18.6,45.88,1.9084,378.4406],
    [23441,1532817269,56.9745,-111.8208,1611.3,1233.6,186.6,3.8,-1.1,18.28,45.95,1.9081,378.6682],
    [23442,1532817270,56.9738,-111.8209,1610.5,1232.5,187.8,4.7,-1.7,18.63,46.38,1.9071,378.4723],
    [23443,1532817271,56.9732,-111.821,1609.8,1230.7,187.4,3.7,-1.9,18.71,45.66,1.9081,379.077],
    [23444,1532817272,56.9725,-111.8211,1609.0,1229.7,188.3,4.2,-1.4,19.04,45.49,1.9083,379.428],
    [23445,1532817273,56.9719,-111.8212,1608.1,1227.8,189.0,3.7,-2.0,18.93,45.7,1.9069,378.9297],
    [23446,1532817274,56.9712,-111.8213,1607.7,1226.7,189.5,3.5,-2.6,18.99,45.45,1.9067,378.9297],
    [23447,1532817275,56.9706,-111.8214,1607.7,1225.7,190.8,4.1,-2.5,18.08,45.77,1.9058,378.1666],
    [23448,1532817276,56.9699,-111.8216,1607.9,1224.8,191.1,3.7,-1.8,18.61,45.59,1.9069,378.7614],
    [23449,1532817277,56.9692,-111.8218,1608.0,1223.9,191.7,3.6,-2.0,18.59,46.09,1.9075,377.7038],
    [23450,1532817278,56.9686,-111.822,1608.3,1223.3,192.2,3.4,-1.7,18.81,45.36,1.9063,379.0013],
    [23451,1532817279,56.9679,-111.8222,1608.5,1222.5,193.1,3.5,-1.8,18.92,45.19,1.9062,379.1928],
    [23452,1532817280,56.9673,-111.8224,1608.9,1221.2,194.1,3.6,-1.7,18.56,45.27,1.9078,380.0441],
    [23453,1532817281,56.9666,-111.8227,1609.1,1219.4,195.8,4.3,-2.2,18.94,44.89,1.9067,379.4971],
    [23454,1532817282,56.9659,-111.8229,1609.3,1218.3,196.8,4.7,-2.6,18.67,44.6,1.9068,379.2534],
    [23455,1532817283,56.9653,-111.8232,1610.2,1218.2,195.9,3.9,-3.0,18.8,44.31,1.9052,378.972],
    [23456,1532817284,56.9646,-111.8235,1612.2,1218.3,195.1,4.2,-3.6,19.28,43.58,1.9062,378.548],
    [23457,1532817285,56.964,-111.8237,1615.5,1219.8,193.8,4.5,-3.4,18.18,44.34,1.9061,379.3459],
    [23458,1532817286,56.9634,-111.8238,1620.0,1223.0,192.0,4.6,-3.5,18.39,44.96,1.9052,379.4471],
    [23459,1532817287,56.9627,-111.824,1625.5,1227.2,189.8,4.4,-3.0,18.06,44.11,1.9075,379.7868],
    [23460,1532817288,56.9621,-111.8241,1631.6,1232.6,187.4,3.7,-2.7,19.16,42.95,1.907,379.9686],
    [23461,1532817289,56.9615,-111.8242,1637.6,1237.6,185.6,3.5,-1.7,18.65,43.83,1.9072,378.9693],
    [23462,1532817290,56.9608,-111.8242,1643.6,1242.6,184.4,3.3,-1.4,18.96,42.88,1.9069,379.1435],
    [23463,1532817291,56.9602,-111.8242,1649.5,1248.2,183.2,3.3,-0.7,18.43,43.86,1.9062,378.7043],
    [23464,1532817292,56.9596,-111.8242,1655.0,1253.0,183.0,3.7,0.2,18.05,43.79,1.9054,379.1186],
    [23465,1532817293,56.959,-111.8242,1660.1,1258.1,182.0,3.3,0.7,18.49,43.92,1.9057,379.5725],
    [23466,1532817294,56.9584,-111.8242,1664.4,1261.4,182.1,3.8,0.9,18.37,44.13,1.9071,377.8674],
    [23467,1532817295,56.9578,-111.8242,1668.0,1265.0,181.9,3.5,0.7,18.61,43.75,1.9069,377.7083],
    [23468,1532817296,56.9572,-111.8241,1671.2,1267.2,181.8,3.5,2.1,18.55,43.9,1.9067,379.316],
    [23469,1532817297,56.9566,-111.8241,1673.9,1269.9,182.1,3.7,2.8,19.05,43.36,1.9058,379.5851],
    [23470,1532817298,56.956,-111.8241,1676.8,1272.8,181.8,3.5,2.5,18.12,44.2,1.9067,379.8013],
    [23471,1532817299,56.9554,-111.8241,1679.6,1274.6,181.8,3.6,3.1,19.26,43.78,1.9056,379.5136],
    [23472,1532817300,56.9548,-111.8241,1681.6,1276.6,182.0,4.0,3.1,18.56,43.91,1.9054,379.5136],
    [23473,1532817301,56.9542,-111.824,1682.3,1277.3,181.1,3.4,3.5,17.84,44.18,1.9049,380.1102],
    [23474,1532817302,56.9536,-111.824,1682.5,1277.5,180.8,3.5,3.5,18.37,44.26,1.9078,378.7427],
    [23475,1532817303,56.953,-111.8239,1681.8,1275.8,180.7,3.7,3.6,18.61,43.89,1.9082,379.1001],
    [23476,1532817304,56.9525,-111.8239,1680.6,1274.6,180.4,3.5,4.2,18.04,44.43,1.9077,379.3201],
    [23477,1532817305,56.9518,-111.8238,1679.4,1273.4,180.5,3.8,3.7,18.93,43.65,1.9075,379.6083],
    [23478,1532817306,56.9512,-111.8238,1678.1,1272.1,181.0,4.6,3.6,18.04,44.41,1.9066,379.0169],
    [23479,1532817307,56.9506,-111.8237,1676.4,1270.4,180.2,4.2,3.1,17.87,44.07,1.909,379.181],
    [23480,1532817308,56.95,-111.8237,1673.8,1267.8,179.4,3.9,2.9,18.2,44.06,1.9079,378.5038],
    [23481,1532817309,56.9494,-111.8236,1670.6,1263.6,179.5,4.6,3.5,18.8,43.94,1.9072,378.4185],
    [23482,1532817310,56.9488,-111.8235,1667.7,1260.7,178.0,3.3,2.6,18.68,43.95,1.9065,379.0101],
    [23483,1532817311,56.9481,-111.8234,1665.0,1258.0,177.5,3.3,1.6,18.45,44.21,1.9081,379.6906],
    [23484,1532817312,56.9475,-111.8233,1663.5,1255.8,177.1,3.4,0.7,19.15,43.69,1.906,379.6906],
    [23485,1532817313,56.9468,-111.8231,1662.9,1254.9,177.4,4.2,0.9,18.85,43.75,1.9062,379.6765],
    [23486,1532817314,56.9462,-111.823,1662.4,1254.4,177.1,4.0,0.8,18.92,44.05,1.9062,379.7156],
    [23487,1532817315,56.9455,-111.8229,1662.1,1253.1,177.1,4.4,0.8,18.37,44.96,1.9066,378.0141],
    [23488,1532817316,56.9449,-111.8228,1661.8,1252.8,177.2,4.2,1.4,18.96,44.15,1.9069,377.8359],
    [23489,1532817317,56.9443,-111.8226,1662.2,1252.2,175.9,2.7,1.6,18.29,44.46,1.9064,378.0146],
    [23490,1532817318,56.9436,-111.8225,1662.5,1252.5,176.8,3.9,1.7,18.47,44.18,1.9065,378.1186],
    [23491,1532817319,56.9429,-111.8224,1661.8,1250.8,176.6,3.6,2.0,18.33,44.82,1.9061,378.6826],
    [23492,1532817320,56.9423,-111.8222,1660.6,1249.6,176.6,3.8,1.6,18.32,44.47,1.9069,378.0637],
    [23493,1532817321,56.9416,-111.8221,1659.8,1247.8,177.2,4.8,0.5,17.95,44.4,1.9062,378.1156],
    [23494,1532817322,56.941,-111.8219,1659.4,1247.0,177.1,5.6,1.0,18.4,44.3,1.9059,378.4818],
    [23495,1532817323,56.9403,-111.8218,1659.6,1246.6,176.1,6.4,0.8,17.83,44.99,1.9069,378.4506],
    [23496,1532817324,56.9397,-111.8216,1660.5,1246.5,172.5,5.3,0.3,18.1,45.27,1.9065,378.7076],
    [23497,1532817325,56.939,-111.8213,1661.8,1247.8,168.6,4.6,0.8,18.49,44.86,1.9056,378.9237],
    [23498,1532817326,56.9384,-111.8209,1663.7,1249.7,165.1,4.7,1.5,18.78,43.99,1.906,378.5903],
    [23499,1532817327,56.9378,-111.8205,1666.0,1251.0,161.3,4.5,2.0,18.78,44.41,1.9065,378.5903],
    [23500,1532817328,56.9372,-111.82,1668.7,1252.7,157.3,4.4,2.2,19.1,44.08,1.9064,378.1794],
    [23501,1532817329,56.9367,-111.8195,1671.5,1254.5,153.9,4.5,2.2,18.56,44.01,1.9069,378.6298],
    [23502,1532817330,56.9361,-111.8189,1674.3,1256.3,150.2,4.1,2.2,18.45,44.97,1.9067,378.712],
    [23503,1532817331,56.9356,-111.8182,1676.3,1257.3,146.3,3.3,2.2,18.58,44.17,1.9055,378.3823],
    [23504,1532817332,56.9351,-111.8174,1677.7,1257.7,142.7,3.0,2.2,17.9,44.51,1.9048,378.8706],
    [23505,1532817333,56.9346,-111.8167,1679.1,1258.1,139.1,2.6,2.1,18.51,44.42,1.9039,379.2491],
    [23506,1532817334,56.9342,-111.8158,1680.4,1259.4,135.9,1.7,1.9,18.41,43.98,1.9034,379.5709],
    [23507,1532817335,56.9338,-111.815,1681.0,1260.0,133.2,0.7,1.9,18.88,42.95,1.905,377.6781],
    [23508,1532817336,56.9334,-111.8141,1681.3,1260.3,131.8,0.9,2.2,18.44,43.59,1.9063,379.7939],
    [23509,1532817337,56.933,-111.8132,1681.4,1260.4,130.4,1.4,2.3,18.39,43.86,1.9047,379.7806],
    [23510,1532817338,56.9326,-111.8123,1681.3,1260.3,128.3,1.7,2.2,18.29,42.81,1.9057,379.2667],
    [23511,1532817339,56.9322,-111.8113,1680.7,1259.7,125.4,1.7,1.3,18.12,42.95,1.9051,378.6983],
    [23512,1532817340,56.9319,-111.8104,1679.1,1258.1,122.6,2.1,0.6,18.62,42.59,1.9062,378.4073],
    [23513,1532817341,56.9316,-111.8094,1676.9,1256.9,120.5,2.6,0.6,17.92,42.81,1.9061,378.3987],
    [23514,1532817342,56.9312,-111.8083,1674.5,1255.5,119.1,3.5,1.0,18.25,42.78,1.9045,378.8158],
    [23515,1532817343,56.931,-111.8073,1671.8,1252.8,117.0,3.5,0.7,18.24,42.77,1.9032,378.8158],
    [23516,1532817344,56.9307,-111.8062,1668.8,1250.1,114.4,3.4,0.4,18.35,43.26,1.9063,378.9836],
    [23517,1532817345,56.9305,-111.8051,1665.4,1247.4,112.6,3.3,0.7,18.32,42.74,1.9079,378.4456],
    [23518,1532817346,56.9302,-111.8039,1662.0,1244.0,109.8,2.6,0.2,18.27,42.87,1.9083,378.4456],
    [23519,1532817347,56.93,-111.8028,1659.0,1241.0,106.9,1.8,-0.5,18.66,42.67,1.9069,379.8928],
    [23520,1532817348,56.9298,-111.8016,1657.2,1239.2,105.0,2.1,-0.3,18.46,43.73,1.9072,378.0234],
    [23521,1532817349,56.9297,-111.8004,1656.4,1239.4,103.6,2.5,-0.4,18.04,43.32,1.9069,378.98],
    [23522,1532817350,56.9295,-111.7992,1654.9,1238.2,101.9,3.4,-1.0,18.69,43.16,1.9065,379.5027],
    [23523,1532817351,56.9294,-111.798,1652.8,1236.8,101.5,4.7,-0.5,18.39,43.73,1.9066,379.3686],
    [23524,1532817352,56.9293,-111.7968,1649.9,1234.9,100.8,6.0,-0.4,18.63,43.31,1.9056,378.9446],
    [23525,1532817353,56.9292,-111.7956,1648.0,1233.0,99.3,5.2,-0.5,18.35,43.28,1.9049,379.5379],
    [23526,1532817354,56.9291,-111.7944,1647.7,1233.7,98.4,5.2,0.2,18.01,43.28,1.9049,378.9546],
    [23527,1532817355,56.929,-111.7932,1647.6,1234.6,97.6,6.3,0.7,18.43,43.58,1.9047,379.9925],
    [23528,1532817356,56.9289,-111.7919,1647.7,1234.7,95.6,6.0,0.0,18.31,42.53,1.9053,380.0085],
    [23529,1532817357,56.9289,-111.7907,1647.9,1235.9,94.0,6.4,-0.3,18.45,42.67,1.9058,377.7517],
    [23530,1532817358,56.9288,-111.7895,1648.2,1236.2,92.8,6.3,-0.1,18.29,42.72,1.9064,379.9504],
    [23531,1532817359,56.9288,-111.7883,1648.1,1237.1,91.0,6.7,-0.2,18.72,41.94,1.9064,379.241],
    [23532,1532817360,56.9288,-111.787,1648.3,1237.3,90.3,6.4,0.9,18.84,42.28,1.9056,380.9613],
    [23533,1532817361,56.9288,-111.7858,1648.9,1237.9,88.2,6.4,0.1,19.17,41.61,1.9056,380.2274],
    [23534,1532817362,56.9288,-111.7846,1650.0,1239.0,87.9,6.9,0.8,18.83,41.7,1.9073,380.2162],
    [23535,1532817363,56.9289,-111.7834,1651.1,1240.1,87.8,7.0,1.5,17.95,41.94,1.9048,379.7271],
    [23536,1532817364,56.9289,-111.7822,1651.7,1240.7,86.8,6.6,1.2,18.1,41.97,1.9032,379.9507],
    [23537,1532817365,56.929,-111.7809,1652.3,1241.6,87.1,6.0,2.1,18.54,42.0,1.9062,379.1562],
    [23538,1532817366,56.929,-111.7797,1653.0,1243.0,86.6,5.5,1.7,18.64,41.9,1.9057,379.6702],
    [23539,1532817367,56.9291,-111.7785,1653.7,1243.7,85.4,4.6,0.7,18.39,41.98,1.9055,381.164],
    [23540,1532817368,56.9291,-111.7773,1654.1,1243.4,85.2,4.2,0.7,18.41,42.17,1.9043,380.2361],
    [23541,1532817369,56.9292,-111.7761,1654.2,1244.2,85.1,4.0,1.1,18.26,41.56,1.9051,380.2361],
    [23542,1532817370,56.9292,-111.7749,1654.3,1244.3,84.9,3.1,1.1,17.89,41.73,1.9055,380.7234],
    [23543,1532817371,56.9293,-111.7737,1654.2,1244.9,84.7,2.8,1.2,18.03,41.64,1.908,380.1162],
    [23544,1532817372,56.9294,-111.7725,1654.5,1245.5,85.3,2.9,2.3,18.04,41.62,1.9078,379.7256],
    [23545,1532817373,56.9295,-111.7714,1654.0,1246.0,84.6,2.3,1.6,18.78,41.14,1.9083,379.3109],
    [23546,1532817374,56.9295,-111.7702,1653.4,1245.4,84.1,1.6,1.4,18.5,42.05,1.9072,379.9199],
    [23547,1532817375,56.9296,-111.769,1652.6,1244.6,84.7,1.4,2.0,18.26,42.87,1.907,379.7307],
    [23548,1532817376,56.9297,-111.7678,1651.5,1244.5,84.2,1.7,1.5,18.15,42.1,1.9073,378.9568],
    [23549,1532817377,56.9298,-111.7666,1650.3,1243.3,84.4,2.4,1.7,18.16,42.1,1.9086,379.7081],
    [23550,1532817378,56.9298,-111.7654,1649.2,1243.3,84.4,2.4,1.6,17.85,42.2,1.9117,380.7034],
    [23551,1532817379,56.9299,-111.7642,1648.2,1242.2,83.8,3.2,0.8,18.43,42.92,1.9123,377.6676],
    [23552,1532817380,56.93,-111.763,1647.2,1241.2,83.7,4.0,0.6,18.59,42.36,1.9128,379.0399],
    [23553,1532817381,56.9301,-111.7618,1646.7,1241.7,83.5,3.8,0.8,18.0,42.95,1.9132,379.388],
    [23554,1532817382,56.9302,-111.7606,1647.1,1242.1,84.0,3.4,1.7,18.37,43.75,1.9136,377.924],
    [23555,1532817383,56.9302,-111.7594,1648.6,1244.6,83.1,3.0,0.8,18.81,43.33,1.9141,378.3546],
    [23556,1532817384,56.9303,-111.7582,1650.7,1247.7,83.3,2.6,0.9,18.39,44.72,1.9143,378.3546],
    [23557,1532817385,56.9304,-111.757,1652.9,1249.9,84.5,2.1,1.6,17.88,44.8,1.915,378.2882],
    [23558,1532817386,56.9305,-111.7558,1655.0,1253.0,84.9,1.7,1.1,17.87,45.32,1.914,379.7123],
    [23559,1532817387,56.9305,-111.7546,1656.1,1255.1,86.1,1.5,1.3,18.38,45.53,1.9132,380.0218],
    [23560,1532817388,56.9306,-111.7534,1656.9,1258.2,87.2,0.8,1.0,18.65,45.75,1.9135,378.5771],
    [23561,1532817389,56.9306,-111.7522,1657.5,1260.6,89.0,1.3,1.5,18.51,46.62,1.9125,378.6742],
    [23562,1532817390,56.9306,-111.7511,1658.0,1263.3,90.6,1.4,1.6,18.97,45.49,1.9121,377.9972],
    [23563,1532817391,56.9306,-111.7499,1658.9,1265.4,91.2,1.8,1.0,18.6,45.81,1.9133,378.9761],
    [23564,1532817392,56.9306,-111.7487,1659.8,1267.8,91.8,1.1,1.1,18.75,45.97,1.912,378.8279],
    [23565,1532817393,56.9306,-111.7475,1661.6,1271.5,92.0,0.6,1.1,19.0,45.69,1.9108,379.3322],
    [23566,1532817394,56.9306,-111.7463,1663.9,1274.8,91.6,0.4,0.6,18.27,46.84,1.9108,377.228],
    [23567,1532817395,56.9306,-111.745,1665.9,1277.9,91.6,-0.4,0.7,17.73,46.11,1.9119,379.7203],
    [23568,1532817396,56.9306,-111.7438,1667.4,1279.4,90.4,-1.7,-0.5,18.46,46.36,1.913,378.4939],
    [23569,1532817397,56.9306,-111.7427,1668.4,1280.4,89.8,-1.0,-0.3,18.54,45.87,1.9131,378.4083],
    [23570,1532817398,56.9306,-111.7415,1669.4,1281.4,89.9,-1.0,0.9,18.95,44.95,1.9115,377.823],
    [23571,1532817399,56.9306,-111.7403,1669.8,1282.1,88.3,-1.5,-0.3,18.04,45.63,1.9148,378.8406],
    [23572,1532817400,56.9306,-111.7392,1669.8,1282.1,87.5,-2.2,-0.8,18.68,45.01,1.9164,377.1276],
    [23573,1532817401,56.9306,-111.738,1669.9,1282.2,87.7,-3.0,-0.5,18.24,45.22,1.9162,378.6676],
    [23574,1532817402,56.9306,-111.7369,1670.0,1283.0,87.7,-3.9,-0.6,18.37,45.71,1.9154,377.3824],
    [23575,1532817403,56.9307,-111.7357,1670.6,1283.6,87.6,-3.6,-0.8,18.29,45.81,1.9165,378.2111],
    [23576,1532817404,56.9307,-111.7345,1670.8,1283.8,88.3,-2.5,-0.6,18.15,46.55,1.9154,376.8358],
    [23577,1532817405,56.9307,-111.7334,1669.4,1282.4,89.8,-2.7,0.4,19.04,45.51,1.9156,377.6959],
    [23578,1532817406,56.9307,-111.7322,1667.3,1280.3,90.8,-3.1,0.7,18.53,46.69,1.9172,377.7968],
    [23579,1532817407,56.9307,-111.7311,1665.1,1278.1,91.1,-2.2,0.7,18.49,46.89,1.9152,378.9952],
    [23580,1532817408,56.9307,-111.7299,1662.5,1275.7,91.8,-1.2,1.1,18.95,45.81,1.9143,378.221],
    [23581,1532817409,56.9307,-111.7288,1659.5,1273.5,91.3,-1.2,0.5,18.4,46.73,1.9143,378.9067],
    [23582,1532817410,56.9307,-111.7276,1655.9,1269.9,91.3,-0.6,0.8,18.19,46.34,1.9145,377.1892],
    [23583,1532817411,56.9307,-111.7264,1652.7,1267.7,90.4,-0.5,0.2,18.3,46.33,1.9134,378.3241],
    [23584,1532817412,56.9307,-111.7252,1650.0,1265.0,89.9,-0.3,0.3,18.14,46.05,1.9119,379.059],
    [23585,1532817413,56.9307,-111.724,1647.4,1262.6,89.4,-0.5,0.6,18.39,45.65,1.9117,377.6966],
    [23586,1532817414,56.9307,-111.7228,1644.7,1260.7,88.4,0.8,0.5,17.97,45.51,1.9159,378.2624],
    [23587,1532817415,56.9307,-111.7216,1642.3,1258.3,87.5,1.7,0.4,18.25,45.49,1.9171,378.2714],
    [23588,1532817416,56.9307,-111.7204,1641.0,1257.0,87.7,2.1,0.8,18.78,45.29,1.9157,379.1837],
    [23589,1532817417,56.9308,-111.7192,1640.5,1256.5,88.4,1.9,1.2,18.64,45.67,1.9176,377.4551],
    [23590,1532817418,56.9308,-111.718,1640.1,1256.1,89.3,1.9,1.8,18.72,45.76,1.9169,376.4704],
    [23591,1532817419,56.9308,-111.7168,1639.9,1256.5,90.2,2.5,2.2,18.46,46.31,1.9159,378.1354],
    [23592,1532817420,56.9308,-111.7156,1640.7,1257.7,90.3,1.3,1.7,19.04,45.81,1.9164,377.6514],
    [23593,1532817421,56.9308,-111.7143,1641.9,1258.9,90.4,1.5,1.5,18.64,46.9,1.9157,377.6514],
    [23594,1532817422,56.9309,-111.713,1643.2,1260.2,90.3,1.5,0.7,18.66,46.26,1.9158,378.8959],
    [23595,1532817423,56.9309,-111.7118,1644.5,1262.5,90.9,1.5,1.1,18.32,46.29,1.9165,376.7937],
    [23596,1532817424,56.9309,-111.7106,1645.1,1263.1,92.4,2.1,2.5,18.52,45.96,1.9169,378.1918],
    [23597,1532817425,56.9308,-111.7094,1645.3,1263.3,92.0,2.2,2.0,18.58,46.11,1.9165,378.6305],
    [23598,1532817426,56.9308,-111.7082,1644.9,1263.9,92.3,2.4,2.4,18.61,46.11,1.9157,378.3782],
    [23599,1532817427,56.9308,-111.707,1644.0,1263.0,92.4,3.7,2.4,18.42,46.0,1.915,378.9397],
    [23600,1532817428,56.9308,-111.7058,1643.0,1263.0,91.5,4.0,1.8,18.35,46.17,1.9167,377.0206],
    [23601,1532817429,56.9308,-111.7046,1641.4,1261.4,91.8,4.3,2.4,18.64,45.88,1.9143,377.5232],
    [23602,1532817430,56.9308,-111.7034,1639.4,1260.4,91.2,4.0,2.0,19.0,45.38,1.911,378.2751],
    [23603,1532817431,56.9308,-111.7021,1637.6,1259.3,90.9,4.0,1.7,18.86,46.09,1.9128,377.9793],
    [23604,1532817432,56.9309,-111.7009,1636.1,1258.1,90.1,4.0,0.9,18.78,45.27,1.9154,377.9793],
    [23605,1532817433,56.9309,-111.6997,1634.3,1257.3,91.0,3.3,1.9,18.16,45.39,1.9121,378.1647],
    [23606,1532817434,56.9309,-111.6985,1632.5,1255.6,91.2,3.8,1.9,18.73,45.05,1.9102,379.1836],
    [23607,1532817435,56.9309,-111.6973,1630.6,1254.5,90.5,4.3,1.3,18.75,44.58,1.9136,378.5167],
    [23608,1532817436,56.9309,-111.6961,1628.6,1253.8,91.1,3.5,2.1,18.51,44.15,1.9146,378.9797],
    [23609,1532817437,56.9309,-111.6948,1626.8,1252.7,90.4,3.4,1.4,18.79,44.74,1.9151,378.5523],
    [23610,1532817438,56.9309,-111.6935,1625.2,1252.1,90.1,3.2,1.4,19.17,43.6,1.9166,378.9241],
    [23611,1532817439,56.9309,-111.6923,1623.1,1251.1,91.4,3.3,3.3,19.5,43.31,1.9179,378.4496],
    [23612,1532817440,56.9309,-111.6911,1620.9,1249.7,91.4,3.9,3.1,19.33,43.42,1.9174,376.6945],
    [23613,1532817441,56.9309,-111.6898,1620.2,1249.3,89.7,4.4,1.8,19.43,43.52,1.9154,378.9371],
    [23614,1532817442,56.931,-111.6886,1619.6,1249.6,90.0,4.8,2.4,19.03,43.95,1.9165,378.7769],
    [23615,1532817443,56.931,-111.6873,1618.6,1249.5,90.1,5.5,2.6,19.6,43.95,1.9166,378.787],
    [23616,1532817444,56.931,-111.6861,1617.0,1248.8,90.5,6.0,2.7,18.94,45.09,1.9156,378.3151],
    [23617,1532817445,56.931,-111.6849,1615.2,1247.7,91.2,6.0,3.0,19.28,44.33,1.917,378.2953],
    [23618,1532817446,56.931,-111.6836,1612.8,1246.0,92.2,6.6,3.5,18.91,44.84,1.9153,378.5915],
    [23619,1532817447,56.931,-111.6824,1610.9,1244.9,92.7,7.2,3.4,19.1,44.56,1.9151,378.5915],
    [23620,1532817448,56.931,-111.6811,1608.6,1243.5,92.5,7.1,2.8,19.05,44.98,1.9163,378.3307],
    [23621,1532817449,56.931,-111.6799,1606.1,1242.2,93.0,6.8,3.1,19.2,44.5,1.9153,378.1344],
    [23622,1532817450,56.931,-111.6787,1603.4,1240.4,93.9,6.5,3.1,19.01,44.91,1.9162,378.0739],
    [23623,1532817451,56.931,-111.6774,1601.0,1239.9,94.3,6.0,3.1,19.02,45.12,1.9172,378.0739],
    [23624,1532817452,56.931,-111.6762,1598.0,1238.0,94.6,6.5,3.0,18.93,44.49,1.9149,377.9305],
    [23625,1532817453,56.931,-111.675,1594.8,1235.6,94.3,6.7,2.3,18.99,44.76,1.9148,379.1492],
    [23626,1532817454,56.9309,-111.6738,1590.8,1232.8,93.1,6.8,1.1,19.31,44.12,1.9175,379.0939],
    [23627,1532817455,56.9309,-111.6725,1586.7,1229.7,91.7,7.0,-0.1,19.35,43.85,1.917,378.6494],
    [23628,1532817456,56.9309,-111.6713,1583.0,1227.1,91.6,6.7,0.5,19.04,44.3,1.9157,377.7643],
    [23629,1532817457,56.9309,-111.6701,1580.2,1224.2,92.7,6.2,1.9,19.08,44.13,1.9195,378.6946],
    [23630,1532817458,56.9309,-111.6689,1579.3,1224.3,92.0,5.9,1.5,19.21,44.87,1.9185,378.9439],
    [23631,1532817459,56.9309,-111.6677,1578.5,1224.3,92.4,6.0,2.0,18.88,44.54,1.9177,379.4327],
    [23632,1532817460,56.9309,-111.6664,1578.1,1224.1,91.9,6.1,1.0,19.03,44.44,1.918,378.2793],
    [23633,1532817461,56.9308,-111.6652,1577.6,1223.6,91.6,6.1,0.8,18.75,44.91,1.9188,379.3091],
    [23634,1532817462,56.9308,-111.664,1576.9,1222.9,91.8,5.5,0.7,19.85,44.09,1.9194,377.148],
    [23635,1532817463,56.9308,-111.6628,1575.2,1221.2,90.6,5.4,-0.3,19.07,45.58,1.9178,378.0651],
    [23636,1532817464,56.9308,-111.6615,1574.1,1221.1,91.5,4.9,0.8,19.08,45.68,1.9159,378.31],
    [23637,1532817465,56.9308,-111.6604,1572.9,1219.9,90.6,4.9,-0.1,19.19,45.52,1.9152,377.8337],
    [23638,1532817466,56.9308,-111.6591,1571.2,1219.2,91.5,4.8,1.0,18.79,45.18,1.9151,377.2988],
    [23639,1532817467,56.9308,-111.6579,1570.0,1218.0,90.9,5.1,0.2,19.16,45.25,1.9152,379.0906],
    [23640,1532817468,56.9308,-111.6567,1568.6,1216.8,91.0,5.4,0.6,18.56,44.74,1.9148,378.4266],
    [23641,1532817469,56.9308,-111.6554,1567.0,1216.0,90.9,5.5,0.6,18.87,44.34,1.9182,378.4266],
    [23642,1532817470,56.9308,-111.6542,1564.8,1213.8,90.6,6.7,0.6,19.27,44.04,1.9199,378.3081],
    [23643,1532817471,56.9308,-111.653,1562.4,1212.4,92.2,6.7,2.0,18.93,44.38,1.9213,378.1684],
    [23644,1532817472,56.9308,-111.6518,1559.6,1209.6,91.6,6.9,0.8,19.12,44.48,1.9211,378.7434],
    [23645,1532817473,56.9308,-111.6506,1556.6,1206.6,91.5,6.8,0.4,19.64,44.53,1.9194,378.1031],
    [23646,1532817474,56.9307,-111.6494,1553.0,1203.0,92.1,7.3,1.0,18.51,45.31,1.9201,378.3058],
    [23647,1532817475,56.9307,-111.6482,1548.8,1199.6,90.8,8.1,-0.5,19.78,45.15,1.9198,378.2612],
    [23648,1532817476,56.9307,-111.647,1545.0,1196.0,90.0,8.5,-0.7,18.98,46.07,1.919,378.2749],
    [23649,1532817477,56.9307,-111.6458,1541.9,1192.9,92.0,8.7,1.4,19.06,47.07,1.9175,378.1026],
    [23650,1532817478,56.9307,-111.6446,1538.5,1190.5,91.3,7.9,0.4,18.93,46.69,1.9158,378.0955],
    [23651,1532817479,56.9307,-111.6433,1535.3,1188.4,91.2,7.9,0.4,18.51,46.57,1.9157,378.2785],
    [23652,1532817480,56.9307,-111.6421,1532.7,1187.7,91.8,7.9,1.1,19.46,45.71,1.9158,377.7816],
    [23653,1532817481,56.9307,-111.6409,1531.2,1187.2,91.7,7.9,0.9,19.19,46.05,1.9159,378.1874],
    [23654,1532817482,56.9307,-111.6397,1531.4,1187.4,90.4,8.2,0.0,18.82,45.64,1.9159,378.2477],
    [23655,1532817483,56.9307,-111.6385,1533.9,1189.9,90.8,7.0,0.7,19.15,45.56,1.9173,378.8817],
    [23656,1532817484,56.9307,-111.6373,1536.9,1192.9,90.9,6.4,0.9,18.98,45.51,1.9174,378.8817],
    [23657,1532817485,56.9307,-111.6361,1539.3,1196.3,90.6,6.2,0.6,19.23,45.27,1.9168,377.7993],
    [23658,1532817486,56.9307,-111.6349,1541.5,1198.5,90.7,5.3,0.5,19.6,44.89,1.9154,377.8777],
    [23659,1532817487,56.9307,-111.6338,1543.6,1200.6,91.3,4.4,0.7,18.5,45.42,1.9172,379.1103],
    [23660,1532817488,56.9306,-111.6326,1545.3,1203.3,90.9,3.8,0.2,19.14,45.0,1.9177,377.7775],
    [23661,1532817489,56.9306,-111.6314,1546.7,1205.4,91.8,2.3,1.0,19.16,45.56,1.9161,378.9518],
    [23662,1532817490,56.9306,-111.6303,1547.0,1206.0,91.6,2.1,0.9,19.56,45.23,1.9181,378.8784],
    [23663,1532817491,56.9306,-111.6292,1545.8,1205.8,91.9,2.4,1.4,18.48,45.19,1.92,378.0119],
    [23664,1532817492,56.9306,-111.628,1543.9,1203.9,91.6,1.0,1.2,19.01,45.55,1.9197,378.5455],
    [23665,1532817493,56.9306,-111.6269,1541.6,1201.6,91.0,0.8,1.1,19.8,45.14,1.9214,378.5455],
    [23666,1532817494,56.9306,-111.6257,1539.1,1199.9,91.6,1.5,1.6,19.08,46.74,1.919,379.6599],
    [23667,1532817495,56.9306,-111.6246,1536.6,1197.6,91.6,2.7,1.6,19.73,45.94,1.918,378.4917],
    [23668,1532817496,56.9306,-111.6234,1535.0,1196.0,92.1,3.6,1.9,18.9,46.89,1.9176,378.2156],
    [23669,1532817497,56.9306,-111.6223,1533.8,1194.8,91.4,3.3,1.2,19.67,46.59,1.917,377.9626],
    [23670,1532817498,56.9306,-111.6211,1533.0,1195.0,91.4,2.2,1.3,18.42,46.79,1.9168,378.2951],
    [23671,1532817499,56.9306,-111.6199,1532.8,1195.7,91.9,2.4,1.9,18.21,46.86,1.9169,378.9641],
    [23672,1532817500,56.9306,-111.6187,1533.3,1197.0,92.3,1.9,2.1,19.48,46.37,1.9159,378.7354],
    [23673,1532817501,56.9306,-111.6175,1534.9,1199.1,92.3,2.0,1.6,19.26,46.16,1.9164,378.7354],
    [23674,1532817502,56.9306,-111.6164,1536.1,1201.1,91.6,1.5,1.2,18.82,46.14,1.917,378.5137],
    [23675,1532817503,56.9306,-111.6152,1536.5,1201.5,93.1,1.6,2.1,18.99,46.23,1.9156,378.5137],
    [23676,1532817504,56.9305,-111.6141,1536.7,1202.8,92.4,-0.1,0.8,19.06,45.51,1.9197,378.7125],
    [23677,1532817505,56.9305,-111.6129,1536.6,1202.6,92.7,-0.5,0.8,19.06,46.22,1.9201,378.4003],
    [23678,1532817506,56.9305,-111.6117,1536.1,1203.1,93.5,0.2,1.2,18.9,45.91,1.9209,378.3234],
    [23679,1532817507,56.9305,-111.6106,1535.6,1202.6,94.6,0.7,1.9,19.04,46.54,1.9213,377.1569],
    [23680,1532817508,56.9304,-111.6094,1536.1,1203.1,94.4,1.2,1.5,19.05,46.82,1.9215,378.8052],
    [23681,1532817509,56.9304,-111.6083,1537.4,1204.4,95.1,0.6,2.5,18.48,46.37,1.9209,377.8037],
    [23682,1532817510,56.9304,-111.6071,1539.6,1205.6,95.1,0.3,2.9,19.21,46.31,1.9201,379.4237],
    [23683,1532817511,56.9303,-111.606,1542.2,1207.1,94.5,-0.7,3.0,19.01,46.96,1.9205,378.0346],
    [23684,1532817512,56.9303,-111.6048,1545.5,1210.5,94.6,-1.4,4.0,18.51,47.32,1.9209,378.2474],
    [23685,1532817513,56.9303,-111.6036,1548.7,1213.7,94.1,-1.9,3.9,19.09,48.3,1.9202,376.8952],
    [23686,1532817514,56.9303,-111.6025,1551.3,1216.3,94.0,-2.9,4.4,18.54,47.77,1.9187,376.0653],
    [23687,1532817515,56.9303,-111.6014,1553.5,1219.5,94.5,-3.2,5.1,19.07,47.83,1.918,377.3314],
    [23688,1532817516,56.9303,-111.6002,1555.8,1222.1,94.0,-3.5,4.5,19.34,47.36,1.9166,376.9668],
    [23689,1532817517,56.9303,-111.5991,1557.0,1223.9,93.2,-3.1,3.5,18.33,47.39,1.914,378.6005],
    [23690,1532817518,56.9303,-111.5979,1557.8,1226.8,92.1,-3.3,2.3,18.94,47.21,1.9143,378.7326],
    [23691,1532817519,56.9303,-111.5968,1558.1,1228.1,92.1,-3.2,2.4,19.07,47.21,1.9144,377.8662],
    [23692,1532817520,56.9303,-111.5957,1558.4,1230.1,91.8,-3.3,2.2,19.19,45.9,1.915,379.6698],
    [23693,1532817521,56.9303,-111.5945,1558.4,1232.4,91.3,-3.4,1.8,19.27,44.87,1.9145,378.0708],
    [23694,1532817522,56.9303,-111.5934,1557.8,1232.6,91.5,-4.1,2.2,18.95,44.77,1.9134,377.0868],
    [23695,1532817523,56.9303,-111.5923,1556.9,1228.7,92.0,-4.5,2.5,19.15,44.89,1.9139,379.6514],
    [23696,1532817524,56.9303,-111.5911,1555.9,1225.9,92.8,-3.7,3.1,19.32,44.66,1.9122,378.8431],
    [23697,1532817525,56.9303,-111.59,1555.1,1225.8,93.1,-3.7,3.1,19.09,44.76,1.9135,378.9055],
    [23698,1532817526,56.9303,-111.5888,1555.1,1226.1,92.9,-3.0,2.8,18.84,44.05,1.9155,377.7489],
    [23699,1532817527,56.9302,-111.5876,1554.9,1225.9,93.2,-2.8,2.9,18.98,44.8,1.917,377.7489],
    [23700,1532817528,56.9302,-111.5865,1554.3,1226.3,92.6,-3.3,1.9,19.31,43.52,1.9166,378.2172],
    [23701,1532817529,56.9302,-111.5854,1553.5,1225.5,92.8,-3.2,1.7,18.95,43.9,1.9166,378.7999],
    [23702,1532817530,56.9302,-111.5842,1552.8,1225.0,92.6,-2.3,1.5,18.96,44.23,1.915,377.7809],
    [23703,1532817531,56.9302,-111.583,1552.2,1225.2,92.6,-1.9,1.5,19.11,44.95,1.9128,377.7809],
    [23704,1532817532,56.9302,-111.5819,1551.8,1224.8,91.9,-1.9,0.9,18.64,44.64,1.9132,377.7616],
    [23705,1532817533,56.9302,-111.5807,1551.6,1225.6,92.0,-1.7,1.6,19.29,44.35,1.9138,377.2821],
    [23706,1532817534,56.9302,-111.5795,1552.3,1226.3,91.2,-0.6,2.6,19.46,43.8,1.9145,377.8325],
    [23707,1532817535,56.9302,-111.5784,1554.9,1229.7,87.6,0.1,1.1,19.87,43.29,1.9145,379.389],
    [23708,1532817536,56.9302,-111.5772,1556.8,1231.8,84.1,-0.3,1.1,19.25,43.51,1.9133,378.8536],
    [23709,1532817537,56.9303,-111.576,1558.5,1233.8,81.9,-0.9,2.4,19.61,43.15,1.9167,378.7181],
    [23710,1532817538,56.9305,-111.5749,1559.2,1235.2,77.1,-0.5,1.0,19.19,43.91,1.9172,377.957],
    [23711,1532817539,56.9306,-111.5738,1558.8,1235.8,72.4,0.1,0.2,19.06,43.82,1.9169,377.912],
    [23712,1532817540,56.9309,-111.5727,1557.6,1235.6,66.9,1.2,-1.1,19.03,44.18,1.917,376.9432],
    [23713,1532817541,56.9311,-111.5716,1555.8,1233.8,62.9,0.8,-0.7,19.38,44.09,1.9174,377.5706],
    [23714,1532817542,56.9314,-111.5706,1554.1,1232.1,58.4,0.0,-1.1,18.99,44.63,1.9194,378.2715],
    [23715,1532817543,56.9318,-111.5696,1553.1,1230.1,53.4,-0.2,-1.7,19.21,45.02,1.9194,377.8494],
    [23716,1532817544,56.9322,-111.5687,1552.7,1229.7,49.3,-0.7,-2.4,19.7,44.35,1.919,377.8653],
    [23717,1532817545,56.9326,-111.5678,1552.7,1229.7,44.8,0.0,-3.0,19.16,45.46,1.9186,377.8678],
    [23718,1532817546,56.933,-111.567,1553.5,1230.5,41.9,-0.6,-2.4,19.16,45.47,1.918,378.3431],
    [23719,1532817547,56.9335,-111.5662,1554.8,1231.8,40.8,-2.1,-0.8,19.2,45.55,1.9176,378.2738],
    [23720,1532817548,56.934,-111.5655,1556.1,1234.1,38.2,-2.3,-0.5,19.37,45.69,1.9186,379.3101],
    [23721,1532817549,56.9345,-111.5648,1556.6,1234.6,34.9,-1.2,-0.4,18.87,45.87,1.9184,377.9134],
    [23722,1532817550,56.9351,-111.5642,1556.2,1235.1,33.4,-2.1,-0.2,18.96,46.24,1.9184,378.5172],
    [23723,1532817551,56.9356,-111.5636,1554.9,1234.9,30.8,-1.9,-0.4,18.8,46.02,1.9189,377.9276],
    [23724,1532817552,56.9362,-111.5631,1553.0,1234.0,27.6,-1.2,0.1,19.74,45.77,1.9176,378.1083],
    [23725,1532817553,56.9367,-111.5626,1551.0,1233.0,25.2,-1.5,0.0,18.59,46.29,1.9198,378.3476],
    [23726,1532817554,56.9373,-111.5621,1549.1,1232.1,22.7,-1.3,0.8,19.47,46.5,1.9193,378.4089],
    [23727,1532817555,56.9379,-111.5617,1547.3,1231.3,19.5,-0.2,1.5,19.18,46.52,1.9197,377.3584],
    [23728,1532817556,56.9386,-111.5614,1545.2,1229.2,17.2,-0.5,1.6,19.11,46.85,1.9183,377.7557],
    [23729,1532817557,56.9392,-111.561,1542.5,1227.5,15.4,-0.5,2.9,18.65,46.39,1.9179,377.9788],
    [23730,1532817558,56.9398,-111.5608,1540.2,1225.2,13.0,-0.2,4.0,19.0,46.62,1.9181,377.765],
    [23731,1532817559,56.9405,-111.5605,1539.0,1224.0,11.6,-0.5,4.0,19.96,46.07,1.92,379.11],
    [23732,1532817560,56.9411,-111.5603,1537.9,1222.9,9.6,0.8,3.8,19.74,46.57,1.9196,378.4832],
    [23733,1532817561,56.9418,-111.5601,1536.3,1221.3,6.4,2.6,3.6,19.15,47.64,1.9189,378.1405],
    [23734,1532817562,56.9425,-111.56,1534.4,1219.4,5.5,2.3,4.3,19.51,46.42,1.9194,377.6486],
    [23735,1532817563,56.9431,-111.5598,1532.6,1217.6,4.1,2.6,5.5,19.91,46.48,1.9187,378.1543],
    [23736,1532817564,56.9438,-111.5597,1531.3,1216.3,362.2,3.5,5.3,18.47,46.9,1.9179,377.4884],
    [23737,1532817565,56.9445,-111.5596,1529.6,1214.6,359.9,4.8,5.5,19.01,47.0,1.9173,379.1408],
    [23738,1532817566,56.9451,-111.5596,1528.2,1212.5,358.5,5.1,5.7,19.15,47.18,1.9184,377.0234],
    [23739,1532817567,56.9458,-111.5595,1527.4,1211.4,358.7,4.3,5.6,20.07,46.35,1.9176,377.0249],
    [23740,1532817568,56.9465,-111.5595,1526.7,1210.7,357.6,5.0,6.2,19.12,46.89,1.9175,377.8509],
    [23741,1532817569,56.9472,-111.5595,1526.7,1210.7,358.8,2.8,6.2,19.24,47.54,1.9169,379.037],
    [23742,1532817570,56.9478,-111.5594,1527.3,1210.3,359.0,2.3,6.2,19.42,46.76,1.9177,379.037],
    [23743,1532817571,56.9485,-111.5594,1527.9,1210.0,357.9,2.8,6.6,18.35,47.3,1.9173,376.9717],
    [23744,1532817572,56.9492,-111.5594,1528.3,1210.3,358.6,1.4,6.7,19.53,46.93,1.9167,377.4088],
    [23745,1532817573,56.9498,-111.5594,1528.5,1209.5,357.0,2.6,6.8,19.25,47.36,1.9156,377.649],
    [23746,1532817574,56.9505,-111.5595,1528.8,1208.8,356.3,2.6,6.4,18.85,47.37,1.9177,378.0718],
    [23747,1532817575,56.9511,-111.5595,1529.0,1209.0,355.7,2.6,5.7,18.56,47.18,1.9164,378.3386],
    [23748,1532817576,56.9518,-111.5595,1528.8,1208.9,354.6,3.0,5.2,19.09,47.14,1.9115,378.6532],
    [23749,1532817577,56.9525,-111.5596,1528.2,1207.2,354.1,2.6,5.2,19.43,46.44,1.9082,378.0592],
    [23750,1532817578,56.9531,-111.5597,1527.2,1206.2,353.8,2.3,5.7,19.24,46.45,1.9097,378.6381],
    [23751,1532817579,56.9538,-111.5598,1525.9,1204.9,353.6,2.1,5.7,18.87,46.33,1.9103,378.3232],
    [23752,1532817580,56.9544,-111.5599,1524.6,1203.5,354.2,1.8,6.1,18.9,44.99,1.913,378.2665],
    [23753,1532817581,56.9551,-111.5599,1523.8,1203.9,354.5,2.3,5.6,18.74,44.65,1.9113,376.9823],
    [23754,1532817582,56.9557,-111.56,1522.5,1202.5,355.7,2.0,5.4,19.14,45.12,1.9133,377.7225],
    [23755,1532817583,56.9564,-111.56,1521.2,1202.2,355.8,2.6,5.7,18.42,44.45,1.9122,378.768],
    [23756,1532817584,56.9571,-111.5601,1521.4,1203.4,356.2,2.8,4.8,18.93,44.33,1.9115,378.1735],
    [23757,1532817585,56.9577,-111.5601,1522.6,1205.5,355.7,3.7,4.1,19.07,44.71,1.9119,378.5597],
    [23758,1532817586,56.9584,-111.5601,1523.6,1207.6,356.3,3.3,3.2,19.12,44.62,1.9142,378.731],
    [23759,1532817587,56.959,-111.5601,1524.7,1207.8,357.6,1.7,2.7,19.54,43.84,1.9139,378.8494],
    [23760,1532817588,56.9597,-111.5602,1527.0,1209.0,357.9,1.5,2.2,19.46,43.9,1.9135,378.6517],
    [23761,1532817589,56.9603,-111.5602,1529.1,1210.8,357.0,2.3,2.1,19.23,44.37,1.9132,378.7404],
    [23762,1532817590,56.961,-111.5602,1530.8,1212.8,357.2,2.1,2.3,18.9,44.16,1.9148,378.6582],
    [23763,1532817591,56.9616,-111.5602,1532.5,1214.5,356.5,2.6,2.8,19.15,44.33,1.9143,379.1966],
    [23764,1532817592,56.9623,-111.5603,1533.4,1215.4,356.4,2.4,2.4,19.14,44.5,1.9157,379.2168],
    [23765,1532817593,56.9629,-111.5603,1533.8,1215.8,356.3,2.4,2.7,19.29,44.26,1.9132,377.7473],
    [23766,1532817594,56.9635,-111.5603,1533.7,1215.7,356.6,2.0,2.4,18.58,44.54,1.9125,378.0806],
    [23767,1532817595,56.9642,-111.5604,1532.8,1215.8,355.8,2.6,2.2,19.45,44.39,1.9137,378.8216],
    [23768,1532817596,56.9648,-111.5604,1532.5,1215.8,355.0,2.5,2.5,18.59,44.73,1.9132,378.411],
    [23769,1532817597,56.9655,-111.5605,1532.9,1216.9,354.7,2.6,2.7,19.29,44.36,1.9137,378.9228],
    [23770,1532817598,56.9661,-111.5605,1532.9,1217.9,353.5,3.7,3.3,18.83,44.96,1.9146,376.6508],
    [23771,1532817599,56.9668,-111.5606,1532.8,1218.9,352.8,3.9,3.5,18.78,44.6,1.9141,378.0668],
    [23772,1532817600,56.9674,-111.5607,1533.3,1219.5,352.8,3.5,4.0,18.71,44.62,1.9142,377.5741],
    [23773,1532817601,56.9681,-111.5608,1534.0,1221.0,353.3,3.0,3.4,18.85,44.63,1.9135,378.1348],
    [23774,1532817602,56.9687,-111.5609,1535.0,1222.0,354.5,2.1,2.9,18.87,45.16,1.915,378.1348],
    [23775,1532817603,56.9694,-111.5609,1536.0,1222.1,355.0,2.3,3.7,18.99,45.22,1.9165,378.1683],
    [23776,1532817604,56.97,-111.561,1536.7,1220.9,355.1,2.6,4.4,18.87,44.58,1.9149,378.8084],
    [23777,1532817605,56.9707,-111.561,1537.0,1219.5,355.5,2.5,4.3,19.24,45.13,1.9145,378.0277],
    [23778,1532817606,56.9713,-111.5611,1537.0,1217.0,355.0,3.1,4.6,19.17,44.89,1.9142,378.0787],
    [23779,1532817607,56.972,-111.5611,1536.5,1214.5,354.8,3.0,4.6,19.09,45.21,1.9122,377.9648],
    [23780,1532817608,56.9726,-111.5612,1535.8,1212.8,355.0,2.7,5.1,19.14,45.3,1.9126,378.0723],
    [23781,1532817609,56.9733,-111.5612,1534.8,1211.8,353.9,4.0,6.0,19.74,44.65,1.9122,378.6433],
    [23782,1532817610,56.9739,-111.5613,1534.0,1211.0,354.5,3.4,6.8,18.9,45.01,1.9134,378.6528],
    [23783,1532817611,56.9745,-111.5613,1533.4,1210.4,356.7,1.9,8.3,19.32,44.74,1.9148,378.3975],
    [23784,1532817612,56.9752,-111.5613,1533.3,1209.6,356.5,2.5,8.7,18.88,45.02,1.9141,377.9678],
    [23785,1532817613,56.9758,-111.5614,1533.7,1209.7,357.4,2.0,8.5,19.56,44.89,1.9135,377.6696],
    [23786,1532817614,56.9765,-111.5614,1533.7,1209.7,358.1,2.0,8.3,19.12,45.28,1.9148,377.659],
    [23787,1532817615,56.9771,-111.5614,1533.7,1209.7,358.7,2.0,8.5,19.22,45.18,1.9153,377.7216],
    [23788,1532817616,56.9778,-111.5613,1533.6,1209.5,358.8,2.4,8.9,18.84,45.3,1.9153,378.6551],
    [23789,1532817617,56.9784,-111.5613,1533.3,1210.2,358.6,2.7,8.7,18.99,46.16,1.9124,378.6551],
    [23790,1532817618,56.979,-111.5613,1532.5,1210.9,358.1,3.3,8.5,19.43,45.24,1.91,378.5],
    [23791,1532817619,56.9797,-111.5613,1531.7,1211.7,357.1,4.3,8.4,19.04,45.65,1.907,379.3097],
    [23792,1532817620,56.9803,-111.5613,1530.7,1212.7,356.4,5.2,7.6,19.11,45.28,1.9061,378.9972],
    [23793,1532817621,56.981,-111.5613,1530.0,1215.6,356.5,4.8,7.4,19.27,44.41,1.9064,379.1916],
    [23794,1532817622,56.9816,-111.5612,1529.6,1218.6,356.7,4.4,7.0,18.79,43.63,1.9083,379.3467],
    [23795,1532817623,56.9822,-111.5612,1529.8,1220.8,355.9,4.8,6.0,18.54,43.18,1.9087,379.4466],
    [23796,1532817624,56.9829,-111.5612,1530.2,1221.2,355.8,4.6,6.3,19.24,42.58,1.9077,380.1897],
    [23797,1532817625,56.9835,-111.5612,1530.1,1221.1,355.3,5.1,5.6,19.22,42.84,1.909,379.9152],
    [23798,1532817626,56.9841,-111.5612,1529.4,1220.4,354.6,5.7,5.4,19.19,42.09,1.9089,380.103],
    [23799,1532817627,56.9848,-111.5613,1528.5,1219.5,355.4,4.8,4.9,18.7,42.13,1.9081,380.632],
    [23800,1532817628,56.9854,-111.5613,1527.1,1218.1,355.4,5.0,4.5,19.1,42.36,1.9076,379.9697],
    [23801,1532817629,56.986,-111.5613,1525.8,1216.8,355.9,4.5,4.4,18.92,41.35,1.9089,380.5414],
    [23802,1532817630,56.9867,-111.5613,1524.4,1213.5,356.9,3.6,3.8,19.18,41.1,1.9104,380.0199],
    [23803,1532817631,56.9873,-111.5613,1523.4,1210.0,357.4,3.3,3.3,19.06,41.26,1.9085,380.0391],
    [23804,1532817632,56.988,-111.5613,1522.6,1207.6,357.9,3.0,3.2,19.17,41.03,1.9105,380.1169],
    [23805,1532817633,56.9886,-111.5612,1521.9,1203.9,358.5,2.7,2.7,18.44,41.15,1.9103,378.8548],
    [23806,1532817634,56.9893,-111.5612,1521.6,1202.9,358.5,3.2,2.5,18.51,41.14,1.91,380.4195],
    [23807,1532817635,56.9899,-111.5612,1521.6,1202.6,359.1,3.0,2.1,19.18,41.47,1.9107,378.1983],
    [23808,1532817636,56.9906,-111.5612,1521.5,1202.5,359.8,2.7,1.8,19.18,41.08,1.9097,380.29],
    [23809,1532817637,56.9912,-111.5611,1521.3,1202.3,360.3,2.7,1.6,18.54,41.5,1.9105,379.5178],
    [23810,1532817638,56.9918,-111.5611,1521.1,1202.1,360.7,2.8,1.2,18.85,41.64,1.9132,379.5422],
    [23811,1532817639,56.9925,-111.561,1521.1,1201.8,360.3,3.8,1.5,19.75,41.3,1.9105,380.0586],
    [23812,1532817640,56.9931,-111.5609,1521.2,1201.2,361.2,3.4,1.1,19.42,41.47,1.9107,380.1694],
    [23813,1532817641,56.9938,-111.5608,1521.2,1201.2,361.2,4.0,1.0,19.29,42.29,1.9121,379.8079],
    [23814,1532817642,56.9944,-111.5607,1521.1,1200.1,361.4,4.0,0.8,19.05,41.85,1.911,380.0691],
    [23815,1532817643,56.995,-111.5606,1521.0,1199.3,361.8,3.6,1.3,19.45,41.8,1.9112,380.0691],
    [23816,1532817644,56.9957,-111.5606,1521.8,1199.9,361.1,3.7,0.9,18.88,42.02,1.9115,379.5985],
    [23817,1532817645,56.9963,-111.5605,1524.0,1201.1,360.5,3.2,0.5,18.95,42.54,1.9107,378.9295],
    [23818,1532817646,56.997,-111.5604,1527.1,1204.2,360.3,2.2,0.0,19.47,41.7,1.9111,380.0181],
    [23819,1532817647,56.9976,-111.5604,1530.4,1207.3,358.6,3.1,-0.2,18.85,41.93,1.9105,380.0682],
    [23820,1532817648,56.9982,-111.5604,1532.8,1209.7,357.5,3.4,-0.8,18.81,41.84,1.9106,379.6077],
    [23821,1532817649,56.9988,-111.5604,1534.7,1211.5,357.0,3.4,-1.2,19.01,41.86,1.9098,379.2845],
    [23822,1532817650,56.9995,-111.5604,1536.7,1213.5,356.4,3.5,-1.7,19.64,41.39,1.9117,380.8355],
    [23823,1532817651,57.0001,-111.5604,1539.3,1217.3,355.4,4.4,-2.3,18.96,41.63,1.9107,380.2786],
    [23824,1532817652,57.0007,-111.5604,1543.0,1221.3,356.0,3.8,-3.3,18.83,41.52,1.9102,380.2524],
    [23825,1532817653,57.0013,-111.5604,1546.7,1224.8,357.5,2.4,-3.7,19.65,41.1,1.9096,379.9362],
    [23826,1532817654,57.0019,-111.5605,1549.7,1227.0,358.9,1.4,-4.4,19.38,40.88,1.9089,380.7082],
    [23827,1532817655,57.0025,-111.5604,1552.4,1229.3,357.9,3.0,-4.9,19.41,41.07,1.9104,379.871],
    [23828,1532817656,57.0031,-111.5604,1555.0,1232.0,357.2,4.1,-5.1,19.14,41.59,1.9107,380.4163],
    [23829,1532817657,57.0037,-111.5604,1557.5,1234.6,357.5,3.9,-5.4,19.05,41.71,1.9117,379.1237],
    [23830,1532817658,57.0043,-111.5604,1559.0,1236.1,359.0,2.4,-6.4,18.8,41.06,1.912,379.8854],
    [23831,1532817659,57.0049,-111.5604,1560.2,1238.2,359.0,2.6,-7.1,18.65,41.01,1.913,379.0804],
    [23832,1532817660,57.0055,-111.5604,1561.3,1239.3,357.7,3.8,-7.5,18.7,41.28,1.9125,379.4803],
    [23833,1532817661,57.006,-111.5604,1562.3,1241.2,357.1,4.7,-7.8,19.68,41.02,1.9125,380.6979],
    [23834,1532817662,57.0067,-111.5603,1563.1,1242.1,356.0,6.2,-8.2,18.62,41.47,1.91,380.5888],
    [23835,1532817663,57.0072,-111.5603,1563.4,1242.4,356.7,5.8,-8.6,19.03,41.62,1.9097,380.0693],
    [23836,1532817664,57.0078,-111.5603,1563.2,1242.2,357.0,5.9,-9.0,19.3,41.23,1.9085,380.2477],
    [23837,1532817665,57.0084,-111.5603,1563.3,1242.3,356.5,6.6,-8.8,19.95,40.59,1.9082,380.1205],
    [23838,1532817666,57.009,-111.5602,1563.2,1242.2,357.2,5.7,-9.0,19.14,41.26,1.9083,380.8971],
    [23839,1532817667,57.0096,-111.5602,1562.4,1241.4,357.1,6.1,-8.7,19.18,40.73,1.9098,379.9693],
    [23840,1532817668,57.0102,-111.5602,1561.5,1241.4,356.7,6.3,-8.3,19.4,40.18,1.911,379.9693],
    [23841,1532817669,57.0108,-111.5601,1559.8,1239.8,358.1,4.9,-8.0,19.8,39.87,1.91,379.8312],
    [23842,1532817670,57.0114,-111.5601,1557.7,1237.7,357.5,5.5,-7.5,19.88,39.78,1.9096,380.5963],
    [23843,1532817671,57.012,-111.56,1555.6,1235.6,356.5,6.0,-6.7,18.84,40.19,1.9081,380.3791],
    [23844,1532817672,57.0126,-111.56,1553.5,1232.4,355.9,5.8,-5.8,19.38,40.53,1.9086,381.1593],
    [23845,1532817673,57.0132,-111.56,1551.4,1230.5,354.4,6.3,-4.8,19.01,40.05,1.9076,381.174],
    [23846,1532817674,57.0138,-111.5601,1549.3,1229.3,353.6,6.0,-4.4,19.3,39.8,1.9075,380.803],
    [23847,1532817675,57.0144,-111.5601,1547.4,1227.9,353.0,6.1,-3.9,19.37,39.3,1.908,380.9612],
    [23848,1532817676,57.015,-111.5602,1545.7,1226.7,352.6,6.1,-2.9,19.38,39.85,1.9087,380.6111],
    [23849,1532817677,57.0157,-111.5602,1544.3,1225.3,353.0,5.7,-2.3,19.06,39.02,1.9098,379.8226],
    [23850,1532817678,57.0163,-111.5603,1542.7,1223.7,353.7,5.1,-1.6,19.28,38.94,1.9095,379.8531],
    [23851,1532817679,57.0169,-111.5603,1541.1,1222.1,354.5,4.6,-0.9,19.4,38.92,1.9092,380.6039],
    [23852,1532817680,57.0176,-111.5603,1539.2,1220.2,354.8,4.7,0.6,19.79,38.65,1.9091,379.6597],
    [23853,1532817681,57.0182,-111.5604,1537.2,1218.5,354.9,4.8,1.4,19.49,39.15,1.9097,380.0757],
    [23854,1532817682,57.0188,-111.5604,1535.3,1217.3,355.6,4.4,2.4,19.59,40.0,1.9099,380.3318],
    [23855,1532817683,57.0195,-111.5604,1533.5,1215.5,356.1,4.5,2.6,19.94,39.2,1.9112,379.8377],
    [23856,1532817684,57.0201,-111.5604,1532.4,1214.4,356.5,4.3,2.7,19.27,39.76,1.9105,380.5606],
    [23857,1532817685,57.0208,-111.5604,1531.9,1213.9,356.1,4.8,2.5,19.44,39.91,1.9119,380.286],
    [23858,1532817686,57.0214,-111.5604,1532.0,1215.0,355.1,5.5,2.3,19.04,40.17,1.9112,380.1614],
    [23859,1532817687,57.022,-111.5604,1531.9,1214.9,354.9,5.0,2.9,19.97,39.88,1.9112,378.8462],
    [23860,1532817688,57.0227,-111.5604,1531.4,1214.4,354.7,4.9,3.4,19.36,40.45,1.9112,381.0752],
    [23861,1532817689,57.0233,-111.5604,1530.6,1213.6,354.9,4.5,3.7,20.01,39.97,1.9109,378.9591],
    [23862,1532817690,57.024,-111.5605,1529.9,1213.9,355.5,3.9,4.0,19.19,40.63,1.9111,382.0506],
    [23863,1532817691,57.0246,-111.5605,1529.2,1213.2,355.2,4.3,3.6,19.92,40.31,1.9118,393.8165],
    [23864,1532817692,57.0253,-111.5605,1528.6,1212.6,355.0,4.5,4.0,19.39,41.22,1.912,396.9961],
    [23865,1532817693,57.0259,-111.5605,1528.1,1212.1,354.7,4.6,4.5,19.36,41.94,1.9124,387.0357],
    [23866,1532817694,57.0265,-111.5606,1527.7,1211.7,354.6,4.6,4.5,18.83,41.6,1.9126,383.4142],
    [23867,1532817695,57.0272,-111.5606,1527.1,1211.1,355.0,4.4,3.6,19.44,42.14,1.919,385.5892],
    [23868,1532817696,57.0278,-111.5606,1526.0,1210.0,355.2,4.6,4.2,19.4,42.13,1.9191,389.0122],
    [23869,1532817697,57.0285,-111.5606,1524.5,1208.5,355.5,4.3,4.2,18.98,41.24,1.9125,385.0824],
    [23870,1532817698,57.0291,-111.5606,1522.4,1206.4,355.8,4.2,4.8,19.53,40.55,1.9132,385.0824],
    [23871,1532817699,57.0298,-111.5607,1519.9,1204.3,355.5,4.7,4.9,18.78,40.3,1.9261,393.9331],
    [23872,1532817700,57.0304,-111.5607,1517.3,1202.3,356.3,4.3,4.7,18.91,39.96,1.9369,395.8101],
    [23873,1532817701,57.0311,-111.5607,1513.8,1198.8,356.6,4.4,5.2,19.24,39.58,1.9357,399.9596],
    [23874,1532817702,57.0318,-111.5607,1510.4,1195.4,357.0,4.2,4.7,19.62,40.08,1.9402,395.9905],
    [23875,1532817703,57.0324,-111.5606,1507.3,1192.3,357.0,4.4,5.6,18.83,40.75,1.9489,405.8374],
    [23876,1532817704,57.0331,-111.5606,1504.7,1188.7,356.4,5.0,5.8,19.9,41.07,1.941,400.399],
    [23877,1532817705,57.0338,-111.5606,1502.5,1186.5,356.7,4.6,6.2,19.33,42.24,1.9446,399.9261],
    [23878,1532817706,57.0345,-111.5606,1500.6,1184.6,356.7,4.5,7.7,19.3,42.67,1.9476,400.922],
    [23879,1532817707,57.0351,-111.5606,1499.1,1184.1,356.6,4.3,8.9,19.47,43.28,1.9446,404.9576],
    [23880,1532817708,57.0358,-111.5606,1497.7,1183.7,356.6,4.2,9.1,19.93,42.58,1.9458,406.2915],
    [23881,1532817709,57.0365,-111.5606,1496.6,1183.6,356.8,4.0,9.3,19.2,43.79,1.9463,406.6072],
    [23882,1532817710,57.0372,-111.5606,1496.0,1184.0,356.9,3.7,10.4,19.88,43.69,1.9526,408.061],
    [23883,1532817711,57.0379,-111.5606,1495.7,1183.7,356.7,3.8,10.2,19.14,44.34,1.9479,404.3044],
    [23884,1532817712,57.0385,-111.5606,1495.8,1184.6,356.9,3.7,9.4,19.15,44.3,1.9538,403.4441],
    [23885,1532817713,57.0392,-111.5606,1496.3,1185.0,356.8,3.7,9.3,19.29,45.16,1.9511,402.4994],
    [23886,1532817714,57.0399,-111.5606,1497.4,1186.7,356.5,3.7,9.3,19.55,44.46,1.945,398.7048],
    [23887,1532817715,57.0406,-111.5606,1498.8,1190.6,355.9,3.9,8.3,19.53,44.26,1.9358,396.4681],
    [23888,1532817716,57.0413,-111.5606,1500.6,1194.6,355.3,4.3,7.2,19.23,44.81,1.935,398.0235],
    [23889,1532817717,57.0419,-111.5606,1502.5,1199.5,354.7,4.6,6.8,18.59,44.82,1.9258,390.2259],
    [23890,1532817718,57.0426,-111.5607,1505.0,1202.0,354.5,4.5,6.2,19.02,44.82,1.9129,381.907],
    [23891,1532817719,57.0433,-111.5607,1508.1,1205.1,354.0,4.6,5.7,18.68,44.28,1.9108,382.4006],
    [23892,1532817720,57.0439,-111.5608,1511.0,1207.5,353.9,4.8,5.3,19.08,43.74,1.9105,381.6513],
    [23893,1532817721,57.0446,-111.5608,1513.9,1206.9,354.3,4.7,4.8,19.18,43.77,1.9109,381.0196],
    [23894,1532817722,57.0452,-111.5608,1517.0,1207.2,355.6,4.1,3.8,19.14,42.63,1.9139,381.597],
    [23895,1532817723,57.0459,-111.5608,1520.9,1208.8,355.8,4.4,2.9,19.09,42.1,1.9124,381.4946],
    [23896,1532817724,57.0465,-111.5608,1525.2,1212.2,356.1,4.3,2.2,18.76,41.68,1.9148,381.4946],
    [23897,1532817725,57.0472,-111.5608,1529.2,1216.2,356.1,4.6,1.8,19.12,42.14,1.9151,381.8983],
    [23898,1532817726,57.0478,-111.5609,1532.6,1219.6,356.0,4.6,1.2,19.71,41.79,1.9146,381.3782],
    [23899,1532817727,57.0484,-111.5609,1535.1,1222.1,356.4,4.1,0.8,19.17,41.98,1.9138,380.8987],
    [23900,1532817728,57.0491,-111.5609,1536.9,1222.9,356.1,4.6,0.4,19.8,41.9,1.9153,380.8987],
    [23901,1532817729,57.0497,-111.5609,1538.5,1224.5,355.5,5.2,0.2,18.94,42.97,1.9197,381.7272],
    [23902,1532817730,57.0503,-111.5609,1540.1,1226.1,355.2,5.2,-0.4,18.71,42.71,1.9167,381.0574],
    [23903,1532817731,57.0509,-111.5609,1541.6,1227.6,354.9,5.0,-0.6,19.77,42.23,1.9162,381.7424],
    [23904,1532817732,57.0515,-111.5609,1543.3,1229.3,354.3,5.3,-1.1,19.1,43.22,1.9196,381.7161],
    [23905,1532817733,57.0521,-111.5609,1545.0,1231.0,354.0,5.5,-1.1,19.44,42.24,1.9228,384.4159],
    [23906,1532817734,57.0528,-111.561,1546.5,1232.5,353.9,5.7,-1.3,19.12,43.22,1.9263,385.9583],
    [23907,1532817735,57.0534,-111.561,1548.3,1234.3,354.7,5.3,-1.9,19.06,42.94,1.9277,386.3395],
    [23908,1532817736,57.054,-111.561,1549.9,1235.9,355.3,5.4,-2.7,18.93,43.71,1.9237,386.5529],
    [23909,1532817737,57.0546,-111.561,1551.0,1237.0,355.5,5.7,-2.5,19.41,43.84,1.9222,386.3118],
    [23910,1532817738,57.0552,-111.561,1551.0,1237.0,356.1,5.6,-2.8,19.26,44.57,1.9174,385.4807],
    [23911,1532817739,57.0558,-111.561,1550.9,1236.9,356.7,5.7,-2.8,18.82,45.46,1.9141,381.2007],
    [23912,1532817740,57.0564,-111.561,1550.8,1236.8,357.5,5.1,-2.7,18.86,45.37,1.9189,382.1827],
    [23913,1532817741,57.0571,-111.5609,1550.7,1236.7,358.1,4.9,-2.7,18.53,45.63,1.9176,380.8614],
    [23914,1532817742,57.0577,-111.5609,1550.9,1237.9,357.5,5.4,-2.9,19.78,44.34,1.9149,381.5652],
    [23915,1532817743,57.0583,-111.5608,1551.1,1238.1,358.6,3.9,-2.6,18.97,44.44,1.9165,380.2601],
    [23916,1532817744,57.0589,-111.5608,1550.8,1236.8,358.4,4.2,-1.8,19.04,44.29,1.9168,381.5859],
    [23917,1532817745,57.0595,-111.5608,1550.8,1236.8,357.5,4.7,-2.0,18.8,43.39,1.9167,382.2569],
    [23918,1532817746,57.0602,-111.5607,1551.4,1237.4,358.6,3.0,-2.8,18.3,43.56,1.9125,381.1866],
    [23919,1532817747,57.0608,-111.5607,1552.9,1238.9,357.9,3.8,-3.5,18.96,43.36,1.9163,380.7355],
    [23920,1532817748,57.0614,-111.5607,1554.9,1240.9,357.0,4.6,-3.8,19.03,43.44,1.9171,381.5552],
    [23921,1532817749,57.062,-111.5607,1557.1,1244.1,357.6,3.9,-4.5,19.0,42.55,1.9162,380.6292],
    [23922,1532817750,57.0626,-111.5607,1558.9,1245.9,356.9,4.8,-4.9,19.38,42.52,1.9172,380.3152],
    [23923,1532817751,57.0632,-111.5607,1560.9,1247.9,356.8,4.9,-5.1,19.0,42.86,1.9142,380.181],
    [23924,1532817752,57.0638,-111.5606,1563.8,1250.8,358.8,3.2,-4.9,19.19,42.96,1.9154,380.181],
    [23925,1532817753,57.0644,-111.5606,1566.8,1254.5,359.4,3.2,-4.9,18.86,43.86,1.915,379.9815],
    [23926,1532817754,57.065,-111.5606,1569.4,1257.4,357.3,6.1,-4.8,19.44,42.89,1.9142,379.7409],
    [23927,1532817755,57.0656,-111.5605,1570.5,1258.2,356.9,6.3,-5.1,18.97,43.52,1.9119,378.7445],
    [23928,1532817756,57.0662,-111.5605,1570.9,1258.9,357.8,5.0,-5.7,19.47,42.28,1.9129,378.7445],
    [23929,1532817757,57.0668,-111.5605,1571.5,1259.5,356.7,5.7,-5.0,19.44,42.1,1.9205,381.4553],
    [23930,1532817758,57.0674,-111.5604,1572.4,1261.5,356.0,5.4,-4.8,18.99,42.17,1.9188,380.8184],
    [23931,1532817759,57.0681,-111.5604,1572.5,1262.5,356.8,3.9,-5.1,19.17,41.57,1.9255,379.9843],
    [23932,1532817760,57.0687,-111.5605,1572.1,1263.1,356.0,4.6,-4.7,18.91,42.35,1.9259,379.7653],
    [23933,1532817761,57.0693,-111.5605,1571.3,1263.9,355.1,5.3,-4.7,18.99,41.6,1.9197,381.9725],
    [23934,1532817762,57.0699,-111.5605,1570.5,1264.8,354.7,5.4,-4.7,18.91,42.3,1.9146,380.6536],
    [23935,1532817763,57.0705,-111.5605,1570.2,1267.2,354.1,5.6,-4.6,19.18,41.79,1.9157,379.9593],
    [23936,1532817764,57.0711,-111.5605,1569.7,1272.7,354.3,5.1,-4.3,18.56,41.87,1.9167,381.2939],
    [23937,1532817765,57.0717,-111.5606,1568.7,1274.8,354.7,4.9,-4.7,19.28,41.79,1.9189,380.8994],
    [23938,1532817766,57.0723,-111.5606,1566.9,1277.0,354.3,5.6,-4.4,18.65,41.6,1.9164,380.8894],
    [23939,1532817767,57.073,-111.5606,1564.7,1278.6,354.8,5.1,-3.5,19.02,41.41,1.9188,381.6537],
    [23940,1532817768,57.0736,-111.5607,1562.4,1283.1,355.1,5.0,-2.4,19.46,41.14,1.9199,381.6537],
    [23941,1532817769,57.0742,-111.5607,1560.5,1287.9,354.9,5.2,-0.6,19.56,41.24,1.9283,380.9636],
    [23942,1532817770,57.0748,-111.5607,1558.9,1287.6,354.9,5.2,-0.8,18.93,41.04,1.9296,380.5649],
    [23943,1532817771,57.0754,-111.5607,1557.6,1287.3,355.1,4.7,-0.2,19.4,41.65,1.9286,381.2639],
    [23944,1532817772,57.0761,-111.5607,1556.7,1289.4,355.5,4.2,0.9,18.98,41.89,1.9283,381.0346],
    [23945,1532817773,57.0767,-111.5608,1555.3,1295.2,355.6,4.0,1.5,19.32,42.78,1.9273,381.0346],
    [23946,1532817774,57.0773,-111.5608,1553.5,1297.8,356.5,3.3,2.2,19.81,42.81,1.9272,381.1585],
    [23947,1532817775,57.078,-111.5608,1551.9,1299.8,356.6,3.4,2.7,19.63,43.63,1.9255,381.0756],
    [23948,1532817776,57.0786,-111.5608,1550.6,1301.2,356.5,3.7,3.4,19.49,44.4,1.9243,380.3657],
    [23949,1532817777,57.0792,-111.5608,1549.5,1303.7,356.7,3.5,3.1,19.85,44.13,1.9234,380.188],
    [23950,1532817778,57.0799,-111.5608,1548.3,1305.8,357.1,3.4,3.8,19.49,45.67,1.922,380.188],
    [23951,1532817779,57.0805,-111.5608,1547.4,1308.4,357.2,3.6,4.7,18.96,45.31,1.9207,379.7668],
    [23952,1532817780,57.0811,-111.5608,1547.4,1312.1,358.1,3.0,4.6,19.8,45.1,1.9263,379.156],
    [23953,1532817781,57.0818,-111.5608,1547.6,1313.3,358.9,2.4,3.8,19.0,45.75,1.9581,379.1909],
    [23954,1532817782,57.0824,-111.5608,1547.5,1313.6,359.1,2.4,4.2,18.99,44.89,1.9615,378.7379],
    [23955,1532817783,57.0831,-111.5607,1546.9,1312.9,359.5,2.3,5.3,19.61,44.59,1.9599,378.7379],
    [23956,1532817784,57.0837,-111.5607,1546.3,1312.3,359.2,3.2,5.9,19.11,45.61,1.9413,380.372],
    [23957,1532817785,57.0844,-111.5607,1545.7,1312.7,358.7,4.2,5.6,19.56,44.21,1.9326,380.5586],
    [23958,1532817786,57.085,-111.5606,1545.1,1313.1,358.4,4.5,5.6,18.73,44.65,1.9536,379.4596],
    [23959,1532817787,57.0857,-111.5606,1544.3,1313.4,358.9,4.0,6.0,19.41,44.29,1.9577,380.0682],
    [23960,1532817788,57.0864,-111.5605,1543.0,1311.0,358.3,4.4,5.7,19.46,43.69,1.9663,378.3809],
    [23961,1532817789,57.087,-111.5605,1541.1,1309.1,358.1,4.4,5.5,19.43,44.26,1.9672,379.5305],
    [23962,1532817790,57.0877,-111.5605,1538.6,1306.6,357.8,4.3,5.6,19.45,44.32,1.957,379.4302],
    [23963,1532817791,57.0883,-111.5604,1536.5,1304.5,357.9,3.7,6.2,19.36,44.24,1.952,379.1192],
    [23964,1532817792,57.089,-111.5604,1534.3,1302.3,358.1,3.4,5.0,19.79,44.49,1.9548,379.105],
    [23965,1532817793,57.0897,-111.5604,1532.4,1300.4,357.2,4.3,4.7,19.39,45.36,1.9665,379.9066],
    [23966,1532817794,57.0903,-111.5604,1531.0,1299.0,357.0,4.5,4.2,19.06,45.4,1.977,378.0917],
    [23967,1532817795,57.091,-111.5604,1529.3,1297.3,357.1,4.3,3.9,19.36,46.25,1.9728,378.4873],
    [23968,1532817796,57.0916,-111.5604,1527.3,1295.7,357.1,4.1,3.9,18.67,46.05,1.9656,379.2286],
    [23969,1532817797,57.0923,-111.5604,1525.2,1294.5,357.3,3.4,3.9,19.51,45.98,1.9681,379.1336],
    [23970,1532817798,57.093,-111.5603,1523.1,1293.1,357.0,3.5,3.7,19.26,46.76,1.9745,379.3364],
    [23971,1532817799,57.0936,-111.5604,1520.1,1290.1,356.6,3.6,3.7,18.96,46.43,1.97,379.5428],
    [23972,1532817800,57.0943,-111.5604,1516.2,1285.5,356.8,3.3,3.8,18.71,46.16,1.9468,380.2909],
    [23973,1532817801,57.095,-111.5604,1511.6,1279.3,356.8,3.3,4.7,19.62,46.23,1.9362,380.9756],
    [23974,1532817802,57.0956,-111.5604,1507.7,1270.3,357.3,2.9,4.8,19.13,46.43,1.9354,380.554],
    [23975,1532817803,57.0963,-111.5604,1504.7,1263.7,357.3,3.0,4.2,18.78,46.46,1.9466,379.2603],
    [23976,1532817804,57.097,-111.5604,1502.8,1257.8,356.9,3.3,4.6,19.27,47.14,1.9503,378.6804],
    [23977,1532817805,57.0977,-111.5604,1501.4,1255.5,356.8,3.5,5.2,19.63,46.33,1.9536,379.5168],
    [23978,1532817806,57.0983,-111.5604,1500.2,1253.2,357.3,3.1,5.7,19.17,47.09,1.9644,378.1066],
    [23979,1532817807,57.099,-111.5604,1499.4,1252.1,357.3,3.3,5.6,19.29,47.19,1.9746,378.8852],
    [23980,1532817808,57.0997,-111.5604,1499.6,1251.6,357.6,3.2,4.8,20.0,46.46,1.9559,379.6325],
    [23981,1532817809,57.1004,-111.5604,1500.4,1251.4,357.6,3.5,4.0,19.48,46.68,1.958,378.6594],
    [23982,1532817810,57.101,-111.5604,1502.1,1252.1,357.0,4.2,3.6,19.98,45.98,1.954,378.6557],
    [23983,1532817811,57.1017,-111.5604,1504.1,1252.2,357.1,3.9,4.6,19.46,46.41,1.9576,378.8615],
    [23984,1532817812,57.1023,-111.5604,1506.1,1252.1,357.1,3.7,4.5,19.92,45.37,1.9652,378.4286],
    [23985,1532817813,57.103,-111.5604,1508.0,1253.0,358.2,2.5,4.6,19.37,45.85,1.9647,378.8658],
    [23986,1532817814,57.1036,-111.5604,1509.0,1252.3,359.7,1.0,4.5,19.53,45.34,1.9534,378.5288],
    [23987,1532817815,57.1042,-111.5604,1510.7,1252.8,359.8,1.3,3.8,19.01,45.31,1.9506,378.6699],
    [23988,1532817816,57.1049,-111.5603,1512.5,1253.6,359.1,1.9,2.9,19.06,45.31,1.9563,380.1456],
    [23989,1532817817,57.1055,-111.5603,1514.3,1254.3,359.2,1.5,3.0,19.31,45.52,1.9579,378.9133],
    [23990,1532817818,57.1061,-111.5603,1515.7,1254.7,359.2,1.4,3.1,19.66,44.66,1.963,379.7648],
    [23991,1532817819,57.1068,-111.5603,1516.4,1255.4,358.9,1.5,3.1,19.56,44.72,1.9413,379.5081],
    [23992,1532817820,57.1074,-111.5603,1516.7,1255.7,358.3,1.6,3.0,18.95,44.88,1.9286,379.5081],
    [23993,1532817821,57.108,-111.5603,1517.2,1256.2,357.8,1.9,2.9,19.5,44.39,1.9233,379.8761],
    [23994,1532817822,57.1086,-111.5603,1517.0,1256.0,358.2,1.5,2.7,19.32,44.42,1.9221,380.3236],
    [23995,1532817823,57.1093,-111.5603,1516.5,1255.5,357.7,2.4,2.7,19.69,43.91,1.9212,380.3236],
    [23996,1532817824,57.1099,-111.5603,1516.3,1255.3,357.5,2.7,2.5,19.38,44.38,1.9188,381.4135],
    [23997,1532817825,57.1105,-111.5603,1516.5,1255.5,357.3,2.9,2.1,19.34,43.42,1.9125,380.292],
    [23998,1532817826,57.1111,-111.5604,1516.6,1254.9,357.0,3.0,1.7,20.03,42.38,1.9126,380.7413],
    [23999,1532817827,57.1117,-111.5604,1516.4,1254.4,357.0,3.2,1.3,19.38,42.62,1.9128,380.6469],
    [24000,1532817828,57.1123,-111.5604,1515.7,1253.7,355.9,4.5,1.2,19.39,42.41,1.9169,380.3885],
    [24001,1532817829,57.113,-111.5604,1514.4,1252.4,356.5,3.9,1.2,19.39,42.12,1.9206,381.4533],
    [24002,1532817830,57.1136,-111.5604,1512.5,1250.5,357.0,3.4,1.4,19.47,41.86,1.9206,380.0763],
    [24003,1532817831,57.1142,-111.5604,1510.3,1248.3,356.6,3.7,1.4,19.59,42.02,1.9237,380.5034],
    [24004,1532817832,57.1148,-111.5604,1508.3,1246.3,357.2,2.5,1.4,18.95,42.22,1.9227,380.397],
    [24005,1532817833,57.1154,-111.5604,1506.2,1244.2,357.4,1.9,1.5,19.41,42.9,1.921,380.147],
    [24006,1532817834,57.116,-111.5604,1503.8,1241.8,356.9,2.0,2.0,19.11,43.0,1.9234,381.0266],
    [24007,1532817835,57.1166,-111.5604,1501.1,1238.8,357.2,1.4,2.7,19.2,43.15,1.9245,381.0266],
    [24008,1532817836,57.1173,-111.5605,1497.9,1234.9,357.2,1.5,3.3,19.49,43.57,1.9272,381.5963],
    [24009,1532817837,57.1179,-111.5605,1494.9,1231.9,357.0,1.5,3.6,19.53,43.48,1.9242,381.3051],
    [24010,1532817838,57.1185,-111.5605,1491.6,1228.6,357.0,1.4,3.8,19.4,43.61,1.9265,380.1027],
    [24011,1532817839,57.1191,-111.5606,1488.0,1225.0,356.0,2.3,3.8,19.49,42.94,1.9268,380.1027],
    [24012,1532817840,57.1198,-111.5606,1484.4,1221.0,356.3,2.1,3.7,20.14,42.4,1.932,380.0995],
    [24013,1532817841,57.1204,-111.5606,1481.2,1217.2,356.5,2.1,3.1,19.82,42.91,1.9438,380.097],
    [24014,1532817842,57.121,-111.5607,1478.8,1214.1,356.4,2.1,3.1,19.37,44.33,1.9467,380.0916],
    [24015,1532817843,57.1217,-111.5607,1477.0,1212.1,356.7,1.8,3.6,19.07,43.96,1.9441,380.1887],
    [24016,1532817844,57.1223,-111.5608,1475.8,1209.8,358.2,0.4,4.0,19.43,44.85,1.9433,378.1322],
    [24017,1532817845,57.1229,-111.5608,1475.3,1209.3,359.1,0.1,3.6,19.3,44.57,1.9371,379.9757],
    [24018,1532817846,57.1236,-111.5608,1475.8,1209.8,358.8,0.4,2.9,19.42,44.68,1.9288,379.3967],
    [24019,1532817847,57.1242,-111.5608,1477.9,1211.9,359.4,-0.4,2.3,19.45,44.77,1.9264,378.7255],
    [24020,1532817848,57.1248,-111.5608,1480.3,1214.3,358.6,0.4,1.5,19.47,45.18,1.9245,380.0917],
    [24021,1532817849,57.1255,-111.5609,1482.2,1216.2,357.8,0.9,1.5,19.36,44.72,1.9236,380.6174],
    [24022,1532817850,57.1261,-111.5609,1483.6,1217.6,358.4,0.3,1.7,19.51,44.53,1.9223,380.3949],
    [24023,1532817851,57.1267,-111.5609,1484.1,1217.1,358.6,0.4,2.3,19.98,44.23,1.9204,380.6101],
    [24024,1532817852,57.1274,-111.5609,1484.5,1217.5,357.6,1.7,2.8,19.34,45.04,1.9232,380.7576],
    [24025,1532817853,57.128,-111.5609,1485.1,1218.1,357.0,2.4,2.7,19.26,43.99,1.925,380.5874],
    [24026,1532817854,57.1286,-111.561,1485.8,1218.8,356.7,2.8,2.5,19.47,43.65,1.9293,380.5874],
    [24027,1532817855,57.1293,-111.561,1486.3,1219.3,356.6,3.0,2.7,19.1,43.26,1.9185,381.1759],
    [24028,1532817856,57.1299,-111.561,1486.2,1220.2,357.5,2.2,3.0,19.78,42.72,1.9152,381.1963],
    [24029,1532817857,57.1305,-111.561,1485.5,1219.5,358.3,1.9,3.4,19.57,42.93,1.913,381.1963],
    [24030,1532817858,57.1311,-111.561,1484.5,1218.5,358.1,2.6,2.8,19.4,41.93,1.9106,378.8546],
    [24031,1532817859,57.1318,-111.561,1483.6,1217.6,357.5,3.0,3.3,20.01,40.7,1.9087,381.8098],
    [24032,1532817860,57.1324,-111.561,1483.5,1217.5,358.5,1.9,4.4,19.52,40.04,1.929,382.0952],
    [24033,1532817861,57.133,-111.561,1483.2,1217.2,358.4,2.2,4.9,19.49,39.68,1.9261,381.8618],
    [24034,1532817862,57.1336,-111.561,1482.7,1215.7,358.5,2.2,5.1,19.51,39.68,1.9146,381.5778],
    [24035,1532817863,57.1342,-111.561,1482.6,1215.6,358.8,2.3,5.6,19.62,39.81,1.9284,381.7641],
    [24036,1532817864,57.1349,-111.5609,1482.6,1215.6,358.0,3.4,5.4,19.53,40.22,1.923,381.2735],
    [24037,1532817865,57.1355,-111.5609,1482.5,1215.5,357.8,3.9,6.0,20.17,40.14,1.9246,381.7716],
    [24038,1532817866,57.1361,-111.5609,1482.2,1215.2,357.8,4.1,6.5,19.78,40.49,1.9217,382.5644],
    [24039,1532817867,57.1367,-111.5609,1481.8,1215.2,357.3,4.6,6.6,19.55,40.8,1.9244,382.5843],
    [24040,1532817868,57.1373,-111.5608,1481.1,1214.0,357.2,4.7,5.9,19.11,40.49,1.9367,381.1835],
    [24041,1532817869,57.1379,-111.5608,1480.7,1213.7,357.5,4.6,5.7,20.16,40.27,1.9381,381.4597],
    [24042,1532817870,57.1386,-111.5608,1480.4,1212.4,357.5,4.9,5.8,20.2,40.73,1.9391,381.4964],
    [24043,1532817871,57.1392,-111.5607,1480.2,1211.3,357.9,4.7,5.7,19.48,42.31,1.9389,378.7158],
    [24044,1532817872,57.1398,-111.5607,1479.4,1209.4,359.2,3.5,5.2,19.07,43.09,1.9402,381.4855],
    [24045,1532817873,57.1404,-111.5607,1478.5,1207.4,359.6,2.7,5.6,19.64,44.14,1.942,380.2474],
    [24046,1532817874,57.141,-111.5606,1478.0,1206.1,358.0,2.7,5.2,19.46,44.5,1.943,380.8031],
    [24047,1532817875,57.1416,-111.5606,1477.7,1205.5,355.5,2.4,5.1,19.3,45.06,1.9365,380.1616],
    [24048,1532817876,57.1423,-111.5607,1477.1,1204.1,352.7,1.5,5.1,19.83,45.21,1.9364,380.6421],
    [24049,1532817877,57.1428,-111.5609,1476.4,1203.4,347.5,2.0,5.1,19.64,45.83,1.9349,379.8783],
    [24050,1532817878,57.1434,-111.5611,1476.0,1203.0,342.3,1.7,5.3,19.58,46.06,1.9385,380.5298],
    [24051,1532817879,57.144,-111.5614,1475.6,1202.6,337.5,1.2,5.2,19.62,46.29,1.9432,379.7719],
    [24052,1532817880,57.1446,-111.5618,1475.2,1201.2,332.5,0.9,5.5,19.56,46.58,1.9482,379.7719],
    [24053,1532817881,57.1451,-111.5623,1474.4,1200.4,328.3,0.7,5.5,19.65,46.14,1.9497,380.0013],
    [24054,1532817882,57.1456,-111.5629,1472.6,1199.7,324.8,0.2,5.4,19.38,45.92,1.9462,379.776],
    [24055,1532817883,57.1461,-111.5635,1469.7,1196.8,321.5,-0.7,5.3,20.03,45.6,1.9458,378.3029],
    [24056,1532817884,57.1465,-111.5641,1466.2,1193.2,318.1,-1.8,5.3,19.79,46.21,1.9432,378.3029],
    [24057,1532817885,57.147,-111.5649,1462.6,1190.6,313.5,-2.4,5.9,19.69,46.35,1.9416,380.0414],
    [24058,1532817886,57.1474,-111.5657,1459.5,1188.3,308.9,-2.4,5.7,19.37,46.5,1.9408,379.1614],
    [24059,1532817887,57.1477,-111.5665,1457.1,1186.4,305.8,-2.9,4.8,18.9,46.57,1.9427,380.0633],
    [24060,1532817888,57.1481,-111.5674,1455.2,1183.9,303.0,-4.0,4.6,19.59,46.89,1.9427,379.1769],
    [24061,1532817889,57.1484,-111.5683,1453.3,1182.4,299.6,-3.7,4.6,20.06,46.47,1.9414,379.5003],
    [24062,1532817890,57.1487,-111.5693,1451.4,1186.1,296.8,-3.4,4.1,19.4,46.67,1.9382,379.0469],
    [24063,1532817891,57.149,-111.5703,1450.3,1187.2,294.1,-3.4,3.9,19.79,47.07,1.9383,379.0691],
    [24064,1532817892,57.1492,-111.5712,1449.7,1186.4,292.5,-3.4,2.9,18.9,46.83,1.9363,378.4881],
    [24065,1532817893,57.1495,-111.5722,1449.6,1186.3,289.8,-3.5,2.8,19.46,46.88,1.938,379.4952],
    [24066,1532817894,57.1497,-111.5733,1450.3,1185.2,287.7,-3.2,2.0,19.62,47.18,1.941,379.4952],
    [24067,1532817895,57.1498,-111.5743,1451.6,1188.0,285.8,-2.8,1.6,19.6,47.21,1.9433,377.0256],
    [24068,1532817896,57.15,-111.5753,1453.5,1187.6,283.8,-1.7,1.5,19.45,46.81,1.9385,379.4313],
    [24069,1532817897,57.1501,-111.5763,1455.8,1187.8,282.8,-0.5,0.8,19.4,46.81,1.9359,378.3261],
    [24070,1532817898,57.1503,-111.5774,1458.3,1187.7,280.4,0.5,1.6,19.14,46.87,1.9357,378.7547],
    [24071,1532817899,57.1504,-111.5784,1461.1,1189.2,278.6,1.4,1.5,19.9,46.68,1.9322,378.9347],
    [24072,1532817900,57.1505,-111.5794,1463.9,1190.9,277.3,1.6,1.3,19.69,46.78,1.9306,377.6052],
    [24073,1532817901,57.1505,-111.5804,1466.7,1193.7,275.9,1.6,1.2,19.49,47.02,1.9308,378.2427],
    [24074,1532817902,57.1506,-111.5814,1469.3,1196.1,274.9,1.9,0.8,19.57,46.99,1.9318,379.5595],
    [24075,1532817903,57.1506,-111.5825,1471.6,1198.6,274.1,2.0,0.3,19.91,46.99,1.9325,379.5595],
    [24076,1532817904,57.1507,-111.5835,1474.1,1201.8,271.6,2.9,1.8,19.41,47.09,1.9332,378.4993],
    [24077,1532817905,57.1507,-111.5845,1476.4,1204.1,270.4,4.0,1.8,19.6,47.39,1.9325,379.08],
    [24078,1532817906,57.1507,-111.5854,1478.1,1205.1,270.6,4.7,1.3,19.32,47.23,1.9339,378.2616],
    [24079,1532817907,57.1507,-111.5864,1479.5,1206.5,270.2,5.4,1.7,19.7,46.75,1.9335,378.2616],
    [24080,1532817908,57.1508,-111.5874,1480.4,1207.4,269.9,5.4,1.7,19.8,46.98,1.9295,379.1171],
    [24081,1532817909,57.1508,-111.5883,1480.5,1207.5,270.4,4.8,0.9,19.59,47.16,1.929,379.3505],
    [24082,1532817910,57.1508,-111.5893,1480.1,1207.8,270.0,5.2,1.0,20.17,46.83,1.9287,379.4984],
    [24083,1532817911,57.1508,-111.5903,1479.6,1207.5,268.9,5.2,1.8,19.45,46.98,1.9288,378.9724],
    [24084,1532817912,57.1508,-111.5912,1478.3,1207.3,268.8,6.4,1.7,19.14,46.84,1.9283,379.6201],
    [24085,1532817913,57.1508,-111.5921,1476.7,1206.8,269.3,6.4,1.3,19.46,46.87,1.9263,379.6319],
    [24086,1532817914,57.1508,-111.5931,1475.4,1206.2,268.7,5.7,2.0,19.64,46.62,1.9286,378.7049],
    [24087,1532817915,57.1508,-111.5941,1474.1,1205.9,268.8,5.9,1.6,19.4,46.64,1.9297,379.6388],
    [24088,1532817916,57.1508,-111.5951,1473.1,1206.1,268.3,6.0,1.9,18.85,46.48,1.9309,380.0474],
    [24089,1532817917,57.1508,-111.596,1472.4,1204.6,268.4,6.6,1.3,19.35,46.32,1.9301,379.4761],
    [24090,1532817918,57.1508,-111.597,1472.1,1203.1,268.4,6.2,1.0,19.62,46.26,1.9303,379.7723],
    [24091,1532817919,57.1508,-111.598,1471.9,1203.0,267.4,5.8,1.6,19.56,46.46,1.9313,379.2129],
    [24092,1532817920,57.1508,-111.5989,1472.0,1201.8,267.3,5.8,1.5,19.71,46.54,1.9295,379.237],
    [24093,1532817921,57.1508,-111.5998,1472.0,1201.0,266.5,6.2,2.3,20.29,45.92,1.9252,379.0783],
    [24094,1532817922,57.1507,-111.6008,1471.8,1200.8,266.9,6.2,1.6,19.49,46.36,1.9245,377.7969],
    [24095,1532817923,57.1507,-111.6017,1471.5,1201.4,267.9,5.4,0.5,19.65,46.45,1.9242,377.7969],
    [24096,1532817924,57.1507,-111.6027,1471.3,1202.2,267.1,5.8,1.2,19.95,45.46,1.925,379.1816],
    [24097,1532817925,57.1507,-111.6036,1471.2,1204.0,267.4,6.1,1.0,19.75,46.04,1.9267,379.047],
    [24098,1532817926,57.1507,-111.6045,1470.9,1205.8,267.3,6.1,1.7,19.92,45.42,1.926,380.006],
    [24099,1532817927,57.1507,-111.6054,1470.1,1207.0,267.9,6.2,1.4,19.59,45.75,1.9258,379.2463],
    [24100,1532817928,57.1507,-111.6064,1468.5,1208.1,269.3,5.5,0.5,19.38,45.48,1.9261,379.0431],
    [24101,1532817929,57.1507,-111.6073,1466.7,1210.5,268.4,5.5,1.7,19.82,45.45,1.9263,378.6571],
    [24102,1532817930,57.1507,-111.6082,1465.2,1212.3,268.1,5.7,2.2,19.46,45.85,1.9256,378.7556],
    [24103,1532817931,57.1507,-111.6092,1463.4,1212.9,269.1,5.4,1.4,19.15,46.13,1.924,379.8005],
    [24104,1532817932,57.1507,-111.6102,1461.7,1212.4,269.6,4.6,1.3,19.61,46.08,1.9236,377.8635],
    [24105,1532817933,57.1507,-111.6111,1460.0,1212.6,269.4,4.6,1.7,19.89,45.7,1.9234,379.6753],
    [24106,1532817934,57.1507,-111.612,1458.6,1213.5,269.8,4.9,1.5,19.79,46.23,1.9206,379.1284],
    [24107,1532817935,57.1507,-111.613,1457.1,1214.0,270.1,4.5,1.2,19.83,45.59,1.919,379.4866],
    [24108,1532817936,57.1507,-111.614,1456.1,1214.7,269.7,3.9,1.6,19.66,45.53,1.9181,378.7691],
    [24109,1532817937,57.1507,-111.6149,1455.5,1215.1,269.8,3.3,1.1,19.42,45.21,1.919,379.0254],
    [24110,1532817938,57.1507,-111.6159,1454.1,1216.5,270.2,2.6,0.4,20.0,44.69,1.92,379.2705],
    [24111,1532817939,57.1507,-111.6169,1452.9,1216.4,269.8,2.2,0.5,19.43,44.69,1.9201,379.014],
    [24112,1532817940,57.1507,-111.6178,1452.0,1216.0,268.0,1.5,1.7,19.51,45.05,1.9214,377.9907],
    [24113,1532817941,57.1507,-111.6188,1451.8,1216.8,266.6,1.3,2.0,19.44,45.17,1.9231,380.316],
    [24114,1532817942,57.1507,-111.6198,1452.5,1218.5,266.5,1.0,0.8,19.34,44.94,1.9237,378.8551],
    [24115,1532817943,57.1507,-111.6208,1454.7,1220.7,266.7,0.3,-0.4,19.61,44.96,1.9236,378.9783],
    [24116,1532817944,57.1506,-111.6218,1457.2,1223.2,266.0,-0.6,-0.5,19.23,45.18,1.923,379.4266],
    [24117,1532817945,57.1506,-111.6227,1459.8,1224.8,264.8,-0.7,-0.2,19.81,45.64,1.9241,378.6682],
    [24118,1532817946,57.1505,-111.6237,1462.3,1227.3,264.6,-1.0,-0.8,19.34,45.59,1.9217,379.8029],
    [24119,1532817947,57.1505,-111.6247,1464.4,1229.4,263.8,-1.8,-0.3,19.99,45.26,1.9231,379.3239],
    [24120,1532817948,57.1504,-111.6257,1466.0,1229.1,262.4,-2.3,0.5,19.15,45.59,1.924,379.3239],
    [24121,1532817949,57.1504,-111.6266,1467.4,1229.1,262.8,-2.7,-0.3,19.5,46.25,1.927,379.6863],
    [24122,1532817950,57.1503,-111.6276,1467.7,1225.8,262.9,-3.3,-0.5,19.1,45.63,1.9254,380.3935],
    [24123,1532817951,57.1502,-111.6286,1467.0,1222.8,261.9,-3.5,-0.1,19.41,45.9,1.9252,379.3745],
    [24124,1532817952,57.1501,-111.6296,1466.1,1223.8,261.7,-3.1,0.0,19.33,45.84,1.9237,380.1833],
    [24125,1532817953,57.1501,-111.6306,1464.7,1222.6,261.8,-2.8,0.4,19.6,46.48,1.9157,380.2351],
    [24126,1532817954,57.15,-111.6316,1462.6,1220.6,263.5,-2.8,-0.2,19.35,45.77,1.9126,379.5274],
    [24127,1532817955,57.1499,-111.6326,1460.2,1216.8,264.5,-3.4,0.1,19.96,44.87,1.91,379.5564],
    [24128,1532817956,57.1499,-111.6336,1457.6,1208.8,265.2,-3.4,0.3,20.02,43.91,1.911,380.4081],
    [24129,1532817957,57.1499,-111.6346,1455.5,1202.5,266.5,-3.9,-0.2,18.92,43.71,1.9125,379.8677],
    [24130,1532817958,57.1498,-111.6357,1453.9,1196.1,266.6,-4.1,0.2,19.97,42.17,1.91,380.6804],
    [24131,1532817959,57.1498,-111.6367,1453.2,1192.3,266.3,-3.4,0.8,19.78,41.85,1.9054,381.2824],
    [24132,1532817960,57.1498,-111.6377,1453.4,1190.9,266.9,-3.6,0.6,19.32,41.68,1.9075,381.2824],
    [24133,1532817961,57.1498,-111.6388,1454.4,1190.5,266.3,-3.6,1.5,19.6,40.85,1.9064,381.6913],
    [24134,1532817962,57.1497,-111.6399,1455.8,1189.8,266.7,-3.5,1.3,19.97,39.85,1.9039,381.6913],
    [24135,1532817963,57.1497,-111.6409,1457.4,1189.7,267.4,-3.2,1.3,19.59,39.65,1.9059,381.8245],
    [24136,1532817964,57.1497,-111.6419,1459.2,1191.2,267.6,-3.2,2.0,19.97,38.79,1.906,383.2286],
    [24137,1532817965,57.1497,-111.6429,1460.7,1192.7,268.3,-3.0,2.2,20.32,38.28,1.9071,383.1945],
    [24138,1532817966,57.1497,-111.6439,1462.1,1193.8,269.0,-3.0,2.4,19.8,38.23,1.9064,383.1836],
    [24139,1532817967,57.1497,-111.6449,1463.1,1194.0,269.4,-2.9,2.5,19.18,38.96,1.9081,381.3899],
    [24140,1532817968,57.1498,-111.6459,1463.7,1193.7,269.9,-2.8,2.7,19.51,38.59,1.9085,383.1842],
    [24141,1532817969,57.1498,-111.6469,1463.9,1193.0,270.4,-2.6,3.0,19.25,38.04,1.9091,381.1617],
    [24142,1532817970,57.1498,-111.6479,1463.7,1190.0,271.7,-1.8,2.4,19.52,38.2,1.9092,380.7513],
    [24143,1532817971,57.1499,-111.6489,1463.5,1186.7,272.6,-1.0,2.1,19.47,38.05,1.9085,381.4075],
    [24144,1532817972,57.1499,-111.6499,1463.5,1184.5,272.3,-0.4,2.8,19.38,38.36,1.9084,381.1299],
    [24145,1532817973,57.15,-111.6509,1464.4,1182.8,272.9,0.9,2.8,18.79,38.24,1.9103,382.5381],
    [24146,1532817974,57.15,-111.6519,1465.5,1181.6,273.5,1.6,2.8,19.19,38.12,1.9077,382.1483],
    [24147,1532817975,57.1501,-111.6529,1466.0,1179.0,274.4,1.7,2.1,19.47,38.52,1.9079,382.1483],
    [24148,1532817976,57.1501,-111.6539,1466.6,1176.5,274.6,2.2,1.9,19.38,38.36,1.9068,382.0002],
    [24149,1532817977,57.1502,-111.6549,1467.7,1176.1,273.4,2.7,2.6,19.48,38.63,1.9081,381.9482],
    [24150,1532817978,57.1502,-111.6559,1468.9,1175.9,273.2,3.5,2.3,19.76,37.75,1.9085,382.7148],
    [24151,1532817979,57.1503,-111.6568,1469.9,1175.9,272.7,4.3,2.4,19.61,37.98,1.9103,383.2681],
    [24152,1532817980,57.1503,-111.6578,1470.9,1174.9,272.7,5.1,1.4,19.68,37.73,1.9079,383.3629],
    [24153,1532817981,57.1504,-111.6588,1472.1,1175.1,271.5,5.6,1.5,19.33,37.92,1.9073,383.6047],
    [24154,1532817982,57.1504,-111.6597,1473.8,1175.8,269.1,6.1,2.9,18.95,37.89,1.9067,379.9772],
    [24155,1532817983,57.1504,-111.6607,1475.4,1177.4,268.5,6.6,2.6,19.69,37.39,1.9086,382.1905],
    [24156,1532817984,57.1504,-111.6616,1477.4,1179.3,267.8,7.7,2.7,19.36,37.47,1.9082,382.4028],
    [24157,1532817985,57.1504,-111.6625,1479.4,1182.4,266.9,9.1,3.2,19.48,37.44,1.9115,383.0163],
    [24158,1532817986,57.1504,-111.6635,1481.8,1184.1,266.0,10.2,3.7,19.37,37.62,1.9075,383.0851],
    [24159,1532817987,57.1504,-111.6644,1484.4,1185.3,265.0,11.4,4.5,19.55,38.08,1.902,383.1023],
    [24160,1532817988,57.1504,-111.6653,1486.7,1186.7,264.3,12.5,5.2,19.82,37.44,1.9027,383.1023],
    [24161,1532817989,57.1504,-111.6662,1489.0,1188.0,263.6,13.0,5.9,19.59,36.78,1.9052,383.6323],
    [24162,1532817990,57.1504,-111.6671,1491.0,1188.0,263.3,13.2,6.2,19.28,36.71,1.9052,382.8044],
    [24163,1532817991,57.1503,-111.668,1492.5,1186.5,264.0,13.4,5.4,19.45,36.24,1.9061,382.8044],
    [24164,1532817992,57.1503,-111.6689,1493.6,1185.6,265.5,13.2,3.7,19.85,35.82,1.9076,382.6895],
    [24165,1532817993,57.1503,-111.6697,1494.2,1184.3,265.0,13.0,4.2,19.39,36.69,1.9071,382.9225],
    [24166,1532817994,57.1503,-111.6706,1494.8,1183.8,263.6,13.2,5.7,18.99,36.12,1.9077,382.1195],
    [24167,1532817995,57.1503,-111.6715,1495.1,1184.1,263.9,12.8,5.3,18.96,36.26,1.9078,382.8152],
    [24168,1532817996,57.1503,-111.6724,1495.3,1184.3,264.2,12.4,5.1,19.87,36.04,1.9069,382.9642],
    [24169,1532817997,57.1502,-111.6733,1495.0,1183.0,265.4,12.1,4.1,18.87,36.27,1.9067,382.2986],
    [24170,1532817998,57.1502,-111.6743,1494.9,1181.2,266.2,12.4,3.9,20.04,35.97,1.9072,383.1024],
    [24171,1532817999,57.1502,-111.6751,1495.5,1181.5,266.2,12.3,4.3,19.75,36.33,1.9074,382.9346],
    [24172,1532818000,57.1502,-111.676,1497.0,1183.0,267.0,11.6,3.4,20.2,36.14,1.9082,380.7139],
    [24173,1532818001,57.1502,-111.677,1498.9,1184.9,268.3,11.4,2.3,19.72,36.57,1.9102,380.8289],
    [24174,1532818002,57.1502,-111.6779,1500.3,1185.3,268.0,11.4,2.4,19.49,36.72,1.9105,382.4385],
    [24175,1532818003,57.1502,-111.6788,1501.8,1186.8,267.4,11.5,2.8,19.45,37.41,1.9096,382.4385],
    [24176,1532818004,57.1502,-111.6797,1503.4,1188.4,266.4,11.4,3.3,19.69,36.91,1.9084,381.7742],
    [24177,1532818005,57.1502,-111.6806,1504.8,1189.8,266.3,11.5,2.9,19.18,37.48,1.9106,381.9756],
    [24178,1532818006,57.1502,-111.6815,1506.1,1191.1,266.0,11.4,3.0,19.43,37.72,1.9117,382.6815],
    [24179,1532818007,57.1502,-111.6824,1507.6,1192.6,265.8,10.6,3.2,19.64,37.94,1.91,381.5514],
    [24180,1532818008,57.1502,-111.6833,1509.1,1193.6,266.0,10.0,2.9,19.68,38.0,1.9075,382.9868],
    [24181,1532818009,57.1502,-111.6842,1510.9,1194.9,266.0,9.9,3.2,19.72,37.74,1.9071,381.609],
    [24182,1532818010,57.1502,-111.6851,1512.8,1196.0,265.2,9.7,4.2,20.12,37.7,1.9075,380.6127],
    [24183,1532818011,57.1501,-111.686,1514.3,1197.3,266.1,9.3,3.4,19.48,38.04,1.9083,382.3768],
    [24184,1532818012,57.1501,-111.6869,1515.1,1197.1,267.1,8.8,2.8,20.08,37.53,1.9078,380.8278],
    [24185,1532818013,57.1501,-111.6878,1514.9,1196.6,267.3,8.4,2.8,19.89,37.39,1.9101,381.6214],
    [24186,1532818014,57.1501,-111.6888,1513.5,1194.5,267.8,8.2,2.5,19.69,37.86,1.9106,381.7987],
    [24187,1532818015,57.1501,-111.6897,1511.3,1192.3,268.0,7.0,2.6,19.25,38.02,1.9092,381.7458],
    [24188,1532818016,57.1501,-111.6906,1509.3,1189.3,268.0,6.3,2.7,18.95,38.58,1.9094,380.3744],
    [24189,1532818017,57.1501,-111.6916,1506.7,1186.7,268.3,5.8,2.5,19.67,38.04,1.9097,381.7812],
    [24190,1532818018,57.1502,-111.6925,1504.1,1184.1,267.9,5.3,3.1,19.45,38.02,1.9091,381.7256],
    [24191,1532818019,57.1502,-111.6935,1501.8,1181.8,267.3,5.4,3.9,20.33,37.78,1.9096,382.2673],
    [24192,1532818020,57.1502,-111.6944,1499.7,1179.7,268.2,6.1,3.2,19.91,38.27,1.9104,382.8388],
    [24193,1532818021,57.1502,-111.6954,1497.7,1176.7,268.8,6.5,2.9,19.59,39.33,1.9093,383.0871],
    [24194,1532818022,57.1502,-111.6964,1495.8,1174.8,268.3,7.3,3.3,19.76,38.61,1.9108,383.0871],
    [24195,1532818023,57.1502,-111.6974,1494.0,1172.4,268.2,7.1,3.3,19.44,38.58,1.9118,381.4208],
    [24196,1532818024,57.1502,-111.6984,1492.2,1170.2,267.8,6.8,3.7,19.63,38.48,1.9105,381.9094],
    [24197,1532818025,57.1502,-111.6994,1490.7,1168.7,267.6,6.8,3.7,19.81,38.28,1.91,382.4353],
    [24198,1532818026,57.1502,-111.7004,1489.4,1167.4,267.5,6.2,3.7,19.59,39.07,1.9085,382.0483],
    [24199,1532818027,57.1502,-111.7015,1487.7,1165.7,267.8,5.2,3.2,19.32,39.09,1.9086,381.9578],
    [24200,1532818028,57.1502,-111.7025,1485.7,1163.7,268.2,4.4,2.5,18.78,38.83,1.9127,381.7806],
    [24201,1532818029,57.1502,-111.7035,1483.8,1161.8,268.9,4.2,1.5,19.13,38.85,1.9097,381.7906],
    [24202,1532818030,57.1502,-111.7046,1481.8,1159.8,269.1,4.5,1.1,19.45,39.32,1.9101,382.3706],
    [24203,1532818031,57.1502,-111.7056,1480.0,1157.0,269.2,4.7,1.0,19.88,38.37,1.9094,382.7101],
    [24204,1532818032,57.1502,-111.7067,1478.5,1155.5,268.8,5.2,1.1,19.96,38.46,1.9105,382.5595],
    [24205,1532818033,57.1502,-111.7078,1477.8,1154.8,269.0,5.8,0.9,19.92,38.22,1.9118,382.2333],
    [24206,1532818034,57.1502,-111.7088,1478.8,1155.8,268.7,6.0,1.2,18.68,39.06,1.9114,381.4129],
    [24207,1532818035,57.1502,-111.7099,1480.9,1156.9,268.8,7.0,0.8,19.74,38.78,1.9138,381.9558],
    [24208,1532818036,57.1502,-111.711,1482.9,1158.9,268.7,7.1,0.8,19.42,39.62,1.9128,382.0164],
    [24209,1532818037,57.1502,-111.712,1485.2,1161.2,267.8,7.6,1.4,19.08,39.45,1.912,381.5605],
    [24210,1532818038,57.1502,-111.7131,1487.5,1162.5,267.2,8.7,1.8,20.19,39.12,1.9122,380.9261],
    [24211,1532818039,57.1502,-111.7142,1490.6,1165.6,266.5,9.0,2.3,19.56,39.44,1.9115,381.2533],
    [24212,1532818040,57.1502,-111.7152,1493.8,1168.8,266.1,8.9,2.4,20.09,39.4,1.9115,381.8636],
    [24213,1532818041,57.1501,-111.7163,1497.2,1172.2,266.0,10.8,2.6,18.94,39.77,1.9118,381.8283],
    [24214,1532818042,57.1501,-111.7173,1500.6,1174.6,266.5,11.1,1.9,19.26,39.88,1.9112,380.7324],
    [24215,1532818043,57.1501,-111.7184,1504.2,1178.2,266.5,10.8,2.1,19.3,39.87,1.9111,382.6729],
    [24216,1532818044,57.1501,-111.7194,1507.7,1181.7,266.6,10.8,2.1,19.37,39.87,1.911,381.9189],
    [24217,1532818045,57.1501,-111.7204,1511.0,1185.0,267.2,11.1,1.9,19.25,39.73,1.9104,382.2031],
    [24218,1532818046,57.15,-111.7215,1514.0,1187.8,267.5,11.4,2.0,18.67,39.73,1.9114,381.3442],
    [24219,1532818047,57.15,-111.7225,1516.4,1189.4,268.5,11.5,1.5,19.05,39.48,1.9135,381.5946],
    [24220,1532818048,57.15,-111.7235,1518.8,1191.8,269.2,11.3,1.4,18.93,39.4,1.9128,380.4709],
    [24221,1532818049,57.15,-111.7245,1521.4,1194.4,269.8,12.1,1.3,19.29,39.57,1.913,380.7042],
    [24222,1532818050,57.1501,-111.7255,1524.0,1197.0,271.2,12.1,0.5,19.99,38.92,1.9121,381.0779],
    [24223,1532818051,57.1501,-111.7265,1527.4,1200.4,271.7,11.0,1.0,18.84,39.92,1.9122,380.2924],
    [24224,1532818052,57.1501,-111.7275,1531.2,1204.2,271.9,10.2,1.2,19.88,39.54,1.9118,380.2345],
    [24225,1532818053,57.1501,-111.7285,1535.1,1207.2,271.4,9.6,1.9,18.92,40.04,1.9123,381.5976],
    [24226,1532818054,57.1502,-111.7295,1538.7,1210.7,270.3,9.6,3.0,19.34,40.05,1.9127,379.6761],
    [24227,1532818055,57.1502,-111.7305,1541.0,1213.0,270.9,9.6,2.1,19.97,39.66,1.9096,380.8293],
    [24228,1532818056,57.1502,-111.7315,1542.3,1214.3,271.2,9.8,1.7,19.59,39.99,1.9096,381.1173],
    [24229,1532818057,57.1503,-111.7325,1543.2,1216.2,270.9,9.7,2.0,20.16,39.61,1.9111,380.9835],
    [24230,1532818058,57.1503,-111.7335,1544.7,1217.7,271.0,9.2,1.8,19.88,39.51,1.9109,380.0763],
    [24231,1532818059,57.1503,-111.7345,1546.3,1219.3,270.0,8.9,2.4,20.22,39.44,1.9082,379.6238],
    [24232,1532818060,57.1503,-111.7355,1548.5,1221.5,269.2,8.9,2.9,19.47,39.97,1.9089,379.6238],
    [24233,1532818061,57.1503,-111.7366,1550.1,1224.1,269.3,8.5,2.2,19.47,40.01,1.9088,381.9523],
    [24234,1532818062,57.1504,-111.7376,1550.8,1224.8,269.4,8.6,1.8,18.91,39.48,1.9099,381.2878],
    [24235,1532818063,57.1504,-111.7386,1550.8,1224.8,269.7,8.4,0.9,19.43,39.33,1.9112,380.9355],
    [24236,1532818064,57.1504,-111.7396,1550.6,1224.6,270.0,8.2,0.1,19.34,39.42,1.9112,380.9513],
    [24237,1532818065,57.1504,-111.7406,1550.7,1225.0,269.0,8.5,0.7,19.06,39.43,1.9121,381.0397],
    [24238,1532818066,57.1504,-111.7417,1550.7,1225.7,268.7,8.7,0.5,19.43,39.94,1.911,381.2723],
    [24239,1532818067,57.1503,-111.7427,1551.2,1226.2,268.2,8.3,0.7,19.26,40.43,1.9104,380.2864],
    [24240,1532818068,57.1503,-111.7438,1551.5,1226.4,268.2,8.1,0.3,18.96,39.56,1.9112,380.5419],
    [24241,1532818069,57.1503,-111.7448,1551.0,1225.0,268.8,7.5,-0.3,18.88,40.12,1.9129,380.3963],
    [24242,1532818070,57.1503,-111.7458,1550.1,1224.1,268.6,6.5,-0.1,19.82,39.74,1.9116,379.828],
    [24243,1532818071,57.1503,-111.7469,1548.7,1222.7,269.9,6.2,-1.0,19.36,39.88,1.9118,380.8647],
    [24244,1532818072,57.1503,-111.7479,1547.0,1221.2,269.3,6.0,0.4,19.76,39.68,1.9125,380.0771],
    [24245,1532818073,57.1503,-111.749,1544.7,1219.3,269.1,5.1,0.9,19.0,40.5,1.9122,379.9677],
    [24246,1532818074,57.1503,-111.75,1541.5,1217.2,269.7,4.5,0.8,19.49,40.22,1.9122,379.7387],
    [24247,1532818075,57.1503,-111.7511,1538.2,1217.7,269.2,4.1,1.7,18.86,40.35,1.912,379.2466],
    [24248,1532818076,57.1503,-111.7522,1534.8,1220.8,269.4,3.7,1.7,19.37,40.35,1.911,380.2982],
    [24249,1532818077,57.1503,-111.7533,1531.6,1224.3,269.2,2.9,2.0,18.99,40.9,1.9109,380.5831],
    [24250,1532818078,57.1503,-111.7544,1528.8,1231.9,268.8,2.2,2.4,19.2,40.41,1.9104,380.717],
    [24251,1532818079,57.1503,-111.7555,1526.2,1237.0,268.8,1.5,2.0,18.97,40.47,1.9105,381.2503],
    [24252,1532818080,57.1503,-111.7567,1523.9,1237.9,268.8,0.9,2.2,19.32,40.11,1.9123,380.9991],
    [24253,1532818081,57.1503,-111.7578,1522.2,1239.2,266.7,0.8,4.1,19.5,40.89,1.9126,380.9289],
    [24254,1532818082,57.1503,-111.759,1520.4,1240.4,268.0,0.4,1.8,19.97,39.85,1.9112,381.5425],
    [24255,1532818083,57.1503,-111.7601,1518.9,1242.0,268.5,-0.5,1.2,19.27,40.29,1.9116,381.2112],
    [24256,1532818084,57.1503,-111.7613,1517.9,1237.9,267.5,-0.1,1.5,19.85,40.02,1.9093,380.6536],
    [24257,1532818085,57.1503,-111.7624,1516.8,1235.7,270.0,-0.4,-1.3,19.39,40.95,1.9092,381.1896],
    [24258,1532818086,57.1503,-111.7636,1515.6,1233.1,268.9,-1.1,-0.1,19.82,39.7,1.9121,378.689],
    [24259,1532818087,57.1503,-111.7647,1515.0,1236.4,268.6,-0.8,0.2,19.31,40.17,1.9126,380.1471],
    [24260,1532818088,57.1503,-111.7659,1515.9,1236.9,268.7,0.5,0.8,19.0,40.6,1.9125,379.4762],
    [24261,1532818089,57.1502,-111.767,1517.6,1236.6,268.5,0.0,1.2,19.25,40.31,1.9104,380.2022],
    [24262,1532818090,57.1502,-111.7681,1519.3,1235.7,269.6,-0.1,0.4,19.21,41.06,1.9096,380.8181],
    [24263,1532818091,57.1502,-111.7693,1521.4,1235.6,270.0,-0.1,0.7,19.27,40.73,1.9101,381.5426],
    [24264,1532818092,57.1503,-111.7704,1525.1,1237.1,269.2,-0.5,2.5,19.21,40.74,1.9089,381.5426],
    [24265,1532818093,57.1503,-111.7715,1529.3,1239.1,270.0,-0.9,1.8,19.3,41.26,1.9075,381.2386],
    [24266,1532818094,57.1503,-111.7726,1533.4,1241.4,271.7,-0.7,0.6,19.92,39.92,1.9074,381.7534],
    [24267,1532818095,57.1503,-111.7737,1537.4,1246.4,271.1,0.1,1.6,19.53,39.78,1.9074,381.8069],
    [24268,1532818096,57.1503,-111.7748,1540.9,1249.9,272.1,-0.5,1.1,19.25,39.93,1.9069,381.7122],
    [24269,1532818097,57.1504,-111.7759,1543.4,1252.4,272.5,-1.0,1.0,19.4,39.54,1.9079,381.4944],
    [24270,1532818098,57.1504,-111.777,1544.4,1252.4,273.1,-1.4,0.7,19.11,39.48,1.9077,381.8316],
    [24271,1532818099,57.1505,-111.7781,1544.1,1249.1,273.3,-0.8,0.6,19.82,38.96,1.9083,380.7588],
    [24272,1532818100,57.1505,-111.7792,1543.8,1243.1,272.4,-0.7,1.4,19.73,38.79,1.9086,382.7268],
    [24273,1532818101,57.1505,-111.7803,1543.6,1235.6,272.6,-0.4,0.9,19.56,39.23,1.9081,382.2575],
    [24274,1532818102,57.1506,-111.7814,1543.8,1230.0,272.0,0.1,1.2,19.66,38.97,1.9074,381.813],
    [24275,1532818103,57.1506,-111.7825,1544.2,1223.8,271.3,0.6,1.6,19.29,39.14,1.9071,382.0484],
    [24276,1532818104,57.1506,-111.7836,1544.2,1219.3,271.2,0.1,1.5,18.8,39.38,1.9089,380.5113],
    [24277,1532818105,57.1506,-111.7847,1543.9,1217.2,270.8,0.1,1.8,18.51,39.15,1.9138,381.1901],
    [24278,1532818106,57.1507,-111.7858,1543.6,1216.6,271.0,-0.3,1.5,19.7,38.87,1.9126,380.6187],
    [24279,1532818107,57.1507,-111.7869,1543.6,1215.9,271.0,-0.5,1.2,18.62,39.49,1.9118,380.9682],
    [24280,1532818108,57.1507,-111.788,1543.6,1214.6,271.1,-1.3,1.0,19.04,39.58,1.912,380.1304],
    [24281,1532818109,57.1507,-111.7891,1543.5,1214.5,270.7,-0.6,0.8,19.21,39.71,1.9122,379.4467],
    [24282,1532818110,57.1507,-111.7902,1543.8,1214.8,269.7,-0.6,1.1,18.83,40.32,1.9131,378.3789],
    [24283,1532818111,57.1507,-111.7913,1544.7,1214.7,268.0,-0.4,2.0,19.73,40.42,1.9126,380.2298],
    [24284,1532818112,57.1507,-111.7924,1545.9,1215.9,267.7,-0.2,1.7,19.56,40.98,1.9116,380.2359],
    [24285,1532818113,57.1507,-111.7935,1547.4,1217.4,268.5,-0.1,0.8,19.35,41.38,1.9113,380.5468],
    [24286,1532818114,57.1507,-111.7946,1549.1,1219.1,268.2,0.1,1.2,18.94,41.77,1.9111,379.7328],
    [24287,1532818115,57.1507,-111.7957,1550.4,1219.4,268.0,0.0,1.3,19.71,41.19,1.9103,380.5719],
    [24288,1532818116,57.1507,-111.7968,1551.4,1220.4,268.3,0.3,1.0,18.92,41.83,1.9081,378.2782],
    [24289,1532818117,57.1507,-111.7979,1552.2,1221.2,267.8,0.9,1.3,19.21,42.23,1.9066,381.5762],
    [24290,1532818118,57.1507,-111.799,1552.3,1221.3,268.0,1.3,1.1,19.16,42.53,1.9061,381.1963],
    [24291,1532818119,57.1507,-111.8001,1551.8,1220.8,267.9,1.7,0.9,19.95,40.5,1.9057,381.8038],
    [24292,1532818120,57.1507,-111.8012,1551.0,1220.0,267.4,2.1,0.2,19.28,41.06,1.9059,381.4352],
    [24293,1532818121,57.1506,-111.8023,1550.2,1218.2,265.2,2.2,0.1,18.65,40.39,1.906,381.4352],
    [24294,1532818122,57.1505,-111.8034,1549.1,1217.1,261.8,2.4,-0.1,19.25,39.99,1.9068,381.4987],
    [24295,1532818123,57.1504,-111.8045,1547.9,1215.9,256.4,2.6,0.7,19.65,39.38,1.9077,381.3666],
    [24296,1532818124,57.1503,-111.8055,1547.0,1215.0,250.5,2.0,1.7,19.14,40.02,1.9078,380.7503],
    [24297,1532818125,57.1501,-111.8065,1547.3,1215.3,245.3,2.7,2.1,19.14,39.71,1.9092,381.2437],
    [24298,1532818126,57.1498,-111.8075,1548.6,1216.6,241.6,3.6,2.0,19.11,39.47,1.9104,381.0315],
    [24299,1532818127,57.1495,-111.8084,1550.2,1218.2,238.4,3.3,1.4,19.21,39.56,1.9109,380.0657],
    [24300,1532818128,57.1492,-111.8093,1551.4,1219.4,235.2,2.9,1.2,19.46,39.39,1.9107,379.6927],
    [24301,1532818129,57.1488,-111.8102,1552.7,1220.7,231.9,3.2,1.9,19.38,40.02,1.9106,380.0012],
    [24302,1532818130,57.1484,-111.811,1554.8,1222.8,229.2,3.1,1.9,19.21,40.46,1.9102,379.9166],
    [24303,1532818131,57.148,-111.8118,1558.6,1226.6,226.1,3.1,2.9,18.56,40.7,1.9099,380.0911],
    [24304,1532818132,57.1476,-111.8126,1563.6,1231.6,225.9,4.5,2.4,18.95,41.41,1.9103,380.0022],
    [24305,1532818133,57.1472,-111.8133,1567.7,1234.7,223.2,3.1,2.8,18.52,41.04,1.9125,380.484],
    [24306,1532818134,57.1468,-111.814,1571.7,1238.7,221.2,3.5,2.4,18.64,40.86,1.9094,380.0167],
    [24307,1532818135,57.1463,-111.8147,1574.8,1240.8,219.9,3.8,2.1,19.24,41.07,1.9095,380.0167],
    [24308,1532818136,57.1459,-111.8153,1576.5,1242.5,217.2,3.9,2.9,19.81,40.55,1.9089,380.5156],
    [24309,1532818137,57.1454,-111.8159,1577.4,1243.4,214.8,4.4,3.8,18.72,40.95,1.9101,380.3775],
    [24310,1532818138,57.1449,-111.8164,1577.9,1243.9,213.2,5.4,3.2,19.28,41.44,1.9084,380.1014],
    [24311,1532818139,57.1444,-111.817,1579.2,1245.2,210.5,5.1,3.8,18.81,41.06,1.909,379.9433],
    [24312,1532818140,57.1439,-111.8174,1580.9,1246.9,207.9,4.3,4.3,19.22,41.32,1.9082,380.4302],
    [24313,1532818141,57.1434,-111.8179,1582.0,1248.0,206.0,4.2,4.7,19.16,41.56,1.9088,381.5532],
    [24314,1532818142,57.1429,-111.8183,1582.6,1248.6,204.7,5.1,4.9,19.3,40.84,1.9076,380.7575],
    [24315,1532818143,57.1424,-111.8187,1583.0,1249.0,203.0,5.4,5.1,19.07,40.85,1.9076,380.7338],
    [24316,1532818144,57.1418,-111.819,1582.8,1248.8,199.6,3.8,5.4,19.13,40.8,1.9094,381.2821],
    [24317,1532818145,57.1413,-111.8193,1581.8,1247.8,197.6,4.0,5.1,19.08,41.01,1.9088,380.7677],
    [24318,1532818146,57.1408,-111.8196,1580.9,1246.9,195.6,3.9,5.2,19.32,40.15,1.9092,381.2273],
    [24319,1532818147,57.1402,-111.8198,1580.6,1245.6,192.8,3.1,5.8,19.24,40.21,1.9078,381.4838],
    [24320,1532818148,57.1396,-111.82,1580.0,1245.0,191.7,3.9,6.0,19.08,40.22,1.9055,381.604],
    [24321,1532818149,57.139,-111.8201,1580.8,1245.8,189.1,2.6,6.1,19.3,39.96,1.9094,380.4616],
    [24322,1532818150,57.1385,-111.8203,1581.8,1246.8,187.4,2.3,5.7,18.93,39.93,1.9072,381.462],
    [24323,1532818151,57.1379,-111.8204,1581.9,1246.9,187.5,3.6,5.1,19.88,39.59,1.9083,380.8088],
    [24324,1532818152,57.1373,-111.8204,1581.6,1246.6,185.2,2.4,5.3,19.12,39.99,1.9097,380.5678],
    [24325,1532818153,57.1367,-111.8205,1580.8,1245.8,183.9,2.4,6.5,18.86,40.03,1.9081,380.5675],
    [24326,1532818154,57.1362,-111.8205,1579.8,1244.8,182.8,2.6,6.7,19.24,40.56,1.9079,381.5008],
    [24327,1532818155,57.1356,-111.8205,1579.0,1244.0,181.2,2.1,6.5,18.64,39.99,1.908,382.0227],
    [24328,1532818156,57.135,-111.8205,1578.6,1243.6,180.5,2.5,6.2,18.97,39.89,1.9078,379.9776],
    [24329,1532818157,57.1344,-111.8205,1577.9,1242.9,180.6,3.2,6.0,19.55,39.17,1.907,381.5228],
    [24330,1532818158,57.1338,-111.8204,1577.2,1242.2,180.0,2.7,5.7,19.6,39.5,1.9064,381.5625],
    [24331,1532818159,57.1332,-111.8204,1576.5,1241.5,180.1,2.9,5.4,19.16,39.83,1.9087,381.6496],
    [24332,1532818160,57.1326,-111.8203,1575.4,1240.4,180.7,3.8,5.1,19.13,39.34,1.9068,381.2792],
    [24333,1532818161,57.132,-111.8203,1574.0,1239.0,182.5,5.5,4.6,18.81,39.35,1.9089,381.8367],
    [24334,1532818162,57.1314,-111.8203,1572.7,1237.7,182.7,5.3,4.9,19.21,39.58,1.9085,381.2449],
    [24335,1532818163,57.1308,-111.8202,1571.6,1236.1,182.8,5.2,4.9,18.61,39.25,1.9068,381.34],
    [24336,1532818164,57.1302,-111.8202,1570.3,1234.6,183.3,5.5,5.1,19.37,39.01,1.9085,380.7684],
    [24337,1532818165,57.1296,-111.8202,1570.0,1234.3,182.8,4.6,5.4,19.62,38.54,1.9088,380.4611],
    [24338,1532818166,57.1289,-111.8202,1570.4,1234.4,182.4,4.0,5.6,19.09,39.0,1.9081,381.2762],
    [24339,1532818167,57.1283,-111.8202,1570.6,1234.6,183.9,5.5,5.7,19.21,39.17,1.9083,379.6408],
    [24340,1532818168,57.1277,-111.8202,1571.6,1236.6,184.0,4.8,5.8,18.95,39.3,1.9087,381.481],
    [24341,1532818169,57.1271,-111.8202,1573.3,1238.3,180.8,0.4,6.3,19.01,39.39,1.9088,380.059],
    [24342,1532818170,57.1265,-111.8202,1576.1,1241.1,181.3,0.8,6.7,18.9,39.48,1.9098,381.0828],
    [24343,1532818171,57.1259,-111.8202,1579.2,1244.2,182.6,1.7,6.6,18.48,39.53,1.9102,381.4529],
    [24344,1532818172,57.1253,-111.8202,1582.8,1247.8,182.0,1.1,6.8,19.07,39.51,1.9103,379.817],
    [24345,1532818173,57.1247,-111.8203,1585.6,1251.6,182.6,1.7,6.9,19.45,39.35,1.9087,380.6365],
    [24346,1532818174,57.1241,-111.8203,1587.6,1253.7,182.5,1.4,6.9,19.17,40.01,1.9079,380.3463],
    [24347,1532818175,57.1235,-111.8203,1589.6,1254.6,181.4,0.5,7.3,19.31,39.58,1.9114,380.3089],
    [24348,1532818176,57.123,-111.8203,1591.6,1256.6,181.2,0.6,7.5,19.05,40.71,1.9097,380.4803],
    [24349,1532818177,57.1223,-111.8203,1593.1,1258.1,180.9,0.7,7.4,19.83,39.36,1.9093,380.6932],
    [24350,1532818178,57.1218,-111.8203,1593.8,1258.8,181.2,1.2,7.3,18.81,40.04,1.9083,380.8508],
    [24351,1532818179,57.1211,-111.8203,1593.7,1258.7,181.1,1.4,7.2,19.5,39.58,1.9084,380.7993],
    [24352,1532818180,57.1205,-111.8203,1593.5,1258.5,181.5,2.5,6.9,19.32,40.18,1.9077,381.1889],
    [24353,1532818181,57.1199,-111.8203,1592.7,1257.7,182.6,4.2,6.9,20.2,39.67,1.9053,381.0065],
    [24354,1532818182,57.1193,-111.8203,1591.8,1257.8,182.1,3.7,6.1,19.55,39.75,1.9045,381.2633],
    [24355,1532818183,57.1187,-111.8203,1591.9,1257.9,181.0,3.0,5.5,18.45,39.9,1.9064,381.5634],
    [24356,1532818184,57.1181,-111.8203,1591.8,1258.8,181.0,3.4,5.2,19.23,39.39,1.9083,380.0139],
    [24357,1532818185,57.1175,-111.8202,1592.0,1259.2,180.0,2.8,4.9,19.32,39.76,1.9085,382.4514],
    [24358,1532818186,57.1169,-111.8202,1591.8,1259.3,180.5,3.8,4.7,19.46,38.9,1.9094,380.9284],
    [24359,1532818187,57.1162,-111.8201,1590.9,1259.0,180.9,3.9,5.1,19.98,38.6,1.908,381.2547],
    [24360,1532818188,57.1156,-111.8201,1590.1,1257.4,181.1,3.9,5.2,19.32,39.1,1.9061,381.1524],
    [24361,1532818189,57.115,-111.82,1589.4,1256.7,182.5,4.7,4.9,19.25,38.96,1.9058,380.7344],
    [24362,1532818190,57.1144,-111.82,1588.0,1255.3,182.1,3.4,4.9,19.78,38.29,1.9075,380.1602],
    [24363,1532818191,57.1138,-111.82,1586.0,1253.0,182.8,3.7,4.5,19.49,38.9,1.9067,380.1466],
    [24364,1532818192,57.1131,-111.82,1584.1,1251.1,183.5,3.9,4.0,19.55,38.53,1.9091,381.0077],
    [24365,1532818193,57.1125,-111.82,1581.9,1248.9,184.9,5.1,3.9,20.21,38.15,1.9119,380.3977],
    [24366,1532818194,57.1119,-111.8201,1580.1,1247.1,185.7,5.4,3.6,19.18,38.7,1.9099,381.3415],
    [24367,1532818195,57.1112,-111.8201,1578.2,1245.2,185.2,4.5,3.7,19.34,39.15,1.9084,380.5623],
    [24368,1532818196,57.1106,-111.8201,1576.4,1243.4,185.5,4.3,3.6,19.35,39.5,1.9083,380.5549],
    [24369,1532818197,57.11,-111.8202,1575.2,1241.2,185.2,4.1,3.9,19.94,38.48,1.9068,380.9968],
    [24370,1532818198,57.1094,-111.8202,1574.2,1240.2,186.4,5.4,3.7,19.06,39.22,1.9078,379.8886],
    [24371,1532818199,57.1087,-111.8203,1573.5,1239.5,185.8,4.7,3.5,18.96,38.99,1.9077,380.1571],
    [24372,1532818200,57.1081,-111.8203,1572.8,1238.8,186.2,5.0,2.6,19.58,39.48,1.9062,380.4444],
    [24373,1532818201,57.1075,-111.8204,1572.3,1238.3,186.1,4.4,1.6,19.54,39.53,1.9077,379.8392],
    [24374,1532818202,57.1068,-111.8204,1571.8,1236.8,186.3,4.4,0.5,19.56,39.67,1.909,379.777],
    [24375,1532818203,57.1062,-111.8205,1571.1,1236.1,186.9,4.7,-0.5,18.98,38.82,1.9078,379.8865],
    [24376,1532818204,57.1056,-111.8206,1570.2,1235.2,186.4,4.5,-1.1,19.24,38.69,1.906,380.9721],
    [24377,1532818205,57.1049,-111.8206,1569.1,1234.1,185.3,4.0,-1.4,19.71,39.26,1.9061,379.5444],
    [24378,1532818206,57.1043,-111.8206,1567.8,1232.8,184.6,4.2,-1.6,19.54,38.89,1.9063,380.1784],
    [24379,1532818207,57.1037,-111.8206,1566.2,1230.2,184.3,4.4,-2.2,19.65,39.23,1.908,381.6604],
    [24380,1532818208,57.103,-111.8207,1564.2,1228.2,184.2,4.7,-3.0,19.64,39.28,1.9067,380.4297],
    [24381,1532818209,57.1024,-111.8207,1562.5,1226.5,183.9,4.4,-3.6,19.84,38.39,1.905,380.9775],
    [24382,1532818210,57.1018,-111.8207,1560.6,1224.6,183.9,4.2,-4.3,20.19,37.93,1.9066,380.0724],
    [24383,1532818211,57.1011,-111.8207,1558.8,1222.8,184.6,4.4,-5.0,19.56,38.47,1.9079,380.4139],
    [24384,1532818212,57.1005,-111.8207,1556.8,1219.8,184.5,3.7,-5.8,20.2,37.88,1.9104,379.5913],
    [24385,1532818213,57.0999,-111.8207,1554.9,1217.2,184.7,3.5,-6.8,19.53,38.51,1.9111,379.4187],
    [24386,1532818214,57.0992,-111.8207,1552.8,1214.8,185.4,3.9,-7.6,19.62,39.38,1.9111,378.7139],
    [24387,1532818215,57.0986,-111.8208,1550.5,1212.5,185.3,3.4,-7.3,19.36,39.38,1.9099,379.6936],
    [24388,1532818216,57.0979,-111.8208,1548.4,1210.4,185.6,3.4,-6.8,20.35,39.17,1.9107,380.0415],
    [24389,1532818217,57.0973,-111.8209,1546.2,1208.2,186.3,3.6,-6.0,19.49,40.1,1.9093,380.3559],
    [24390,1532818218,57.0966,-111.821,1543.9,1205.9,186.5,3.3,-5.7,19.51,40.42,1.9072,380.3033],
    [24391,1532818219,57.096,-111.821,1541.8,1203.8,187.1,3.3,-5.9,19.84,40.2,1.9058,379.9212],
    [24392,1532818220,57.0954,-111.8211,1539.7,1200.7,187.6,3.4,-5.9,19.27,40.19,1.9039,380.466],
    [24393,1532818221,57.0947,-111.8212,1537.7,1198.7,187.7,3.3,-6.1,19.63,40.24,1.904,381.3718],
    [24394,1532818222,57.0941,-111.8213,1535.4,1195.7,188.4,3.8,-6.4,19.66,40.29,1.9064,381.7791],
    [24395,1532818223,57.0935,-111.8214,1533.0,1193.0,188.6,3.5,-6.5,19.74,38.9,1.9073,380.9486],
    [24396,1532818224,57.0928,-111.8215,1530.3,1190.3,188.9,3.6,-6.8,19.7,38.81,1.9069,380.5848],
    [24397,1532818225,57.0922,-111.8216,1527.5,1187.5,189.4,4.1,-7.1,19.01,39.06,1.9073,379.8442],
    [24398,1532818226,57.0915,-111.8217,1525.7,1184.7,188.0,3.1,-7.0,19.58,38.85,1.9095,380.4052],
    [24399,1532818227,57.0908,-111.8218,1524.5,1183.5,187.4,3.2,-6.9,19.81,39.19,1.9093,381.5428],
    [24400,1532818228,57.0902,-111.8219,1524.1,1183.1,187.1,3.3,-7.1,19.43,39.39,1.9101,380.2337],
    [24401,1532818229,57.0896,-111.822,1523.7,1183.7,185.8,2.7,-7.4,19.48,39.48,1.9106,380.747],
    [24402,1532818230,57.0889,-111.822,1522.8,1182.8,186.3,3.5,-7.7,19.39,39.71,1.9085,381.3827],
    [24403,1532818231,57.0883,-111.8221,1522.0,1181.3,186.2,3.4,-7.9,19.49,39.99,1.9087,381.2254],
    [24404,1532818232,57.0876,-111.8221,1521.2,1180.2,186.7,3.9,-7.6,20.0,39.63,1.9101,381.2254],
    [24405,1532818233,57.087,-111.8222,1520.2,1178.2,186.8,3.7,-7.9,19.53,40.76,1.9108,380.9638],
    [24406,1532818234,57.0863,-111.8223,1518.7,1176.7,187.1,3.9,-8.4,18.76,40.59,1.9091,381.7739],
    [24407,1532818235,57.0857,-111.8223,1517.7,1175.7,186.1,3.3,-8.4,19.46,40.48,1.9075,379.3938],
    [24408,1532818236,57.085,-111.8224,1516.4,1174.4,186.1,3.5,-7.9,19.22,40.88,1.9091,379.3938],
    [24409,1532818237,57.0844,-111.8224,1515.2,1173.2,185.6,3.1,-7.3,18.93,40.87,1.9083,380.1658],
    [24410,1532818238,57.0837,-111.8225,1513.6,1171.6,186.0,3.6,-7.0,19.09,41.59,1.9082,380.0269],
    [24411,1532818239,57.0831,-111.8225,1512.0,1170.0,186.3,3.9,-6.8,19.24,41.02,1.9085,380.0475],
    [24412,1532818240,57.0824,-111.8226,1510.9,1167.9,185.5,3.1,-6.1,18.96,41.1,1.9077,382.4362],
    [24413,1532818241,57.0818,-111.8227,1509.9,1166.9,185.9,3.9,-5.2,19.66,40.8,1.9098,382.4362],
    [24414,1532818242,57.0812,-111.8227,1510.1,1167.1,185.0,3.8,-4.5,19.07,41.2,1.9112,380.7985],
    [24415,1532818243,57.0805,-111.8227,1512.8,1169.8,184.1,3.7,-3.9,18.8,41.14,1.9087,381.7034],
    [24416,1532818244,57.0799,-111.8227,1517.7,1174.7,183.8,4.3,-2.9,18.97,41.06,1.9083,380.3523],
    [24417,1532818245,57.0793,-111.8227,1522.9,1179.0,183.3,4.5,-1.9,18.84,41.48,1.9085,378.8283],
    [24418,1532818246,57.0786,-111.8227,1527.7,1183.7,182.8,4.6,-0.9,19.11,42.07,1.9095,379.6458],
    [24419,1532818247,57.078,-111.8227,1531.8,1187.8,182.0,4.3,0.6,19.65,40.91,1.9108,381.3811],
    [24420,1532818248,57.0774,-111.8226,1535.7,1191.7,181.4,4.2,0.7,18.94,41.36,1.9122,380.178],
    [24421,1532818249,57.0769,-111.8226,1538.9,1194.9,181.1,3.9,0.5,19.05,41.71,1.9113,378.1822],
    [24422,1532818250,57.0762,-111.8226,1541.6,1197.6,180.6,3.4,1.1,19.19,42.68,1.9112,379.4198],
    [24423,1532818251,57.0757,-111.8225,1543.9,1198.9,181.3,4.0,1.5,18.75,42.6,1.9111,379.3164],
    [24424,1532818252,57.0751,-111.8225,1545.5,1200.5,181.5,4.1,2.1,19.45,42.81,1.9111,379.5023],
    [24425,1532818253,57.0745,-111.8224,1547.7,1202.7,181.3,4.0,3.1,19.27,43.34,1.912,377.759],
    [24426,1532818254,57.0739,-111.8224,1551.5,1206.5,181.6,4.2,3.7,19.85,42.92,1.9106,377.7569],
    [24427,1532818255,57.0733,-111.8224,1555.3,1209.5,181.8,4.4,3.9,19.23,43.85,1.9107,378.1841],
    [24428,1532818256,57.0727,-111.8223,1558.2,1212.2,181.5,3.9,4.1,19.27,43.78,1.9094,378.9533],
    [24429,1532818257,57.0721,-111.8223,1561.3,1215.3,180.2,2.3,4.7,19.11,44.76,1.9111,378.6001],
    [24430,1532818258,57.0716,-111.8223,1564.4,1218.4,179.5,1.8,4.9,19.71,43.84,1.9085,379.0969],
    [24431,1532818259,57.071,-111.8222,1566.2,1220.2,179.9,2.1,4.5,18.98,44.46,1.91,379.0969],
    [24432,1532818260,57.0704,-111.8222,1568.0,1221.0,179.5,1.7,3.7,19.37,44.16,1.9095,378.0101],
    [24433,1532818261,57.0698,-111.8221,1569.7,1222.7,180.5,2.8,3.4,19.43,44.76,1.9089,378.0759],
    [24434,1532818262,57.0692,-111.8221,1570.4,1223.4,181.7,3.9,3.6,18.97,44.48,1.911,378.7726],
    [24435,1532818263,57.0686,-111.8221,1571.1,1224.1,182.0,4.1,3.8,18.66,44.7,1.9087,379.8488],
    [24436,1532818264,57.068,-111.822,1571.7,1223.7,182.1,4.3,4.4,19.82,43.89,1.9073,379.8608],
    [24437,1532818265,57.0675,-111.822,1572.4,1224.4,181.7,4.0,4.5,19.07,43.87,1.9081,379.7383],
    [24438,1532818266,57.0669,-111.822,1573.2,1224.2,181.2,3.6,4.4,18.75,44.39,1.9078,378.7183],
    [24439,1532818267,57.0663,-111.8219,1573.9,1224.9,180.9,3.5,4.8,18.67,43.73,1.908,379.2356],
    [24440,1532818268,57.0657,-111.8219,1574.9,1225.9,180.6,3.4,4.9,18.53,43.38,1.9077,379.6261],
    [24441,1532818269,57.0652,-111.8219,1576.5,1226.5,180.2,3.2,4.9,19.13,43.51,1.9098,378.7525],
    [24442,1532818270,57.0646,-111.8218,1578.3,1228.3,180.3,3.3,4.9,19.86,42.42,1.9107,378.4362],
    [24443,1532818271,57.064,-111.8218,1580.0,1230.0,179.7,2.7,4.6,19.3,42.77,1.9098,378.461],
    [24444,1532818272,57.0634,-111.8217,1581.4,1231.4,179.6,3.0,4.7,18.77,42.98,1.9118,377.9749],
    [24445,1532818273,57.0629,-111.8216,1582.3,1232.3,179.7,3.3,5.2,18.98,43.03,1.9143,377.1173],
    [24446,1532818274,57.0623,-111.8216,1582.9,1232.9,179.1,2.6,4.9,18.99,43.21,1.912,377.1173],
    [24447,1532818275,57.0617,-111.8215,1583.4,1233.4,178.7,2.0,4.3,19.34,42.9,1.9105,379.3815],
    [24448,1532818276,57.0612,-111.8215,1583.6,1233.6,180.3,3.2,4.0,19.39,43.45,1.9077,378.6561],
    [24449,1532818277,57.0606,-111.8214,1583.4,1233.4,180.9,3.0,3.4,19.18,43.74,1.9074,379.6207],
    [24450,1532818278,57.06,-111.8214,1583.1,1233.1,180.6,2.5,2.9,19.19,44.09,1.909,379.6207],
    [24451,1532818279,57.0595,-111.8214,1582.2,1232.2,180.6,2.2,3.0,19.11,43.72,1.9085,379.451],
    [24452,1532818280,57.0589,-111.8214,1580.8,1230.8,180.8,2.2,2.2,19.16,43.91,1.9085,378.1544],
    [24453,1532818281,57.0583,-111.8213,1579.1,1229.1,182.0,3.2,1.5,18.94,43.71,1.9084,378.9662],
    [24454,1532818282,57.0577,-111.8213,1577.6,1227.6,182.6,3.7,1.8,19.56,43.12,1.9092,379.4916],
    [24455,1532818283,57.0571,-111.8213,1575.8,1225.8,183.0,3.9,1.5,19.22,43.46,1.909,378.8532],
    [24456,1532818284,57.0565,-111.8213,1573.9,1223.9,183.0,3.6,1.5,19.17,43.51,1.9092,379.1583],
    [24457,1532818285,57.0559,-111.8213,1572.2,1222.2,183.2,3.8,1.4,18.68,43.47,1.9089,379.6748],
    [24458,1532818286,57.0553,-111.8213,1570.3,1220.3,183.8,4.4,0.9,19.2,43.59,1.9081,379.6748],
    [24459,1532818287,57.0547,-111.8213,1569.0,1218.0,183.3,3.6,1.0,19.24,43.69,1.908,379.4108],
    [24460,1532818288,57.0541,-111.8213,1568.5,1217.5,183.5,4.0,0.8,18.87,43.53,1.9102,377.9682],
    [24461,1532818289,57.0535,-111.8213,1568.7,1217.7,183.5,3.7,0.3,19.48,43.3,1.9117,377.9682],
    [24462,1532818290,57.0529,-111.8213,1568.6,1217.6,182.7,3.0,0.6,19.26,43.99,1.9089,379.3871],
    [24463,1532818291,57.0523,-111.8213,1568.7,1217.7,183.2,3.6,1.0,19.11,44.37,1.9088,380.5312],
    [24464,1532818292,57.0517,-111.8213,1568.8,1217.8,182.7,2.7,1.3,18.48,43.96,1.9089,379.1522],
    [24465,1532818293,57.0511,-111.8213,1568.7,1216.7,181.7,1.6,1.2,19.09,43.98,1.9088,379.1068],
    [24466,1532818294,57.0505,-111.8214,1568.2,1216.2,182.6,2.6,0.7,18.87,43.89,1.909,378.7658],
    [24467,1532818295,57.0499,-111.8214,1567.6,1215.6,182.9,3.0,0.9,19.16,44.16,1.9096,378.8694],
    [24468,1532818296,57.0493,-111.8214,1567.5,1215.5,181.8,1.6,0.7,19.04,43.88,1.9108,377.8889],
    [24469,1532818297,57.0487,-111.8214,1567.8,1215.8,182.3,2.0,0.2,18.82,44.09,1.9093,377.179],
    [24470,1532818298,57.0481,-111.8214,1568.0,1215.0,183.2,2.8,-0.1,19.14,44.04,1.9094,377.179],
    [24471,1532818299,57.0475,-111.8214,1568.0,1215.0,183.1,2.6,-0.7,19.82,43.52,1.9096,377.4427],
    [24472,1532818300,57.0468,-111.8214,1568.1,1215.1,182.6,2.2,-1.5,18.54,44.28,1.9099,378.0299],
    [24473,1532818301,57.0462,-111.8214,1568.3,1215.3,182.9,2.5,-1.9,19.47,44.26,1.9091,377.7174],
    [24474,1532818302,57.0456,-111.8215,1568.9,1215.9,182.3,2.1,-2.6,18.81,44.59,1.9095,377.2798],
    [24475,1532818303,57.045,-111.8215,1569.7,1216.7,183.3,3.1,-3.2,19.07,44.34,1.9097,377.8882],
    [24476,1532818304,57.0443,-111.8215,1570.2,1217.2,183.1,2.8,-3.3,19.19,44.71,1.9085,378.8951],
    [24477,1532818305,57.0437,-111.8215,1570.1,1217.1,183.7,3.9,-4.0,18.75,44.94,1.9074,378.4761],
    [24478,1532818306,57.0431,-111.8215,1569.7,1216.7,184.0,4.5,-4.2,18.98,44.97,1.9073,377.0897],
    [24479,1532818307,57.0425,-111.8215,1569.8,1216.8,183.0,3.9,-3.3,19.07,45.5,1.9082,378.2307],
    [24480,1532818308,57.0418,-111.8215,1570.0,1216.7,184.0,5.4,-2.2,18.63,45.07,1.9068,378.754],
    [24481,1532818309,57.0412,-111.8215,1570.6,1215.6,183.8,4.7,-1.8,18.75,45.19,1.9055,378.6346],
    [24482,1532818310,57.0406,-111.8215,1571.9,1215.2,182.4,3.3,-1.7,19.16,44.74,1.9061,379.8109],
    [24483,1532818311,57.04,-111.8215,1573.4,1215.4,183.4,4.2,-1.0,19.04,44.88,1.906,378.5647],
    [24484,1532818312,57.0394,-111.8215,1575.2,1217.2,184.0,4.7,-0.6,19.67,43.45,1.9051,378.2601],
    [24485,1532818313,57.0388,-111.8215,1577.2,1219.2,184.3,4.9,-0.9,19.3,43.68,1.9063,379.3277],
    [24486,1532818314,57.0382,-111.8215,1579.7,1221.7,184.2,4.1,-0.6,18.85,43.63,1.9063,378.9645],
    [24487,1532818315,57.0376,-111.8215,1582.1,1224.1,182.3,1.8,-0.8,18.98,43.95,1.9069,379.0201],
    [24488,1532818316,57.037,-111.8215,1585.0,1226.7,182.7,2.6,-1.2,18.39,43.52,1.9062,378.6113],
    [24489,1532818317,57.0364,-111.8215,1589.2,1230.2,182.8,2.8,-0.8,19.07,43.22,1.907,378.6113],
    [24490,1532818318,57.0358,-111.8215,1592.4,1233.4,182.3,2.7,-0.5,18.56,43.66,1.9055,378.8404],
    [24491,1532818319,57.0352,-111.8215,1594.8,1235.8,183.6,3.6,-1.2,19.29,43.38,1.9062,379.2534],
    [24492,1532818320,57.0346,-111.8215,1596.6,1237.6,184.2,4.0,-1.6,18.64,43.62,1.9063,378.4405],
    [24493,1532818321,57.034,-111.8215,1596.7,1236.7,185.0,4.4,-1.9,19.59,43.1,1.9057,378.4405],
    [24494,1532818322,57.0334,-111.8216,1596.2,1236.2,185.2,4.0,-2.4,18.86,43.79,1.9063,379.1686],
    [24495,1532818323,57.0328,-111.8216,1595.7,1235.7,186.0,4.2,-3.0,19.03,43.56,1.9059,378.7903],
    [24496,1532818324,57.0323,-111.8216,1594.5,1234.5,186.9,4.4,-3.4,18.9,43.41,1.9063,378.4032],
    [24497,1532818325,57.0317,-111.8217,1593.1,1233.1,187.1,3.9,-3.8,19.33,42.83,1.906,377.7541],
    [24498,1532818326,57.0311,-111.8218,1590.4,1230.4,187.6,3.7,-4.3,18.76,43.78,1.9049,380.9465],
    [24499,1532818327,57.0305,-111.8218,1588.2,1228.2,187.7,3.1,-4.3,18.77,43.82,1.9049,377.9486],
    [24500,1532818328,57.0299,-111.8219,1586.9,1227.1,187.3,2.6,-4.0,18.86,43.56,1.906,378.5738],
    [24501,1532818329,57.0293,-111.822,1585.6,1225.6,187.9,2.8,-4.6,18.67,43.36,1.9053,379.8015],
    [24502,1532818330,57.0287,-111.8221,1584.7,1225.7,187.0,1.9,-4.3,18.91,43.17,1.9065,379.9506],
    [24503,1532818331,57.0281,-111.8222,1583.9,1224.9,187.0,2.6,-5.1,18.93,43.18,1.9062,379.9506],
    [24504,1532818332,57.0275,-111.8223,1583.7,1225.2,186.2,3.3,-5.6,18.7,43.19,1.9042,379.6451],
    [24505,1532818333,57.0269,-111.8223,1583.6,1230.7,182.5,1.8,-5.7,18.69,43.58,1.9054,379.621],
    [24506,1532818334,57.0263,-111.8223,1582.6,1233.3,181.0,2.5,-6.6,18.81,43.76,1.9042,379.829],
    [24507,1532818335,57.0257,-111.8223,1582.1,1238.1,178.7,1.8,-7.3,18.73,43.15,1.9043,379.829],
    [24508,1532818336,57.0251,-111.8222,1582.4,1242.1,177.5,1.8,-7.3,19.47,42.15,1.9046,378.2769],
    [24509,1532818337,57.0245,-111.8221,1583.2,1247.2,178.3,2.6,-7.4,18.87,42.68,1.9041,380.8267],
    [24510,1532818338,57.0238,-111.8221,1585.0,1253.0,177.0,1.3,-8.0,19.23,42.32,1.9023,381.0422],
    [24511,1532818339,57.0232,-111.822,1587.0,1256.0,178.2,1.8,-8.5,18.14,42.8,1.9042,379.3801],
    [24512,1532818340,57.0226,-111.8219,1589.8,1259.6,179.2,1.5,-8.2,19.69,41.87,1.9029,378.6758],
    [24513,1532818341,57.022,-111.8219,1593.3,1263.4,179.9,1.6,-7.8,18.87,41.97,1.9045,380.5731],
    [24514,1532818342,57.0214,-111.8219,1597.1,1266.5,180.8,2.0,-7.7,18.22,41.9,1.9034,379.7624],
    [24515,1532818343,57.0208,-111.8219,1601.0,1268.9,180.4,1.5,-7.4,18.47,42.45,1.9061,380.4915],
    [24516,1532818344,57.0202,-111.8218,1604.6,1270.9,180.6,1.6,-6.9,19.16,41.72,1.9061,381.0456],
    [24517,1532818345,57.0196,-111.8218,1607.3,1270.7,181.3,2.1,-7.3,18.77,42.82,1.906,381.0456],
    [24518,1532818346,57.019,-111.8218,1609.5,1266.1,181.8,2.4,-7.9,18.49,43.58,1.905,379.2304],
    [24519,1532818347,57.0184,-111.8218,1611.6,1259.8,182.2,2.8,-8.5,18.26,43.01,1.9059,378.9163],
    [24520,1532818348,57.0177,-111.8218,1613.3,1252.0,182.1,2.9,-8.9,18.56,42.79,1.9042,380.8824],
    [24521,1532818349,57.0171,-111.8218,1615.9,1251.9,180.9,2.6,-8.8,18.54,43.14,1.9057,378.0484],
    [24522,1532818350,57.0165,-111.8217,1618.7,1253.7,181.4,4.1,-9.5,18.49,42.64,1.9069,379.3033],
    [24523,1532818351,57.0159,-111.8217,1620.4,1255.4,180.4,3.5,-9.4,18.56,42.84,1.9062,379.6948],
    [24524,1532818352,57.0153,-111.8216,1622.4,1257.4,178.0,2.5,-8.7,18.25,43.41,1.9052,380.0605],
    [24525,1532818353,57.0148,-111.8216,1624.2,1259.2,179.9,4.0,-8.6,18.35,43.63,1.9055,379.657],
    [24526,1532818354,57.0142,-111.8215,1625.1,1259.1,179.6,3.1,-8.7,18.31,44.6,1.9062,378.8188],
    [24527,1532818355,57.0136,-111.8214,1625.4,1259.4,180.7,3.5,-9.1,18.99,43.89,1.9066,379.3634],
    [24528,1532818356,57.013,-111.8214,1625.5,1259.5,182.9,4.3,-9.0,18.91,44.1,1.9059,378.9172],
    [24529,1532818357,57.0124,-111.8214,1625.9,1259.9,183.7,4.0,-8.5,18.33,44.62,1.9042,379.2129],
    [24530,1532818358,57.0118,-111.8214,1627.2,1261.2,184.9,3.5,-8.2,18.58,44.5,1.9032,380.3812],
    [24531,1532818359,57.0112,-111.8214,1629.3,1263.3,186.0,2.7,-8.4,18.22,44.65,1.9034,380.1752],
    [24532,1532818360,57.0107,-111.8215,1630.7,1264.7,187.9,2.5,-8.3,18.99,43.97,1.9032,378.651],
    [24533,1532818361,57.0101,-111.8216,1631.6,1264.6,191.4,2.9,-8.2,18.42,44.26,1.9016,380.1751],
    [24534,1532818362,57.0095,-111.8218,1633.2,1265.5,194.8,2.9,-7.9,18.21,44.36,1.9033,379.7688],
    [24535,1532818363,57.009,-111.822,1635.4,1267.4,197.6,2.4,-7.4,18.2,44.07,1.9042,380.2296],
    [24536,1532818364,57.0084,-111.8223,1637.5,1269.5,201.0,2.9,-7.0,18.15,44.12,1.9028,380.3327],
    [24537,1532818365,57.0079,-111.8226,1640.1,1272.1,203.9,3.1,-6.7,18.11,43.35,1.9035,380.352],
    [24538,1532818366,57.0073,-111.8229,1643.7,1275.0,205.9,3.1,-6.1,18.02,42.97,1.9028,381.6689],
    [24539,1532818367,57.0068,-111.8233,1646.8,1277.8,206.5,2.6,-5.0,18.44,42.88,1.9038,381.3734],
    [24540,1532818368,57.0063,-111.8237,1649.5,1280.5,206.9,2.2,-4.7,18.39,43.11,1.9044,379.9062],
    [24541,1532818369,57.0058,-111.8241,1651.9,1282.0,208.6,2.5,-5.0,18.16,43.94,1.9051,380.0165],
    [24542,1532818370,57.0053,-111.8245,1655.2,1285.2,208.6,1.9,-4.4,17.69,43.58,1.9055,380.3713],
    [24543,1532818371,57.0049,-111.8249,1658.5,1288.5,209.2,2.2,-4.0,18.67,43.25,1.9077,379.897],
    [24544,1532818372,57.0044,-111.8254,1661.5,1291.4,209.7,2.3,-3.9,17.75,44.05,1.9058,378.9775],
    [24545,1532818373,57.0039,-111.8258,1664.1,1293.1,209.4,2.0,-3.6,17.46,44.45,1.9061,378.9775],
    [24546,1532818374,57.0034,-111.8262,1666.5,1295.6,209.4,1.7,-3.7,18.58,43.96,1.9065,380.3713],
    [24547,1532818375,57.0029,-111.8267,1668.9,1297.9,208.7,1.0,-3.4,17.55,44.67,1.905,379.0373],
    [24548,1532818376,57.0024,-111.8271,1671.5,1300.4,208.8,1.2,-3.2,17.84,44.87,1.9054,379.8125],
    [24549,1532818377,57.002,-111.8275,1673.6,1302.6,210.9,2.7,-3.7,17.92,44.93,1.9058,380.5678],
    [24550,1532818378,57.0015,-111.828,1675.8,1304.7,211.0,2.5,-3.6,17.81,45.36,1.9057,380.1967],
    [24551,1532818379,57.001,-111.8284,1678.5,1307.4,210.8,2.4,-3.3,17.87,45.28,1.9057,377.7388],
    [24552,1532818380,57.0006,-111.8288,1681.6,1310.8,210.6,2.7,-2.9,17.44,45.36,1.9053,378.9101],
    [24553,1532818381,57.0001,-111.8292,1684.2,1312.9,210.8,3.3,-2.6,18.1,44.99,1.9057,379.8664],
    [24554,1532818382,56.9996,-111.8297,1686.0,1315.1,210.9,3.5,-2.9,17.87,46.12,1.9051,379.8664],
    [24555,1532818383,56.9992,-111.8301,1687.9,1316.9,210.4,3.7,-1.9,17.42,45.84,1.9052,380.3921],
    [24556,1532818384,56.9987,-111.8305,1690.0,1319.0,209.6,3.8,-0.7,17.77,45.89,1.9072,379.9004],
    [24557,1532818385,56.9983,-111.8309,1692.3,1321.3,209.2,3.8,-0.4,17.79,45.87,1.9051,378.6326],
    [24558,1532818386,56.9978,-111.8313,1694.8,1323.8,209.3,4.0,-0.1,17.71,45.95,1.9049,379.8124],
    [24559,1532818387,56.9973,-111.8317,1697.0,1326.0,209.7,4.4,0.1,17.72,46.17,1.9059,377.6845],
    [24560,1532818388,56.9969,-111.8321,1699.4,1328.4,209.9,4.7,0.2,17.72,46.5,1.9064,379.779],
    [24561,1532818389,56.9964,-111.8325,1701.9,1331.6,210.4,5.3,0.5,18.2,45.52,1.9051,379.7773],
    [24562,1532818390,56.996,-111.8329,1704.4,1334.4,210.1,5.1,0.8,17.81,45.93,1.9049,379.616],
    [24563,1532818391,56.9956,-111.8333,1706.9,1336.9,209.8,5.0,1.0,18.06,45.75,1.9052,379.9145],
    [24564,1532818392,56.9951,-111.8337,1709.1,1339.1,209.5,4.9,1.2,17.56,46.29,1.9051,381.0151],
    [24565,1532818393,56.9947,-111.8341,1711.0,1341.0,209.5,5.0,1.0,18.14,45.95,1.9044,379.8251],
    [24566,1532818394,56.9942,-111.8345,1713.1,1343.1,209.3,5.0,1.7,18.03,45.98,1.9048,380.3198],
    [24567,1532818395,56.9938,-111.8349,1715.2,1345.2,208.4,4.4,2.1,16.91,46.17,1.9048,379.0898],
    [24568,1532818396,56.9934,-111.8352,1717.2,1348.2,207.7,4.0,2.4,17.33,45.7,1.9049,380.0343],
    [24569,1532818397,56.9929,-111.8356,1719.6,1350.6,207.1,3.7,3.0,17.63,46.27,1.9041,379.8564],
    [24570,1532818398,56.9925,-111.836,1723.4,1354.4,206.3,3.1,4.0,17.5,45.65,1.9059,379.784],
    [24571,1532818399,56.9921,-111.8364,1727.2,1358.2,207.0,3.6,4.0,17.12,45.96,1.9052,380.7046],
    [24572,1532818400,56.9916,-111.8367,1730.3,1362.3,208.3,4.2,3.4,17.2,46.11,1.9049,380.7576],
    [24573,1532818401,56.9912,-111.8371,1733.6,1365.6,209.3,4.7,3.2,18.01,45.69,1.9052,379.5825],
    [24574,1532818402,56.9908,-111.8375,1736.3,1369.3,210.2,5.0,3.1,17.37,45.83,1.9053,378.9123],
    [24575,1532818403,56.9903,-111.8379,1739.5,1372.5,210.1,4.7,3.1,17.21,45.91,1.9054,380.0735],
    [24576,1532818404,56.9899,-111.8383,1742.7,1376.6,209.7,4.5,3.3,17.37,46.19,1.9043,379.1304],
    [24577,1532818405,56.9895,-111.8387,1745.2,1379.2,209.0,4.1,3.5,17.12,46.34,1.9045,378.9357],
    [24578,1532818406,56.9891,-111.8391,1747.3,1380.3,208.9,4.2,3.6,17.53,45.97,1.905,381.3182],
    [24579,1532818407,56.9887,-111.8395,1749.7,1382.7,209.2,4.9,4.0,17.3,46.83,1.9056,379.6105],
    [24580,1532818408,56.9882,-111.8399,1752.9,1384.9,209.3,5.0,4.0,17.04,46.9,1.9055,379.4182],
    [24581,1532818409,56.9878,-111.8403,1756.0,1387.0,209.7,5.6,4.4,16.91,46.58,1.9054,380.7222],
    [24582,1532818410,56.9874,-111.8407,1758.6,1389.6,210.1,5.8,4.0,16.75,46.58,1.9057,379.0757],
    [24583,1532818411,56.9869,-111.8411,1761.1,1391.1,210.2,6.5,5.0,17.25,46.83,1.9055,379.2871],
    [24584,1532818412,56.9865,-111.8415,1764.1,1394.1,209.3,6.2,6.1,17.23,46.63,1.9061,379.6771],
    [24585,1532818413,56.9861,-111.8419,1767.4,1397.4,208.5,5.8,6.7,16.97,47.21,1.906,379.6281],
    [24586,1532818414,56.9857,-111.8423,1770.1,1400.1,208.9,6.1,6.6,17.21,47.83,1.9068,378.8022],
    [24587,1532818415,56.9852,-111.8427,1772.5,1403.5,208.9,5.4,5.7,17.27,47.35,1.9053,379.1337],
    [24588,1532818416,56.9848,-111.8431,1775.2,1406.9,208.7,5.2,5.9,16.44,47.68,1.9058,378.018],
    [24589,1532818417,56.9844,-111.8435,1777.6,1409.6,208.3,5.3,6.7,17.3,47.62,1.9056,379.959],
    [24590,1532818418,56.984,-111.8438,1780.0,1412.0,208.2,5.3,6.8,17.03,47.98,1.9068,380.3279],
    [24591,1532818419,56.9835,-111.8443,1783.2,1414.2,208.4,5.5,7.1,17.12,47.98,1.9083,380.3279],
    [24592,1532818420,56.9831,-111.8447,1786.4,1416.7,208.1,5.3,7.4,16.95,47.9,1.9077,378.5361],
    [24593,1532818421,56.9826,-111.8451,1788.5,1418.5,208.8,6.0,7.3,17.32,47.84,1.9071,378.7023],
    [24594,1532818422,56.9822,-111.8455,1790.6,1419.6,208.6,5.3,7.2,17.54,48.08,1.9061,378.7897],
    [24595,1532818423,56.9818,-111.8459,1793.8,1422.8,208.8,5.3,7.1,16.42,48.86,1.9078,378.2535],
    [24596,1532818424,56.9813,-111.8463,1796.8,1425.8,209.9,5.7,6.5,17.19,48.85,1.9079,378.2535],
    [24597,1532818425,56.9809,-111.8467,1799.8,1428.8,210.1,6.0,6.9,16.92,49.73,1.9067,377.1623],
    [24598,1532818426,56.9805,-111.8472,1802.8,1431.8,209.5,6.4,7.8,16.73,49.91,1.906,378.5062],
    [24599,1532818427,56.98,-111.8476,1804.9,1434.9,209.0,6.8,7.6,16.1,50.52,1.9072,378.1745],
    [24600,1532818428,56.9796,-111.848,1806.7,1436.7,206.4,5.8,7.6,17.1,50.88,1.9066,378.1806],
    [24601,1532818429,56.9791,-111.8483,1808.6,1439.2,202.8,4.4,7.7,16.65,50.79,1.9056,378.1806],
    [24602,1532818430,56.9787,-111.8486,1810.4,1441.4,199.0,3.2,7.6,16.79,50.94,1.9065,377.6699],
    [24603,1532818431,56.9782,-111.8489,1812.5,1443.4,195.2,2.5,7.9,16.54,50.83,1.9069,376.5338],
    [24604,1532818432,56.9777,-111.8491,1814.7,1444.6,192.1,2.1,8.0,16.46,50.92,1.9071,378.1649],
    [24605,1532818433,56.9772,-111.8493,1817.0,1447.0,189.2,1.7,7.9,16.78,51.7,1.9072,378.0409],
    [24606,1532818434,56.9767,-111.8494,1819.1,1447.9,186.8,1.4,8.3,16.62,51.18,1.9078,378.0157],
    [24607,1532818435,56.9762,-111.8495,1821.1,1450.1,184.7,1.2,8.6,16.67,51.71,1.906,379.3284],
    [24608,1532818436,56.9757,-111.8495,1823.0,1451.0,183.1,1.0,8.6,16.67,51.8,1.9044,377.9849],
    [24609,1532818437,56.9751,-111.8496,1825.0,1452.7,182.2,1.5,9.4,17.3,51.34,1.9055,377.8065],
    [24610,1532818438,56.9746,-111.8496,1827.1,1454.1,181.9,2.3,9.8,16.19,51.68,1.904,378.8035],
    [24611,1532818439,56.9741,-111.8496,1829.3,1455.3,181.0,2.0,9.5,16.25,51.61,1.904,379.0099],
    [24612,1532818440,56.9736,-111.8495,1831.8,1457.8,180.0,1.6,9.9,16.41,51.37,1.9059,377.9823],
    [24613,1532818441,56.9731,-111.8495,1833.7,1459.0,180.3,2.4,10.1,16.56,51.22,1.9051,378.8332],
    [24614,1532818442,56.9726,-111.8495,1835.8,1460.8,179.6,1.9,10.3,16.16,50.91,1.9051,378.2239],
    [24615,1532818443,56.972,-111.8494,1838.0,1463.0,178.1,0.4,10.3,16.54,50.49,1.9041,379.2256],
    [24616,1532818444,56.9715,-111.8494,1839.8,1464.8,177.2,-0.4,9.8,16.96,50.14,1.9047,378.5179],
    [24617,1532818445,56.971,-111.8493,1841.4,1466.2,178.2,0.6,9.5,17.03,50.01,1.905,379.1524],
    [24618,1532818446,56.9705,-111.8493,1843.9,1467.9,179.0,1.0,9.2,16.19,50.76,1.9055,379.3026],
    [24619,1532818447,56.97,-111.8493,1846.9,1470.9,179.8,1.8,9.0,16.36,50.17,1.9051,379.3026],
    [24620,1532818448,56.9695,-111.8492,1849.8,1473.8,181.5,3.4,8.9,16.62,49.64,1.9046,379.3297],
    [24621,1532818449,56.9689,-111.8492,1852.4,1476.4,181.2,2.9,9.1,16.32,49.88,1.9039,379.3625],
    [24622,1532818450,56.9684,-111.8492,1855.1,1478.1,180.2,1.9,8.9,15.75,49.7,1.9029,379.2621],
    [24623,1532818451,56.9679,-111.8492,1857.1,1480.1,180.1,1.9,8.4,16.18,49.52,1.9042,377.9407],
    [24624,1532818452,56.9674,-111.8491,1858.7,1481.7,180.0,1.8,7.9,16.91,48.94,1.9047,378.2669],
    [24625,1532818453,56.9668,-111.8491,1860.2,1482.2,180.3,2.0,7.7,16.21,49.17,1.9053,379.4874],
    [24626,1532818454,56.9663,-111.8491,1861.6,1483.6,180.1,1.8,7.4,16.43,49.02,1.9045,378.2897],
    [24627,1532818455,56.9658,-111.849,1863.7,1484.7,179.4,1.0,7.0,16.47,48.99,1.9044,378.7954],
    [24628,1532818456,56.9652,-111.849,1866.0,1486.0,179.7,1.4,7.0,15.71,49.2,1.9045,379.5811],
    [24629,1532818457,56.9647,-111.849,1868.1,1487.1,180.7,2.2,7.5,16.68,48.73,1.9061,379.6649],
    [24630,1532818458,56.9641,-111.849,1870.0,1489.0,180.9,2.3,8.6,16.66,48.85,1.9063,379.4671],
    [24631,1532818459,56.9636,-111.8489,1872.6,1490.6,180.3,1.4,9.3,16.25,49.49,1.9056,379.6422],
    [24632,1532818460,56.9631,-111.8489,1874.7,1492.2,179.3,0.6,8.9,15.89,49.53,1.9064,379.9628],
    [24633,1532818461,56.9625,-111.8489,1875.5,1492.5,180.9,2.3,8.7,16.34,49.82,1.9063,379.9628],
    [24634,1532818462,56.962,-111.8489,1876.2,1493.2,181.5,2.7,8.7,16.32,49.9,1.9042,378.9325],
    [24635,1532818463,56.9614,-111.8489,1877.5,1493.5,181.2,2.2,8.5,15.97,49.98,1.9036,378.9325],
    [24636,1532818464,56.9609,-111.8489,1879.7,1495.7,180.4,1.2,8.5,16.15,50.1,1.904,378.1805],
    [24637,1532818465,56.9603,-111.8488,1881.8,1497.8,180.3,1.2,8.0,15.91,50.16,1.9056,380.2061],
    [24638,1532818466,56.9598,-111.8488,1883.3,1498.3,180.1,0.9,7.4,16.16,49.96,1.9056,380.2061],
    [24639,1532818467,56.9593,-111.8488,1885.0,1499.0,179.9,1.2,7.4,16.36,49.7,1.906,380.3951],
    [24640,1532818468,56.9587,-111.8488,1886.8,1499.8,180.0,0.9,6.8,16.66,49.27,1.9056,378.334],
    [24641,1532818469,56.9581,-111.8488,1889.4,1501.7,179.0,-0.3,6.3,16.04,49.91,1.9045,379.1057],
    [24642,1532818470,56.9576,-111.8488,1891.7,1502.6,181.0,1.5,6.0,16.67,49.62,1.9056,380.7502],
    [24643,1532818471,56.957,-111.8488,1893.1,1503.1,182.2,2.1,5.9,16.73,49.59,1.9068,380.7502],
    [24644,1532818472,56.9565,-111.8488,1894.7,1502.7,182.2,1.6,5.5,16.13,50.33,1.9064,378.7858],
    [24645,1532818473,56.9559,-111.8488,1896.5,1502.4,182.4,1.8,4.9,16.13,51.09,1.9065,378.7858],
    [24646,1532818474,56.9553,-111.8488,1898.1,1502.1,181.9,1.2,4.7,15.49,50.84,1.9047,379.4583],
    [24647,1532818475,56.9548,-111.8488,1900.4,1502.7,181.1,1.0,4.5,15.87,51.18,1.9059,379.9308],
    [24648,1532818476,56.9542,-111.8488,1903.0,1503.6,181.8,1.8,4.0,16.05,52.0,1.9056,378.7337],
    [24649,1532818477,56.9536,-111.8488,1905.6,1504.6,181.3,1.3,3.5,16.57,51.2,1.9047,379.6567],
    [24650,1532818478,56.953,-111.8488,1907.6,1504.6,181.3,1.7,3.2,16.4,50.91,1.9062,378.757],
    [24651,1532818479,56.9525,-111.8488,1908.2,1504.3,181.7,2.0,3.1,15.67,51.58,1.9039,379.0789],
    [24652,1532818480,56.9519,-111.8488,1909.1,1504.1,180.6,0.9,3.5,15.99,51.19,1.9038,378.3375],
    [24653,1532818481,56.9513,-111.8488,1910.9,1505.9,180.2,0.9,3.5,16.41,50.66,1.9042,377.7622],
    [24654,1532818482,56.9507,-111.8488,1913.1,1507.1,180.1,1.2,2.9,15.93,50.81,1.905,377.7622],
    [24655,1532818483,56.9501,-111.8488,1915.1,1509.1,180.6,2.1,2.4,16.62,50.28,1.9034,378.6069],
    [24656,1532818484,56.9495,-111.8488,1916.3,1509.3,181.7,3.1,2.6,15.8,51.46,1.905,378.7629],
    [24657,1532818485,56.9489,-111.8488,1917.7,1510.7,181.5,2.8,3.0,15.66,50.88,1.9042,379.3937],
    [24658,1532818486,56.9483,-111.8487,1919.0,1511.0,181.6,3.0,2.7,15.19,50.89,1.9038,379.4334],
    [24659,1532818487,56.9477,-111.8487,1919.6,1511.6,181.6,2.8,2.4,15.84,50.53,1.903,379.0285],
    [24660,1532818488,56.9471,-111.8487,1919.9,1510.9,180.9,2.2,2.7,16.22,50.44,1.9033,379.0987],
    [24661,1532818489,56.9465,-111.8487,1920.3,1511.3,180.4,1.8,2.6,15.79,51.26,1.9027,379.4211],
    [24662,1532818490,56.9459,-111.8487,1921.3,1511.3,180.3,1.9,2.4,15.6,50.39,1.9029,378.9394],
    [24663,1532818491,56.9453,-111.8486,1922.5,1512.5,180.9,2.7,2.3,15.71,49.91,1.9041,378.1],
    [24664,1532818492,56.9447,-111.8486,1923.8,1512.8,181.3,3.1,2.3,15.81,50.33,1.9039,379.5471],
    [24665,1532818493,56.9441,-111.8486,1925.2,1514.2,181.4,3.3,2.1,15.93,49.79,1.9036,380.0678],
    [24666,1532818494,56.9435,-111.8486,1926.8,1515.8,181.5,3.6,1.7,15.49,50.15,1.9044,379.2252],
    [24667,1532818495,56.9429,-111.8485,1928.8,1516.8,182.8,5.2,1.8,15.27,50.06,1.9038,379.7866],
    [24668,1532818496,56.9423,-111.8485,1930.6,1518.6,183.0,5.3,1.6,16.43,49.51,1.9032,380.7986],
    [24669,1532818497,56.9417,-111.8485,1932.6,1520.6,182.0,4.5,1.5,15.27,50.1,1.9041,379.3971],
    [24670,1532818498,56.9411,-111.8484,1934.7,1522.7,181.5,4.1,1.3,15.23,50.36,1.9046,379.2464],
    [24671,1532818499,56.9405,-111.8484,1936.5,1524.5,180.8,3.6,1.1,15.55,50.51,1.9056,378.7952],
    [24672,1532818500,56.9399,-111.8483,1937.9,1525.9,180.7,3.8,0.6,15.4,50.68,1.9062,377.8028],
    [24673,1532818501,56.9393,-111.8483,1939.7,1527.7,180.6,3.7,0.5,15.38,51.03,1.9037,377.8028],
    [24674,1532818502,56.9387,-111.8483,1942.1,1529.1,179.9,2.8,1.0,15.79,50.8,1.9051,379.8405],
    [24675,1532818503,56.9381,-111.8482,1944.4,1531.4,179.9,2.7,1.5,16.22,50.72,1.9066,378.3717],
    [24676,1532818504,56.9375,-111.8482,1946.3,1533.3,180.2,2.8,1.4,15.68,51.25,1.9059,378.9147],
    [24677,1532818505,56.9369,-111.8481,1948.5,1535.5,180.1,2.3,1.2,15.42,51.92,1.9056,379.1703],
    [24678,1532818506,56.9363,-111.8481,1950.7,1537.7,179.6,1.6,1.5,16.04,51.55,1.9063,378.5843],
    [24679,1532818507,56.9356,-111.848,1953.3,1540.3,179.7,1.7,1.7,15.36,52.29,1.905,378.3755],
    [24680,1532818508,56.935,-111.848,1956.1,1542.1,180.8,2.6,1.5,15.17,53.09,1.9047,377.8546],
    [24681,1532818509,56.9344,-111.848,1958.9,1544.9,181.2,2.6,1.8,16.02,52.25,1.9046,378.8571],
    [24682,1532818510,56.9338,-111.848,1962.0,1547.0,180.5,1.9,2.6,15.34,53.31,1.9058,378.6744],
    [24683,1532818511,56.9332,-111.848,1965.0,1550.0,181.3,2.8,2.8,15.32,53.54,1.9053,379.7026],
    [24684,1532818512,56.9326,-111.8479,1967.9,1552.6,181.5,2.8,2.5,15.25,53.19,1.9056,378.6354],
    [24685,1532818513,56.932,-111.8479,1971.1,1555.1,180.6,1.7,1.6,15.43,53.04,1.906,376.9385],
    [24686,1532818514,56.9314,-111.8479,1974.2,1557.5,180.3,1.5,1.1,15.03,52.93,1.9049,376.9385],
    [24687,1532818515,56.9308,-111.8479,1976.6,1559.6,180.2,1.6,0.8,14.66,53.22,1.9046,378.6513],
    [24688,1532818516,56.9302,-111.8479,1979.0,1561.0,179.9,1.5,0.7,15.13,53.44,1.9043,379.0429],
    [24689,1532818517,56.9296,-111.8478,1981.6,1562.6,180.2,1.7,0.5,15.83,52.82,1.9059,378.6371],
    [24690,1532818518,56.929,-111.8478,1984.4,1565.4,181.0,2.5,0.7,15.51,53.15,1.9035,378.1635],
    [24691,1532818519,56.9284,-111.8478,1987.3,1567.3,182.0,3.5,0.7,15.37,53.34,1.904,378.5514],
    [24692,1532818520,56.9278,-111.8478,1990.3,1570.3,182.6,4.1,0.4,15.51,53.47,1.9029,378.5514],
    [24693,1532818521,56.9272,-111.8478,1993.1,1572.1,183.0,4.7,0.1,14.91,53.7,1.9036,379.5051],
    [24694,1532818522,56.9266,-111.8477,1995.9,1574.9,182.7,4.5,-0.3,15.01,54.29,1.9039,379.4915],
    [24695,1532818523,56.926,-111.8477,1998.4,1577.4,182.0,4.1,-0.7,15.38,53.3,1.9039,378.0798],
    [24696,1532818524,56.9254,-111.8477,2000.7,1579.7,181.8,4.1,-1.0,15.02,54.1,1.9035,379.4613],
    [24697,1532818525,56.9248,-111.8476,2003.4,1581.4,181.6,4.1,-0.9,15.02,54.59,1.9031,378.4513],
    [24698,1532818526,56.9242,-111.8476,2006.6,1584.6,181.6,4.4,-1.3,14.9,54.25,1.9031,379.9903],
    [24699,1532818527,56.9236,-111.8476,2009.8,1587.8,182.1,5.1,-1.6,14.86,54.03,1.9026,377.3546],
    [24700,1532818528,56.923,-111.8475,2013.0,1591.0,181.7,5.0,-1.6,14.98,54.37,1.9033,379.7603],
    [24701,1532818529,56.9224,-111.8475,2016.3,1593.6,180.5,4.6,-1.9,14.17,53.95,1.9027,378.5031],
    [24702,1532818530,56.9218,-111.8474,2018.8,1595.8,178.8,4.3,-2.1,15.11,53.66,1.9023,378.3513],
    [24703,1532818531,56.9211,-111.8473,2020.9,1597.9,176.7,4.5,-1.9,14.88,53.73,1.9026,378.3513],
    [24704,1532818532,56.9205,-111.8471,2023.0,1600.0,174.2,4.7,-2.0,14.84,53.89,1.9036,379.4903],
    [24705,1532818533,56.9199,-111.8469,2025.2,1601.2,171.0,4.6,-2.0,14.77,53.13,1.9017,379.6233],
    [24706,1532818534,56.9193,-111.8466,2027.7,1603.7,168.0,4.9,-1.2,14.56,52.8,1.9032,379.3774],
    [24707,1532818535,56.9187,-111.8463,2029.9,1604.9,165.1,5.2,-0.5,14.66,52.53,1.9043,378.3699],
    [24708,1532818536,56.9182,-111.8459,2032.3,1606.6,162.0,5.6,-0.8,15.2,52.24,1.905,378.4733],
    [24709,1532818537,56.9176,-111.8454,2035.2,1609.2,158.1,4.9,-1.4,14.15,52.5,1.9051,379.3284],
    [24710,1532818538,56.917,-111.8449,2038.2,1611.2,154.9,4.7,-1.6,14.68,52.94,1.9059,379.0702],
    [24711,1532818539,56.9165,-111.8444,2041.0,1613.0,153.8,5.8,-1.1,14.66,53.46,1.9059,378.2821],
    [24712,1532818540,56.916,-111.8438,2044.0,1615.0,151.4,5.6,-1.8,15.02,53.42,1.9062,378.2821],
    [24713,1532818541,56.9154,-111.8431,2047.4,1617.4,149.5,5.8,-2.0,13.78,54.03,1.9049,379.1079],
    [24714,1532818542,56.9149,-111.8425,2050.4,1619.5,148.5,6.1,-1.4,14.95,54.11,1.9044,379.0642],
    [24715,1532818543,56.9144,-111.8418,2053.2,1620.9,146.7,5.6,-1.2,14.04,54.25,1.9061,378.3319],
    [24716,1532818544,56.9139,-111.8411,2056.0,1622.3,145.0,5.9,-1.6,14.52,54.3,1.9054,378.6547],
    [24717,1532818545,56.9134,-111.8404,2058.6,1623.3,142.7,5.7,-2.2,14.56,55.13,1.9027,379.4692],
    [24718,1532818546,56.9129,-111.8396,2061.2,1623.2,140.6,5.6,-2.4,14.97,54.38,1.9028,379.4692],
    [24719,1532818547,56.9125,-111.8389,2063.7,1624.0,139.4,6.2,-2.2,14.46,54.72,1.903,379.2878],
    [24720,1532818548,56.912,-111.8381,2066.3,1625.3,137.5,6.1,-2.2,14.16,54.43,1.9036,378.322],
    [24721,1532818549,56.9116,-111.8372,2069.0,1626.4,135.6,5.9,-2.3,14.19,54.47,1.9034,377.3476],
    [24722,1532818550,56.9111,-111.8364,2071.6,1627.6,134.1,6.3,-2.3,14.35,54.44,1.9036,378.9546],
    [24723,1532818551,56.9107,-111.8355,2074.6,1629.7,132.9,6.7,-2.1,14.87,54.11,1.9024,378.2577],
    [24724,1532818552,56.9103,-111.8346,2077.7,1632.7,131.7,7.0,-2.1,14.52,54.12,1.9031,378.1894],
    [24725,1532818553,56.9099,-111.8337,2080.4,1635.5,130.7,7.5,-2.1,14.34,55.13,1.9038,379.1949],
    [24726,1532818554,56.9095,-111.8328,2082.7,1637.7,130.4,8.1,-1.9,13.99,54.51,1.9041,378.228],
    [24727,1532818555,56.9091,-111.8318,2084.8,1639.8,130.0,7.9,-1.9,14.02,55.29,1.9032,378.228],
    [24728,1532818556,56.9088,-111.8309,2087.3,1642.3,129.6,7.6,-2.3,13.93,54.61,1.9032,380.4502],
    [24729,1532818557,56.9084,-111.83,2089.7,1644.7,129.5,7.4,-2.5,13.81,54.83,1.9045,377.542],
    [24730,1532818558,56.908,-111.8291,2091.4,1646.4,129.9,7.5,-2.3,14.12,54.81,1.9053,379.0617],
    [24731,1532818559,56.9076,-111.8281,2093.1,1648.1,130.7,7.8,-1.8,13.66,55.02,1.906,379.0617],
    [24732,1532818560,56.9072,-111.8272,2095.5,1650.5,131.0,7.6,-1.8,13.8,55.33,1.9059,379.699],
    [24733,1532818561,56.9068,-111.8263,2098.2,1654.2,131.2,7.2,-1.3,14.2,56.12,1.9047,379.699],
    [24734,1532818562,56.9064,-111.8254,2100.7,1657.6,131.6,7.1,-1.2,14.23,55.95,1.9021,379.2477],
    [24735,1532818563,56.906,-111.8245,2103.1,1663.2,131.5,6.9,-1.4,13.37,56.1,1.901,379.0031],
    [24736,1532818564,56.9056,-111.8236,2105.6,1667.8,131.9,7.5,-1.8,13.63,55.73,1.9038,378.7411],
    [24737,1532818565,56.9052,-111.8227,2108.4,1671.5,132.0,7.5,-1.6,13.8,56.01,1.9056,378.987],
    [24738,1532818566,56.9048,-111.8218,2111.0,1673.4,132.5,7.5,-1.1,13.78,55.48,1.9062,378.5277],
    [24739,1532818567,56.9044,-111.8209,2113.4,1673.3,132.0,7.1,-1.6,13.92,56.05,1.9068,378.911],
    [24740,1532818568,56.904,-111.82,2116.0,1674.5,131.4,6.6,-1.9,14.6,55.27,1.907,377.899],
    [24741,1532818569,56.9036,-111.8191,2118.4,1675.4,131.8,6.8,-1.6,13.89,56.64,1.9063,377.9663],
    [24742,1532818570,56.9032,-111.8182,2120.9,1675.9,131.6,6.5,-1.8,14.46,56.43,1.9063,380.0999],
    [24743,1532818571,56.9028,-111.8173,2123.5,1678.5,131.3,6.4,-2.1,13.89,57.03,1.9055,378.3863],
    [24744,1532818572,56.9024,-111.8164,2125.9,1681.0,132.2,7.1,-1.6,13.69,58.46,1.9047,377.9754],
    [24745,1532818573,56.9021,-111.8155,2128.3,1684.3,131.9,6.7,-1.6,13.43,57.91,1.9055,378.2886],
    [24746,1532818574,56.9017,-111.8146,2131.0,1687.0,131.5,6.3,-1.7,13.73,58.79,1.9049,380.6698],
    [24747,1532818575,56.9013,-111.8137,2133.7,1690.7,132.1,6.6,-1.2,13.36,58.43,1.9041,378.4126],
    [24748,1532818576,56.9009,-111.8129,2136.8,1692.4,132.1,6.5,-1.2,14.48,57.7,1.9058,378.7025],
    [24749,1532818577,56.9005,-111.812,2139.9,1693.9,132.1,6.6,-1.4,13.54,58.56,1.9043,379.6355],
    [24750,1532818578,56.9001,-111.8111,2142.9,1697.6,132.0,6.7,-1.6,13.0,58.16,1.9044,378.5357],
    [24751,1532818579,56.8997,-111.8102,2145.8,1701.1,132.4,7.0,-1.2,13.46,58.61,1.9033,379.5719],
    [24752,1532818580,56.8993,-111.8093,2148.6,1705.5,132.7,6.8,-0.9,14.09,57.89,1.9014,380.2494],
    [24753,1532818581,56.8989,-111.8085,2151.7,1709.0,131.1,5.4,-1.8,12.94,58.49,1.8994,379.7755],
    [24754,1532818582,56.8985,-111.8076,2154.7,1712.6,130.3,5.1,-2.1,13.66,57.93,1.9005,380.4137],
    [24755,1532818583,56.8981,-111.8067,2157.3,1716.9,130.9,5.4,-1.4,12.99,57.5,1.902,379.3622],
    [24756,1532818584,56.8977,-111.8059,2160.0,1720.0,131.2,4.9,-1.0,13.39,56.9,1.9027,379.3316],
    [24757,1532818585,56.8974,-111.805,2163.3,1723.3,130.1,4.0,-1.3,12.86,56.27,1.9047,379.4384],
    [24758,1532818586,56.897,-111.8041,2166.6,1724.7,130.4,4.1,-0.6,13.37,56.13,1.9039,378.5288],
    [24759,1532818587,56.8966,-111.8032,2169.8,1724.8,131.1,4.4,0.2,13.86,55.69,1.904,379.7904],
    [24760,1532818588,56.8962,-111.8023,2173.1,1727.1,130.7,3.4,0.4,13.71,56.03,1.9041,379.9599],
    [24761,1532818589,56.8958,-111.8014,2176.7,1729.2,130.6,3.0,0.7,13.32,57.27,1.9054,380.8412],
    [24762,1532818590,56.8954,-111.8006,2179.8,1731.8,130.6,2.8,1.0,13.19,57.05,1.9057,380.776],
    [24763,1532818591,56.8951,-111.7997,2183.1,1734.1,130.8,2.7,1.4,12.92,57.29,1.9027,380.3544],
    [24764,1532818592,56.8947,-111.7989,2186.4,1736.4,131.0,2.6,1.7,12.84,57.7,1.9026,379.5929],
    [24765,1532818593,56.8943,-111.798,2190.2,1740.2,130.1,1.8,1.2,12.75,57.37,1.9029,381.3741],
    [24766,1532818594,56.894,-111.7972,2193.9,1743.2,129.8,1.4,1.2,13.31,57.1,1.9028,379.7576],
    [24767,1532818595,56.8936,-111.7963,2197.5,1746.5,129.3,1.0,0.9,13.31,57.21,1.9033,380.0037],
    [24768,1532818596,56.8932,-111.7955,2200.8,1749.9,128.5,0.6,0.4,12.77,57.71,1.9034,381.0475],
    [24769,1532818597,56.8929,-111.7946,2203.5,1751.5,128.9,0.8,0.6,12.94,57.4,1.9029,378.0232],
    [24770,1532818598,56.8925,-111.7937,2206.3,1754.4,128.9,0.8,0.6,13.18,56.89,1.9033,380.1957],
    [24771,1532818599,56.8921,-111.7929,2209.3,1756.3,129.1,0.8,0.8,13.22,56.84,1.904,380.7281],
    [24772,1532818600,56.8918,-111.792,2212.3,1759.2,129.4,0.9,1.1,13.08,56.57,1.903,380.7281],
    [24773,1532818601,56.8914,-111.7912,2215.2,1761.2,129.4,0.8,1.1,12.93,56.5,1.9043,380.2942],
    [24774,1532818602,56.891,-111.7903,2218.0,1763.9,129.3,0.9,1.1,12.72,57.19,1.9027,380.5301],
    [24775,1532818603,56.8906,-111.7895,2220.9,1766.9,129.4,1.0,1.3,12.9,56.82,1.9028,380.3759],
    [24776,1532818604,56.8903,-111.7886,2224.0,1770.0,129.6,0.9,1.7,12.62,56.85,1.9019,380.1645],
    [24777,1532818605,56.8899,-111.7877,2227.3,1772.3,129.7,0.9,2.0,12.81,57.25,1.8996,380.3528],
    [24778,1532818606,56.8896,-111.7869,2230.6,1775.9,129.7,1.0,2.0,12.79,56.76,1.9009,381.1747],
    [24779,1532818607,56.8892,-111.786,2233.5,1779.4,129.8,1.0,2.2,12.71,56.18,1.9015,380.0931],
    [24780,1532818608,56.8888,-111.7852,2236.3,1783.4,129.9,1.2,2.2,12.71,55.62,1.9009,381.4356],
    [24781,1532818609,56.8885,-111.7843,2239.7,1787.8,129.1,0.7,1.6,13.03,54.86,1.9002,380.8539],
    [24782,1532818610,56.8881,-111.7835,2243.4,1791.4,129.3,0.8,2.1,13.37,54.46,1.8999,381.1458],
    [24783,1532818611,56.8877,-111.7826,2246.6,1794.3,129.8,1.2,2.5,12.59,55.11,1.8997,381.7712],
    [24784,1532818612,56.8874,-111.7817,2249.7,1797.1,129.6,1.1,2.4,12.43,54.64,1.9007,381.4935],
    [24785,1532818613,56.887,-111.7809,2252.7,1799.7,129.1,0.8,1.9,12.98,54.38,1.9,381.4111],
    [24786,1532818614,56.8867,-111.78,2255.9,1801.9,129.1,1.1,1.8,12.65,54.95,1.8999,380.1192],
    [24787,1532818615,56.8863,-111.7792,2259.3,1805.3,129.1,1.0,1.9,12.45,54.32,1.9004,382.0813],
    [24788,1532818616,56.8859,-111.7783,2262.7,1807.7,128.6,0.6,1.6,13.41,53.13,1.8995,381.7649],
    [24789,1532818617,56.8856,-111.7774,2266.3,1811.3,128.6,0.7,1.6,12.35,53.56,1.8992,382.1384],
    [24790,1532818618,56.8852,-111.7766,2269.7,1814.7,128.6,0.6,1.8,12.54,53.01,1.8984,382.7798],
    [24791,1532818619,56.8849,-111.7757,2273.1,1818.1,128.6,0.5,2.0,12.11,52.87,1.8979,382.7798],
    [24792,1532818620,56.8845,-111.7748,2276.2,1821.2,128.5,0.6,1.7,12.58,52.43,1.9029,380.61],
    [24793,1532818621,56.8841,-111.774,2278.9,1823.2,128.3,0.6,1.5,12.58,52.85,1.9046,381.9249],
    [24794,1532818622,56.8838,-111.7731,2281.2,1825.2,127.9,0.1,1.4,11.81,52.28,1.9047,380.4132],
    [24795,1532818623,56.8834,-111.7722,2283.9,1828.6,127.5,0.0,1.2,12.3,53.2,1.9054,381.8247],
    [24796,1532818624,56.8831,-111.7713,2286.6,1830.9,128.0,0.1,1.7,12.21,53.49,1.9032,381.5109],
    [24797,1532818625,56.8827,-111.7704,2289.5,1833.5,128.1,0.1,1.8,12.51,54.13,1.9011,381.9214],
    [24798,1532818626,56.8824,-111.7696,2292.8,1836.8,128.1,0.4,1.7,12.56,54.79,1.9003,381.0668],
    [24799,1532818627,56.882,-111.7687,2296.2,1840.2,128.2,0.5,1.6,12.6,54.92,1.9016,381.7317],
    [24800,1532818628,56.8816,-111.7678,2299.1,1843.1,127.7,0.2,1.2,12.19,55.03,1.9003,381.7317],
    [24801,1532818629,56.8813,-111.7669,2301.6,1845.6,127.6,0.4,1.2,13.23,54.29,1.8992,382.468],
    [24802,1532818630,56.8809,-111.766,2304.3,1848.3,128.0,0.8,1.2,12.33,54.63,1.8999,381.6014],
    [24803,1532818631,56.8805,-111.7651,2307.4,1851.4,127.5,0.9,0.6,12.28,54.36,1.9019,381.5271],
    [24804,1532818632,56.8802,-111.7643,2310.1,1854.1,127.6,1.0,0.6,12.33,54.84,1.8986,381.1416],
    [24805,1532818633,56.8798,-111.7634,2312.4,1856.4,127.7,1.1,0.5,12.14,54.17,1.8977,381.3972],
    [24806,1532818634,56.8795,-111.7625,2315.0,1859.0,128.3,1.6,1.0,12.39,54.57,1.8965,381.9604],
    [24807,1532818635,56.8791,-111.7616,2317.8,1861.0,128.5,1.7,1.1,12.55,53.65,1.8961,381.7537],
    [24808,1532818636,56.8787,-111.7607,2320.4,1863.3,128.6,1.8,1.3,12.23,54.35,1.8998,380.9298],
    [24809,1532818637,56.8783,-111.7598,2323.0,1866.7,128.7,1.7,1.6,12.14,53.06,1.9015,381.8509],
    [24810,1532818638,56.878,-111.7589,2325.8,1869.8,128.2,1.0,1.4,12.1,52.7,1.9024,380.4694],
    [24811,1532818639,56.8776,-111.758,2328.5,1873.5,128.2,1.5,1.2,12.21,53.21,1.9063,381.8942],
    [24812,1532818640,56.8773,-111.7571,2331.0,1877.0,129.1,2.6,1.7,13.07,52.66,1.9048,381.8942],
    [24813,1532818641,56.8769,-111.7562,2333.5,1879.5,129.6,3.4,1.6,12.2,54.39,1.9051,381.674],
    [24814,1532818642,56.8765,-111.7553,2336.5,1883.4,129.3,3.0,1.5,11.89,55.88,1.9076,380.3319],
    [24815,1532818643,56.8761,-111.7544,2338.8,1885.9,129.8,3.1,1.9,12.13,55.75,1.9075,379.891],
    [24816,1532818644,56.8758,-111.7535,2341.4,1888.4,128.9,2.7,0.9,12.68,56.72,1.9079,380.4201],
    [24817,1532818645,56.8754,-111.7526,2343.9,1890.9,128.8,2.7,0.8,12.37,57.98,1.9059,379.995],
    [24818,1532818646,56.875,-111.7517,2346.4,1893.4,129.1,3.1,1.0,12.75,58.8,1.9067,379.5728],
    [24819,1532818647,56.8747,-111.7508,2348.9,1896.0,129.3,3.2,1.1,11.68,60.11,1.9079,379.1691],
    [24820,1532818648,56.8743,-111.7499,2351.6,1899.3,129.3,3.0,1.1,11.63,60.93,1.9058,378.7255],
    [24821,1532818649,56.8739,-111.7489,2354.5,1903.1,129.4,2.9,1.4,12.01,61.51,1.9051,378.7255],
    [24822,1532818650,56.8735,-111.748,2357.2,1907.5,129.6,3.1,1.3,11.56,61.81,1.9056,380.0007],
    [24823,1532818651,56.8731,-111.7471,2360.0,1911.0,129.5,3.3,1.0,11.89,62.34,1.9055,379.641],
    [24824,1532818652,56.8727,-111.7461,2363.1,1914.0,129.3,3.4,0.6,11.61,62.49,1.9056,378.4671],
    [24825,1532818653,56.8724,-111.7452,2365.5,1916.6,129.1,3.3,0.6,11.9,62.68,1.9058,380.0612],
    [24826,1532818654,56.872,-111.7443,2367.5,1917.8,129.3,3.0,0.8,11.58,62.83,1.9064,379.8058],
    [24827,1532818655,56.8716,-111.7434,2369.9,1919.8,129.0,2.6,0.5,11.42,62.98,1.9061,380.1646],
    [24828,1532818656,56.8712,-111.7425,2372.6,1922.6,128.9,2.5,0.6,11.95,62.7,1.904,380.391],
    [24829,1532818657,56.8709,-111.7416,2375.2,1926.1,128.9,2.3,0.6,11.65,63.11,1.9026,378.8974],
    [24830,1532818658,56.8705,-111.7407,2377.8,1929.7,127.8,1.7,-0.4,11.83,62.64,1.9052,380.7568],
    [24831,1532818659,56.8701,-111.7398,2380.1,1934.5,127.9,2.2,-0.5,11.04,62.77,1.9063,380.1057],
    [24832,1532818660,56.8697,-111.7389,2382.4,1940.4,128.5,2.8,-0.2,11.72,62.43,1.9054,379.8097],
    [24833,1532818661,56.8693,-111.738,2385.2,1944.3,128.5,2.8,-0.2,11.73,62.3,1.9041,379.0265],
    [24834,1532818662,56.869,-111.737,2388.2,1946.3,128.6,2.7,0.1,11.78,62.62,1.9067,378.1835],
    [24835,1532818663,56.8686,-111.7362,2390.8,1944.4,129.0,2.8,0.5,11.57,62.92,1.9056,379.1015],
    [24836,1532818664,56.8682,-111.7352,2393.3,1945.5,129.1,2.7,0.8,12.05,62.93,1.9048,379.4735],
    [24837,1532818665,56.8678,-111.7343,2396.2,1948.2,129.0,2.4,0.9,11.45,63.55,1.9046,379.8216],
    [24838,1532818666,56.8675,-111.7334,2399.5,1951.7,129.3,2.8,1.1,11.8,63.07,1.9044,379.685],
    [24839,1532818667,56.8671,-111.7325,2402.6,1954.6,130.0,3.5,1.4,11.88,63.14,1.9056,379.9537],
    [24840,1532818668,56.8667,-111.7316,2405.0,1957.9,130.3,3.7,1.6,11.31,63.6,1.903,379.947],
    [24841,1532818669,56.8663,-111.7307,2407.2,1961.1,130.8,4.2,1.7,11.12,63.78,1.9062,378.485],
    [24842,1532818670,56.8659,-111.7298,2409.3,1965.0,130.4,4.3,1.1,12.02,62.78,1.9059,379.1532],
    [24843,1532818671,56.8656,-111.7289,2411.6,1969.6,130.3,4.3,1.3,11.0,63.07,1.9057,379.2482],
    [24844,1532818672,56.8652,-111.728,2413.5,1972.4,130.9,4.7,1.6,11.54,62.99,1.9064,379.4504],
    [24845,1532818673,56.8648,-111.7271,2416.1,1977.1,130.3,4.6,0.8,11.2,63.54,1.9059,379.0299],
    [24846,1532818674,56.8644,-111.7262,2418.7,1981.4,130.4,4.6,0.8,11.44,63.78,1.9052,380.0959],
    [24847,1532818675,56.8641,-111.7253,2421.1,1985.1,130.8,4.5,1.0,11.34,64.64,1.9049,380.0313],
    [24848,1532818676,56.8637,-111.7244,2423.5,1989.4,131.0,4.2,1.5,11.26,64.25,1.906,379.2544],
    [24849,1532818677,56.8633,-111.7235,2426.3,1993.3,130.8,3.9,1.3,11.19,64.33,1.9052,379.3007],
    [24850,1532818678,56.8629,-111.7226,2429.5,1997.8,129.9,3.4,0.6,11.15,64.79,1.9071,379.4397],
    [24851,1532818679,56.8625,-111.7217,2432.0,2002.1,130.3,3.6,0.8,11.12,64.99,1.9045,379.063],
    [24852,1532818680,56.8621,-111.7208,2434.7,2005.6,129.3,2.6,0.2,11.17,64.36,1.9046,379.1227],
    [24853,1532818681,56.8618,-111.7199,2437.6,2010.5,129.3,2.7,0.5,11.07,64.54,1.9051,378.4515],
    [24854,1532818682,56.8614,-111.719,2439.9,2016.6,130.0,3.1,1.2,11.04,64.53,1.9036,377.163],
    [24855,1532818683,56.861,-111.7181,2441.8,2021.8,130.2,3.5,1.5,11.01,64.72,1.9037,379.5976],
    [24856,1532818684,56.8606,-111.7171,2444.3,2023.7,130.5,3.8,1.7,11.56,63.61,1.9034,379.4662],
    [24857,1532818685,56.8602,-111.7163,2446.9,2022.5,130.8,4.0,1.7,11.02,63.69,1.9038,379.9514],
    [24858,1532818686,56.8598,-111.7153,2449.0,2024.3,130.5,3.9,1.5,10.95,63.47,1.904,379.8645],
    [24859,1532818687,56.8595,-111.7144,2451.0,2027.0,130.4,3.8,1.5,10.12,63.23,1.904,380.644],
    [24860,1532818688,56.8591,-111.7135,2453.3,2028.6,129.9,3.3,1.4,11.1,62.59,1.9016,380.5821],
    [24861,1532818689,56.8587,-111.7126,2455.9,2030.9,130.0,2.8,1.9,11.21,62.22,1.9036,378.1607],
    [24862,1532818690,56.8583,-111.7117,2458.9,2033.6,129.8,2.5,2.0,11.12,62.22,1.903,380.2267],
    [24863,1532818691,56.858,-111.7108,2461.7,2034.6,130.0,2.8,2.1,11.4,61.63,1.9029,378.7444],
    [24864,1532818692,56.8576,-111.7099,2464.3,2038.3,129.9,2.7,1.9,10.63,61.58,1.9033,378.628],
    [24865,1532818693,56.8572,-111.709,2467.0,2044.8,130.0,2.8,2.2,10.8,61.55,1.9012,381.0819],
    [24866,1532818694,56.8568,-111.7081,2469.5,2048.2,130.6,3.0,2.9,10.58,60.73,1.9019,380.5156],
    [24867,1532818695,56.8565,-111.7072,2472.4,2048.8,130.4,2.8,2.7,10.87,60.48,1.9037,380.5156],
    [24868,1532818696,56.8561,-111.7063,2475.7,2050.6,130.4,3.3,2.5,10.25,60.37,1.9019,380.3351],
    [24869,1532818697,56.8557,-111.7054,2478.6,2052.9,130.7,3.7,2.4,10.51,60.99,1.9017,381.6967],
    [24870,1532818698,56.8553,-111.7045,2481.3,2055.3,130.1,3.0,2.4,10.85,60.22,1.9018,381.4479],
    [24871,1532818699,56.855,-111.7036,2484.2,2058.2,130.2,3.2,2.5,10.77,60.05,1.9018,380.6255],
    [24872,1532818700,56.8546,-111.7027,2487.3,2061.6,130.5,3.4,2.5,10.68,60.14,1.9017,381.1344],
    [24873,1532818701,56.8542,-111.7018,2490.1,2064.0,129.8,3.0,2.1,9.92,59.59,1.9007,381.2975],
    [24874,1532818702,56.8539,-111.7009,2492.6,2066.6,129.3,3.2,2.0,10.6,59.3,1.9,382.186],
    [24875,1532818703,56.8535,-111.7,2495.2,2068.2,127.9,3.3,1.7,10.1,59.03,1.9015,382.1895],
    [24876,1532818704,56.8531,-111.699,2498.1,2071.1,126.5,3.3,2.5,10.28,59.43,1.9031,382.4454],
    [24877,1532818705,56.8528,-111.6981,2500.7,2073.7,124.2,3.5,2.4,10.05,58.66,1.9035,382.4803],
    [24878,1532818706,56.8525,-111.6971,2503.4,2076.4,120.4,3.3,1.5,10.64,58.45,1.9026,382.6214],
    [24879,1532818707,56.8522,-111.696,2506.2,2078.6,116.8,2.9,1.0,11.02,58.25,1.8999,382.1645],
    [24880,1532818708,56.852,-111.695,2509.1,2081.1,114.3,2.9,1.1,10.12,58.73,1.9007,381.4275],
    [24881,1532818709,56.8517,-111.6939,2511.8,2083.8,112.5,3.3,1.3,10.41,58.12,1.9013,381.445],
    [24882,1532818710,56.8515,-111.6928,2514.6,2086.6,110.9,3.7,1.3,10.55,57.96,1.8995,382.6251],
    [24883,1532818711,56.8513,-111.6918,2517.4,2089.4,109.1,3.5,1.0,10.45,58.05,1.9005,381.3415],
    [24884,1532818712,56.8512,-111.6906,2520.1,2092.1,107.8,3.2,0.8,9.98,57.38,1.9021,382.8043],
    [24885,1532818713,56.851,-111.6895,2522.3,2094.2,106.8,3.4,0.6,10.33,57.59,1.9016,381.9332],
    [24886,1532818714,56.8508,-111.6884,2524.6,2096.6,106.5,4.1,0.7,10.32,57.15,1.9016,379.2771],
    [24887,1532818715,56.8507,-111.6873,2527.5,2099.8,106.9,4.4,1.4,10.1,57.06,1.9016,382.7668],
    [24888,1532818716,56.8505,-111.6862,2530.4,2102.4,107.2,3.5,1.9,10.47,56.75,1.9012,381.8286],
    [24889,1532818717,56.8503,-111.6851,2533.3,2106.3,107.0,2.9,1.7,10.31,57.02,1.9027,382.7824],
    [24890,1532818718,56.8502,-111.684,2536.3,2109.2,106.5,3.1,1.1,10.55,56.71,1.9034,382.263],
    [24891,1532818719,56.85,-111.6829,2538.8,2111.8,107.0,3.8,1.5,9.74,57.21,1.9053,381.6483],
    [24892,1532818720,56.8498,-111.6817,2541.0,2114.0,107.5,3.8,2.0,10.86,57.0,1.9057,381.3529],
    [24893,1532818721,56.8497,-111.6806,2543.6,2116.6,107.0,3.7,1.4,10.1,57.51,1.9028,382.3506],
    [24894,1532818722,56.8495,-111.6795,2546.1,2119.1,106.2,3.4,0.9,9.75,57.81,1.8993,382.3182],
    [24895,1532818723,56.8494,-111.6784,2548.4,2121.4,106.8,2.4,2.0,10.65,57.33,1.9017,381.9951],
    [24896,1532818724,56.8492,-111.6773,2550.9,2123.9,106.5,1.3,2.0,9.9,58.61,1.9019,382.4018],
    [24897,1532818725,56.849,-111.6761,2554.1,2127.4,105.3,0.2,1.3,10.07,58.14,1.9034,381.9705],
    [24898,1532818726,56.8489,-111.675,2557.0,2130.3,105.7,0.1,2.1,10.01,57.87,1.9027,382.877],
    [24899,1532818727,56.8487,-111.6739,2559.6,2133.6,106.8,0.3,3.3,10.03,57.72,1.9001,383.1073],
    [24900,1532818728,56.8486,-111.6728,2562.3,2136.3,107.0,-0.4,3.6,10.18,58.21,1.9021,383.0538],
    [24901,1532818729,56.8484,-111.6717,2565.2,2139.0,106.2,-0.9,2.9,10.88,57.37,1.9017,382.8591],
    [24902,1532818730,56.8483,-111.6705,2567.8,2142.8,105.7,-1.3,2.6,9.93,57.51,1.8997,383.8306],
    [24903,1532818731,56.8481,-111.6694,2570.3,2146.5,105.9,-1.7,2.9,10.21,56.85,1.8986,383.8306],
    [24904,1532818732,56.848,-111.6683,2573.1,2149.1,106.2,-1.7,3.2,9.9,56.99,1.8976,383.5807],
    [24905,1532818733,56.8478,-111.6672,2576.0,2153.0,106.2,-2.0,3.1,9.72,55.94,1.8994,383.3115],
    [24906,1532818734,56.8476,-111.666,2579.1,2157.1,106.0,-2.2,3.0,9.89,55.63,1.9011,383.1977],
    [24907,1532818735,56.8475,-111.6649,2582.0,2159.9,105.6,-2.1,2.6,10.09,55.01,1.8998,382.971],
    [24908,1532818736,56.8473,-111.6638,2584.4,2163.4,106.0,-2.0,3.2,9.92,54.97,1.9026,382.8308],
    [24909,1532818737,56.8472,-111.6626,2586.8,2165.8,105.3,-2.3,2.4,9.96,54.74,1.8992,382.2761],
    [24910,1532818738,56.847,-111.6615,2589.1,2169.1,104.6,-2.6,1.9,9.87,55.34,1.8997,383.6214],
    [24911,1532818739,56.8469,-111.6604,2591.6,2171.6,105.3,-2.6,2.7,9.77,54.68,1.8999,384.1439],
    [24912,1532818740,56.8467,-111.6592,2594.3,2174.3,105.0,-2.6,2.0,10.57,53.86,1.8993,383.5851],
    [24913,1532818741,56.8466,-111.6581,2597.1,2177.1,104.2,-2.7,0.9,10.11,54.08,1.8982,383.8899],
    [24914,1532818742,56.8464,-111.6569,2599.6,2180.6,103.9,-2.7,0.4,9.87,54.17,1.8933,385.3251],
    [24915,1532818743,56.8462,-111.6558,2601.5,2182.5,104.8,-2.2,1.1,9.96,53.77,1.8903,385.0811],
    [24916,1532818744,56.8461,-111.6547,2603.9,2184.9,105.0,-2.0,0.8,9.86,53.29,1.8941,384.6203],
    [24917,1532818745,56.8459,-111.6535,2606.8,2188.8,105.0,-1.8,0.4,9.32,52.13,1.8883,385.6343],
    [24918,1532818746,56.8457,-111.6524,2610.2,2192.2,105.7,-1.5,1.0,9.14,50.73,1.8854,385.6343],
    [24919,1532818747,56.8456,-111.6513,2613.7,2195.7,106.2,-1.1,1.3,10.13,48.84,1.8946,384.5422],
    [24920,1532818748,56.8454,-111.6502,2617.3,2199.3,106.5,-1.5,1.9,9.63,47.32,1.9009,384.5406],
    [24921,1532818749,56.8452,-111.649,2621.2,2203.2,106.6,-2.1,2.2,9.31,46.78,1.9037,384.4821],
    [24922,1532818750,56.8451,-111.6479,2624.9,2208.9,105.8,-2.0,1.4,9.86,46.06,1.904,384.5927],
    [24923,1532818751,56.8449,-111.6468,2628.2,2214.3,105.9,-1.6,1.4,9.73,46.9,1.9005,384.5927],
    [24924,1532818752,56.8447,-111.6457,2631.6,2217.6,105.3,-1.8,0.8,10.05,48.38,1.8974,385.7038],
    [24925,1532818753,56.8446,-111.6445,2635.3,2220.3,106.2,-1.4,2.0,9.77,49.44,1.8987,384.9084],
    [24926,1532818754,56.8444,-111.6434,2639.0,2224.0,106.0,-1.6,1.7,10.01,49.76,1.9011,385.3062],
    [24927,1532818755,56.8442,-111.6423,2643.1,2228.0,104.8,-2.8,1.0,9.92,50.61,1.8975,385.2924],
    [24928,1532818756,56.8441,-111.6411,2646.6,2231.6,105.3,-2.9,1.8,10.27,49.96,1.8957,383.71],
    [24929,1532818757,56.8439,-111.64,2650.0,2235.3,105.1,-3.3,1.5,9.57,50.13,1.8973,384.0729],
    [24930,1532818758,56.8438,-111.6389,2653.7,2238.7,104.8,-3.1,1.1,9.34,50.42,1.8927,384.478],
    [24931,1532818759,56.8436,-111.6377,2657.3,2243.3,104.8,-3.5,1.0,10.35,49.61,1.8925,384.478],
    [24932,1532818760,56.8434,-111.6366,2661.2,2248.1,104.7,-3.9,0.8,9.8,49.88,1.8936,386.3489],
    [24933,1532818761,56.8433,-111.6354,2665.7,2253.6,104.8,-4.3,1.1,10.01,49.19,1.9087,384.9623],
    [24934,1532818762,56.8431,-111.6343,2669.9,2259.2,105.2,-4.8,1.6,9.83,49.03,1.9156,380.6683],
    [24935,1532818763,56.8429,-111.6332,2673.2,2262.2,104.8,-5.3,1.2,10.44,49.37,1.9152,380.6683],
    [24936,1532818764,56.8428,-111.6321,2675.0,2263.9,105.4,-4.8,1.7,9.77,51.95,1.9106,382.7695],
    [24937,1532818765,56.8426,-111.6309,2675.5,2264.5,105.4,-4.5,1.3,9.99,54.34,1.91,381.4108],
    [24938,1532818766,56.8424,-111.6298,2674.6,2262.9,105.2,-3.9,0.9,9.73,58.16,1.9093,381.2524],
    [24939,1532818767,56.8422,-111.6286,2672.2,2261.3,105.4,-3.0,0.8,9.19,60.48,1.9093,382.3849],
    [24940,1532818768,56.8421,-111.6274,2669.5,2258.5,105.2,-2.3,0.2,9.68,61.67,1.9064,381.5818],
    [24941,1532818769,56.8419,-111.6262,2667.1,2255.8,105.3,-1.6,0.1,9.17,62.94,1.8981,382.7622],
    [24942,1532818770,56.8417,-111.6251,2664.8,2253.9,105.6,-0.9,0.1,9.45,64.03,1.8974,382.8567],
    [24943,1532818771,56.8415,-111.6239,2662.7,2251.6,106.0,-0.1,0.4,9.48,63.06,1.9014,382.8567],
    [24944,1532818772,56.8413,-111.6227,2660.3,2249.3,106.1,0.4,0.1,10.12,61.2,1.9037,381.5721],
    [24945,1532818773,56.8411,-111.6214,2658.7,2248.6,105.8,0.8,-0.2,9.85,60.89,1.9052,380.723],
    [24946,1532818774,56.841,-111.6202,2657.9,2249.9,105.8,1.1,-0.3,9.61,60.23,1.9051,382.479],
    [24947,1532818775,56.8408,-111.619,2657.2,2248.7,105.4,1.3,-0.8,10.15,59.51,1.8987,382.218],
    [24948,1532818776,56.8406,-111.6178,2656.5,2247.8,105.3,1.4,-0.9,10.22,59.88,1.8966,383.6046],
    [24949,1532818777,56.8404,-111.6165,2655.8,2246.8,105.7,1.7,-0.6,9.56,60.25,1.8974,382.3086],
    [24950,1532818778,56.8402,-111.6153,2655.6,2247.6,106.2,2.4,-0.6,10.1,59.04,1.8983,383.1614],
    [24951,1532818779,56.84,-111.6141,2655.4,2247.4,106.7,2.6,-0.9,9.45,58.4,1.8965,383.1037],
    [24952,1532818780,56.8398,-111.6128,2655.1,2247.4,107.8,2.8,-1.0,9.67,56.84,1.8961,382.4987],
    [24953,1532818781,56.8396,-111.6116,2654.9,2247.9,109.8,3.1,-0.6,9.66,55.8,1.9029,383.8484],
    [24954,1532818782,56.8393,-111.6104,2654.4,2247.4,111.6,2.9,-0.7,9.36,55.26,1.9089,381.396],
    [24955,1532818783,56.839,-111.6092,2654.2,2247.2,114.0,3.1,-0.5,9.77,54.04,1.9084,382.3461],
    [24956,1532818784,56.8387,-111.608,2654.6,2247.6,116.6,3.4,-0.2,9.34,54.64,1.9085,382.5623],
    [24957,1532818785,56.8384,-111.6068,2655.5,2248.5,118.8,3.8,-0.1,9.66,55.2,1.9103,381.7581],
    [24958,1532818786,56.8381,-111.6057,2656.8,2249.8,121.0,3.7,0.1,8.97,57.26,1.9101,381.8301],
    [24959,1532818787,56.8377,-111.6045,2658.9,2251.9,122.6,3.4,0.1,9.38,58.92,1.9091,381.6429],
    [24960,1532818788,56.8373,-111.6034,2661.7,2254.7,124.3,3.4,0.1,9.41,60.39,1.9093,381.689],
    [24961,1532818789,56.8369,-111.6024,2665.1,2258.5,125.2,3.0,-0.4,10.13,61.15,1.9084,381.967],
    [24962,1532818790,56.8365,-111.6013,2668.6,2262.6,126.7,3.1,0.1,9.53,62.65,1.9072,381.3593],
    [24963,1532818791,56.8361,-111.6003,2671.6,2265.6,127.9,2.8,0.5,9.48,63.85,1.9083,380.84],
    [24964,1532818792,56.8357,-111.5992,2674.2,2268.2,128.8,2.7,0.6,9.19,63.99,1.9078,381.0932],
    [24965,1532818793,56.8353,-111.5982,2676.9,2271.9,130.1,3.1,1.1,9.41,64.37,1.9078,379.6255],
    [24966,1532818794,56.8348,-111.5972,2679.8,2274.8,131.0,3.4,1.2,10.34,63.87,1.9062,380.971],
    [24967,1532818795,56.8344,-111.5962,2682.0,2277.0,130.7,3.1,0.5,9.49,65.63,1.9071,379.8388],
    [24968,1532818796,56.834,-111.5952,2683.1,2278.5,130.6,3.4,0.2,9.46,65.01,1.9082,380.0545],
    [24969,1532818797,56.8335,-111.5942,2683.3,2279.3,131.2,4.5,0.2,9.88,65.43,1.9097,378.3394],
    [24970,1532818798,56.8331,-111.5933,2682.7,2278.7,131.4,5.5,-0.3,9.59,66.35,1.9082,380.2298],
    [24971,1532818799,56.8326,-111.5922,2681.7,2277.7,130.6,5.4,-1.7,8.83,66.83,1.9065,378.8845],
    [24972,1532818800,56.8322,-111.5912,2681.2,2278.2,130.2,5.8,-2.5,10.32,66.81,1.9079,380.4585],
    [24973,1532818801,56.8317,-111.5902,2680.8,2278.8,130.7,7.0,-2.6,9.7,67.68,1.9068,380.6609],
    [24974,1532818802,56.8313,-111.5891,2680.6,2278.6,131.1,7.8,-2.9,9.27,68.52,1.9077,379.5051],
    [24975,1532818803,56.8308,-111.5881,2680.6,2277.9,131.5,8.4,-3.0,9.63,68.67,1.9073,379.5051],
    [24976,1532818804,56.8304,-111.5871,2680.4,2277.4,132.3,9.0,-3.1,10.22,68.36,1.9069,380.1395],
    [24977,1532818805,56.8299,-111.5861,2680.3,2277.2,132.0,8.9,-4.2,9.52,69.49,1.9085,379.9232],
    [24978,1532818806,56.8294,-111.5851,2680.6,2277.6,133.3,9.9,-3.6,9.39,69.41,1.9095,379.4447],
    [24979,1532818807,56.8289,-111.5841,2681.4,2279.3,134.0,10.5,-4.2,9.09,70.62,1.909,379.7094],
    [24980,1532818808,56.8285,-111.5831,2682.7,2280.6,134.0,11.2,-5.5,9.3,71.5,1.9072,380.995],
    [24981,1532818809,56.828,-111.5821,2684.0,2282.0,134.9,12.2,-6.0,9.2,73.22,1.9071,379.5468],
    [24982,1532818810,56.8275,-111.5811,2685.4,2284.4,135.4,12.6,-6.5,9.72,73.66,1.9054,380.6872],
    [24983,1532818811,56.827,-111.58,2687.1,2287.1,135.5,12.8,-7.2,9.34,74.95,1.9067,380.6972],
    [24984,1532818812,56.8265,-111.5791,2688.5,2289.5,135.7,13.2,-7.5,9.46,73.92,1.9054,380.425],
    [24985,1532818813,56.826,-111.5781,2689.5,2291.5,136.5,13.6,-7.3,9.3,74.4,1.9068,380.9952],
    [24986,1532818814,56.8255,-111.5771,2690.3,2293.3,136.4,13.2,-7.8,8.74,73.41,1.911,379.676],
    [24987,1532818815,56.825,-111.5762,2690.9,2294.2,136.4,12.8,-7.8,9.5,72.88,1.9115,379.8357],
    [24988,1532818816,56.8245,-111.5752,2691.1,2296.2,136.9,12.5,-7.4,10.09,74.25,1.9109,379.9587],
    [24989,1532818817,56.824,-111.5743,2690.8,2297.1,137.2,12.4,-7.4,9.27,78.72,1.9083,379.8847],
    [24990,1532818818,56.8235,-111.5733,2690.2,2300.7,137.8,12.4,-7.3,8.78,80.83,1.9085,379.8798],
    [24991,1532818819,56.8229,-111.5724,2689.4,2299.4,138.2,12.3,-7.3,9.84,82.2,1.9093,379.9703],
    [24992,1532818820,56.8224,-111.5715,2688.5,2295.6,138.8,12.5,-7.3,9.41,84.12,1.9101,380.2946],
    [24993,1532818821,56.8219,-111.5705,2687.3,2292.3,138.6,12.3,-7.9,9.22,84.92,1.9105,379.8009],
    [24994,1532818822,56.8214,-111.5696,2686.3,2290.6,138.4,12.4,-8.1,9.52,84.88,1.9093,380.2753],
    [24995,1532818823,56.8209,-111.5687,2685.1,2287.8,139.0,13.0,-7.6,8.88,85.76,1.909,380.4714],
    [24996,1532818824,56.8204,-111.5678,2683.6,2284.5,138.9,12.9,-7.7,9.15,86.3,1.9093,380.612],
    [24997,1532818825,56.8198,-111.5668,2682.0,2283.0,138.5,12.5,-8.0,9.23,86.88,1.9086,379.3494],
    [24998,1532818826,56.8193,-111.5659,2681.1,2283.0,138.9,12.7,-7.5,8.58,87.29,1.9071,379.6016],
    [24999,1532818827,56.8188,-111.565,2680.2,2282.9,139.3,12.7,-7.1,9.52,87.04,1.9073,380.169],
    [25000,1532818828,56.8183,-111.564,2679.1,2282.2,139.1,12.4,-7.1,9.41,87.29,1.9105,379.939],
    [25001,1532818829,56.8178,-111.5631,2678.5,2282.5,139.3,12.4,-6.5,9.0,87.53,1.9101,380.1713],
    [25002,1532818830,56.8172,-111.5622,2678.2,2284.2,139.2,12.0,-6.4,9.45,87.8,1.9093,379.8973],
    [25003,1532818831,56.8167,-111.5613,2677.7,2284.7,139.4,11.7,-6.1,9.57,87.66,1.9071,381.1736],
    [25004,1532818832,56.8162,-111.5603,2677.7,2285.7,139.7,11.4,-5.9,9.18,87.3,1.9072,379.864],
    [25005,1532818833,56.8157,-111.5594,2678.3,2287.3,139.9,11.1,-5.9,9.01,86.8,1.9079,380.7047],
    [25006,1532818834,56.8151,-111.5585,2679.0,2288.0,140.0,10.8,-5.8,8.69,85.98,1.9083,379.9728],
    [25007,1532818835,56.8146,-111.5576,2679.0,2288.0,140.3,10.6,-5.9,9.18,85.01,1.9081,380.02],
    [25008,1532818836,56.8141,-111.5567,2679.1,2288.1,141.0,10.5,-5.8,8.96,84.87,1.9082,380.5625],
    [25009,1532818837,56.8135,-111.5558,2679.8,2289.8,141.8,10.1,-5.4,9.22,85.47,1.9097,380.0582],
    [25010,1532818838,56.813,-111.555,2681.0,2291.0,142.9,10.0,-5.0,9.31,85.68,1.9133,380.1737],
    [25011,1532818839,56.8124,-111.5541,2682.7,2292.7,143.1,9.5,-5.0,9.27,85.76,1.9131,380.6064],
    [25012,1532818840,56.8119,-111.5532,2685.1,2295.1,143.8,9.4,-4.6,9.17,87.68,1.9113,380.1684],
    [25013,1532818841,56.8113,-111.5524,2688.1,2299.1,143.9,8.7,-4.5,9.3,89.01,1.9125,379.7715],
    [25014,1532818842,56.8108,-111.5516,2691.6,2304.1,143.4,7.6,-4.8,9.68,90.02,1.9147,379.3106],
    [25015,1532818843,56.8102,-111.5508,2694.4,2307.3,144.2,8.1,-4.0,9.46,91.63,1.9138,379.3693],
    [25016,1532818844,56.8097,-111.55,2696.0,2309.0,144.3,7.7,-3.9,9.26,92.68,1.9135,380.5734],
    [25017,1532818845,56.8091,-111.5492,2697.0,2309.3,143.6,6.9,-4.3,9.31,93.82,1.9123,379.3836],
    [25018,1532818846,56.8086,-111.5484,2697.7,2309.6,144.2,7.2,-3.7,9.85,94.92,1.9136,379.3836],
    [25019,1532818847,56.808,-111.5477,2698.0,2310.0,144.7,6.9,-3.2,9.98,95.45,1.9103,380.1107],
    [25020,1532818848,56.8075,-111.5469,2698.7,2312.0,144.6,6.1,-2.7,9.07,96.1,1.9095,379.6677],
    [25021,1532818849,56.807,-111.5461,2700.3,2314.2,144.9,5.8,-2.1,9.47,95.46,1.9085,379.7844],
    [25022,1532818850,56.8064,-111.5453,2701.7,2316.8,145.4,5.6,-1.4,8.87,94.41,1.913,379.8347],
    [25023,1532818851,56.8059,-111.5446,2703.6,2318.6,145.6,5.2,-0.8,8.83,93.21,1.9128,379.3928],
    [25024,1532818852,56.8053,-111.5438,2705.8,2320.8,145.5,4.4,-0.1,9.62,93.44,1.9113,379.08],
    [25025,1532818853,56.8048,-111.5431,2707.2,2322.1,145.1,3.6,0.3,10.4,92.74,1.9116,380.1791],
    [25026,1532818854,56.8043,-111.5424,2707.8,2323.8,145.3,3.3,1.0,10.1,93.23,1.9119,380.032],
    [25027,1532818855,56.8038,-111.5417,2707.8,2323.1,145.8,3.3,1.9,9.6,93.48,1.9114,379.389],
    [25028,1532818856,56.8033,-111.541,2706.9,2322.5,145.8,2.7,2.2,9.78,93.48,1.9129,378.7486],
    [25029,1532818857,56.8028,-111.5403,2705.2,2320.4,146.0,2.6,2.8,10.03,93.22,1.9129,378.8301],
    [25030,1532818858,56.8022,-111.5396,2702.5,2317.8,146.3,2.4,3.2,9.88,93.91,1.9135,379.6033],
    [25031,1532818859,56.8017,-111.5389,2699.4,2315.4,146.0,1.9,2.9,9.53,93.55,1.9122,378.6145],
    [25032,1532818860,56.8012,-111.5382,2696.0,2311.9,146.3,1.8,3.1,10.3,93.09,1.913,379.182],
    [25033,1532818861,56.8007,-111.5375,2692.3,2309.2,146.8,2.0,3.5,10.52,93.56,1.9138,378.6557],
    [25034,1532818862,56.8002,-111.5368,2688.2,2306.3,147.6,2.2,3.9,9.86,94.48,1.9136,378.6733],
    [25035,1532818863,56.7996,-111.5361,2683.6,2301.9,148.5,2.8,3.8,9.84,95.19,1.9137,379.0816],
    [25036,1532818864,56.7991,-111.5354,2678.9,2297.2,149.9,3.6,3.9,9.69,96.07,1.9144,377.8724],
    [25037,1532818865,56.7986,-111.5348,2674.0,2291.9,150.6,3.7,3.6,10.03,96.92,1.9152,378.057],
    [25038,1532818866,56.798,-111.5342,2669.2,2287.1,151.2,3.8,3.4,10.35,97.37,1.9134,379.4336],
    [25039,1532818867,56.7975,-111.5335,2664.3,2283.2,151.5,4.2,2.8,10.15,98.36,1.9128,376.9397],
    [25040,1532818868,56.797,-111.5329,2659.2,2277.2,151.4,4.4,2.2,10.57,97.83,1.9114,378.3619],
    [25041,1532818869,56.7964,-111.5323,2653.1,2271.3,150.6,3.9,1.5,10.2,98.47,1.9118,378.3619],
    [25042,1532818870,56.7959,-111.5316,2646.4,2264.8,150.5,4.1,1.4,10.35,97.07,1.9121,378.6253],
    [25043,1532818871,56.7953,-111.531,2639.2,2257.1,150.5,4.6,0.9,10.28,96.12,1.9124,378.7433],
    [25044,1532818872,56.7948,-111.5304,2631.7,2249.7,150.2,4.6,0.1,10.0,96.1,1.9136,378.7568],
    [25045,1532818873,56.7943,-111.5297,2624.0,2241.9,150.0,4.3,0.7,10.3,95.82,1.9161,378.6366],
    [25046,1532818874,56.7937,-111.5291,2616.7,2234.7,150.3,4.6,0.7,10.43,96.4,1.9169,378.7379],
    [25047,1532818875,56.7932,-111.5284,2610.1,2228.1,150.4,4.7,0.5,9.87,96.78,1.9183,378.3169],
    [25048,1532818876,56.7926,-111.5278,2604.3,2222.2,150.3,4.8,0.4,10.31,98.26,1.9184,377.8617],
    [25049,1532818877,56.7921,-111.5271,2598.8,2216.8,150.1,5.0,0.0,10.62,98.55,1.9167,377.6896],
    [25050,1532818878,56.7915,-111.5264,2593.1,2211.9,149.9,5.0,0.0,10.2,99.38,1.9169,379.673],
    [25051,1532818879,56.7909,-111.5258,2587.6,2206.6,149.6,5.0,-0.2,10.56,99.69,1.9168,378.0165],
    [25052,1532818880,56.7904,-111.5251,2582.2,2201.2,149.4,5.4,-0.9,10.68,99.94,1.917,379.153],
    [25053,1532818881,56.7898,-111.5244,2577.1,2196.1,149.3,5.9,-1.6,10.72,99.63,1.9168,379.133],
    [25054,1532818882,56.7893,-111.5237,2572.9,2191.9,149.2,6.1,-1.7,10.6,99.78,1.9207,378.1591],
    [25055,1532818883,56.7887,-111.5231,2569.5,2189.6,149.0,5.9,-1.8,10.01,100.27,1.9186,377.8838],
    [25056,1532818884,56.7882,-111.5224,2566.9,2187.9,148.7,5.3,-1.1,10.16,99.96,1.9182,378.6904],
    [25057,1532818885,56.7876,-111.5217,2564.1,2185.7,148.9,5.7,-1.4,10.45,99.83,1.9157,379.2465],
    [25058,1532818886,56.7871,-111.521,2560.8,2182.8,148.5,6.1,-3.0,10.8,99.74,1.915,378.7287],
    [25059,1532818887,56.7865,-111.5203,2556.7,2178.7,148.1,5.9,-3.7,9.94,99.59,1.9131,378.4146],
    [25060,1532818888,56.786,-111.5196,2551.6,2172.6,148.5,6.1,-3.9,11.28,98.13,1.9108,379.2721],
    [25061,1532818889,56.7854,-111.5189,2546.0,2167.0,149.0,6.2,-4.1,11.32,96.18,1.9108,379.9397],
    [25062,1532818890,56.7849,-111.5183,2540.1,2161.8,149.7,6.1,-3.9,10.68,93.79,1.914,378.0236],
    [25063,1532818891,56.7843,-111.5176,2534.2,2156.2,150.4,5.9,-3.3,10.53,93.14,1.9133,378.0236],
    [25064,1532818892,56.7837,-111.517,2528.5,2150.5,151.4,6.4,-3.0,10.84,91.48,1.9141,378.5036],
    [25065,1532818893,56.7831,-111.5163,2523.1,2145.1,151.3,6.2,-3.4,11.1,91.39,1.9138,377.8044],
    [25066,1532818894,56.7826,-111.5157,2518.3,2140.3,151.5,6.5,-3.1,10.32,92.16,1.9154,378.3307],
    [25067,1532818895,56.782,-111.515,2513.3,2136.3,151.4,6.3,-3.0,10.6,91.75,1.9153,378.7427],
    [25068,1532818896,56.7814,-111.5144,2508.2,2131.2,150.4,5.8,-3.2,10.98,92.32,1.9147,378.922],
    [25069,1532818897,56.7809,-111.5137,2502.6,2125.6,150.4,6.5,-3.3,10.65,92.52,1.9152,378.2634],
    [25070,1532818898,56.7803,-111.5131,2496.9,2120.9,149.8,6.6,-3.8,10.75,92.59,1.9158,378.9184],
    [25071,1532818899,56.7797,-111.5124,2490.6,2114.6,149.2,7.0,-4.3,10.9,93.05,1.9152,377.9525],
    [25072,1532818900,56.7791,-111.5117,2484.1,2108.1,148.7,7.3,-4.8,11.18,92.76,1.9148,379.0244],
    [25073,1532818901,56.7786,-111.5109,2477.6,2101.6,147.9,7.1,-5.1,11.86,92.14,1.9152,378.2905],
    [25074,1532818902,56.778,-111.5102,2471.7,2096.0,147.1,7.2,-5.7,10.68,92.64,1.9154,379.4482],
    [25075,1532818903,56.7774,-111.5095,2466.5,2091.5,146.6,7.7,-6.3,10.95,91.83,1.9142,378.8701],
    [25076,1532818904,56.7769,-111.5087,2461.8,2086.8,146.2,8.3,-6.9,10.56,90.72,1.9142,378.1328],
    [25077,1532818905,56.7763,-111.508,2457.4,2082.4,145.8,8.8,-7.7,10.99,90.53,1.9126,379.72],
    [25078,1532818906,56.7757,-111.5072,2453.5,2078.5,145.6,9.3,-8.0,11.31,88.48,1.9133,378.3245],
    [25079,1532818907,56.7752,-111.5065,2450.5,2076.4,145.4,9.7,-8.4,11.29,87.35,1.9119,379.2552],
    [25080,1532818908,56.7746,-111.5057,2448.4,2074.3,145.3,10.0,-8.5,11.4,86.88,1.9123,379.2552],
    [25081,1532818909,56.7741,-111.5049,2446.8,2072.8,145.7,10.4,-7.8,10.97,86.11,1.912,379.6299],
    [25082,1532818910,56.7735,-111.5042,2445.6,2071.7,145.5,10.0,-7.3,10.97,85.52,1.9109,379.322],
    [25083,1532818911,56.773,-111.5034,2444.8,2070.9,144.8,9.5,-7.0,11.16,83.63,1.9101,378.7371],
    [25084,1532818912,56.7724,-111.5026,2443.9,2070.8,144.1,8.8,-6.7,11.42,80.92,1.9097,379.1974],
    [25085,1532818913,56.7719,-111.5019,2442.4,2069.3,143.1,8.2,-6.9,11.52,78.16,1.9111,379.5915],
    [25086,1532818914,56.7714,-111.5011,2440.9,2067.9,143.3,8.0,-5.2,11.13,77.29,1.9136,378.6371],
    [25087,1532818915,56.7709,-111.5003,2438.6,2065.6,143.0,7.3,-4.3,11.33,77.17,1.9163,379.1894],
    [25088,1532818916,56.7703,-111.4995,2435.5,2062.5,141.9,6.7,-4.0,11.2,78.28,1.9163,378.8598],
    [25089,1532818917,56.7698,-111.4988,2431.4,2059.3,141.8,7.2,-3.5,10.9,81.1,1.9169,379.2348],
    [25090,1532818918,56.7693,-111.4979,2426.6,2054.7,140.9,7.8,-4.2,11.32,83.2,1.9187,378.1847],
    [25091,1532818919,56.7688,-111.4971,2422.8,2051.8,140.7,9.1,-4.4,11.25,85.21,1.917,379.1888],
    [25092,1532818920,56.7683,-111.4963,2420.1,2049.1,140.5,9.8,-3.8,11.36,85.71,1.9173,379.247],
    [25093,1532818921,56.7679,-111.4954,2418.6,2047.6,139.1,8.9,-3.5,11.21,86.35,1.9175,379.5084],
    [25094,1532818922,56.7674,-111.4946,2417.2,2046.2,137.7,8.3,-3.5,10.55,86.91,1.9162,379.5084],
    [25095,1532818923,56.7669,-111.4937,2416.3,2045.0,137.6,8.6,-2.6,11.2,86.46,1.9165,379.2551],
    [25096,1532818924,56.7665,-111.4929,2415.5,2043.4,138.6,9.3,-1.4,11.5,87.06,1.9172,379.057],
    [25097,1532818925,56.766,-111.492,2414.1,2041.8,138.5,8.9,-1.9,11.8,85.11,1.9168,379.0405],
    [25098,1532818926,56.7655,-111.4911,2412.3,2039.3,138.1,8.8,-2.6,11.21,85.35,1.9174,378.5791],
    [25099,1532818927,56.7651,-111.4902,2410.5,2037.5,138.4,9.2,-2.7,11.48,85.57,1.915,378.6487],
    [25100,1532818928,56.7646,-111.4894,2408.8,2035.8,138.6,9.5,-2.5,11.01,85.59,1.9151,377.4323],
    [25101,1532818929,56.7641,-111.4885,2406.7,2033.7,140.6,10.5,-1.2,11.74,85.88,1.9151,378.8404],
    [25102,1532818930,56.7637,-111.4877,2403.5,2030.5,141.2,10.3,-1.1,11.41,85.75,1.9147,378.7507],
    [25103,1532818931,56.7632,-111.4868,2399.6,2026.6,142.9,11.1,-0.1,11.39,84.42,1.9127,378.8315],
    [25104,1532818932,56.7627,-111.486,2395.1,2022.1,144.5,11.7,0.7,11.22,82.43,1.9118,378.8315],
    [25105,1532818933,56.7623,-111.4852,2389.7,2016.7,143.8,10.5,0.5,12.11,79.12,1.9127,379.4211],
    [25106,1532818934,56.7618,-111.4844,2383.7,2011.7,144.0,10.4,0.4,11.81,78.12,1.9139,379.0715],
    [25107,1532818935,56.7613,-111.4836,2377.9,2006.9,143.6,10.2,-0.5,11.63,77.52,1.9141,380.1025],
    [25108,1532818936,56.7608,-111.4828,2373.4,2003.4,143.9,11.1,-0.6,12.22,76.25,1.9146,378.7886],
    [25109,1532818937,56.7603,-111.482,2369.6,1999.6,144.8,11.6,-0.2,12.11,76.06,1.9145,379.1938],
    [25110,1532818938,56.7598,-111.4812,2366.3,1997.3,143.8,11.1,-0.6,11.69,76.94,1.9144,378.7956],
    [25111,1532818939,56.7593,-111.4803,2363.1,1995.1,143.3,11.1,-0.6,12.09,77.71,1.914,378.4431],
    [25112,1532818940,56.7589,-111.4795,2359.7,1992.7,143.0,11.7,-0.7,12.4,77.99,1.9145,377.6537],
    [25113,1532818941,56.7584,-111.4786,2356.6,1989.6,142.5,12.0,-1.0,11.26,78.94,1.9155,377.8433],
    [25114,1532818942,56.7579,-111.4778,2353.5,1986.5,141.4,11.7,-1.3,11.59,80.11,1.9152,378.0076],
    [25115,1532818943,56.7575,-111.4769,2350.9,1983.9,141.7,12.4,-0.7,11.86,79.83,1.9146,378.5138],
    [25116,1532818944,56.757,-111.4761,2348.3,1982.3,140.7,11.6,-0.7,11.69,80.52,1.9159,379.2407],
    [25117,1532818945,56.7566,-111.4752,2346.3,1981.6,140.1,11.4,-0.6,11.6,81.79,1.915,379.0552],
    [25118,1532818946,56.7561,-111.4744,2345.4,1982.5,139.1,10.8,-1.0,11.87,81.21,1.9138,378.7969],
    [25119,1532818947,56.7557,-111.4735,2345.3,1983.3,138.9,10.6,-0.6,12.38,79.17,1.9153,378.7647],
    [25120,1532818948,56.7552,-111.4726,2345.5,1984.6,139.4,10.7,0.5,11.92,79.07,1.9147,378.7148],
    [25121,1532818949,56.7548,-111.4718,2345.3,1985.5,139.1,10.1,0.8,12.46,77.49,1.9155,379.0292],
    [25122,1532818950,56.7544,-111.4709,2344.5,1985.5,138.0,9.6,0.6,11.93,78.57,1.9138,378.7038],
    [25123,1532818951,56.7539,-111.4701,2343.3,1984.3,138.0,9.7,1.1,12.06,78.96,1.9154,378.3947],
    [25124,1532818952,56.7535,-111.4692,2341.7,1982.6,137.4,9.1,1.3,11.77,79.09,1.915,378.5307],
    [25125,1532818953,56.7531,-111.4683,2339.9,1981.1,137.1,9.0,1.6,12.17,79.26,1.9151,379.9588],
    [25126,1532818954,56.7527,-111.4675,2338.3,1979.2,137.0,8.6,1.9,12.37,79.01,1.9152,379.2887],
    [25127,1532818955,56.7523,-111.4666,2335.9,1978.1,137.3,8.2,2.2,12.66,77.36,1.915,379.2887],
    [25128,1532818956,56.7519,-111.4658,2333.3,1974.8,137.8,8.2,2.3,12.24,76.53,1.9137,378.6601],
    [25129,1532818957,56.7515,-111.4649,2330.7,1972.3,138.8,8.3,2.9,11.69,74.51,1.9148,378.5074],
    [25130,1532818958,56.7511,-111.4641,2327.9,1969.6,139.7,8.1,3.2,12.1,73.91,1.915,379.0641],
    [25131,1532818959,56.7506,-111.4633,2324.9,1967.0,139.7,7.4,3.0,12.02,72.7,1.9149,379.4163],
    [25132,1532818960,56.7502,-111.4624,2322.6,1965.3,140.5,7.5,3.3,12.48,71.18,1.9141,378.109],
    [25133,1532818961,56.7498,-111.4616,2320.8,1963.6,141.5,8.0,4.1,13.29,70.08,1.916,377.0418],
    [25134,1532818962,56.7493,-111.4608,2318.4,1962.0,142.5,8.5,5.0,12.18,71.26,1.9169,380.2418],
    [25135,1532818963,56.7489,-111.46,2315.2,1959.8,142.2,8.1,4.5,12.65,71.31,1.9168,378.3244],
    [25136,1532818964,56.7485,-111.4592,2311.4,1956.7,142.0,7.7,4.5,12.54,72.86,1.9139,378.4845],
    [25137,1532818965,56.748,-111.4584,2307.5,1952.9,143.3,8.5,4.9,12.46,73.05,1.9155,378.2611],
    [25138,1532818966,56.7476,-111.4576,2303.2,1948.6,144.3,9.0,4.9,12.45,73.36,1.9169,379.2475],
    [25139,1532818967,56.7471,-111.4568,2299.0,1945.5,145.0,8.7,5.2,12.56,72.55,1.9154,379.2475],
    [25140,1532818968,56.7467,-111.4561,2295.3,1941.7,146.1,9.2,5.3,12.65,72.75,1.9165,378.2401],
    [25141,1532818969,56.7462,-111.4553,2292.2,1938.0,147.8,10.1,5.5,12.78,72.29,1.9167,377.6755],
    [25142,1532818970,56.7458,-111.4546,2288.8,1934.2,149.1,10.2,5.7,12.38,71.73,1.9176,378.5439],
    [25143,1532818971,56.7453,-111.4538,2284.5,1931.4,149.9,10.0,5.5,12.71,71.47,1.9169,377.7329],
    [25144,1532818972,56.7448,-111.4531,2280.3,1928.8,150.1,9.6,4.9,12.87,70.87,1.9147,380.1018],
    [25145,1532818973,56.7443,-111.4524,2275.9,1928.9,151.0,9.8,4.9,13.56,69.96,1.9146,380.1018],
    [25146,1532818974,56.7438,-111.4517,2271.1,1929.2,151.6,9.4,4.7,12.79,70.21,1.9134,378.0234],
    [25147,1532818975,56.7433,-111.451,2266.1,1932.0,152.2,9.4,4.6,13.01,70.5,1.9121,378.4128],
    [25148,1532818976,56.7428,-111.4504,2261.4,1931.4,154.4,11.0,4.5,12.72,69.29,1.9124,378.4128],
    [25149,1532818977,56.7423,-111.4497,2256.3,1930.3,154.7,10.7,3.2,13.02,68.31,1.9148,378.7117],
    [25150,1532818978,56.7417,-111.4491,2251.3,1924.6,155.7,11.2,2.8,12.53,67.81,1.9137,378.4565],
    [25151,1532818979,56.7412,-111.4485,2246.9,1914.2,157.5,11.7,2.7,12.98,67.55,1.915,378.7552],
    [25152,1532818980,56.7407,-111.4478,2242.6,1902.7,157.4,10.5,2.7,13.64,66.73,1.9153,378.3539],
    [25153,1532818981,56.7402,-111.4473,2239.3,1892.9,158.8,10.3,4.0,13.9,66.17,1.9151,378.1193],
    [25154,1532818982,56.7396,-111.4467,2236.7,1887.4,159.6,9.9,4.6,13.58,66.07,1.9143,378.1193],
    [25155,1532818983,56.7391,-111.4462,2234.5,1886.2,159.2,8.9,4.4,12.78,66.0,1.9147,378.3967],
    [25156,1532818984,56.7386,-111.4456,2232.4,1886.3,158.9,8.4,4.4,13.74,65.57,1.9147,377.9849],
    [25157,1532818985,56.738,-111.4451,2229.6,1888.5,159.1,8.8,4.4,12.56,65.25,1.9144,376.9244],
    [25158,1532818986,56.7375,-111.4445,2226.5,1893.4,159.6,9.3,5.0,13.66,64.62,1.9153,378.324],
    [25159,1532818987,56.737,-111.444,2223.2,1894.2,159.4,8.9,5.0,13.86,63.75,1.9156,378.733],
    [25160,1532818988,56.7364,-111.4435,2219.3,1897.2,159.0,8.5,5.3,13.75,63.95,1.9148,378.733],
    [25161,1532818989,56.7359,-111.4429,2215.4,1896.5,158.4,8.0,5.0,13.03,63.12,1.9142,378.4697],
    [25162,1532818990,56.7353,-111.4423,2211.4,1890.1,156.6,6.9,3.5,13.59,63.02,1.9143,377.7731],
    [25163,1532818991,56.7348,-111.4418,2208.1,1878.6,153.9,5.4,2.7,14.04,61.37,1.9139,378.287],
    [25164,1532818992,56.7343,-111.4412,2204.9,1865.8,152.6,5.3,2.9,13.59,61.89,1.913,377.0872],
    [25165,1532818993,56.7338,-111.4406,2200.9,1856.7,150.8,4.9,2.7,12.92,61.65,1.9126,378.5321],
    [25166,1532818994,56.7333,-111.4399,2196.0,1848.3,149.0,5.3,1.8,13.4,61.16,1.9133,377.6538],
    [25167,1532818995,56.7328,-111.4393,2189.9,1840.9,147.4,5.6,0.8,13.77,60.72,1.9121,379.1465],
    [25168,1532818996,56.7323,-111.4386,2182.8,1832.1,146.5,6.4,-0.1,14.02,59.94,1.9118,377.9913],
    [25169,1532818997,56.7318,-111.4379,2175.9,1824.6,145.5,6.7,-1.0,13.95,59.82,1.9115,377.7549],
    [25170,1532818998,56.7313,-111.4372,2169.4,1817.4,144.6,7.0,-1.9,13.89,59.38,1.9116,377.7309],
    [25171,1532818999,56.7308,-111.4364,2163.4,1810.4,144.1,7.4,-2.5,14.84,58.77,1.9116,378.2617],
    [25172,1532819000,56.7304,-111.4357,2157.5,1804.5,143.9,7.9,-3.3,14.54,58.66,1.9106,377.559],
    [25173,1532819001,56.7299,-111.435,2151.3,1798.3,143.6,8.2,-3.5,13.43,58.89,1.9112,379.2037],
    [25174,1532819002,56.7294,-111.4342,2145.2,1792.2,144.2,8.2,-2.9,13.41,58.59,1.9129,379.2037],
    [25175,1532819003,56.7289,-111.4335,2139.6,1787.6,143.8,7.9,-3.6,13.98,58.28,1.9124,378.6508],
    [25176,1532819004,56.7284,-111.4327,2133.8,1781.8,144.5,7.9,-2.8,14.05,58.26,1.9133,379.1827],
    [25177,1532819005,56.7279,-111.432,2127.8,1775.8,145.0,7.8,-2.1,13.89,57.94,1.914,378.487],
    [25178,1532819006,56.7274,-111.4312,2121.7,1769.7,145.1,7.7,-2.0,14.24,57.49,1.9145,377.8521],
    [25179,1532819007,56.7269,-111.4305,2115.9,1764.9,145.3,7.8,-2.0,14.37,57.1,1.9135,376.479],
    [25180,1532819008,56.7264,-111.4298,2110.4,1760.4,145.2,7.5,-1.8,14.24,57.62,1.9137,378.5042],
    [25181,1532819009,56.7259,-111.429,2105.5,1756.6,145.8,7.7,-0.8,14.92,56.72,1.9134,378.5545],
    [25182,1532819010,56.7254,-111.4283,2101.4,1754.4,145.9,7.6,-0.8,14.3,56.92,1.9141,378.7541],
    [25183,1532819011,56.7249,-111.4275,2097.3,1754.9,145.4,6.8,-0.7,14.29,57.19,1.9126,379.1012],
    [25184,1532819012,56.7243,-111.4268,2092.8,1759.5,145.8,7.2,-0.6,14.66,55.83,1.9138,379.4417],
    [25185,1532819013,56.7238,-111.426,2088.0,1768.0,145.8,7.7,-1.7,14.69,55.84,1.9145,378.1584],
    [25186,1532819014,56.7233,-111.4253,2083.8,1780.2,145.9,8.4,-2.6,14.23,55.85,1.9148,379.5019],
    [25187,1532819015,56.7228,-111.4246,2079.3,1783.3,146.3,8.6,-2.5,14.12,55.64,1.9121,379.5019],
    [25188,1532819016,56.7223,-111.4238,2074.3,1794.8,146.9,8.1,-1.6,14.77,55.22,1.9143,378.8122],
    [25189,1532819017,56.7218,-111.4231,2069.3,1807.4,146.8,7.7,-2.4,14.63,55.79,1.9131,378.6313],
    [25190,1532819018,56.7212,-111.4224,2064.5,1817.2,145.9,6.5,-3.5,14.66,55.55,1.9135,378.6619],
    [25191,1532819019,56.7207,-111.4217,2060.5,1818.1,144.0,5.2,-4.8,15.17,54.52,1.9119,377.5558],
    [25192,1532819020,56.7202,-111.421,2057.3,1817.4,143.8,5.7,-4.8,14.72,54.48,1.9115,378.5103],
    [25193,1532819021,56.7197,-111.4203,2054.5,1814.5,142.6,4.6,-4.8,14.68,54.18,1.912,379.209],
    [25194,1532819022,56.7192,-111.4195,2051.8,1812.9,140.8,3.3,-5.1,15.04,53.59,1.912,379.1],
    [25195,1532819023,56.7187,-111.4188,2048.5,1808.5,140.5,3.2,-4.8,14.4,53.88,1.9112,378.6703],
    [25196,1532819024,56.7182,-111.4181,2043.6,1802.0,139.9,3.0,-5.0,15.4,53.15,1.9123,379.359],
    [25197,1532819025,56.7177,-111.4173,2037.7,1793.1,139.2,2.6,-5.8,14.92,53.38,1.9128,379.3662],
    [25198,1532819026,56.7172,-111.4166,2031.2,1783.1,139.3,2.7,-5.7,14.6,52.83,1.9132,380.2663],
    [25199,1532819027,56.7167,-111.4158,2024.8,1776.4,139.3,2.8,-6.0,15.54,52.19,1.9131,378.7979],
    [25200,1532819028,56.7162,-111.4151,2018.4,1767.4,138.8,2.3,-6.4,15.18,52.73,1.9135,379.3829],
    [25201,1532819029,56.7157,-111.4143,2011.7,1759.1,140.0,3.3,-5.4,14.43,52.75,1.9135,378.0037],
    [25202,1532819030,56.7152,-111.4136,2005.2,1750.9,140.0,3.3,-5.5,14.96,52.77,1.9128,379.5912],
    [25203,1532819031,56.7147,-111.4129,1999.1,1743.1,140.0,3.3,-6.0,15.55,52.13,1.9142,378.3159],
    [25204,1532819032,56.7142,-111.4121,1993.6,1736.2,140.8,3.4,-5.2,15.0,52.55,1.9172,378.3589],
    [25205,1532819033,56.7137,-111.4114,1988.9,1727.9,141.3,3.6,-4.1,14.98,52.89,1.9155,379.188],
    [25206,1532819034,56.7132,-111.4106,1984.5,1718.4,141.1,3.4,-4.1,14.86,52.53,1.9153,378.3877],
    [25207,1532819035,56.7127,-111.4099,1981.1,1706.1,138.5,1.9,-4.9,15.13,52.54,1.9141,379.0473],
    [25208,1532819036,56.7122,-111.4091,1978.2,1693.2,137.9,1.6,-4.1,15.36,53.04,1.9163,378.5408],
    [25209,1532819037,56.7117,-111.4083,1977.0,1686.0,135.3,0.5,-4.9,15.51,52.78,1.9171,379.4144],
    [25210,1532819038,56.7112,-111.4075,1976.6,1676.6,134.3,0.5,-4.3,15.11,52.15,1.9157,378.1356],
    [25211,1532819039,56.7107,-111.4067,1976.0,1666.8,133.3,0.2,-3.4,15.92,51.73,1.9142,378.2995],
    [25212,1532819040,56.7103,-111.4059,1975.0,1659.9,132.0,-0.4,-3.9,15.48,52.01,1.9155,377.8474],
    [25213,1532819041,56.7098,-111.405,1973.7,1652.1,130.1,-0.8,-4.9,15.53,52.09,1.9142,378.0375],
    [25214,1532819042,56.7094,-111.4042,1971.6,1647.3,131.1,0.0,-3.8,15.61,51.79,1.9148,378.8074],
    [25215,1532819043,56.709,-111.4034,1969.4,1649.8,130.3,-0.4,-4.2,15.63,52.06,1.9139,378.6202],
    [25216,1532819044,56.7086,-111.4026,1966.5,1648.5,130.1,0.1,-4.4,15.41,51.47,1.9147,376.9792],
    [25217,1532819045,56.7081,-111.4017,1963.3,1652.6,129.2,-0.3,-5.0,16.06,51.27,1.9155,377.8727],
    [25218,1532819046,56.7077,-111.4009,1959.4,1652.0,128.7,0.0,-5.3,16.22,50.63,1.9149,377.8727],
    [25219,1532819047,56.7073,-111.4001,1953.4,1654.9,129.1,0.7,-5.0,15.54,51.24,1.9145,378.2779],
    [25220,1532819048,56.7069,-111.3992,1945.8,1655.5,128.7,0.9,-5.4,15.62,51.13,1.9154,378.5642],
    [25221,1532819049,56.7064,-111.3983,1937.6,1662.0,128.4,1.5,-5.9,15.63,50.91,1.9148,377.842],
    [25222,1532819050,56.706,-111.3974,1929.5,1664.0,127.8,2.0,-6.2,15.29,51.15,1.9153,377.6161],
    [25223,1532819051,56.7056,-111.3965,1921.8,1663.5,127.4,3.0,-6.1,15.94,51.26,1.9149,377.0015],
    [25224,1532819052,56.7052,-111.3956,1914.6,1658.5,125.7,2.5,-6.4,15.71,51.31,1.9153,377.9199],
    [25225,1532819053,56.7048,-111.3947,1907.5,1652.5,124.1,2.0,-6.3,16.02,51.86,1.915,377.0139],
    [25226,1532819054,56.7044,-111.3937,1901.7,1647.7,122.3,1.8,-6.6,16.84,50.27,1.9155,377.5987],
    [25227,1532819055,56.704,-111.3928,1897.1,1642.4,121.5,1.8,-5.9,16.21,50.81,1.9158,378.5824],
    [25228,1532819056,56.7037,-111.3918,1892.9,1634.9,121.4,1.6,-4.7,15.98,50.95,1.9142,378.6712],
    [25229,1532819057,56.7033,-111.3908,1890.0,1622.3,121.1,1.5,-3.5,15.99,50.89,1.914,378.5542],
    [25230,1532819058,56.703,-111.3898,1887.8,1595.6,119.6,1.3,-3.7,16.02,50.47,1.9138,376.6383],
    [25231,1532819059,56.7027,-111.3889,1885.4,1570.7,116.8,0.6,-5.2,15.81,50.37,1.9137,376.6383],
    [25232,1532819060,56.7023,-111.3879,1882.2,1559.5,115.6,1.0,-5.4,16.96,49.14,1.9145,376.4936],
    [25233,1532819061,56.702,-111.3869,1879.0,1562.7,115.1,1.4,-4.8,16.15,49.84,1.9139,379.2454],
    [25234,1532819062,56.7017,-111.3858,1875.8,1569.8,112.6,0.4,-5.8,16.23,50.13,1.9148,379.2454],
    [25235,1532819063,56.7015,-111.3848,1872.0,1573.8,112.5,0.3,-4.4,16.85,49.14,1.9146,377.0806],
    [25236,1532819064,56.7012,-111.3838,1867.6,1576.6,111.4,-0.1,-4.5,16.47,49.19,1.9164,378.0111],
    [25237,1532819065,56.7009,-111.3827,1863.8,1578.7,109.4,-0.7,-5.5,16.61,49.47,1.9174,378.1409],
    [25238,1532819066,56.7007,-111.3817,1860.3,1582.4,108.7,-1.1,-5.4,17.36,48.66,1.9163,378.4406],
    [25239,1532819067,56.7004,-111.3806,1857.3,1587.9,108.0,-0.7,-5.7,16.96,49.13,1.9168,377.6759],
    [25240,1532819068,56.7002,-111.3796,1853.6,1586.6,107.5,-0.8,-5.7,16.49,49.01,1.9171,376.6114],
    [25241,1532819069,56.7,-111.3786,1849.0,1580.2,107.5,-0.6,-5.6,17.19,48.68,1.9179,375.8891],
    [25242,1532819070,56.6997,-111.3775,1843.6,1568.0,107.9,0.2,-5.1,16.76,48.96,1.9175,377.3741],
    [25243,1532819071,56.6995,-111.3764,1838.0,1543.1,107.9,0.0,-5.1,17.22,49.29,1.9164,377.3741],
    [25244,1532819072,56.6993,-111.3754,1832.2,1519.1,106.7,-0.3,-6.1,17.17,49.9,1.9182,377.9976],
    [25245,1532819073,56.6991,-111.3744,1826.0,1500.2,106.7,-0.8,-5.5,16.6,50.52,1.918,376.4668],
    [25246,1532819074,56.6988,-111.3733,1819.2,1482.8,107.1,-1.0,-5.0,17.56,50.1,1.918,378.3788],
    [25247,1532819075,56.6986,-111.3722,1812.9,1472.3,106.1,-0.8,-5.9,17.42,49.97,1.9173,378.3788],
    [25248,1532819076,56.6984,-111.3712,1806.8,1461.4,104.7,-0.6,-7.2,16.73,50.7,1.915,377.8165],
    [25249,1532819077,56.6982,-111.3701,1800.7,1453.1,104.2,-0.6,-6.9,17.35,50.09,1.9151,375.755],
    [25250,1532819078,56.698,-111.369,1794.8,1445.8,105.0,0.2,-5.1,16.62,49.58,1.9161,377.9561],
    [25251,1532819079,56.6978,-111.368,1789.4,1440.3,104.5,0.0,-4.9,17.88,49.01,1.9152,378.101],
    [25252,1532819080,56.6976,-111.3669,1784.5,1436.3,103.4,-0.4,-5.1,17.43,49.05,1.9154,376.8633],
    [25253,1532819081,56.6974,-111.3658,1779.1,1430.9,103.8,0.0,-4.6,17.62,49.17,1.9147,376.8633],
    [25254,1532819082,56.6972,-111.3647,1773.9,1425.9,103.3,0.4,-5.1,17.58,48.87,1.9177,377.7648],
    [25255,1532819083,56.697,-111.3636,1768.4,1420.4,103.6,1.0,-4.8,18.13,47.95,1.9162,377.1971],
    [25256,1532819084,56.6968,-111.3625,1762.9,1415.1,102.8,1.0,-5.3,17.34,48.0,1.915,377.9675],
    [25257,1532819085,56.6966,-111.3614,1757.8,1410.0,102.1,0.9,-5.3,17.68,47.95,1.915,378.3194],
    [25258,1532819086,56.6965,-111.3603,1752.2,1405.2,101.9,0.3,-5.1,17.78,48.78,1.9152,377.1192],
    [25259,1532819087,56.6963,-111.3592,1746.8,1399.8,101.1,0.4,-5.7,18.03,47.76,1.9155,378.1986],
    [25260,1532819088,56.6961,-111.3581,1742.8,1396.7,100.9,-0.1,-5.6,17.55,47.9,1.9168,378.0737],
    [25261,1532819089,56.696,-111.3571,1740.0,1394.9,99.8,-1.7,-6.1,18.42,47.45,1.9168,377.9034],
    [25262,1532819090,56.6958,-111.356,1738.0,1394.7,100.4,-2.1,-5.0,17.96,47.65,1.9162,377.8904],
    [25263,1532819091,56.6957,-111.3549,1736.5,1397.4,100.5,-1.2,-4.9,17.68,47.79,1.9158,376.8635],
    [25264,1532819092,56.6955,-111.3538,1734.5,1406.5,100.4,-0.6,-4.3,17.66,46.96,1.9153,377.3373],
    [25265,1532819093,56.6954,-111.3527,1731.0,1415.7,100.0,-0.8,-4.0,18.1,47.16,1.9152,377.4829],
    [25266,1532819094,56.6952,-111.3517,1726.1,1417.5,99.3,-0.3,-4.2,18.47,46.01,1.9165,378.739],
    [25267,1532819095,56.6951,-111.3506,1719.4,1421.2,99.0,0.2,-4.5,18.03,46.64,1.9159,377.9308],
    [25268,1532819096,56.695,-111.3495,1712.1,1420.8,97.3,0.3,-6.1,18.56,46.25,1.9153,378.8687],
    [25269,1532819097,56.6948,-111.3484,1703.4,1418.4,98.2,0.4,-5.0,17.85,46.32,1.9148,377.3888],
    [25270,1532819098,56.6947,-111.3473,1695.0,1409.3,97.9,0.6,-5.1,17.88,46.07,1.9145,377.1451],
    [25271,1532819099,56.6946,-111.3462,1686.6,1392.6,98.0,0.6,-4.7,18.52,45.99,1.9151,377.339],
    [25272,1532819100,56.6944,-111.3451,1679.1,1374.6,98.1,0.1,-4.5,18.61,46.3,1.916,379.056],
    [25273,1532819101,56.6943,-111.344,1672.5,1353.5,97.5,-0.2,-4.9,19.12,44.66,1.9141,378.8311],
    [25274,1532819102,56.6942,-111.3428,1666.6,1339.0,97.7,0.3,-4.7,18.46,44.81,1.9139,378.1709],
    [25275,1532819103,56.6941,-111.3417,1661.1,1328.0,97.0,0.3,-5.0,19.01,43.97,1.9148,378.8163],
    [25276,1532819104,56.6939,-111.3406,1655.1,1323.6,96.7,-0.1,-4.7,18.36,43.87,1.9174,377.8121],
    [25277,1532819105,56.6938,-111.3395,1649.1,1319.1,95.7,-1.1,-5.1,18.83,43.75,1.9204,377.8991],
    [25278,1532819106,56.6937,-111.3384,1643.3,1322.0,95.1,-1.4,-4.9,18.74,43.98,1.9213,377.3486],
    [25279,1532819107,56.6936,-111.3372,1637.1,1324.4,94.8,-1.0,-4.9,19.3,44.15,1.921,378.0609],
    [25280,1532819108,56.6935,-111.3361,1631.2,1325.5,93.4,-0.6,-5.5,18.54,45.3,1.9251,377.1906],
    [25281,1532819109,56.6935,-111.335,1625.0,1328.1,94.4,-0.1,-3.7,19.0,45.99,1.9252,378.4414],
    [25282,1532819110,56.6934,-111.3339,1618.0,1330.6,93.2,0.0,-4.5,19.06,46.45,1.9257,378.0824],
    [25283,1532819111,56.6933,-111.3327,1610.6,1328.2,92.9,0.2,-3.9,19.0,46.73,1.9271,376.7681],
    [25284,1532819112,56.6932,-111.3316,1603.0,1329.3,92.2,0.7,-3.9,19.2,47.63,1.9255,377.7104],
    [25285,1532819113,56.6932,-111.3305,1595.7,1330.8,92.0,1.4,-2.6,18.75,47.24,1.9257,377.7104],
    [25286,1532819114,56.6932,-111.3293,1587.8,1330.5,91.4,1.9,-2.2,18.62,46.7,1.9287,377.3926],
    [25287,1532819115,56.6931,-111.3282,1579.6,1327.8,89.5,2.3,-3.0,19.33,46.59,1.9269,377.1497],
    [25288,1532819116,56.6931,-111.327,1571.5,1323.9,88.8,2.7,-2.9,19.23,46.88,1.9263,376.1087],
    [25289,1532819117,56.6931,-111.3258,1563.7,1317.0,88.2,3.1,-2.8,19.29,46.57,1.925,377.9152],
    [25290,1532819118,56.6931,-111.3247,1556.2,1310.2,87.8,3.3,-2.9,19.72,45.79,1.9231,377.8392],
    [25291,1532819119,56.6931,-111.3235,1549.9,1305.0,87.0,3.3,-3.7,19.41,46.65,1.9177,377.5393],
    [25292,1532819120,56.6931,-111.3224,1544.1,1301.1,87.1,3.0,-3.8,19.31,45.92,1.9159,376.9717],
    [25293,1532819121,56.6931,-111.3212,1538.3,1296.3,87.9,2.7,-2.9,19.92,45.66,1.9154,376.3615],
    [25294,1532819122,56.6931,-111.3201,1531.6,1289.5,88.6,2.8,-2.5,19.17,46.15,1.9163,375.9857],
    [25295,1532819123,56.6931,-111.3189,1524.9,1280.8,87.8,2.8,-3.5,20.1,45.83,1.9157,376.1396],
    [25296,1532819124,56.6931,-111.3176,1518.1,1272.8,88.1,3.2,-3.2,20.06,46.11,1.9141,376.9911],
    [25297,1532819125,56.6931,-111.3165,1512.6,1266.6,87.8,3.2,-3.5,19.62,47.25,1.9168,375.5216],
    [25298,1532819126,56.693,-111.3153,1507.0,1261.0,87.5,3.7,-3.6,19.85,46.4,1.9171,377.4082],
    [25299,1532819127,56.693,-111.3142,1501.2,1256.3,87.7,4.0,-3.4,19.21,47.14,1.9163,376.0763],
    [25300,1532819128,56.693,-111.313,1494.5,1248.5,87.8,3.4,-3.4,19.69,46.55,1.9166,376.896],
    [25301,1532819129,56.693,-111.3119,1488.2,1242.2,87.4,4.0,-3.7,19.7,47.17,1.9172,375.6005],
    [25302,1532819130,56.693,-111.3107,1481.8,1235.8,86.8,4.8,-3.9,19.75,46.43,1.9169,376.9923],
    [25303,1532819131,56.693,-111.3095,1475.7,1229.7,87.0,5.0,-3.8,19.59,45.64,1.9151,377.5143],
    [25304,1532819132,56.693,-111.3084,1469.3,1223.3,85.9,5.1,-5.0,19.87,45.05,1.9133,376.3162],
    [25305,1532819133,56.693,-111.3072,1462.3,1216.3,86.6,5.0,-4.2,19.57,44.64,1.914,377.7324],
    [25306,1532819134,56.693,-111.3061,1455.7,1211.8,86.6,5.6,-4.4,20.04,43.87,1.914,377.6349],
    [25307,1532819135,56.693,-111.3049,1449.4,1206.1,86.7,6.4,-3.8,19.92,43.44,1.9149,377.043],
    [25308,1532819136,56.693,-111.3037,1443.3,1199.3,86.3,6.4,-3.8,19.93,43.26,1.9151,376.2233],
    [25309,1532819137,56.693,-111.3025,1436.9,1191.9,86.0,5.9,-3.6,20.72,42.93,1.9148,378.2357],
    [25310,1532819138,56.693,-111.3013,1431.2,1186.2,86.0,5.6,-3.3,19.83,43.79,1.9138,377.0515],
    [25311,1532819139,56.693,-111.3002,1425.6,1180.6,85.9,5.8,-3.2,19.61,43.17,1.9129,378.023],
    [25312,1532819140,56.6931,-111.299,1419.8,1174.8,87.0,6.5,-1.6,19.85,42.84,1.9132,377.7342],
    [25313,1532819141,56.6931,-111.2978,1413.4,1168.7,89.5,6.8,0.7,20.28,42.41,1.9137,377.7342],
    [25314,1532819142,56.6931,-111.2966,1407.9,1165.7,89.9,7.1,0.3,19.91,42.89,1.9124,379.0784],
    [25315,1532819143,56.6931,-111.2954,1402.7,1161.0,88.7,7.1,-1.3,20.65,41.61,1.9122,378.3781],
    [25316,1532819144,56.6931,-111.2942,1397.5,1155.5,90.1,6.1,0.2,20.13,41.83,1.9134,376.8173],
    [25317,1532819145,56.6931,-111.293,1392.7,1149.4,91.7,5.0,1.3,19.55,41.33,1.9162,379.1893],
    [25318,1532819146,56.6931,-111.2919,1388.6,1143.2,90.5,4.8,-0.4,20.24,41.36,1.9165,377.0911],
    [25319,1532819147,56.6931,-111.2907,1385.4,1136.8,90.8,5.0,0.2,20.52,41.63,1.9159,377.7626],
    [25320,1532819148,56.6931,-111.2895,1383.2,1130.1,91.3,5.2,0.4,20.5,42.48,1.9171,376.9028],
    [25321,1532819149,56.6931,-111.2883,1382.1,1128.7,90.6,4.7,0.0,20.41,43.31,1.9173,377.2499],
    [25322,1532819150,56.693,-111.2871,1380.8,1119.8,91.9,4.1,1.6,20.56,43.92,1.9184,377.3333],
    [25323,1532819151,56.693,-111.286,1379.1,1109.7,91.8,3.9,1.7,20.47,44.06,1.9176,377.3355],
    [25324,1532819152,56.693,-111.2848,1377.2,1099.9,91.2,4.2,1.2,20.08,44.56,1.9172,377.2619],
    [25325,1532819153,56.693,-111.2837,1375.1,1090.1,91.3,4.5,1.4,20.51,44.73,1.9164,376.5271],
    [25326,1532819154,56.693,-111.2825,1372.8,1081.4,90.9,4.4,1.0,20.38,44.11,1.9148,376.8612],
    [25327,1532819155,56.693,-111.2814,1370.3,1072.3,91.2,3.7,1.5,20.85,43.91,1.9157,376.9541],
    [25328,1532819156,56.693,-111.2802,1367.7,1065.4,91.5,3.2,1.8,20.37,44.09,1.9144,377.4476],
    [25329,1532819157,56.693,-111.2791,1365.0,1058.4,91.5,3.1,1.7,20.47,44.17,1.9143,377.7079],
    [25330,1532819158,56.693,-111.278,1362.1,1049.1,91.6,2.8,1.8,21.1,43.64,1.9173,376.8524],
    [25331,1532819159,56.693,-111.2768,1359.0,1037.2,91.7,2.8,1.6,20.96,43.63,1.916,377.0529],
    [25332,1532819160,56.693,-111.2757,1355.9,1027.2,91.8,2.7,1.7,21.06,43.9,1.9165,377.367],
    [25333,1532819161,56.693,-111.2746,1352.8,1019.8,91.8,1.9,1.8,20.66,43.75,1.9157,375.0464],
    [25334,1532819162,56.693,-111.2734,1349.6,1015.7,91.9,0.9,2.0,20.99,43.4,1.9138,376.8464],
    [25335,1532819163,56.693,-111.2723,1347.1,1011.1,92.8,0.4,3.1,20.62,43.42,1.9143,377.7596],
    [25336,1532819164,56.693,-111.2712,1344.5,1005.5,93.0,0.4,2.9,21.05,42.75,1.9149,378.776],
    [25337,1532819165,56.693,-111.2701,1342.3,998.0,92.6,-0.1,2.5,21.54,42.22,1.9152,377.0452],
    [25338,1532819166,56.693,-111.269,1339.9,990.2,93.0,-0.6,2.9,20.97,42.21,1.9143,377.191],
    [25339,1532819167,56.693,-111.2679,1337.4,982.4,92.6,-0.6,2.3,20.72,41.72,1.9138,377.0554],
    [25340,1532819168,56.693,-111.2668,1335.6,974.5,93.0,-0.2,2.6,21.37,41.42,1.9124,377.73],
    [25341,1532819169,56.693,-111.2657,1334.2,971.2,93.0,-0.7,2.5,20.3,41.33,1.9126,378.6759],
    [25342,1532819170,56.693,-111.2645,1332.7,968.7,92.8,-1.2,2.1,20.87,40.65,1.912,377.9251],
    [25343,1532819171,56.693,-111.2634,1330.7,965.7,92.5,-1.5,1.6,21.84,39.21,1.9135,377.9866],
    [25344,1532819172,56.693,-111.2623,1328.6,962.6,92.6,-1.6,1.5,21.25,39.6,1.9141,378.8734],
    [25345,1532819173,56.6929,-111.2613,1325.5,959.5,93.3,-1.7,2.2,20.99,39.02,1.9142,378.2783],
    [25346,1532819174,56.6929,-111.2601,1321.4,955.1,92.7,-1.8,1.6,21.25,38.34,1.9144,378.6545],
    [25347,1532819175,56.6929,-111.259,1317.4,949.4,92.7,-1.7,1.8,21.37,39.15,1.9132,378.6633],
    [25348,1532819176,56.6929,-111.2579,1313.0,943.0,93.5,-1.7,2.5,21.7,37.83,1.9145,379.301],
    [25349,1532819177,56.6929,-111.2569,1308.3,937.0,93.3,-1.9,2.3,21.36,37.87,1.9145,379.9002],
    [25350,1532819178,56.6929,-111.2558,1303.7,931.7,93.4,-1.8,2.6,21.48,37.66,1.9141,379.3342],
    [25351,1532819179,56.6928,-111.2546,1299.0,925.9,93.5,-1.6,2.4,21.31,37.31,1.9156,379.3909],
    [25352,1532819180,56.6928,-111.2535,1294.5,921.5,92.9,-1.8,1.6,22.04,36.75,1.9177,379.1427],
    [25353,1532819181,56.6928,-111.2525,1290.3,917.4,92.6,-1.5,1.1,21.66,36.99,1.9198,378.6471],
    [25354,1532819182,56.6928,-111.2513,1286.2,913.2,93.0,-0.6,1.3,21.51,37.18,1.9213,378.7271],
    [25355,1532819183,56.6928,-111.2502,1281.9,910.2,93.4,-0.6,1.3,21.47,37.87,1.9205,378.4594],
    [25356,1532819184,56.6927,-111.2491,1277.6,906.1,92.2,-0.9,-0.2,21.76,38.5,1.9194,378.7981],
    [25357,1532819185,56.6927,-111.248,1273.2,901.5,92.6,-0.5,0.1,21.34,39.25,1.9197,379.2468],
    [25358,1532819186,56.6927,-111.2468,1268.9,897.3,92.6,0.1,-0.2,22.16,39.02,1.9188,379.6138],
    [25359,1532819187,56.6927,-111.2457,1265.0,893.3,92.2,0.1,-1.0,21.43,39.52,1.919,378.7855],
    [25360,1532819188,56.6926,-111.2446,1261.2,888.5,93.9,-0.3,-0.1,21.53,39.8,1.916,379.8321],
    [25361,1532819189,56.6926,-111.2435,1257.3,882.6,95.8,-0.1,0.7,22.69,38.77,1.9153,377.7712],
    [25362,1532819190,56.6925,-111.2424,1254.3,877.8,96.9,-0.4,0.0,22.37,38.49,1.9152,379.2294],
    [25363,1532819191,56.6924,-111.2412,1252.5,875.1,97.7,-0.9,-0.5,22.12,37.98,1.9174,378.8608],
    [25364,1532819192,56.6923,-111.2401,1251.0,872.7,100.1,-0.9,0.2,22.13,37.96,1.9163,378.043],
    [25365,1532819193,56.6922,-111.239,1249.7,872.7,102.9,-0.7,2.0,22.17,38.43,1.9162,377.6217],
    [25366,1532819194,56.6921,-111.238,1247.7,870.7,105.5,0.0,2.9,22.0,38.0,1.9169,376.7017],
    [25367,1532819195,56.6919,-111.2369,1245.4,869.7,106.6,-0.2,2.0,22.22,38.52,1.9156,376.7081],
    [25368,1532819196,56.6918,-111.2358,1242.8,867.2,108.4,-0.5,2.2,22.48,38.38,1.9171,376.7576],
    [25369,1532819197,56.6916,-111.2348,1239.9,863.5,109.7,-0.6,1.6,22.7,38.68,1.9159,376.9473],
    [25370,1532819198,56.6914,-111.2337,1236.5,859.5,111.6,-0.7,1.9,22.81,38.79,1.9175,376.5258],
    [25371,1532819199,56.6911,-111.2327,1232.9,852.8,113.9,-0.3,2.2,22.42,39.2,1.9159,377.5174],
    [25372,1532819200,56.6909,-111.2316,1229.3,851.1,115.5,0.0,1.9,23.04,38.74,1.9157,377.4749],
    [25373,1532819201,56.6907,-111.2306,1225.4,852.3,116.9,0.2,1.7,22.6,39.24,1.9144,378.0589],
    [25374,1532819202,56.6904,-111.2296,1221.4,850.4,117.6,0.7,1.2,22.65,39.9,1.9146,378.0589],
    [25375,1532819203,56.6901,-111.2286,1216.9,850.4,118.5,0.4,1.3,22.58,39.66,1.9129,377.6149],
    [25376,1532819204,56.6898,-111.2276,1212.4,851.3,118.5,0.1,1.0,22.62,39.43,1.913,377.6535],
    [25377,1532819205,56.6895,-111.2266,1207.7,855.7,119.2,0.9,1.3,22.63,39.3,1.9135,376.7633],
    [25378,1532819206,56.6892,-111.2256,1201.6,857.4,119.3,1.3,1.2,23.31,38.87,1.9144,376.5643],
    [25379,1532819207,56.6889,-111.2246,1195.7,858.2,118.8,1.5,1.0,22.21,39.25,1.9129,376.9746],
    [25380,1532819208,56.6887,-111.2237,1190.2,859.2,119.5,2.8,1.9,22.24,39.2,1.9136,376.759],
    [25381,1532819209,56.6884,-111.2226,1184.9,861.3,119.0,3.0,1.9,22.92,39.13,1.9149,374.9856],
    [25382,1532819210,56.6881,-111.2216,1179.2,862.4,117.8,2.5,1.9,22.86,39.66,1.9124,374.9856],
    [25383,1532819211,56.6878,-111.2206,1173.4,864.4,117.2,3.0,2.0,22.93,38.71,1.9128,376.3772],
    [25384,1532819212,56.6876,-111.2195,1167.6,866.7,116.2,3.0,1.8,22.73,39.12,1.9112,376.3772],
    [25385,1532819213,56.6873,-111.2184,1161.8,867.3,116.1,2.8,2.3,22.71,39.6,1.9127,375.5363],
    [25386,1532819214,56.6871,-111.2174,1156.4,866.5,116.0,2.5,2.4,23.62,38.75,1.9109,377.0413],
    [25387,1532819215,56.6868,-111.2163,1151.2,864.3,115.5,2.2,2.1,23.07,39.19,1.912,377.0413],
    [25388,1532819216,56.6866,-111.2153,1146.4,865.1,115.6,2.3,2.2,23.04,39.1,1.9122,375.9901],
    [25389,1532819217,56.6863,-111.2142,1141.8,865.8,115.3,2.0,1.9,23.32,39.19,1.912,376.8105],
    [25390,1532819218,56.6861,-111.2131,1137.3,864.4,115.2,2.4,1.7,23.5,38.35,1.9114,376.8521],
    [25391,1532819219,56.6858,-111.2121,1132.7,862.0,115.6,2.9,2.0,23.68,38.03,1.9119,375.8428],
    [25392,1532819220,56.6856,-111.211,1127.6,855.3,115.6,3.1,1.9,23.68,37.97,1.9114,376.1944],
    [25393,1532819221,56.6853,-111.21,1122.1,850.8,115.7,3.7,1.8,23.66,38.1,1.9124,378.0451],
    [25394,1532819222,56.6851,-111.209,1116.3,846.4,115.8,4.1,1.9,23.61,38.42,1.9137,376.0739],
    [25395,1532819223,56.6848,-111.2078,1109.8,842.0,116.2,4.4,2.2,22.98,38.01,1.9121,376.9357],
    [25396,1532819224,56.6846,-111.2068,1103.3,839.3,116.5,5.1,2.4,23.47,38.44,1.913,377.2837],
    [25397,1532819225,56.6843,-111.2057,1096.8,835.8,117.1,5.8,2.8,23.87,37.52,1.9142,377.2837],
    [25398,1532819226,56.6841,-111.2046,1090.6,833.8,117.1,5.9,2.7,23.67,37.49,1.9129,377.6987],
    [25399,1532819227,56.6838,-111.2035,1084.7,832.7,116.8,5.5,2.5,23.46,37.43,1.9131,376.2993],
    [25400,1532819228,56.6836,-111.2024,1079.8,830.3,115.8,5.5,1.5,23.33,37.25,1.912,376.7318],
    [25401,1532819229,56.6833,-111.2013,1075.2,826.8,115.2,6.1,1.0,23.97,37.26,1.9128,376.7304],
    [25402,1532819230,56.6831,-111.2002,1070.5,822.1,114.7,6.4,0.7,23.74,37.03,1.9141,377.6879],
    [25403,1532819231,56.6828,-111.1992,1065.8,818.1,113.7,6.1,0.1,24.3,36.98,1.9142,376.4985],
    [25404,1532819232,56.6826,-111.198,1060.5,812.9,113.5,6.3,0.0,23.28,37.47,1.9139,376.5845],
    [25405,1532819233,56.6823,-111.1969,1055.5,808.3,113.7,7.1,-0.1,23.67,37.32,1.9127,377.5807],
    [25406,1532819234,56.6821,-111.1958,1051.2,803.5,113.6,7.3,-0.3,23.95,37.92,1.9136,377.7686],
    [25407,1532819235,56.6818,-111.1947,1047.2,799.4,113.6,7.1,-0.1,24.01,37.71,1.9137,377.3356],
    [25408,1532819236,56.6816,-111.1936,1043.8,796.3,113.3,6.7,0.0,23.53,37.2,1.9128,376.9354],
    [25409,1532819237,56.6814,-111.1925,1041.5,793.5,112.4,6.2,-0.4,23.86,37.01,1.9134,376.6281],
    [25410,1532819238,56.6811,-111.1914,1040.0,792.0,112.0,6.3,-0.4,23.98,37.01,1.9134,377.5035],
    [25411,1532819239,56.6809,-111.1903,1038.9,792.0,111.8,6.5,-0.5,24.46,36.55,1.9134,376.5769],
    [25412,1532819240,56.6807,-111.1892,1037.6,791.3,111.4,6.5,-0.7,24.14,37.12,1.9137,376.6297],
    [25413,1532819241,56.6805,-111.1881,1035.5,789.5,112.3,7.0,-0.1,24.22,36.35,1.9124,376.7668],
    [25414,1532819242,56.6803,-111.187,1032.9,787.2,112.5,7.0,-0.3,24.21,35.96,1.9123,377.3516],
    [25415,1532819243,56.68,-111.1859,1030.0,784.0,112.5,7.3,-0.5,24.56,35.3,1.9112,378.2459],
    [25416,1532819244,56.6798,-111.1849,1027.2,781.0,113.8,7.9,0.6,24.37,36.09,1.9117,377.9986],
    [25417,1532819245,56.6796,-111.1838,1023.9,776.9,113.9,7.6,0.6,24.39,35.49,1.9136,376.7773],
    [25418,1532819246,56.6794,-111.1827,1019.4,772.5,113.8,7.6,0.7,24.37,35.12,1.9141,376.7773],
    [25419,1532819247,56.6791,-111.1817,1013.8,766.5,113.6,7.6,0.4,24.27,34.59,1.9138,378.9887],
    [25420,1532819248,56.6789,-111.1806,1007.4,759.2,113.6,7.7,0.5,24.24,34.38,1.9144,378.0143],
    [25421,1532819249,56.6787,-111.1796,1001.2,752.2,114.5,8.2,1.6,24.5,34.16,1.9145,377.9509],
    [25422,1532819250,56.6785,-111.1785,994.7,745.0,114.1,8.2,1.5,24.48,34.77,1.9156,377.8744],
    [25423,1532819251,56.6783,-111.1774,987.6,736.4,112.2,7.7,0.8,24.92,33.84,1.9138,377.8744],
    [25424,1532819252,56.6781,-111.1763,981.5,728.5,111.6,7.9,0.9,24.86,34.57,1.9146,377.3069],
    [25425,1532819253,56.6779,-111.1752,976.4,723.4,110.2,7.7,0.3,24.46,34.26,1.9162,378.2381],
    [25426,1532819254,56.6777,-111.1741,971.3,718.4,110.0,7.8,0.6,24.66,34.72,1.9147,378.534],
    [25427,1532819255,56.6775,-111.173,966.0,712.6,109.1,7.5,0.2,24.69,34.34,1.9145,378.534],
    [25428,1532819256,56.6773,-111.1719,960.1,706.7,108.1,7.0,-0.3,24.7,34.24,1.9156,377.854],
    [25429,1532819257,56.6771,-111.1708,954.0,701.0,107.8,6.8,-0.3,24.78,34.33,1.9157,378.3215],
    [25430,1532819258,56.677,-111.1697,947.9,694.9,108.6,7.1,0.7,25.41,33.15,1.9137,377.3107],
    [25431,1532819259,56.6768,-111.1686,942.2,690.6,109.6,7.6,1.3,24.67,33.76,1.9163,378.0347],
    [25432,1532819260,56.6766,-111.1675,937.0,686.6,108.4,7.6,0.3,25.38,32.8,1.9161,377.7814],
    [25433,1532819261,56.6764,-111.1664,932.2,681.7,107.7,7.8,-0.1,24.82,32.95,1.9151,376.8895],
    [25434,1532819262,56.6763,-111.1653,926.9,677.9,107.7,8.4,-0.1,25.27,33.46,1.9148,378.2362],
    [25435,1532819263,56.6761,-111.1642,921.4,672.8,107.1,8.9,-1.1,25.6,32.7,1.9141,378.1978],
    [25436,1532819264,56.6759,-111.1631,916.7,668.1,107.8,9.7,-1.4,25.12,33.15,1.9152,377.9099],
    [25437,1532819265,56.6757,-111.162,912.5,665.5,109.0,10.5,-1.7,25.71,33.05,1.9141,377.9667],
    [25438,1532819266,56.6755,-111.161,908.3,661.3,110.7,10.5,-2.1,24.98,33.57,1.9142,377.8236],
    [25439,1532819267,56.6753,-111.1599,903.9,656.9,112.1,10.4,-3.1,25.62,33.0,1.9137,377.8057],
    [25440,1532819268,56.6751,-111.1589,898.9,650.5,115.3,10.4,-2.8,25.46,33.44,1.9132,377.7276],
    [25441,1532819269,56.6748,-111.1579,893.6,644.0,119.1,10.3,-2.4,25.31,33.63,1.9145,378.1917],
    [25442,1532819270,56.6745,-111.1569,888.3,637.3,121.7,10.3,-3.1,25.36,33.04,1.9152,377.9272],
    [25443,1532819271,56.6742,-111.1559,883.4,632.1,125.0,10.4,-3.6,26.07,32.7,1.916,378.9311],
    [25444,1532819272,56.6739,-111.155,879.0,627.0,127.3,9.7,-4.3,25.42,33.02,1.9166,377.5739],
    [25445,1532819273,56.6735,-111.1541,874.7,622.4,130.0,9.2,-4.2,25.62,32.99,1.9173,378.2489],
    [25446,1532819274,56.6731,-111.1533,870.9,618.9,132.8,8.7,-3.9,25.78,33.76,1.9174,377.5051],
    [25447,1532819275,56.6727,-111.1524,867.7,615.7,136.3,8.7,-3.2,25.61,34.22,1.9173,377.0765],
    [25448,1532819276,56.6723,-111.1516,865.0,613.0,138.8,7.9,-3.3,25.59,33.71,1.9179,377.0995],
    [25449,1532819277,56.6719,-111.1509,861.8,609.8,140.7,7.6,-3.3,25.38,34.13,1.918,377.8134],
    [25450,1532819278,56.6714,-111.1502,857.8,605.8,142.3,6.8,-3.6,25.51,33.91,1.9173,374.7599],
    [25451,1532819279,56.671,-111.1495,853.2,601.2,144.1,6.5,-3.9,25.82,33.96,1.9167,373.6765],
    [25452,1532819280,56.6705,-111.1489,848.8,596.8,146.2,6.1,-4.5,25.62,34.08,1.9162,373.5506],
    [25453,1532819281,56.67,-111.1483,844.5,592.5,149.2,6.5,-3.8,25.6,34.2,1.9157,373.5506],
    [25454,1532819282,56.6695,-111.1477,839.8,586.8,151.6,6.0,-3.6,26.25,33.84,1.9158,376.0191],
    [25455,1532819283,56.669,-111.1472,835.0,581.3,152.4,4.8,-4.3,25.82,34.26,1.9159,374.3082],
    [25456,1532819284,56.6685,-111.1467,830.4,574.9,155.5,5.4,-4.2,25.86,34.39,1.9162,373.8738],
    [25457,1532819285,56.668,-111.1462,826.1,565.1,158.3,5.2,-4.2,25.39,34.29,1.9161,373.8738],
    [25458,1532819286,56.6675,-111.1458,822.1,556.9,161.5,5.1,-3.8,25.96,34.12,1.9152,374.0545],
    [25459,1532819287,56.667,-111.1455,817.7,542.7,164.9,5.4,-3.4,25.52,33.96,1.915,375.1294],
    [25460,1532819288,56.6665,-111.1451,812.1,525.0,167.4,5.1,-3.6,25.87,34.77,1.9157,374.8374],
    [25461,1532819289,56.6659,-111.1449,806.2,507.0,170.6,4.9,-3.8,26.17,34.0,1.9154,375.0479],
    [25462,1532819290,56.6654,-111.1447,800.5,489.5,174.2,4.9,-4.0,26.64,33.66,1.9149,375.8465],
    [25463,1532819291,56.6648,-111.1445,794.8,469.9,177.8,4.9,-4.0,26.55,33.18,1.9153,375.2806],
    [25464,1532819292,56.6643,-111.1445,789.2,449.1,180.6,4.1,-3.5,26.02,33.39,1.9138,375.1114],
    [25465,1532819293,56.6637,-111.1444,784.1,430.1,182.9,4.2,-3.6,26.13,33.27,1.913,375.1174],
    [25466,1532819294,56.6632,-111.1444,778.8,412.3,184.7,4.2,-4.3,26.23,33.25,1.916,375.0645],
    [25467,1532819295,56.6627,-111.1444,772.6,397.9,183.9,3.0,-4.6,26.24,32.44,1.9168,375.7252],
    [25468,1532819296,56.6621,-111.1444,766.6,388.6,184.9,3.8,-5.3,27.01,32.1,1.9149,376.0499],
    [25469,1532819297,56.6616,-111.1445,761.2,383.2,185.5,3.9,-5.7,26.26,32.99,1.915,376.8235],
    [25470,1532819298,56.6611,-111.1445,755.3,378.4,184.6,3.1,-5.7,25.79,32.41,1.915,377.9002],
    [25471,1532819299,56.6605,-111.1445,748.7,373.7,185.4,3.9,-6.0,26.58,32.47,1.9154,377.6951],
    [25472,1532819300,56.66,-111.1445,742.0,368.6,185.7,3.7,-6.7,26.08,33.2,1.9159,377.5794],
    [25473,1532819301,56.6594,-111.1446,734.7,364.1,185.6,3.1,-7.7,26.06,33.11,1.9153,375.8368],
    [25474,1532819302,56.6589,-111.1446,726.9,357.9,186.8,3.0,-8.4,26.49,33.34,1.9158,377.6509],
    [25475,1532819303,56.6583,-111.1447,719.6,353.2,189.2,3.2,-9.1,26.5,33.44,1.9166,377.2965],
    [25476,1532819304,56.6578,-111.1448,713.5,348.5,192.0,3.1,-8.9,27.28,32.74,1.9169,377.8798],
    [25477,1532819305,56.6572,-111.1449,709.6,345.5,195.0,1.9,-8.1,27.17,32.93,1.9155,377.1838],
    [25478,1532819306,56.6567,-111.1452,708.0,345.0,198.3,0.9,-7.3,25.85,33.43,1.9143,377.1888],
    [25479,1532819307,56.6562,-111.1455,707.1,344.1,201.6,0.2,-6.7,26.71,33.25,1.9156,377.3298],
    [25480,1532819308,56.6557,-111.1458,705.8,341.8,205.2,0.1,-6.2,26.74,33.52,1.9159,377.3912],
    [25481,1532819309,56.6552,-111.1462,703.7,338.6,209.3,0.2,-5.1,27.39,32.36,1.9157,377.4286],
    [25482,1532819310,56.6548,-111.1466,701.4,336.5,213.4,-0.2,-3.6,26.73,33.79,1.9151,376.6178],
    [25483,1532819311,56.6544,-111.1471,699.3,332.3,219.8,0.1,-3.6,26.64,32.52,1.9157,376.476],
    [25484,1532819312,56.654,-111.1477,697.6,329.1,228.3,0.5,-3.7,27.52,32.25,1.9168,376.476],
    [25485,1532819313,56.6537,-111.1484,695.5,325.5,234.6,0.6,-2.8,26.8,33.12,1.915,376.9751],
    [25486,1532819314,56.6534,-111.1492,692.1,321.8,241.6,0.9,-2.7,27.33,32.61,1.9148,376.9457],
    [25487,1532819315,56.6532,-111.1499,688.6,316.9,248.3,0.5,-1.9,26.58,33.46,1.9151,376.5031],
    [25488,1532819316,56.653,-111.1508,685.0,313.0,253.8,0.2,-0.7,26.7,33.41,1.9164,377.5726],
    [25489,1532819317,56.6529,-111.1516,680.8,308.8,259.5,0.4,-0.6,27.09,33.71,1.9166,377.3468],
    [25490,1532819318,56.6528,-111.1525,675.6,303.6,265.2,0.2,-1.1,27.08,34.3,1.9163,377.1659],
    [25491,1532819319,56.6528,-111.1534,670.2,296.8,267.7,-0.1,-0.1,27.71,32.56,1.9146,378.0521],
    [25492,1532819320,56.6528,-111.1542,664.7,291.3,269.7,-0.5,0.2,27.73,32.2,1.9151,377.1872],
    [25493,1532819321,56.6528,-111.1551,659.4,286.1,271.6,-1.2,0.3,27.29,32.47,1.9145,377.1872],
    [25494,1532819322,56.6528,-111.156,654.2,281.2,272.9,-1.7,0.2,27.67,32.43,1.9159,376.9392],
    [25495,1532819323,56.6528,-111.1568,648.7,275.7,274.0,-1.7,0.1,26.47,32.77,1.9164,376.956],
    [25496,1532819324,56.6529,-111.1577,643.7,270.7,274.2,-1.6,0.2,27.39,32.35,1.9167,377.3566],
    [25497,1532819325,56.6529,-111.1585,638.4,265.4,274.5,-1.5,0.3,27.2,32.23,1.9169,376.0713],
    [25498,1532819326,56.6529,-111.1594,632.0,259.0,274.5,-2.1,0.3,27.23,32.02,1.9172,376.7277],
    [25499,1532819327,56.653,-111.1603,625.5,253.5,275.7,-2.0,-0.7,27.31,31.91,1.9185,377.1788],
    [25500,1532819328,56.653,-111.1611,618.8,246.8,275.7,-1.6,-0.8,26.93,31.99,1.9171,376.8754],
    [25501,1532819329,56.6531,-111.162,612.2,240.2,274.6,-1.7,-0.5,27.48,31.87,1.9174,376.3382],
    [25502,1532819330,56.6531,-111.1628,606.0,234.0,273.8,-1.9,-0.7,27.28,32.3,1.9183,377.8517],
    [25503,1532819331,56.6531,-111.1637,600.6,228.6,272.3,-2.3,-0.3,27.94,31.65,1.9188,377.4235],
    [25504,1532819332,56.6531,-111.1645,594.4,222.3,270.7,-2.5,0.6,27.76,31.89,1.9176,376.614],
    [25505,1532819333,56.6531,-111.1654,587.7,216.6,269.6,-2.7,1.1,27.68,32.73,1.9173,375.9256],
    [25506,1532819334,56.6531,-111.1662,581.2,210.8,272.3,-2.6,-1.2,27.77,32.5,1.9167,376.8513],
    [25507,1532819335,56.6531,-111.1671,574.6,204.5,272.9,-2.8,-1.0,27.4,32.39,1.9171,377.4728],
    [25508,1532819336,56.6531,-111.1679,568.4,200.1,270.8,-3.1,0.7,27.67,33.05,1.9168,376.5614],
    [25509,1532819337,56.6532,-111.1688,562.7,195.3,272.9,-3.2,-0.6,28.17,32.35,1.916,376.3327],
    [25510,1532819338,56.6532,-111.1696,556.8,190.4,273.2,-3.4,0.1,27.0,32.64,1.9155,376.4618],
    [25511,1532819339,56.6532,-111.1705,551.1,186.3,273.4,-4.3,0.3,27.37,32.7,1.9162,376.4062],
    [25512,1532819340,56.6532,-111.1713,545.0,182.3,275.1,-5.5,-1.0,28.11,32.02,1.9175,376.4062],
    [25513,1532819341,56.6533,-111.1722,539.8,177.9,274.1,-6.4,-0.6,27.44,32.36,1.9175,376.4062],
    [25514,1532819342,56.6533,-111.173,535.1,174.4,272.9,-7.2,-0.2,27.98,31.94,1.9175,376.4062],
    [25515,1532819343,56.6533,-111.1738,530.8,171.0,273.4,-8.6,-0.9,27.65,32.28,1.9175,376.4062]
]}
